<?xml version="1.0" encoding="UTF-8" standalone="no" ?>
<gpx xmlns="http://www.topografix.com/GPX/1/1" xmlns:xsi="http://www.w3.org/2001/XMLSchema-instance" xsi:schemaLocation="http://www.topografix.com/GPX/1/1 http://www.topografix.com/GPX/1/1/gpx.xsd" version="1.1" creator="VisuGPX - https://www.visugpx.com">
  <metadata>
    <name>TCL-8kms</name>
    <desc><![CDATA[Boucle commune du Trail de la Cote de Lumière à Saint Hilaire de Riez.]]></desc>
  </metadata>
  <trk>
    <name><![CDATA[TCL-8kms_1]]></name>
    <trkseg>
      <trkpt lat="46.7207" lon="-1.96224">
        <ele>11</ele>
        <time>2024-12-26T08:04:02.045Z</time>
      </trkpt>
      <trkpt lat="46.7207" lon="-1.96224">
        <ele>11</ele>
        <time>2024-12-26T08:04:03.046Z</time>
      </trkpt>
      <trkpt lat="46.7207" lon="-1.96224">
        <ele>11</ele>
        <time>2024-12-26T08:04:04.045Z</time>
      </trkpt>
      <trkpt lat="46.7207" lon="-1.96224">
        <ele>11</ele>
        <time>2024-12-26T08:04:05.046Z</time>
      </trkpt>
      <trkpt lat="46.7207" lon="-1.96224">
        <ele>11</ele>
        <time>2024-12-26T08:04:06.045Z</time>
      </trkpt>
      <trkpt lat="46.7207" lon="-1.96224">
        <ele>11</ele>
        <time>2024-12-26T08:04:07.045Z</time>
      </trkpt>
      <trkpt lat="46.7207" lon="-1.96225">
        <ele>11</ele>
        <time>2024-12-26T08:04:08.045Z</time>
      </trkpt>
      <trkpt lat="46.7207" lon="-1.96225">
        <ele>11</ele>
        <time>2024-12-26T08:04:09.045Z</time>
      </trkpt>
      <trkpt lat="46.7207" lon="-1.96225">
        <ele>11</ele>
        <time>2024-12-26T08:04:10.045Z</time>
      </trkpt>
      <trkpt lat="46.7207" lon="-1.96225">
        <ele>11</ele>
        <time>2024-12-26T08:04:11.045Z</time>
      </trkpt>
      <trkpt lat="46.7207" lon="-1.96225">
        <ele>11</ele>
        <time>2024-12-26T08:04:12.045Z</time>
      </trkpt>
      <trkpt lat="46.7207" lon="-1.96225">
        <ele>11</ele>
        <time>2024-12-26T08:04:13.045Z</time>
      </trkpt>
      <trkpt lat="46.7207" lon="-1.96225">
        <ele>11</ele>
        <time>2024-12-26T08:04:14.045Z</time>
      </trkpt>
      <trkpt lat="46.7207" lon="-1.96225">
        <ele>11</ele>
        <time>2024-12-26T08:04:15.045Z</time>
      </trkpt>
      <trkpt lat="46.7207" lon="-1.96225">
        <ele>11</ele>
        <time>2024-12-26T08:04:16.046Z</time>
      </trkpt>
      <trkpt lat="46.7207" lon="-1.96225">
        <ele>11</ele>
        <time>2024-12-26T08:04:17.045Z</time>
      </trkpt>
      <trkpt lat="46.72071" lon="-1.96226">
        <ele>11</ele>
        <time>2024-12-26T08:04:18.046Z</time>
      </trkpt>
      <trkpt lat="46.72073" lon="-1.96227">
        <ele>11</ele>
        <time>2024-12-26T08:04:19.046Z</time>
      </trkpt>
      <trkpt lat="46.72074" lon="-1.96228">
        <ele>11</ele>
        <time>2024-12-26T08:04:20.046Z</time>
      </trkpt>
      <trkpt lat="46.72075" lon="-1.96229">
        <ele>11</ele>
        <time>2024-12-26T08:04:21.045Z</time>
      </trkpt>
      <trkpt lat="46.72076" lon="-1.9623">
        <ele>11</ele>
        <time>2024-12-26T08:04:22.046Z</time>
      </trkpt>
      <trkpt lat="46.72077" lon="-1.96231">
        <ele>11</ele>
        <time>2024-12-26T08:04:23.045Z</time>
      </trkpt>
      <trkpt lat="46.72078" lon="-1.96232">
        <ele>11</ele>
        <time>2024-12-26T08:04:24.046Z</time>
      </trkpt>
      <trkpt lat="46.72079" lon="-1.96233">
        <ele>11</ele>
        <time>2024-12-26T08:04:25.046Z</time>
      </trkpt>
      <trkpt lat="46.7208" lon="-1.96234">
        <ele>11</ele>
        <time>2024-12-26T08:04:26.045Z</time>
      </trkpt>
      <trkpt lat="46.72081" lon="-1.96234">
        <ele>11</ele>
        <time>2024-12-26T08:04:27.045Z</time>
      </trkpt>
      <trkpt lat="46.72082" lon="-1.96235">
        <ele>11</ele>
        <time>2024-12-26T08:04:28.046Z</time>
      </trkpt>
      <trkpt lat="46.72083" lon="-1.96235">
        <ele>11</ele>
        <time>2024-12-26T08:04:29.045Z</time>
      </trkpt>
      <trkpt lat="46.72084" lon="-1.96236">
        <ele>11</ele>
        <time>2024-12-26T08:04:30.045Z</time>
      </trkpt>
      <trkpt lat="46.72085" lon="-1.96236">
        <ele>11</ele>
        <time>2024-12-26T08:04:31.045Z</time>
      </trkpt>
      <trkpt lat="46.72087" lon="-1.96237">
        <ele>11</ele>
        <time>2024-12-26T08:04:32.046Z</time>
      </trkpt>
      <trkpt lat="46.72088" lon="-1.96237">
        <ele>11</ele>
        <time>2024-12-26T08:04:33.045Z</time>
      </trkpt>
      <trkpt lat="46.72089" lon="-1.96238">
        <ele>11</ele>
        <time>2024-12-26T08:04:34.045Z</time>
      </trkpt>
      <trkpt lat="46.7209" lon="-1.96238">
        <ele>11</ele>
        <time>2024-12-26T08:04:35.046Z</time>
      </trkpt>
      <trkpt lat="46.72091" lon="-1.96239">
        <ele>11</ele>
        <time>2024-12-26T08:04:36.045Z</time>
      </trkpt>
      <trkpt lat="46.72092" lon="-1.96239">
        <ele>11</ele>
        <time>2024-12-26T08:04:37.046Z</time>
      </trkpt>
      <trkpt lat="46.72093" lon="-1.9624">
        <ele>11</ele>
        <time>2024-12-26T08:04:38.045Z</time>
      </trkpt>
      <trkpt lat="46.72095" lon="-1.96241">
        <ele>11</ele>
        <time>2024-12-26T08:04:39.046Z</time>
      </trkpt>
      <trkpt lat="46.72096" lon="-1.96242">
        <ele>11</ele>
        <time>2024-12-26T08:04:40.046Z</time>
      </trkpt>
      <trkpt lat="46.72098" lon="-1.96242">
        <ele>11</ele>
        <time>2024-12-26T08:04:41.045Z</time>
      </trkpt>
      <trkpt lat="46.72099" lon="-1.96243">
        <ele>11</ele>
        <time>2024-12-26T08:04:42.045Z</time>
      </trkpt>
      <trkpt lat="46.721" lon="-1.96244">
        <ele>11</ele>
        <time>2024-12-26T08:04:43.045Z</time>
      </trkpt>
      <trkpt lat="46.72101" lon="-1.96245">
        <ele>11</ele>
        <time>2024-12-26T08:04:44.045Z</time>
      </trkpt>
      <trkpt lat="46.72102" lon="-1.96246">
        <ele>11</ele>
        <time>2024-12-26T08:04:45.045Z</time>
      </trkpt>
      <trkpt lat="46.72104" lon="-1.96246">
        <ele>11</ele>
        <time>2024-12-26T08:04:46.045Z</time>
      </trkpt>
      <trkpt lat="46.72105" lon="-1.96247">
        <ele>11</ele>
        <time>2024-12-26T08:04:47.045Z</time>
      </trkpt>
      <trkpt lat="46.72106" lon="-1.96247">
        <ele>11</ele>
        <time>2024-12-26T08:04:48.045Z</time>
      </trkpt>
      <trkpt lat="46.72108" lon="-1.96248">
        <ele>11</ele>
        <time>2024-12-26T08:04:49.046Z</time>
      </trkpt>
      <trkpt lat="46.72109" lon="-1.96249">
        <ele>11</ele>
        <time>2024-12-26T08:04:50.045Z</time>
      </trkpt>
      <trkpt lat="46.7211" lon="-1.9625">
        <ele>11</ele>
        <time>2024-12-26T08:04:51.045Z</time>
      </trkpt>
      <trkpt lat="46.72112" lon="-1.96251">
        <ele>11</ele>
        <time>2024-12-26T08:04:52.045Z</time>
      </trkpt>
      <trkpt lat="46.72113" lon="-1.96252">
        <ele>11</ele>
        <time>2024-12-26T08:04:53.045Z</time>
      </trkpt>
      <trkpt lat="46.72114" lon="-1.96253">
        <ele>11</ele>
        <time>2024-12-26T08:04:54.046Z</time>
      </trkpt>
      <trkpt lat="46.72115" lon="-1.96254">
        <ele>11</ele>
        <time>2024-12-26T08:04:55.046Z</time>
      </trkpt>
      <trkpt lat="46.72116" lon="-1.96254">
        <ele>11</ele>
        <time>2024-12-26T08:04:56.045Z</time>
      </trkpt>
      <trkpt lat="46.72118" lon="-1.96255">
        <ele>11</ele>
        <time>2024-12-26T08:04:57.046Z</time>
      </trkpt>
      <trkpt lat="46.72119" lon="-1.96255">
        <ele>11</ele>
        <time>2024-12-26T08:04:58.045Z</time>
      </trkpt>
      <trkpt lat="46.7212" lon="-1.96256">
        <ele>11</ele>
        <time>2024-12-26T08:04:59.045Z</time>
      </trkpt>
      <trkpt lat="46.72121" lon="-1.96256">
        <ele>11</ele>
        <time>2024-12-26T08:05:00.046Z</time>
      </trkpt>
      <trkpt lat="46.72122" lon="-1.96256">
        <ele>11</ele>
        <time>2024-12-26T08:05:01.045Z</time>
      </trkpt>
      <trkpt lat="46.72123" lon="-1.96256">
        <ele>11</ele>
        <time>2024-12-26T08:05:02.046Z</time>
      </trkpt>
      <trkpt lat="46.72124" lon="-1.96257">
        <ele>11</ele>
        <time>2024-12-26T08:05:03.045Z</time>
      </trkpt>
      <trkpt lat="46.72126" lon="-1.96258">
        <ele>11</ele>
        <time>2024-12-26T08:05:04.045Z</time>
      </trkpt>
      <trkpt lat="46.72127" lon="-1.96259">
        <ele>11</ele>
        <time>2024-12-26T08:05:05.045Z</time>
      </trkpt>
      <trkpt lat="46.72128" lon="-1.96259">
        <ele>11</ele>
        <time>2024-12-26T08:05:06.045Z</time>
      </trkpt>
      <trkpt lat="46.7213" lon="-1.96259">
        <ele>11</ele>
        <time>2024-12-26T08:05:07.045Z</time>
      </trkpt>
      <trkpt lat="46.72132" lon="-1.96259">
        <ele>11</ele>
        <time>2024-12-26T08:05:08.045Z</time>
      </trkpt>
      <trkpt lat="46.72133" lon="-1.96259">
        <ele>11</ele>
        <time>2024-12-26T08:05:09.045Z</time>
      </trkpt>
      <trkpt lat="46.72134" lon="-1.96259">
        <ele>11</ele>
        <time>2024-12-26T08:05:10.045Z</time>
      </trkpt>
      <trkpt lat="46.72135" lon="-1.9626">
        <ele>11</ele>
        <time>2024-12-26T08:05:11.045Z</time>
      </trkpt>
      <trkpt lat="46.72136" lon="-1.96261">
        <ele>11</ele>
        <time>2024-12-26T08:05:12.046Z</time>
      </trkpt>
      <trkpt lat="46.72138" lon="-1.96261">
        <ele>11</ele>
        <time>2024-12-26T08:05:13.046Z</time>
      </trkpt>
      <trkpt lat="46.72139" lon="-1.96262">
        <ele>11</ele>
        <time>2024-12-26T08:05:14.045Z</time>
      </trkpt>
      <trkpt lat="46.7214" lon="-1.96262">
        <ele>11</ele>
        <time>2024-12-26T08:05:15.045Z</time>
      </trkpt>
      <trkpt lat="46.72142" lon="-1.9626">
        <ele>11</ele>
        <time>2024-12-26T08:05:16.045Z</time>
      </trkpt>
      <trkpt lat="46.72144" lon="-1.96259">
        <ele>11</ele>
        <time>2024-12-26T08:05:17.046Z</time>
      </trkpt>
      <trkpt lat="46.72145" lon="-1.96259">
        <ele>11</ele>
        <time>2024-12-26T08:05:18.046Z</time>
      </trkpt>
      <trkpt lat="46.72147" lon="-1.96259">
        <ele>11</ele>
        <time>2024-12-26T08:05:19.045Z</time>
      </trkpt>
      <trkpt lat="46.72148" lon="-1.96259">
        <ele>11</ele>
        <time>2024-12-26T08:05:20.045Z</time>
      </trkpt>
      <trkpt lat="46.72149" lon="-1.96259">
        <ele>11</ele>
        <time>2024-12-26T08:05:21.045Z</time>
      </trkpt>
      <trkpt lat="46.72151" lon="-1.96259">
        <ele>11</ele>
        <time>2024-12-26T08:05:22.046Z</time>
      </trkpt>
      <trkpt lat="46.72152" lon="-1.96259">
        <ele>11</ele>
        <time>2024-12-26T08:05:23.046Z</time>
      </trkpt>
      <trkpt lat="46.72153" lon="-1.96258">
        <ele>11</ele>
        <time>2024-12-26T08:05:24.046Z</time>
      </trkpt>
      <trkpt lat="46.72155" lon="-1.96258">
        <ele>11</ele>
        <time>2024-12-26T08:05:25.045Z</time>
      </trkpt>
      <trkpt lat="46.72157" lon="-1.96258">
        <ele>11</ele>
        <time>2024-12-26T08:05:26.045Z</time>
      </trkpt>
      <trkpt lat="46.72158" lon="-1.96258">
        <ele>11</ele>
        <time>2024-12-26T08:05:27.046Z</time>
      </trkpt>
      <trkpt lat="46.72159" lon="-1.96258">
        <ele>11</ele>
        <time>2024-12-26T08:05:28.045Z</time>
      </trkpt>
      <trkpt lat="46.7216" lon="-1.96258">
        <ele>11</ele>
        <time>2024-12-26T08:05:29.046Z</time>
      </trkpt>
      <trkpt lat="46.72161" lon="-1.96258">
        <ele>11</ele>
        <time>2024-12-26T08:05:30.045Z</time>
      </trkpt>
      <trkpt lat="46.72162" lon="-1.96258">
        <ele>11</ele>
        <time>2024-12-26T08:05:31.045Z</time>
      </trkpt>
      <trkpt lat="46.72163" lon="-1.96259">
        <ele>11</ele>
        <time>2024-12-26T08:05:32.045Z</time>
      </trkpt>
      <trkpt lat="46.72164" lon="-1.96259">
        <ele>11</ele>
        <time>2024-12-26T08:05:33.046Z</time>
      </trkpt>
      <trkpt lat="46.72165" lon="-1.9626">
        <ele>11</ele>
        <time>2024-12-26T08:05:34.045Z</time>
      </trkpt>
      <trkpt lat="46.72166" lon="-1.96261">
        <ele>11</ele>
        <time>2024-12-26T08:05:35.046Z</time>
      </trkpt>
      <trkpt lat="46.72167" lon="-1.96261">
        <ele>11</ele>
        <time>2024-12-26T08:05:36.045Z</time>
      </trkpt>
      <trkpt lat="46.72169" lon="-1.96262">
        <ele>11</ele>
        <time>2024-12-26T08:05:37.045Z</time>
      </trkpt>
      <trkpt lat="46.7217" lon="-1.96263">
        <ele>10.9</ele>
        <time>2024-12-26T08:05:38.046Z</time>
      </trkpt>
      <trkpt lat="46.72171" lon="-1.96264">
        <ele>10.9</ele>
        <time>2024-12-26T08:05:39.045Z</time>
      </trkpt>
      <trkpt lat="46.72172" lon="-1.96265">
        <ele>10.9</ele>
        <time>2024-12-26T08:05:40.046Z</time>
      </trkpt>
      <trkpt lat="46.72173" lon="-1.96266">
        <ele>10.9</ele>
        <time>2024-12-26T08:05:41.045Z</time>
      </trkpt>
      <trkpt lat="46.72174" lon="-1.96267">
        <ele>10.8</ele>
        <time>2024-12-26T08:05:42.045Z</time>
      </trkpt>
      <trkpt lat="46.72175" lon="-1.96268">
        <ele>10.8</ele>
        <time>2024-12-26T08:05:43.045Z</time>
      </trkpt>
      <trkpt lat="46.72176" lon="-1.96268">
        <ele>10.8</ele>
        <time>2024-12-26T08:05:44.045Z</time>
      </trkpt>
      <trkpt lat="46.72177" lon="-1.96269">
        <ele>10.7</ele>
        <time>2024-12-26T08:05:45.046Z</time>
      </trkpt>
      <trkpt lat="46.72178" lon="-1.9627">
        <ele>10.7</ele>
        <time>2024-12-26T08:05:46.046Z</time>
      </trkpt>
      <trkpt lat="46.72179" lon="-1.96271">
        <ele>10.7</ele>
        <time>2024-12-26T08:05:47.045Z</time>
      </trkpt>
      <trkpt lat="46.72179" lon="-1.96272">
        <ele>10.6</ele>
        <time>2024-12-26T08:05:48.045Z</time>
      </trkpt>
      <trkpt lat="46.7218" lon="-1.96274">
        <ele>10.6</ele>
        <time>2024-12-26T08:05:49.045Z</time>
      </trkpt>
      <trkpt lat="46.7218" lon="-1.96275">
        <ele>10.6</ele>
        <time>2024-12-26T08:05:50.046Z</time>
      </trkpt>
      <trkpt lat="46.7218" lon="-1.96276">
        <ele>10.6</ele>
        <time>2024-12-26T08:05:51.045Z</time>
      </trkpt>
      <trkpt lat="46.7218" lon="-1.96278">
        <ele>10.5</ele>
        <time>2024-12-26T08:05:52.045Z</time>
      </trkpt>
      <trkpt lat="46.7218" lon="-1.96279">
        <ele>10.5</ele>
        <time>2024-12-26T08:05:53.045Z</time>
      </trkpt>
      <trkpt lat="46.7218" lon="-1.96281">
        <ele>10.5</ele>
        <time>2024-12-26T08:05:54.045Z</time>
      </trkpt>
      <trkpt lat="46.7218" lon="-1.96282">
        <ele>10.5</ele>
        <time>2024-12-26T08:05:55.045Z</time>
      </trkpt>
      <trkpt lat="46.7218" lon="-1.96284">
        <ele>10.4</ele>
        <time>2024-12-26T08:05:56.046Z</time>
      </trkpt>
      <trkpt lat="46.7218" lon="-1.96285">
        <ele>10.4</ele>
        <time>2024-12-26T08:05:57.045Z</time>
      </trkpt>
      <trkpt lat="46.72179" lon="-1.96287">
        <ele>10.4</ele>
        <time>2024-12-26T08:05:58.046Z</time>
      </trkpt>
      <trkpt lat="46.72179" lon="-1.96289">
        <ele>10.3</ele>
        <time>2024-12-26T08:05:59.046Z</time>
      </trkpt>
      <trkpt lat="46.7218" lon="-1.96292">
        <ele>10.3</ele>
        <time>2024-12-26T08:06:00.046Z</time>
      </trkpt>
      <trkpt lat="46.72181" lon="-1.96294">
        <ele>10.2</ele>
        <time>2024-12-26T08:06:01.046Z</time>
      </trkpt>
      <trkpt lat="46.72182" lon="-1.96295">
        <ele>10.2</ele>
        <time>2024-12-26T08:06:02.046Z</time>
      </trkpt>
      <trkpt lat="46.72183" lon="-1.96296">
        <ele>10.1</ele>
        <time>2024-12-26T08:06:03.045Z</time>
      </trkpt>
      <trkpt lat="46.72184" lon="-1.96297">
        <ele>10.1</ele>
        <time>2024-12-26T08:06:04.045Z</time>
      </trkpt>
      <trkpt lat="46.72185" lon="-1.96298">
        <ele>10.1</ele>
        <time>2024-12-26T08:06:05.045Z</time>
      </trkpt>
      <trkpt lat="46.72186" lon="-1.963">
        <ele>10.1</ele>
        <time>2024-12-26T08:06:06.046Z</time>
      </trkpt>
      <trkpt lat="46.72187" lon="-1.96301">
        <ele>10</ele>
        <time>2024-12-26T08:06:07.045Z</time>
      </trkpt>
      <trkpt lat="46.72188" lon="-1.96303">
        <ele>10</ele>
        <time>2024-12-26T08:06:08.045Z</time>
      </trkpt>
      <trkpt lat="46.72189" lon="-1.96304">
        <ele>10</ele>
        <time>2024-12-26T08:06:09.046Z</time>
      </trkpt>
      <trkpt lat="46.7219" lon="-1.96304">
        <ele>10</ele>
        <time>2024-12-26T08:06:10.046Z</time>
      </trkpt>
      <trkpt lat="46.72191" lon="-1.96303">
        <ele>10</ele>
        <time>2024-12-26T08:06:11.046Z</time>
      </trkpt>
      <trkpt lat="46.72193" lon="-1.96302">
        <ele>10</ele>
        <time>2024-12-26T08:06:12.046Z</time>
      </trkpt>
      <trkpt lat="46.72195" lon="-1.96301">
        <ele>10</ele>
        <time>2024-12-26T08:06:13.045Z</time>
      </trkpt>
      <trkpt lat="46.72197" lon="-1.96301">
        <ele>10</ele>
        <time>2024-12-26T08:06:14.046Z</time>
      </trkpt>
      <trkpt lat="46.72198" lon="-1.96301">
        <ele>10</ele>
        <time>2024-12-26T08:06:15.046Z</time>
      </trkpt>
      <trkpt lat="46.722" lon="-1.96301">
        <ele>10</ele>
        <time>2024-12-26T08:06:16.045Z</time>
      </trkpt>
      <trkpt lat="46.72201" lon="-1.96302">
        <ele>10</ele>
        <time>2024-12-26T08:06:17.045Z</time>
      </trkpt>
      <trkpt lat="46.72202" lon="-1.96303">
        <ele>10</ele>
        <time>2024-12-26T08:06:18.046Z</time>
      </trkpt>
      <trkpt lat="46.72203" lon="-1.96304">
        <ele>10</ele>
        <time>2024-12-26T08:06:19.045Z</time>
      </trkpt>
      <trkpt lat="46.72204" lon="-1.96304">
        <ele>10</ele>
        <time>2024-12-26T08:06:20.045Z</time>
      </trkpt>
      <trkpt lat="46.72206" lon="-1.96303">
        <ele>10</ele>
        <time>2024-12-26T08:06:21.046Z</time>
      </trkpt>
      <trkpt lat="46.72207" lon="-1.96302">
        <ele>10</ele>
        <time>2024-12-26T08:06:22.046Z</time>
      </trkpt>
      <trkpt lat="46.72208" lon="-1.96302">
        <ele>10</ele>
        <time>2024-12-26T08:06:23.045Z</time>
      </trkpt>
      <trkpt lat="46.72209" lon="-1.96302">
        <ele>10</ele>
        <time>2024-12-26T08:06:24.046Z</time>
      </trkpt>
      <trkpt lat="46.72209" lon="-1.96302">
        <ele>10</ele>
        <time>2024-12-26T08:06:25.045Z</time>
      </trkpt>
      <trkpt lat="46.72209" lon="-1.96302">
        <ele>10</ele>
        <time>2024-12-26T08:06:26.045Z</time>
      </trkpt>
      <trkpt lat="46.72211" lon="-1.96303">
        <ele>10</ele>
        <time>2024-12-26T08:06:27.046Z</time>
      </trkpt>
      <trkpt lat="46.72212" lon="-1.96303">
        <ele>10</ele>
        <time>2024-12-26T08:06:28.046Z</time>
      </trkpt>
      <trkpt lat="46.72212" lon="-1.96304">
        <ele>10</ele>
        <time>2024-12-26T08:06:29.045Z</time>
      </trkpt>
      <trkpt lat="46.72213" lon="-1.96304">
        <ele>10</ele>
        <time>2024-12-26T08:06:30.045Z</time>
      </trkpt>
      <trkpt lat="46.72214" lon="-1.96305">
        <ele>10</ele>
        <time>2024-12-26T08:06:31.045Z</time>
      </trkpt>
      <trkpt lat="46.72215" lon="-1.96306">
        <ele>10</ele>
        <time>2024-12-26T08:06:32.045Z</time>
      </trkpt>
      <trkpt lat="46.72218" lon="-1.96305">
        <ele>10</ele>
        <time>2024-12-26T08:06:33.046Z</time>
      </trkpt>
      <trkpt lat="46.72219" lon="-1.96305">
        <ele>10</ele>
        <time>2024-12-26T08:06:34.046Z</time>
      </trkpt>
      <trkpt lat="46.72221" lon="-1.96305">
        <ele>10</ele>
        <time>2024-12-26T08:06:35.046Z</time>
      </trkpt>
      <trkpt lat="46.72222" lon="-1.96305">
        <ele>10</ele>
        <time>2024-12-26T08:06:36.045Z</time>
      </trkpt>
      <trkpt lat="46.72224" lon="-1.96304">
        <ele>9.9</ele>
        <time>2024-12-26T08:06:37.045Z</time>
      </trkpt>
      <trkpt lat="46.72225" lon="-1.96305">
        <ele>9.9</ele>
        <time>2024-12-26T08:06:38.045Z</time>
      </trkpt>
      <trkpt lat="46.72226" lon="-1.96305">
        <ele>9.9</ele>
        <time>2024-12-26T08:06:39.046Z</time>
      </trkpt>
      <trkpt lat="46.72228" lon="-1.96303">
        <ele>9.8</ele>
        <time>2024-12-26T08:06:40.046Z</time>
      </trkpt>
      <trkpt lat="46.7223" lon="-1.96301">
        <ele>9.7</ele>
        <time>2024-12-26T08:06:41.045Z</time>
      </trkpt>
      <trkpt lat="46.72233" lon="-1.96299">
        <ele>9.6</ele>
        <time>2024-12-26T08:06:42.045Z</time>
      </trkpt>
      <trkpt lat="46.72236" lon="-1.96297">
        <ele>9.5</ele>
        <time>2024-12-26T08:06:43.046Z</time>
      </trkpt>
      <trkpt lat="46.72237" lon="-1.96297">
        <ele>9.5</ele>
        <time>2024-12-26T08:06:44.046Z</time>
      </trkpt>
      <trkpt lat="46.72239" lon="-1.96296">
        <ele>9.4</ele>
        <time>2024-12-26T08:06:45.046Z</time>
      </trkpt>
      <trkpt lat="46.7224" lon="-1.96296">
        <ele>9.4</ele>
        <time>2024-12-26T08:06:46.046Z</time>
      </trkpt>
      <trkpt lat="46.72241" lon="-1.96296">
        <ele>9.3</ele>
        <time>2024-12-26T08:06:47.046Z</time>
      </trkpt>
      <trkpt lat="46.72242" lon="-1.96296">
        <ele>9.3</ele>
        <time>2024-12-26T08:06:48.046Z</time>
      </trkpt>
      <trkpt lat="46.72243" lon="-1.96296">
        <ele>9.3</ele>
        <time>2024-12-26T08:06:49.046Z</time>
      </trkpt>
      <trkpt lat="46.72244" lon="-1.96297">
        <ele>9.2</ele>
        <time>2024-12-26T08:06:50.046Z</time>
      </trkpt>
      <trkpt lat="46.72245" lon="-1.96297">
        <ele>9.2</ele>
        <time>2024-12-26T08:06:51.046Z</time>
      </trkpt>
      <trkpt lat="46.72246" lon="-1.96297">
        <ele>9.1</ele>
        <time>2024-12-26T08:06:52.045Z</time>
      </trkpt>
      <trkpt lat="46.72248" lon="-1.96297">
        <ele>9.1</ele>
        <time>2024-12-26T08:06:53.046Z</time>
      </trkpt>
      <trkpt lat="46.72249" lon="-1.96297">
        <ele>9</ele>
        <time>2024-12-26T08:06:54.046Z</time>
      </trkpt>
      <trkpt lat="46.72251" lon="-1.96296">
        <ele>9</ele>
        <time>2024-12-26T08:06:55.045Z</time>
      </trkpt>
      <trkpt lat="46.72253" lon="-1.96294">
        <ele>9</ele>
        <time>2024-12-26T08:06:56.046Z</time>
      </trkpt>
      <trkpt lat="46.72254" lon="-1.96293">
        <ele>9</ele>
        <time>2024-12-26T08:06:57.045Z</time>
      </trkpt>
      <trkpt lat="46.72255" lon="-1.96292">
        <ele>9</ele>
        <time>2024-12-26T08:06:58.045Z</time>
      </trkpt>
      <trkpt lat="46.72257" lon="-1.96291">
        <ele>9</ele>
        <time>2024-12-26T08:06:59.046Z</time>
      </trkpt>
      <trkpt lat="46.72258" lon="-1.9629">
        <ele>9</ele>
        <time>2024-12-26T08:07:00.045Z</time>
      </trkpt>
      <trkpt lat="46.72258" lon="-1.9629">
        <ele>9</ele>
        <time>2024-12-26T08:07:01.046Z</time>
      </trkpt>
      <trkpt lat="46.72259" lon="-1.96289">
        <ele>9</ele>
        <time>2024-12-26T08:07:02.045Z</time>
      </trkpt>
      <trkpt lat="46.7226" lon="-1.96289">
        <ele>9</ele>
        <time>2024-12-26T08:07:03.046Z</time>
      </trkpt>
      <trkpt lat="46.72261" lon="-1.96288">
        <ele>9</ele>
        <time>2024-12-26T08:07:04.046Z</time>
      </trkpt>
      <trkpt lat="46.72261" lon="-1.96288">
        <ele>9</ele>
        <time>2024-12-26T08:07:05.045Z</time>
      </trkpt>
      <trkpt lat="46.72262" lon="-1.96288">
        <ele>9</ele>
        <time>2024-12-26T08:07:06.045Z</time>
      </trkpt>
      <trkpt lat="46.72262" lon="-1.96288">
        <ele>9</ele>
        <time>2024-12-26T08:07:07.046Z</time>
      </trkpt>
      <trkpt lat="46.72263" lon="-1.96288">
        <ele>9</ele>
        <time>2024-12-26T08:07:08.046Z</time>
      </trkpt>
      <trkpt lat="46.72264" lon="-1.96288">
        <ele>9</ele>
        <time>2024-12-26T08:07:09.046Z</time>
      </trkpt>
      <trkpt lat="46.72265" lon="-1.9629">
        <ele>9</ele>
        <time>2024-12-26T08:07:10.046Z</time>
      </trkpt>
      <trkpt lat="46.72265" lon="-1.96291">
        <ele>9</ele>
        <time>2024-12-26T08:07:11.046Z</time>
      </trkpt>
      <trkpt lat="46.72267" lon="-1.96291">
        <ele>9</ele>
        <time>2024-12-26T08:07:12.046Z</time>
      </trkpt>
      <trkpt lat="46.72268" lon="-1.96292">
        <ele>9</ele>
        <time>2024-12-26T08:07:13.046Z</time>
      </trkpt>
      <trkpt lat="46.72269" lon="-1.96293">
        <ele>9</ele>
        <time>2024-12-26T08:07:14.045Z</time>
      </trkpt>
      <trkpt lat="46.72269" lon="-1.96294">
        <ele>9</ele>
        <time>2024-12-26T08:07:15.045Z</time>
      </trkpt>
      <trkpt lat="46.72269" lon="-1.96294">
        <ele>9</ele>
        <time>2024-12-26T08:07:16.045Z</time>
      </trkpt>
      <trkpt lat="46.72269" lon="-1.96294">
        <ele>9</ele>
        <time>2024-12-26T08:07:17.045Z</time>
      </trkpt>
      <trkpt lat="46.72269" lon="-1.96294">
        <ele>9</ele>
        <time>2024-12-26T08:07:18.045Z</time>
      </trkpt>
      <trkpt lat="46.72268" lon="-1.96294">
        <ele>9</ele>
        <time>2024-12-26T08:07:19.045Z</time>
      </trkpt>
      <trkpt lat="46.72267" lon="-1.96294">
        <ele>9</ele>
        <time>2024-12-26T08:07:20.045Z</time>
      </trkpt>
      <trkpt lat="46.72266" lon="-1.96293">
        <ele>9</ele>
        <time>2024-12-26T08:07:21.046Z</time>
      </trkpt>
      <trkpt lat="46.72265" lon="-1.96293">
        <ele>9</ele>
        <time>2024-12-26T08:07:22.046Z</time>
      </trkpt>
      <trkpt lat="46.72265" lon="-1.96293">
        <ele>9</ele>
        <time>2024-12-26T08:07:23.046Z</time>
      </trkpt>
      <trkpt lat="46.72264" lon="-1.96293">
        <ele>9</ele>
        <time>2024-12-26T08:07:24.046Z</time>
      </trkpt>
      <trkpt lat="46.72262" lon="-1.96293">
        <ele>9</ele>
        <time>2024-12-26T08:07:25.045Z</time>
      </trkpt>
      <trkpt lat="46.72261" lon="-1.96294">
        <ele>9</ele>
        <time>2024-12-26T08:07:26.046Z</time>
      </trkpt>
      <trkpt lat="46.72259" lon="-1.96296">
        <ele>9</ele>
        <time>2024-12-26T08:07:27.045Z</time>
      </trkpt>
      <trkpt lat="46.72259" lon="-1.96297">
        <ele>9</ele>
        <time>2024-12-26T08:07:28.045Z</time>
      </trkpt>
      <trkpt lat="46.72258" lon="-1.96298">
        <ele>9</ele>
        <time>2024-12-26T08:07:29.046Z</time>
      </trkpt>
      <trkpt lat="46.72257" lon="-1.963">
        <ele>9</ele>
        <time>2024-12-26T08:07:30.046Z</time>
      </trkpt>
      <trkpt lat="46.72256" lon="-1.96301">
        <ele>9</ele>
        <time>2024-12-26T08:07:31.046Z</time>
      </trkpt>
      <trkpt lat="46.72255" lon="-1.96303">
        <ele>9</ele>
        <time>2024-12-26T08:07:32.046Z</time>
      </trkpt>
      <trkpt lat="46.72254" lon="-1.96304">
        <ele>9</ele>
        <time>2024-12-26T08:07:33.046Z</time>
      </trkpt>
      <trkpt lat="46.72254" lon="-1.96305">
        <ele>9</ele>
        <time>2024-12-26T08:07:34.046Z</time>
      </trkpt>
      <trkpt lat="46.72253" lon="-1.96305">
        <ele>9</ele>
        <time>2024-12-26T08:07:35.046Z</time>
      </trkpt>
      <trkpt lat="46.72252" lon="-1.96306">
        <ele>9</ele>
        <time>2024-12-26T08:07:36.045Z</time>
      </trkpt>
      <trkpt lat="46.7225" lon="-1.96307">
        <ele>9</ele>
        <time>2024-12-26T08:07:37.045Z</time>
      </trkpt>
      <trkpt lat="46.72249" lon="-1.96308">
        <ele>9</ele>
        <time>2024-12-26T08:07:38.046Z</time>
      </trkpt>
      <trkpt lat="46.72248" lon="-1.96309">
        <ele>9.1</ele>
        <time>2024-12-26T08:07:39.045Z</time>
      </trkpt>
      <trkpt lat="46.72247" lon="-1.9631">
        <ele>9.1</ele>
        <time>2024-12-26T08:07:40.045Z</time>
      </trkpt>
      <trkpt lat="46.72246" lon="-1.96312">
        <ele>9.1</ele>
        <time>2024-12-26T08:07:41.046Z</time>
      </trkpt>
      <trkpt lat="46.72246" lon="-1.96315">
        <ele>9.1</ele>
        <time>2024-12-26T08:07:42.046Z</time>
      </trkpt>
      <trkpt lat="46.72246" lon="-1.96316">
        <ele>9.1</ele>
        <time>2024-12-26T08:07:43.045Z</time>
      </trkpt>
      <trkpt lat="46.72245" lon="-1.96317">
        <ele>9.1</ele>
        <time>2024-12-26T08:07:44.045Z</time>
      </trkpt>
      <trkpt lat="46.72244" lon="-1.96319">
        <ele>9.1</ele>
        <time>2024-12-26T08:07:45.045Z</time>
      </trkpt>
      <trkpt lat="46.72244" lon="-1.9632">
        <ele>9.1</ele>
        <time>2024-12-26T08:07:46.045Z</time>
      </trkpt>
      <trkpt lat="46.72244" lon="-1.96323">
        <ele>9.1</ele>
        <time>2024-12-26T08:07:47.046Z</time>
      </trkpt>
      <trkpt lat="46.72243" lon="-1.96326">
        <ele>9.1</ele>
        <time>2024-12-26T08:07:48.046Z</time>
      </trkpt>
      <trkpt lat="46.72242" lon="-1.96327">
        <ele>9.1</ele>
        <time>2024-12-26T08:07:49.045Z</time>
      </trkpt>
      <trkpt lat="46.72241" lon="-1.96329">
        <ele>9.1</ele>
        <time>2024-12-26T08:07:50.045Z</time>
      </trkpt>
      <trkpt lat="46.7224" lon="-1.9633">
        <ele>9</ele>
        <time>2024-12-26T08:07:51.045Z</time>
      </trkpt>
      <trkpt lat="46.72239" lon="-1.96332">
        <ele>9</ele>
        <time>2024-12-26T08:07:52.046Z</time>
      </trkpt>
      <trkpt lat="46.72239" lon="-1.96333">
        <ele>9</ele>
        <time>2024-12-26T08:07:53.046Z</time>
      </trkpt>
      <trkpt lat="46.72239" lon="-1.96335">
        <ele>9</ele>
        <time>2024-12-26T08:07:54.046Z</time>
      </trkpt>
      <trkpt lat="46.72238" lon="-1.96336">
        <ele>9</ele>
        <time>2024-12-26T08:07:55.046Z</time>
      </trkpt>
      <trkpt lat="46.72238" lon="-1.96338">
        <ele>9.1</ele>
        <time>2024-12-26T08:07:56.045Z</time>
      </trkpt>
      <trkpt lat="46.72237" lon="-1.9634">
        <ele>9.1</ele>
        <time>2024-12-26T08:07:57.045Z</time>
      </trkpt>
      <trkpt lat="46.72236" lon="-1.96342">
        <ele>9.2</ele>
        <time>2024-12-26T08:07:58.045Z</time>
      </trkpt>
      <trkpt lat="46.72236" lon="-1.96344">
        <ele>9.2</ele>
        <time>2024-12-26T08:07:59.045Z</time>
      </trkpt>
      <trkpt lat="46.72235" lon="-1.96346">
        <ele>9.2</ele>
        <time>2024-12-26T08:08:00.045Z</time>
      </trkpt>
      <trkpt lat="46.72235" lon="-1.96348">
        <ele>9.3</ele>
        <time>2024-12-26T08:08:01.045Z</time>
      </trkpt>
      <trkpt lat="46.72235" lon="-1.9635">
        <ele>9.3</ele>
        <time>2024-12-26T08:08:02.045Z</time>
      </trkpt>
      <trkpt lat="46.72235" lon="-1.96352">
        <ele>9.4</ele>
        <time>2024-12-26T08:08:03.045Z</time>
      </trkpt>
      <trkpt lat="46.72233" lon="-1.96354">
        <ele>9.4</ele>
        <time>2024-12-26T08:08:04.046Z</time>
      </trkpt>
      <trkpt lat="46.72233" lon="-1.96358">
        <ele>9.6</ele>
        <time>2024-12-26T08:08:05.046Z</time>
      </trkpt>
      <trkpt lat="46.72233" lon="-1.96362">
        <ele>9.6</ele>
        <time>2024-12-26T08:08:06.046Z</time>
      </trkpt>
      <trkpt lat="46.72233" lon="-1.96365">
        <ele>9.6</ele>
        <time>2024-12-26T08:08:07.046Z</time>
      </trkpt>
      <trkpt lat="46.72233" lon="-1.96368">
        <ele>9.6</ele>
        <time>2024-12-26T08:08:08.045Z</time>
      </trkpt>
      <trkpt lat="46.72233" lon="-1.96371">
        <ele>9.6</ele>
        <time>2024-12-26T08:08:09.045Z</time>
      </trkpt>
      <trkpt lat="46.72233" lon="-1.96374">
        <ele>9.6</ele>
        <time>2024-12-26T08:08:10.045Z</time>
      </trkpt>
      <trkpt lat="46.72233" lon="-1.96378">
        <ele>9.6</ele>
        <time>2024-12-26T08:08:11.045Z</time>
      </trkpt>
      <trkpt lat="46.72233" lon="-1.96379">
        <ele>9.6</ele>
        <time>2024-12-26T08:08:12.045Z</time>
      </trkpt>
      <trkpt lat="46.72232" lon="-1.96381">
        <ele>9.6</ele>
        <time>2024-12-26T08:08:13.046Z</time>
      </trkpt>
      <trkpt lat="46.72232" lon="-1.96382">
        <ele>9.7</ele>
        <time>2024-12-26T08:08:14.045Z</time>
      </trkpt>
      <trkpt lat="46.72231" lon="-1.96384">
        <ele>9.7</ele>
        <time>2024-12-26T08:08:15.046Z</time>
      </trkpt>
      <trkpt lat="46.72231" lon="-1.96385">
        <ele>9.7</ele>
        <time>2024-12-26T08:08:16.046Z</time>
      </trkpt>
      <trkpt lat="46.72231" lon="-1.96387">
        <ele>9.7</ele>
        <time>2024-12-26T08:08:17.046Z</time>
      </trkpt>
      <trkpt lat="46.7223" lon="-1.96389">
        <ele>9.7</ele>
        <time>2024-12-26T08:08:18.046Z</time>
      </trkpt>
      <trkpt lat="46.7223" lon="-1.96392">
        <ele>9.7</ele>
        <time>2024-12-26T08:08:19.046Z</time>
      </trkpt>
      <trkpt lat="46.72229" lon="-1.96394">
        <ele>9.7</ele>
        <time>2024-12-26T08:08:20.045Z</time>
      </trkpt>
      <trkpt lat="46.7223" lon="-1.96395">
        <ele>9.7</ele>
        <time>2024-12-26T08:08:21.046Z</time>
      </trkpt>
      <trkpt lat="46.7223" lon="-1.96396">
        <ele>9.7</ele>
        <time>2024-12-26T08:08:22.046Z</time>
      </trkpt>
      <trkpt lat="46.7223" lon="-1.96398">
        <ele>9.7</ele>
        <time>2024-12-26T08:08:23.045Z</time>
      </trkpt>
      <trkpt lat="46.7223" lon="-1.96401">
        <ele>9.7</ele>
        <time>2024-12-26T08:08:24.045Z</time>
      </trkpt>
      <trkpt lat="46.7223" lon="-1.96404">
        <ele>9.7</ele>
        <time>2024-12-26T08:08:25.045Z</time>
      </trkpt>
      <trkpt lat="46.72231" lon="-1.96406">
        <ele>9.7</ele>
        <time>2024-12-26T08:08:26.045Z</time>
      </trkpt>
      <trkpt lat="46.72231" lon="-1.96408">
        <ele>9.7</ele>
        <time>2024-12-26T08:08:27.045Z</time>
      </trkpt>
      <trkpt lat="46.7223" lon="-1.96409">
        <ele>9.7</ele>
        <time>2024-12-26T08:08:28.045Z</time>
      </trkpt>
      <trkpt lat="46.7223" lon="-1.96411">
        <ele>9.7</ele>
        <time>2024-12-26T08:08:29.046Z</time>
      </trkpt>
      <trkpt lat="46.72229" lon="-1.96412">
        <ele>9.7</ele>
        <time>2024-12-26T08:08:30.046Z</time>
      </trkpt>
      <trkpt lat="46.72229" lon="-1.96414">
        <ele>9.8</ele>
        <time>2024-12-26T08:08:31.045Z</time>
      </trkpt>
      <trkpt lat="46.72229" lon="-1.96416">
        <ele>9.8</ele>
        <time>2024-12-26T08:08:32.045Z</time>
      </trkpt>
      <trkpt lat="46.72229" lon="-1.96419">
        <ele>9.7</ele>
        <time>2024-12-26T08:08:33.046Z</time>
      </trkpt>
      <trkpt lat="46.72228" lon="-1.96421">
        <ele>9.7</ele>
        <time>2024-12-26T08:08:34.045Z</time>
      </trkpt>
      <trkpt lat="46.72228" lon="-1.96425">
        <ele>9.6</ele>
        <time>2024-12-26T08:08:35.045Z</time>
      </trkpt>
      <trkpt lat="46.72226" lon="-1.96428">
        <ele>9.5</ele>
        <time>2024-12-26T08:08:36.045Z</time>
      </trkpt>
      <trkpt lat="46.72226" lon="-1.9643">
        <ele>9.5</ele>
        <time>2024-12-26T08:08:37.046Z</time>
      </trkpt>
      <trkpt lat="46.72226" lon="-1.96431">
        <ele>9.4</ele>
        <time>2024-12-26T08:08:38.045Z</time>
      </trkpt>
      <trkpt lat="46.72226" lon="-1.96433">
        <ele>9.4</ele>
        <time>2024-12-26T08:08:39.045Z</time>
      </trkpt>
      <trkpt lat="46.72226" lon="-1.96435">
        <ele>9.3</ele>
        <time>2024-12-26T08:08:40.046Z</time>
      </trkpt>
      <trkpt lat="46.72226" lon="-1.96436">
        <ele>9.3</ele>
        <time>2024-12-26T08:08:41.045Z</time>
      </trkpt>
      <trkpt lat="46.72226" lon="-1.96437">
        <ele>9.3</ele>
        <time>2024-12-26T08:08:42.045Z</time>
      </trkpt>
      <trkpt lat="46.72225" lon="-1.96438">
        <ele>9.2</ele>
        <time>2024-12-26T08:08:43.045Z</time>
      </trkpt>
      <trkpt lat="46.72225" lon="-1.96439">
        <ele>9.2</ele>
        <time>2024-12-26T08:08:44.045Z</time>
      </trkpt>
      <trkpt lat="46.72225" lon="-1.96441">
        <ele>9.1</ele>
        <time>2024-12-26T08:08:45.045Z</time>
      </trkpt>
      <trkpt lat="46.72225" lon="-1.96442">
        <ele>9.1</ele>
        <time>2024-12-26T08:08:46.045Z</time>
      </trkpt>
      <trkpt lat="46.72224" lon="-1.96443">
        <ele>9</ele>
        <time>2024-12-26T08:08:47.045Z</time>
      </trkpt>
      <trkpt lat="46.72222" lon="-1.96445">
        <ele>9</ele>
        <time>2024-12-26T08:08:48.046Z</time>
      </trkpt>
      <trkpt lat="46.72222" lon="-1.96446">
        <ele>9</ele>
        <time>2024-12-26T08:08:49.045Z</time>
      </trkpt>
      <trkpt lat="46.72221" lon="-1.96448">
        <ele>9</ele>
        <time>2024-12-26T08:08:50.045Z</time>
      </trkpt>
      <trkpt lat="46.7222" lon="-1.9645">
        <ele>9.1</ele>
        <time>2024-12-26T08:08:51.045Z</time>
      </trkpt>
      <trkpt lat="46.7222" lon="-1.96452">
        <ele>9.1</ele>
        <time>2024-12-26T08:08:52.045Z</time>
      </trkpt>
      <trkpt lat="46.72219" lon="-1.96454">
        <ele>9.2</ele>
        <time>2024-12-26T08:08:53.045Z</time>
      </trkpt>
      <trkpt lat="46.72218" lon="-1.96456">
        <ele>9.2</ele>
        <time>2024-12-26T08:08:54.045Z</time>
      </trkpt>
      <trkpt lat="46.72217" lon="-1.96458">
        <ele>9.3</ele>
        <time>2024-12-26T08:08:55.045Z</time>
      </trkpt>
      <trkpt lat="46.72216" lon="-1.96459">
        <ele>9.3</ele>
        <time>2024-12-26T08:08:56.046Z</time>
      </trkpt>
      <trkpt lat="46.72215" lon="-1.96461">
        <ele>9.4</ele>
        <time>2024-12-26T08:08:57.046Z</time>
      </trkpt>
      <trkpt lat="46.72215" lon="-1.96463">
        <ele>9.5</ele>
        <time>2024-12-26T08:08:58.045Z</time>
      </trkpt>
      <trkpt lat="46.72214" lon="-1.96465">
        <ele>9.5</ele>
        <time>2024-12-26T08:08:59.046Z</time>
      </trkpt>
      <trkpt lat="46.72214" lon="-1.96467">
        <ele>9.6</ele>
        <time>2024-12-26T08:09:00.045Z</time>
      </trkpt>
      <trkpt lat="46.72214" lon="-1.96469">
        <ele>9.6</ele>
        <time>2024-12-26T08:09:01.046Z</time>
      </trkpt>
      <trkpt lat="46.72214" lon="-1.96471">
        <ele>9.6</ele>
        <time>2024-12-26T08:09:02.046Z</time>
      </trkpt>
      <trkpt lat="46.72214" lon="-1.96474">
        <ele>9.6</ele>
        <time>2024-12-26T08:09:03.045Z</time>
      </trkpt>
      <trkpt lat="46.72213" lon="-1.96476">
        <ele>9.6</ele>
        <time>2024-12-26T08:09:04.045Z</time>
      </trkpt>
      <trkpt lat="46.72213" lon="-1.96478">
        <ele>9.6</ele>
        <time>2024-12-26T08:09:05.046Z</time>
      </trkpt>
      <trkpt lat="46.72213" lon="-1.96479">
        <ele>9.6</ele>
        <time>2024-12-26T08:09:06.045Z</time>
      </trkpt>
      <trkpt lat="46.72213" lon="-1.96481">
        <ele>9.6</ele>
        <time>2024-12-26T08:09:07.045Z</time>
      </trkpt>
      <trkpt lat="46.72212" lon="-1.96482">
        <ele>9.6</ele>
        <time>2024-12-26T08:09:08.045Z</time>
      </trkpt>
      <trkpt lat="46.72211" lon="-1.96484">
        <ele>9.6</ele>
        <time>2024-12-26T08:09:09.045Z</time>
      </trkpt>
      <trkpt lat="46.7221" lon="-1.96486">
        <ele>9.7</ele>
        <time>2024-12-26T08:09:10.045Z</time>
      </trkpt>
      <trkpt lat="46.7221" lon="-1.96487">
        <ele>9.7</ele>
        <time>2024-12-26T08:09:11.045Z</time>
      </trkpt>
      <trkpt lat="46.72209" lon="-1.96488">
        <ele>9.7</ele>
        <time>2024-12-26T08:09:12.046Z</time>
      </trkpt>
      <trkpt lat="46.72208" lon="-1.96489">
        <ele>9.7</ele>
        <time>2024-12-26T08:09:13.046Z</time>
      </trkpt>
      <trkpt lat="46.72208" lon="-1.9649">
        <ele>9.7</ele>
        <time>2024-12-26T08:09:14.046Z</time>
      </trkpt>
      <trkpt lat="46.72207" lon="-1.96491">
        <ele>9.7</ele>
        <time>2024-12-26T08:09:15.046Z</time>
      </trkpt>
      <trkpt lat="46.72207" lon="-1.96492">
        <ele>9.7</ele>
        <time>2024-12-26T08:09:16.046Z</time>
      </trkpt>
      <trkpt lat="46.72207" lon="-1.96494">
        <ele>9.7</ele>
        <time>2024-12-26T08:09:17.046Z</time>
      </trkpt>
      <trkpt lat="46.72207" lon="-1.96496">
        <ele>9.7</ele>
        <time>2024-12-26T08:09:18.046Z</time>
      </trkpt>
      <trkpt lat="46.72207" lon="-1.96498">
        <ele>9.6</ele>
        <time>2024-12-26T08:09:19.045Z</time>
      </trkpt>
      <trkpt lat="46.72206" lon="-1.96501">
        <ele>9.6</ele>
        <time>2024-12-26T08:09:20.045Z</time>
      </trkpt>
      <trkpt lat="46.72205" lon="-1.96503">
        <ele>9.6</ele>
        <time>2024-12-26T08:09:21.046Z</time>
      </trkpt>
      <trkpt lat="46.72205" lon="-1.96506">
        <ele>9.6</ele>
        <time>2024-12-26T08:09:22.046Z</time>
      </trkpt>
      <trkpt lat="46.72205" lon="-1.96511">
        <ele>9.6</ele>
        <time>2024-12-26T08:09:23.046Z</time>
      </trkpt>
      <trkpt lat="46.72204" lon="-1.96513">
        <ele>9.7</ele>
        <time>2024-12-26T08:09:24.046Z</time>
      </trkpt>
      <trkpt lat="46.72203" lon="-1.96515">
        <ele>9.7</ele>
        <time>2024-12-26T08:09:25.045Z</time>
      </trkpt>
      <trkpt lat="46.72201" lon="-1.96517">
        <ele>9.8</ele>
        <time>2024-12-26T08:09:26.046Z</time>
      </trkpt>
      <trkpt lat="46.72201" lon="-1.96518">
        <ele>9.8</ele>
        <time>2024-12-26T08:09:27.046Z</time>
      </trkpt>
      <trkpt lat="46.722" lon="-1.9652">
        <ele>9.8</ele>
        <time>2024-12-26T08:09:28.045Z</time>
      </trkpt>
      <trkpt lat="46.72199" lon="-1.96521">
        <ele>9.8</ele>
        <time>2024-12-26T08:09:29.045Z</time>
      </trkpt>
      <trkpt lat="46.72199" lon="-1.96523">
        <ele>9.8</ele>
        <time>2024-12-26T08:09:30.045Z</time>
      </trkpt>
      <trkpt lat="46.72199" lon="-1.96525">
        <ele>9.9</ele>
        <time>2024-12-26T08:09:31.045Z</time>
      </trkpt>
      <trkpt lat="46.72198" lon="-1.96526">
        <ele>9.9</ele>
        <time>2024-12-26T08:09:32.045Z</time>
      </trkpt>
      <trkpt lat="46.72197" lon="-1.96528">
        <ele>9.9</ele>
        <time>2024-12-26T08:09:33.045Z</time>
      </trkpt>
      <trkpt lat="46.72197" lon="-1.96529">
        <ele>9.9</ele>
        <time>2024-12-26T08:09:34.045Z</time>
      </trkpt>
      <trkpt lat="46.72196" lon="-1.9653">
        <ele>9.9</ele>
        <time>2024-12-26T08:09:35.045Z</time>
      </trkpt>
      <trkpt lat="46.72195" lon="-1.96532">
        <ele>9.8</ele>
        <time>2024-12-26T08:09:36.046Z</time>
      </trkpt>
      <trkpt lat="46.72195" lon="-1.96534">
        <ele>9.8</ele>
        <time>2024-12-26T08:09:37.046Z</time>
      </trkpt>
      <trkpt lat="46.72194" lon="-1.96535">
        <ele>9.7</ele>
        <time>2024-12-26T08:09:38.046Z</time>
      </trkpt>
      <trkpt lat="46.72194" lon="-1.96537">
        <ele>9.7</ele>
        <time>2024-12-26T08:09:39.046Z</time>
      </trkpt>
      <trkpt lat="46.72193" lon="-1.96539">
        <ele>9.6</ele>
        <time>2024-12-26T08:09:40.046Z</time>
      </trkpt>
      <trkpt lat="46.72193" lon="-1.96541">
        <ele>9.5</ele>
        <time>2024-12-26T08:09:41.046Z</time>
      </trkpt>
      <trkpt lat="46.72193" lon="-1.96543">
        <ele>9.4</ele>
        <time>2024-12-26T08:09:42.046Z</time>
      </trkpt>
      <trkpt lat="46.72193" lon="-1.96545">
        <ele>9.3</ele>
        <time>2024-12-26T08:09:43.045Z</time>
      </trkpt>
      <trkpt lat="46.72192" lon="-1.96547">
        <ele>9.3</ele>
        <time>2024-12-26T08:09:44.045Z</time>
      </trkpt>
      <trkpt lat="46.72192" lon="-1.96549">
        <ele>9.2</ele>
        <time>2024-12-26T08:09:45.046Z</time>
      </trkpt>
      <trkpt lat="46.72192" lon="-1.96551">
        <ele>9.2</ele>
        <time>2024-12-26T08:09:46.046Z</time>
      </trkpt>
      <trkpt lat="46.72191" lon="-1.96553">
        <ele>9.1</ele>
        <time>2024-12-26T08:09:47.046Z</time>
      </trkpt>
      <trkpt lat="46.7219" lon="-1.96555">
        <ele>9</ele>
        <time>2024-12-26T08:09:48.046Z</time>
      </trkpt>
      <trkpt lat="46.72189" lon="-1.96556">
        <ele>9</ele>
        <time>2024-12-26T08:09:49.045Z</time>
      </trkpt>
      <trkpt lat="46.72189" lon="-1.96557">
        <ele>9.1</ele>
        <time>2024-12-26T08:09:50.045Z</time>
      </trkpt>
      <trkpt lat="46.72188" lon="-1.96558">
        <ele>9.1</ele>
        <time>2024-12-26T08:09:51.046Z</time>
      </trkpt>
      <trkpt lat="46.72186" lon="-1.96559">
        <ele>9.1</ele>
        <time>2024-12-26T08:09:52.045Z</time>
      </trkpt>
      <trkpt lat="46.72185" lon="-1.9656">
        <ele>9.2</ele>
        <time>2024-12-26T08:09:53.045Z</time>
      </trkpt>
      <trkpt lat="46.72184" lon="-1.9656">
        <ele>9.2</ele>
        <time>2024-12-26T08:09:54.045Z</time>
      </trkpt>
      <trkpt lat="46.72183" lon="-1.96561">
        <ele>9.2</ele>
        <time>2024-12-26T08:09:55.045Z</time>
      </trkpt>
      <trkpt lat="46.72181" lon="-1.96562">
        <ele>9.2</ele>
        <time>2024-12-26T08:09:56.045Z</time>
      </trkpt>
      <trkpt lat="46.7218" lon="-1.96564">
        <ele>9.3</ele>
        <time>2024-12-26T08:09:57.045Z</time>
      </trkpt>
      <trkpt lat="46.72179" lon="-1.96567">
        <ele>9.4</ele>
        <time>2024-12-26T08:09:58.045Z</time>
      </trkpt>
      <trkpt lat="46.72179" lon="-1.96569">
        <ele>9.5</ele>
        <time>2024-12-26T08:09:59.045Z</time>
      </trkpt>
      <trkpt lat="46.72178" lon="-1.9657">
        <ele>9.5</ele>
        <time>2024-12-26T08:10:00.046Z</time>
      </trkpt>
      <trkpt lat="46.72177" lon="-1.9657">
        <ele>9.5</ele>
        <time>2024-12-26T08:10:01.046Z</time>
      </trkpt>
      <trkpt lat="46.72176" lon="-1.96572">
        <ele>9.6</ele>
        <time>2024-12-26T08:10:02.046Z</time>
      </trkpt>
      <trkpt lat="46.72175" lon="-1.96573">
        <ele>9.6</ele>
        <time>2024-12-26T08:10:03.046Z</time>
      </trkpt>
      <trkpt lat="46.72176" lon="-1.96575">
        <ele>9.7</ele>
        <time>2024-12-26T08:10:04.045Z</time>
      </trkpt>
      <trkpt lat="46.72175" lon="-1.96577">
        <ele>9.8</ele>
        <time>2024-12-26T08:10:05.045Z</time>
      </trkpt>
      <trkpt lat="46.72174" lon="-1.96579">
        <ele>9.8</ele>
        <time>2024-12-26T08:10:06.045Z</time>
      </trkpt>
      <trkpt lat="46.72175" lon="-1.96582">
        <ele>9.9</ele>
        <time>2024-12-26T08:10:07.045Z</time>
      </trkpt>
      <trkpt lat="46.72175" lon="-1.96584">
        <ele>10</ele>
        <time>2024-12-26T08:10:08.045Z</time>
      </trkpt>
      <trkpt lat="46.72174" lon="-1.96587">
        <ele>9.9</ele>
        <time>2024-12-26T08:10:09.046Z</time>
      </trkpt>
      <trkpt lat="46.72173" lon="-1.96588">
        <ele>9.8</ele>
        <time>2024-12-26T08:10:10.046Z</time>
      </trkpt>
      <trkpt lat="46.72172" lon="-1.9659">
        <ele>9.8</ele>
        <time>2024-12-26T08:10:11.045Z</time>
      </trkpt>
      <trkpt lat="46.72172" lon="-1.96591">
        <ele>9.7</ele>
        <time>2024-12-26T08:10:12.046Z</time>
      </trkpt>
      <trkpt lat="46.72171" lon="-1.96592">
        <ele>9.7</ele>
        <time>2024-12-26T08:10:13.045Z</time>
      </trkpt>
      <trkpt lat="46.72171" lon="-1.96593">
        <ele>9.6</ele>
        <time>2024-12-26T08:10:14.045Z</time>
      </trkpt>
      <trkpt lat="46.7217" lon="-1.96596">
        <ele>9.6</ele>
        <time>2024-12-26T08:10:15.045Z</time>
      </trkpt>
      <trkpt lat="46.72169" lon="-1.96598">
        <ele>9.5</ele>
        <time>2024-12-26T08:10:16.046Z</time>
      </trkpt>
      <trkpt lat="46.72168" lon="-1.96601">
        <ele>9.4</ele>
        <time>2024-12-26T08:10:17.045Z</time>
      </trkpt>
      <trkpt lat="46.72167" lon="-1.96603">
        <ele>9.3</ele>
        <time>2024-12-26T08:10:18.045Z</time>
      </trkpt>
      <trkpt lat="46.72166" lon="-1.96605">
        <ele>9.2</ele>
        <time>2024-12-26T08:10:19.045Z</time>
      </trkpt>
      <trkpt lat="46.72166" lon="-1.96608">
        <ele>9.1</ele>
        <time>2024-12-26T08:10:20.045Z</time>
      </trkpt>
      <trkpt lat="46.72166" lon="-1.96611">
        <ele>9.1</ele>
        <time>2024-12-26T08:10:21.045Z</time>
      </trkpt>
      <trkpt lat="46.72166" lon="-1.96614">
        <ele>9</ele>
        <time>2024-12-26T08:10:22.045Z</time>
      </trkpt>
      <trkpt lat="46.72166" lon="-1.96617">
        <ele>9</ele>
        <time>2024-12-26T08:10:23.045Z</time>
      </trkpt>
      <trkpt lat="46.72167" lon="-1.9662">
        <ele>9</ele>
        <time>2024-12-26T08:10:24.046Z</time>
      </trkpt>
      <trkpt lat="46.72167" lon="-1.96621">
        <ele>9</ele>
        <time>2024-12-26T08:10:25.046Z</time>
      </trkpt>
      <trkpt lat="46.72166" lon="-1.96623">
        <ele>9</ele>
        <time>2024-12-26T08:10:26.046Z</time>
      </trkpt>
      <trkpt lat="46.72166" lon="-1.96625">
        <ele>9</ele>
        <time>2024-12-26T08:10:27.045Z</time>
      </trkpt>
      <trkpt lat="46.72165" lon="-1.96626">
        <ele>9</ele>
        <time>2024-12-26T08:10:28.045Z</time>
      </trkpt>
      <trkpt lat="46.72164" lon="-1.96627">
        <ele>9.1</ele>
        <time>2024-12-26T08:10:29.045Z</time>
      </trkpt>
      <trkpt lat="46.72164" lon="-1.96628">
        <ele>9.1</ele>
        <time>2024-12-26T08:10:30.045Z</time>
      </trkpt>
      <trkpt lat="46.72163" lon="-1.9663">
        <ele>9.1</ele>
        <time>2024-12-26T08:10:31.046Z</time>
      </trkpt>
      <trkpt lat="46.72161" lon="-1.96632">
        <ele>9.2</ele>
        <time>2024-12-26T08:10:32.045Z</time>
      </trkpt>
      <trkpt lat="46.72159" lon="-1.96634">
        <ele>9.3</ele>
        <time>2024-12-26T08:10:33.045Z</time>
      </trkpt>
      <trkpt lat="46.72158" lon="-1.96636">
        <ele>9.3</ele>
        <time>2024-12-26T08:10:34.045Z</time>
      </trkpt>
      <trkpt lat="46.72157" lon="-1.96638">
        <ele>9.3</ele>
        <time>2024-12-26T08:10:35.045Z</time>
      </trkpt>
      <trkpt lat="46.72156" lon="-1.9664">
        <ele>9.4</ele>
        <time>2024-12-26T08:10:36.045Z</time>
      </trkpt>
      <trkpt lat="46.72155" lon="-1.9664">
        <ele>9.4</ele>
        <time>2024-12-26T08:10:37.045Z</time>
      </trkpt>
      <trkpt lat="46.72154" lon="-1.9664">
        <ele>9.4</ele>
        <time>2024-12-26T08:10:38.045Z</time>
      </trkpt>
      <trkpt lat="46.72153" lon="-1.9664">
        <ele>9.5</ele>
        <time>2024-12-26T08:10:39.045Z</time>
      </trkpt>
      <trkpt lat="46.72151" lon="-1.96641">
        <ele>9.6</ele>
        <time>2024-12-26T08:10:40.046Z</time>
      </trkpt>
      <trkpt lat="46.7215" lon="-1.96642">
        <ele>9.6</ele>
        <time>2024-12-26T08:10:41.046Z</time>
      </trkpt>
      <trkpt lat="46.72149" lon="-1.96644">
        <ele>9.6</ele>
        <time>2024-12-26T08:10:42.045Z</time>
      </trkpt>
      <trkpt lat="46.72149" lon="-1.96645">
        <ele>9.6</ele>
        <time>2024-12-26T08:10:43.046Z</time>
      </trkpt>
      <trkpt lat="46.72149" lon="-1.96647">
        <ele>9.6</ele>
        <time>2024-12-26T08:10:44.045Z</time>
      </trkpt>
      <trkpt lat="46.7215" lon="-1.96651">
        <ele>9.6</ele>
        <time>2024-12-26T08:10:45.045Z</time>
      </trkpt>
      <trkpt lat="46.72151" lon="-1.96654">
        <ele>9.6</ele>
        <time>2024-12-26T08:10:46.046Z</time>
      </trkpt>
      <trkpt lat="46.7215" lon="-1.96656">
        <ele>9.6</ele>
        <time>2024-12-26T08:10:47.046Z</time>
      </trkpt>
      <trkpt lat="46.72149" lon="-1.96657">
        <ele>9.6</ele>
        <time>2024-12-26T08:10:48.045Z</time>
      </trkpt>
      <trkpt lat="46.72149" lon="-1.96659">
        <ele>9.6</ele>
        <time>2024-12-26T08:10:49.045Z</time>
      </trkpt>
      <trkpt lat="46.72149" lon="-1.96661">
        <ele>9.7</ele>
        <time>2024-12-26T08:10:50.045Z</time>
      </trkpt>
      <trkpt lat="46.72148" lon="-1.96664">
        <ele>9.7</ele>
        <time>2024-12-26T08:10:51.045Z</time>
      </trkpt>
      <trkpt lat="46.72149" lon="-1.96666">
        <ele>9.6</ele>
        <time>2024-12-26T08:10:52.045Z</time>
      </trkpt>
      <trkpt lat="46.72149" lon="-1.96667">
        <ele>9.7</ele>
        <time>2024-12-26T08:10:53.045Z</time>
      </trkpt>
      <trkpt lat="46.72148" lon="-1.96668">
        <ele>9.6</ele>
        <time>2024-12-26T08:10:54.045Z</time>
      </trkpt>
      <trkpt lat="46.72148" lon="-1.96669">
        <ele>9.6</ele>
        <time>2024-12-26T08:10:55.045Z</time>
      </trkpt>
      <trkpt lat="46.72148" lon="-1.9667">
        <ele>9.6</ele>
        <time>2024-12-26T08:10:56.046Z</time>
      </trkpt>
      <trkpt lat="46.72149" lon="-1.96672">
        <ele>9.5</ele>
        <time>2024-12-26T08:10:57.045Z</time>
      </trkpt>
      <trkpt lat="46.72149" lon="-1.96675">
        <ele>9.5</ele>
        <time>2024-12-26T08:10:58.045Z</time>
      </trkpt>
      <trkpt lat="46.72148" lon="-1.96678">
        <ele>9.4</ele>
        <time>2024-12-26T08:10:59.045Z</time>
      </trkpt>
      <trkpt lat="46.72146" lon="-1.9668">
        <ele>9.4</ele>
        <time>2024-12-26T08:11:00.045Z</time>
      </trkpt>
      <trkpt lat="46.72146" lon="-1.96682">
        <ele>9.3</ele>
        <time>2024-12-26T08:11:01.045Z</time>
      </trkpt>
      <trkpt lat="46.72145" lon="-1.96686">
        <ele>9.2</ele>
        <time>2024-12-26T08:11:02.046Z</time>
      </trkpt>
      <trkpt lat="46.72146" lon="-1.96688">
        <ele>9.2</ele>
        <time>2024-12-26T08:11:03.046Z</time>
      </trkpt>
      <trkpt lat="46.72145" lon="-1.9669">
        <ele>9.1</ele>
        <time>2024-12-26T08:11:04.045Z</time>
      </trkpt>
      <trkpt lat="46.72145" lon="-1.96691">
        <ele>9.1</ele>
        <time>2024-12-26T08:11:05.046Z</time>
      </trkpt>
      <trkpt lat="46.72144" lon="-1.96693">
        <ele>9.1</ele>
        <time>2024-12-26T08:11:06.046Z</time>
      </trkpt>
      <trkpt lat="46.72143" lon="-1.96694">
        <ele>9</ele>
        <time>2024-12-26T08:11:07.045Z</time>
      </trkpt>
      <trkpt lat="46.72142" lon="-1.96697">
        <ele>9</ele>
        <time>2024-12-26T08:11:08.046Z</time>
      </trkpt>
      <trkpt lat="46.72141" lon="-1.96699">
        <ele>9</ele>
        <time>2024-12-26T08:11:09.045Z</time>
      </trkpt>
      <trkpt lat="46.72141" lon="-1.96701">
        <ele>9</ele>
        <time>2024-12-26T08:11:10.046Z</time>
      </trkpt>
      <trkpt lat="46.7214" lon="-1.96703">
        <ele>9</ele>
        <time>2024-12-26T08:11:11.045Z</time>
      </trkpt>
      <trkpt lat="46.72139" lon="-1.96704">
        <ele>9</ele>
        <time>2024-12-26T08:11:12.046Z</time>
      </trkpt>
      <trkpt lat="46.72138" lon="-1.96706">
        <ele>9</ele>
        <time>2024-12-26T08:11:13.045Z</time>
      </trkpt>
      <trkpt lat="46.72137" lon="-1.96708">
        <ele>9.1</ele>
        <time>2024-12-26T08:11:14.045Z</time>
      </trkpt>
      <trkpt lat="46.72136" lon="-1.96709">
        <ele>9.1</ele>
        <time>2024-12-26T08:11:15.045Z</time>
      </trkpt>
      <trkpt lat="46.72135" lon="-1.96711">
        <ele>9.1</ele>
        <time>2024-12-26T08:11:16.045Z</time>
      </trkpt>
      <trkpt lat="46.72135" lon="-1.96712">
        <ele>9.1</ele>
        <time>2024-12-26T08:11:17.045Z</time>
      </trkpt>
      <trkpt lat="46.72135" lon="-1.96713">
        <ele>9.2</ele>
        <time>2024-12-26T08:11:18.046Z</time>
      </trkpt>
      <trkpt lat="46.72134" lon="-1.96715">
        <ele>9.2</ele>
        <time>2024-12-26T08:11:19.045Z</time>
      </trkpt>
      <trkpt lat="46.72133" lon="-1.96716">
        <ele>9.2</ele>
        <time>2024-12-26T08:11:20.045Z</time>
      </trkpt>
      <trkpt lat="46.72132" lon="-1.96718">
        <ele>9.2</ele>
        <time>2024-12-26T08:11:21.046Z</time>
      </trkpt>
      <trkpt lat="46.72132" lon="-1.96719">
        <ele>9.2</ele>
        <time>2024-12-26T08:11:22.046Z</time>
      </trkpt>
      <trkpt lat="46.72132" lon="-1.9672">
        <ele>9.3</ele>
        <time>2024-12-26T08:11:23.046Z</time>
      </trkpt>
      <trkpt lat="46.72131" lon="-1.96722">
        <ele>9.3</ele>
        <time>2024-12-26T08:11:24.046Z</time>
      </trkpt>
      <trkpt lat="46.72131" lon="-1.96723">
        <ele>9.3</ele>
        <time>2024-12-26T08:11:25.045Z</time>
      </trkpt>
      <trkpt lat="46.7213" lon="-1.96725">
        <ele>9.4</ele>
        <time>2024-12-26T08:11:26.045Z</time>
      </trkpt>
      <trkpt lat="46.72129" lon="-1.96727">
        <ele>9.4</ele>
        <time>2024-12-26T08:11:27.046Z</time>
      </trkpt>
      <trkpt lat="46.72128" lon="-1.96729">
        <ele>9.4</ele>
        <time>2024-12-26T08:11:28.045Z</time>
      </trkpt>
      <trkpt lat="46.72127" lon="-1.9673">
        <ele>9.5</ele>
        <time>2024-12-26T08:11:29.045Z</time>
      </trkpt>
      <trkpt lat="46.72126" lon="-1.96732">
        <ele>9.5</ele>
        <time>2024-12-26T08:11:30.046Z</time>
      </trkpt>
      <trkpt lat="46.72125" lon="-1.96734">
        <ele>9.5</ele>
        <time>2024-12-26T08:11:31.045Z</time>
      </trkpt>
      <trkpt lat="46.72125" lon="-1.96736">
        <ele>9.5</ele>
        <time>2024-12-26T08:11:32.045Z</time>
      </trkpt>
      <trkpt lat="46.72124" lon="-1.96738">
        <ele>9.5</ele>
        <time>2024-12-26T08:11:33.045Z</time>
      </trkpt>
      <trkpt lat="46.72123" lon="-1.9674">
        <ele>9.5</ele>
        <time>2024-12-26T08:11:34.045Z</time>
      </trkpt>
      <trkpt lat="46.72123" lon="-1.96742">
        <ele>9.5</ele>
        <time>2024-12-26T08:11:35.045Z</time>
      </trkpt>
      <trkpt lat="46.72122" lon="-1.96744">
        <ele>9.4</ele>
        <time>2024-12-26T08:11:36.045Z</time>
      </trkpt>
      <trkpt lat="46.72121" lon="-1.96746">
        <ele>9.4</ele>
        <time>2024-12-26T08:11:37.046Z</time>
      </trkpt>
      <trkpt lat="46.72121" lon="-1.96748">
        <ele>9.4</ele>
        <time>2024-12-26T08:11:38.045Z</time>
      </trkpt>
      <trkpt lat="46.7212" lon="-1.9675">
        <ele>9.3</ele>
        <time>2024-12-26T08:11:39.045Z</time>
      </trkpt>
      <trkpt lat="46.72119" lon="-1.96752">
        <ele>9.3</ele>
        <time>2024-12-26T08:11:40.045Z</time>
      </trkpt>
      <trkpt lat="46.72119" lon="-1.96754">
        <ele>9.4</ele>
        <time>2024-12-26T08:11:41.045Z</time>
      </trkpt>
      <trkpt lat="46.72118" lon="-1.96755">
        <ele>9.4</ele>
        <time>2024-12-26T08:11:42.045Z</time>
      </trkpt>
      <trkpt lat="46.72118" lon="-1.96757">
        <ele>9.4</ele>
        <time>2024-12-26T08:11:43.045Z</time>
      </trkpt>
      <trkpt lat="46.72117" lon="-1.96759">
        <ele>9.5</ele>
        <time>2024-12-26T08:11:44.045Z</time>
      </trkpt>
      <trkpt lat="46.72117" lon="-1.9676">
        <ele>9.5</ele>
        <time>2024-12-26T08:11:45.045Z</time>
      </trkpt>
      <trkpt lat="46.72116" lon="-1.96762">
        <ele>9.5</ele>
        <time>2024-12-26T08:11:46.046Z</time>
      </trkpt>
      <trkpt lat="46.72116" lon="-1.96763">
        <ele>9.6</ele>
        <time>2024-12-26T08:11:47.046Z</time>
      </trkpt>
      <trkpt lat="46.72115" lon="-1.96766">
        <ele>9.6</ele>
        <time>2024-12-26T08:11:48.046Z</time>
      </trkpt>
      <trkpt lat="46.72115" lon="-1.96767">
        <ele>9.7</ele>
        <time>2024-12-26T08:11:49.046Z</time>
      </trkpt>
      <trkpt lat="46.72114" lon="-1.96769">
        <ele>9.7</ele>
        <time>2024-12-26T08:11:50.045Z</time>
      </trkpt>
      <trkpt lat="46.72113" lon="-1.96771">
        <ele>9.8</ele>
        <time>2024-12-26T08:11:51.045Z</time>
      </trkpt>
      <trkpt lat="46.72112" lon="-1.96773">
        <ele>9.8</ele>
        <time>2024-12-26T08:11:52.046Z</time>
      </trkpt>
      <trkpt lat="46.72111" lon="-1.96775">
        <ele>9.9</ele>
        <time>2024-12-26T08:11:53.045Z</time>
      </trkpt>
      <trkpt lat="46.7211" lon="-1.96777">
        <ele>9.9</ele>
        <time>2024-12-26T08:11:54.046Z</time>
      </trkpt>
      <trkpt lat="46.7211" lon="-1.96779">
        <ele>9.9</ele>
        <time>2024-12-26T08:11:55.046Z</time>
      </trkpt>
      <trkpt lat="46.72109" lon="-1.9678">
        <ele>9.9</ele>
        <time>2024-12-26T08:11:56.045Z</time>
      </trkpt>
      <trkpt lat="46.72109" lon="-1.96781">
        <ele>9.8</ele>
        <time>2024-12-26T08:11:57.046Z</time>
      </trkpt>
      <trkpt lat="46.72107" lon="-1.96783">
        <ele>9.7</ele>
        <time>2024-12-26T08:11:58.045Z</time>
      </trkpt>
      <trkpt lat="46.72106" lon="-1.96785">
        <ele>9.7</ele>
        <time>2024-12-26T08:11:59.046Z</time>
      </trkpt>
      <trkpt lat="46.72105" lon="-1.96786">
        <ele>9.6</ele>
        <time>2024-12-26T08:12:00.045Z</time>
      </trkpt>
      <trkpt lat="46.72103" lon="-1.96788">
        <ele>9.6</ele>
        <time>2024-12-26T08:12:01.045Z</time>
      </trkpt>
      <trkpt lat="46.72102" lon="-1.96791">
        <ele>9.5</ele>
        <time>2024-12-26T08:12:02.046Z</time>
      </trkpt>
      <trkpt lat="46.72101" lon="-1.96794">
        <ele>9.5</ele>
        <time>2024-12-26T08:12:03.046Z</time>
      </trkpt>
      <trkpt lat="46.72101" lon="-1.96796">
        <ele>9.5</ele>
        <time>2024-12-26T08:12:04.045Z</time>
      </trkpt>
      <trkpt lat="46.72102" lon="-1.968">
        <ele>9.4</ele>
        <time>2024-12-26T08:12:05.046Z</time>
      </trkpt>
      <trkpt lat="46.72101" lon="-1.96802">
        <ele>9.4</ele>
        <time>2024-12-26T08:12:06.046Z</time>
      </trkpt>
      <trkpt lat="46.72101" lon="-1.96803">
        <ele>9.4</ele>
        <time>2024-12-26T08:12:07.046Z</time>
      </trkpt>
      <trkpt lat="46.721" lon="-1.96805">
        <ele>9.4</ele>
        <time>2024-12-26T08:12:08.045Z</time>
      </trkpt>
      <trkpt lat="46.721" lon="-1.96806">
        <ele>9.4</ele>
        <time>2024-12-26T08:12:09.045Z</time>
      </trkpt>
      <trkpt lat="46.72099" lon="-1.96807">
        <ele>9.4</ele>
        <time>2024-12-26T08:12:10.045Z</time>
      </trkpt>
      <trkpt lat="46.72099" lon="-1.96808">
        <ele>9.4</ele>
        <time>2024-12-26T08:12:11.046Z</time>
      </trkpt>
      <trkpt lat="46.721" lon="-1.9681">
        <ele>9.4</ele>
        <time>2024-12-26T08:12:12.045Z</time>
      </trkpt>
      <trkpt lat="46.721" lon="-1.96813">
        <ele>9.3</ele>
        <time>2024-12-26T08:12:13.045Z</time>
      </trkpt>
      <trkpt lat="46.721" lon="-1.96816">
        <ele>9.3</ele>
        <time>2024-12-26T08:12:14.045Z</time>
      </trkpt>
      <trkpt lat="46.721" lon="-1.96818">
        <ele>9.2</ele>
        <time>2024-12-26T08:12:15.046Z</time>
      </trkpt>
      <trkpt lat="46.72099" lon="-1.9682">
        <ele>9.2</ele>
        <time>2024-12-26T08:12:16.046Z</time>
      </trkpt>
      <trkpt lat="46.72099" lon="-1.96822">
        <ele>9.2</ele>
        <time>2024-12-26T08:12:17.045Z</time>
      </trkpt>
      <trkpt lat="46.72098" lon="-1.96824">
        <ele>9.2</ele>
        <time>2024-12-26T08:12:18.046Z</time>
      </trkpt>
      <trkpt lat="46.72098" lon="-1.96825">
        <ele>9.1</ele>
        <time>2024-12-26T08:12:19.045Z</time>
      </trkpt>
      <trkpt lat="46.72097" lon="-1.96827">
        <ele>9.1</ele>
        <time>2024-12-26T08:12:20.046Z</time>
      </trkpt>
      <trkpt lat="46.72097" lon="-1.96829">
        <ele>9.1</ele>
        <time>2024-12-26T08:12:21.046Z</time>
      </trkpt>
      <trkpt lat="46.72096" lon="-1.96831">
        <ele>9.1</ele>
        <time>2024-12-26T08:12:22.046Z</time>
      </trkpt>
      <trkpt lat="46.72096" lon="-1.96833">
        <ele>9</ele>
        <time>2024-12-26T08:12:23.046Z</time>
      </trkpt>
      <trkpt lat="46.72096" lon="-1.96835">
        <ele>9</ele>
        <time>2024-12-26T08:12:24.046Z</time>
      </trkpt>
      <trkpt lat="46.72096" lon="-1.96836">
        <ele>9</ele>
        <time>2024-12-26T08:12:25.046Z</time>
      </trkpt>
      <trkpt lat="46.72095" lon="-1.96838">
        <ele>9</ele>
        <time>2024-12-26T08:12:26.046Z</time>
      </trkpt>
      <trkpt lat="46.72094" lon="-1.96839">
        <ele>9</ele>
        <time>2024-12-26T08:12:27.046Z</time>
      </trkpt>
      <trkpt lat="46.72094" lon="-1.96841">
        <ele>9</ele>
        <time>2024-12-26T08:12:28.046Z</time>
      </trkpt>
      <trkpt lat="46.72093" lon="-1.96842">
        <ele>9</ele>
        <time>2024-12-26T08:12:29.045Z</time>
      </trkpt>
      <trkpt lat="46.72093" lon="-1.96844">
        <ele>9</ele>
        <time>2024-12-26T08:12:30.046Z</time>
      </trkpt>
      <trkpt lat="46.72092" lon="-1.96846">
        <ele>9</ele>
        <time>2024-12-26T08:12:31.046Z</time>
      </trkpt>
      <trkpt lat="46.72092" lon="-1.96848">
        <ele>9</ele>
        <time>2024-12-26T08:12:32.046Z</time>
      </trkpt>
      <trkpt lat="46.72091" lon="-1.96849">
        <ele>9</ele>
        <time>2024-12-26T08:12:33.045Z</time>
      </trkpt>
      <trkpt lat="46.72091" lon="-1.96851">
        <ele>9</ele>
        <time>2024-12-26T08:12:34.046Z</time>
      </trkpt>
      <trkpt lat="46.7209" lon="-1.96853">
        <ele>9</ele>
        <time>2024-12-26T08:12:35.046Z</time>
      </trkpt>
      <trkpt lat="46.7209" lon="-1.96855">
        <ele>9</ele>
        <time>2024-12-26T08:12:36.045Z</time>
      </trkpt>
      <trkpt lat="46.72089" lon="-1.96857">
        <ele>9</ele>
        <time>2024-12-26T08:12:37.046Z</time>
      </trkpt>
      <trkpt lat="46.72089" lon="-1.96859">
        <ele>9</ele>
        <time>2024-12-26T08:12:38.045Z</time>
      </trkpt>
      <trkpt lat="46.72089" lon="-1.96861">
        <ele>9</ele>
        <time>2024-12-26T08:12:39.045Z</time>
      </trkpt>
      <trkpt lat="46.72088" lon="-1.96862">
        <ele>9</ele>
        <time>2024-12-26T08:12:40.045Z</time>
      </trkpt>
      <trkpt lat="46.72088" lon="-1.96864">
        <ele>9</ele>
        <time>2024-12-26T08:12:41.045Z</time>
      </trkpt>
      <trkpt lat="46.72088" lon="-1.96866">
        <ele>9</ele>
        <time>2024-12-26T08:12:42.046Z</time>
      </trkpt>
      <trkpt lat="46.72088" lon="-1.96869">
        <ele>9</ele>
        <time>2024-12-26T08:12:43.046Z</time>
      </trkpt>
      <trkpt lat="46.72087" lon="-1.96872">
        <ele>8.9</ele>
        <time>2024-12-26T08:12:44.045Z</time>
      </trkpt>
      <trkpt lat="46.72086" lon="-1.96874">
        <ele>9</ele>
        <time>2024-12-26T08:12:45.046Z</time>
      </trkpt>
      <trkpt lat="46.72086" lon="-1.96875">
        <ele>9</ele>
        <time>2024-12-26T08:12:46.046Z</time>
      </trkpt>
      <trkpt lat="46.72085" lon="-1.96876">
        <ele>9</ele>
        <time>2024-12-26T08:12:47.045Z</time>
      </trkpt>
      <trkpt lat="46.72084" lon="-1.96877">
        <ele>9</ele>
        <time>2024-12-26T08:12:48.046Z</time>
      </trkpt>
      <trkpt lat="46.72083" lon="-1.96879">
        <ele>9</ele>
        <time>2024-12-26T08:12:49.046Z</time>
      </trkpt>
      <trkpt lat="46.72082" lon="-1.9688">
        <ele>9</ele>
        <time>2024-12-26T08:12:50.046Z</time>
      </trkpt>
      <trkpt lat="46.7208" lon="-1.96881">
        <ele>9.1</ele>
        <time>2024-12-26T08:12:51.046Z</time>
      </trkpt>
      <trkpt lat="46.72079" lon="-1.96882">
        <ele>9.1</ele>
        <time>2024-12-26T08:12:52.045Z</time>
      </trkpt>
      <trkpt lat="46.72078" lon="-1.96884">
        <ele>9.2</ele>
        <time>2024-12-26T08:12:53.046Z</time>
      </trkpt>
      <trkpt lat="46.72078" lon="-1.96884">
        <ele>9.2</ele>
        <time>2024-12-26T08:12:54.046Z</time>
      </trkpt>
      <trkpt lat="46.72076" lon="-1.96886">
        <ele>9.2</ele>
        <time>2024-12-26T08:12:55.046Z</time>
      </trkpt>
      <trkpt lat="46.72075" lon="-1.96887">
        <ele>9.3</ele>
        <time>2024-12-26T08:12:56.046Z</time>
      </trkpt>
      <trkpt lat="46.72075" lon="-1.9689">
        <ele>9.3</ele>
        <time>2024-12-26T08:12:57.045Z</time>
      </trkpt>
      <trkpt lat="46.72074" lon="-1.96891">
        <ele>9.3</ele>
        <time>2024-12-26T08:12:58.046Z</time>
      </trkpt>
      <trkpt lat="46.72073" lon="-1.96893">
        <ele>9.4</ele>
        <time>2024-12-26T08:12:59.045Z</time>
      </trkpt>
      <trkpt lat="46.72073" lon="-1.96895">
        <ele>9.4</ele>
        <time>2024-12-26T08:13:00.046Z</time>
      </trkpt>
      <trkpt lat="46.72072" lon="-1.96896">
        <ele>9.4</ele>
        <time>2024-12-26T08:13:01.045Z</time>
      </trkpt>
      <trkpt lat="46.72072" lon="-1.96898">
        <ele>9.4</ele>
        <time>2024-12-26T08:13:02.045Z</time>
      </trkpt>
      <trkpt lat="46.72072" lon="-1.96901">
        <ele>9.4</ele>
        <time>2024-12-26T08:13:03.045Z</time>
      </trkpt>
      <trkpt lat="46.72071" lon="-1.96903">
        <ele>9.4</ele>
        <time>2024-12-26T08:13:04.046Z</time>
      </trkpt>
      <trkpt lat="46.7207" lon="-1.96905">
        <ele>9.5</ele>
        <time>2024-12-26T08:13:05.046Z</time>
      </trkpt>
      <trkpt lat="46.7207" lon="-1.96906">
        <ele>9.5</ele>
        <time>2024-12-26T08:13:06.046Z</time>
      </trkpt>
      <trkpt lat="46.72069" lon="-1.96908">
        <ele>9.5</ele>
        <time>2024-12-26T08:13:07.046Z</time>
      </trkpt>
      <trkpt lat="46.72068" lon="-1.9691">
        <ele>9.6</ele>
        <time>2024-12-26T08:13:08.046Z</time>
      </trkpt>
      <trkpt lat="46.72067" lon="-1.96912">
        <ele>9.6</ele>
        <time>2024-12-26T08:13:09.046Z</time>
      </trkpt>
      <trkpt lat="46.72067" lon="-1.96914">
        <ele>9.6</ele>
        <time>2024-12-26T08:13:10.045Z</time>
      </trkpt>
      <trkpt lat="46.72066" lon="-1.96916">
        <ele>9.6</ele>
        <time>2024-12-26T08:13:11.046Z</time>
      </trkpt>
      <trkpt lat="46.72066" lon="-1.96917">
        <ele>9.6</ele>
        <time>2024-12-26T08:13:12.046Z</time>
      </trkpt>
      <trkpt lat="46.72066" lon="-1.96919">
        <ele>9.6</ele>
        <time>2024-12-26T08:13:13.046Z</time>
      </trkpt>
      <trkpt lat="46.72066" lon="-1.9692">
        <ele>9.6</ele>
        <time>2024-12-26T08:13:14.046Z</time>
      </trkpt>
      <trkpt lat="46.72065" lon="-1.96922">
        <ele>9.5</ele>
        <time>2024-12-26T08:13:15.046Z</time>
      </trkpt>
      <trkpt lat="46.72065" lon="-1.96924">
        <ele>9.5</ele>
        <time>2024-12-26T08:13:16.046Z</time>
      </trkpt>
      <trkpt lat="46.72065" lon="-1.96926">
        <ele>9.4</ele>
        <time>2024-12-26T08:13:17.046Z</time>
      </trkpt>
      <trkpt lat="46.72064" lon="-1.96929">
        <ele>9.4</ele>
        <time>2024-12-26T08:13:18.045Z</time>
      </trkpt>
      <trkpt lat="46.72063" lon="-1.96931">
        <ele>9.4</ele>
        <time>2024-12-26T08:13:19.045Z</time>
      </trkpt>
      <trkpt lat="46.72062" lon="-1.96933">
        <ele>9.3</ele>
        <time>2024-12-26T08:13:20.045Z</time>
      </trkpt>
      <trkpt lat="46.72061" lon="-1.96935">
        <ele>9.3</ele>
        <time>2024-12-26T08:13:21.045Z</time>
      </trkpt>
      <trkpt lat="46.72061" lon="-1.96937">
        <ele>9.2</ele>
        <time>2024-12-26T08:13:22.045Z</time>
      </trkpt>
      <trkpt lat="46.7206" lon="-1.96939">
        <ele>9.2</ele>
        <time>2024-12-26T08:13:23.045Z</time>
      </trkpt>
      <trkpt lat="46.72059" lon="-1.9694">
        <ele>9.2</ele>
        <time>2024-12-26T08:13:24.045Z</time>
      </trkpt>
      <trkpt lat="46.72057" lon="-1.9694">
        <ele>9.1</ele>
        <time>2024-12-26T08:13:25.045Z</time>
      </trkpt>
      <trkpt lat="46.72056" lon="-1.96941">
        <ele>9.1</ele>
        <time>2024-12-26T08:13:26.045Z</time>
      </trkpt>
      <trkpt lat="46.72055" lon="-1.96941">
        <ele>9.1</ele>
        <time>2024-12-26T08:13:27.046Z</time>
      </trkpt>
      <trkpt lat="46.72053" lon="-1.96941">
        <ele>9.1</ele>
        <time>2024-12-26T08:13:28.046Z</time>
      </trkpt>
      <trkpt lat="46.72052" lon="-1.96942">
        <ele>9.1</ele>
        <time>2024-12-26T08:13:29.046Z</time>
      </trkpt>
      <trkpt lat="46.7205" lon="-1.96943">
        <ele>9</ele>
        <time>2024-12-26T08:13:30.045Z</time>
      </trkpt>
      <trkpt lat="46.72048" lon="-1.96945">
        <ele>9</ele>
        <time>2024-12-26T08:13:31.045Z</time>
      </trkpt>
      <trkpt lat="46.72046" lon="-1.96947">
        <ele>9</ele>
        <time>2024-12-26T08:13:32.045Z</time>
      </trkpt>
      <trkpt lat="46.72044" lon="-1.96948">
        <ele>9</ele>
        <time>2024-12-26T08:13:33.046Z</time>
      </trkpt>
      <trkpt lat="46.72044" lon="-1.96949">
        <ele>9</ele>
        <time>2024-12-26T08:13:34.046Z</time>
      </trkpt>
      <trkpt lat="46.72044" lon="-1.96951">
        <ele>9</ele>
        <time>2024-12-26T08:13:35.046Z</time>
      </trkpt>
      <trkpt lat="46.72044" lon="-1.96953">
        <ele>9</ele>
        <time>2024-12-26T08:13:36.046Z</time>
      </trkpt>
      <trkpt lat="46.72044" lon="-1.96956">
        <ele>9</ele>
        <time>2024-12-26T08:13:37.046Z</time>
      </trkpt>
      <trkpt lat="46.72044" lon="-1.96959">
        <ele>9</ele>
        <time>2024-12-26T08:13:38.045Z</time>
      </trkpt>
      <trkpt lat="46.72044" lon="-1.96962">
        <ele>9</ele>
        <time>2024-12-26T08:13:39.046Z</time>
      </trkpt>
      <trkpt lat="46.72044" lon="-1.96964">
        <ele>9</ele>
        <time>2024-12-26T08:13:40.046Z</time>
      </trkpt>
      <trkpt lat="46.72044" lon="-1.96967">
        <ele>9</ele>
        <time>2024-12-26T08:13:41.046Z</time>
      </trkpt>
      <trkpt lat="46.72044" lon="-1.96969">
        <ele>9</ele>
        <time>2024-12-26T08:13:42.045Z</time>
      </trkpt>
      <trkpt lat="46.72043" lon="-1.96971">
        <ele>9</ele>
        <time>2024-12-26T08:13:43.045Z</time>
      </trkpt>
      <trkpt lat="46.72042" lon="-1.96972">
        <ele>9</ele>
        <time>2024-12-26T08:13:44.045Z</time>
      </trkpt>
      <trkpt lat="46.72041" lon="-1.96973">
        <ele>9</ele>
        <time>2024-12-26T08:13:45.046Z</time>
      </trkpt>
      <trkpt lat="46.72041" lon="-1.96975">
        <ele>9</ele>
        <time>2024-12-26T08:13:46.046Z</time>
      </trkpt>
      <trkpt lat="46.7204" lon="-1.96977">
        <ele>9</ele>
        <time>2024-12-26T08:13:47.046Z</time>
      </trkpt>
      <trkpt lat="46.7204" lon="-1.9698">
        <ele>9</ele>
        <time>2024-12-26T08:13:48.046Z</time>
      </trkpt>
      <trkpt lat="46.7204" lon="-1.96982">
        <ele>9</ele>
        <time>2024-12-26T08:13:49.046Z</time>
      </trkpt>
      <trkpt lat="46.72039" lon="-1.96984">
        <ele>9</ele>
        <time>2024-12-26T08:13:50.046Z</time>
      </trkpt>
      <trkpt lat="46.72039" lon="-1.96985">
        <ele>9</ele>
        <time>2024-12-26T08:13:51.045Z</time>
      </trkpt>
      <trkpt lat="46.72039" lon="-1.96986">
        <ele>9</ele>
        <time>2024-12-26T08:13:52.046Z</time>
      </trkpt>
      <trkpt lat="46.72038" lon="-1.96987">
        <ele>9</ele>
        <time>2024-12-26T08:13:53.046Z</time>
      </trkpt>
      <trkpt lat="46.72038" lon="-1.9699">
        <ele>9</ele>
        <time>2024-12-26T08:13:54.046Z</time>
      </trkpt>
      <trkpt lat="46.72037" lon="-1.96992">
        <ele>9</ele>
        <time>2024-12-26T08:13:55.046Z</time>
      </trkpt>
      <trkpt lat="46.72037" lon="-1.96994">
        <ele>9</ele>
        <time>2024-12-26T08:13:56.045Z</time>
      </trkpt>
      <trkpt lat="46.72038" lon="-1.96996">
        <ele>9</ele>
        <time>2024-12-26T08:13:57.046Z</time>
      </trkpt>
      <trkpt lat="46.72038" lon="-1.96998">
        <ele>9</ele>
        <time>2024-12-26T08:13:58.045Z</time>
      </trkpt>
      <trkpt lat="46.72039" lon="-1.97001">
        <ele>9</ele>
        <time>2024-12-26T08:13:59.045Z</time>
      </trkpt>
      <trkpt lat="46.72039" lon="-1.97003">
        <ele>9</ele>
        <time>2024-12-26T08:14:00.046Z</time>
      </trkpt>
      <trkpt lat="46.72039" lon="-1.97005">
        <ele>9</ele>
        <time>2024-12-26T08:14:01.045Z</time>
      </trkpt>
      <trkpt lat="46.72039" lon="-1.97007">
        <ele>9</ele>
        <time>2024-12-26T08:14:02.046Z</time>
      </trkpt>
      <trkpt lat="46.72039" lon="-1.97009">
        <ele>9</ele>
        <time>2024-12-26T08:14:03.046Z</time>
      </trkpt>
      <trkpt lat="46.72039" lon="-1.9701">
        <ele>9</ele>
        <time>2024-12-26T08:14:04.046Z</time>
      </trkpt>
      <trkpt lat="46.72039" lon="-1.97013">
        <ele>9</ele>
        <time>2024-12-26T08:14:05.046Z</time>
      </trkpt>
      <trkpt lat="46.72038" lon="-1.97014">
        <ele>9</ele>
        <time>2024-12-26T08:14:06.046Z</time>
      </trkpt>
      <trkpt lat="46.72037" lon="-1.97016">
        <ele>9</ele>
        <time>2024-12-26T08:14:07.046Z</time>
      </trkpt>
      <trkpt lat="46.72036" lon="-1.97018">
        <ele>9</ele>
        <time>2024-12-26T08:14:08.046Z</time>
      </trkpt>
      <trkpt lat="46.72036" lon="-1.97021">
        <ele>9</ele>
        <time>2024-12-26T08:14:09.045Z</time>
      </trkpt>
      <trkpt lat="46.72036" lon="-1.97023">
        <ele>9</ele>
        <time>2024-12-26T08:14:10.045Z</time>
      </trkpt>
      <trkpt lat="46.72035" lon="-1.97025">
        <ele>9</ele>
        <time>2024-12-26T08:14:11.045Z</time>
      </trkpt>
      <trkpt lat="46.72035" lon="-1.97026">
        <ele>9</ele>
        <time>2024-12-26T08:14:12.045Z</time>
      </trkpt>
      <trkpt lat="46.72034" lon="-1.97028">
        <ele>9</ele>
        <time>2024-12-26T08:14:13.045Z</time>
      </trkpt>
      <trkpt lat="46.72034" lon="-1.97031">
        <ele>9</ele>
        <time>2024-12-26T08:14:14.045Z</time>
      </trkpt>
      <trkpt lat="46.72034" lon="-1.97033">
        <ele>9</ele>
        <time>2024-12-26T08:14:15.046Z</time>
      </trkpt>
      <trkpt lat="46.72034" lon="-1.97036">
        <ele>9</ele>
        <time>2024-12-26T08:14:16.046Z</time>
      </trkpt>
      <trkpt lat="46.72033" lon="-1.97037">
        <ele>9</ele>
        <time>2024-12-26T08:14:17.045Z</time>
      </trkpt>
      <trkpt lat="46.72032" lon="-1.97038">
        <ele>9</ele>
        <time>2024-12-26T08:14:18.046Z</time>
      </trkpt>
      <trkpt lat="46.72031" lon="-1.97039">
        <ele>9</ele>
        <time>2024-12-26T08:14:19.046Z</time>
      </trkpt>
      <trkpt lat="46.72031" lon="-1.9704">
        <ele>9</ele>
        <time>2024-12-26T08:14:20.046Z</time>
      </trkpt>
      <trkpt lat="46.7203" lon="-1.97041">
        <ele>9</ele>
        <time>2024-12-26T08:14:21.045Z</time>
      </trkpt>
      <trkpt lat="46.72029" lon="-1.97042">
        <ele>9</ele>
        <time>2024-12-26T08:14:22.045Z</time>
      </trkpt>
      <trkpt lat="46.72029" lon="-1.97042">
        <ele>9</ele>
        <time>2024-12-26T08:14:23.046Z</time>
      </trkpt>
      <trkpt lat="46.72028" lon="-1.97043">
        <ele>9</ele>
        <time>2024-12-26T08:14:24.045Z</time>
      </trkpt>
      <trkpt lat="46.72028" lon="-1.97045">
        <ele>9</ele>
        <time>2024-12-26T08:14:25.045Z</time>
      </trkpt>
      <trkpt lat="46.72027" lon="-1.97047">
        <ele>9</ele>
        <time>2024-12-26T08:14:26.046Z</time>
      </trkpt>
      <trkpt lat="46.72027" lon="-1.9705">
        <ele>9</ele>
        <time>2024-12-26T08:14:27.046Z</time>
      </trkpt>
      <trkpt lat="46.72026" lon="-1.97052">
        <ele>9</ele>
        <time>2024-12-26T08:14:28.046Z</time>
      </trkpt>
      <trkpt lat="46.72025" lon="-1.97053">
        <ele>9</ele>
        <time>2024-12-26T08:14:29.046Z</time>
      </trkpt>
      <trkpt lat="46.72024" lon="-1.97054">
        <ele>9</ele>
        <time>2024-12-26T08:14:30.046Z</time>
      </trkpt>
      <trkpt lat="46.72023" lon="-1.97056">
        <ele>9</ele>
        <time>2024-12-26T08:14:31.045Z</time>
      </trkpt>
      <trkpt lat="46.72022" lon="-1.97056">
        <ele>9</ele>
        <time>2024-12-26T08:14:32.045Z</time>
      </trkpt>
      <trkpt lat="46.72022" lon="-1.97057">
        <ele>9</ele>
        <time>2024-12-26T08:14:33.046Z</time>
      </trkpt>
      <trkpt lat="46.7202" lon="-1.97058">
        <ele>9</ele>
        <time>2024-12-26T08:14:34.045Z</time>
      </trkpt>
      <trkpt lat="46.72018" lon="-1.97059">
        <ele>8.9</ele>
        <time>2024-12-26T08:14:35.045Z</time>
      </trkpt>
      <trkpt lat="46.72016" lon="-1.9706">
        <ele>8.9</ele>
        <time>2024-12-26T08:14:36.045Z</time>
      </trkpt>
      <trkpt lat="46.72014" lon="-1.97062">
        <ele>8.9</ele>
        <time>2024-12-26T08:14:37.045Z</time>
      </trkpt>
      <trkpt lat="46.72013" lon="-1.97065">
        <ele>8.8</ele>
        <time>2024-12-26T08:14:38.046Z</time>
      </trkpt>
      <trkpt lat="46.72012" lon="-1.97067">
        <ele>8.8</ele>
        <time>2024-12-26T08:14:39.046Z</time>
      </trkpt>
      <trkpt lat="46.72011" lon="-1.97068">
        <ele>8.8</ele>
        <time>2024-12-26T08:14:40.045Z</time>
      </trkpt>
      <trkpt lat="46.72009" lon="-1.97068">
        <ele>8.9</ele>
        <time>2024-12-26T08:14:41.046Z</time>
      </trkpt>
      <trkpt lat="46.72007" lon="-1.97069">
        <ele>8.9</ele>
        <time>2024-12-26T08:14:42.046Z</time>
      </trkpt>
      <trkpt lat="46.72006" lon="-1.9707">
        <ele>8.9</ele>
        <time>2024-12-26T08:14:43.045Z</time>
      </trkpt>
      <trkpt lat="46.72005" lon="-1.97071">
        <ele>8.9</ele>
        <time>2024-12-26T08:14:44.045Z</time>
      </trkpt>
      <trkpt lat="46.72004" lon="-1.97071">
        <ele>8.9</ele>
        <time>2024-12-26T08:14:45.046Z</time>
      </trkpt>
      <trkpt lat="46.72003" lon="-1.97071">
        <ele>8.9</ele>
        <time>2024-12-26T08:14:46.045Z</time>
      </trkpt>
      <trkpt lat="46.72001" lon="-1.97073">
        <ele>9</ele>
        <time>2024-12-26T08:14:47.045Z</time>
      </trkpt>
      <trkpt lat="46.72" lon="-1.97075">
        <ele>9</ele>
        <time>2024-12-26T08:14:48.045Z</time>
      </trkpt>
      <trkpt lat="46.71999" lon="-1.97077">
        <ele>9</ele>
        <time>2024-12-26T08:14:49.045Z</time>
      </trkpt>
      <trkpt lat="46.71999" lon="-1.97078">
        <ele>9</ele>
        <time>2024-12-26T08:14:50.045Z</time>
      </trkpt>
      <trkpt lat="46.71999" lon="-1.97079">
        <ele>9</ele>
        <time>2024-12-26T08:14:51.045Z</time>
      </trkpt>
      <trkpt lat="46.71998" lon="-1.9708">
        <ele>9</ele>
        <time>2024-12-26T08:14:52.046Z</time>
      </trkpt>
      <trkpt lat="46.71998" lon="-1.97081">
        <ele>9</ele>
        <time>2024-12-26T08:14:53.046Z</time>
      </trkpt>
      <trkpt lat="46.71998" lon="-1.97081">
        <ele>9</ele>
        <time>2024-12-26T08:14:54.046Z</time>
      </trkpt>
      <trkpt lat="46.71998" lon="-1.97082">
        <ele>9</ele>
        <time>2024-12-26T08:14:55.046Z</time>
      </trkpt>
      <trkpt lat="46.71997" lon="-1.97083">
        <ele>9</ele>
        <time>2024-12-26T08:14:56.046Z</time>
      </trkpt>
      <trkpt lat="46.71996" lon="-1.97084">
        <ele>9</ele>
        <time>2024-12-26T08:14:57.045Z</time>
      </trkpt>
      <trkpt lat="46.71995" lon="-1.97085">
        <ele>9</ele>
        <time>2024-12-26T08:14:58.045Z</time>
      </trkpt>
      <trkpt lat="46.71994" lon="-1.97086">
        <ele>9</ele>
        <time>2024-12-26T08:14:59.045Z</time>
      </trkpt>
      <trkpt lat="46.71992" lon="-1.97087">
        <ele>9</ele>
        <time>2024-12-26T08:15:00.046Z</time>
      </trkpt>
      <trkpt lat="46.7199" lon="-1.97088">
        <ele>9</ele>
        <time>2024-12-26T08:15:01.045Z</time>
      </trkpt>
      <trkpt lat="46.71988" lon="-1.97091">
        <ele>9</ele>
        <time>2024-12-26T08:15:02.045Z</time>
      </trkpt>
      <trkpt lat="46.71988" lon="-1.97092">
        <ele>9</ele>
        <time>2024-12-26T08:15:03.046Z</time>
      </trkpt>
      <trkpt lat="46.71986" lon="-1.97092">
        <ele>9</ele>
        <time>2024-12-26T08:15:04.046Z</time>
      </trkpt>
      <trkpt lat="46.71985" lon="-1.97093">
        <ele>9</ele>
        <time>2024-12-26T08:15:05.046Z</time>
      </trkpt>
      <trkpt lat="46.71985" lon="-1.97093">
        <ele>9</ele>
        <time>2024-12-26T08:15:06.046Z</time>
      </trkpt>
      <trkpt lat="46.71984" lon="-1.97094">
        <ele>9</ele>
        <time>2024-12-26T08:15:07.046Z</time>
      </trkpt>
      <trkpt lat="46.71984" lon="-1.97094">
        <ele>9</ele>
        <time>2024-12-26T08:15:08.046Z</time>
      </trkpt>
      <trkpt lat="46.71984" lon="-1.97093">
        <ele>9</ele>
        <time>2024-12-26T08:15:09.045Z</time>
      </trkpt>
      <trkpt lat="46.71984" lon="-1.97092">
        <ele>9</ele>
        <time>2024-12-26T08:15:10.046Z</time>
      </trkpt>
      <trkpt lat="46.71983" lon="-1.97091">
        <ele>9</ele>
        <time>2024-12-26T08:15:11.045Z</time>
      </trkpt>
      <trkpt lat="46.71982" lon="-1.9709">
        <ele>9</ele>
        <time>2024-12-26T08:15:12.045Z</time>
      </trkpt>
      <trkpt lat="46.71982" lon="-1.9709">
        <ele>9</ele>
        <time>2024-12-26T08:15:13.045Z</time>
      </trkpt>
      <trkpt lat="46.71981" lon="-1.97091">
        <ele>9</ele>
        <time>2024-12-26T08:15:14.045Z</time>
      </trkpt>
      <trkpt lat="46.7198" lon="-1.97092">
        <ele>9</ele>
        <time>2024-12-26T08:15:15.045Z</time>
      </trkpt>
      <trkpt lat="46.71978" lon="-1.97094">
        <ele>9</ele>
        <time>2024-12-26T08:15:16.046Z</time>
      </trkpt>
      <trkpt lat="46.71976" lon="-1.97096">
        <ele>9</ele>
        <time>2024-12-26T08:15:17.046Z</time>
      </trkpt>
      <trkpt lat="46.71974" lon="-1.97098">
        <ele>9</ele>
        <time>2024-12-26T08:15:18.046Z</time>
      </trkpt>
      <trkpt lat="46.71973" lon="-1.97101">
        <ele>9</ele>
        <time>2024-12-26T08:15:19.046Z</time>
      </trkpt>
      <trkpt lat="46.71971" lon="-1.97104">
        <ele>9</ele>
        <time>2024-12-26T08:15:20.046Z</time>
      </trkpt>
      <trkpt lat="46.71972" lon="-1.97106">
        <ele>9</ele>
        <time>2024-12-26T08:15:21.046Z</time>
      </trkpt>
      <trkpt lat="46.71973" lon="-1.97107">
        <ele>9</ele>
        <time>2024-12-26T08:15:22.045Z</time>
      </trkpt>
      <trkpt lat="46.71973" lon="-1.97107">
        <ele>9</ele>
        <time>2024-12-26T08:15:23.045Z</time>
      </trkpt>
      <trkpt lat="46.71973" lon="-1.97107">
        <ele>9</ele>
        <time>2024-12-26T08:15:24.046Z</time>
      </trkpt>
      <trkpt lat="46.71971" lon="-1.97109">
        <ele>9</ele>
        <time>2024-12-26T08:15:25.045Z</time>
      </trkpt>
      <trkpt lat="46.7197" lon="-1.97111">
        <ele>9</ele>
        <time>2024-12-26T08:15:26.045Z</time>
      </trkpt>
      <trkpt lat="46.7197" lon="-1.97113">
        <ele>8.9</ele>
        <time>2024-12-26T08:15:27.045Z</time>
      </trkpt>
      <trkpt lat="46.71969" lon="-1.97115">
        <ele>8.9</ele>
        <time>2024-12-26T08:15:28.045Z</time>
      </trkpt>
      <trkpt lat="46.71968" lon="-1.97116">
        <ele>8.8</ele>
        <time>2024-12-26T08:15:29.045Z</time>
      </trkpt>
      <trkpt lat="46.71966" lon="-1.97118">
        <ele>8.8</ele>
        <time>2024-12-26T08:15:30.046Z</time>
      </trkpt>
      <trkpt lat="46.71963" lon="-1.97119">
        <ele>8.8</ele>
        <time>2024-12-26T08:15:31.046Z</time>
      </trkpt>
      <trkpt lat="46.71961" lon="-1.97121">
        <ele>8.8</ele>
        <time>2024-12-26T08:15:32.045Z</time>
      </trkpt>
      <trkpt lat="46.71959" lon="-1.97122">
        <ele>8.8</ele>
        <time>2024-12-26T08:15:33.046Z</time>
      </trkpt>
      <trkpt lat="46.71958" lon="-1.97123">
        <ele>8.8</ele>
        <time>2024-12-26T08:15:34.046Z</time>
      </trkpt>
      <trkpt lat="46.71957" lon="-1.97124">
        <ele>8.8</ele>
        <time>2024-12-26T08:15:35.046Z</time>
      </trkpt>
      <trkpt lat="46.71956" lon="-1.97125">
        <ele>8.8</ele>
        <time>2024-12-26T08:15:36.046Z</time>
      </trkpt>
      <trkpt lat="46.71955" lon="-1.97127">
        <ele>8.8</ele>
        <time>2024-12-26T08:15:37.045Z</time>
      </trkpt>
      <trkpt lat="46.71954" lon="-1.97129">
        <ele>8.8</ele>
        <time>2024-12-26T08:15:38.046Z</time>
      </trkpt>
      <trkpt lat="46.71953" lon="-1.97132">
        <ele>8.8</ele>
        <time>2024-12-26T08:15:39.046Z</time>
      </trkpt>
      <trkpt lat="46.71953" lon="-1.97134">
        <ele>8.7</ele>
        <time>2024-12-26T08:15:40.045Z</time>
      </trkpt>
      <trkpt lat="46.71952" lon="-1.97136">
        <ele>8.8</ele>
        <time>2024-12-26T08:15:41.045Z</time>
      </trkpt>
      <trkpt lat="46.71951" lon="-1.97136">
        <ele>8.8</ele>
        <time>2024-12-26T08:15:42.045Z</time>
      </trkpt>
      <trkpt lat="46.71949" lon="-1.97136">
        <ele>8.8</ele>
        <time>2024-12-26T08:15:43.045Z</time>
      </trkpt>
      <trkpt lat="46.71948" lon="-1.97137">
        <ele>8.9</ele>
        <time>2024-12-26T08:15:44.046Z</time>
      </trkpt>
      <trkpt lat="46.71946" lon="-1.97137">
        <ele>9</ele>
        <time>2024-12-26T08:15:45.046Z</time>
      </trkpt>
      <trkpt lat="46.71944" lon="-1.97138">
        <ele>9</ele>
        <time>2024-12-26T08:15:46.046Z</time>
      </trkpt>
      <trkpt lat="46.71943" lon="-1.97138">
        <ele>9</ele>
        <time>2024-12-26T08:15:47.046Z</time>
      </trkpt>
      <trkpt lat="46.71942" lon="-1.97139">
        <ele>9</ele>
        <time>2024-12-26T08:15:48.045Z</time>
      </trkpt>
      <trkpt lat="46.71941" lon="-1.97141">
        <ele>9</ele>
        <time>2024-12-26T08:15:49.045Z</time>
      </trkpt>
      <trkpt lat="46.71939" lon="-1.97141">
        <ele>9</ele>
        <time>2024-12-26T08:15:50.045Z</time>
      </trkpt>
      <trkpt lat="46.71938" lon="-1.97143">
        <ele>9</ele>
        <time>2024-12-26T08:15:51.045Z</time>
      </trkpt>
      <trkpt lat="46.71937" lon="-1.97144">
        <ele>9</ele>
        <time>2024-12-26T08:15:52.045Z</time>
      </trkpt>
      <trkpt lat="46.71936" lon="-1.97145">
        <ele>9</ele>
        <time>2024-12-26T08:15:53.046Z</time>
      </trkpt>
      <trkpt lat="46.71935" lon="-1.97146">
        <ele>9</ele>
        <time>2024-12-26T08:15:54.046Z</time>
      </trkpt>
      <trkpt lat="46.71934" lon="-1.97147">
        <ele>9</ele>
        <time>2024-12-26T08:15:55.046Z</time>
      </trkpt>
      <trkpt lat="46.71933" lon="-1.97149">
        <ele>9</ele>
        <time>2024-12-26T08:15:56.046Z</time>
      </trkpt>
      <trkpt lat="46.71933" lon="-1.9715">
        <ele>9</ele>
        <time>2024-12-26T08:15:57.046Z</time>
      </trkpt>
      <trkpt lat="46.71932" lon="-1.97151">
        <ele>9</ele>
        <time>2024-12-26T08:15:58.046Z</time>
      </trkpt>
      <trkpt lat="46.71932" lon="-1.97153">
        <ele>9</ele>
        <time>2024-12-26T08:15:59.045Z</time>
      </trkpt>
      <trkpt lat="46.71931" lon="-1.97154">
        <ele>9</ele>
        <time>2024-12-26T08:16:00.045Z</time>
      </trkpt>
      <trkpt lat="46.7193" lon="-1.97155">
        <ele>9</ele>
        <time>2024-12-26T08:16:01.045Z</time>
      </trkpt>
      <trkpt lat="46.71929" lon="-1.97157">
        <ele>9</ele>
        <time>2024-12-26T08:16:02.045Z</time>
      </trkpt>
      <trkpt lat="46.71928" lon="-1.97158">
        <ele>9</ele>
        <time>2024-12-26T08:16:03.045Z</time>
      </trkpt>
      <trkpt lat="46.71927" lon="-1.9716">
        <ele>9</ele>
        <time>2024-12-26T08:16:04.045Z</time>
      </trkpt>
      <trkpt lat="46.71926" lon="-1.97161">
        <ele>9</ele>
        <time>2024-12-26T08:16:05.046Z</time>
      </trkpt>
      <trkpt lat="46.71925" lon="-1.97162">
        <ele>9</ele>
        <time>2024-12-26T08:16:06.046Z</time>
      </trkpt>
      <trkpt lat="46.71924" lon="-1.97164">
        <ele>9</ele>
        <time>2024-12-26T08:16:07.046Z</time>
      </trkpt>
      <trkpt lat="46.71923" lon="-1.97166">
        <ele>9</ele>
        <time>2024-12-26T08:16:08.046Z</time>
      </trkpt>
      <trkpt lat="46.71922" lon="-1.97167">
        <ele>9</ele>
        <time>2024-12-26T08:16:09.045Z</time>
      </trkpt>
      <trkpt lat="46.71921" lon="-1.97168">
        <ele>8.9</ele>
        <time>2024-12-26T08:16:10.046Z</time>
      </trkpt>
      <trkpt lat="46.7192" lon="-1.97169">
        <ele>8.9</ele>
        <time>2024-12-26T08:16:11.046Z</time>
      </trkpt>
      <trkpt lat="46.71919" lon="-1.9717">
        <ele>8.9</ele>
        <time>2024-12-26T08:16:12.046Z</time>
      </trkpt>
      <trkpt lat="46.71918" lon="-1.97171">
        <ele>8.9</ele>
        <time>2024-12-26T08:16:13.046Z</time>
      </trkpt>
      <trkpt lat="46.71917" lon="-1.97172">
        <ele>8.8</ele>
        <time>2024-12-26T08:16:14.046Z</time>
      </trkpt>
      <trkpt lat="46.71916" lon="-1.97173">
        <ele>8.8</ele>
        <time>2024-12-26T08:16:15.046Z</time>
      </trkpt>
      <trkpt lat="46.71915" lon="-1.97174">
        <ele>8.7</ele>
        <time>2024-12-26T08:16:16.046Z</time>
      </trkpt>
      <trkpt lat="46.71913" lon="-1.97175">
        <ele>8.7</ele>
        <time>2024-12-26T08:16:17.046Z</time>
      </trkpt>
      <trkpt lat="46.71912" lon="-1.97175">
        <ele>8.7</ele>
        <time>2024-12-26T08:16:18.045Z</time>
      </trkpt>
      <trkpt lat="46.71911" lon="-1.97176">
        <ele>8.7</ele>
        <time>2024-12-26T08:16:19.045Z</time>
      </trkpt>
      <trkpt lat="46.71909" lon="-1.97176">
        <ele>8.8</ele>
        <time>2024-12-26T08:16:20.045Z</time>
      </trkpt>
      <trkpt lat="46.71907" lon="-1.97177">
        <ele>8.8</ele>
        <time>2024-12-26T08:16:21.045Z</time>
      </trkpt>
      <trkpt lat="46.71905" lon="-1.97179">
        <ele>8.7</ele>
        <time>2024-12-26T08:16:22.045Z</time>
      </trkpt>
      <trkpt lat="46.71904" lon="-1.97181">
        <ele>8.7</ele>
        <time>2024-12-26T08:16:23.046Z</time>
      </trkpt>
      <trkpt lat="46.71903" lon="-1.97183">
        <ele>8.7</ele>
        <time>2024-12-26T08:16:24.046Z</time>
      </trkpt>
      <trkpt lat="46.71903" lon="-1.97184">
        <ele>8.7</ele>
        <time>2024-12-26T08:16:25.046Z</time>
      </trkpt>
      <trkpt lat="46.71902" lon="-1.97186">
        <ele>8.7</ele>
        <time>2024-12-26T08:16:26.045Z</time>
      </trkpt>
      <trkpt lat="46.71901" lon="-1.97188">
        <ele>8.7</ele>
        <time>2024-12-26T08:16:27.045Z</time>
      </trkpt>
      <trkpt lat="46.71901" lon="-1.9719">
        <ele>8.6</ele>
        <time>2024-12-26T08:16:28.046Z</time>
      </trkpt>
      <trkpt lat="46.71901" lon="-1.97192">
        <ele>8.6</ele>
        <time>2024-12-26T08:16:29.045Z</time>
      </trkpt>
      <trkpt lat="46.719" lon="-1.97194">
        <ele>8.6</ele>
        <time>2024-12-26T08:16:30.045Z</time>
      </trkpt>
      <trkpt lat="46.719" lon="-1.97197">
        <ele>8.6</ele>
        <time>2024-12-26T08:16:31.045Z</time>
      </trkpt>
      <trkpt lat="46.719" lon="-1.97198">
        <ele>8.6</ele>
        <time>2024-12-26T08:16:32.045Z</time>
      </trkpt>
      <trkpt lat="46.719" lon="-1.972">
        <ele>8.7</ele>
        <time>2024-12-26T08:16:33.046Z</time>
      </trkpt>
      <trkpt lat="46.719" lon="-1.97201">
        <ele>8.7</ele>
        <time>2024-12-26T08:16:34.046Z</time>
      </trkpt>
      <trkpt lat="46.71898" lon="-1.97202">
        <ele>8.8</ele>
        <time>2024-12-26T08:16:35.046Z</time>
      </trkpt>
      <trkpt lat="46.71896" lon="-1.97202">
        <ele>8.8</ele>
        <time>2024-12-26T08:16:36.046Z</time>
      </trkpt>
      <trkpt lat="46.71895" lon="-1.97204">
        <ele>8.9</ele>
        <time>2024-12-26T08:16:37.046Z</time>
      </trkpt>
      <trkpt lat="46.71894" lon="-1.97206">
        <ele>8.9</ele>
        <time>2024-12-26T08:16:38.046Z</time>
      </trkpt>
      <trkpt lat="46.71892" lon="-1.97208">
        <ele>8.9</ele>
        <time>2024-12-26T08:16:39.046Z</time>
      </trkpt>
      <trkpt lat="46.71891" lon="-1.9721">
        <ele>9</ele>
        <time>2024-12-26T08:16:40.045Z</time>
      </trkpt>
      <trkpt lat="46.71891" lon="-1.97213">
        <ele>9</ele>
        <time>2024-12-26T08:16:41.045Z</time>
      </trkpt>
      <trkpt lat="46.7189" lon="-1.97214">
        <ele>9</ele>
        <time>2024-12-26T08:16:42.045Z</time>
      </trkpt>
      <trkpt lat="46.71889" lon="-1.97216">
        <ele>9</ele>
        <time>2024-12-26T08:16:43.045Z</time>
      </trkpt>
      <trkpt lat="46.71889" lon="-1.97217">
        <ele>9</ele>
        <time>2024-12-26T08:16:44.045Z</time>
      </trkpt>
      <trkpt lat="46.71888" lon="-1.97217">
        <ele>9</ele>
        <time>2024-12-26T08:16:45.045Z</time>
      </trkpt>
      <trkpt lat="46.71887" lon="-1.97219">
        <ele>9</ele>
        <time>2024-12-26T08:16:46.046Z</time>
      </trkpt>
      <trkpt lat="46.71885" lon="-1.97221">
        <ele>9</ele>
        <time>2024-12-26T08:16:47.045Z</time>
      </trkpt>
      <trkpt lat="46.71884" lon="-1.97224">
        <ele>9</ele>
        <time>2024-12-26T08:16:48.045Z</time>
      </trkpt>
      <trkpt lat="46.71883" lon="-1.97226">
        <ele>9</ele>
        <time>2024-12-26T08:16:49.046Z</time>
      </trkpt>
      <trkpt lat="46.71881" lon="-1.97226">
        <ele>9</ele>
        <time>2024-12-26T08:16:50.046Z</time>
      </trkpt>
      <trkpt lat="46.71879" lon="-1.97226">
        <ele>9</ele>
        <time>2024-12-26T08:16:51.046Z</time>
      </trkpt>
      <trkpt lat="46.71878" lon="-1.97227">
        <ele>9</ele>
        <time>2024-12-26T08:16:52.046Z</time>
      </trkpt>
      <trkpt lat="46.71877" lon="-1.97228">
        <ele>9</ele>
        <time>2024-12-26T08:16:53.045Z</time>
      </trkpt>
      <trkpt lat="46.71876" lon="-1.97229">
        <ele>9</ele>
        <time>2024-12-26T08:16:54.045Z</time>
      </trkpt>
      <trkpt lat="46.71875" lon="-1.9723">
        <ele>9</ele>
        <time>2024-12-26T08:16:55.045Z</time>
      </trkpt>
      <trkpt lat="46.71875" lon="-1.97231">
        <ele>9</ele>
        <time>2024-12-26T08:16:56.045Z</time>
      </trkpt>
      <trkpt lat="46.71874" lon="-1.97232">
        <ele>9</ele>
        <time>2024-12-26T08:16:57.045Z</time>
      </trkpt>
      <trkpt lat="46.71873" lon="-1.97233">
        <ele>9</ele>
        <time>2024-12-26T08:16:58.045Z</time>
      </trkpt>
      <trkpt lat="46.71872" lon="-1.97235">
        <ele>9</ele>
        <time>2024-12-26T08:16:59.045Z</time>
      </trkpt>
      <trkpt lat="46.71871" lon="-1.97236">
        <ele>9</ele>
        <time>2024-12-26T08:17:00.046Z</time>
      </trkpt>
      <trkpt lat="46.7187" lon="-1.97237">
        <ele>9</ele>
        <time>2024-12-26T08:17:01.046Z</time>
      </trkpt>
      <trkpt lat="46.71869" lon="-1.97238">
        <ele>9</ele>
        <time>2024-12-26T08:17:02.046Z</time>
      </trkpt>
      <trkpt lat="46.71868" lon="-1.9724">
        <ele>9</ele>
        <time>2024-12-26T08:17:03.045Z</time>
      </trkpt>
      <trkpt lat="46.71867" lon="-1.97241">
        <ele>9</ele>
        <time>2024-12-26T08:17:04.045Z</time>
      </trkpt>
      <trkpt lat="46.71866" lon="-1.97243">
        <ele>9</ele>
        <time>2024-12-26T08:17:05.045Z</time>
      </trkpt>
      <trkpt lat="46.71865" lon="-1.97245">
        <ele>9</ele>
        <time>2024-12-26T08:17:06.045Z</time>
      </trkpt>
      <trkpt lat="46.71865" lon="-1.97246">
        <ele>9</ele>
        <time>2024-12-26T08:17:07.045Z</time>
      </trkpt>
      <trkpt lat="46.71864" lon="-1.97248">
        <ele>9</ele>
        <time>2024-12-26T08:17:08.046Z</time>
      </trkpt>
      <trkpt lat="46.71863" lon="-1.97249">
        <ele>9</ele>
        <time>2024-12-26T08:17:09.045Z</time>
      </trkpt>
      <trkpt lat="46.71863" lon="-1.97251">
        <ele>9</ele>
        <time>2024-12-26T08:17:10.046Z</time>
      </trkpt>
      <trkpt lat="46.71862" lon="-1.97252">
        <ele>9</ele>
        <time>2024-12-26T08:17:11.046Z</time>
      </trkpt>
      <trkpt lat="46.71861" lon="-1.97253">
        <ele>9</ele>
        <time>2024-12-26T08:17:12.046Z</time>
      </trkpt>
      <trkpt lat="46.7186" lon="-1.97254">
        <ele>9</ele>
        <time>2024-12-26T08:17:13.046Z</time>
      </trkpt>
      <trkpt lat="46.71859" lon="-1.97256">
        <ele>9</ele>
        <time>2024-12-26T08:17:14.046Z</time>
      </trkpt>
      <trkpt lat="46.71858" lon="-1.97257">
        <ele>9</ele>
        <time>2024-12-26T08:17:15.046Z</time>
      </trkpt>
      <trkpt lat="46.71857" lon="-1.97258">
        <ele>9</ele>
        <time>2024-12-26T08:17:16.046Z</time>
      </trkpt>
      <trkpt lat="46.71856" lon="-1.9726">
        <ele>9</ele>
        <time>2024-12-26T08:17:17.045Z</time>
      </trkpt>
      <trkpt lat="46.71856" lon="-1.97261">
        <ele>9</ele>
        <time>2024-12-26T08:17:18.045Z</time>
      </trkpt>
      <trkpt lat="46.71855" lon="-1.97262">
        <ele>9</ele>
        <time>2024-12-26T08:17:19.046Z</time>
      </trkpt>
      <trkpt lat="46.71854" lon="-1.97263">
        <ele>9</ele>
        <time>2024-12-26T08:17:20.045Z</time>
      </trkpt>
      <trkpt lat="46.71853" lon="-1.97264">
        <ele>9</ele>
        <time>2024-12-26T08:17:21.045Z</time>
      </trkpt>
      <trkpt lat="46.71852" lon="-1.97266">
        <ele>9</ele>
        <time>2024-12-26T08:17:22.045Z</time>
      </trkpt>
      <trkpt lat="46.71852" lon="-1.97267">
        <ele>9</ele>
        <time>2024-12-26T08:17:23.045Z</time>
      </trkpt>
      <trkpt lat="46.71851" lon="-1.97268">
        <ele>9</ele>
        <time>2024-12-26T08:17:24.045Z</time>
      </trkpt>
      <trkpt lat="46.7185" lon="-1.9727">
        <ele>9</ele>
        <time>2024-12-26T08:17:25.045Z</time>
      </trkpt>
      <trkpt lat="46.71849" lon="-1.97271">
        <ele>9</ele>
        <time>2024-12-26T08:17:26.045Z</time>
      </trkpt>
      <trkpt lat="46.71847" lon="-1.97273">
        <ele>9</ele>
        <time>2024-12-26T08:17:27.046Z</time>
      </trkpt>
      <trkpt lat="46.71846" lon="-1.97274">
        <ele>9</ele>
        <time>2024-12-26T08:17:28.045Z</time>
      </trkpt>
      <trkpt lat="46.71845" lon="-1.97275">
        <ele>9</ele>
        <time>2024-12-26T08:17:29.045Z</time>
      </trkpt>
      <trkpt lat="46.71844" lon="-1.97276">
        <ele>9</ele>
        <time>2024-12-26T08:17:30.046Z</time>
      </trkpt>
      <trkpt lat="46.71844" lon="-1.97277">
        <ele>9</ele>
        <time>2024-12-26T08:17:31.046Z</time>
      </trkpt>
      <trkpt lat="46.71843" lon="-1.97279">
        <ele>9</ele>
        <time>2024-12-26T08:17:32.046Z</time>
      </trkpt>
      <trkpt lat="46.71841" lon="-1.9728">
        <ele>8.9</ele>
        <time>2024-12-26T08:17:33.045Z</time>
      </trkpt>
      <trkpt lat="46.7184" lon="-1.97282">
        <ele>8.9</ele>
        <time>2024-12-26T08:17:34.045Z</time>
      </trkpt>
      <trkpt lat="46.71839" lon="-1.97283">
        <ele>8.8</ele>
        <time>2024-12-26T08:17:35.045Z</time>
      </trkpt>
      <trkpt lat="46.71839" lon="-1.97285">
        <ele>8.8</ele>
        <time>2024-12-26T08:17:36.045Z</time>
      </trkpt>
      <trkpt lat="46.71838" lon="-1.97286">
        <ele>8.7</ele>
        <time>2024-12-26T08:17:37.045Z</time>
      </trkpt>
      <trkpt lat="46.71837" lon="-1.97288">
        <ele>8.6</ele>
        <time>2024-12-26T08:17:38.045Z</time>
      </trkpt>
      <trkpt lat="46.71836" lon="-1.9729">
        <ele>8.6</ele>
        <time>2024-12-26T08:17:39.046Z</time>
      </trkpt>
      <trkpt lat="46.71835" lon="-1.97291">
        <ele>8.5</ele>
        <time>2024-12-26T08:17:40.046Z</time>
      </trkpt>
      <trkpt lat="46.71835" lon="-1.97293">
        <ele>8.5</ele>
        <time>2024-12-26T08:17:41.046Z</time>
      </trkpt>
      <trkpt lat="46.71834" lon="-1.97294">
        <ele>8.4</ele>
        <time>2024-12-26T08:17:42.046Z</time>
      </trkpt>
      <trkpt lat="46.71833" lon="-1.97296">
        <ele>8.4</ele>
        <time>2024-12-26T08:17:43.046Z</time>
      </trkpt>
      <trkpt lat="46.71832" lon="-1.97297">
        <ele>8.3</ele>
        <time>2024-12-26T08:17:44.046Z</time>
      </trkpt>
      <trkpt lat="46.71832" lon="-1.97298">
        <ele>8.3</ele>
        <time>2024-12-26T08:17:45.045Z</time>
      </trkpt>
      <trkpt lat="46.71831" lon="-1.97299">
        <ele>8.3</ele>
        <time>2024-12-26T08:17:46.045Z</time>
      </trkpt>
      <trkpt lat="46.7183" lon="-1.973">
        <ele>8.3</ele>
        <time>2024-12-26T08:17:47.045Z</time>
      </trkpt>
      <trkpt lat="46.71829" lon="-1.97302">
        <ele>8.3</ele>
        <time>2024-12-26T08:17:48.045Z</time>
      </trkpt>
      <trkpt lat="46.71828" lon="-1.97303">
        <ele>8.3</ele>
        <time>2024-12-26T08:17:49.045Z</time>
      </trkpt>
      <trkpt lat="46.71827" lon="-1.97305">
        <ele>8.3</ele>
        <time>2024-12-26T08:17:50.046Z</time>
      </trkpt>
      <trkpt lat="46.71826" lon="-1.97306">
        <ele>8.2</ele>
        <time>2024-12-26T08:17:51.046Z</time>
      </trkpt>
      <trkpt lat="46.71825" lon="-1.97308">
        <ele>8.2</ele>
        <time>2024-12-26T08:17:52.046Z</time>
      </trkpt>
      <trkpt lat="46.71824" lon="-1.97309">
        <ele>8.2</ele>
        <time>2024-12-26T08:17:53.046Z</time>
      </trkpt>
      <trkpt lat="46.71823" lon="-1.9731">
        <ele>8.2</ele>
        <time>2024-12-26T08:17:54.046Z</time>
      </trkpt>
      <trkpt lat="46.71822" lon="-1.97311">
        <ele>8.2</ele>
        <time>2024-12-26T08:17:55.045Z</time>
      </trkpt>
      <trkpt lat="46.7182" lon="-1.97312">
        <ele>8.3</ele>
        <time>2024-12-26T08:17:56.045Z</time>
      </trkpt>
      <trkpt lat="46.71818" lon="-1.97313">
        <ele>8.3</ele>
        <time>2024-12-26T08:17:57.045Z</time>
      </trkpt>
      <trkpt lat="46.71818" lon="-1.97315">
        <ele>8.2</ele>
        <time>2024-12-26T08:17:58.045Z</time>
      </trkpt>
      <trkpt lat="46.71817" lon="-1.97317">
        <ele>8.2</ele>
        <time>2024-12-26T08:17:59.045Z</time>
      </trkpt>
      <trkpt lat="46.71817" lon="-1.97318">
        <ele>8.2</ele>
        <time>2024-12-26T08:18:00.045Z</time>
      </trkpt>
      <trkpt lat="46.71817" lon="-1.9732">
        <ele>8.1</ele>
        <time>2024-12-26T08:18:01.045Z</time>
      </trkpt>
      <trkpt lat="46.71818" lon="-1.97325">
        <ele>7.9</ele>
        <time>2024-12-26T08:18:02.045Z</time>
      </trkpt>
      <trkpt lat="46.71818" lon="-1.97326">
        <ele>7.8</ele>
        <time>2024-12-26T08:18:03.046Z</time>
      </trkpt>
      <trkpt lat="46.71818" lon="-1.97328">
        <ele>7.8</ele>
        <time>2024-12-26T08:18:04.045Z</time>
      </trkpt>
      <trkpt lat="46.71818" lon="-1.9733">
        <ele>7.7</ele>
        <time>2024-12-26T08:18:05.045Z</time>
      </trkpt>
      <trkpt lat="46.71817" lon="-1.97332">
        <ele>7.6</ele>
        <time>2024-12-26T08:18:06.046Z</time>
      </trkpt>
      <trkpt lat="46.71816" lon="-1.97334">
        <ele>7.6</ele>
        <time>2024-12-26T08:18:07.045Z</time>
      </trkpt>
      <trkpt lat="46.71815" lon="-1.97336">
        <ele>7.6</ele>
        <time>2024-12-26T08:18:08.045Z</time>
      </trkpt>
      <trkpt lat="46.71815" lon="-1.97337">
        <ele>7.7</ele>
        <time>2024-12-26T08:18:09.046Z</time>
      </trkpt>
      <trkpt lat="46.71813" lon="-1.97338">
        <ele>7.7</ele>
        <time>2024-12-26T08:18:10.045Z</time>
      </trkpt>
      <trkpt lat="46.71812" lon="-1.9734">
        <ele>7.8</ele>
        <time>2024-12-26T08:18:11.046Z</time>
      </trkpt>
      <trkpt lat="46.71812" lon="-1.97342">
        <ele>7.8</ele>
        <time>2024-12-26T08:18:12.046Z</time>
      </trkpt>
      <trkpt lat="46.71811" lon="-1.97344">
        <ele>7.8</ele>
        <time>2024-12-26T08:18:13.045Z</time>
      </trkpt>
      <trkpt lat="46.7181" lon="-1.97345">
        <ele>7.8</ele>
        <time>2024-12-26T08:18:14.046Z</time>
      </trkpt>
      <trkpt lat="46.7181" lon="-1.97347">
        <ele>7.8</ele>
        <time>2024-12-26T08:18:15.045Z</time>
      </trkpt>
      <trkpt lat="46.7181" lon="-1.97349">
        <ele>7.9</ele>
        <time>2024-12-26T08:18:16.045Z</time>
      </trkpt>
      <trkpt lat="46.71809" lon="-1.97351">
        <ele>7.9</ele>
        <time>2024-12-26T08:18:17.045Z</time>
      </trkpt>
      <trkpt lat="46.71808" lon="-1.97352">
        <ele>7.9</ele>
        <time>2024-12-26T08:18:18.045Z</time>
      </trkpt>
      <trkpt lat="46.71807" lon="-1.97354">
        <ele>8</ele>
        <time>2024-12-26T08:18:19.045Z</time>
      </trkpt>
      <trkpt lat="46.71805" lon="-1.97356">
        <ele>8</ele>
        <time>2024-12-26T08:18:20.046Z</time>
      </trkpt>
      <trkpt lat="46.71804" lon="-1.97358">
        <ele>8.1</ele>
        <time>2024-12-26T08:18:21.046Z</time>
      </trkpt>
      <trkpt lat="46.71803" lon="-1.97359">
        <ele>8.1</ele>
        <time>2024-12-26T08:18:22.046Z</time>
      </trkpt>
      <trkpt lat="46.71802" lon="-1.9736">
        <ele>8.1</ele>
        <time>2024-12-26T08:18:23.046Z</time>
      </trkpt>
      <trkpt lat="46.71801" lon="-1.97362">
        <ele>8.2</ele>
        <time>2024-12-26T08:18:24.046Z</time>
      </trkpt>
      <trkpt lat="46.71801" lon="-1.97364">
        <ele>8.2</ele>
        <time>2024-12-26T08:18:25.046Z</time>
      </trkpt>
      <trkpt lat="46.718" lon="-1.97366">
        <ele>8.2</ele>
        <time>2024-12-26T08:18:26.045Z</time>
      </trkpt>
      <trkpt lat="46.718" lon="-1.97368">
        <ele>8.2</ele>
        <time>2024-12-26T08:18:27.046Z</time>
      </trkpt>
      <trkpt lat="46.718" lon="-1.9737">
        <ele>8.2</ele>
        <time>2024-12-26T08:18:28.046Z</time>
      </trkpt>
      <trkpt lat="46.71799" lon="-1.97372">
        <ele>8.2</ele>
        <time>2024-12-26T08:18:29.046Z</time>
      </trkpt>
      <trkpt lat="46.71798" lon="-1.97374">
        <ele>8.3</ele>
        <time>2024-12-26T08:18:30.045Z</time>
      </trkpt>
      <trkpt lat="46.71797" lon="-1.97376">
        <ele>8.3</ele>
        <time>2024-12-26T08:18:31.045Z</time>
      </trkpt>
      <trkpt lat="46.71797" lon="-1.97376">
        <ele>8.3</ele>
        <time>2024-12-26T08:18:32.046Z</time>
      </trkpt>
      <trkpt lat="46.71797" lon="-1.97378">
        <ele>8.3</ele>
        <time>2024-12-26T08:18:33.045Z</time>
      </trkpt>
      <trkpt lat="46.71795" lon="-1.97379">
        <ele>8.4</ele>
        <time>2024-12-26T08:18:34.045Z</time>
      </trkpt>
      <trkpt lat="46.71794" lon="-1.9738">
        <ele>8.4</ele>
        <time>2024-12-26T08:18:35.046Z</time>
      </trkpt>
      <trkpt lat="46.71793" lon="-1.97381">
        <ele>8.5</ele>
        <time>2024-12-26T08:18:36.045Z</time>
      </trkpt>
      <trkpt lat="46.71792" lon="-1.97383">
        <ele>8.5</ele>
        <time>2024-12-26T08:18:37.045Z</time>
      </trkpt>
      <trkpt lat="46.71791" lon="-1.97385">
        <ele>8.5</ele>
        <time>2024-12-26T08:18:38.045Z</time>
      </trkpt>
      <trkpt lat="46.71791" lon="-1.97387">
        <ele>8.5</ele>
        <time>2024-12-26T08:18:39.046Z</time>
      </trkpt>
      <trkpt lat="46.7179" lon="-1.97389">
        <ele>8.6</ele>
        <time>2024-12-26T08:18:40.046Z</time>
      </trkpt>
      <trkpt lat="46.71789" lon="-1.9739">
        <ele>8.6</ele>
        <time>2024-12-26T08:18:41.046Z</time>
      </trkpt>
      <trkpt lat="46.71788" lon="-1.97392">
        <ele>8.6</ele>
        <time>2024-12-26T08:18:42.046Z</time>
      </trkpt>
      <trkpt lat="46.71788" lon="-1.97393">
        <ele>8.5</ele>
        <time>2024-12-26T08:18:43.046Z</time>
      </trkpt>
      <trkpt lat="46.71787" lon="-1.97395">
        <ele>8.5</ele>
        <time>2024-12-26T08:18:44.046Z</time>
      </trkpt>
      <trkpt lat="46.71787" lon="-1.97397">
        <ele>8.5</ele>
        <time>2024-12-26T08:18:45.045Z</time>
      </trkpt>
      <trkpt lat="46.71786" lon="-1.97398">
        <ele>8.5</ele>
        <time>2024-12-26T08:18:46.045Z</time>
      </trkpt>
      <trkpt lat="46.71786" lon="-1.974">
        <ele>8.4</ele>
        <time>2024-12-26T08:18:47.045Z</time>
      </trkpt>
      <trkpt lat="46.71785" lon="-1.97402">
        <ele>8.4</ele>
        <time>2024-12-26T08:18:48.046Z</time>
      </trkpt>
      <trkpt lat="46.71785" lon="-1.97403">
        <ele>8.4</ele>
        <time>2024-12-26T08:18:49.045Z</time>
      </trkpt>
      <trkpt lat="46.71784" lon="-1.97404">
        <ele>8.4</ele>
        <time>2024-12-26T08:18:50.045Z</time>
      </trkpt>
      <trkpt lat="46.71784" lon="-1.97405">
        <ele>8.3</ele>
        <time>2024-12-26T08:18:51.045Z</time>
      </trkpt>
      <trkpt lat="46.71783" lon="-1.97408">
        <ele>8.3</ele>
        <time>2024-12-26T08:18:52.045Z</time>
      </trkpt>
      <trkpt lat="46.71782" lon="-1.9741">
        <ele>8.2</ele>
        <time>2024-12-26T08:18:53.045Z</time>
      </trkpt>
      <trkpt lat="46.71781" lon="-1.97412">
        <ele>8.2</ele>
        <time>2024-12-26T08:18:54.045Z</time>
      </trkpt>
      <trkpt lat="46.7178" lon="-1.97413">
        <ele>8.1</ele>
        <time>2024-12-26T08:18:55.046Z</time>
      </trkpt>
      <trkpt lat="46.71779" lon="-1.97414">
        <ele>8.1</ele>
        <time>2024-12-26T08:18:56.046Z</time>
      </trkpt>
      <trkpt lat="46.71778" lon="-1.97414">
        <ele>8.1</ele>
        <time>2024-12-26T08:18:57.045Z</time>
      </trkpt>
      <trkpt lat="46.71777" lon="-1.97415">
        <ele>8.1</ele>
        <time>2024-12-26T08:18:58.045Z</time>
      </trkpt>
      <trkpt lat="46.71777" lon="-1.97417">
        <ele>8.1</ele>
        <time>2024-12-26T08:18:59.045Z</time>
      </trkpt>
      <trkpt lat="46.71777" lon="-1.9742">
        <ele>8.1</ele>
        <time>2024-12-26T08:19:00.045Z</time>
      </trkpt>
      <trkpt lat="46.71777" lon="-1.97422">
        <ele>8.2</ele>
        <time>2024-12-26T08:19:01.045Z</time>
      </trkpt>
      <trkpt lat="46.71776" lon="-1.97424">
        <ele>8.3</ele>
        <time>2024-12-26T08:19:02.046Z</time>
      </trkpt>
      <trkpt lat="46.71776" lon="-1.97426">
        <ele>8.4</ele>
        <time>2024-12-26T08:19:03.046Z</time>
      </trkpt>
      <trkpt lat="46.71775" lon="-1.97428">
        <ele>8.4</ele>
        <time>2024-12-26T08:19:04.046Z</time>
      </trkpt>
      <trkpt lat="46.71775" lon="-1.97429">
        <ele>8.5</ele>
        <time>2024-12-26T08:19:05.046Z</time>
      </trkpt>
      <trkpt lat="46.71774" lon="-1.97431">
        <ele>8.6</ele>
        <time>2024-12-26T08:19:06.046Z</time>
      </trkpt>
      <trkpt lat="46.71773" lon="-1.97433">
        <ele>8.7</ele>
        <time>2024-12-26T08:19:07.045Z</time>
      </trkpt>
      <trkpt lat="46.71771" lon="-1.97434">
        <ele>8.7</ele>
        <time>2024-12-26T08:19:08.046Z</time>
      </trkpt>
      <trkpt lat="46.71771" lon="-1.97436">
        <ele>8.8</ele>
        <time>2024-12-26T08:19:09.045Z</time>
      </trkpt>
      <trkpt lat="46.7177" lon="-1.97438">
        <ele>8.8</ele>
        <time>2024-12-26T08:19:10.046Z</time>
      </trkpt>
      <trkpt lat="46.7177" lon="-1.9744">
        <ele>8.9</ele>
        <time>2024-12-26T08:19:11.045Z</time>
      </trkpt>
      <trkpt lat="46.7177" lon="-1.97441">
        <ele>8.9</ele>
        <time>2024-12-26T08:19:12.045Z</time>
      </trkpt>
      <trkpt lat="46.71769" lon="-1.97443">
        <ele>9</ele>
        <time>2024-12-26T08:19:13.045Z</time>
      </trkpt>
      <trkpt lat="46.71768" lon="-1.97444">
        <ele>9</ele>
        <time>2024-12-26T08:19:14.046Z</time>
      </trkpt>
      <trkpt lat="46.71767" lon="-1.97446">
        <ele>9</ele>
        <time>2024-12-26T08:19:15.046Z</time>
      </trkpt>
      <trkpt lat="46.71767" lon="-1.97448">
        <ele>9</ele>
        <time>2024-12-26T08:19:16.046Z</time>
      </trkpt>
      <trkpt lat="46.71767" lon="-1.9745">
        <ele>9</ele>
        <time>2024-12-26T08:19:17.046Z</time>
      </trkpt>
      <trkpt lat="46.71766" lon="-1.97452">
        <ele>9</ele>
        <time>2024-12-26T08:19:18.046Z</time>
      </trkpt>
      <trkpt lat="46.71765" lon="-1.97454">
        <ele>9</ele>
        <time>2024-12-26T08:19:19.046Z</time>
      </trkpt>
      <trkpt lat="46.71764" lon="-1.97456">
        <ele>9</ele>
        <time>2024-12-26T08:19:20.046Z</time>
      </trkpt>
      <trkpt lat="46.71764" lon="-1.97458">
        <ele>9</ele>
        <time>2024-12-26T08:19:21.045Z</time>
      </trkpt>
      <trkpt lat="46.71763" lon="-1.97459">
        <ele>9</ele>
        <time>2024-12-26T08:19:22.046Z</time>
      </trkpt>
      <trkpt lat="46.71762" lon="-1.97461">
        <ele>8.9</ele>
        <time>2024-12-26T08:19:23.046Z</time>
      </trkpt>
      <trkpt lat="46.71761" lon="-1.97462">
        <ele>8.9</ele>
        <time>2024-12-26T08:19:24.046Z</time>
      </trkpt>
      <trkpt lat="46.71761" lon="-1.97463">
        <ele>8.8</ele>
        <time>2024-12-26T08:19:25.045Z</time>
      </trkpt>
      <trkpt lat="46.71761" lon="-1.97464">
        <ele>8.8</ele>
        <time>2024-12-26T08:19:26.046Z</time>
      </trkpt>
      <trkpt lat="46.7176" lon="-1.97466">
        <ele>8.8</ele>
        <time>2024-12-26T08:19:27.045Z</time>
      </trkpt>
      <trkpt lat="46.71759" lon="-1.97468">
        <ele>8.7</ele>
        <time>2024-12-26T08:19:28.045Z</time>
      </trkpt>
      <trkpt lat="46.71758" lon="-1.97469">
        <ele>8.6</ele>
        <time>2024-12-26T08:19:29.045Z</time>
      </trkpt>
      <trkpt lat="46.71757" lon="-1.9747">
        <ele>8.5</ele>
        <time>2024-12-26T08:19:30.046Z</time>
      </trkpt>
      <trkpt lat="46.71756" lon="-1.97471">
        <ele>8.5</ele>
        <time>2024-12-26T08:19:31.045Z</time>
      </trkpt>
      <trkpt lat="46.71755" lon="-1.97472">
        <ele>8.3</ele>
        <time>2024-12-26T08:19:32.045Z</time>
      </trkpt>
      <trkpt lat="46.71753" lon="-1.97474">
        <ele>8.1</ele>
        <time>2024-12-26T08:19:33.046Z</time>
      </trkpt>
      <trkpt lat="46.71752" lon="-1.97476">
        <ele>7.9</ele>
        <time>2024-12-26T08:19:34.045Z</time>
      </trkpt>
      <trkpt lat="46.71752" lon="-1.97478">
        <ele>7.7</ele>
        <time>2024-12-26T08:19:35.045Z</time>
      </trkpt>
      <trkpt lat="46.71751" lon="-1.9748">
        <ele>7.6</ele>
        <time>2024-12-26T08:19:36.045Z</time>
      </trkpt>
      <trkpt lat="46.71751" lon="-1.97482">
        <ele>7.4</ele>
        <time>2024-12-26T08:19:37.046Z</time>
      </trkpt>
      <trkpt lat="46.71751" lon="-1.97483">
        <ele>7.2</ele>
        <time>2024-12-26T08:19:38.045Z</time>
      </trkpt>
      <trkpt lat="46.71749" lon="-1.97485">
        <ele>7.1</ele>
        <time>2024-12-26T08:19:39.046Z</time>
      </trkpt>
      <trkpt lat="46.71748" lon="-1.97486">
        <ele>7</ele>
        <time>2024-12-26T08:19:40.046Z</time>
      </trkpt>
      <trkpt lat="46.71748" lon="-1.97488">
        <ele>6.9</ele>
        <time>2024-12-26T08:19:41.046Z</time>
      </trkpt>
      <trkpt lat="46.71748" lon="-1.97489">
        <ele>6.9</ele>
        <time>2024-12-26T08:19:42.046Z</time>
      </trkpt>
      <trkpt lat="46.71747" lon="-1.9749">
        <ele>6.8</ele>
        <time>2024-12-26T08:19:43.045Z</time>
      </trkpt>
      <trkpt lat="46.71748" lon="-1.97492">
        <ele>6.6</ele>
        <time>2024-12-26T08:19:44.046Z</time>
      </trkpt>
      <trkpt lat="46.71748" lon="-1.97494">
        <ele>6.5</ele>
        <time>2024-12-26T08:19:45.045Z</time>
      </trkpt>
      <trkpt lat="46.71749" lon="-1.97495">
        <ele>6.3</ele>
        <time>2024-12-26T08:19:46.045Z</time>
      </trkpt>
      <trkpt lat="46.71749" lon="-1.97497">
        <ele>6.2</ele>
        <time>2024-12-26T08:19:47.046Z</time>
      </trkpt>
      <trkpt lat="46.71748" lon="-1.97499">
        <ele>6.1</ele>
        <time>2024-12-26T08:19:48.046Z</time>
      </trkpt>
      <trkpt lat="46.71748" lon="-1.97501">
        <ele>6</ele>
        <time>2024-12-26T08:19:49.046Z</time>
      </trkpt>
      <trkpt lat="46.71746" lon="-1.97503">
        <ele>5.9</ele>
        <time>2024-12-26T08:19:50.046Z</time>
      </trkpt>
      <trkpt lat="46.71745" lon="-1.97506">
        <ele>5.8</ele>
        <time>2024-12-26T08:19:51.045Z</time>
      </trkpt>
      <trkpt lat="46.71744" lon="-1.97509">
        <ele>5.8</ele>
        <time>2024-12-26T08:19:52.045Z</time>
      </trkpt>
      <trkpt lat="46.71744" lon="-1.97512">
        <ele>5.7</ele>
        <time>2024-12-26T08:19:53.045Z</time>
      </trkpt>
      <trkpt lat="46.71743" lon="-1.97514">
        <ele>5.6</ele>
        <time>2024-12-26T08:19:54.045Z</time>
      </trkpt>
      <trkpt lat="46.71743" lon="-1.97516">
        <ele>5.6</ele>
        <time>2024-12-26T08:19:55.046Z</time>
      </trkpt>
      <trkpt lat="46.71742" lon="-1.97518">
        <ele>5.5</ele>
        <time>2024-12-26T08:19:56.046Z</time>
      </trkpt>
      <trkpt lat="46.71742" lon="-1.9752">
        <ele>5.5</ele>
        <time>2024-12-26T08:19:57.046Z</time>
      </trkpt>
      <trkpt lat="46.7174" lon="-1.97521">
        <ele>5.5</ele>
        <time>2024-12-26T08:19:58.045Z</time>
      </trkpt>
      <trkpt lat="46.71739" lon="-1.97524">
        <ele>5.5</ele>
        <time>2024-12-26T08:19:59.045Z</time>
      </trkpt>
      <trkpt lat="46.71738" lon="-1.97526">
        <ele>5.5</ele>
        <time>2024-12-26T08:20:00.045Z</time>
      </trkpt>
      <trkpt lat="46.71738" lon="-1.97528">
        <ele>5.5</ele>
        <time>2024-12-26T08:20:01.045Z</time>
      </trkpt>
      <trkpt lat="46.71737" lon="-1.9753">
        <ele>5.5</ele>
        <time>2024-12-26T08:20:02.045Z</time>
      </trkpt>
      <trkpt lat="46.71738" lon="-1.9753">
        <ele>5.5</ele>
        <time>2024-12-26T08:20:03.045Z</time>
      </trkpt>
      <trkpt lat="46.71737" lon="-1.97531">
        <ele>5.5</ele>
        <time>2024-12-26T08:20:04.046Z</time>
      </trkpt>
      <trkpt lat="46.71736" lon="-1.97533">
        <ele>5.5</ele>
        <time>2024-12-26T08:20:05.046Z</time>
      </trkpt>
      <trkpt lat="46.71736" lon="-1.97536">
        <ele>5.5</ele>
        <time>2024-12-26T08:20:06.046Z</time>
      </trkpt>
      <trkpt lat="46.71736" lon="-1.97537">
        <ele>5.5</ele>
        <time>2024-12-26T08:20:07.045Z</time>
      </trkpt>
      <trkpt lat="46.71736" lon="-1.97538">
        <ele>5.5</ele>
        <time>2024-12-26T08:20:08.046Z</time>
      </trkpt>
      <trkpt lat="46.71735" lon="-1.97539">
        <ele>5.5</ele>
        <time>2024-12-26T08:20:09.046Z</time>
      </trkpt>
      <trkpt lat="46.71736" lon="-1.9754">
        <ele>5.5</ele>
        <time>2024-12-26T08:20:10.045Z</time>
      </trkpt>
      <trkpt lat="46.71736" lon="-1.97542">
        <ele>5.5</ele>
        <time>2024-12-26T08:20:11.045Z</time>
      </trkpt>
      <trkpt lat="46.71736" lon="-1.97544">
        <ele>5.5</ele>
        <time>2024-12-26T08:20:12.046Z</time>
      </trkpt>
      <trkpt lat="46.71736" lon="-1.97546">
        <ele>5.5</ele>
        <time>2024-12-26T08:20:13.046Z</time>
      </trkpt>
      <trkpt lat="46.71736" lon="-1.97547">
        <ele>5.5</ele>
        <time>2024-12-26T08:20:14.046Z</time>
      </trkpt>
      <trkpt lat="46.71735" lon="-1.97548">
        <ele>5.5</ele>
        <time>2024-12-26T08:20:15.046Z</time>
      </trkpt>
      <trkpt lat="46.71735" lon="-1.9755">
        <ele>5.5</ele>
        <time>2024-12-26T08:20:16.046Z</time>
      </trkpt>
      <trkpt lat="46.71734" lon="-1.97551">
        <ele>5.6</ele>
        <time>2024-12-26T08:20:17.046Z</time>
      </trkpt>
      <trkpt lat="46.71733" lon="-1.97552">
        <ele>5.6</ele>
        <time>2024-12-26T08:20:18.046Z</time>
      </trkpt>
      <trkpt lat="46.71733" lon="-1.97553">
        <ele>5.6</ele>
        <time>2024-12-26T08:20:19.046Z</time>
      </trkpt>
      <trkpt lat="46.71733" lon="-1.97555">
        <ele>5.6</ele>
        <time>2024-12-26T08:20:20.046Z</time>
      </trkpt>
      <trkpt lat="46.71733" lon="-1.97557">
        <ele>5.6</ele>
        <time>2024-12-26T08:20:21.045Z</time>
      </trkpt>
      <trkpt lat="46.71733" lon="-1.97559">
        <ele>5.6</ele>
        <time>2024-12-26T08:20:22.046Z</time>
      </trkpt>
      <trkpt lat="46.71733" lon="-1.9756">
        <ele>5.7</ele>
        <time>2024-12-26T08:20:23.045Z</time>
      </trkpt>
      <trkpt lat="46.71733" lon="-1.97561">
        <ele>5.7</ele>
        <time>2024-12-26T08:20:24.045Z</time>
      </trkpt>
      <trkpt lat="46.71734" lon="-1.97563">
        <ele>5.7</ele>
        <time>2024-12-26T08:20:25.045Z</time>
      </trkpt>
      <trkpt lat="46.71734" lon="-1.97566">
        <ele>5.7</ele>
        <time>2024-12-26T08:20:26.045Z</time>
      </trkpt>
      <trkpt lat="46.71734" lon="-1.97567">
        <ele>5.7</ele>
        <time>2024-12-26T08:20:27.045Z</time>
      </trkpt>
      <trkpt lat="46.71735" lon="-1.97568">
        <ele>5.8</ele>
        <time>2024-12-26T08:20:28.046Z</time>
      </trkpt>
      <trkpt lat="46.71735" lon="-1.97568">
        <ele>5.7</ele>
        <time>2024-12-26T08:20:29.046Z</time>
      </trkpt>
      <trkpt lat="46.71736" lon="-1.97569">
        <ele>5.7</ele>
        <time>2024-12-26T08:20:30.045Z</time>
      </trkpt>
      <trkpt lat="46.71735" lon="-1.9757">
        <ele>5.8</ele>
        <time>2024-12-26T08:20:31.046Z</time>
      </trkpt>
      <trkpt lat="46.71735" lon="-1.97571">
        <ele>5.8</ele>
        <time>2024-12-26T08:20:32.046Z</time>
      </trkpt>
      <trkpt lat="46.71734" lon="-1.97573">
        <ele>5.8</ele>
        <time>2024-12-26T08:20:33.045Z</time>
      </trkpt>
      <trkpt lat="46.71734" lon="-1.97573">
        <ele>5.9</ele>
        <time>2024-12-26T08:20:34.045Z</time>
      </trkpt>
      <trkpt lat="46.71732" lon="-1.97574">
        <ele>5.9</ele>
        <time>2024-12-26T08:20:35.045Z</time>
      </trkpt>
      <trkpt lat="46.71731" lon="-1.97576">
        <ele>5.9</ele>
        <time>2024-12-26T08:20:36.046Z</time>
      </trkpt>
      <trkpt lat="46.7173" lon="-1.97577">
        <ele>5.9</ele>
        <time>2024-12-26T08:20:37.045Z</time>
      </trkpt>
      <trkpt lat="46.7173" lon="-1.97578">
        <ele>5.9</ele>
        <time>2024-12-26T08:20:38.045Z</time>
      </trkpt>
      <trkpt lat="46.71728" lon="-1.97579">
        <ele>6</ele>
        <time>2024-12-26T08:20:39.046Z</time>
      </trkpt>
      <trkpt lat="46.71728" lon="-1.9758">
        <ele>6</ele>
        <time>2024-12-26T08:20:40.045Z</time>
      </trkpt>
      <trkpt lat="46.71727" lon="-1.97581">
        <ele>6</ele>
        <time>2024-12-26T08:20:41.046Z</time>
      </trkpt>
      <trkpt lat="46.71727" lon="-1.97583">
        <ele>6</ele>
        <time>2024-12-26T08:20:42.045Z</time>
      </trkpt>
      <trkpt lat="46.71726" lon="-1.97585">
        <ele>6</ele>
        <time>2024-12-26T08:20:43.045Z</time>
      </trkpt>
      <trkpt lat="46.71726" lon="-1.97586">
        <ele>5.9</ele>
        <time>2024-12-26T08:20:44.045Z</time>
      </trkpt>
      <trkpt lat="46.71725" lon="-1.97588">
        <ele>5.8</ele>
        <time>2024-12-26T08:20:45.045Z</time>
      </trkpt>
      <trkpt lat="46.71724" lon="-1.9759">
        <ele>5.8</ele>
        <time>2024-12-26T08:20:46.045Z</time>
      </trkpt>
      <trkpt lat="46.71724" lon="-1.97592">
        <ele>5.7</ele>
        <time>2024-12-26T08:20:47.046Z</time>
      </trkpt>
      <trkpt lat="46.71724" lon="-1.97593">
        <ele>5.7</ele>
        <time>2024-12-26T08:20:48.045Z</time>
      </trkpt>
      <trkpt lat="46.71724" lon="-1.97595">
        <ele>5.6</ele>
        <time>2024-12-26T08:20:49.045Z</time>
      </trkpt>
      <trkpt lat="46.71724" lon="-1.97597">
        <ele>5.5</ele>
        <time>2024-12-26T08:20:50.045Z</time>
      </trkpt>
      <trkpt lat="46.71724" lon="-1.976">
        <ele>5.4</ele>
        <time>2024-12-26T08:20:51.045Z</time>
      </trkpt>
      <trkpt lat="46.71724" lon="-1.97602">
        <ele>5.4</ele>
        <time>2024-12-26T08:20:52.046Z</time>
      </trkpt>
      <trkpt lat="46.71724" lon="-1.97603">
        <ele>5.3</ele>
        <time>2024-12-26T08:20:53.046Z</time>
      </trkpt>
      <trkpt lat="46.71723" lon="-1.97605">
        <ele>5.2</ele>
        <time>2024-12-26T08:20:54.045Z</time>
      </trkpt>
      <trkpt lat="46.71723" lon="-1.97607">
        <ele>5.2</ele>
        <time>2024-12-26T08:20:55.045Z</time>
      </trkpt>
      <trkpt lat="46.71723" lon="-1.9761">
        <ele>5.1</ele>
        <time>2024-12-26T08:20:56.045Z</time>
      </trkpt>
      <trkpt lat="46.71723" lon="-1.97612">
        <ele>5</ele>
        <time>2024-12-26T08:20:57.046Z</time>
      </trkpt>
      <trkpt lat="46.71724" lon="-1.97614">
        <ele>5.1</ele>
        <time>2024-12-26T08:20:58.045Z</time>
      </trkpt>
      <trkpt lat="46.71723" lon="-1.97616">
        <ele>5</ele>
        <time>2024-12-26T08:20:59.045Z</time>
      </trkpt>
      <trkpt lat="46.71723" lon="-1.97617">
        <ele>5</ele>
        <time>2024-12-26T08:21:00.045Z</time>
      </trkpt>
      <trkpt lat="46.71723" lon="-1.97619">
        <ele>5</ele>
        <time>2024-12-26T08:21:01.045Z</time>
      </trkpt>
      <trkpt lat="46.71723" lon="-1.97621">
        <ele>5</ele>
        <time>2024-12-26T08:21:02.045Z</time>
      </trkpt>
      <trkpt lat="46.71722" lon="-1.97623">
        <ele>5</ele>
        <time>2024-12-26T08:21:03.045Z</time>
      </trkpt>
      <trkpt lat="46.71722" lon="-1.97625">
        <ele>5</ele>
        <time>2024-12-26T08:21:04.046Z</time>
      </trkpt>
      <trkpt lat="46.71722" lon="-1.97627">
        <ele>5</ele>
        <time>2024-12-26T08:21:05.045Z</time>
      </trkpt>
      <trkpt lat="46.71722" lon="-1.97629">
        <ele>5</ele>
        <time>2024-12-26T08:21:06.046Z</time>
      </trkpt>
      <trkpt lat="46.71722" lon="-1.9763">
        <ele>5</ele>
        <time>2024-12-26T08:21:07.046Z</time>
      </trkpt>
      <trkpt lat="46.71722" lon="-1.97631">
        <ele>5</ele>
        <time>2024-12-26T08:21:08.046Z</time>
      </trkpt>
      <trkpt lat="46.71722" lon="-1.97632">
        <ele>5</ele>
        <time>2024-12-26T08:21:09.046Z</time>
      </trkpt>
      <trkpt lat="46.71722" lon="-1.97634">
        <ele>5</ele>
        <time>2024-12-26T08:21:10.046Z</time>
      </trkpt>
      <trkpt lat="46.71722" lon="-1.97635">
        <ele>5</ele>
        <time>2024-12-26T08:21:11.045Z</time>
      </trkpt>
      <trkpt lat="46.71722" lon="-1.97637">
        <ele>5</ele>
        <time>2024-12-26T08:21:12.045Z</time>
      </trkpt>
      <trkpt lat="46.71722" lon="-1.97638">
        <ele>5</ele>
        <time>2024-12-26T08:21:13.046Z</time>
      </trkpt>
      <trkpt lat="46.71722" lon="-1.9764">
        <ele>5</ele>
        <time>2024-12-26T08:21:14.046Z</time>
      </trkpt>
      <trkpt lat="46.71722" lon="-1.97642">
        <ele>5</ele>
        <time>2024-12-26T08:21:15.046Z</time>
      </trkpt>
      <trkpt lat="46.71722" lon="-1.97644">
        <ele>5</ele>
        <time>2024-12-26T08:21:16.046Z</time>
      </trkpt>
      <trkpt lat="46.71722" lon="-1.97645">
        <ele>5</ele>
        <time>2024-12-26T08:21:17.045Z</time>
      </trkpt>
      <trkpt lat="46.71722" lon="-1.97647">
        <ele>5</ele>
        <time>2024-12-26T08:21:18.045Z</time>
      </trkpt>
      <trkpt lat="46.71722" lon="-1.97649">
        <ele>5</ele>
        <time>2024-12-26T08:21:19.045Z</time>
      </trkpt>
      <trkpt lat="46.71722" lon="-1.9765">
        <ele>5</ele>
        <time>2024-12-26T08:21:20.046Z</time>
      </trkpt>
      <trkpt lat="46.71722" lon="-1.97651">
        <ele>5</ele>
        <time>2024-12-26T08:21:21.045Z</time>
      </trkpt>
      <trkpt lat="46.71721" lon="-1.97653">
        <ele>5</ele>
        <time>2024-12-26T08:21:22.046Z</time>
      </trkpt>
      <trkpt lat="46.71722" lon="-1.97655">
        <ele>5</ele>
        <time>2024-12-26T08:21:23.045Z</time>
      </trkpt>
      <trkpt lat="46.71722" lon="-1.97656">
        <ele>5</ele>
        <time>2024-12-26T08:21:24.046Z</time>
      </trkpt>
      <trkpt lat="46.71722" lon="-1.97657">
        <ele>5</ele>
        <time>2024-12-26T08:21:25.046Z</time>
      </trkpt>
      <trkpt lat="46.71722" lon="-1.97659">
        <ele>5</ele>
        <time>2024-12-26T08:21:26.045Z</time>
      </trkpt>
      <trkpt lat="46.71722" lon="-1.97661">
        <ele>5</ele>
        <time>2024-12-26T08:21:27.046Z</time>
      </trkpt>
      <trkpt lat="46.71722" lon="-1.97662">
        <ele>5</ele>
        <time>2024-12-26T08:21:28.046Z</time>
      </trkpt>
      <trkpt lat="46.71722" lon="-1.97664">
        <ele>5</ele>
        <time>2024-12-26T08:21:29.046Z</time>
      </trkpt>
      <trkpt lat="46.71722" lon="-1.97667">
        <ele>5</ele>
        <time>2024-12-26T08:21:30.046Z</time>
      </trkpt>
      <trkpt lat="46.71721" lon="-1.97669">
        <ele>5</ele>
        <time>2024-12-26T08:21:31.046Z</time>
      </trkpt>
      <trkpt lat="46.71721" lon="-1.97672">
        <ele>5</ele>
        <time>2024-12-26T08:21:32.045Z</time>
      </trkpt>
      <trkpt lat="46.71721" lon="-1.97674">
        <ele>5</ele>
        <time>2024-12-26T08:21:33.045Z</time>
      </trkpt>
      <trkpt lat="46.71721" lon="-1.97676">
        <ele>5</ele>
        <time>2024-12-26T08:21:34.045Z</time>
      </trkpt>
      <trkpt lat="46.71721" lon="-1.97678">
        <ele>5</ele>
        <time>2024-12-26T08:21:35.045Z</time>
      </trkpt>
      <trkpt lat="46.71721" lon="-1.97679">
        <ele>5</ele>
        <time>2024-12-26T08:21:36.045Z</time>
      </trkpt>
      <trkpt lat="46.71721" lon="-1.97681">
        <ele>5.1</ele>
        <time>2024-12-26T08:21:37.045Z</time>
      </trkpt>
      <trkpt lat="46.7172" lon="-1.97683">
        <ele>5.1</ele>
        <time>2024-12-26T08:21:38.046Z</time>
      </trkpt>
      <trkpt lat="46.7172" lon="-1.97684">
        <ele>5.1</ele>
        <time>2024-12-26T08:21:39.046Z</time>
      </trkpt>
      <trkpt lat="46.7172" lon="-1.97685">
        <ele>5.1</ele>
        <time>2024-12-26T08:21:40.045Z</time>
      </trkpt>
      <trkpt lat="46.7172" lon="-1.97687">
        <ele>5.1</ele>
        <time>2024-12-26T08:21:41.046Z</time>
      </trkpt>
      <trkpt lat="46.7172" lon="-1.97689">
        <ele>5.1</ele>
        <time>2024-12-26T08:21:42.046Z</time>
      </trkpt>
      <trkpt lat="46.7172" lon="-1.97691">
        <ele>5.1</ele>
        <time>2024-12-26T08:21:43.045Z</time>
      </trkpt>
      <trkpt lat="46.7172" lon="-1.97693">
        <ele>5.1</ele>
        <time>2024-12-26T08:21:44.046Z</time>
      </trkpt>
      <trkpt lat="46.7172" lon="-1.97695">
        <ele>5.1</ele>
        <time>2024-12-26T08:21:45.046Z</time>
      </trkpt>
      <trkpt lat="46.7172" lon="-1.97696">
        <ele>5.1</ele>
        <time>2024-12-26T08:21:46.046Z</time>
      </trkpt>
      <trkpt lat="46.7172" lon="-1.97698">
        <ele>5.1</ele>
        <time>2024-12-26T08:21:47.046Z</time>
      </trkpt>
      <trkpt lat="46.7172" lon="-1.97701">
        <ele>5.1</ele>
        <time>2024-12-26T08:21:48.045Z</time>
      </trkpt>
      <trkpt lat="46.7172" lon="-1.97703">
        <ele>5.1</ele>
        <time>2024-12-26T08:21:49.045Z</time>
      </trkpt>
      <trkpt lat="46.7172" lon="-1.97705">
        <ele>5.1</ele>
        <time>2024-12-26T08:21:50.045Z</time>
      </trkpt>
      <trkpt lat="46.7172" lon="-1.97706">
        <ele>5.1</ele>
        <time>2024-12-26T08:21:51.045Z</time>
      </trkpt>
      <trkpt lat="46.7172" lon="-1.97708">
        <ele>5.1</ele>
        <time>2024-12-26T08:21:52.046Z</time>
      </trkpt>
      <trkpt lat="46.7172" lon="-1.97709">
        <ele>5.1</ele>
        <time>2024-12-26T08:21:53.045Z</time>
      </trkpt>
      <trkpt lat="46.7172" lon="-1.97711">
        <ele>5.1</ele>
        <time>2024-12-26T08:21:54.045Z</time>
      </trkpt>
      <trkpt lat="46.71719" lon="-1.97713">
        <ele>5.1</ele>
        <time>2024-12-26T08:21:55.045Z</time>
      </trkpt>
      <trkpt lat="46.71719" lon="-1.97715">
        <ele>5.1</ele>
        <time>2024-12-26T08:21:56.045Z</time>
      </trkpt>
      <trkpt lat="46.71719" lon="-1.97716">
        <ele>5.1</ele>
        <time>2024-12-26T08:21:57.045Z</time>
      </trkpt>
      <trkpt lat="46.7172" lon="-1.97718">
        <ele>5.1</ele>
        <time>2024-12-26T08:21:58.045Z</time>
      </trkpt>
      <trkpt lat="46.7172" lon="-1.97721">
        <ele>5.1</ele>
        <time>2024-12-26T08:21:59.046Z</time>
      </trkpt>
      <trkpt lat="46.7172" lon="-1.97723">
        <ele>5.1</ele>
        <time>2024-12-26T08:22:00.046Z</time>
      </trkpt>
      <trkpt lat="46.71719" lon="-1.97725">
        <ele>5.1</ele>
        <time>2024-12-26T08:22:01.045Z</time>
      </trkpt>
      <trkpt lat="46.71719" lon="-1.97727">
        <ele>5.1</ele>
        <time>2024-12-26T08:22:02.046Z</time>
      </trkpt>
      <trkpt lat="46.71719" lon="-1.97729">
        <ele>5.2</ele>
        <time>2024-12-26T08:22:03.045Z</time>
      </trkpt>
      <trkpt lat="46.71719" lon="-1.97731">
        <ele>5.2</ele>
        <time>2024-12-26T08:22:04.045Z</time>
      </trkpt>
      <trkpt lat="46.71719" lon="-1.97733">
        <ele>5.2</ele>
        <time>2024-12-26T08:22:05.045Z</time>
      </trkpt>
      <trkpt lat="46.71719" lon="-1.97734">
        <ele>5.2</ele>
        <time>2024-12-26T08:22:06.046Z</time>
      </trkpt>
      <trkpt lat="46.71719" lon="-1.97735">
        <ele>5.2</ele>
        <time>2024-12-26T08:22:07.046Z</time>
      </trkpt>
      <trkpt lat="46.71718" lon="-1.97737">
        <ele>5.2</ele>
        <time>2024-12-26T08:22:08.045Z</time>
      </trkpt>
      <trkpt lat="46.71718" lon="-1.97738">
        <ele>5.2</ele>
        <time>2024-12-26T08:22:09.045Z</time>
      </trkpt>
      <trkpt lat="46.71718" lon="-1.9774">
        <ele>5.3</ele>
        <time>2024-12-26T08:22:10.045Z</time>
      </trkpt>
      <trkpt lat="46.71717" lon="-1.97741">
        <ele>5.3</ele>
        <time>2024-12-26T08:22:11.045Z</time>
      </trkpt>
      <trkpt lat="46.71717" lon="-1.97743">
        <ele>5.4</ele>
        <time>2024-12-26T08:22:12.045Z</time>
      </trkpt>
      <trkpt lat="46.71716" lon="-1.97744">
        <ele>5.4</ele>
        <time>2024-12-26T08:22:13.046Z</time>
      </trkpt>
      <trkpt lat="46.71715" lon="-1.97745">
        <ele>5.5</ele>
        <time>2024-12-26T08:22:14.046Z</time>
      </trkpt>
      <trkpt lat="46.71714" lon="-1.97746">
        <ele>5.5</ele>
        <time>2024-12-26T08:22:15.046Z</time>
      </trkpt>
      <trkpt lat="46.71714" lon="-1.97747">
        <ele>5.6</ele>
        <time>2024-12-26T08:22:16.046Z</time>
      </trkpt>
      <trkpt lat="46.71712" lon="-1.97748">
        <ele>5.7</ele>
        <time>2024-12-26T08:22:17.045Z</time>
      </trkpt>
      <trkpt lat="46.71711" lon="-1.9775">
        <ele>5.8</ele>
        <time>2024-12-26T08:22:18.045Z</time>
      </trkpt>
      <trkpt lat="46.71711" lon="-1.97751">
        <ele>5.8</ele>
        <time>2024-12-26T08:22:19.045Z</time>
      </trkpt>
      <trkpt lat="46.71711" lon="-1.97753">
        <ele>5.8</ele>
        <time>2024-12-26T08:22:20.046Z</time>
      </trkpt>
      <trkpt lat="46.7171" lon="-1.97755">
        <ele>5.8</ele>
        <time>2024-12-26T08:22:21.046Z</time>
      </trkpt>
      <trkpt lat="46.7171" lon="-1.97758">
        <ele>5.8</ele>
        <time>2024-12-26T08:22:22.045Z</time>
      </trkpt>
      <trkpt lat="46.7171" lon="-1.9776">
        <ele>5.8</ele>
        <time>2024-12-26T08:22:23.046Z</time>
      </trkpt>
      <trkpt lat="46.7171" lon="-1.97762">
        <ele>5.7</ele>
        <time>2024-12-26T08:22:24.046Z</time>
      </trkpt>
      <trkpt lat="46.71708" lon="-1.97763">
        <ele>5.8</ele>
        <time>2024-12-26T08:22:25.046Z</time>
      </trkpt>
      <trkpt lat="46.71708" lon="-1.97763">
        <ele>5.8</ele>
        <time>2024-12-26T08:22:26.045Z</time>
      </trkpt>
      <trkpt lat="46.71708" lon="-1.97764">
        <ele>5.8</ele>
        <time>2024-12-26T08:22:27.045Z</time>
      </trkpt>
      <trkpt lat="46.71708" lon="-1.97765">
        <ele>5.8</ele>
        <time>2024-12-26T08:22:28.046Z</time>
      </trkpt>
      <trkpt lat="46.71708" lon="-1.97768">
        <ele>5.7</ele>
        <time>2024-12-26T08:22:29.046Z</time>
      </trkpt>
      <trkpt lat="46.71708" lon="-1.9777">
        <ele>5.7</ele>
        <time>2024-12-26T08:22:30.046Z</time>
      </trkpt>
      <trkpt lat="46.71708" lon="-1.97772">
        <ele>5.6</ele>
        <time>2024-12-26T08:22:31.045Z</time>
      </trkpt>
      <trkpt lat="46.71708" lon="-1.97774">
        <ele>5.6</ele>
        <time>2024-12-26T08:22:32.045Z</time>
      </trkpt>
      <trkpt lat="46.71708" lon="-1.97777">
        <ele>5.5</ele>
        <time>2024-12-26T08:22:33.046Z</time>
      </trkpt>
      <trkpt lat="46.71708" lon="-1.97779">
        <ele>5.5</ele>
        <time>2024-12-26T08:22:34.045Z</time>
      </trkpt>
      <trkpt lat="46.71708" lon="-1.97781">
        <ele>5.6</ele>
        <time>2024-12-26T08:22:35.046Z</time>
      </trkpt>
      <trkpt lat="46.71708" lon="-1.97783">
        <ele>5.6</ele>
        <time>2024-12-26T08:22:36.045Z</time>
      </trkpt>
      <trkpt lat="46.71707" lon="-1.97785">
        <ele>5.7</ele>
        <time>2024-12-26T08:22:37.046Z</time>
      </trkpt>
      <trkpt lat="46.71707" lon="-1.97787">
        <ele>5.7</ele>
        <time>2024-12-26T08:22:38.045Z</time>
      </trkpt>
      <trkpt lat="46.71707" lon="-1.97789">
        <ele>5.7</ele>
        <time>2024-12-26T08:22:39.046Z</time>
      </trkpt>
      <trkpt lat="46.71706" lon="-1.97791">
        <ele>5.8</ele>
        <time>2024-12-26T08:22:40.046Z</time>
      </trkpt>
      <trkpt lat="46.71706" lon="-1.97793">
        <ele>5.8</ele>
        <time>2024-12-26T08:22:41.046Z</time>
      </trkpt>
      <trkpt lat="46.71705" lon="-1.97794">
        <ele>5.8</ele>
        <time>2024-12-26T08:22:42.045Z</time>
      </trkpt>
      <trkpt lat="46.71705" lon="-1.97796">
        <ele>5.9</ele>
        <time>2024-12-26T08:22:43.046Z</time>
      </trkpt>
      <trkpt lat="46.71704" lon="-1.97798">
        <ele>5.9</ele>
        <time>2024-12-26T08:22:44.045Z</time>
      </trkpt>
      <trkpt lat="46.71704" lon="-1.97799">
        <ele>5.9</ele>
        <time>2024-12-26T08:22:45.046Z</time>
      </trkpt>
      <trkpt lat="46.71703" lon="-1.97801">
        <ele>5.9</ele>
        <time>2024-12-26T08:22:46.046Z</time>
      </trkpt>
      <trkpt lat="46.71702" lon="-1.97801">
        <ele>6</ele>
        <time>2024-12-26T08:22:47.046Z</time>
      </trkpt>
      <trkpt lat="46.71701" lon="-1.97803">
        <ele>6</ele>
        <time>2024-12-26T08:22:48.045Z</time>
      </trkpt>
      <trkpt lat="46.717" lon="-1.97805">
        <ele>6</ele>
        <time>2024-12-26T08:22:49.046Z</time>
      </trkpt>
      <trkpt lat="46.717" lon="-1.97806">
        <ele>6</ele>
        <time>2024-12-26T08:22:50.046Z</time>
      </trkpt>
      <trkpt lat="46.717" lon="-1.97808">
        <ele>6.1</ele>
        <time>2024-12-26T08:22:51.045Z</time>
      </trkpt>
      <trkpt lat="46.71699" lon="-1.9781">
        <ele>6.2</ele>
        <time>2024-12-26T08:22:52.046Z</time>
      </trkpt>
      <trkpt lat="46.71699" lon="-1.97812">
        <ele>6.2</ele>
        <time>2024-12-26T08:22:53.046Z</time>
      </trkpt>
      <trkpt lat="46.71699" lon="-1.97813">
        <ele>6.3</ele>
        <time>2024-12-26T08:22:54.046Z</time>
      </trkpt>
      <trkpt lat="46.71698" lon="-1.97815">
        <ele>6.3</ele>
        <time>2024-12-26T08:22:55.046Z</time>
      </trkpt>
      <trkpt lat="46.71698" lon="-1.97817">
        <ele>6.4</ele>
        <time>2024-12-26T08:22:56.046Z</time>
      </trkpt>
      <trkpt lat="46.71698" lon="-1.97818">
        <ele>6.5</ele>
        <time>2024-12-26T08:22:57.045Z</time>
      </trkpt>
      <trkpt lat="46.71698" lon="-1.9782">
        <ele>6.5</ele>
        <time>2024-12-26T08:22:58.046Z</time>
      </trkpt>
      <trkpt lat="46.71697" lon="-1.97822">
        <ele>6.6</ele>
        <time>2024-12-26T08:22:59.046Z</time>
      </trkpt>
      <trkpt lat="46.71697" lon="-1.97824">
        <ele>6.7</ele>
        <time>2024-12-26T08:23:00.045Z</time>
      </trkpt>
      <trkpt lat="46.71696" lon="-1.97825">
        <ele>6.7</ele>
        <time>2024-12-26T08:23:01.045Z</time>
      </trkpt>
      <trkpt lat="46.71696" lon="-1.97826">
        <ele>6.7</ele>
        <time>2024-12-26T08:23:02.046Z</time>
      </trkpt>
      <trkpt lat="46.71695" lon="-1.97828">
        <ele>6.8</ele>
        <time>2024-12-26T08:23:03.045Z</time>
      </trkpt>
      <trkpt lat="46.71695" lon="-1.97829">
        <ele>6.8</ele>
        <time>2024-12-26T08:23:04.045Z</time>
      </trkpt>
      <trkpt lat="46.71694" lon="-1.97831">
        <ele>6.9</ele>
        <time>2024-12-26T08:23:05.045Z</time>
      </trkpt>
      <trkpt lat="46.71694" lon="-1.97832">
        <ele>6.9</ele>
        <time>2024-12-26T08:23:06.046Z</time>
      </trkpt>
      <trkpt lat="46.71694" lon="-1.97833">
        <ele>7</ele>
        <time>2024-12-26T08:23:07.045Z</time>
      </trkpt>
      <trkpt lat="46.71693" lon="-1.97835">
        <ele>7</ele>
        <time>2024-12-26T08:23:08.045Z</time>
      </trkpt>
      <trkpt lat="46.71693" lon="-1.97836">
        <ele>7.1</ele>
        <time>2024-12-26T08:23:09.045Z</time>
      </trkpt>
      <trkpt lat="46.71693" lon="-1.97838">
        <ele>7.1</ele>
        <time>2024-12-26T08:23:10.046Z</time>
      </trkpt>
      <trkpt lat="46.71692" lon="-1.97839">
        <ele>7.2</ele>
        <time>2024-12-26T08:23:11.045Z</time>
      </trkpt>
      <trkpt lat="46.71692" lon="-1.97841">
        <ele>7.2</ele>
        <time>2024-12-26T08:23:12.046Z</time>
      </trkpt>
      <trkpt lat="46.71692" lon="-1.97842">
        <ele>7.3</ele>
        <time>2024-12-26T08:23:13.046Z</time>
      </trkpt>
      <trkpt lat="46.71691" lon="-1.97844">
        <ele>7.3</ele>
        <time>2024-12-26T08:23:14.046Z</time>
      </trkpt>
      <trkpt lat="46.71691" lon="-1.97845">
        <ele>7.4</ele>
        <time>2024-12-26T08:23:15.046Z</time>
      </trkpt>
      <trkpt lat="46.7169" lon="-1.97846">
        <ele>7.4</ele>
        <time>2024-12-26T08:23:16.046Z</time>
      </trkpt>
      <trkpt lat="46.71689" lon="-1.97846">
        <ele>7.5</ele>
        <time>2024-12-26T08:23:17.045Z</time>
      </trkpt>
      <trkpt lat="46.71688" lon="-1.97847">
        <ele>7.5</ele>
        <time>2024-12-26T08:23:18.046Z</time>
      </trkpt>
      <trkpt lat="46.71688" lon="-1.97849">
        <ele>7.6</ele>
        <time>2024-12-26T08:23:19.046Z</time>
      </trkpt>
      <trkpt lat="46.71687" lon="-1.9785">
        <ele>7.7</ele>
        <time>2024-12-26T08:23:20.045Z</time>
      </trkpt>
      <trkpt lat="46.71687" lon="-1.97852">
        <ele>7.8</ele>
        <time>2024-12-26T08:23:21.045Z</time>
      </trkpt>
      <trkpt lat="46.71686" lon="-1.97854">
        <ele>7.9</ele>
        <time>2024-12-26T08:23:22.046Z</time>
      </trkpt>
      <trkpt lat="46.71686" lon="-1.97856">
        <ele>8</ele>
        <time>2024-12-26T08:23:23.046Z</time>
      </trkpt>
      <trkpt lat="46.71686" lon="-1.97858">
        <ele>8.1</ele>
        <time>2024-12-26T08:23:24.046Z</time>
      </trkpt>
      <trkpt lat="46.71685" lon="-1.9786">
        <ele>8.3</ele>
        <time>2024-12-26T08:23:25.045Z</time>
      </trkpt>
      <trkpt lat="46.71685" lon="-1.97862">
        <ele>8.4</ele>
        <time>2024-12-26T08:23:26.046Z</time>
      </trkpt>
      <trkpt lat="46.71684" lon="-1.97864">
        <ele>8.4</ele>
        <time>2024-12-26T08:23:27.045Z</time>
      </trkpt>
      <trkpt lat="46.71684" lon="-1.97866">
        <ele>8.5</ele>
        <time>2024-12-26T08:23:28.046Z</time>
      </trkpt>
      <trkpt lat="46.71684" lon="-1.97868">
        <ele>8.5</ele>
        <time>2024-12-26T08:23:29.046Z</time>
      </trkpt>
      <trkpt lat="46.71684" lon="-1.97869">
        <ele>8.6</ele>
        <time>2024-12-26T08:23:30.045Z</time>
      </trkpt>
      <trkpt lat="46.71683" lon="-1.9787">
        <ele>8.6</ele>
        <time>2024-12-26T08:23:31.045Z</time>
      </trkpt>
      <trkpt lat="46.71683" lon="-1.97872">
        <ele>8.6</ele>
        <time>2024-12-26T08:23:32.046Z</time>
      </trkpt>
      <trkpt lat="46.71682" lon="-1.97873">
        <ele>8.7</ele>
        <time>2024-12-26T08:23:33.046Z</time>
      </trkpt>
      <trkpt lat="46.71682" lon="-1.97874">
        <ele>8.7</ele>
        <time>2024-12-26T08:23:34.046Z</time>
      </trkpt>
      <trkpt lat="46.71681" lon="-1.97875">
        <ele>8.7</ele>
        <time>2024-12-26T08:23:35.046Z</time>
      </trkpt>
      <trkpt lat="46.71681" lon="-1.97877">
        <ele>8.8</ele>
        <time>2024-12-26T08:23:36.046Z</time>
      </trkpt>
      <trkpt lat="46.7168" lon="-1.97878">
        <ele>8.8</ele>
        <time>2024-12-26T08:23:37.045Z</time>
      </trkpt>
      <trkpt lat="46.7168" lon="-1.97879">
        <ele>8.8</ele>
        <time>2024-12-26T08:23:38.046Z</time>
      </trkpt>
      <trkpt lat="46.7168" lon="-1.97881">
        <ele>8.9</ele>
        <time>2024-12-26T08:23:39.046Z</time>
      </trkpt>
      <trkpt lat="46.71679" lon="-1.97882">
        <ele>8.9</ele>
        <time>2024-12-26T08:23:40.046Z</time>
      </trkpt>
      <trkpt lat="46.71679" lon="-1.97884">
        <ele>8.9</ele>
        <time>2024-12-26T08:23:41.046Z</time>
      </trkpt>
      <trkpt lat="46.71679" lon="-1.97885">
        <ele>8.9</ele>
        <time>2024-12-26T08:23:42.046Z</time>
      </trkpt>
      <trkpt lat="46.71678" lon="-1.97886">
        <ele>9</ele>
        <time>2024-12-26T08:23:43.045Z</time>
      </trkpt>
      <trkpt lat="46.71678" lon="-1.97887">
        <ele>9</ele>
        <time>2024-12-26T08:23:44.045Z</time>
      </trkpt>
      <trkpt lat="46.71677" lon="-1.97888">
        <ele>9</ele>
        <time>2024-12-26T08:23:45.046Z</time>
      </trkpt>
      <trkpt lat="46.71677" lon="-1.9789">
        <ele>9</ele>
        <time>2024-12-26T08:23:46.045Z</time>
      </trkpt>
      <trkpt lat="46.71676" lon="-1.97891">
        <ele>8.9</ele>
        <time>2024-12-26T08:23:47.045Z</time>
      </trkpt>
      <trkpt lat="46.71676" lon="-1.97892">
        <ele>8.8</ele>
        <time>2024-12-26T08:23:48.046Z</time>
      </trkpt>
      <trkpt lat="46.71676" lon="-1.97893">
        <ele>8.7</ele>
        <time>2024-12-26T08:23:49.046Z</time>
      </trkpt>
      <trkpt lat="46.71675" lon="-1.97895">
        <ele>8.7</ele>
        <time>2024-12-26T08:23:50.045Z</time>
      </trkpt>
      <trkpt lat="46.71675" lon="-1.97896">
        <ele>8.6</ele>
        <time>2024-12-26T08:23:51.045Z</time>
      </trkpt>
      <trkpt lat="46.71675" lon="-1.97897">
        <ele>8.5</ele>
        <time>2024-12-26T08:23:52.046Z</time>
      </trkpt>
      <trkpt lat="46.71674" lon="-1.97899">
        <ele>8.4</ele>
        <time>2024-12-26T08:23:53.045Z</time>
      </trkpt>
      <trkpt lat="46.71674" lon="-1.97901">
        <ele>8.2</ele>
        <time>2024-12-26T08:23:54.045Z</time>
      </trkpt>
      <trkpt lat="46.71673" lon="-1.97903">
        <ele>8.1</ele>
        <time>2024-12-26T08:23:55.045Z</time>
      </trkpt>
      <trkpt lat="46.71672" lon="-1.97905">
        <ele>8</ele>
        <time>2024-12-26T08:23:56.046Z</time>
      </trkpt>
      <trkpt lat="46.71672" lon="-1.97907">
        <ele>7.8</ele>
        <time>2024-12-26T08:23:57.045Z</time>
      </trkpt>
      <trkpt lat="46.71671" lon="-1.97908">
        <ele>7.7</ele>
        <time>2024-12-26T08:23:58.045Z</time>
      </trkpt>
      <trkpt lat="46.7167" lon="-1.9791">
        <ele>7.6</ele>
        <time>2024-12-26T08:23:59.045Z</time>
      </trkpt>
      <trkpt lat="46.7167" lon="-1.97911">
        <ele>7.5</ele>
        <time>2024-12-26T08:24:00.045Z</time>
      </trkpt>
      <trkpt lat="46.71669" lon="-1.97912">
        <ele>7.4</ele>
        <time>2024-12-26T08:24:01.045Z</time>
      </trkpt>
      <trkpt lat="46.71669" lon="-1.97914">
        <ele>7.3</ele>
        <time>2024-12-26T08:24:02.045Z</time>
      </trkpt>
      <trkpt lat="46.71669" lon="-1.97916">
        <ele>7.1</ele>
        <time>2024-12-26T08:24:03.046Z</time>
      </trkpt>
      <trkpt lat="46.71668" lon="-1.97917">
        <ele>7</ele>
        <time>2024-12-26T08:24:04.045Z</time>
      </trkpt>
      <trkpt lat="46.71667" lon="-1.97918">
        <ele>6.9</ele>
        <time>2024-12-26T08:24:05.045Z</time>
      </trkpt>
      <trkpt lat="46.71667" lon="-1.9792">
        <ele>6.8</ele>
        <time>2024-12-26T08:24:06.045Z</time>
      </trkpt>
      <trkpt lat="46.71667" lon="-1.97922">
        <ele>6.6</ele>
        <time>2024-12-26T08:24:07.045Z</time>
      </trkpt>
      <trkpt lat="46.71666" lon="-1.97923">
        <ele>6.5</ele>
        <time>2024-12-26T08:24:08.045Z</time>
      </trkpt>
      <trkpt lat="46.71666" lon="-1.97925">
        <ele>6.4</ele>
        <time>2024-12-26T08:24:09.045Z</time>
      </trkpt>
      <trkpt lat="46.71666" lon="-1.97926">
        <ele>6.3</ele>
        <time>2024-12-26T08:24:10.046Z</time>
      </trkpt>
      <trkpt lat="46.71666" lon="-1.97928">
        <ele>6.2</ele>
        <time>2024-12-26T08:24:11.045Z</time>
      </trkpt>
      <trkpt lat="46.71666" lon="-1.9793">
        <ele>6</ele>
        <time>2024-12-26T08:24:12.046Z</time>
      </trkpt>
      <trkpt lat="46.71666" lon="-1.97932">
        <ele>5.9</ele>
        <time>2024-12-26T08:24:13.045Z</time>
      </trkpt>
      <trkpt lat="46.71667" lon="-1.97934">
        <ele>5.8</ele>
        <time>2024-12-26T08:24:14.046Z</time>
      </trkpt>
      <trkpt lat="46.71667" lon="-1.97936">
        <ele>5.6</ele>
        <time>2024-12-26T08:24:15.046Z</time>
      </trkpt>
      <trkpt lat="46.71667" lon="-1.97937">
        <ele>5.5</ele>
        <time>2024-12-26T08:24:16.046Z</time>
      </trkpt>
      <trkpt lat="46.71668" lon="-1.97939">
        <ele>5.4</ele>
        <time>2024-12-26T08:24:17.046Z</time>
      </trkpt>
      <trkpt lat="46.71668" lon="-1.9794">
        <ele>5.3</ele>
        <time>2024-12-26T08:24:18.045Z</time>
      </trkpt>
      <trkpt lat="46.71669" lon="-1.97941">
        <ele>5.2</ele>
        <time>2024-12-26T08:24:19.045Z</time>
      </trkpt>
      <trkpt lat="46.71669" lon="-1.97942">
        <ele>5.2</ele>
        <time>2024-12-26T08:24:20.045Z</time>
      </trkpt>
      <trkpt lat="46.7167" lon="-1.97944">
        <ele>5.1</ele>
        <time>2024-12-26T08:24:21.045Z</time>
      </trkpt>
      <trkpt lat="46.71671" lon="-1.97946">
        <ele>5</ele>
        <time>2024-12-26T08:24:22.046Z</time>
      </trkpt>
      <trkpt lat="46.71672" lon="-1.97948">
        <ele>4.9</ele>
        <time>2024-12-26T08:24:23.046Z</time>
      </trkpt>
      <trkpt lat="46.71672" lon="-1.9795">
        <ele>4.8</ele>
        <time>2024-12-26T08:24:24.045Z</time>
      </trkpt>
      <trkpt lat="46.71673" lon="-1.97951">
        <ele>4.8</ele>
        <time>2024-12-26T08:24:25.045Z</time>
      </trkpt>
      <trkpt lat="46.71674" lon="-1.97953">
        <ele>4.7</ele>
        <time>2024-12-26T08:24:26.045Z</time>
      </trkpt>
      <trkpt lat="46.71675" lon="-1.97954">
        <ele>4.6</ele>
        <time>2024-12-26T08:24:27.045Z</time>
      </trkpt>
      <trkpt lat="46.71676" lon="-1.97955">
        <ele>4.6</ele>
        <time>2024-12-26T08:24:28.046Z</time>
      </trkpt>
      <trkpt lat="46.71677" lon="-1.97955">
        <ele>4.6</ele>
        <time>2024-12-26T08:24:29.045Z</time>
      </trkpt>
      <trkpt lat="46.71678" lon="-1.97955">
        <ele>4.6</ele>
        <time>2024-12-26T08:24:30.045Z</time>
      </trkpt>
      <trkpt lat="46.7168" lon="-1.97956">
        <ele>4.6</ele>
        <time>2024-12-26T08:24:31.045Z</time>
      </trkpt>
      <trkpt lat="46.71681" lon="-1.97956">
        <ele>4.6</ele>
        <time>2024-12-26T08:24:32.045Z</time>
      </trkpt>
      <trkpt lat="46.71683" lon="-1.97957">
        <ele>4.6</ele>
        <time>2024-12-26T08:24:33.045Z</time>
      </trkpt>
      <trkpt lat="46.71684" lon="-1.97958">
        <ele>4.5</ele>
        <time>2024-12-26T08:24:34.045Z</time>
      </trkpt>
      <trkpt lat="46.71685" lon="-1.97959">
        <ele>4.5</ele>
        <time>2024-12-26T08:24:35.046Z</time>
      </trkpt>
      <trkpt lat="46.71687" lon="-1.97959">
        <ele>4.5</ele>
        <time>2024-12-26T08:24:36.046Z</time>
      </trkpt>
      <trkpt lat="46.71688" lon="-1.97959">
        <ele>4.5</ele>
        <time>2024-12-26T08:24:37.046Z</time>
      </trkpt>
      <trkpt lat="46.71689" lon="-1.97959">
        <ele>4.5</ele>
        <time>2024-12-26T08:24:38.046Z</time>
      </trkpt>
      <trkpt lat="46.7169" lon="-1.9796">
        <ele>4.4</ele>
        <time>2024-12-26T08:24:39.046Z</time>
      </trkpt>
      <trkpt lat="46.71691" lon="-1.97961">
        <ele>4.4</ele>
        <time>2024-12-26T08:24:40.045Z</time>
      </trkpt>
      <trkpt lat="46.71692" lon="-1.97962">
        <ele>4.4</ele>
        <time>2024-12-26T08:24:41.045Z</time>
      </trkpt>
      <trkpt lat="46.71693" lon="-1.97963">
        <ele>4.3</ele>
        <time>2024-12-26T08:24:42.045Z</time>
      </trkpt>
      <trkpt lat="46.71694" lon="-1.97964">
        <ele>4.3</ele>
        <time>2024-12-26T08:24:43.046Z</time>
      </trkpt>
      <trkpt lat="46.71695" lon="-1.97964">
        <ele>4.3</ele>
        <time>2024-12-26T08:24:44.046Z</time>
      </trkpt>
      <trkpt lat="46.71696" lon="-1.97965">
        <ele>4.3</ele>
        <time>2024-12-26T08:24:45.045Z</time>
      </trkpt>
      <trkpt lat="46.71697" lon="-1.97966">
        <ele>4.3</ele>
        <time>2024-12-26T08:24:46.045Z</time>
      </trkpt>
      <trkpt lat="46.71698" lon="-1.97967">
        <ele>4.3</ele>
        <time>2024-12-26T08:24:47.046Z</time>
      </trkpt>
      <trkpt lat="46.71699" lon="-1.97967">
        <ele>4.3</ele>
        <time>2024-12-26T08:24:48.046Z</time>
      </trkpt>
      <trkpt lat="46.717" lon="-1.97968">
        <ele>4.3</ele>
        <time>2024-12-26T08:24:49.045Z</time>
      </trkpt>
      <trkpt lat="46.71701" lon="-1.97969">
        <ele>4.3</ele>
        <time>2024-12-26T08:24:50.046Z</time>
      </trkpt>
      <trkpt lat="46.71701" lon="-1.9797">
        <ele>4.3</ele>
        <time>2024-12-26T08:24:51.046Z</time>
      </trkpt>
      <trkpt lat="46.71702" lon="-1.97971">
        <ele>4.3</ele>
        <time>2024-12-26T08:24:52.046Z</time>
      </trkpt>
      <trkpt lat="46.71704" lon="-1.97971">
        <ele>4.4</ele>
        <time>2024-12-26T08:24:53.045Z</time>
      </trkpt>
      <trkpt lat="46.71705" lon="-1.97972">
        <ele>4.4</ele>
        <time>2024-12-26T08:24:54.045Z</time>
      </trkpt>
      <trkpt lat="46.71706" lon="-1.97972">
        <ele>4.4</ele>
        <time>2024-12-26T08:24:55.045Z</time>
      </trkpt>
      <trkpt lat="46.71707" lon="-1.97973">
        <ele>4.4</ele>
        <time>2024-12-26T08:24:56.045Z</time>
      </trkpt>
      <trkpt lat="46.71708" lon="-1.97973">
        <ele>4.4</ele>
        <time>2024-12-26T08:24:57.046Z</time>
      </trkpt>
      <trkpt lat="46.71709" lon="-1.97974">
        <ele>4.4</ele>
        <time>2024-12-26T08:24:58.046Z</time>
      </trkpt>
      <trkpt lat="46.7171" lon="-1.97974">
        <ele>4.5</ele>
        <time>2024-12-26T08:24:59.046Z</time>
      </trkpt>
      <trkpt lat="46.71712" lon="-1.97975">
        <ele>4.5</ele>
        <time>2024-12-26T08:25:00.045Z</time>
      </trkpt>
      <trkpt lat="46.71713" lon="-1.97976">
        <ele>4.5</ele>
        <time>2024-12-26T08:25:01.045Z</time>
      </trkpt>
      <trkpt lat="46.71715" lon="-1.97975">
        <ele>4.6</ele>
        <time>2024-12-26T08:25:02.045Z</time>
      </trkpt>
      <trkpt lat="46.71716" lon="-1.97977">
        <ele>4.6</ele>
        <time>2024-12-26T08:25:03.045Z</time>
      </trkpt>
      <trkpt lat="46.71717" lon="-1.97978">
        <ele>4.6</ele>
        <time>2024-12-26T08:25:04.045Z</time>
      </trkpt>
      <trkpt lat="46.71718" lon="-1.9798">
        <ele>4.5</ele>
        <time>2024-12-26T08:25:05.045Z</time>
      </trkpt>
      <trkpt lat="46.71719" lon="-1.97981">
        <ele>4.5</ele>
        <time>2024-12-26T08:25:06.046Z</time>
      </trkpt>
      <trkpt lat="46.71719" lon="-1.97981">
        <ele>4.5</ele>
        <time>2024-12-26T08:25:07.045Z</time>
      </trkpt>
      <trkpt lat="46.71719" lon="-1.97982">
        <ele>4.5</ele>
        <time>2024-12-26T08:25:08.046Z</time>
      </trkpt>
      <trkpt lat="46.7172" lon="-1.97983">
        <ele>4.5</ele>
        <time>2024-12-26T08:25:09.045Z</time>
      </trkpt>
      <trkpt lat="46.71721" lon="-1.97983">
        <ele>4.6</ele>
        <time>2024-12-26T08:25:10.046Z</time>
      </trkpt>
      <trkpt lat="46.71723" lon="-1.97983">
        <ele>4.6</ele>
        <time>2024-12-26T08:25:11.045Z</time>
      </trkpt>
      <trkpt lat="46.71725" lon="-1.97983">
        <ele>4.7</ele>
        <time>2024-12-26T08:25:12.046Z</time>
      </trkpt>
      <trkpt lat="46.71726" lon="-1.97984">
        <ele>4.7</ele>
        <time>2024-12-26T08:25:13.046Z</time>
      </trkpt>
      <trkpt lat="46.71727" lon="-1.97984">
        <ele>4.7</ele>
        <time>2024-12-26T08:25:14.045Z</time>
      </trkpt>
      <trkpt lat="46.71728" lon="-1.97985">
        <ele>4.8</ele>
        <time>2024-12-26T08:25:15.045Z</time>
      </trkpt>
      <trkpt lat="46.71729" lon="-1.97985">
        <ele>4.8</ele>
        <time>2024-12-26T08:25:16.045Z</time>
      </trkpt>
      <trkpt lat="46.7173" lon="-1.97986">
        <ele>4.8</ele>
        <time>2024-12-26T08:25:17.045Z</time>
      </trkpt>
      <trkpt lat="46.71731" lon="-1.97986">
        <ele>4.8</ele>
        <time>2024-12-26T08:25:18.046Z</time>
      </trkpt>
      <trkpt lat="46.71732" lon="-1.97987">
        <ele>4.8</ele>
        <time>2024-12-26T08:25:19.046Z</time>
      </trkpt>
      <trkpt lat="46.71733" lon="-1.97988">
        <ele>4.8</ele>
        <time>2024-12-26T08:25:20.045Z</time>
      </trkpt>
      <trkpt lat="46.71734" lon="-1.9799">
        <ele>4.8</ele>
        <time>2024-12-26T08:25:21.045Z</time>
      </trkpt>
      <trkpt lat="46.71735" lon="-1.97991">
        <ele>4.8</ele>
        <time>2024-12-26T08:25:22.045Z</time>
      </trkpt>
      <trkpt lat="46.71736" lon="-1.97992">
        <ele>4.8</ele>
        <time>2024-12-26T08:25:23.045Z</time>
      </trkpt>
      <trkpt lat="46.71738" lon="-1.97992">
        <ele>4.9</ele>
        <time>2024-12-26T08:25:24.046Z</time>
      </trkpt>
      <trkpt lat="46.71739" lon="-1.97992">
        <ele>4.9</ele>
        <time>2024-12-26T08:25:25.046Z</time>
      </trkpt>
      <trkpt lat="46.71741" lon="-1.97993">
        <ele>4.9</ele>
        <time>2024-12-26T08:25:26.045Z</time>
      </trkpt>
      <trkpt lat="46.71741" lon="-1.97993">
        <ele>4.9</ele>
        <time>2024-12-26T08:25:27.046Z</time>
      </trkpt>
      <trkpt lat="46.71742" lon="-1.97994">
        <ele>5</ele>
        <time>2024-12-26T08:25:28.046Z</time>
      </trkpt>
      <trkpt lat="46.71744" lon="-1.97995">
        <ele>5</ele>
        <time>2024-12-26T08:25:29.045Z</time>
      </trkpt>
      <trkpt lat="46.71745" lon="-1.97997">
        <ele>4.9</ele>
        <time>2024-12-26T08:25:30.045Z</time>
      </trkpt>
      <trkpt lat="46.71746" lon="-1.97998">
        <ele>4.9</ele>
        <time>2024-12-26T08:25:31.045Z</time>
      </trkpt>
      <trkpt lat="46.71747" lon="-1.97998">
        <ele>4.9</ele>
        <time>2024-12-26T08:25:32.045Z</time>
      </trkpt>
      <trkpt lat="46.71748" lon="-1.97999">
        <ele>5</ele>
        <time>2024-12-26T08:25:33.046Z</time>
      </trkpt>
      <trkpt lat="46.71749" lon="-1.97999">
        <ele>5</ele>
        <time>2024-12-26T08:25:34.046Z</time>
      </trkpt>
      <trkpt lat="46.7175" lon="-1.97999">
        <ele>5</ele>
        <time>2024-12-26T08:25:35.046Z</time>
      </trkpt>
      <trkpt lat="46.71752" lon="-1.97999">
        <ele>5</ele>
        <time>2024-12-26T08:25:36.046Z</time>
      </trkpt>
      <trkpt lat="46.71753" lon="-1.97999">
        <ele>5</ele>
        <time>2024-12-26T08:25:37.046Z</time>
      </trkpt>
      <trkpt lat="46.71754" lon="-1.98">
        <ele>5</ele>
        <time>2024-12-26T08:25:38.046Z</time>
      </trkpt>
      <trkpt lat="46.71755" lon="-1.98001">
        <ele>4.9</ele>
        <time>2024-12-26T08:25:39.046Z</time>
      </trkpt>
      <trkpt lat="46.71756" lon="-1.98002">
        <ele>4.8</ele>
        <time>2024-12-26T08:25:40.046Z</time>
      </trkpt>
      <trkpt lat="46.71758" lon="-1.98003">
        <ele>4.7</ele>
        <time>2024-12-26T08:25:41.046Z</time>
      </trkpt>
      <trkpt lat="46.71759" lon="-1.98004">
        <ele>4.7</ele>
        <time>2024-12-26T08:25:42.046Z</time>
      </trkpt>
      <trkpt lat="46.7176" lon="-1.98004">
        <ele>4.7</ele>
        <time>2024-12-26T08:25:43.046Z</time>
      </trkpt>
      <trkpt lat="46.71761" lon="-1.98005">
        <ele>4.6</ele>
        <time>2024-12-26T08:25:44.045Z</time>
      </trkpt>
      <trkpt lat="46.71762" lon="-1.98006">
        <ele>4.5</ele>
        <time>2024-12-26T08:25:45.045Z</time>
      </trkpt>
      <trkpt lat="46.71763" lon="-1.98007">
        <ele>4.5</ele>
        <time>2024-12-26T08:25:46.045Z</time>
      </trkpt>
      <trkpt lat="46.71764" lon="-1.98007">
        <ele>4.5</ele>
        <time>2024-12-26T08:25:47.045Z</time>
      </trkpt>
      <trkpt lat="46.71765" lon="-1.98008">
        <ele>4.5</ele>
        <time>2024-12-26T08:25:48.046Z</time>
      </trkpt>
      <trkpt lat="46.71767" lon="-1.98008">
        <ele>4.5</ele>
        <time>2024-12-26T08:25:49.045Z</time>
      </trkpt>
      <trkpt lat="46.71768" lon="-1.98009">
        <ele>4.5</ele>
        <time>2024-12-26T08:25:50.046Z</time>
      </trkpt>
      <trkpt lat="46.71768" lon="-1.9801">
        <ele>4.4</ele>
        <time>2024-12-26T08:25:51.046Z</time>
      </trkpt>
      <trkpt lat="46.7177" lon="-1.9801">
        <ele>4.4</ele>
        <time>2024-12-26T08:25:52.046Z</time>
      </trkpt>
      <trkpt lat="46.7177" lon="-1.98011">
        <ele>4.4</ele>
        <time>2024-12-26T08:25:53.046Z</time>
      </trkpt>
      <trkpt lat="46.71772" lon="-1.98011">
        <ele>4.4</ele>
        <time>2024-12-26T08:25:54.046Z</time>
      </trkpt>
      <trkpt lat="46.71772" lon="-1.98011">
        <ele>4.4</ele>
        <time>2024-12-26T08:25:55.046Z</time>
      </trkpt>
      <trkpt lat="46.71773" lon="-1.98012">
        <ele>4.4</ele>
        <time>2024-12-26T08:25:56.045Z</time>
      </trkpt>
      <trkpt lat="46.71774" lon="-1.98012">
        <ele>4.5</ele>
        <time>2024-12-26T08:25:57.045Z</time>
      </trkpt>
      <trkpt lat="46.71776" lon="-1.98013">
        <ele>4.5</ele>
        <time>2024-12-26T08:25:58.046Z</time>
      </trkpt>
      <trkpt lat="46.71777" lon="-1.98014">
        <ele>4.5</ele>
        <time>2024-12-26T08:25:59.046Z</time>
      </trkpt>
      <trkpt lat="46.71777" lon="-1.98015">
        <ele>4.4</ele>
        <time>2024-12-26T08:26:00.046Z</time>
      </trkpt>
      <trkpt lat="46.71778" lon="-1.98017">
        <ele>4.4</ele>
        <time>2024-12-26T08:26:01.046Z</time>
      </trkpt>
      <trkpt lat="46.71779" lon="-1.98017">
        <ele>4.4</ele>
        <time>2024-12-26T08:26:02.045Z</time>
      </trkpt>
      <trkpt lat="46.71781" lon="-1.98017">
        <ele>4.5</ele>
        <time>2024-12-26T08:26:03.045Z</time>
      </trkpt>
      <trkpt lat="46.71782" lon="-1.98019">
        <ele>4.5</ele>
        <time>2024-12-26T08:26:04.046Z</time>
      </trkpt>
      <trkpt lat="46.71783" lon="-1.9802">
        <ele>4.5</ele>
        <time>2024-12-26T08:26:05.046Z</time>
      </trkpt>
      <trkpt lat="46.71785" lon="-1.9802">
        <ele>4.5</ele>
        <time>2024-12-26T08:26:06.045Z</time>
      </trkpt>
      <trkpt lat="46.71786" lon="-1.98021">
        <ele>4.5</ele>
        <time>2024-12-26T08:26:07.045Z</time>
      </trkpt>
      <trkpt lat="46.71787" lon="-1.98022">
        <ele>4.6</ele>
        <time>2024-12-26T08:26:08.045Z</time>
      </trkpt>
      <trkpt lat="46.71788" lon="-1.98022">
        <ele>4.6</ele>
        <time>2024-12-26T08:26:09.046Z</time>
      </trkpt>
      <trkpt lat="46.7179" lon="-1.98023">
        <ele>4.6</ele>
        <time>2024-12-26T08:26:10.046Z</time>
      </trkpt>
      <trkpt lat="46.71791" lon="-1.98023">
        <ele>4.6</ele>
        <time>2024-12-26T08:26:11.045Z</time>
      </trkpt>
      <trkpt lat="46.71792" lon="-1.98025">
        <ele>4.6</ele>
        <time>2024-12-26T08:26:12.045Z</time>
      </trkpt>
      <trkpt lat="46.71793" lon="-1.98025">
        <ele>4.6</ele>
        <time>2024-12-26T08:26:13.045Z</time>
      </trkpt>
      <trkpt lat="46.71794" lon="-1.98026">
        <ele>4.6</ele>
        <time>2024-12-26T08:26:14.045Z</time>
      </trkpt>
      <trkpt lat="46.71795" lon="-1.98027">
        <ele>4.6</ele>
        <time>2024-12-26T08:26:15.045Z</time>
      </trkpt>
      <trkpt lat="46.71796" lon="-1.98027">
        <ele>4.7</ele>
        <time>2024-12-26T08:26:16.046Z</time>
      </trkpt>
      <trkpt lat="46.71797" lon="-1.98028">
        <ele>4.7</ele>
        <time>2024-12-26T08:26:17.046Z</time>
      </trkpt>
      <trkpt lat="46.71798" lon="-1.98028">
        <ele>4.7</ele>
        <time>2024-12-26T08:26:18.046Z</time>
      </trkpt>
      <trkpt lat="46.71799" lon="-1.98029">
        <ele>4.7</ele>
        <time>2024-12-26T08:26:19.046Z</time>
      </trkpt>
      <trkpt lat="46.71801" lon="-1.98029">
        <ele>4.7</ele>
        <time>2024-12-26T08:26:20.045Z</time>
      </trkpt>
      <trkpt lat="46.71802" lon="-1.98031">
        <ele>4.7</ele>
        <time>2024-12-26T08:26:21.046Z</time>
      </trkpt>
      <trkpt lat="46.71803" lon="-1.98031">
        <ele>4.6</ele>
        <time>2024-12-26T08:26:22.046Z</time>
      </trkpt>
      <trkpt lat="46.71804" lon="-1.98032">
        <ele>4.7</ele>
        <time>2024-12-26T08:26:23.046Z</time>
      </trkpt>
      <trkpt lat="46.71806" lon="-1.98032">
        <ele>4.7</ele>
        <time>2024-12-26T08:26:24.045Z</time>
      </trkpt>
      <trkpt lat="46.71807" lon="-1.98032">
        <ele>4.7</ele>
        <time>2024-12-26T08:26:25.045Z</time>
      </trkpt>
      <trkpt lat="46.71809" lon="-1.98033">
        <ele>4.8</ele>
        <time>2024-12-26T08:26:26.045Z</time>
      </trkpt>
      <trkpt lat="46.7181" lon="-1.98034">
        <ele>4.8</ele>
        <time>2024-12-26T08:26:27.045Z</time>
      </trkpt>
      <trkpt lat="46.71811" lon="-1.98034">
        <ele>4.8</ele>
        <time>2024-12-26T08:26:28.045Z</time>
      </trkpt>
      <trkpt lat="46.71812" lon="-1.98035">
        <ele>4.8</ele>
        <time>2024-12-26T08:26:29.046Z</time>
      </trkpt>
      <trkpt lat="46.71813" lon="-1.98036">
        <ele>4.8</ele>
        <time>2024-12-26T08:26:30.046Z</time>
      </trkpt>
      <trkpt lat="46.71814" lon="-1.98037">
        <ele>4.7</ele>
        <time>2024-12-26T08:26:31.046Z</time>
      </trkpt>
      <trkpt lat="46.71815" lon="-1.98039">
        <ele>4.7</ele>
        <time>2024-12-26T08:26:32.045Z</time>
      </trkpt>
      <trkpt lat="46.71816" lon="-1.9804">
        <ele>4.7</ele>
        <time>2024-12-26T08:26:33.046Z</time>
      </trkpt>
      <trkpt lat="46.71818" lon="-1.98041">
        <ele>4.7</ele>
        <time>2024-12-26T08:26:34.045Z</time>
      </trkpt>
      <trkpt lat="46.71819" lon="-1.98041">
        <ele>4.7</ele>
        <time>2024-12-26T08:26:35.045Z</time>
      </trkpt>
      <trkpt lat="46.7182" lon="-1.98042">
        <ele>4.8</ele>
        <time>2024-12-26T08:26:36.046Z</time>
      </trkpt>
      <trkpt lat="46.71821" lon="-1.98042">
        <ele>4.8</ele>
        <time>2024-12-26T08:26:37.046Z</time>
      </trkpt>
      <trkpt lat="46.71822" lon="-1.98043">
        <ele>4.9</ele>
        <time>2024-12-26T08:26:38.045Z</time>
      </trkpt>
      <trkpt lat="46.71824" lon="-1.98043">
        <ele>4.9</ele>
        <time>2024-12-26T08:26:39.046Z</time>
      </trkpt>
      <trkpt lat="46.71825" lon="-1.98044">
        <ele>4.9</ele>
        <time>2024-12-26T08:26:40.045Z</time>
      </trkpt>
      <trkpt lat="46.71826" lon="-1.98045">
        <ele>4.9</ele>
        <time>2024-12-26T08:26:41.045Z</time>
      </trkpt>
      <trkpt lat="46.71826" lon="-1.98046">
        <ele>4.9</ele>
        <time>2024-12-26T08:26:42.045Z</time>
      </trkpt>
      <trkpt lat="46.71827" lon="-1.98046">
        <ele>4.9</ele>
        <time>2024-12-26T08:26:43.046Z</time>
      </trkpt>
      <trkpt lat="46.71828" lon="-1.98047">
        <ele>5</ele>
        <time>2024-12-26T08:26:44.045Z</time>
      </trkpt>
      <trkpt lat="46.71829" lon="-1.98048">
        <ele>5</ele>
        <time>2024-12-26T08:26:45.045Z</time>
      </trkpt>
      <trkpt lat="46.7183" lon="-1.98049">
        <ele>5</ele>
        <time>2024-12-26T08:26:46.045Z</time>
      </trkpt>
      <trkpt lat="46.71832" lon="-1.9805">
        <ele>5.1</ele>
        <time>2024-12-26T08:26:47.045Z</time>
      </trkpt>
      <trkpt lat="46.71833" lon="-1.98051">
        <ele>5.1</ele>
        <time>2024-12-26T08:26:48.046Z</time>
      </trkpt>
      <trkpt lat="46.71834" lon="-1.98052">
        <ele>5.1</ele>
        <time>2024-12-26T08:26:49.046Z</time>
      </trkpt>
      <trkpt lat="46.71835" lon="-1.98053">
        <ele>5.1</ele>
        <time>2024-12-26T08:26:50.046Z</time>
      </trkpt>
      <trkpt lat="46.71836" lon="-1.98055">
        <ele>5</ele>
        <time>2024-12-26T08:26:51.046Z</time>
      </trkpt>
      <trkpt lat="46.71837" lon="-1.98055">
        <ele>5</ele>
        <time>2024-12-26T08:26:52.046Z</time>
      </trkpt>
      <trkpt lat="46.71838" lon="-1.98056">
        <ele>5</ele>
        <time>2024-12-26T08:26:53.045Z</time>
      </trkpt>
      <trkpt lat="46.71839" lon="-1.98057">
        <ele>4.9</ele>
        <time>2024-12-26T08:26:54.045Z</time>
      </trkpt>
      <trkpt lat="46.7184" lon="-1.98057">
        <ele>4.9</ele>
        <time>2024-12-26T08:26:55.045Z</time>
      </trkpt>
      <trkpt lat="46.71841" lon="-1.98058">
        <ele>4.9</ele>
        <time>2024-12-26T08:26:56.046Z</time>
      </trkpt>
      <trkpt lat="46.71842" lon="-1.98059">
        <ele>4.8</ele>
        <time>2024-12-26T08:26:57.046Z</time>
      </trkpt>
      <trkpt lat="46.71843" lon="-1.98059">
        <ele>4.8</ele>
        <time>2024-12-26T08:26:58.045Z</time>
      </trkpt>
      <trkpt lat="46.71844" lon="-1.9806">
        <ele>4.7</ele>
        <time>2024-12-26T08:26:59.045Z</time>
      </trkpt>
      <trkpt lat="46.71845" lon="-1.98061">
        <ele>4.7</ele>
        <time>2024-12-26T08:27:00.045Z</time>
      </trkpt>
      <trkpt lat="46.71846" lon="-1.98062">
        <ele>4.6</ele>
        <time>2024-12-26T08:27:01.046Z</time>
      </trkpt>
      <trkpt lat="46.71847" lon="-1.98063">
        <ele>4.6</ele>
        <time>2024-12-26T08:27:02.046Z</time>
      </trkpt>
      <trkpt lat="46.71849" lon="-1.98064">
        <ele>4.6</ele>
        <time>2024-12-26T08:27:03.046Z</time>
      </trkpt>
      <trkpt lat="46.7185" lon="-1.98064">
        <ele>4.6</ele>
        <time>2024-12-26T08:27:04.045Z</time>
      </trkpt>
      <trkpt lat="46.71851" lon="-1.98065">
        <ele>4.5</ele>
        <time>2024-12-26T08:27:05.046Z</time>
      </trkpt>
      <trkpt lat="46.71852" lon="-1.98066">
        <ele>4.5</ele>
        <time>2024-12-26T08:27:06.046Z</time>
      </trkpt>
      <trkpt lat="46.71854" lon="-1.98067">
        <ele>4.5</ele>
        <time>2024-12-26T08:27:07.045Z</time>
      </trkpt>
      <trkpt lat="46.71855" lon="-1.98067">
        <ele>4.5</ele>
        <time>2024-12-26T08:27:08.046Z</time>
      </trkpt>
      <trkpt lat="46.71856" lon="-1.98068">
        <ele>4.5</ele>
        <time>2024-12-26T08:27:09.046Z</time>
      </trkpt>
      <trkpt lat="46.71857" lon="-1.98069">
        <ele>4.5</ele>
        <time>2024-12-26T08:27:10.046Z</time>
      </trkpt>
      <trkpt lat="46.71858" lon="-1.98069">
        <ele>4.4</ele>
        <time>2024-12-26T08:27:11.046Z</time>
      </trkpt>
      <trkpt lat="46.71859" lon="-1.9807">
        <ele>4.4</ele>
        <time>2024-12-26T08:27:12.046Z</time>
      </trkpt>
      <trkpt lat="46.7186" lon="-1.98071">
        <ele>4.4</ele>
        <time>2024-12-26T08:27:13.045Z</time>
      </trkpt>
      <trkpt lat="46.71861" lon="-1.98072">
        <ele>4.4</ele>
        <time>2024-12-26T08:27:14.045Z</time>
      </trkpt>
      <trkpt lat="46.71862" lon="-1.98073">
        <ele>4.4</ele>
        <time>2024-12-26T08:27:15.045Z</time>
      </trkpt>
      <trkpt lat="46.71863" lon="-1.98074">
        <ele>4.4</ele>
        <time>2024-12-26T08:27:16.045Z</time>
      </trkpt>
      <trkpt lat="46.71864" lon="-1.98075">
        <ele>4.5</ele>
        <time>2024-12-26T08:27:17.046Z</time>
      </trkpt>
      <trkpt lat="46.71865" lon="-1.98076">
        <ele>4.5</ele>
        <time>2024-12-26T08:27:18.045Z</time>
      </trkpt>
      <trkpt lat="46.71866" lon="-1.98077">
        <ele>4.5</ele>
        <time>2024-12-26T08:27:19.045Z</time>
      </trkpt>
      <trkpt lat="46.71867" lon="-1.98078">
        <ele>4.5</ele>
        <time>2024-12-26T08:27:20.045Z</time>
      </trkpt>
      <trkpt lat="46.71868" lon="-1.98078">
        <ele>4.5</ele>
        <time>2024-12-26T08:27:21.045Z</time>
      </trkpt>
      <trkpt lat="46.71869" lon="-1.98079">
        <ele>4.5</ele>
        <time>2024-12-26T08:27:22.046Z</time>
      </trkpt>
      <trkpt lat="46.7187" lon="-1.9808">
        <ele>4.5</ele>
        <time>2024-12-26T08:27:23.045Z</time>
      </trkpt>
      <trkpt lat="46.7187" lon="-1.98082">
        <ele>4.4</ele>
        <time>2024-12-26T08:27:24.045Z</time>
      </trkpt>
      <trkpt lat="46.71871" lon="-1.98083">
        <ele>4.4</ele>
        <time>2024-12-26T08:27:25.045Z</time>
      </trkpt>
      <trkpt lat="46.71873" lon="-1.98084">
        <ele>4.4</ele>
        <time>2024-12-26T08:27:26.046Z</time>
      </trkpt>
      <trkpt lat="46.71874" lon="-1.98085">
        <ele>4.4</ele>
        <time>2024-12-26T08:27:27.046Z</time>
      </trkpt>
      <trkpt lat="46.71876" lon="-1.98085">
        <ele>4.5</ele>
        <time>2024-12-26T08:27:28.045Z</time>
      </trkpt>
      <trkpt lat="46.71877" lon="-1.98086">
        <ele>4.5</ele>
        <time>2024-12-26T08:27:29.045Z</time>
      </trkpt>
      <trkpt lat="46.71879" lon="-1.98086">
        <ele>4.5</ele>
        <time>2024-12-26T08:27:30.045Z</time>
      </trkpt>
      <trkpt lat="46.7188" lon="-1.98087">
        <ele>4.5</ele>
        <time>2024-12-26T08:27:31.046Z</time>
      </trkpt>
      <trkpt lat="46.71881" lon="-1.98088">
        <ele>4.6</ele>
        <time>2024-12-26T08:27:32.046Z</time>
      </trkpt>
      <trkpt lat="46.71882" lon="-1.98088">
        <ele>4.6</ele>
        <time>2024-12-26T08:27:33.046Z</time>
      </trkpt>
      <trkpt lat="46.71883" lon="-1.98089">
        <ele>4.6</ele>
        <time>2024-12-26T08:27:34.046Z</time>
      </trkpt>
      <trkpt lat="46.71884" lon="-1.9809">
        <ele>4.6</ele>
        <time>2024-12-26T08:27:35.046Z</time>
      </trkpt>
      <trkpt lat="46.71885" lon="-1.98091">
        <ele>4.6</ele>
        <time>2024-12-26T08:27:36.046Z</time>
      </trkpt>
      <trkpt lat="46.71886" lon="-1.98092">
        <ele>4.6</ele>
        <time>2024-12-26T08:27:37.045Z</time>
      </trkpt>
      <trkpt lat="46.71888" lon="-1.98093">
        <ele>4.6</ele>
        <time>2024-12-26T08:27:38.045Z</time>
      </trkpt>
      <trkpt lat="46.71888" lon="-1.98094">
        <ele>4.6</ele>
        <time>2024-12-26T08:27:39.045Z</time>
      </trkpt>
      <trkpt lat="46.71889" lon="-1.98095">
        <ele>4.6</ele>
        <time>2024-12-26T08:27:40.045Z</time>
      </trkpt>
      <trkpt lat="46.7189" lon="-1.98096">
        <ele>4.6</ele>
        <time>2024-12-26T08:27:41.046Z</time>
      </trkpt>
      <trkpt lat="46.71891" lon="-1.98097">
        <ele>4.6</ele>
        <time>2024-12-26T08:27:42.045Z</time>
      </trkpt>
      <trkpt lat="46.71891" lon="-1.98098">
        <ele>4.6</ele>
        <time>2024-12-26T08:27:43.046Z</time>
      </trkpt>
      <trkpt lat="46.71892" lon="-1.98099">
        <ele>4.6</ele>
        <time>2024-12-26T08:27:44.045Z</time>
      </trkpt>
      <trkpt lat="46.71894" lon="-1.981">
        <ele>4.6</ele>
        <time>2024-12-26T08:27:45.046Z</time>
      </trkpt>
      <trkpt lat="46.71895" lon="-1.98101">
        <ele>4.6</ele>
        <time>2024-12-26T08:27:46.046Z</time>
      </trkpt>
      <trkpt lat="46.71896" lon="-1.98102">
        <ele>4.6</ele>
        <time>2024-12-26T08:27:47.046Z</time>
      </trkpt>
      <trkpt lat="46.71896" lon="-1.98103">
        <ele>4.6</ele>
        <time>2024-12-26T08:27:48.045Z</time>
      </trkpt>
      <trkpt lat="46.71897" lon="-1.98105">
        <ele>4.6</ele>
        <time>2024-12-26T08:27:49.046Z</time>
      </trkpt>
      <trkpt lat="46.71898" lon="-1.98106">
        <ele>4.6</ele>
        <time>2024-12-26T08:27:50.046Z</time>
      </trkpt>
      <trkpt lat="46.71899" lon="-1.98107">
        <ele>4.6</ele>
        <time>2024-12-26T08:27:51.046Z</time>
      </trkpt>
      <trkpt lat="46.719" lon="-1.98108">
        <ele>4.5</ele>
        <time>2024-12-26T08:27:52.046Z</time>
      </trkpt>
      <trkpt lat="46.71901" lon="-1.9811">
        <ele>4.5</ele>
        <time>2024-12-26T08:27:53.046Z</time>
      </trkpt>
      <trkpt lat="46.71902" lon="-1.98111">
        <ele>4.5</ele>
        <time>2024-12-26T08:27:54.046Z</time>
      </trkpt>
      <trkpt lat="46.71903" lon="-1.98112">
        <ele>4.5</ele>
        <time>2024-12-26T08:27:55.045Z</time>
      </trkpt>
      <trkpt lat="46.71904" lon="-1.98113">
        <ele>4.5</ele>
        <time>2024-12-26T08:27:56.045Z</time>
      </trkpt>
      <trkpt lat="46.71906" lon="-1.98114">
        <ele>4.5</ele>
        <time>2024-12-26T08:27:57.045Z</time>
      </trkpt>
      <trkpt lat="46.71907" lon="-1.98115">
        <ele>4.5</ele>
        <time>2024-12-26T08:27:58.045Z</time>
      </trkpt>
      <trkpt lat="46.71908" lon="-1.98116">
        <ele>4.5</ele>
        <time>2024-12-26T08:27:59.045Z</time>
      </trkpt>
      <trkpt lat="46.71909" lon="-1.98117">
        <ele>4.5</ele>
        <time>2024-12-26T08:28:00.045Z</time>
      </trkpt>
      <trkpt lat="46.7191" lon="-1.98117">
        <ele>4.5</ele>
        <time>2024-12-26T08:28:01.046Z</time>
      </trkpt>
      <trkpt lat="46.71911" lon="-1.98118">
        <ele>4.6</ele>
        <time>2024-12-26T08:28:02.046Z</time>
      </trkpt>
      <trkpt lat="46.71912" lon="-1.98118">
        <ele>4.6</ele>
        <time>2024-12-26T08:28:03.046Z</time>
      </trkpt>
      <trkpt lat="46.71913" lon="-1.98119">
        <ele>4.6</ele>
        <time>2024-12-26T08:28:04.046Z</time>
      </trkpt>
      <trkpt lat="46.71913" lon="-1.98119">
        <ele>4.6</ele>
        <time>2024-12-26T08:28:05.046Z</time>
      </trkpt>
      <trkpt lat="46.71914" lon="-1.9812">
        <ele>4.6</ele>
        <time>2024-12-26T08:28:06.046Z</time>
      </trkpt>
      <trkpt lat="46.71916" lon="-1.98121">
        <ele>4.6</ele>
        <time>2024-12-26T08:28:07.046Z</time>
      </trkpt>
      <trkpt lat="46.71917" lon="-1.98122">
        <ele>4.6</ele>
        <time>2024-12-26T08:28:08.046Z</time>
      </trkpt>
      <trkpt lat="46.71918" lon="-1.98124">
        <ele>4.6</ele>
        <time>2024-12-26T08:28:09.046Z</time>
      </trkpt>
      <trkpt lat="46.71919" lon="-1.98125">
        <ele>4.6</ele>
        <time>2024-12-26T08:28:10.045Z</time>
      </trkpt>
      <trkpt lat="46.7192" lon="-1.98127">
        <ele>4.6</ele>
        <time>2024-12-26T08:28:11.046Z</time>
      </trkpt>
      <trkpt lat="46.71921" lon="-1.98128">
        <ele>4.6</ele>
        <time>2024-12-26T08:28:12.046Z</time>
      </trkpt>
      <trkpt lat="46.71922" lon="-1.98128">
        <ele>4.6</ele>
        <time>2024-12-26T08:28:13.046Z</time>
      </trkpt>
      <trkpt lat="46.71923" lon="-1.98129">
        <ele>4.7</ele>
        <time>2024-12-26T08:28:14.046Z</time>
      </trkpt>
      <trkpt lat="46.71924" lon="-1.9813">
        <ele>4.7</ele>
        <time>2024-12-26T08:28:15.045Z</time>
      </trkpt>
      <trkpt lat="46.71925" lon="-1.98131">
        <ele>4.7</ele>
        <time>2024-12-26T08:28:16.045Z</time>
      </trkpt>
      <trkpt lat="46.71926" lon="-1.98131">
        <ele>4.7</ele>
        <time>2024-12-26T08:28:17.045Z</time>
      </trkpt>
      <trkpt lat="46.71927" lon="-1.98132">
        <ele>4.7</ele>
        <time>2024-12-26T08:28:18.045Z</time>
      </trkpt>
      <trkpt lat="46.71928" lon="-1.98133">
        <ele>4.7</ele>
        <time>2024-12-26T08:28:19.045Z</time>
      </trkpt>
      <trkpt lat="46.71929" lon="-1.98134">
        <ele>4.7</ele>
        <time>2024-12-26T08:28:20.046Z</time>
      </trkpt>
      <trkpt lat="46.7193" lon="-1.98135">
        <ele>4.7</ele>
        <time>2024-12-26T08:28:21.045Z</time>
      </trkpt>
      <trkpt lat="46.71931" lon="-1.98136">
        <ele>4.7</ele>
        <time>2024-12-26T08:28:22.045Z</time>
      </trkpt>
      <trkpt lat="46.71932" lon="-1.98136">
        <ele>4.7</ele>
        <time>2024-12-26T08:28:23.046Z</time>
      </trkpt>
      <trkpt lat="46.71933" lon="-1.98137">
        <ele>4.7</ele>
        <time>2024-12-26T08:28:24.046Z</time>
      </trkpt>
      <trkpt lat="46.71934" lon="-1.98138">
        <ele>4.7</ele>
        <time>2024-12-26T08:28:25.046Z</time>
      </trkpt>
      <trkpt lat="46.71935" lon="-1.98139">
        <ele>4.7</ele>
        <time>2024-12-26T08:28:26.046Z</time>
      </trkpt>
      <trkpt lat="46.71936" lon="-1.98141">
        <ele>4.6</ele>
        <time>2024-12-26T08:28:27.046Z</time>
      </trkpt>
      <trkpt lat="46.71937" lon="-1.98142">
        <ele>4.6</ele>
        <time>2024-12-26T08:28:28.046Z</time>
      </trkpt>
      <trkpt lat="46.71939" lon="-1.98143">
        <ele>4.6</ele>
        <time>2024-12-26T08:28:29.046Z</time>
      </trkpt>
      <trkpt lat="46.7194" lon="-1.98144">
        <ele>4.7</ele>
        <time>2024-12-26T08:28:30.045Z</time>
      </trkpt>
      <trkpt lat="46.7194" lon="-1.98145">
        <ele>4.6</ele>
        <time>2024-12-26T08:28:31.046Z</time>
      </trkpt>
      <trkpt lat="46.71941" lon="-1.98146">
        <ele>4.6</ele>
        <time>2024-12-26T08:28:32.045Z</time>
      </trkpt>
      <trkpt lat="46.71942" lon="-1.98147">
        <ele>4.6</ele>
        <time>2024-12-26T08:28:33.045Z</time>
      </trkpt>
      <trkpt lat="46.71942" lon="-1.98149">
        <ele>4.6</ele>
        <time>2024-12-26T08:28:34.045Z</time>
      </trkpt>
      <trkpt lat="46.71943" lon="-1.9815">
        <ele>4.6</ele>
        <time>2024-12-26T08:28:35.046Z</time>
      </trkpt>
      <trkpt lat="46.71944" lon="-1.98151">
        <ele>4.6</ele>
        <time>2024-12-26T08:28:36.046Z</time>
      </trkpt>
      <trkpt lat="46.71946" lon="-1.98151">
        <ele>4.6</ele>
        <time>2024-12-26T08:28:37.045Z</time>
      </trkpt>
      <trkpt lat="46.71947" lon="-1.98152">
        <ele>4.7</ele>
        <time>2024-12-26T08:28:38.045Z</time>
      </trkpt>
      <trkpt lat="46.71948" lon="-1.98153">
        <ele>4.7</ele>
        <time>2024-12-26T08:28:39.045Z</time>
      </trkpt>
      <trkpt lat="46.71948" lon="-1.98154">
        <ele>4.7</ele>
        <time>2024-12-26T08:28:40.045Z</time>
      </trkpt>
      <trkpt lat="46.71949" lon="-1.98155">
        <ele>4.7</ele>
        <time>2024-12-26T08:28:41.046Z</time>
      </trkpt>
      <trkpt lat="46.7195" lon="-1.98156">
        <ele>4.7</ele>
        <time>2024-12-26T08:28:42.045Z</time>
      </trkpt>
      <trkpt lat="46.71951" lon="-1.98157">
        <ele>4.7</ele>
        <time>2024-12-26T08:28:43.046Z</time>
      </trkpt>
      <trkpt lat="46.71952" lon="-1.98157">
        <ele>4.7</ele>
        <time>2024-12-26T08:28:44.046Z</time>
      </trkpt>
      <trkpt lat="46.71953" lon="-1.98159">
        <ele>4.7</ele>
        <time>2024-12-26T08:28:45.046Z</time>
      </trkpt>
      <trkpt lat="46.71954" lon="-1.9816">
        <ele>4.7</ele>
        <time>2024-12-26T08:28:46.046Z</time>
      </trkpt>
      <trkpt lat="46.71955" lon="-1.98161">
        <ele>4.7</ele>
        <time>2024-12-26T08:28:47.045Z</time>
      </trkpt>
      <trkpt lat="46.71956" lon="-1.98162">
        <ele>4.6</ele>
        <time>2024-12-26T08:28:48.046Z</time>
      </trkpt>
      <trkpt lat="46.71957" lon="-1.98163">
        <ele>4.6</ele>
        <time>2024-12-26T08:28:49.046Z</time>
      </trkpt>
      <trkpt lat="46.71958" lon="-1.98164">
        <ele>4.6</ele>
        <time>2024-12-26T08:28:50.045Z</time>
      </trkpt>
      <trkpt lat="46.71959" lon="-1.98166">
        <ele>4.6</ele>
        <time>2024-12-26T08:28:51.046Z</time>
      </trkpt>
      <trkpt lat="46.7196" lon="-1.98167">
        <ele>4.5</ele>
        <time>2024-12-26T08:28:52.045Z</time>
      </trkpt>
      <trkpt lat="46.71961" lon="-1.98168">
        <ele>4.5</ele>
        <time>2024-12-26T08:28:53.046Z</time>
      </trkpt>
      <trkpt lat="46.71962" lon="-1.9817">
        <ele>4.5</ele>
        <time>2024-12-26T08:28:54.045Z</time>
      </trkpt>
      <trkpt lat="46.71963" lon="-1.98171">
        <ele>4.5</ele>
        <time>2024-12-26T08:28:55.046Z</time>
      </trkpt>
      <trkpt lat="46.71963" lon="-1.98172">
        <ele>4.5</ele>
        <time>2024-12-26T08:28:56.046Z</time>
      </trkpt>
      <trkpt lat="46.71964" lon="-1.98173">
        <ele>4.5</ele>
        <time>2024-12-26T08:28:57.046Z</time>
      </trkpt>
      <trkpt lat="46.71965" lon="-1.98175">
        <ele>4.5</ele>
        <time>2024-12-26T08:28:58.045Z</time>
      </trkpt>
      <trkpt lat="46.71966" lon="-1.98176">
        <ele>4.4</ele>
        <time>2024-12-26T08:28:59.046Z</time>
      </trkpt>
      <trkpt lat="46.71967" lon="-1.98177">
        <ele>4.4</ele>
        <time>2024-12-26T08:29:00.046Z</time>
      </trkpt>
      <trkpt lat="46.71968" lon="-1.98178">
        <ele>4.4</ele>
        <time>2024-12-26T08:29:01.045Z</time>
      </trkpt>
      <trkpt lat="46.71969" lon="-1.98179">
        <ele>4.4</ele>
        <time>2024-12-26T08:29:02.046Z</time>
      </trkpt>
      <trkpt lat="46.7197" lon="-1.9818">
        <ele>4.4</ele>
        <time>2024-12-26T08:29:03.046Z</time>
      </trkpt>
      <trkpt lat="46.71972" lon="-1.98182">
        <ele>4.4</ele>
        <time>2024-12-26T08:29:04.045Z</time>
      </trkpt>
      <trkpt lat="46.71973" lon="-1.98182">
        <ele>4.5</ele>
        <time>2024-12-26T08:29:05.046Z</time>
      </trkpt>
      <trkpt lat="46.71974" lon="-1.98183">
        <ele>4.5</ele>
        <time>2024-12-26T08:29:06.046Z</time>
      </trkpt>
      <trkpt lat="46.71975" lon="-1.98184">
        <ele>4.5</ele>
        <time>2024-12-26T08:29:07.046Z</time>
      </trkpt>
      <trkpt lat="46.71976" lon="-1.98185">
        <ele>4.5</ele>
        <time>2024-12-26T08:29:08.045Z</time>
      </trkpt>
      <trkpt lat="46.71977" lon="-1.98186">
        <ele>4.5</ele>
        <time>2024-12-26T08:29:09.045Z</time>
      </trkpt>
      <trkpt lat="46.71978" lon="-1.98187">
        <ele>4.5</ele>
        <time>2024-12-26T08:29:10.046Z</time>
      </trkpt>
      <trkpt lat="46.71979" lon="-1.98187">
        <ele>4.6</ele>
        <time>2024-12-26T08:29:11.045Z</time>
      </trkpt>
      <trkpt lat="46.7198" lon="-1.98188">
        <ele>4.6</ele>
        <time>2024-12-26T08:29:12.045Z</time>
      </trkpt>
      <trkpt lat="46.71981" lon="-1.98188">
        <ele>4.6</ele>
        <time>2024-12-26T08:29:13.046Z</time>
      </trkpt>
      <trkpt lat="46.71982" lon="-1.98189">
        <ele>4.6</ele>
        <time>2024-12-26T08:29:14.045Z</time>
      </trkpt>
      <trkpt lat="46.71983" lon="-1.98189">
        <ele>4.7</ele>
        <time>2024-12-26T08:29:15.045Z</time>
      </trkpt>
      <trkpt lat="46.71985" lon="-1.9819">
        <ele>4.7</ele>
        <time>2024-12-26T08:29:16.046Z</time>
      </trkpt>
      <trkpt lat="46.71986" lon="-1.98191">
        <ele>4.7</ele>
        <time>2024-12-26T08:29:17.045Z</time>
      </trkpt>
      <trkpt lat="46.71987" lon="-1.98192">
        <ele>4.7</ele>
        <time>2024-12-26T08:29:18.045Z</time>
      </trkpt>
      <trkpt lat="46.71988" lon="-1.98192">
        <ele>4.7</ele>
        <time>2024-12-26T08:29:19.045Z</time>
      </trkpt>
      <trkpt lat="46.71989" lon="-1.98193">
        <ele>4.7</ele>
        <time>2024-12-26T08:29:20.045Z</time>
      </trkpt>
      <trkpt lat="46.7199" lon="-1.98194">
        <ele>4.7</ele>
        <time>2024-12-26T08:29:21.046Z</time>
      </trkpt>
      <trkpt lat="46.71991" lon="-1.98195">
        <ele>4.7</ele>
        <time>2024-12-26T08:29:22.046Z</time>
      </trkpt>
      <trkpt lat="46.71992" lon="-1.98196">
        <ele>4.7</ele>
        <time>2024-12-26T08:29:23.045Z</time>
      </trkpt>
      <trkpt lat="46.71993" lon="-1.98196">
        <ele>4.7</ele>
        <time>2024-12-26T08:29:24.045Z</time>
      </trkpt>
      <trkpt lat="46.71994" lon="-1.98196">
        <ele>4.7</ele>
        <time>2024-12-26T08:29:25.046Z</time>
      </trkpt>
      <trkpt lat="46.71995" lon="-1.98197">
        <ele>4.7</ele>
        <time>2024-12-26T08:29:26.046Z</time>
      </trkpt>
      <trkpt lat="46.71996" lon="-1.98197">
        <ele>4.8</ele>
        <time>2024-12-26T08:29:27.045Z</time>
      </trkpt>
      <trkpt lat="46.71998" lon="-1.98198">
        <ele>4.8</ele>
        <time>2024-12-26T08:29:28.046Z</time>
      </trkpt>
      <trkpt lat="46.71999" lon="-1.98198">
        <ele>4.8</ele>
        <time>2024-12-26T08:29:29.045Z</time>
      </trkpt>
      <trkpt lat="46.72" lon="-1.98199">
        <ele>4.8</ele>
        <time>2024-12-26T08:29:30.046Z</time>
      </trkpt>
      <trkpt lat="46.72001" lon="-1.98199">
        <ele>4.9</ele>
        <time>2024-12-26T08:29:31.045Z</time>
      </trkpt>
      <trkpt lat="46.72002" lon="-1.982">
        <ele>5</ele>
        <time>2024-12-26T08:29:32.045Z</time>
      </trkpt>
      <trkpt lat="46.72002" lon="-1.982">
        <ele>5</ele>
        <time>2024-12-26T08:29:33.045Z</time>
      </trkpt>
      <trkpt lat="46.72003" lon="-1.982">
        <ele>5.1</ele>
        <time>2024-12-26T08:29:34.046Z</time>
      </trkpt>
      <trkpt lat="46.72004" lon="-1.98201">
        <ele>5.1</ele>
        <time>2024-12-26T08:29:35.046Z</time>
      </trkpt>
      <trkpt lat="46.72005" lon="-1.98201">
        <ele>5.2</ele>
        <time>2024-12-26T08:29:36.046Z</time>
      </trkpt>
      <trkpt lat="46.72007" lon="-1.98201">
        <ele>5.4</ele>
        <time>2024-12-26T08:29:37.045Z</time>
      </trkpt>
      <trkpt lat="46.72008" lon="-1.98201">
        <ele>5.5</ele>
        <time>2024-12-26T08:29:38.045Z</time>
      </trkpt>
      <trkpt lat="46.72009" lon="-1.98201">
        <ele>5.6</ele>
        <time>2024-12-26T08:29:39.046Z</time>
      </trkpt>
      <trkpt lat="46.7201" lon="-1.98202">
        <ele>5.6</ele>
        <time>2024-12-26T08:29:40.046Z</time>
      </trkpt>
      <trkpt lat="46.72011" lon="-1.98202">
        <ele>5.7</ele>
        <time>2024-12-26T08:29:41.045Z</time>
      </trkpt>
      <trkpt lat="46.72011" lon="-1.98202">
        <ele>5.7</ele>
        <time>2024-12-26T08:29:42.045Z</time>
      </trkpt>
      <trkpt lat="46.72012" lon="-1.98202">
        <ele>5.8</ele>
        <time>2024-12-26T08:29:43.045Z</time>
      </trkpt>
      <trkpt lat="46.72014" lon="-1.98203">
        <ele>5.9</ele>
        <time>2024-12-26T08:29:44.045Z</time>
      </trkpt>
      <trkpt lat="46.72015" lon="-1.98204">
        <ele>5.9</ele>
        <time>2024-12-26T08:29:45.045Z</time>
      </trkpt>
      <trkpt lat="46.72016" lon="-1.98204">
        <ele>6</ele>
        <time>2024-12-26T08:29:46.046Z</time>
      </trkpt>
      <trkpt lat="46.72017" lon="-1.98205">
        <ele>6</ele>
        <time>2024-12-26T08:29:47.046Z</time>
      </trkpt>
      <trkpt lat="46.72018" lon="-1.98205">
        <ele>6.1</ele>
        <time>2024-12-26T08:29:48.045Z</time>
      </trkpt>
      <trkpt lat="46.72019" lon="-1.98205">
        <ele>6.2</ele>
        <time>2024-12-26T08:29:49.045Z</time>
      </trkpt>
      <trkpt lat="46.72021" lon="-1.98205">
        <ele>6.3</ele>
        <time>2024-12-26T08:29:50.045Z</time>
      </trkpt>
      <trkpt lat="46.72021" lon="-1.98205">
        <ele>6.3</ele>
        <time>2024-12-26T08:29:51.045Z</time>
      </trkpt>
      <trkpt lat="46.72022" lon="-1.98205">
        <ele>6.3</ele>
        <time>2024-12-26T08:29:52.046Z</time>
      </trkpt>
      <trkpt lat="46.72023" lon="-1.98205">
        <ele>6.5</ele>
        <time>2024-12-26T08:29:53.046Z</time>
      </trkpt>
      <trkpt lat="46.72024" lon="-1.98205">
        <ele>6.6</ele>
        <time>2024-12-26T08:29:54.045Z</time>
      </trkpt>
      <trkpt lat="46.72025" lon="-1.98205">
        <ele>6.7</ele>
        <time>2024-12-26T08:29:55.046Z</time>
      </trkpt>
      <trkpt lat="46.72027" lon="-1.98205">
        <ele>6.8</ele>
        <time>2024-12-26T08:29:56.045Z</time>
      </trkpt>
      <trkpt lat="46.72028" lon="-1.98205">
        <ele>6.9</ele>
        <time>2024-12-26T08:29:57.045Z</time>
      </trkpt>
      <trkpt lat="46.72029" lon="-1.98205">
        <ele>6.9</ele>
        <time>2024-12-26T08:29:58.046Z</time>
      </trkpt>
      <trkpt lat="46.7203" lon="-1.98205">
        <ele>7</ele>
        <time>2024-12-26T08:29:59.046Z</time>
      </trkpt>
      <trkpt lat="46.72031" lon="-1.98205">
        <ele>7</ele>
        <time>2024-12-26T08:30:00.045Z</time>
      </trkpt>
      <trkpt lat="46.72033" lon="-1.98205">
        <ele>7.1</ele>
        <time>2024-12-26T08:30:01.045Z</time>
      </trkpt>
      <trkpt lat="46.72034" lon="-1.98205">
        <ele>7.1</ele>
        <time>2024-12-26T08:30:02.045Z</time>
      </trkpt>
      <trkpt lat="46.72035" lon="-1.98206">
        <ele>7.1</ele>
        <time>2024-12-26T08:30:03.046Z</time>
      </trkpt>
      <trkpt lat="46.72037" lon="-1.98206">
        <ele>7.2</ele>
        <time>2024-12-26T08:30:04.045Z</time>
      </trkpt>
      <trkpt lat="46.72038" lon="-1.98206">
        <ele>7.2</ele>
        <time>2024-12-26T08:30:05.045Z</time>
      </trkpt>
      <trkpt lat="46.72039" lon="-1.98206">
        <ele>7.2</ele>
        <time>2024-12-26T08:30:06.045Z</time>
      </trkpt>
      <trkpt lat="46.72041" lon="-1.98206">
        <ele>7.3</ele>
        <time>2024-12-26T08:30:07.045Z</time>
      </trkpt>
      <trkpt lat="46.72042" lon="-1.98206">
        <ele>7.4</ele>
        <time>2024-12-26T08:30:08.045Z</time>
      </trkpt>
      <trkpt lat="46.72043" lon="-1.98205">
        <ele>7.5</ele>
        <time>2024-12-26T08:30:09.045Z</time>
      </trkpt>
      <trkpt lat="46.72044" lon="-1.98204">
        <ele>7.6</ele>
        <time>2024-12-26T08:30:10.045Z</time>
      </trkpt>
      <trkpt lat="46.72045" lon="-1.98203">
        <ele>7.7</ele>
        <time>2024-12-26T08:30:11.045Z</time>
      </trkpt>
      <trkpt lat="46.72046" lon="-1.98201">
        <ele>7.7</ele>
        <time>2024-12-26T08:30:12.045Z</time>
      </trkpt>
      <trkpt lat="46.72046" lon="-1.982">
        <ele>7.8</ele>
        <time>2024-12-26T08:30:13.045Z</time>
      </trkpt>
      <trkpt lat="46.72048" lon="-1.98199">
        <ele>7.9</ele>
        <time>2024-12-26T08:30:14.045Z</time>
      </trkpt>
      <trkpt lat="46.72049" lon="-1.98198">
        <ele>7.9</ele>
        <time>2024-12-26T08:30:15.046Z</time>
      </trkpt>
      <trkpt lat="46.7205" lon="-1.98197">
        <ele>7.9</ele>
        <time>2024-12-26T08:30:16.046Z</time>
      </trkpt>
      <trkpt lat="46.72051" lon="-1.98196">
        <ele>8</ele>
        <time>2024-12-26T08:30:17.046Z</time>
      </trkpt>
      <trkpt lat="46.72052" lon="-1.98196">
        <ele>8</ele>
        <time>2024-12-26T08:30:18.046Z</time>
      </trkpt>
      <trkpt lat="46.72053" lon="-1.98195">
        <ele>8</ele>
        <time>2024-12-26T08:30:19.045Z</time>
      </trkpt>
      <trkpt lat="46.72055" lon="-1.98194">
        <ele>8</ele>
        <time>2024-12-26T08:30:20.045Z</time>
      </trkpt>
      <trkpt lat="46.72056" lon="-1.98193">
        <ele>8</ele>
        <time>2024-12-26T08:30:21.045Z</time>
      </trkpt>
      <trkpt lat="46.72057" lon="-1.98192">
        <ele>7.9</ele>
        <time>2024-12-26T08:30:22.045Z</time>
      </trkpt>
      <trkpt lat="46.72058" lon="-1.98191">
        <ele>7.9</ele>
        <time>2024-12-26T08:30:23.045Z</time>
      </trkpt>
      <trkpt lat="46.72059" lon="-1.9819">
        <ele>7.9</ele>
        <time>2024-12-26T08:30:24.045Z</time>
      </trkpt>
      <trkpt lat="46.72061" lon="-1.98189">
        <ele>7.8</ele>
        <time>2024-12-26T08:30:25.045Z</time>
      </trkpt>
      <trkpt lat="46.72062" lon="-1.98187">
        <ele>7.8</ele>
        <time>2024-12-26T08:30:26.046Z</time>
      </trkpt>
      <trkpt lat="46.72062" lon="-1.98186">
        <ele>7.8</ele>
        <time>2024-12-26T08:30:27.046Z</time>
      </trkpt>
      <trkpt lat="46.72063" lon="-1.98185">
        <ele>7.7</ele>
        <time>2024-12-26T08:30:28.046Z</time>
      </trkpt>
      <trkpt lat="46.72065" lon="-1.98183">
        <ele>7.7</ele>
        <time>2024-12-26T08:30:29.046Z</time>
      </trkpt>
      <trkpt lat="46.72066" lon="-1.98182">
        <ele>7.6</ele>
        <time>2024-12-26T08:30:30.045Z</time>
      </trkpt>
      <trkpt lat="46.72067" lon="-1.98181">
        <ele>7.6</ele>
        <time>2024-12-26T08:30:31.045Z</time>
      </trkpt>
      <trkpt lat="46.72068" lon="-1.9818">
        <ele>7.6</ele>
        <time>2024-12-26T08:30:32.046Z</time>
      </trkpt>
      <trkpt lat="46.72069" lon="-1.98179">
        <ele>7.5</ele>
        <time>2024-12-26T08:30:33.045Z</time>
      </trkpt>
      <trkpt lat="46.7207" lon="-1.98178">
        <ele>7.5</ele>
        <time>2024-12-26T08:30:34.045Z</time>
      </trkpt>
      <trkpt lat="46.72071" lon="-1.98177">
        <ele>7.4</ele>
        <time>2024-12-26T08:30:35.045Z</time>
      </trkpt>
      <trkpt lat="46.72072" lon="-1.98176">
        <ele>7.4</ele>
        <time>2024-12-26T08:30:36.045Z</time>
      </trkpt>
      <trkpt lat="46.72073" lon="-1.98175">
        <ele>7.4</ele>
        <time>2024-12-26T08:30:37.045Z</time>
      </trkpt>
      <trkpt lat="46.72075" lon="-1.98174">
        <ele>7.3</ele>
        <time>2024-12-26T08:30:38.045Z</time>
      </trkpt>
      <trkpt lat="46.72076" lon="-1.98172">
        <ele>7.3</ele>
        <time>2024-12-26T08:30:39.045Z</time>
      </trkpt>
      <trkpt lat="46.72077" lon="-1.98171">
        <ele>7.2</ele>
        <time>2024-12-26T08:30:40.046Z</time>
      </trkpt>
      <trkpt lat="46.72078" lon="-1.9817">
        <ele>7.2</ele>
        <time>2024-12-26T08:30:41.046Z</time>
      </trkpt>
      <trkpt lat="46.72079" lon="-1.98169">
        <ele>7.2</ele>
        <time>2024-12-26T08:30:42.046Z</time>
      </trkpt>
      <trkpt lat="46.7208" lon="-1.98168">
        <ele>7.1</ele>
        <time>2024-12-26T08:30:43.045Z</time>
      </trkpt>
      <trkpt lat="46.72081" lon="-1.98167">
        <ele>7.1</ele>
        <time>2024-12-26T08:30:44.045Z</time>
      </trkpt>
      <trkpt lat="46.72082" lon="-1.98166">
        <ele>7</ele>
        <time>2024-12-26T08:30:45.045Z</time>
      </trkpt>
      <trkpt lat="46.72083" lon="-1.98165">
        <ele>6.9</ele>
        <time>2024-12-26T08:30:46.045Z</time>
      </trkpt>
      <trkpt lat="46.72084" lon="-1.98164">
        <ele>6.9</ele>
        <time>2024-12-26T08:30:47.046Z</time>
      </trkpt>
      <trkpt lat="46.72085" lon="-1.98163">
        <ele>6.8</ele>
        <time>2024-12-26T08:30:48.045Z</time>
      </trkpt>
      <trkpt lat="46.72086" lon="-1.98161">
        <ele>6.7</ele>
        <time>2024-12-26T08:30:49.045Z</time>
      </trkpt>
      <trkpt lat="46.72087" lon="-1.9816">
        <ele>6.7</ele>
        <time>2024-12-26T08:30:50.046Z</time>
      </trkpt>
      <trkpt lat="46.72088" lon="-1.9816">
        <ele>6.6</ele>
        <time>2024-12-26T08:30:51.045Z</time>
      </trkpt>
      <trkpt lat="46.72089" lon="-1.98159">
        <ele>6.6</ele>
        <time>2024-12-26T08:30:52.046Z</time>
      </trkpt>
      <trkpt lat="46.7209" lon="-1.98158">
        <ele>6.5</ele>
        <time>2024-12-26T08:30:53.046Z</time>
      </trkpt>
      <trkpt lat="46.72091" lon="-1.98157">
        <ele>6.5</ele>
        <time>2024-12-26T08:30:54.046Z</time>
      </trkpt>
      <trkpt lat="46.72091" lon="-1.98156">
        <ele>6.4</ele>
        <time>2024-12-26T08:30:55.046Z</time>
      </trkpt>
      <trkpt lat="46.72092" lon="-1.98156">
        <ele>6.4</ele>
        <time>2024-12-26T08:30:56.045Z</time>
      </trkpt>
      <trkpt lat="46.72094" lon="-1.98155">
        <ele>6.4</ele>
        <time>2024-12-26T08:30:57.046Z</time>
      </trkpt>
      <trkpt lat="46.72095" lon="-1.98155">
        <ele>6.3</ele>
        <time>2024-12-26T08:30:58.046Z</time>
      </trkpt>
      <trkpt lat="46.72097" lon="-1.98155">
        <ele>6.3</ele>
        <time>2024-12-26T08:30:59.045Z</time>
      </trkpt>
      <trkpt lat="46.72097" lon="-1.98156">
        <ele>6.3</ele>
        <time>2024-12-26T08:31:00.045Z</time>
      </trkpt>
      <trkpt lat="46.72098" lon="-1.98156">
        <ele>6.3</ele>
        <time>2024-12-26T08:31:01.045Z</time>
      </trkpt>
      <trkpt lat="46.72098" lon="-1.98156">
        <ele>6.3</ele>
        <time>2024-12-26T08:31:02.046Z</time>
      </trkpt>
      <trkpt lat="46.72098" lon="-1.98156">
        <ele>6.3</ele>
        <time>2024-12-26T08:31:03.045Z</time>
      </trkpt>
      <trkpt lat="46.72098" lon="-1.98156">
        <ele>6.3</ele>
        <time>2024-12-26T08:31:04.045Z</time>
      </trkpt>
      <trkpt lat="46.72099" lon="-1.98157">
        <ele>6.3</ele>
        <time>2024-12-26T08:31:05.045Z</time>
      </trkpt>
      <trkpt lat="46.72099" lon="-1.98158">
        <ele>6.3</ele>
        <time>2024-12-26T08:31:06.046Z</time>
      </trkpt>
      <trkpt lat="46.72099" lon="-1.98159">
        <ele>6.3</ele>
        <time>2024-12-26T08:31:07.046Z</time>
      </trkpt>
      <trkpt lat="46.721" lon="-1.9816">
        <ele>6.3</ele>
        <time>2024-12-26T08:31:08.046Z</time>
      </trkpt>
      <trkpt lat="46.721" lon="-1.98162">
        <ele>6.3</ele>
        <time>2024-12-26T08:31:09.046Z</time>
      </trkpt>
      <trkpt lat="46.72101" lon="-1.98163">
        <ele>6.3</ele>
        <time>2024-12-26T08:31:10.045Z</time>
      </trkpt>
      <trkpt lat="46.72102" lon="-1.98165">
        <ele>6.3</ele>
        <time>2024-12-26T08:31:11.045Z</time>
      </trkpt>
      <trkpt lat="46.72102" lon="-1.98166">
        <ele>6.3</ele>
        <time>2024-12-26T08:31:12.046Z</time>
      </trkpt>
      <trkpt lat="46.72103" lon="-1.98168">
        <ele>6.3</ele>
        <time>2024-12-26T08:31:13.046Z</time>
      </trkpt>
      <trkpt lat="46.72104" lon="-1.98169">
        <ele>6.3</ele>
        <time>2024-12-26T08:31:14.046Z</time>
      </trkpt>
      <trkpt lat="46.72105" lon="-1.9817">
        <ele>6.2</ele>
        <time>2024-12-26T08:31:15.046Z</time>
      </trkpt>
      <trkpt lat="46.72106" lon="-1.98172">
        <ele>6.2</ele>
        <time>2024-12-26T08:31:16.045Z</time>
      </trkpt>
      <trkpt lat="46.72107" lon="-1.98172">
        <ele>6.2</ele>
        <time>2024-12-26T08:31:17.045Z</time>
      </trkpt>
      <trkpt lat="46.72107" lon="-1.98174">
        <ele>6.1</ele>
        <time>2024-12-26T08:31:18.046Z</time>
      </trkpt>
      <trkpt lat="46.72108" lon="-1.98175">
        <ele>6.1</ele>
        <time>2024-12-26T08:31:19.046Z</time>
      </trkpt>
      <trkpt lat="46.72109" lon="-1.98177">
        <ele>6.1</ele>
        <time>2024-12-26T08:31:20.046Z</time>
      </trkpt>
      <trkpt lat="46.7211" lon="-1.98178">
        <ele>6</ele>
        <time>2024-12-26T08:31:21.046Z</time>
      </trkpt>
      <trkpt lat="46.72111" lon="-1.9818">
        <ele>6</ele>
        <time>2024-12-26T08:31:22.046Z</time>
      </trkpt>
      <trkpt lat="46.72112" lon="-1.98181">
        <ele>6</ele>
        <time>2024-12-26T08:31:23.046Z</time>
      </trkpt>
      <trkpt lat="46.72113" lon="-1.98182">
        <ele>5.9</ele>
        <time>2024-12-26T08:31:24.045Z</time>
      </trkpt>
      <trkpt lat="46.72114" lon="-1.98183">
        <ele>5.9</ele>
        <time>2024-12-26T08:31:25.045Z</time>
      </trkpt>
      <trkpt lat="46.72114" lon="-1.98184">
        <ele>5.9</ele>
        <time>2024-12-26T08:31:26.045Z</time>
      </trkpt>
      <trkpt lat="46.72115" lon="-1.98185">
        <ele>5.8</ele>
        <time>2024-12-26T08:31:27.045Z</time>
      </trkpt>
      <trkpt lat="46.72116" lon="-1.98187">
        <ele>5.8</ele>
        <time>2024-12-26T08:31:28.045Z</time>
      </trkpt>
      <trkpt lat="46.72117" lon="-1.98188">
        <ele>5.8</ele>
        <time>2024-12-26T08:31:29.045Z</time>
      </trkpt>
      <trkpt lat="46.72118" lon="-1.9819">
        <ele>5.8</ele>
        <time>2024-12-26T08:31:30.045Z</time>
      </trkpt>
      <trkpt lat="46.72118" lon="-1.98191">
        <ele>5.8</ele>
        <time>2024-12-26T08:31:31.045Z</time>
      </trkpt>
      <trkpt lat="46.72119" lon="-1.98193">
        <ele>5.7</ele>
        <time>2024-12-26T08:31:32.045Z</time>
      </trkpt>
      <trkpt lat="46.7212" lon="-1.98196">
        <ele>5.7</ele>
        <time>2024-12-26T08:31:33.045Z</time>
      </trkpt>
      <trkpt lat="46.72121" lon="-1.98197">
        <ele>5.7</ele>
        <time>2024-12-26T08:31:34.045Z</time>
      </trkpt>
      <trkpt lat="46.72122" lon="-1.98199">
        <ele>5.7</ele>
        <time>2024-12-26T08:31:35.045Z</time>
      </trkpt>
      <trkpt lat="46.72124" lon="-1.98199">
        <ele>5.7</ele>
        <time>2024-12-26T08:31:36.045Z</time>
      </trkpt>
      <trkpt lat="46.72125" lon="-1.982">
        <ele>5.7</ele>
        <time>2024-12-26T08:31:37.045Z</time>
      </trkpt>
      <trkpt lat="46.72126" lon="-1.98201">
        <ele>5.7</ele>
        <time>2024-12-26T08:31:38.045Z</time>
      </trkpt>
      <trkpt lat="46.72128" lon="-1.98203">
        <ele>5.7</ele>
        <time>2024-12-26T08:31:39.045Z</time>
      </trkpt>
      <trkpt lat="46.72129" lon="-1.98205">
        <ele>5.7</ele>
        <time>2024-12-26T08:31:40.046Z</time>
      </trkpt>
      <trkpt lat="46.72129" lon="-1.98206">
        <ele>5.8</ele>
        <time>2024-12-26T08:31:41.046Z</time>
      </trkpt>
      <trkpt lat="46.7213" lon="-1.98208">
        <ele>5.8</ele>
        <time>2024-12-26T08:31:42.045Z</time>
      </trkpt>
      <trkpt lat="46.72131" lon="-1.9821">
        <ele>5.9</ele>
        <time>2024-12-26T08:31:43.046Z</time>
      </trkpt>
      <trkpt lat="46.72131" lon="-1.98213">
        <ele>5.9</ele>
        <time>2024-12-26T08:31:44.046Z</time>
      </trkpt>
      <trkpt lat="46.72132" lon="-1.98214">
        <ele>6</ele>
        <time>2024-12-26T08:31:45.045Z</time>
      </trkpt>
      <trkpt lat="46.72133" lon="-1.98216">
        <ele>6</ele>
        <time>2024-12-26T08:31:46.046Z</time>
      </trkpt>
      <trkpt lat="46.72134" lon="-1.98218">
        <ele>6</ele>
        <time>2024-12-26T08:31:47.045Z</time>
      </trkpt>
      <trkpt lat="46.72135" lon="-1.9822">
        <ele>6.1</ele>
        <time>2024-12-26T08:31:48.046Z</time>
      </trkpt>
      <trkpt lat="46.72136" lon="-1.98222">
        <ele>6.1</ele>
        <time>2024-12-26T08:31:49.046Z</time>
      </trkpt>
      <trkpt lat="46.72137" lon="-1.98224">
        <ele>6.1</ele>
        <time>2024-12-26T08:31:50.046Z</time>
      </trkpt>
      <trkpt lat="46.72137" lon="-1.98226">
        <ele>6.2</ele>
        <time>2024-12-26T08:31:51.046Z</time>
      </trkpt>
      <trkpt lat="46.72138" lon="-1.98227">
        <ele>6.2</ele>
        <time>2024-12-26T08:31:52.045Z</time>
      </trkpt>
      <trkpt lat="46.72139" lon="-1.98229">
        <ele>6.3</ele>
        <time>2024-12-26T08:31:53.045Z</time>
      </trkpt>
      <trkpt lat="46.72139" lon="-1.98231">
        <ele>6.3</ele>
        <time>2024-12-26T08:31:54.045Z</time>
      </trkpt>
      <trkpt lat="46.7214" lon="-1.98234">
        <ele>6.4</ele>
        <time>2024-12-26T08:31:55.046Z</time>
      </trkpt>
      <trkpt lat="46.72141" lon="-1.98235">
        <ele>6.4</ele>
        <time>2024-12-26T08:31:56.046Z</time>
      </trkpt>
      <trkpt lat="46.72142" lon="-1.98237">
        <ele>6.4</ele>
        <time>2024-12-26T08:31:57.046Z</time>
      </trkpt>
      <trkpt lat="46.72143" lon="-1.98238">
        <ele>6.3</ele>
        <time>2024-12-26T08:31:58.046Z</time>
      </trkpt>
      <trkpt lat="46.72144" lon="-1.98239">
        <ele>6.3</ele>
        <time>2024-12-26T08:31:59.045Z</time>
      </trkpt>
      <trkpt lat="46.72145" lon="-1.98241">
        <ele>6.3</ele>
        <time>2024-12-26T08:32:00.046Z</time>
      </trkpt>
      <trkpt lat="46.72146" lon="-1.98243">
        <ele>6.3</ele>
        <time>2024-12-26T08:32:01.046Z</time>
      </trkpt>
      <trkpt lat="46.72147" lon="-1.98244">
        <ele>6.3</ele>
        <time>2024-12-26T08:32:02.046Z</time>
      </trkpt>
      <trkpt lat="46.72148" lon="-1.98246">
        <ele>6.3</ele>
        <time>2024-12-26T08:32:03.045Z</time>
      </trkpt>
      <trkpt lat="46.72149" lon="-1.98248">
        <ele>6.3</ele>
        <time>2024-12-26T08:32:04.046Z</time>
      </trkpt>
      <trkpt lat="46.7215" lon="-1.98251">
        <ele>6.3</ele>
        <time>2024-12-26T08:32:05.046Z</time>
      </trkpt>
      <trkpt lat="46.72151" lon="-1.98251">
        <ele>6.2</ele>
        <time>2024-12-26T08:32:06.046Z</time>
      </trkpt>
      <trkpt lat="46.72152" lon="-1.98253">
        <ele>6.2</ele>
        <time>2024-12-26T08:32:07.046Z</time>
      </trkpt>
      <trkpt lat="46.72153" lon="-1.98255">
        <ele>6.3</ele>
        <time>2024-12-26T08:32:08.045Z</time>
      </trkpt>
      <trkpt lat="46.72154" lon="-1.98256">
        <ele>6.3</ele>
        <time>2024-12-26T08:32:09.046Z</time>
      </trkpt>
      <trkpt lat="46.72154" lon="-1.98258">
        <ele>6.3</ele>
        <time>2024-12-26T08:32:10.046Z</time>
      </trkpt>
      <trkpt lat="46.72155" lon="-1.9826">
        <ele>6.3</ele>
        <time>2024-12-26T08:32:11.045Z</time>
      </trkpt>
      <trkpt lat="46.72156" lon="-1.98262">
        <ele>6.2</ele>
        <time>2024-12-26T08:32:12.045Z</time>
      </trkpt>
      <trkpt lat="46.72157" lon="-1.98264">
        <ele>6.2</ele>
        <time>2024-12-26T08:32:13.045Z</time>
      </trkpt>
      <trkpt lat="46.72158" lon="-1.98266">
        <ele>6.2</ele>
        <time>2024-12-26T08:32:14.045Z</time>
      </trkpt>
      <trkpt lat="46.72159" lon="-1.98268">
        <ele>6.1</ele>
        <time>2024-12-26T08:32:15.046Z</time>
      </trkpt>
      <trkpt lat="46.7216" lon="-1.9827">
        <ele>6</ele>
        <time>2024-12-26T08:32:16.045Z</time>
      </trkpt>
      <trkpt lat="46.7216" lon="-1.98271">
        <ele>6</ele>
        <time>2024-12-26T08:32:17.045Z</time>
      </trkpt>
      <trkpt lat="46.72161" lon="-1.98272">
        <ele>5.8</ele>
        <time>2024-12-26T08:32:18.045Z</time>
      </trkpt>
      <trkpt lat="46.72162" lon="-1.98274">
        <ele>5.7</ele>
        <time>2024-12-26T08:32:19.046Z</time>
      </trkpt>
      <trkpt lat="46.72163" lon="-1.98276">
        <ele>5.6</ele>
        <time>2024-12-26T08:32:20.046Z</time>
      </trkpt>
      <trkpt lat="46.72164" lon="-1.98278">
        <ele>5.5</ele>
        <time>2024-12-26T08:32:21.046Z</time>
      </trkpt>
      <trkpt lat="46.72165" lon="-1.98279">
        <ele>5.4</ele>
        <time>2024-12-26T08:32:22.045Z</time>
      </trkpt>
      <trkpt lat="46.72166" lon="-1.98281">
        <ele>5.3</ele>
        <time>2024-12-26T08:32:23.045Z</time>
      </trkpt>
      <trkpt lat="46.72168" lon="-1.98283">
        <ele>5.4</ele>
        <time>2024-12-26T08:32:24.045Z</time>
      </trkpt>
      <trkpt lat="46.72168" lon="-1.98284">
        <ele>5.4</ele>
        <time>2024-12-26T08:32:25.046Z</time>
      </trkpt>
      <trkpt lat="46.7217" lon="-1.98286">
        <ele>5.5</ele>
        <time>2024-12-26T08:32:26.046Z</time>
      </trkpt>
      <trkpt lat="46.72171" lon="-1.98288">
        <ele>5.5</ele>
        <time>2024-12-26T08:32:27.046Z</time>
      </trkpt>
      <trkpt lat="46.72172" lon="-1.98289">
        <ele>5.6</ele>
        <time>2024-12-26T08:32:28.045Z</time>
      </trkpt>
      <trkpt lat="46.72173" lon="-1.9829">
        <ele>5.6</ele>
        <time>2024-12-26T08:32:29.045Z</time>
      </trkpt>
      <trkpt lat="46.72173" lon="-1.98292">
        <ele>5.6</ele>
        <time>2024-12-26T08:32:30.046Z</time>
      </trkpt>
      <trkpt lat="46.72175" lon="-1.98293">
        <ele>5.7</ele>
        <time>2024-12-26T08:32:31.045Z</time>
      </trkpt>
      <trkpt lat="46.72176" lon="-1.98295">
        <ele>5.7</ele>
        <time>2024-12-26T08:32:32.046Z</time>
      </trkpt>
      <trkpt lat="46.72176" lon="-1.98296">
        <ele>5.7</ele>
        <time>2024-12-26T08:32:33.045Z</time>
      </trkpt>
      <trkpt lat="46.72177" lon="-1.98297">
        <ele>5.7</ele>
        <time>2024-12-26T08:32:34.046Z</time>
      </trkpt>
      <trkpt lat="46.72178" lon="-1.98299">
        <ele>5.8</ele>
        <time>2024-12-26T08:32:35.046Z</time>
      </trkpt>
      <trkpt lat="46.72179" lon="-1.983">
        <ele>5.8</ele>
        <time>2024-12-26T08:32:36.045Z</time>
      </trkpt>
      <trkpt lat="46.7218" lon="-1.98302">
        <ele>5.8</ele>
        <time>2024-12-26T08:32:37.045Z</time>
      </trkpt>
      <trkpt lat="46.72181" lon="-1.98303">
        <ele>5.9</ele>
        <time>2024-12-26T08:32:38.045Z</time>
      </trkpt>
      <trkpt lat="46.72182" lon="-1.98305">
        <ele>5.9</ele>
        <time>2024-12-26T08:32:39.046Z</time>
      </trkpt>
      <trkpt lat="46.72183" lon="-1.98307">
        <ele>5.9</ele>
        <time>2024-12-26T08:32:40.045Z</time>
      </trkpt>
      <trkpt lat="46.72184" lon="-1.98309">
        <ele>5.9</ele>
        <time>2024-12-26T08:32:41.046Z</time>
      </trkpt>
      <trkpt lat="46.72185" lon="-1.9831">
        <ele>5.9</ele>
        <time>2024-12-26T08:32:42.046Z</time>
      </trkpt>
      <trkpt lat="46.72186" lon="-1.98312">
        <ele>5.9</ele>
        <time>2024-12-26T08:32:43.045Z</time>
      </trkpt>
      <trkpt lat="46.72187" lon="-1.98313">
        <ele>5.9</ele>
        <time>2024-12-26T08:32:44.045Z</time>
      </trkpt>
      <trkpt lat="46.72188" lon="-1.98315">
        <ele>5.9</ele>
        <time>2024-12-26T08:32:45.045Z</time>
      </trkpt>
      <trkpt lat="46.72189" lon="-1.98317">
        <ele>5.9</ele>
        <time>2024-12-26T08:32:46.045Z</time>
      </trkpt>
      <trkpt lat="46.7219" lon="-1.98318">
        <ele>5.9</ele>
        <time>2024-12-26T08:32:47.046Z</time>
      </trkpt>
      <trkpt lat="46.72191" lon="-1.9832">
        <ele>5.9</ele>
        <time>2024-12-26T08:32:48.046Z</time>
      </trkpt>
      <trkpt lat="46.72191" lon="-1.98321">
        <ele>5.8</ele>
        <time>2024-12-26T08:32:49.046Z</time>
      </trkpt>
      <trkpt lat="46.72192" lon="-1.98322">
        <ele>5.8</ele>
        <time>2024-12-26T08:32:50.046Z</time>
      </trkpt>
      <trkpt lat="46.72193" lon="-1.98324">
        <ele>5.8</ele>
        <time>2024-12-26T08:32:51.045Z</time>
      </trkpt>
      <trkpt lat="46.72194" lon="-1.98325">
        <ele>5.7</ele>
        <time>2024-12-26T08:32:52.046Z</time>
      </trkpt>
      <trkpt lat="46.72195" lon="-1.98327">
        <ele>5.7</ele>
        <time>2024-12-26T08:32:53.046Z</time>
      </trkpt>
      <trkpt lat="46.72197" lon="-1.98328">
        <ele>5.7</ele>
        <time>2024-12-26T08:32:54.046Z</time>
      </trkpt>
      <trkpt lat="46.72197" lon="-1.9833">
        <ele>5.7</ele>
        <time>2024-12-26T08:32:55.045Z</time>
      </trkpt>
      <trkpt lat="46.72198" lon="-1.98331">
        <ele>5.7</ele>
        <time>2024-12-26T08:32:56.045Z</time>
      </trkpt>
      <trkpt lat="46.72199" lon="-1.98332">
        <ele>5.6</ele>
        <time>2024-12-26T08:32:57.046Z</time>
      </trkpt>
      <trkpt lat="46.722" lon="-1.98334">
        <ele>5.6</ele>
        <time>2024-12-26T08:32:58.045Z</time>
      </trkpt>
      <trkpt lat="46.72202" lon="-1.98336">
        <ele>5.6</ele>
        <time>2024-12-26T08:32:59.045Z</time>
      </trkpt>
      <trkpt lat="46.72203" lon="-1.98337">
        <ele>5.6</ele>
        <time>2024-12-26T08:33:00.046Z</time>
      </trkpt>
      <trkpt lat="46.72204" lon="-1.98339">
        <ele>5.7</ele>
        <time>2024-12-26T08:33:01.046Z</time>
      </trkpt>
      <trkpt lat="46.72205" lon="-1.9834">
        <ele>5.6</ele>
        <time>2024-12-26T08:33:02.046Z</time>
      </trkpt>
      <trkpt lat="46.72206" lon="-1.98342">
        <ele>5.7</ele>
        <time>2024-12-26T08:33:03.045Z</time>
      </trkpt>
      <trkpt lat="46.72207" lon="-1.98344">
        <ele>5.7</ele>
        <time>2024-12-26T08:33:04.045Z</time>
      </trkpt>
      <trkpt lat="46.72208" lon="-1.98346">
        <ele>5.7</ele>
        <time>2024-12-26T08:33:05.046Z</time>
      </trkpt>
      <trkpt lat="46.72209" lon="-1.98348">
        <ele>5.7</ele>
        <time>2024-12-26T08:33:06.046Z</time>
      </trkpt>
      <trkpt lat="46.7221" lon="-1.98349">
        <ele>5.7</ele>
        <time>2024-12-26T08:33:07.045Z</time>
      </trkpt>
      <trkpt lat="46.72211" lon="-1.98351">
        <ele>5.7</ele>
        <time>2024-12-26T08:33:08.045Z</time>
      </trkpt>
      <trkpt lat="46.72212" lon="-1.98352">
        <ele>5.7</ele>
        <time>2024-12-26T08:33:09.046Z</time>
      </trkpt>
      <trkpt lat="46.72213" lon="-1.98354">
        <ele>5.6</ele>
        <time>2024-12-26T08:33:10.045Z</time>
      </trkpt>
      <trkpt lat="46.72214" lon="-1.98355">
        <ele>5.6</ele>
        <time>2024-12-26T08:33:11.046Z</time>
      </trkpt>
      <trkpt lat="46.72215" lon="-1.98358">
        <ele>5.6</ele>
        <time>2024-12-26T08:33:12.045Z</time>
      </trkpt>
      <trkpt lat="46.72216" lon="-1.98359">
        <ele>5.6</ele>
        <time>2024-12-26T08:33:13.046Z</time>
      </trkpt>
      <trkpt lat="46.72216" lon="-1.98361">
        <ele>5.6</ele>
        <time>2024-12-26T08:33:14.046Z</time>
      </trkpt>
      <trkpt lat="46.72217" lon="-1.98363">
        <ele>5.6</ele>
        <time>2024-12-26T08:33:15.046Z</time>
      </trkpt>
      <trkpt lat="46.72218" lon="-1.98365">
        <ele>5.6</ele>
        <time>2024-12-26T08:33:16.046Z</time>
      </trkpt>
      <trkpt lat="46.72219" lon="-1.98366">
        <ele>5.6</ele>
        <time>2024-12-26T08:33:17.046Z</time>
      </trkpt>
      <trkpt lat="46.7222" lon="-1.98368">
        <ele>5.6</ele>
        <time>2024-12-26T08:33:18.045Z</time>
      </trkpt>
      <trkpt lat="46.72221" lon="-1.9837">
        <ele>5.7</ele>
        <time>2024-12-26T08:33:19.045Z</time>
      </trkpt>
      <trkpt lat="46.72222" lon="-1.98371">
        <ele>5.7</ele>
        <time>2024-12-26T08:33:20.046Z</time>
      </trkpt>
      <trkpt lat="46.72223" lon="-1.98373">
        <ele>5.8</ele>
        <time>2024-12-26T08:33:21.046Z</time>
      </trkpt>
      <trkpt lat="46.72224" lon="-1.98375">
        <ele>5.9</ele>
        <time>2024-12-26T08:33:22.046Z</time>
      </trkpt>
      <trkpt lat="46.72225" lon="-1.98376">
        <ele>5.9</ele>
        <time>2024-12-26T08:33:23.046Z</time>
      </trkpt>
      <trkpt lat="46.72226" lon="-1.98377">
        <ele>5.9</ele>
        <time>2024-12-26T08:33:24.045Z</time>
      </trkpt>
      <trkpt lat="46.72227" lon="-1.98379">
        <ele>5.9</ele>
        <time>2024-12-26T08:33:25.045Z</time>
      </trkpt>
      <trkpt lat="46.72228" lon="-1.98381">
        <ele>5.9</ele>
        <time>2024-12-26T08:33:26.046Z</time>
      </trkpt>
      <trkpt lat="46.72229" lon="-1.98383">
        <ele>6</ele>
        <time>2024-12-26T08:33:27.045Z</time>
      </trkpt>
      <trkpt lat="46.72229" lon="-1.98384">
        <ele>6</ele>
        <time>2024-12-26T08:33:28.046Z</time>
      </trkpt>
      <trkpt lat="46.7223" lon="-1.98386">
        <ele>6</ele>
        <time>2024-12-26T08:33:29.046Z</time>
      </trkpt>
      <trkpt lat="46.72231" lon="-1.98387">
        <ele>6</ele>
        <time>2024-12-26T08:33:30.045Z</time>
      </trkpt>
      <trkpt lat="46.72232" lon="-1.98389">
        <ele>6</ele>
        <time>2024-12-26T08:33:31.045Z</time>
      </trkpt>
      <trkpt lat="46.72233" lon="-1.9839">
        <ele>5.9</ele>
        <time>2024-12-26T08:33:32.045Z</time>
      </trkpt>
      <trkpt lat="46.72234" lon="-1.98392">
        <ele>5.9</ele>
        <time>2024-12-26T08:33:33.046Z</time>
      </trkpt>
      <trkpt lat="46.72234" lon="-1.98393">
        <ele>5.8</ele>
        <time>2024-12-26T08:33:34.045Z</time>
      </trkpt>
      <trkpt lat="46.72236" lon="-1.98394">
        <ele>5.7</ele>
        <time>2024-12-26T08:33:35.046Z</time>
      </trkpt>
      <trkpt lat="46.72237" lon="-1.98396">
        <ele>5.7</ele>
        <time>2024-12-26T08:33:36.045Z</time>
      </trkpt>
      <trkpt lat="46.72237" lon="-1.98397">
        <ele>5.7</ele>
        <time>2024-12-26T08:33:37.046Z</time>
      </trkpt>
      <trkpt lat="46.72239" lon="-1.98399">
        <ele>5.6</ele>
        <time>2024-12-26T08:33:38.045Z</time>
      </trkpt>
      <trkpt lat="46.72239" lon="-1.98401">
        <ele>5.6</ele>
        <time>2024-12-26T08:33:39.046Z</time>
      </trkpt>
      <trkpt lat="46.7224" lon="-1.98403">
        <ele>5.6</ele>
        <time>2024-12-26T08:33:40.046Z</time>
      </trkpt>
      <trkpt lat="46.72241" lon="-1.98404">
        <ele>5.5</ele>
        <time>2024-12-26T08:33:41.046Z</time>
      </trkpt>
      <trkpt lat="46.72243" lon="-1.98405">
        <ele>5.4</ele>
        <time>2024-12-26T08:33:42.046Z</time>
      </trkpt>
      <trkpt lat="46.72244" lon="-1.98408">
        <ele>5.3</ele>
        <time>2024-12-26T08:33:43.045Z</time>
      </trkpt>
      <trkpt lat="46.72246" lon="-1.98408">
        <ele>5.2</ele>
        <time>2024-12-26T08:33:44.046Z</time>
      </trkpt>
      <trkpt lat="46.72248" lon="-1.98409">
        <ele>5</ele>
        <time>2024-12-26T08:33:45.046Z</time>
      </trkpt>
      <trkpt lat="46.72249" lon="-1.98409">
        <ele>4.9</ele>
        <time>2024-12-26T08:33:46.045Z</time>
      </trkpt>
      <trkpt lat="46.7225" lon="-1.9841">
        <ele>4.8</ele>
        <time>2024-12-26T08:33:47.046Z</time>
      </trkpt>
      <trkpt lat="46.72251" lon="-1.98409">
        <ele>4.8</ele>
        <time>2024-12-26T08:33:48.045Z</time>
      </trkpt>
      <trkpt lat="46.72252" lon="-1.98409">
        <ele>4.8</ele>
        <time>2024-12-26T08:33:49.046Z</time>
      </trkpt>
      <trkpt lat="46.72253" lon="-1.98408">
        <ele>4.8</ele>
        <time>2024-12-26T08:33:50.045Z</time>
      </trkpt>
      <trkpt lat="46.72254" lon="-1.98407">
        <ele>4.8</ele>
        <time>2024-12-26T08:33:51.045Z</time>
      </trkpt>
      <trkpt lat="46.72255" lon="-1.98406">
        <ele>4.8</ele>
        <time>2024-12-26T08:33:52.045Z</time>
      </trkpt>
      <trkpt lat="46.72257" lon="-1.98404">
        <ele>4.8</ele>
        <time>2024-12-26T08:33:53.046Z</time>
      </trkpt>
      <trkpt lat="46.72258" lon="-1.98403">
        <ele>4.8</ele>
        <time>2024-12-26T08:33:54.046Z</time>
      </trkpt>
      <trkpt lat="46.72259" lon="-1.98401">
        <ele>4.8</ele>
        <time>2024-12-26T08:33:55.045Z</time>
      </trkpt>
      <trkpt lat="46.72261" lon="-1.984">
        <ele>4.8</ele>
        <time>2024-12-26T08:33:56.045Z</time>
      </trkpt>
      <trkpt lat="46.72262" lon="-1.98398">
        <ele>4.8</ele>
        <time>2024-12-26T08:33:57.045Z</time>
      </trkpt>
      <trkpt lat="46.72263" lon="-1.98396">
        <ele>4.7</ele>
        <time>2024-12-26T08:33:58.045Z</time>
      </trkpt>
      <trkpt lat="46.72265" lon="-1.98394">
        <ele>4.7</ele>
        <time>2024-12-26T08:33:59.045Z</time>
      </trkpt>
      <trkpt lat="46.72266" lon="-1.98393">
        <ele>4.7</ele>
        <time>2024-12-26T08:34:00.045Z</time>
      </trkpt>
      <trkpt lat="46.72267" lon="-1.98391">
        <ele>4.7</ele>
        <time>2024-12-26T08:34:01.046Z</time>
      </trkpt>
      <trkpt lat="46.72268" lon="-1.98391">
        <ele>4.7</ele>
        <time>2024-12-26T08:34:02.046Z</time>
      </trkpt>
      <trkpt lat="46.72269" lon="-1.9839">
        <ele>4.7</ele>
        <time>2024-12-26T08:34:03.046Z</time>
      </trkpt>
      <trkpt lat="46.7227" lon="-1.9839">
        <ele>4.8</ele>
        <time>2024-12-26T08:34:04.046Z</time>
      </trkpt>
      <trkpt lat="46.72271" lon="-1.98391">
        <ele>4.8</ele>
        <time>2024-12-26T08:34:05.046Z</time>
      </trkpt>
      <trkpt lat="46.72272" lon="-1.98392">
        <ele>4.9</ele>
        <time>2024-12-26T08:34:06.046Z</time>
      </trkpt>
      <trkpt lat="46.72273" lon="-1.98392">
        <ele>5</ele>
        <time>2024-12-26T08:34:07.046Z</time>
      </trkpt>
      <trkpt lat="46.72275" lon="-1.98393">
        <ele>5</ele>
        <time>2024-12-26T08:34:08.046Z</time>
      </trkpt>
      <trkpt lat="46.72276" lon="-1.98393">
        <ele>5.1</ele>
        <time>2024-12-26T08:34:09.046Z</time>
      </trkpt>
      <trkpt lat="46.72277" lon="-1.98394">
        <ele>5.1</ele>
        <time>2024-12-26T08:34:10.046Z</time>
      </trkpt>
      <trkpt lat="46.72278" lon="-1.98395">
        <ele>5.2</ele>
        <time>2024-12-26T08:34:11.046Z</time>
      </trkpt>
      <trkpt lat="46.72279" lon="-1.98397">
        <ele>5.3</ele>
        <time>2024-12-26T08:34:12.046Z</time>
      </trkpt>
      <trkpt lat="46.7228" lon="-1.98398">
        <ele>5.3</ele>
        <time>2024-12-26T08:34:13.046Z</time>
      </trkpt>
      <trkpt lat="46.72281" lon="-1.98399">
        <ele>5.3</ele>
        <time>2024-12-26T08:34:14.046Z</time>
      </trkpt>
      <trkpt lat="46.72282" lon="-1.984">
        <ele>5.3</ele>
        <time>2024-12-26T08:34:15.046Z</time>
      </trkpt>
      <trkpt lat="46.72284" lon="-1.98401">
        <ele>5.2</ele>
        <time>2024-12-26T08:34:16.045Z</time>
      </trkpt>
      <trkpt lat="46.72285" lon="-1.98402">
        <ele>5.2</ele>
        <time>2024-12-26T08:34:17.045Z</time>
      </trkpt>
      <trkpt lat="46.72285" lon="-1.98404">
        <ele>5.3</ele>
        <time>2024-12-26T08:34:18.046Z</time>
      </trkpt>
      <trkpt lat="46.72286" lon="-1.98405">
        <ele>5.2</ele>
        <time>2024-12-26T08:34:19.046Z</time>
      </trkpt>
      <trkpt lat="46.72287" lon="-1.98407">
        <ele>5.2</ele>
        <time>2024-12-26T08:34:20.045Z</time>
      </trkpt>
      <trkpt lat="46.72288" lon="-1.98408">
        <ele>5.2</ele>
        <time>2024-12-26T08:34:21.045Z</time>
      </trkpt>
      <trkpt lat="46.72289" lon="-1.98409">
        <ele>5.2</ele>
        <time>2024-12-26T08:34:22.045Z</time>
      </trkpt>
      <trkpt lat="46.7229" lon="-1.98411">
        <ele>5.1</ele>
        <time>2024-12-26T08:34:23.045Z</time>
      </trkpt>
      <trkpt lat="46.72291" lon="-1.98412">
        <ele>5.1</ele>
        <time>2024-12-26T08:34:24.045Z</time>
      </trkpt>
      <trkpt lat="46.72292" lon="-1.98414">
        <ele>5</ele>
        <time>2024-12-26T08:34:25.046Z</time>
      </trkpt>
      <trkpt lat="46.72293" lon="-1.98416">
        <ele>4.9</ele>
        <time>2024-12-26T08:34:26.046Z</time>
      </trkpt>
      <trkpt lat="46.72294" lon="-1.98417">
        <ele>4.8</ele>
        <time>2024-12-26T08:34:27.046Z</time>
      </trkpt>
      <trkpt lat="46.72295" lon="-1.98419">
        <ele>4.8</ele>
        <time>2024-12-26T08:34:28.046Z</time>
      </trkpt>
      <trkpt lat="46.72296" lon="-1.98421">
        <ele>4.7</ele>
        <time>2024-12-26T08:34:29.045Z</time>
      </trkpt>
      <trkpt lat="46.72297" lon="-1.98422">
        <ele>4.7</ele>
        <time>2024-12-26T08:34:30.045Z</time>
      </trkpt>
      <trkpt lat="46.72298" lon="-1.98424">
        <ele>4.6</ele>
        <time>2024-12-26T08:34:31.046Z</time>
      </trkpt>
      <trkpt lat="46.72299" lon="-1.98425">
        <ele>4.6</ele>
        <time>2024-12-26T08:34:32.046Z</time>
      </trkpt>
      <trkpt lat="46.723" lon="-1.98427">
        <ele>4.6</ele>
        <time>2024-12-26T08:34:33.045Z</time>
      </trkpt>
      <trkpt lat="46.72302" lon="-1.98428">
        <ele>4.6</ele>
        <time>2024-12-26T08:34:34.045Z</time>
      </trkpt>
      <trkpt lat="46.72302" lon="-1.9843">
        <ele>4.6</ele>
        <time>2024-12-26T08:34:35.046Z</time>
      </trkpt>
      <trkpt lat="46.72303" lon="-1.98431">
        <ele>4.6</ele>
        <time>2024-12-26T08:34:36.045Z</time>
      </trkpt>
      <trkpt lat="46.72305" lon="-1.98432">
        <ele>4.6</ele>
        <time>2024-12-26T08:34:37.046Z</time>
      </trkpt>
      <trkpt lat="46.72306" lon="-1.98434">
        <ele>4.6</ele>
        <time>2024-12-26T08:34:38.046Z</time>
      </trkpt>
      <trkpt lat="46.72307" lon="-1.98435">
        <ele>4.6</ele>
        <time>2024-12-26T08:34:39.045Z</time>
      </trkpt>
      <trkpt lat="46.72308" lon="-1.98437">
        <ele>4.7</ele>
        <time>2024-12-26T08:34:40.045Z</time>
      </trkpt>
      <trkpt lat="46.72309" lon="-1.98439">
        <ele>4.7</ele>
        <time>2024-12-26T08:34:41.045Z</time>
      </trkpt>
      <trkpt lat="46.72311" lon="-1.98441">
        <ele>4.7</ele>
        <time>2024-12-26T08:34:42.045Z</time>
      </trkpt>
      <trkpt lat="46.72312" lon="-1.98442">
        <ele>4.7</ele>
        <time>2024-12-26T08:34:43.045Z</time>
      </trkpt>
      <trkpt lat="46.72313" lon="-1.98443">
        <ele>4.7</ele>
        <time>2024-12-26T08:34:44.046Z</time>
      </trkpt>
      <trkpt lat="46.72314" lon="-1.98444">
        <ele>4.7</ele>
        <time>2024-12-26T08:34:45.046Z</time>
      </trkpt>
      <trkpt lat="46.72315" lon="-1.98446">
        <ele>4.7</ele>
        <time>2024-12-26T08:34:46.046Z</time>
      </trkpt>
      <trkpt lat="46.72316" lon="-1.98448">
        <ele>4.7</ele>
        <time>2024-12-26T08:34:47.046Z</time>
      </trkpt>
      <trkpt lat="46.72317" lon="-1.98449">
        <ele>4.8</ele>
        <time>2024-12-26T08:34:48.046Z</time>
      </trkpt>
      <trkpt lat="46.72317" lon="-1.98451">
        <ele>4.8</ele>
        <time>2024-12-26T08:34:49.045Z</time>
      </trkpt>
      <trkpt lat="46.72318" lon="-1.98452">
        <ele>4.8</ele>
        <time>2024-12-26T08:34:50.046Z</time>
      </trkpt>
      <trkpt lat="46.72319" lon="-1.98453">
        <ele>4.8</ele>
        <time>2024-12-26T08:34:51.046Z</time>
      </trkpt>
      <trkpt lat="46.72321" lon="-1.98454">
        <ele>4.8</ele>
        <time>2024-12-26T08:34:52.046Z</time>
      </trkpt>
      <trkpt lat="46.72322" lon="-1.98455">
        <ele>4.8</ele>
        <time>2024-12-26T08:34:53.045Z</time>
      </trkpt>
      <trkpt lat="46.72323" lon="-1.98456">
        <ele>4.8</ele>
        <time>2024-12-26T08:34:54.046Z</time>
      </trkpt>
      <trkpt lat="46.72325" lon="-1.98458">
        <ele>4.8</ele>
        <time>2024-12-26T08:34:55.046Z</time>
      </trkpt>
      <trkpt lat="46.72326" lon="-1.9846">
        <ele>4.8</ele>
        <time>2024-12-26T08:34:56.046Z</time>
      </trkpt>
      <trkpt lat="46.72327" lon="-1.98461">
        <ele>4.8</ele>
        <time>2024-12-26T08:34:57.045Z</time>
      </trkpt>
      <trkpt lat="46.72328" lon="-1.98463">
        <ele>4.9</ele>
        <time>2024-12-26T08:34:58.046Z</time>
      </trkpt>
      <trkpt lat="46.7233" lon="-1.98465">
        <ele>4.9</ele>
        <time>2024-12-26T08:34:59.046Z</time>
      </trkpt>
      <trkpt lat="46.7233" lon="-1.98466">
        <ele>4.9</ele>
        <time>2024-12-26T08:35:00.046Z</time>
      </trkpt>
      <trkpt lat="46.72332" lon="-1.98468">
        <ele>4.9</ele>
        <time>2024-12-26T08:35:01.046Z</time>
      </trkpt>
      <trkpt lat="46.72332" lon="-1.9847">
        <ele>5</ele>
        <time>2024-12-26T08:35:02.046Z</time>
      </trkpt>
      <trkpt lat="46.72333" lon="-1.98471">
        <ele>5</ele>
        <time>2024-12-26T08:35:03.046Z</time>
      </trkpt>
      <trkpt lat="46.72334" lon="-1.98473">
        <ele>5</ele>
        <time>2024-12-26T08:35:04.045Z</time>
      </trkpt>
      <trkpt lat="46.72336" lon="-1.98474">
        <ele>5</ele>
        <time>2024-12-26T08:35:05.045Z</time>
      </trkpt>
      <trkpt lat="46.72337" lon="-1.98475">
        <ele>5</ele>
        <time>2024-12-26T08:35:06.045Z</time>
      </trkpt>
      <trkpt lat="46.72338" lon="-1.98476">
        <ele>5</ele>
        <time>2024-12-26T08:35:07.045Z</time>
      </trkpt>
      <trkpt lat="46.7234" lon="-1.98477">
        <ele>5</ele>
        <time>2024-12-26T08:35:08.045Z</time>
      </trkpt>
      <trkpt lat="46.72341" lon="-1.98479">
        <ele>5</ele>
        <time>2024-12-26T08:35:09.046Z</time>
      </trkpt>
      <trkpt lat="46.72342" lon="-1.98481">
        <ele>5</ele>
        <time>2024-12-26T08:35:10.045Z</time>
      </trkpt>
      <trkpt lat="46.72343" lon="-1.98482">
        <ele>5</ele>
        <time>2024-12-26T08:35:11.045Z</time>
      </trkpt>
      <trkpt lat="46.72344" lon="-1.98483">
        <ele>5</ele>
        <time>2024-12-26T08:35:12.045Z</time>
      </trkpt>
      <trkpt lat="46.72345" lon="-1.98484">
        <ele>5</ele>
        <time>2024-12-26T08:35:13.045Z</time>
      </trkpt>
      <trkpt lat="46.72346" lon="-1.98485">
        <ele>5</ele>
        <time>2024-12-26T08:35:14.045Z</time>
      </trkpt>
      <trkpt lat="46.72347" lon="-1.98486">
        <ele>5</ele>
        <time>2024-12-26T08:35:15.046Z</time>
      </trkpt>
      <trkpt lat="46.72348" lon="-1.98487">
        <ele>5</ele>
        <time>2024-12-26T08:35:16.045Z</time>
      </trkpt>
      <trkpt lat="46.72349" lon="-1.98488">
        <ele>5</ele>
        <time>2024-12-26T08:35:17.046Z</time>
      </trkpt>
      <trkpt lat="46.7235" lon="-1.98489">
        <ele>5</ele>
        <time>2024-12-26T08:35:18.046Z</time>
      </trkpt>
      <trkpt lat="46.72351" lon="-1.98491">
        <ele>5</ele>
        <time>2024-12-26T08:35:19.045Z</time>
      </trkpt>
      <trkpt lat="46.72352" lon="-1.98491">
        <ele>5</ele>
        <time>2024-12-26T08:35:20.046Z</time>
      </trkpt>
      <trkpt lat="46.72353" lon="-1.98492">
        <ele>5</ele>
        <time>2024-12-26T08:35:21.046Z</time>
      </trkpt>
      <trkpt lat="46.72354" lon="-1.98493">
        <ele>5</ele>
        <time>2024-12-26T08:35:22.046Z</time>
      </trkpt>
      <trkpt lat="46.72355" lon="-1.98494">
        <ele>5</ele>
        <time>2024-12-26T08:35:23.045Z</time>
      </trkpt>
      <trkpt lat="46.72357" lon="-1.98496">
        <ele>5</ele>
        <time>2024-12-26T08:35:24.045Z</time>
      </trkpt>
      <trkpt lat="46.72358" lon="-1.98497">
        <ele>5</ele>
        <time>2024-12-26T08:35:25.045Z</time>
      </trkpt>
      <trkpt lat="46.72359" lon="-1.98498">
        <ele>5</ele>
        <time>2024-12-26T08:35:26.046Z</time>
      </trkpt>
      <trkpt lat="46.7236" lon="-1.98499">
        <ele>5</ele>
        <time>2024-12-26T08:35:27.046Z</time>
      </trkpt>
      <trkpt lat="46.72362" lon="-1.985">
        <ele>5</ele>
        <time>2024-12-26T08:35:28.046Z</time>
      </trkpt>
      <trkpt lat="46.72363" lon="-1.98501">
        <ele>4.9</ele>
        <time>2024-12-26T08:35:29.045Z</time>
      </trkpt>
      <trkpt lat="46.72364" lon="-1.98503">
        <ele>4.8</ele>
        <time>2024-12-26T08:35:30.045Z</time>
      </trkpt>
      <trkpt lat="46.72365" lon="-1.98504">
        <ele>4.7</ele>
        <time>2024-12-26T08:35:31.045Z</time>
      </trkpt>
      <trkpt lat="46.72366" lon="-1.98505">
        <ele>4.7</ele>
        <time>2024-12-26T08:35:32.046Z</time>
      </trkpt>
      <trkpt lat="46.72367" lon="-1.98507">
        <ele>4.6</ele>
        <time>2024-12-26T08:35:33.046Z</time>
      </trkpt>
      <trkpt lat="46.72368" lon="-1.98509">
        <ele>4.5</ele>
        <time>2024-12-26T08:35:34.046Z</time>
      </trkpt>
      <trkpt lat="46.72369" lon="-1.98511">
        <ele>4.5</ele>
        <time>2024-12-26T08:35:35.046Z</time>
      </trkpt>
      <trkpt lat="46.7237" lon="-1.98512">
        <ele>4.4</ele>
        <time>2024-12-26T08:35:36.046Z</time>
      </trkpt>
      <trkpt lat="46.72371" lon="-1.98514">
        <ele>4.3</ele>
        <time>2024-12-26T08:35:37.046Z</time>
      </trkpt>
      <trkpt lat="46.72372" lon="-1.98515">
        <ele>4.3</ele>
        <time>2024-12-26T08:35:38.046Z</time>
      </trkpt>
      <trkpt lat="46.72373" lon="-1.98516">
        <ele>4.2</ele>
        <time>2024-12-26T08:35:39.045Z</time>
      </trkpt>
      <trkpt lat="46.72374" lon="-1.98518">
        <ele>4.2</ele>
        <time>2024-12-26T08:35:40.045Z</time>
      </trkpt>
      <trkpt lat="46.72375" lon="-1.9852">
        <ele>4.1</ele>
        <time>2024-12-26T08:35:41.045Z</time>
      </trkpt>
      <trkpt lat="46.72376" lon="-1.98521">
        <ele>4.1</ele>
        <time>2024-12-26T08:35:42.045Z</time>
      </trkpt>
      <trkpt lat="46.72377" lon="-1.98522">
        <ele>4.1</ele>
        <time>2024-12-26T08:35:43.045Z</time>
      </trkpt>
      <trkpt lat="46.72378" lon="-1.98523">
        <ele>4.1</ele>
        <time>2024-12-26T08:35:44.046Z</time>
      </trkpt>
      <trkpt lat="46.7238" lon="-1.98525">
        <ele>4</ele>
        <time>2024-12-26T08:35:45.046Z</time>
      </trkpt>
      <trkpt lat="46.72381" lon="-1.98526">
        <ele>4</ele>
        <time>2024-12-26T08:35:46.045Z</time>
      </trkpt>
      <trkpt lat="46.72382" lon="-1.98527">
        <ele>4</ele>
        <time>2024-12-26T08:35:47.045Z</time>
      </trkpt>
      <trkpt lat="46.72383" lon="-1.98528">
        <ele>4</ele>
        <time>2024-12-26T08:35:48.045Z</time>
      </trkpt>
      <trkpt lat="46.72384" lon="-1.98529">
        <ele>4</ele>
        <time>2024-12-26T08:35:49.046Z</time>
      </trkpt>
      <trkpt lat="46.72385" lon="-1.9853">
        <ele>4</ele>
        <time>2024-12-26T08:35:50.046Z</time>
      </trkpt>
      <trkpt lat="46.72387" lon="-1.98531">
        <ele>4</ele>
        <time>2024-12-26T08:35:51.046Z</time>
      </trkpt>
      <trkpt lat="46.72388" lon="-1.98533">
        <ele>4</ele>
        <time>2024-12-26T08:35:52.046Z</time>
      </trkpt>
      <trkpt lat="46.72389" lon="-1.98534">
        <ele>4</ele>
        <time>2024-12-26T08:35:53.046Z</time>
      </trkpt>
      <trkpt lat="46.7239" lon="-1.98536">
        <ele>4</ele>
        <time>2024-12-26T08:35:54.046Z</time>
      </trkpt>
      <trkpt lat="46.72391" lon="-1.98538">
        <ele>4</ele>
        <time>2024-12-26T08:35:55.046Z</time>
      </trkpt>
      <trkpt lat="46.72392" lon="-1.9854">
        <ele>4</ele>
        <time>2024-12-26T08:35:56.045Z</time>
      </trkpt>
      <trkpt lat="46.72393" lon="-1.98541">
        <ele>4</ele>
        <time>2024-12-26T08:35:57.045Z</time>
      </trkpt>
      <trkpt lat="46.72395" lon="-1.98543">
        <ele>4</ele>
        <time>2024-12-26T08:35:58.045Z</time>
      </trkpt>
      <trkpt lat="46.72396" lon="-1.98544">
        <ele>4</ele>
        <time>2024-12-26T08:35:59.045Z</time>
      </trkpt>
      <trkpt lat="46.72397" lon="-1.98545">
        <ele>4</ele>
        <time>2024-12-26T08:36:00.045Z</time>
      </trkpt>
      <trkpt lat="46.72397" lon="-1.98546">
        <ele>4</ele>
        <time>2024-12-26T08:36:01.045Z</time>
      </trkpt>
      <trkpt lat="46.72399" lon="-1.98548">
        <ele>4</ele>
        <time>2024-12-26T08:36:02.046Z</time>
      </trkpt>
      <trkpt lat="46.724" lon="-1.98549">
        <ele>4</ele>
        <time>2024-12-26T08:36:03.046Z</time>
      </trkpt>
      <trkpt lat="46.72402" lon="-1.9855">
        <ele>4</ele>
        <time>2024-12-26T08:36:04.046Z</time>
      </trkpt>
      <trkpt lat="46.72403" lon="-1.98551">
        <ele>4</ele>
        <time>2024-12-26T08:36:05.045Z</time>
      </trkpt>
      <trkpt lat="46.72404" lon="-1.98553">
        <ele>4</ele>
        <time>2024-12-26T08:36:06.045Z</time>
      </trkpt>
      <trkpt lat="46.72405" lon="-1.98555">
        <ele>4</ele>
        <time>2024-12-26T08:36:07.046Z</time>
      </trkpt>
      <trkpt lat="46.72406" lon="-1.98556">
        <ele>4</ele>
        <time>2024-12-26T08:36:08.046Z</time>
      </trkpt>
      <trkpt lat="46.72407" lon="-1.98557">
        <ele>4</ele>
        <time>2024-12-26T08:36:09.046Z</time>
      </trkpt>
      <trkpt lat="46.72408" lon="-1.98558">
        <ele>4</ele>
        <time>2024-12-26T08:36:10.046Z</time>
      </trkpt>
      <trkpt lat="46.72409" lon="-1.9856">
        <ele>4</ele>
        <time>2024-12-26T08:36:11.045Z</time>
      </trkpt>
      <trkpt lat="46.7241" lon="-1.98562">
        <ele>4.1</ele>
        <time>2024-12-26T08:36:12.045Z</time>
      </trkpt>
      <trkpt lat="46.72411" lon="-1.98564">
        <ele>4.1</ele>
        <time>2024-12-26T08:36:13.045Z</time>
      </trkpt>
      <trkpt lat="46.72412" lon="-1.98565">
        <ele>4.1</ele>
        <time>2024-12-26T08:36:14.045Z</time>
      </trkpt>
      <trkpt lat="46.72414" lon="-1.98565">
        <ele>4</ele>
        <time>2024-12-26T08:36:15.045Z</time>
      </trkpt>
      <trkpt lat="46.72415" lon="-1.98567">
        <ele>4</ele>
        <time>2024-12-26T08:36:16.046Z</time>
      </trkpt>
      <trkpt lat="46.72416" lon="-1.98568">
        <ele>4</ele>
        <time>2024-12-26T08:36:17.046Z</time>
      </trkpt>
      <trkpt lat="46.72417" lon="-1.98569">
        <ele>4</ele>
        <time>2024-12-26T08:36:18.046Z</time>
      </trkpt>
      <trkpt lat="46.72418" lon="-1.9857">
        <ele>4</ele>
        <time>2024-12-26T08:36:19.046Z</time>
      </trkpt>
      <trkpt lat="46.72419" lon="-1.98571">
        <ele>4</ele>
        <time>2024-12-26T08:36:20.046Z</time>
      </trkpt>
      <trkpt lat="46.7242" lon="-1.98573">
        <ele>4</ele>
        <time>2024-12-26T08:36:21.046Z</time>
      </trkpt>
      <trkpt lat="46.72422" lon="-1.98575">
        <ele>4.1</ele>
        <time>2024-12-26T08:36:22.046Z</time>
      </trkpt>
      <trkpt lat="46.72423" lon="-1.98576">
        <ele>4.1</ele>
        <time>2024-12-26T08:36:23.045Z</time>
      </trkpt>
      <trkpt lat="46.72424" lon="-1.98578">
        <ele>4.1</ele>
        <time>2024-12-26T08:36:24.045Z</time>
      </trkpt>
      <trkpt lat="46.72425" lon="-1.98579">
        <ele>4</ele>
        <time>2024-12-26T08:36:25.046Z</time>
      </trkpt>
      <trkpt lat="46.72426" lon="-1.9858">
        <ele>4</ele>
        <time>2024-12-26T08:36:26.045Z</time>
      </trkpt>
      <trkpt lat="46.72427" lon="-1.98581">
        <ele>4</ele>
        <time>2024-12-26T08:36:27.045Z</time>
      </trkpt>
      <trkpt lat="46.72428" lon="-1.98583">
        <ele>4</ele>
        <time>2024-12-26T08:36:28.046Z</time>
      </trkpt>
      <trkpt lat="46.72429" lon="-1.98584">
        <ele>4</ele>
        <time>2024-12-26T08:36:29.045Z</time>
      </trkpt>
      <trkpt lat="46.7243" lon="-1.98585">
        <ele>4.1</ele>
        <time>2024-12-26T08:36:30.046Z</time>
      </trkpt>
      <trkpt lat="46.72431" lon="-1.98587">
        <ele>4.2</ele>
        <time>2024-12-26T08:36:31.046Z</time>
      </trkpt>
      <trkpt lat="46.72432" lon="-1.98589">
        <ele>4.3</ele>
        <time>2024-12-26T08:36:32.046Z</time>
      </trkpt>
      <trkpt lat="46.72433" lon="-1.98591">
        <ele>4.4</ele>
        <time>2024-12-26T08:36:33.046Z</time>
      </trkpt>
      <trkpt lat="46.72434" lon="-1.98592">
        <ele>4.4</ele>
        <time>2024-12-26T08:36:34.046Z</time>
      </trkpt>
      <trkpt lat="46.72436" lon="-1.98593">
        <ele>4.5</ele>
        <time>2024-12-26T08:36:35.046Z</time>
      </trkpt>
      <trkpt lat="46.72437" lon="-1.98594">
        <ele>4.5</ele>
        <time>2024-12-26T08:36:36.045Z</time>
      </trkpt>
      <trkpt lat="46.72438" lon="-1.98596">
        <ele>4.5</ele>
        <time>2024-12-26T08:36:37.045Z</time>
      </trkpt>
      <trkpt lat="46.72439" lon="-1.98597">
        <ele>4.6</ele>
        <time>2024-12-26T08:36:38.045Z</time>
      </trkpt>
      <trkpt lat="46.7244" lon="-1.98599">
        <ele>4.7</ele>
        <time>2024-12-26T08:36:39.045Z</time>
      </trkpt>
      <trkpt lat="46.7244" lon="-1.98601">
        <ele>4.7</ele>
        <time>2024-12-26T08:36:40.045Z</time>
      </trkpt>
      <trkpt lat="46.72442" lon="-1.98602">
        <ele>4.7</ele>
        <time>2024-12-26T08:36:41.046Z</time>
      </trkpt>
      <trkpt lat="46.72444" lon="-1.98603">
        <ele>4.7</ele>
        <time>2024-12-26T08:36:42.045Z</time>
      </trkpt>
      <trkpt lat="46.72445" lon="-1.98604">
        <ele>4.7</ele>
        <time>2024-12-26T08:36:43.046Z</time>
      </trkpt>
      <trkpt lat="46.72446" lon="-1.98605">
        <ele>4.8</ele>
        <time>2024-12-26T08:36:44.045Z</time>
      </trkpt>
      <trkpt lat="46.72447" lon="-1.98606">
        <ele>4.9</ele>
        <time>2024-12-26T08:36:45.045Z</time>
      </trkpt>
      <trkpt lat="46.72448" lon="-1.98607">
        <ele>5</ele>
        <time>2024-12-26T08:36:46.045Z</time>
      </trkpt>
      <trkpt lat="46.7245" lon="-1.98608">
        <ele>5.1</ele>
        <time>2024-12-26T08:36:47.045Z</time>
      </trkpt>
      <trkpt lat="46.72451" lon="-1.98609">
        <ele>5.2</ele>
        <time>2024-12-26T08:36:48.045Z</time>
      </trkpt>
      <trkpt lat="46.72452" lon="-1.9861">
        <ele>5.2</ele>
        <time>2024-12-26T08:36:49.046Z</time>
      </trkpt>
      <trkpt lat="46.72452" lon="-1.9861">
        <ele>5.3</ele>
        <time>2024-12-26T08:36:50.045Z</time>
      </trkpt>
      <trkpt lat="46.72453" lon="-1.98611">
        <ele>5.3</ele>
        <time>2024-12-26T08:36:51.045Z</time>
      </trkpt>
      <trkpt lat="46.72454" lon="-1.98611">
        <ele>5.4</ele>
        <time>2024-12-26T08:36:52.045Z</time>
      </trkpt>
      <trkpt lat="46.72455" lon="-1.98612">
        <ele>5.4</ele>
        <time>2024-12-26T08:36:53.046Z</time>
      </trkpt>
      <trkpt lat="46.72456" lon="-1.98613">
        <ele>5.5</ele>
        <time>2024-12-26T08:36:54.045Z</time>
      </trkpt>
      <trkpt lat="46.72457" lon="-1.98615">
        <ele>5.5</ele>
        <time>2024-12-26T08:36:55.046Z</time>
      </trkpt>
      <trkpt lat="46.72458" lon="-1.98616">
        <ele>5.6</ele>
        <time>2024-12-26T08:36:56.045Z</time>
      </trkpt>
      <trkpt lat="46.72459" lon="-1.98617">
        <ele>5.6</ele>
        <time>2024-12-26T08:36:57.045Z</time>
      </trkpt>
      <trkpt lat="46.7246" lon="-1.98618">
        <ele>5.6</ele>
        <time>2024-12-26T08:36:58.045Z</time>
      </trkpt>
      <trkpt lat="46.72461" lon="-1.9862">
        <ele>5.7</ele>
        <time>2024-12-26T08:36:59.045Z</time>
      </trkpt>
      <trkpt lat="46.72462" lon="-1.98621">
        <ele>5.7</ele>
        <time>2024-12-26T08:37:00.045Z</time>
      </trkpt>
      <trkpt lat="46.72463" lon="-1.98622">
        <ele>5.7</ele>
        <time>2024-12-26T08:37:01.045Z</time>
      </trkpt>
      <trkpt lat="46.72464" lon="-1.98623">
        <ele>5.7</ele>
        <time>2024-12-26T08:37:02.046Z</time>
      </trkpt>
      <trkpt lat="46.72466" lon="-1.98624">
        <ele>5.6</ele>
        <time>2024-12-26T08:37:03.046Z</time>
      </trkpt>
      <trkpt lat="46.72466" lon="-1.98626">
        <ele>5.6</ele>
        <time>2024-12-26T08:37:04.045Z</time>
      </trkpt>
      <trkpt lat="46.72467" lon="-1.98627">
        <ele>5.6</ele>
        <time>2024-12-26T08:37:05.046Z</time>
      </trkpt>
      <trkpt lat="46.72468" lon="-1.98629">
        <ele>5.5</ele>
        <time>2024-12-26T08:37:06.046Z</time>
      </trkpt>
      <trkpt lat="46.72469" lon="-1.98631">
        <ele>5.4</ele>
        <time>2024-12-26T08:37:07.046Z</time>
      </trkpt>
      <trkpt lat="46.7247" lon="-1.98632">
        <ele>5.3</ele>
        <time>2024-12-26T08:37:08.045Z</time>
      </trkpt>
      <trkpt lat="46.72471" lon="-1.98634">
        <ele>5.2</ele>
        <time>2024-12-26T08:37:09.045Z</time>
      </trkpt>
      <trkpt lat="46.72472" lon="-1.98635">
        <ele>5.1</ele>
        <time>2024-12-26T08:37:10.046Z</time>
      </trkpt>
      <trkpt lat="46.72473" lon="-1.98636">
        <ele>5.1</ele>
        <time>2024-12-26T08:37:11.045Z</time>
      </trkpt>
      <trkpt lat="46.72474" lon="-1.98638">
        <ele>5</ele>
        <time>2024-12-26T08:37:12.046Z</time>
      </trkpt>
      <trkpt lat="46.72476" lon="-1.98639">
        <ele>4.9</ele>
        <time>2024-12-26T08:37:13.045Z</time>
      </trkpt>
      <trkpt lat="46.72476" lon="-1.98641">
        <ele>4.9</ele>
        <time>2024-12-26T08:37:14.045Z</time>
      </trkpt>
      <trkpt lat="46.72477" lon="-1.98642">
        <ele>4.8</ele>
        <time>2024-12-26T08:37:15.045Z</time>
      </trkpt>
      <trkpt lat="46.72478" lon="-1.98644">
        <ele>4.8</ele>
        <time>2024-12-26T08:37:16.046Z</time>
      </trkpt>
      <trkpt lat="46.72479" lon="-1.98646">
        <ele>4.8</ele>
        <time>2024-12-26T08:37:17.046Z</time>
      </trkpt>
      <trkpt lat="46.7248" lon="-1.98647">
        <ele>4.7</ele>
        <time>2024-12-26T08:37:18.045Z</time>
      </trkpt>
      <trkpt lat="46.72481" lon="-1.98649">
        <ele>4.7</ele>
        <time>2024-12-26T08:37:19.046Z</time>
      </trkpt>
      <trkpt lat="46.72483" lon="-1.9865">
        <ele>4.6</ele>
        <time>2024-12-26T08:37:20.045Z</time>
      </trkpt>
      <trkpt lat="46.72484" lon="-1.98652">
        <ele>4.6</ele>
        <time>2024-12-26T08:37:21.045Z</time>
      </trkpt>
      <trkpt lat="46.72485" lon="-1.98653">
        <ele>4.5</ele>
        <time>2024-12-26T08:37:22.045Z</time>
      </trkpt>
      <trkpt lat="46.72486" lon="-1.98655">
        <ele>4.5</ele>
        <time>2024-12-26T08:37:23.046Z</time>
      </trkpt>
      <trkpt lat="46.72488" lon="-1.98656">
        <ele>4.5</ele>
        <time>2024-12-26T08:37:24.045Z</time>
      </trkpt>
      <trkpt lat="46.72489" lon="-1.98657">
        <ele>4.4</ele>
        <time>2024-12-26T08:37:25.045Z</time>
      </trkpt>
      <trkpt lat="46.7249" lon="-1.98658">
        <ele>4.4</ele>
        <time>2024-12-26T08:37:26.045Z</time>
      </trkpt>
      <trkpt lat="46.72491" lon="-1.9866">
        <ele>4.3</ele>
        <time>2024-12-26T08:37:27.046Z</time>
      </trkpt>
      <trkpt lat="46.72493" lon="-1.98661">
        <ele>4.3</ele>
        <time>2024-12-26T08:37:28.045Z</time>
      </trkpt>
      <trkpt lat="46.72494" lon="-1.98663">
        <ele>4.2</ele>
        <time>2024-12-26T08:37:29.046Z</time>
      </trkpt>
      <trkpt lat="46.72495" lon="-1.98664">
        <ele>4.2</ele>
        <time>2024-12-26T08:37:30.046Z</time>
      </trkpt>
      <trkpt lat="46.72497" lon="-1.98666">
        <ele>4.1</ele>
        <time>2024-12-26T08:37:31.046Z</time>
      </trkpt>
      <trkpt lat="46.72498" lon="-1.98667">
        <ele>4.1</ele>
        <time>2024-12-26T08:37:32.045Z</time>
      </trkpt>
      <trkpt lat="46.72499" lon="-1.98668">
        <ele>4</ele>
        <time>2024-12-26T08:37:33.045Z</time>
      </trkpt>
      <trkpt lat="46.725" lon="-1.9867">
        <ele>4</ele>
        <time>2024-12-26T08:37:34.045Z</time>
      </trkpt>
      <trkpt lat="46.72501" lon="-1.98671">
        <ele>4</ele>
        <time>2024-12-26T08:37:35.045Z</time>
      </trkpt>
      <trkpt lat="46.72503" lon="-1.98673">
        <ele>4.1</ele>
        <time>2024-12-26T08:37:36.045Z</time>
      </trkpt>
      <trkpt lat="46.72504" lon="-1.98674">
        <ele>4.1</ele>
        <time>2024-12-26T08:37:37.045Z</time>
      </trkpt>
      <trkpt lat="46.72505" lon="-1.98676">
        <ele>4.2</ele>
        <time>2024-12-26T08:37:38.045Z</time>
      </trkpt>
      <trkpt lat="46.72506" lon="-1.98677">
        <ele>4.2</ele>
        <time>2024-12-26T08:37:39.046Z</time>
      </trkpt>
      <trkpt lat="46.72507" lon="-1.98678">
        <ele>4.2</ele>
        <time>2024-12-26T08:37:40.046Z</time>
      </trkpt>
      <trkpt lat="46.72508" lon="-1.9868">
        <ele>4.3</ele>
        <time>2024-12-26T08:37:41.046Z</time>
      </trkpt>
      <trkpt lat="46.72509" lon="-1.98681">
        <ele>4.3</ele>
        <time>2024-12-26T08:37:42.046Z</time>
      </trkpt>
      <trkpt lat="46.7251" lon="-1.98683">
        <ele>4.4</ele>
        <time>2024-12-26T08:37:43.046Z</time>
      </trkpt>
      <trkpt lat="46.72511" lon="-1.98684">
        <ele>4.4</ele>
        <time>2024-12-26T08:37:44.046Z</time>
      </trkpt>
      <trkpt lat="46.72513" lon="-1.98686">
        <ele>4.4</ele>
        <time>2024-12-26T08:37:45.045Z</time>
      </trkpt>
      <trkpt lat="46.72514" lon="-1.98688">
        <ele>4.5</ele>
        <time>2024-12-26T08:37:46.045Z</time>
      </trkpt>
      <trkpt lat="46.72515" lon="-1.98689">
        <ele>4.5</ele>
        <time>2024-12-26T08:37:47.046Z</time>
      </trkpt>
      <trkpt lat="46.72516" lon="-1.98691">
        <ele>4.6</ele>
        <time>2024-12-26T08:37:48.046Z</time>
      </trkpt>
      <trkpt lat="46.72516" lon="-1.98693">
        <ele>4.6</ele>
        <time>2024-12-26T08:37:49.046Z</time>
      </trkpt>
      <trkpt lat="46.72517" lon="-1.98694">
        <ele>4.6</ele>
        <time>2024-12-26T08:37:50.046Z</time>
      </trkpt>
      <trkpt lat="46.72518" lon="-1.98696">
        <ele>4.7</ele>
        <time>2024-12-26T08:37:51.046Z</time>
      </trkpt>
      <trkpt lat="46.7252" lon="-1.98697">
        <ele>4.8</ele>
        <time>2024-12-26T08:37:52.046Z</time>
      </trkpt>
      <trkpt lat="46.72521" lon="-1.98698">
        <ele>5</ele>
        <time>2024-12-26T08:37:53.045Z</time>
      </trkpt>
      <trkpt lat="46.72522" lon="-1.98699">
        <ele>5.1</ele>
        <time>2024-12-26T08:37:54.045Z</time>
      </trkpt>
      <trkpt lat="46.72524" lon="-1.987">
        <ele>5.2</ele>
        <time>2024-12-26T08:37:55.045Z</time>
      </trkpt>
      <trkpt lat="46.72525" lon="-1.98702">
        <ele>5.4</ele>
        <time>2024-12-26T08:37:56.045Z</time>
      </trkpt>
      <trkpt lat="46.72526" lon="-1.98703">
        <ele>5.5</ele>
        <time>2024-12-26T08:37:57.045Z</time>
      </trkpt>
      <trkpt lat="46.72528" lon="-1.98704">
        <ele>5.7</ele>
        <time>2024-12-26T08:37:58.046Z</time>
      </trkpt>
      <trkpt lat="46.72529" lon="-1.98705">
        <ele>5.8</ele>
        <time>2024-12-26T08:37:59.046Z</time>
      </trkpt>
      <trkpt lat="46.7253" lon="-1.98706">
        <ele>5.8</ele>
        <time>2024-12-26T08:38:00.046Z</time>
      </trkpt>
      <trkpt lat="46.72532" lon="-1.98708">
        <ele>5.9</ele>
        <time>2024-12-26T08:38:01.046Z</time>
      </trkpt>
      <trkpt lat="46.72532" lon="-1.9871">
        <ele>6</ele>
        <time>2024-12-26T08:38:02.046Z</time>
      </trkpt>
      <trkpt lat="46.72534" lon="-1.98712">
        <ele>6.1</ele>
        <time>2024-12-26T08:38:03.045Z</time>
      </trkpt>
      <trkpt lat="46.72535" lon="-1.98713">
        <ele>6.1</ele>
        <time>2024-12-26T08:38:04.046Z</time>
      </trkpt>
      <trkpt lat="46.72536" lon="-1.98714">
        <ele>6.2</ele>
        <time>2024-12-26T08:38:05.046Z</time>
      </trkpt>
      <trkpt lat="46.72537" lon="-1.98715">
        <ele>6.2</ele>
        <time>2024-12-26T08:38:06.046Z</time>
      </trkpt>
      <trkpt lat="46.72538" lon="-1.98717">
        <ele>6.3</ele>
        <time>2024-12-26T08:38:07.046Z</time>
      </trkpt>
      <trkpt lat="46.7254" lon="-1.98718">
        <ele>6.3</ele>
        <time>2024-12-26T08:38:08.046Z</time>
      </trkpt>
      <trkpt lat="46.72541" lon="-1.98719">
        <ele>6.3</ele>
        <time>2024-12-26T08:38:09.046Z</time>
      </trkpt>
      <trkpt lat="46.72542" lon="-1.9872">
        <ele>6.4</ele>
        <time>2024-12-26T08:38:10.046Z</time>
      </trkpt>
      <trkpt lat="46.72543" lon="-1.98721">
        <ele>6.4</ele>
        <time>2024-12-26T08:38:11.046Z</time>
      </trkpt>
      <trkpt lat="46.72544" lon="-1.98722">
        <ele>6.4</ele>
        <time>2024-12-26T08:38:12.045Z</time>
      </trkpt>
      <trkpt lat="46.72545" lon="-1.98723">
        <ele>6.4</ele>
        <time>2024-12-26T08:38:13.046Z</time>
      </trkpt>
      <trkpt lat="46.72546" lon="-1.98725">
        <ele>6.4</ele>
        <time>2024-12-26T08:38:14.045Z</time>
      </trkpt>
      <trkpt lat="46.72547" lon="-1.98726">
        <ele>6.3</ele>
        <time>2024-12-26T08:38:15.045Z</time>
      </trkpt>
      <trkpt lat="46.72548" lon="-1.98727">
        <ele>6.3</ele>
        <time>2024-12-26T08:38:16.045Z</time>
      </trkpt>
      <trkpt lat="46.72549" lon="-1.98728">
        <ele>6.3</ele>
        <time>2024-12-26T08:38:17.045Z</time>
      </trkpt>
      <trkpt lat="46.7255" lon="-1.98729">
        <ele>6.3</ele>
        <time>2024-12-26T08:38:18.046Z</time>
      </trkpt>
      <trkpt lat="46.72551" lon="-1.98731">
        <ele>6.2</ele>
        <time>2024-12-26T08:38:19.045Z</time>
      </trkpt>
      <trkpt lat="46.72551" lon="-1.98732">
        <ele>6.2</ele>
        <time>2024-12-26T08:38:20.045Z</time>
      </trkpt>
      <trkpt lat="46.72552" lon="-1.98734">
        <ele>6.2</ele>
        <time>2024-12-26T08:38:21.045Z</time>
      </trkpt>
      <trkpt lat="46.72553" lon="-1.98735">
        <ele>6.1</ele>
        <time>2024-12-26T08:38:22.045Z</time>
      </trkpt>
      <trkpt lat="46.72555" lon="-1.98736">
        <ele>6.1</ele>
        <time>2024-12-26T08:38:23.046Z</time>
      </trkpt>
      <trkpt lat="46.72556" lon="-1.98737">
        <ele>6</ele>
        <time>2024-12-26T08:38:24.046Z</time>
      </trkpt>
      <trkpt lat="46.72557" lon="-1.98738">
        <ele>6</ele>
        <time>2024-12-26T08:38:25.045Z</time>
      </trkpt>
      <trkpt lat="46.72558" lon="-1.9874">
        <ele>5.9</ele>
        <time>2024-12-26T08:38:26.045Z</time>
      </trkpt>
      <trkpt lat="46.72559" lon="-1.98741">
        <ele>5.9</ele>
        <time>2024-12-26T08:38:27.045Z</time>
      </trkpt>
      <trkpt lat="46.7256" lon="-1.98744">
        <ele>5.8</ele>
        <time>2024-12-26T08:38:28.046Z</time>
      </trkpt>
      <trkpt lat="46.72561" lon="-1.98745">
        <ele>5.8</ele>
        <time>2024-12-26T08:38:29.046Z</time>
      </trkpt>
      <trkpt lat="46.72562" lon="-1.98746">
        <ele>5.8</ele>
        <time>2024-12-26T08:38:30.046Z</time>
      </trkpt>
      <trkpt lat="46.72563" lon="-1.98747">
        <ele>5.7</ele>
        <time>2024-12-26T08:38:31.046Z</time>
      </trkpt>
      <trkpt lat="46.72564" lon="-1.98748">
        <ele>5.7</ele>
        <time>2024-12-26T08:38:32.045Z</time>
      </trkpt>
      <trkpt lat="46.72565" lon="-1.9875">
        <ele>5.7</ele>
        <time>2024-12-26T08:38:33.046Z</time>
      </trkpt>
      <trkpt lat="46.72565" lon="-1.98751">
        <ele>5.6</ele>
        <time>2024-12-26T08:38:34.046Z</time>
      </trkpt>
      <trkpt lat="46.72566" lon="-1.98753">
        <ele>5.6</ele>
        <time>2024-12-26T08:38:35.046Z</time>
      </trkpt>
      <trkpt lat="46.72567" lon="-1.98754">
        <ele>5.6</ele>
        <time>2024-12-26T08:38:36.045Z</time>
      </trkpt>
      <trkpt lat="46.72568" lon="-1.98756">
        <ele>5.6</ele>
        <time>2024-12-26T08:38:37.045Z</time>
      </trkpt>
      <trkpt lat="46.72569" lon="-1.98757">
        <ele>5.5</ele>
        <time>2024-12-26T08:38:38.045Z</time>
      </trkpt>
      <trkpt lat="46.7257" lon="-1.98759">
        <ele>5.5</ele>
        <time>2024-12-26T08:38:39.045Z</time>
      </trkpt>
      <trkpt lat="46.72571" lon="-1.9876">
        <ele>5.5</ele>
        <time>2024-12-26T08:38:40.045Z</time>
      </trkpt>
      <trkpt lat="46.72572" lon="-1.98761">
        <ele>5.4</ele>
        <time>2024-12-26T08:38:41.046Z</time>
      </trkpt>
      <trkpt lat="46.72572" lon="-1.98763">
        <ele>5.4</ele>
        <time>2024-12-26T08:38:42.046Z</time>
      </trkpt>
      <trkpt lat="46.72573" lon="-1.98764">
        <ele>5.4</ele>
        <time>2024-12-26T08:38:43.046Z</time>
      </trkpt>
      <trkpt lat="46.72573" lon="-1.98764">
        <ele>5.4</ele>
        <time>2024-12-26T08:38:44.046Z</time>
      </trkpt>
      <trkpt lat="46.72572" lon="-1.98764">
        <ele>5.4</ele>
        <time>2024-12-26T08:38:45.046Z</time>
      </trkpt>
      <trkpt lat="46.72572" lon="-1.98764">
        <ele>5.4</ele>
        <time>2024-12-26T08:38:46.046Z</time>
      </trkpt>
      <trkpt lat="46.72572" lon="-1.98764">
        <ele>5.4</ele>
        <time>2024-12-26T08:38:47.045Z</time>
      </trkpt>
      <trkpt lat="46.72572" lon="-1.98765">
        <ele>5.4</ele>
        <time>2024-12-26T08:38:48.045Z</time>
      </trkpt>
      <trkpt lat="46.72572" lon="-1.98765">
        <ele>5.4</ele>
        <time>2024-12-26T08:38:49.045Z</time>
      </trkpt>
      <trkpt lat="46.72572" lon="-1.98765">
        <ele>5.4</ele>
        <time>2024-12-26T08:38:50.046Z</time>
      </trkpt>
      <trkpt lat="46.72572" lon="-1.98765">
        <ele>5.4</ele>
        <time>2024-12-26T08:38:51.045Z</time>
      </trkpt>
      <trkpt lat="46.72572" lon="-1.98765">
        <ele>5.4</ele>
        <time>2024-12-26T08:38:52.045Z</time>
      </trkpt>
      <trkpt lat="46.72572" lon="-1.98765">
        <ele>5.4</ele>
        <time>2024-12-26T08:38:53.045Z</time>
      </trkpt>
      <trkpt lat="46.72572" lon="-1.98765">
        <ele>5.4</ele>
        <time>2024-12-26T08:38:54.046Z</time>
      </trkpt>
      <trkpt lat="46.72572" lon="-1.98765">
        <ele>5.4</ele>
        <time>2024-12-26T08:38:55.046Z</time>
      </trkpt>
      <trkpt lat="46.72572" lon="-1.98765">
        <ele>5.4</ele>
        <time>2024-12-26T08:38:56.046Z</time>
      </trkpt>
      <trkpt lat="46.72572" lon="-1.98765">
        <ele>5.4</ele>
        <time>2024-12-26T08:38:57.045Z</time>
      </trkpt>
      <trkpt lat="46.72572" lon="-1.98765">
        <ele>5.4</ele>
        <time>2024-12-26T08:38:58.046Z</time>
      </trkpt>
      <trkpt lat="46.72572" lon="-1.98765">
        <ele>5.4</ele>
        <time>2024-12-26T08:38:59.046Z</time>
      </trkpt>
      <trkpt lat="46.72572" lon="-1.98765">
        <ele>5.4</ele>
        <time>2024-12-26T08:39:00.046Z</time>
      </trkpt>
      <trkpt lat="46.72572" lon="-1.98765">
        <ele>5.4</ele>
        <time>2024-12-26T08:39:01.046Z</time>
      </trkpt>
      <trkpt lat="46.72572" lon="-1.98765">
        <ele>5.4</ele>
        <time>2024-12-26T08:39:02.045Z</time>
      </trkpt>
      <trkpt lat="46.72572" lon="-1.98765">
        <ele>5.4</ele>
        <time>2024-12-26T08:39:03.045Z</time>
      </trkpt>
      <trkpt lat="46.72572" lon="-1.98765">
        <ele>5.4</ele>
        <time>2024-12-26T08:39:04.046Z</time>
      </trkpt>
      <trkpt lat="46.72572" lon="-1.98765">
        <ele>5.4</ele>
        <time>2024-12-26T08:39:05.046Z</time>
      </trkpt>
      <trkpt lat="46.72572" lon="-1.98765">
        <ele>5.4</ele>
        <time>2024-12-26T08:39:06.046Z</time>
      </trkpt>
      <trkpt lat="46.72572" lon="-1.98765">
        <ele>5.4</ele>
        <time>2024-12-26T08:39:07.046Z</time>
      </trkpt>
      <trkpt lat="46.72572" lon="-1.98765">
        <ele>5.4</ele>
        <time>2024-12-26T08:39:08.045Z</time>
      </trkpt>
      <trkpt lat="46.72572" lon="-1.98765">
        <ele>5.4</ele>
        <time>2024-12-26T08:39:09.045Z</time>
      </trkpt>
      <trkpt lat="46.72572" lon="-1.98765">
        <ele>5.4</ele>
        <time>2024-12-26T08:39:10.045Z</time>
      </trkpt>
      <trkpt lat="46.72572" lon="-1.98765">
        <ele>5.4</ele>
        <time>2024-12-26T08:39:11.045Z</time>
      </trkpt>
      <trkpt lat="46.72572" lon="-1.98765">
        <ele>5.4</ele>
        <time>2024-12-26T08:39:12.045Z</time>
      </trkpt>
      <trkpt lat="46.72572" lon="-1.98766">
        <ele>5.4</ele>
        <time>2024-12-26T08:39:13.045Z</time>
      </trkpt>
      <trkpt lat="46.72572" lon="-1.98766">
        <ele>5.4</ele>
        <time>2024-12-26T08:39:14.046Z</time>
      </trkpt>
      <trkpt lat="46.72572" lon="-1.98767">
        <ele>5.4</ele>
        <time>2024-12-26T08:39:15.045Z</time>
      </trkpt>
      <trkpt lat="46.72572" lon="-1.98767">
        <ele>5.4</ele>
        <time>2024-12-26T08:39:16.046Z</time>
      </trkpt>
      <trkpt lat="46.72573" lon="-1.98767">
        <ele>5.4</ele>
        <time>2024-12-26T08:39:17.046Z</time>
      </trkpt>
      <trkpt lat="46.72573" lon="-1.98768">
        <ele>5.4</ele>
        <time>2024-12-26T08:39:18.046Z</time>
      </trkpt>
      <trkpt lat="46.72573" lon="-1.98768">
        <ele>5.4</ele>
        <time>2024-12-26T08:39:19.046Z</time>
      </trkpt>
      <trkpt lat="46.72573" lon="-1.98768">
        <ele>5.4</ele>
        <time>2024-12-26T08:39:20.046Z</time>
      </trkpt>
      <trkpt lat="46.72573" lon="-1.98768">
        <ele>5.4</ele>
        <time>2024-12-26T08:39:21.045Z</time>
      </trkpt>
      <trkpt lat="46.72573" lon="-1.98768">
        <ele>5.4</ele>
        <time>2024-12-26T08:39:22.045Z</time>
      </trkpt>
      <trkpt lat="46.72573" lon="-1.98768">
        <ele>5.4</ele>
        <time>2024-12-26T08:39:23.046Z</time>
      </trkpt>
      <trkpt lat="46.72573" lon="-1.98768">
        <ele>5.4</ele>
        <time>2024-12-26T08:39:24.046Z</time>
      </trkpt>
      <trkpt lat="46.72573" lon="-1.98768">
        <ele>5.4</ele>
        <time>2024-12-26T08:39:25.046Z</time>
      </trkpt>
      <trkpt lat="46.72573" lon="-1.98768">
        <ele>5.4</ele>
        <time>2024-12-26T08:39:26.045Z</time>
      </trkpt>
      <trkpt lat="46.72573" lon="-1.98768">
        <ele>5.4</ele>
        <time>2024-12-26T08:39:27.045Z</time>
      </trkpt>
      <trkpt lat="46.72573" lon="-1.98768">
        <ele>5.4</ele>
        <time>2024-12-26T08:39:28.045Z</time>
      </trkpt>
      <trkpt lat="46.72573" lon="-1.98769">
        <ele>5.4</ele>
        <time>2024-12-26T08:39:29.045Z</time>
      </trkpt>
      <trkpt lat="46.72573" lon="-1.98769">
        <ele>5.4</ele>
        <time>2024-12-26T08:39:30.045Z</time>
      </trkpt>
      <trkpt lat="46.72573" lon="-1.98769">
        <ele>5.4</ele>
        <time>2024-12-26T08:39:31.045Z</time>
      </trkpt>
      <trkpt lat="46.72573" lon="-1.98769">
        <ele>5.4</ele>
        <time>2024-12-26T08:39:32.045Z</time>
      </trkpt>
      <trkpt lat="46.72573" lon="-1.98769">
        <ele>5.4</ele>
        <time>2024-12-26T08:39:33.045Z</time>
      </trkpt>
      <trkpt lat="46.72573" lon="-1.98769">
        <ele>5.4</ele>
        <time>2024-12-26T08:39:34.045Z</time>
      </trkpt>
      <trkpt lat="46.72573" lon="-1.98769">
        <ele>5.4</ele>
        <time>2024-12-26T08:39:35.046Z</time>
      </trkpt>
      <trkpt lat="46.72573" lon="-1.9877">
        <ele>5.4</ele>
        <time>2024-12-26T08:39:36.046Z</time>
      </trkpt>
      <trkpt lat="46.72574" lon="-1.98771">
        <ele>5.3</ele>
        <time>2024-12-26T08:39:37.046Z</time>
      </trkpt>
      <trkpt lat="46.72574" lon="-1.98773">
        <ele>5.3</ele>
        <time>2024-12-26T08:39:38.046Z</time>
      </trkpt>
      <trkpt lat="46.72575" lon="-1.98774">
        <ele>5.3</ele>
        <time>2024-12-26T08:39:39.046Z</time>
      </trkpt>
      <trkpt lat="46.72576" lon="-1.98776">
        <ele>5.3</ele>
        <time>2024-12-26T08:39:40.046Z</time>
      </trkpt>
      <trkpt lat="46.72577" lon="-1.98778">
        <ele>5.2</ele>
        <time>2024-12-26T08:39:41.046Z</time>
      </trkpt>
      <trkpt lat="46.72578" lon="-1.9878">
        <ele>5.2</ele>
        <time>2024-12-26T08:39:42.045Z</time>
      </trkpt>
      <trkpt lat="46.72579" lon="-1.98781">
        <ele>5.1</ele>
        <time>2024-12-26T08:39:43.046Z</time>
      </trkpt>
      <trkpt lat="46.7258" lon="-1.98782">
        <ele>5</ele>
        <time>2024-12-26T08:39:44.045Z</time>
      </trkpt>
      <trkpt lat="46.72581" lon="-1.98784">
        <ele>4.9</ele>
        <time>2024-12-26T08:39:45.046Z</time>
      </trkpt>
      <trkpt lat="46.72582" lon="-1.98785">
        <ele>4.8</ele>
        <time>2024-12-26T08:39:46.045Z</time>
      </trkpt>
      <trkpt lat="46.72582" lon="-1.98787">
        <ele>4.7</ele>
        <time>2024-12-26T08:39:47.045Z</time>
      </trkpt>
      <trkpt lat="46.72583" lon="-1.98787">
        <ele>4.7</ele>
        <time>2024-12-26T08:39:48.045Z</time>
      </trkpt>
      <trkpt lat="46.72583" lon="-1.98788">
        <ele>4.7</ele>
        <time>2024-12-26T08:39:49.046Z</time>
      </trkpt>
      <trkpt lat="46.72584" lon="-1.98789">
        <ele>4.6</ele>
        <time>2024-12-26T08:39:50.045Z</time>
      </trkpt>
      <trkpt lat="46.72584" lon="-1.98789">
        <ele>4.6</ele>
        <time>2024-12-26T08:39:51.046Z</time>
      </trkpt>
      <trkpt lat="46.72585" lon="-1.9879">
        <ele>4.6</ele>
        <time>2024-12-26T08:39:52.046Z</time>
      </trkpt>
      <trkpt lat="46.72585" lon="-1.9879">
        <ele>4.5</ele>
        <time>2024-12-26T08:39:53.045Z</time>
      </trkpt>
      <trkpt lat="46.72586" lon="-1.98791">
        <ele>4.5</ele>
        <time>2024-12-26T08:39:54.046Z</time>
      </trkpt>
      <trkpt lat="46.72586" lon="-1.98791">
        <ele>4.5</ele>
        <time>2024-12-26T08:39:55.046Z</time>
      </trkpt>
      <trkpt lat="46.72586" lon="-1.9879">
        <ele>4.6</ele>
        <time>2024-12-26T08:39:56.045Z</time>
      </trkpt>
      <trkpt lat="46.72586" lon="-1.98789">
        <ele>4.6</ele>
        <time>2024-12-26T08:39:57.045Z</time>
      </trkpt>
      <trkpt lat="46.72587" lon="-1.98788">
        <ele>4.6</ele>
        <time>2024-12-26T08:39:58.046Z</time>
      </trkpt>
      <trkpt lat="46.72587" lon="-1.98788">
        <ele>4.6</ele>
        <time>2024-12-26T08:39:59.046Z</time>
      </trkpt>
      <trkpt lat="46.72588" lon="-1.98787">
        <ele>4.7</ele>
        <time>2024-12-26T08:40:00.046Z</time>
      </trkpt>
      <trkpt lat="46.72588" lon="-1.98787">
        <ele>4.7</ele>
        <time>2024-12-26T08:40:01.045Z</time>
      </trkpt>
      <trkpt lat="46.72588" lon="-1.98787">
        <ele>4.7</ele>
        <time>2024-12-26T08:40:02.045Z</time>
      </trkpt>
      <trkpt lat="46.72588" lon="-1.98787">
        <ele>4.7</ele>
        <time>2024-12-26T08:40:03.045Z</time>
      </trkpt>
      <trkpt lat="46.72588" lon="-1.98786">
        <ele>4.7</ele>
        <time>2024-12-26T08:40:04.045Z</time>
      </trkpt>
      <trkpt lat="46.72588" lon="-1.98786">
        <ele>4.7</ele>
        <time>2024-12-26T08:40:05.045Z</time>
      </trkpt>
      <trkpt lat="46.72588" lon="-1.98786">
        <ele>4.7</ele>
        <time>2024-12-26T08:40:06.046Z</time>
      </trkpt>
      <trkpt lat="46.72588" lon="-1.98786">
        <ele>4.7</ele>
        <time>2024-12-26T08:40:07.046Z</time>
      </trkpt>
      <trkpt lat="46.72588" lon="-1.98786">
        <ele>4.7</ele>
        <time>2024-12-26T08:40:08.045Z</time>
      </trkpt>
      <trkpt lat="46.72588" lon="-1.98786">
        <ele>4.7</ele>
        <time>2024-12-26T08:40:09.046Z</time>
      </trkpt>
      <trkpt lat="46.72589" lon="-1.98787">
        <ele>4.7</ele>
        <time>2024-12-26T08:40:10.046Z</time>
      </trkpt>
      <trkpt lat="46.72589" lon="-1.98788">
        <ele>4.6</ele>
        <time>2024-12-26T08:40:11.046Z</time>
      </trkpt>
      <trkpt lat="46.72591" lon="-1.98791">
        <ele>4.5</ele>
        <time>2024-12-26T08:40:12.046Z</time>
      </trkpt>
      <trkpt lat="46.72592" lon="-1.98793">
        <ele>4.5</ele>
        <time>2024-12-26T08:40:13.045Z</time>
      </trkpt>
      <trkpt lat="46.72593" lon="-1.98795">
        <ele>4.4</ele>
        <time>2024-12-26T08:40:14.045Z</time>
      </trkpt>
      <trkpt lat="46.72594" lon="-1.98796">
        <ele>4.3</ele>
        <time>2024-12-26T08:40:15.045Z</time>
      </trkpt>
      <trkpt lat="46.72595" lon="-1.98798">
        <ele>4.3</ele>
        <time>2024-12-26T08:40:16.045Z</time>
      </trkpt>
      <trkpt lat="46.72596" lon="-1.98799">
        <ele>4.2</ele>
        <time>2024-12-26T08:40:17.045Z</time>
      </trkpt>
      <trkpt lat="46.72597" lon="-1.98801">
        <ele>4.2</ele>
        <time>2024-12-26T08:40:18.046Z</time>
      </trkpt>
      <trkpt lat="46.72599" lon="-1.98802">
        <ele>4.1</ele>
        <time>2024-12-26T08:40:19.045Z</time>
      </trkpt>
      <trkpt lat="46.72599" lon="-1.98804">
        <ele>4.1</ele>
        <time>2024-12-26T08:40:20.045Z</time>
      </trkpt>
      <trkpt lat="46.726" lon="-1.98805">
        <ele>4</ele>
        <time>2024-12-26T08:40:21.046Z</time>
      </trkpt>
      <trkpt lat="46.72601" lon="-1.98806">
        <ele>4</ele>
        <time>2024-12-26T08:40:22.046Z</time>
      </trkpt>
      <trkpt lat="46.72602" lon="-1.98807">
        <ele>4</ele>
        <time>2024-12-26T08:40:23.046Z</time>
      </trkpt>
      <trkpt lat="46.72603" lon="-1.98809">
        <ele>4</ele>
        <time>2024-12-26T08:40:24.046Z</time>
      </trkpt>
      <trkpt lat="46.72604" lon="-1.9881">
        <ele>4</ele>
        <time>2024-12-26T08:40:25.046Z</time>
      </trkpt>
      <trkpt lat="46.72605" lon="-1.98811">
        <ele>4</ele>
        <time>2024-12-26T08:40:26.045Z</time>
      </trkpt>
      <trkpt lat="46.72606" lon="-1.98812">
        <ele>4</ele>
        <time>2024-12-26T08:40:27.045Z</time>
      </trkpt>
      <trkpt lat="46.72607" lon="-1.98814">
        <ele>4</ele>
        <time>2024-12-26T08:40:28.046Z</time>
      </trkpt>
      <trkpt lat="46.72608" lon="-1.98816">
        <ele>4</ele>
        <time>2024-12-26T08:40:29.046Z</time>
      </trkpt>
      <trkpt lat="46.72609" lon="-1.98818">
        <ele>4</ele>
        <time>2024-12-26T08:40:30.046Z</time>
      </trkpt>
      <trkpt lat="46.72609" lon="-1.9882">
        <ele>4</ele>
        <time>2024-12-26T08:40:31.046Z</time>
      </trkpt>
      <trkpt lat="46.7261" lon="-1.98821">
        <ele>4</ele>
        <time>2024-12-26T08:40:32.046Z</time>
      </trkpt>
      <trkpt lat="46.72611" lon="-1.98823">
        <ele>4</ele>
        <time>2024-12-26T08:40:33.045Z</time>
      </trkpt>
      <trkpt lat="46.72612" lon="-1.98825">
        <ele>4</ele>
        <time>2024-12-26T08:40:34.045Z</time>
      </trkpt>
      <trkpt lat="46.72613" lon="-1.98826">
        <ele>4</ele>
        <time>2024-12-26T08:40:35.045Z</time>
      </trkpt>
      <trkpt lat="46.72614" lon="-1.98828">
        <ele>4</ele>
        <time>2024-12-26T08:40:36.046Z</time>
      </trkpt>
      <trkpt lat="46.72615" lon="-1.9883">
        <ele>4</ele>
        <time>2024-12-26T08:40:37.045Z</time>
      </trkpt>
      <trkpt lat="46.72616" lon="-1.98832">
        <ele>4</ele>
        <time>2024-12-26T08:40:38.046Z</time>
      </trkpt>
      <trkpt lat="46.72617" lon="-1.98834">
        <ele>4</ele>
        <time>2024-12-26T08:40:39.046Z</time>
      </trkpt>
      <trkpt lat="46.72617" lon="-1.98835">
        <ele>4.1</ele>
        <time>2024-12-26T08:40:40.046Z</time>
      </trkpt>
      <trkpt lat="46.72618" lon="-1.98837">
        <ele>4.2</ele>
        <time>2024-12-26T08:40:41.046Z</time>
      </trkpt>
      <trkpt lat="46.72619" lon="-1.98839">
        <ele>4.3</ele>
        <time>2024-12-26T08:40:42.046Z</time>
      </trkpt>
      <trkpt lat="46.7262" lon="-1.98841">
        <ele>4.4</ele>
        <time>2024-12-26T08:40:43.046Z</time>
      </trkpt>
      <trkpt lat="46.72621" lon="-1.98843">
        <ele>4.5</ele>
        <time>2024-12-26T08:40:44.045Z</time>
      </trkpt>
      <trkpt lat="46.72622" lon="-1.98844">
        <ele>4.5</ele>
        <time>2024-12-26T08:40:45.046Z</time>
      </trkpt>
      <trkpt lat="46.72623" lon="-1.98846">
        <ele>4.6</ele>
        <time>2024-12-26T08:40:46.045Z</time>
      </trkpt>
      <trkpt lat="46.72624" lon="-1.98847">
        <ele>4.7</ele>
        <time>2024-12-26T08:40:47.045Z</time>
      </trkpt>
      <trkpt lat="46.72625" lon="-1.98849">
        <ele>4.8</ele>
        <time>2024-12-26T08:40:48.046Z</time>
      </trkpt>
      <trkpt lat="46.72627" lon="-1.98851">
        <ele>5</ele>
        <time>2024-12-26T08:40:49.046Z</time>
      </trkpt>
      <trkpt lat="46.72628" lon="-1.98852">
        <ele>5.1</ele>
        <time>2024-12-26T08:40:50.046Z</time>
      </trkpt>
      <trkpt lat="46.72629" lon="-1.98854">
        <ele>5.2</ele>
        <time>2024-12-26T08:40:51.046Z</time>
      </trkpt>
      <trkpt lat="46.7263" lon="-1.98855">
        <ele>5.3</ele>
        <time>2024-12-26T08:40:52.046Z</time>
      </trkpt>
      <trkpt lat="46.72631" lon="-1.98856">
        <ele>5.4</ele>
        <time>2024-12-26T08:40:53.046Z</time>
      </trkpt>
      <trkpt lat="46.72631" lon="-1.98858">
        <ele>5.5</ele>
        <time>2024-12-26T08:40:54.046Z</time>
      </trkpt>
      <trkpt lat="46.72632" lon="-1.98859">
        <ele>5.7</ele>
        <time>2024-12-26T08:40:55.045Z</time>
      </trkpt>
      <trkpt lat="46.72634" lon="-1.98861">
        <ele>5.8</ele>
        <time>2024-12-26T08:40:56.046Z</time>
      </trkpt>
      <trkpt lat="46.72635" lon="-1.98862">
        <ele>5.8</ele>
        <time>2024-12-26T08:40:57.046Z</time>
      </trkpt>
      <trkpt lat="46.72636" lon="-1.98863">
        <ele>5.8</ele>
        <time>2024-12-26T08:40:58.046Z</time>
      </trkpt>
      <trkpt lat="46.72637" lon="-1.98864">
        <ele>5.7</ele>
        <time>2024-12-26T08:40:59.046Z</time>
      </trkpt>
      <trkpt lat="46.72638" lon="-1.98865">
        <ele>5.7</ele>
        <time>2024-12-26T08:41:00.046Z</time>
      </trkpt>
      <trkpt lat="46.72639" lon="-1.98866">
        <ele>5.6</ele>
        <time>2024-12-26T08:41:01.046Z</time>
      </trkpt>
      <trkpt lat="46.7264" lon="-1.98867">
        <ele>5.6</ele>
        <time>2024-12-26T08:41:02.045Z</time>
      </trkpt>
      <trkpt lat="46.72641" lon="-1.98867">
        <ele>5.5</ele>
        <time>2024-12-26T08:41:03.045Z</time>
      </trkpt>
      <trkpt lat="46.72643" lon="-1.98868">
        <ele>5.5</ele>
        <time>2024-12-26T08:41:04.045Z</time>
      </trkpt>
      <trkpt lat="46.72644" lon="-1.98868">
        <ele>5.4</ele>
        <time>2024-12-26T08:41:05.045Z</time>
      </trkpt>
      <trkpt lat="46.72645" lon="-1.98869">
        <ele>5.4</ele>
        <time>2024-12-26T08:41:06.045Z</time>
      </trkpt>
      <trkpt lat="46.72647" lon="-1.98869">
        <ele>5.4</ele>
        <time>2024-12-26T08:41:07.045Z</time>
      </trkpt>
      <trkpt lat="46.72648" lon="-1.98869">
        <ele>5.3</ele>
        <time>2024-12-26T08:41:08.046Z</time>
      </trkpt>
      <trkpt lat="46.7265" lon="-1.9887">
        <ele>5.3</ele>
        <time>2024-12-26T08:41:09.045Z</time>
      </trkpt>
      <trkpt lat="46.72651" lon="-1.9887">
        <ele>5.2</ele>
        <time>2024-12-26T08:41:10.045Z</time>
      </trkpt>
      <trkpt lat="46.72652" lon="-1.98871">
        <ele>5.1</ele>
        <time>2024-12-26T08:41:11.045Z</time>
      </trkpt>
      <trkpt lat="46.72654" lon="-1.98872">
        <ele>5</ele>
        <time>2024-12-26T08:41:12.046Z</time>
      </trkpt>
      <trkpt lat="46.72655" lon="-1.98872">
        <ele>5</ele>
        <time>2024-12-26T08:41:13.046Z</time>
      </trkpt>
      <trkpt lat="46.72657" lon="-1.98873">
        <ele>4.9</ele>
        <time>2024-12-26T08:41:14.045Z</time>
      </trkpt>
      <trkpt lat="46.72658" lon="-1.98874">
        <ele>4.7</ele>
        <time>2024-12-26T08:41:15.046Z</time>
      </trkpt>
      <trkpt lat="46.72659" lon="-1.98876">
        <ele>4.6</ele>
        <time>2024-12-26T08:41:16.046Z</time>
      </trkpt>
      <trkpt lat="46.7266" lon="-1.98877">
        <ele>4.4</ele>
        <time>2024-12-26T08:41:17.046Z</time>
      </trkpt>
      <trkpt lat="46.72661" lon="-1.98878">
        <ele>4.3</ele>
        <time>2024-12-26T08:41:18.045Z</time>
      </trkpt>
      <trkpt lat="46.72662" lon="-1.9888">
        <ele>4.1</ele>
        <time>2024-12-26T08:41:19.046Z</time>
      </trkpt>
      <trkpt lat="46.72663" lon="-1.98881">
        <ele>3.9</ele>
        <time>2024-12-26T08:41:20.046Z</time>
      </trkpt>
      <trkpt lat="46.72664" lon="-1.98882">
        <ele>3.8</ele>
        <time>2024-12-26T08:41:21.046Z</time>
      </trkpt>
      <trkpt lat="46.72666" lon="-1.98884">
        <ele>3.6</ele>
        <time>2024-12-26T08:41:22.045Z</time>
      </trkpt>
      <trkpt lat="46.72667" lon="-1.98885">
        <ele>3.5</ele>
        <time>2024-12-26T08:41:23.045Z</time>
      </trkpt>
      <trkpt lat="46.72668" lon="-1.98887">
        <ele>3.3</ele>
        <time>2024-12-26T08:41:24.045Z</time>
      </trkpt>
      <trkpt lat="46.72669" lon="-1.98888">
        <ele>3.2</ele>
        <time>2024-12-26T08:41:25.045Z</time>
      </trkpt>
      <trkpt lat="46.7267" lon="-1.9889">
        <ele>3.3</ele>
        <time>2024-12-26T08:41:26.045Z</time>
      </trkpt>
      <trkpt lat="46.72671" lon="-1.98891">
        <ele>3.4</ele>
        <time>2024-12-26T08:41:27.045Z</time>
      </trkpt>
      <trkpt lat="46.72673" lon="-1.98893">
        <ele>3.5</ele>
        <time>2024-12-26T08:41:28.046Z</time>
      </trkpt>
      <trkpt lat="46.72674" lon="-1.98895">
        <ele>3.7</ele>
        <time>2024-12-26T08:41:29.046Z</time>
      </trkpt>
      <trkpt lat="46.72675" lon="-1.98896">
        <ele>3.8</ele>
        <time>2024-12-26T08:41:30.045Z</time>
      </trkpt>
      <trkpt lat="46.72676" lon="-1.98898">
        <ele>3.9</ele>
        <time>2024-12-26T08:41:31.045Z</time>
      </trkpt>
      <trkpt lat="46.72677" lon="-1.989">
        <ele>4</ele>
        <time>2024-12-26T08:41:32.045Z</time>
      </trkpt>
      <trkpt lat="46.72679" lon="-1.98901">
        <ele>4.1</ele>
        <time>2024-12-26T08:41:33.045Z</time>
      </trkpt>
      <trkpt lat="46.72679" lon="-1.98902">
        <ele>4.2</ele>
        <time>2024-12-26T08:41:34.046Z</time>
      </trkpt>
      <trkpt lat="46.72681" lon="-1.98904">
        <ele>4.3</ele>
        <time>2024-12-26T08:41:35.046Z</time>
      </trkpt>
      <trkpt lat="46.72682" lon="-1.98905">
        <ele>4.3</ele>
        <time>2024-12-26T08:41:36.046Z</time>
      </trkpt>
      <trkpt lat="46.72682" lon="-1.98906">
        <ele>4.4</ele>
        <time>2024-12-26T08:41:37.045Z</time>
      </trkpt>
      <trkpt lat="46.72683" lon="-1.98907">
        <ele>4.4</ele>
        <time>2024-12-26T08:41:38.046Z</time>
      </trkpt>
      <trkpt lat="46.72683" lon="-1.98908">
        <ele>4.5</ele>
        <time>2024-12-26T08:41:39.045Z</time>
      </trkpt>
      <trkpt lat="46.72684" lon="-1.98909">
        <ele>4.5</ele>
        <time>2024-12-26T08:41:40.045Z</time>
      </trkpt>
      <trkpt lat="46.72684" lon="-1.98909">
        <ele>4.5</ele>
        <time>2024-12-26T08:41:41.045Z</time>
      </trkpt>
      <trkpt lat="46.72684" lon="-1.98909">
        <ele>4.5</ele>
        <time>2024-12-26T08:41:42.045Z</time>
      </trkpt>
      <trkpt lat="46.72684" lon="-1.98909">
        <ele>4.5</ele>
        <time>2024-12-26T08:41:43.045Z</time>
      </trkpt>
      <trkpt lat="46.72685" lon="-1.9891">
        <ele>4.6</ele>
        <time>2024-12-26T08:41:44.045Z</time>
      </trkpt>
      <trkpt lat="46.72685" lon="-1.9891">
        <ele>4.6</ele>
        <time>2024-12-26T08:41:45.045Z</time>
      </trkpt>
      <trkpt lat="46.72685" lon="-1.98912">
        <ele>4.6</ele>
        <time>2024-12-26T08:41:46.045Z</time>
      </trkpt>
      <trkpt lat="46.72686" lon="-1.98913">
        <ele>4.7</ele>
        <time>2024-12-26T08:41:47.045Z</time>
      </trkpt>
      <trkpt lat="46.72687" lon="-1.98914">
        <ele>4.7</ele>
        <time>2024-12-26T08:41:48.046Z</time>
      </trkpt>
      <trkpt lat="46.72687" lon="-1.98915">
        <ele>4.7</ele>
        <time>2024-12-26T08:41:49.045Z</time>
      </trkpt>
      <trkpt lat="46.72688" lon="-1.98916">
        <ele>4.8</ele>
        <time>2024-12-26T08:41:50.046Z</time>
      </trkpt>
      <trkpt lat="46.72689" lon="-1.98917">
        <ele>4.8</ele>
        <time>2024-12-26T08:41:51.046Z</time>
      </trkpt>
      <trkpt lat="46.72689" lon="-1.98918">
        <ele>4.8</ele>
        <time>2024-12-26T08:41:52.046Z</time>
      </trkpt>
      <trkpt lat="46.72691" lon="-1.9892">
        <ele>4.9</ele>
        <time>2024-12-26T08:41:53.046Z</time>
      </trkpt>
      <trkpt lat="46.72692" lon="-1.98921">
        <ele>4.9</ele>
        <time>2024-12-26T08:41:54.045Z</time>
      </trkpt>
      <trkpt lat="46.72693" lon="-1.98923">
        <ele>4.9</ele>
        <time>2024-12-26T08:41:55.045Z</time>
      </trkpt>
      <trkpt lat="46.72693" lon="-1.98924">
        <ele>5</ele>
        <time>2024-12-26T08:41:56.046Z</time>
      </trkpt>
      <trkpt lat="46.72694" lon="-1.98924">
        <ele>5</ele>
        <time>2024-12-26T08:41:57.045Z</time>
      </trkpt>
      <trkpt lat="46.72695" lon="-1.98925">
        <ele>5.1</ele>
        <time>2024-12-26T08:41:58.045Z</time>
      </trkpt>
      <trkpt lat="46.72696" lon="-1.98926">
        <ele>5.2</ele>
        <time>2024-12-26T08:41:59.046Z</time>
      </trkpt>
      <trkpt lat="46.72697" lon="-1.98927">
        <ele>5.3</ele>
        <time>2024-12-26T08:42:00.046Z</time>
      </trkpt>
      <trkpt lat="46.72697" lon="-1.98928">
        <ele>5.4</ele>
        <time>2024-12-26T08:42:01.045Z</time>
      </trkpt>
      <trkpt lat="46.72698" lon="-1.9893">
        <ele>5.5</ele>
        <time>2024-12-26T08:42:02.046Z</time>
      </trkpt>
      <trkpt lat="46.727" lon="-1.98931">
        <ele>5.6</ele>
        <time>2024-12-26T08:42:03.045Z</time>
      </trkpt>
      <trkpt lat="46.727" lon="-1.98932">
        <ele>5.7</ele>
        <time>2024-12-26T08:42:04.046Z</time>
      </trkpt>
      <trkpt lat="46.72701" lon="-1.98932">
        <ele>5.8</ele>
        <time>2024-12-26T08:42:05.045Z</time>
      </trkpt>
      <trkpt lat="46.72702" lon="-1.98933">
        <ele>5.9</ele>
        <time>2024-12-26T08:42:06.045Z</time>
      </trkpt>
      <trkpt lat="46.72703" lon="-1.98934">
        <ele>6</ele>
        <time>2024-12-26T08:42:07.046Z</time>
      </trkpt>
      <trkpt lat="46.72705" lon="-1.98935">
        <ele>6.1</ele>
        <time>2024-12-26T08:42:08.045Z</time>
      </trkpt>
      <trkpt lat="46.72706" lon="-1.98936">
        <ele>6.2</ele>
        <time>2024-12-26T08:42:09.045Z</time>
      </trkpt>
      <trkpt lat="46.72707" lon="-1.98937">
        <ele>6.2</ele>
        <time>2024-12-26T08:42:10.046Z</time>
      </trkpt>
      <trkpt lat="46.72708" lon="-1.98938">
        <ele>6.3</ele>
        <time>2024-12-26T08:42:11.045Z</time>
      </trkpt>
      <trkpt lat="46.72709" lon="-1.98939">
        <ele>6.4</ele>
        <time>2024-12-26T08:42:12.046Z</time>
      </trkpt>
      <trkpt lat="46.7271" lon="-1.9894">
        <ele>6.4</ele>
        <time>2024-12-26T08:42:13.045Z</time>
      </trkpt>
      <trkpt lat="46.72711" lon="-1.98942">
        <ele>6.3</ele>
        <time>2024-12-26T08:42:14.046Z</time>
      </trkpt>
      <trkpt lat="46.72711" lon="-1.98943">
        <ele>6.3</ele>
        <time>2024-12-26T08:42:15.045Z</time>
      </trkpt>
      <trkpt lat="46.72712" lon="-1.98944">
        <ele>6.3</ele>
        <time>2024-12-26T08:42:16.046Z</time>
      </trkpt>
      <trkpt lat="46.72713" lon="-1.98946">
        <ele>6.2</ele>
        <time>2024-12-26T08:42:17.046Z</time>
      </trkpt>
      <trkpt lat="46.72713" lon="-1.98948">
        <ele>6.2</ele>
        <time>2024-12-26T08:42:18.045Z</time>
      </trkpt>
      <trkpt lat="46.72714" lon="-1.98949">
        <ele>6.2</ele>
        <time>2024-12-26T08:42:19.046Z</time>
      </trkpt>
      <trkpt lat="46.72715" lon="-1.9895">
        <ele>6.2</ele>
        <time>2024-12-26T08:42:20.046Z</time>
      </trkpt>
      <trkpt lat="46.72716" lon="-1.98952">
        <ele>6.1</ele>
        <time>2024-12-26T08:42:21.046Z</time>
      </trkpt>
      <trkpt lat="46.72717" lon="-1.98953">
        <ele>6.1</ele>
        <time>2024-12-26T08:42:22.045Z</time>
      </trkpt>
      <trkpt lat="46.72717" lon="-1.98955">
        <ele>6</ele>
        <time>2024-12-26T08:42:23.045Z</time>
      </trkpt>
      <trkpt lat="46.72718" lon="-1.98956">
        <ele>6</ele>
        <time>2024-12-26T08:42:24.046Z</time>
      </trkpt>
      <trkpt lat="46.72719" lon="-1.98957">
        <ele>6</ele>
        <time>2024-12-26T08:42:25.045Z</time>
      </trkpt>
      <trkpt lat="46.7272" lon="-1.98959">
        <ele>5.9</ele>
        <time>2024-12-26T08:42:26.045Z</time>
      </trkpt>
      <trkpt lat="46.72721" lon="-1.9896">
        <ele>5.8</ele>
        <time>2024-12-26T08:42:27.045Z</time>
      </trkpt>
      <trkpt lat="46.72722" lon="-1.98962">
        <ele>5.8</ele>
        <time>2024-12-26T08:42:28.045Z</time>
      </trkpt>
      <trkpt lat="46.72723" lon="-1.98963">
        <ele>5.6</ele>
        <time>2024-12-26T08:42:29.045Z</time>
      </trkpt>
      <trkpt lat="46.72723" lon="-1.98965">
        <ele>5.5</ele>
        <time>2024-12-26T08:42:30.046Z</time>
      </trkpt>
      <trkpt lat="46.72725" lon="-1.98966">
        <ele>5.4</ele>
        <time>2024-12-26T08:42:31.046Z</time>
      </trkpt>
      <trkpt lat="46.72725" lon="-1.98968">
        <ele>5.3</ele>
        <time>2024-12-26T08:42:32.045Z</time>
      </trkpt>
      <trkpt lat="46.72726" lon="-1.9897">
        <ele>5.1</ele>
        <time>2024-12-26T08:42:33.045Z</time>
      </trkpt>
      <trkpt lat="46.72727" lon="-1.98972">
        <ele>5</ele>
        <time>2024-12-26T08:42:34.045Z</time>
      </trkpt>
      <trkpt lat="46.72727" lon="-1.98973">
        <ele>5</ele>
        <time>2024-12-26T08:42:35.046Z</time>
      </trkpt>
      <trkpt lat="46.72728" lon="-1.98975">
        <ele>5</ele>
        <time>2024-12-26T08:42:36.046Z</time>
      </trkpt>
      <trkpt lat="46.72729" lon="-1.98977">
        <ele>5</ele>
        <time>2024-12-26T08:42:37.045Z</time>
      </trkpt>
      <trkpt lat="46.72729" lon="-1.98978">
        <ele>4.9</ele>
        <time>2024-12-26T08:42:38.045Z</time>
      </trkpt>
      <trkpt lat="46.7273" lon="-1.9898">
        <ele>4.9</ele>
        <time>2024-12-26T08:42:39.046Z</time>
      </trkpt>
      <trkpt lat="46.72731" lon="-1.98981">
        <ele>4.9</ele>
        <time>2024-12-26T08:42:40.045Z</time>
      </trkpt>
      <trkpt lat="46.72732" lon="-1.98983">
        <ele>4.9</ele>
        <time>2024-12-26T08:42:41.046Z</time>
      </trkpt>
      <trkpt lat="46.72733" lon="-1.98984">
        <ele>4.8</ele>
        <time>2024-12-26T08:42:42.045Z</time>
      </trkpt>
      <trkpt lat="46.72734" lon="-1.98986">
        <ele>4.8</ele>
        <time>2024-12-26T08:42:43.045Z</time>
      </trkpt>
      <trkpt lat="46.72735" lon="-1.98987">
        <ele>4.8</ele>
        <time>2024-12-26T08:42:44.046Z</time>
      </trkpt>
      <trkpt lat="46.72737" lon="-1.98989">
        <ele>4.7</ele>
        <time>2024-12-26T08:42:45.046Z</time>
      </trkpt>
      <trkpt lat="46.72737" lon="-1.98991">
        <ele>4.6</ele>
        <time>2024-12-26T08:42:46.046Z</time>
      </trkpt>
      <trkpt lat="46.72738" lon="-1.98993">
        <ele>4.6</ele>
        <time>2024-12-26T08:42:47.045Z</time>
      </trkpt>
      <trkpt lat="46.72739" lon="-1.98995">
        <ele>4.5</ele>
        <time>2024-12-26T08:42:48.045Z</time>
      </trkpt>
      <trkpt lat="46.7274" lon="-1.98996">
        <ele>4.5</ele>
        <time>2024-12-26T08:42:49.045Z</time>
      </trkpt>
      <trkpt lat="46.72741" lon="-1.98996">
        <ele>4.4</ele>
        <time>2024-12-26T08:42:50.045Z</time>
      </trkpt>
      <trkpt lat="46.72743" lon="-1.98997">
        <ele>4.3</ele>
        <time>2024-12-26T08:42:51.046Z</time>
      </trkpt>
      <trkpt lat="46.72744" lon="-1.98998">
        <ele>4.3</ele>
        <time>2024-12-26T08:42:52.045Z</time>
      </trkpt>
      <trkpt lat="46.72745" lon="-1.98999">
        <ele>4.2</ele>
        <time>2024-12-26T08:42:53.046Z</time>
      </trkpt>
      <trkpt lat="46.72747" lon="-1.98999">
        <ele>4.1</ele>
        <time>2024-12-26T08:42:54.046Z</time>
      </trkpt>
      <trkpt lat="46.72749" lon="-1.98999">
        <ele>4.1</ele>
        <time>2024-12-26T08:42:55.046Z</time>
      </trkpt>
      <trkpt lat="46.7275" lon="-1.98998">
        <ele>4.1</ele>
        <time>2024-12-26T08:42:56.046Z</time>
      </trkpt>
      <trkpt lat="46.72751" lon="-1.98998">
        <ele>4.2</ele>
        <time>2024-12-26T08:42:57.046Z</time>
      </trkpt>
      <trkpt lat="46.72752" lon="-1.98997">
        <ele>4.3</ele>
        <time>2024-12-26T08:42:58.045Z</time>
      </trkpt>
      <trkpt lat="46.72753" lon="-1.98996">
        <ele>4.4</ele>
        <time>2024-12-26T08:42:59.046Z</time>
      </trkpt>
      <trkpt lat="46.72755" lon="-1.98994">
        <ele>4.5</ele>
        <time>2024-12-26T08:43:00.046Z</time>
      </trkpt>
      <trkpt lat="46.72756" lon="-1.98993">
        <ele>4.6</ele>
        <time>2024-12-26T08:43:01.046Z</time>
      </trkpt>
      <trkpt lat="46.72757" lon="-1.98991">
        <ele>4.6</ele>
        <time>2024-12-26T08:43:02.046Z</time>
      </trkpt>
      <trkpt lat="46.72758" lon="-1.98989">
        <ele>4.7</ele>
        <time>2024-12-26T08:43:03.046Z</time>
      </trkpt>
      <trkpt lat="46.72758" lon="-1.98986">
        <ele>4.8</ele>
        <time>2024-12-26T08:43:04.046Z</time>
      </trkpt>
      <trkpt lat="46.72758" lon="-1.98985">
        <ele>4.8</ele>
        <time>2024-12-26T08:43:05.046Z</time>
      </trkpt>
      <trkpt lat="46.72759" lon="-1.98983">
        <ele>4.8</ele>
        <time>2024-12-26T08:43:06.046Z</time>
      </trkpt>
      <trkpt lat="46.72758" lon="-1.98981">
        <ele>4.9</ele>
        <time>2024-12-26T08:43:07.045Z</time>
      </trkpt>
      <trkpt lat="46.72758" lon="-1.9898">
        <ele>4.9</ele>
        <time>2024-12-26T08:43:08.045Z</time>
      </trkpt>
      <trkpt lat="46.72757" lon="-1.98978">
        <ele>4.9</ele>
        <time>2024-12-26T08:43:09.046Z</time>
      </trkpt>
      <trkpt lat="46.72757" lon="-1.98977">
        <ele>4.9</ele>
        <time>2024-12-26T08:43:10.046Z</time>
      </trkpt>
      <trkpt lat="46.72758" lon="-1.98975">
        <ele>4.9</ele>
        <time>2024-12-26T08:43:11.046Z</time>
      </trkpt>
      <trkpt lat="46.72758" lon="-1.98974">
        <ele>5</ele>
        <time>2024-12-26T08:43:12.046Z</time>
      </trkpt>
      <trkpt lat="46.72758" lon="-1.98972">
        <ele>5</ele>
        <time>2024-12-26T08:43:13.045Z</time>
      </trkpt>
      <trkpt lat="46.72759" lon="-1.98971">
        <ele>5</ele>
        <time>2024-12-26T08:43:14.046Z</time>
      </trkpt>
      <trkpt lat="46.7276" lon="-1.98969">
        <ele>5</ele>
        <time>2024-12-26T08:43:15.046Z</time>
      </trkpt>
      <trkpt lat="46.7276" lon="-1.98968">
        <ele>5.1</ele>
        <time>2024-12-26T08:43:16.045Z</time>
      </trkpt>
      <trkpt lat="46.72761" lon="-1.98966">
        <ele>5.1</ele>
        <time>2024-12-26T08:43:17.045Z</time>
      </trkpt>
      <trkpt lat="46.72761" lon="-1.98964">
        <ele>5.1</ele>
        <time>2024-12-26T08:43:18.046Z</time>
      </trkpt>
      <trkpt lat="46.72762" lon="-1.98962">
        <ele>5.2</ele>
        <time>2024-12-26T08:43:19.045Z</time>
      </trkpt>
      <trkpt lat="46.72763" lon="-1.98961">
        <ele>5.2</ele>
        <time>2024-12-26T08:43:20.045Z</time>
      </trkpt>
      <trkpt lat="46.72763" lon="-1.98959">
        <ele>5.2</ele>
        <time>2024-12-26T08:43:21.045Z</time>
      </trkpt>
      <trkpt lat="46.72763" lon="-1.98957">
        <ele>5.3</ele>
        <time>2024-12-26T08:43:22.045Z</time>
      </trkpt>
      <trkpt lat="46.72764" lon="-1.98956">
        <ele>5.3</ele>
        <time>2024-12-26T08:43:23.046Z</time>
      </trkpt>
      <trkpt lat="46.72764" lon="-1.98954">
        <ele>5.3</ele>
        <time>2024-12-26T08:43:24.046Z</time>
      </trkpt>
      <trkpt lat="46.72764" lon="-1.98952">
        <ele>5.4</ele>
        <time>2024-12-26T08:43:25.045Z</time>
      </trkpt>
      <trkpt lat="46.72765" lon="-1.98951">
        <ele>5.4</ele>
        <time>2024-12-26T08:43:26.045Z</time>
      </trkpt>
      <trkpt lat="46.72766" lon="-1.9895">
        <ele>5.5</ele>
        <time>2024-12-26T08:43:27.045Z</time>
      </trkpt>
      <trkpt lat="46.72766" lon="-1.98949">
        <ele>5.5</ele>
        <time>2024-12-26T08:43:28.045Z</time>
      </trkpt>
      <trkpt lat="46.72766" lon="-1.98947">
        <ele>5.5</ele>
        <time>2024-12-26T08:43:29.046Z</time>
      </trkpt>
      <trkpt lat="46.72767" lon="-1.98946">
        <ele>5.6</ele>
        <time>2024-12-26T08:43:30.046Z</time>
      </trkpt>
      <trkpt lat="46.72767" lon="-1.98945">
        <ele>5.6</ele>
        <time>2024-12-26T08:43:31.046Z</time>
      </trkpt>
      <trkpt lat="46.72767" lon="-1.98944">
        <ele>5.7</ele>
        <time>2024-12-26T08:43:32.046Z</time>
      </trkpt>
      <trkpt lat="46.72768" lon="-1.98943">
        <ele>5.8</ele>
        <time>2024-12-26T08:43:33.046Z</time>
      </trkpt>
      <trkpt lat="46.72768" lon="-1.98942">
        <ele>5.9</ele>
        <time>2024-12-26T08:43:34.045Z</time>
      </trkpt>
      <trkpt lat="46.72768" lon="-1.98942">
        <ele>5.9</ele>
        <time>2024-12-26T08:43:35.045Z</time>
      </trkpt>
      <trkpt lat="46.72768" lon="-1.98941">
        <ele>6</ele>
        <time>2024-12-26T08:43:36.045Z</time>
      </trkpt>
      <trkpt lat="46.72768" lon="-1.98939">
        <ele>6.2</ele>
        <time>2024-12-26T08:43:37.045Z</time>
      </trkpt>
      <trkpt lat="46.72767" lon="-1.98938">
        <ele>6.3</ele>
        <time>2024-12-26T08:43:38.046Z</time>
      </trkpt>
      <trkpt lat="46.72767" lon="-1.98936">
        <ele>6.5</ele>
        <time>2024-12-26T08:43:39.046Z</time>
      </trkpt>
      <trkpt lat="46.72766" lon="-1.98935">
        <ele>6.7</ele>
        <time>2024-12-26T08:43:40.046Z</time>
      </trkpt>
      <trkpt lat="46.72766" lon="-1.98933">
        <ele>6.8</ele>
        <time>2024-12-26T08:43:41.046Z</time>
      </trkpt>
      <trkpt lat="46.72766" lon="-1.98932">
        <ele>7</ele>
        <time>2024-12-26T08:43:42.046Z</time>
      </trkpt>
      <trkpt lat="46.72765" lon="-1.9893">
        <ele>7.2</ele>
        <time>2024-12-26T08:43:43.045Z</time>
      </trkpt>
      <trkpt lat="46.72765" lon="-1.98929">
        <ele>7.4</ele>
        <time>2024-12-26T08:43:44.046Z</time>
      </trkpt>
      <trkpt lat="46.72765" lon="-1.98928">
        <ele>7.5</ele>
        <time>2024-12-26T08:43:45.046Z</time>
      </trkpt>
      <trkpt lat="46.72764" lon="-1.98927">
        <ele>7.7</ele>
        <time>2024-12-26T08:43:46.045Z</time>
      </trkpt>
      <trkpt lat="46.72764" lon="-1.98926">
        <ele>7.9</ele>
        <time>2024-12-26T08:43:47.045Z</time>
      </trkpt>
      <trkpt lat="46.72763" lon="-1.98924">
        <ele>8.2</ele>
        <time>2024-12-26T08:43:48.046Z</time>
      </trkpt>
      <trkpt lat="46.72763" lon="-1.98922">
        <ele>8.4</ele>
        <time>2024-12-26T08:43:49.046Z</time>
      </trkpt>
      <trkpt lat="46.72764" lon="-1.9892">
        <ele>8.6</ele>
        <time>2024-12-26T08:43:50.046Z</time>
      </trkpt>
      <trkpt lat="46.72764" lon="-1.98918">
        <ele>8.8</ele>
        <time>2024-12-26T08:43:51.045Z</time>
      </trkpt>
      <trkpt lat="46.72765" lon="-1.98916">
        <ele>8.9</ele>
        <time>2024-12-26T08:43:52.046Z</time>
      </trkpt>
      <trkpt lat="46.72764" lon="-1.98914">
        <ele>9</ele>
        <time>2024-12-26T08:43:53.046Z</time>
      </trkpt>
      <trkpt lat="46.72764" lon="-1.98911">
        <ele>9.2</ele>
        <time>2024-12-26T08:43:54.046Z</time>
      </trkpt>
      <trkpt lat="46.72764" lon="-1.9891">
        <ele>9.3</ele>
        <time>2024-12-26T08:43:55.046Z</time>
      </trkpt>
      <trkpt lat="46.72762" lon="-1.98909">
        <ele>9.5</ele>
        <time>2024-12-26T08:43:56.046Z</time>
      </trkpt>
      <trkpt lat="46.72761" lon="-1.98907">
        <ele>9.8</ele>
        <time>2024-12-26T08:43:57.046Z</time>
      </trkpt>
      <trkpt lat="46.7276" lon="-1.98907">
        <ele>9.9</ele>
        <time>2024-12-26T08:43:58.046Z</time>
      </trkpt>
      <trkpt lat="46.72759" lon="-1.98906">
        <ele>9.9</ele>
        <time>2024-12-26T08:43:59.045Z</time>
      </trkpt>
      <trkpt lat="46.72759" lon="-1.98904">
        <ele>10</ele>
        <time>2024-12-26T08:44:00.045Z</time>
      </trkpt>
      <trkpt lat="46.72759" lon="-1.98903">
        <ele>10</ele>
        <time>2024-12-26T08:44:01.045Z</time>
      </trkpt>
      <trkpt lat="46.72759" lon="-1.98902">
        <ele>10</ele>
        <time>2024-12-26T08:44:02.045Z</time>
      </trkpt>
      <trkpt lat="46.7276" lon="-1.98902">
        <ele>10</ele>
        <time>2024-12-26T08:44:03.046Z</time>
      </trkpt>
      <trkpt lat="46.7276" lon="-1.98901">
        <ele>10</ele>
        <time>2024-12-26T08:44:04.045Z</time>
      </trkpt>
      <trkpt lat="46.72759" lon="-1.989">
        <ele>10.1</ele>
        <time>2024-12-26T08:44:05.045Z</time>
      </trkpt>
      <trkpt lat="46.72759" lon="-1.98899">
        <ele>10.1</ele>
        <time>2024-12-26T08:44:06.046Z</time>
      </trkpt>
      <trkpt lat="46.72758" lon="-1.98899">
        <ele>10.3</ele>
        <time>2024-12-26T08:44:07.046Z</time>
      </trkpt>
      <trkpt lat="46.72756" lon="-1.98897">
        <ele>10.4</ele>
        <time>2024-12-26T08:44:08.045Z</time>
      </trkpt>
      <trkpt lat="46.72756" lon="-1.98896">
        <ele>10.5</ele>
        <time>2024-12-26T08:44:09.046Z</time>
      </trkpt>
      <trkpt lat="46.72755" lon="-1.98894">
        <ele>10.5</ele>
        <time>2024-12-26T08:44:10.045Z</time>
      </trkpt>
      <trkpt lat="46.72755" lon="-1.98893">
        <ele>10.6</ele>
        <time>2024-12-26T08:44:11.046Z</time>
      </trkpt>
      <trkpt lat="46.72755" lon="-1.98891">
        <ele>10.6</ele>
        <time>2024-12-26T08:44:12.045Z</time>
      </trkpt>
      <trkpt lat="46.72755" lon="-1.9889">
        <ele>10.6</ele>
        <time>2024-12-26T08:44:13.046Z</time>
      </trkpt>
      <trkpt lat="46.72756" lon="-1.98888">
        <ele>10.5</ele>
        <time>2024-12-26T08:44:14.046Z</time>
      </trkpt>
      <trkpt lat="46.72756" lon="-1.98887">
        <ele>10.3</ele>
        <time>2024-12-26T08:44:15.046Z</time>
      </trkpt>
      <trkpt lat="46.72756" lon="-1.98885">
        <ele>10.2</ele>
        <time>2024-12-26T08:44:16.046Z</time>
      </trkpt>
      <trkpt lat="46.72756" lon="-1.98884">
        <ele>10.1</ele>
        <time>2024-12-26T08:44:17.046Z</time>
      </trkpt>
      <trkpt lat="46.72756" lon="-1.98882">
        <ele>9.9</ele>
        <time>2024-12-26T08:44:18.046Z</time>
      </trkpt>
      <trkpt lat="46.72756" lon="-1.98882">
        <ele>9.8</ele>
        <time>2024-12-26T08:44:19.046Z</time>
      </trkpt>
      <trkpt lat="46.72757" lon="-1.98881">
        <ele>9.7</ele>
        <time>2024-12-26T08:44:20.046Z</time>
      </trkpt>
      <trkpt lat="46.72757" lon="-1.9888">
        <ele>9.6</ele>
        <time>2024-12-26T08:44:21.046Z</time>
      </trkpt>
      <trkpt lat="46.72756" lon="-1.98879">
        <ele>9.6</ele>
        <time>2024-12-26T08:44:22.046Z</time>
      </trkpt>
      <trkpt lat="46.72756" lon="-1.98878">
        <ele>9.5</ele>
        <time>2024-12-26T08:44:23.045Z</time>
      </trkpt>
      <trkpt lat="46.72757" lon="-1.98877">
        <ele>9.3</ele>
        <time>2024-12-26T08:44:24.046Z</time>
      </trkpt>
      <trkpt lat="46.72757" lon="-1.98876">
        <ele>9.2</ele>
        <time>2024-12-26T08:44:25.046Z</time>
      </trkpt>
      <trkpt lat="46.72758" lon="-1.98874">
        <ele>9</ele>
        <time>2024-12-26T08:44:26.045Z</time>
      </trkpt>
      <trkpt lat="46.72759" lon="-1.98872">
        <ele>8.8</ele>
        <time>2024-12-26T08:44:27.045Z</time>
      </trkpt>
      <trkpt lat="46.72759" lon="-1.9887">
        <ele>8.6</ele>
        <time>2024-12-26T08:44:28.046Z</time>
      </trkpt>
      <trkpt lat="46.7276" lon="-1.98869">
        <ele>8.4</ele>
        <time>2024-12-26T08:44:29.045Z</time>
      </trkpt>
      <trkpt lat="46.72761" lon="-1.98868">
        <ele>8.3</ele>
        <time>2024-12-26T08:44:30.045Z</time>
      </trkpt>
      <trkpt lat="46.72761" lon="-1.98866">
        <ele>8.1</ele>
        <time>2024-12-26T08:44:31.045Z</time>
      </trkpt>
      <trkpt lat="46.72762" lon="-1.98865">
        <ele>7.9</ele>
        <time>2024-12-26T08:44:32.046Z</time>
      </trkpt>
      <trkpt lat="46.72762" lon="-1.98863">
        <ele>7.8</ele>
        <time>2024-12-26T08:44:33.045Z</time>
      </trkpt>
      <trkpt lat="46.72763" lon="-1.98862">
        <ele>7.6</ele>
        <time>2024-12-26T08:44:34.046Z</time>
      </trkpt>
      <trkpt lat="46.72763" lon="-1.9886">
        <ele>7.5</ele>
        <time>2024-12-26T08:44:35.046Z</time>
      </trkpt>
      <trkpt lat="46.72763" lon="-1.98859">
        <ele>7.4</ele>
        <time>2024-12-26T08:44:36.046Z</time>
      </trkpt>
      <trkpt lat="46.72764" lon="-1.98857">
        <ele>7.4</ele>
        <time>2024-12-26T08:44:37.046Z</time>
      </trkpt>
      <trkpt lat="46.72764" lon="-1.98856">
        <ele>7.3</ele>
        <time>2024-12-26T08:44:38.045Z</time>
      </trkpt>
      <trkpt lat="46.72765" lon="-1.98855">
        <ele>7.2</ele>
        <time>2024-12-26T08:44:39.046Z</time>
      </trkpt>
      <trkpt lat="46.72766" lon="-1.98853">
        <ele>7.1</ele>
        <time>2024-12-26T08:44:40.046Z</time>
      </trkpt>
      <trkpt lat="46.72767" lon="-1.98852">
        <ele>7.1</ele>
        <time>2024-12-26T08:44:41.046Z</time>
      </trkpt>
      <trkpt lat="46.72767" lon="-1.98851">
        <ele>7</ele>
        <time>2024-12-26T08:44:42.046Z</time>
      </trkpt>
      <trkpt lat="46.72768" lon="-1.9885">
        <ele>7</ele>
        <time>2024-12-26T08:44:43.046Z</time>
      </trkpt>
      <trkpt lat="46.72769" lon="-1.98849">
        <ele>6.9</ele>
        <time>2024-12-26T08:44:44.046Z</time>
      </trkpt>
      <trkpt lat="46.72768" lon="-1.98848">
        <ele>6.9</ele>
        <time>2024-12-26T08:44:45.045Z</time>
      </trkpt>
      <trkpt lat="46.72768" lon="-1.98847">
        <ele>6.8</ele>
        <time>2024-12-26T08:44:46.046Z</time>
      </trkpt>
      <trkpt lat="46.72768" lon="-1.98846">
        <ele>6.8</ele>
        <time>2024-12-26T08:44:47.045Z</time>
      </trkpt>
      <trkpt lat="46.72768" lon="-1.98845">
        <ele>6.8</ele>
        <time>2024-12-26T08:44:48.046Z</time>
      </trkpt>
      <trkpt lat="46.72768" lon="-1.98845">
        <ele>6.8</ele>
        <time>2024-12-26T08:44:49.045Z</time>
      </trkpt>
      <trkpt lat="46.72768" lon="-1.98845">
        <ele>6.8</ele>
        <time>2024-12-26T08:44:50.045Z</time>
      </trkpt>
      <trkpt lat="46.72768" lon="-1.98845">
        <ele>6.8</ele>
        <time>2024-12-26T08:44:51.046Z</time>
      </trkpt>
      <trkpt lat="46.72768" lon="-1.98844">
        <ele>6.7</ele>
        <time>2024-12-26T08:44:52.045Z</time>
      </trkpt>
      <trkpt lat="46.72769" lon="-1.98843">
        <ele>6.6</ele>
        <time>2024-12-26T08:44:53.045Z</time>
      </trkpt>
      <trkpt lat="46.7277" lon="-1.98841">
        <ele>6.6</ele>
        <time>2024-12-26T08:44:54.046Z</time>
      </trkpt>
      <trkpt lat="46.72771" lon="-1.9884">
        <ele>6.5</ele>
        <time>2024-12-26T08:44:55.046Z</time>
      </trkpt>
      <trkpt lat="46.72772" lon="-1.98839">
        <ele>6.4</ele>
        <time>2024-12-26T08:44:56.046Z</time>
      </trkpt>
      <trkpt lat="46.72772" lon="-1.98837">
        <ele>6.3</ele>
        <time>2024-12-26T08:44:57.046Z</time>
      </trkpt>
      <trkpt lat="46.72773" lon="-1.98835">
        <ele>6.2</ele>
        <time>2024-12-26T08:44:58.045Z</time>
      </trkpt>
      <trkpt lat="46.72773" lon="-1.98832">
        <ele>6.1</ele>
        <time>2024-12-26T08:44:59.046Z</time>
      </trkpt>
      <trkpt lat="46.72773" lon="-1.9883">
        <ele>5.9</ele>
        <time>2024-12-26T08:45:00.046Z</time>
      </trkpt>
      <trkpt lat="46.72773" lon="-1.98828">
        <ele>5.8</ele>
        <time>2024-12-26T08:45:01.046Z</time>
      </trkpt>
      <trkpt lat="46.72773" lon="-1.98826">
        <ele>5.7</ele>
        <time>2024-12-26T08:45:02.045Z</time>
      </trkpt>
      <trkpt lat="46.72773" lon="-1.98826">
        <ele>5.7</ele>
        <time>2024-12-26T08:45:03.046Z</time>
      </trkpt>
      <trkpt lat="46.72773" lon="-1.98825">
        <ele>5.6</ele>
        <time>2024-12-26T08:45:04.045Z</time>
      </trkpt>
      <trkpt lat="46.72773" lon="-1.98823">
        <ele>5.5</ele>
        <time>2024-12-26T08:45:05.045Z</time>
      </trkpt>
      <trkpt lat="46.72774" lon="-1.98822">
        <ele>5.4</ele>
        <time>2024-12-26T08:45:06.045Z</time>
      </trkpt>
      <trkpt lat="46.72774" lon="-1.98821">
        <ele>5.3</ele>
        <time>2024-12-26T08:45:07.045Z</time>
      </trkpt>
      <trkpt lat="46.72775" lon="-1.98821">
        <ele>5.2</ele>
        <time>2024-12-26T08:45:08.046Z</time>
      </trkpt>
      <trkpt lat="46.72777" lon="-1.9882">
        <ele>5.1</ele>
        <time>2024-12-26T08:45:09.045Z</time>
      </trkpt>
      <trkpt lat="46.72777" lon="-1.98819">
        <ele>5</ele>
        <time>2024-12-26T08:45:10.045Z</time>
      </trkpt>
      <trkpt lat="46.72777" lon="-1.98819">
        <ele>5</ele>
        <time>2024-12-26T08:45:11.045Z</time>
      </trkpt>
      <trkpt lat="46.72777" lon="-1.98818">
        <ele>5</ele>
        <time>2024-12-26T08:45:12.045Z</time>
      </trkpt>
      <trkpt lat="46.72777" lon="-1.98818">
        <ele>5</ele>
        <time>2024-12-26T08:45:13.045Z</time>
      </trkpt>
      <trkpt lat="46.72777" lon="-1.98818">
        <ele>4.9</ele>
        <time>2024-12-26T08:45:14.045Z</time>
      </trkpt>
      <trkpt lat="46.72778" lon="-1.98817">
        <ele>4.8</ele>
        <time>2024-12-26T08:45:15.046Z</time>
      </trkpt>
      <trkpt lat="46.72779" lon="-1.98816">
        <ele>4.7</ele>
        <time>2024-12-26T08:45:16.045Z</time>
      </trkpt>
      <trkpt lat="46.72779" lon="-1.98816">
        <ele>4.7</ele>
        <time>2024-12-26T08:45:17.045Z</time>
      </trkpt>
      <trkpt lat="46.72779" lon="-1.98815">
        <ele>4.7</ele>
        <time>2024-12-26T08:45:18.046Z</time>
      </trkpt>
      <trkpt lat="46.72779" lon="-1.98815">
        <ele>4.6</ele>
        <time>2024-12-26T08:45:19.045Z</time>
      </trkpt>
      <trkpt lat="46.7278" lon="-1.98814">
        <ele>4.6</ele>
        <time>2024-12-26T08:45:20.046Z</time>
      </trkpt>
      <trkpt lat="46.72781" lon="-1.98813">
        <ele>4.5</ele>
        <time>2024-12-26T08:45:21.046Z</time>
      </trkpt>
      <trkpt lat="46.72782" lon="-1.98812">
        <ele>4.4</ele>
        <time>2024-12-26T08:45:22.046Z</time>
      </trkpt>
      <trkpt lat="46.72782" lon="-1.9881">
        <ele>4.3</ele>
        <time>2024-12-26T08:45:23.046Z</time>
      </trkpt>
      <trkpt lat="46.72783" lon="-1.98809">
        <ele>4.2</ele>
        <time>2024-12-26T08:45:24.046Z</time>
      </trkpt>
      <trkpt lat="46.72783" lon="-1.98807">
        <ele>4.1</ele>
        <time>2024-12-26T08:45:25.046Z</time>
      </trkpt>
      <trkpt lat="46.72784" lon="-1.98806">
        <ele>4</ele>
        <time>2024-12-26T08:45:26.046Z</time>
      </trkpt>
      <trkpt lat="46.72784" lon="-1.98805">
        <ele>4</ele>
        <time>2024-12-26T08:45:27.046Z</time>
      </trkpt>
      <trkpt lat="46.72784" lon="-1.98803">
        <ele>4.1</ele>
        <time>2024-12-26T08:45:28.045Z</time>
      </trkpt>
      <trkpt lat="46.72785" lon="-1.98802">
        <ele>4.2</ele>
        <time>2024-12-26T08:45:29.045Z</time>
      </trkpt>
      <trkpt lat="46.72786" lon="-1.98801">
        <ele>4.2</ele>
        <time>2024-12-26T08:45:30.046Z</time>
      </trkpt>
      <trkpt lat="46.72787" lon="-1.988">
        <ele>4.2</ele>
        <time>2024-12-26T08:45:31.046Z</time>
      </trkpt>
      <trkpt lat="46.72788" lon="-1.98799">
        <ele>4.2</ele>
        <time>2024-12-26T08:45:32.046Z</time>
      </trkpt>
      <trkpt lat="46.72789" lon="-1.98798">
        <ele>4.2</ele>
        <time>2024-12-26T08:45:33.045Z</time>
      </trkpt>
      <trkpt lat="46.7279" lon="-1.98796">
        <ele>4.2</ele>
        <time>2024-12-26T08:45:34.046Z</time>
      </trkpt>
      <trkpt lat="46.72791" lon="-1.98795">
        <ele>4.2</ele>
        <time>2024-12-26T08:45:35.046Z</time>
      </trkpt>
      <trkpt lat="46.72791" lon="-1.98794">
        <ele>4.2</ele>
        <time>2024-12-26T08:45:36.046Z</time>
      </trkpt>
      <trkpt lat="46.72792" lon="-1.98793">
        <ele>4.2</ele>
        <time>2024-12-26T08:45:37.045Z</time>
      </trkpt>
      <trkpt lat="46.72793" lon="-1.98791">
        <ele>4.2</ele>
        <time>2024-12-26T08:45:38.045Z</time>
      </trkpt>
      <trkpt lat="46.72794" lon="-1.9879">
        <ele>4.2</ele>
        <time>2024-12-26T08:45:39.045Z</time>
      </trkpt>
      <trkpt lat="46.72794" lon="-1.98788">
        <ele>4.1</ele>
        <time>2024-12-26T08:45:40.045Z</time>
      </trkpt>
      <trkpt lat="46.72795" lon="-1.98787">
        <ele>4.1</ele>
        <time>2024-12-26T08:45:41.045Z</time>
      </trkpt>
      <trkpt lat="46.72796" lon="-1.98785">
        <ele>4</ele>
        <time>2024-12-26T08:45:42.045Z</time>
      </trkpt>
      <trkpt lat="46.72796" lon="-1.98784">
        <ele>4</ele>
        <time>2024-12-26T08:45:43.046Z</time>
      </trkpt>
      <trkpt lat="46.72797" lon="-1.98782">
        <ele>3.9</ele>
        <time>2024-12-26T08:45:44.045Z</time>
      </trkpt>
      <trkpt lat="46.72798" lon="-1.98781">
        <ele>3.8</ele>
        <time>2024-12-26T08:45:45.045Z</time>
      </trkpt>
      <trkpt lat="46.72798" lon="-1.9878">
        <ele>3.8</ele>
        <time>2024-12-26T08:45:46.045Z</time>
      </trkpt>
      <trkpt lat="46.72799" lon="-1.98778">
        <ele>3.7</ele>
        <time>2024-12-26T08:45:47.045Z</time>
      </trkpt>
      <trkpt lat="46.728" lon="-1.98776">
        <ele>3.7</ele>
        <time>2024-12-26T08:45:48.046Z</time>
      </trkpt>
      <trkpt lat="46.72801" lon="-1.98775">
        <ele>3.7</ele>
        <time>2024-12-26T08:45:49.045Z</time>
      </trkpt>
      <trkpt lat="46.72802" lon="-1.98774">
        <ele>3.6</ele>
        <time>2024-12-26T08:45:50.045Z</time>
      </trkpt>
      <trkpt lat="46.72803" lon="-1.98772">
        <ele>3.5</ele>
        <time>2024-12-26T08:45:51.045Z</time>
      </trkpt>
      <trkpt lat="46.72804" lon="-1.9877">
        <ele>3.5</ele>
        <time>2024-12-26T08:45:52.045Z</time>
      </trkpt>
      <trkpt lat="46.72804" lon="-1.98769">
        <ele>3.6</ele>
        <time>2024-12-26T08:45:53.045Z</time>
      </trkpt>
      <trkpt lat="46.72803" lon="-1.98767">
        <ele>3.7</ele>
        <time>2024-12-26T08:45:54.046Z</time>
      </trkpt>
      <trkpt lat="46.72803" lon="-1.98764">
        <ele>3.8</ele>
        <time>2024-12-26T08:45:55.045Z</time>
      </trkpt>
      <trkpt lat="46.72804" lon="-1.98762">
        <ele>3.8</ele>
        <time>2024-12-26T08:45:56.045Z</time>
      </trkpt>
      <trkpt lat="46.72804" lon="-1.9876">
        <ele>3.9</ele>
        <time>2024-12-26T08:45:57.045Z</time>
      </trkpt>
      <trkpt lat="46.72804" lon="-1.98758">
        <ele>3.9</ele>
        <time>2024-12-26T08:45:58.045Z</time>
      </trkpt>
      <trkpt lat="46.72805" lon="-1.98757">
        <ele>3.9</ele>
        <time>2024-12-26T08:45:59.045Z</time>
      </trkpt>
      <trkpt lat="46.72804" lon="-1.98755">
        <ele>4</ele>
        <time>2024-12-26T08:46:00.045Z</time>
      </trkpt>
      <trkpt lat="46.72804" lon="-1.98753">
        <ele>4.1</ele>
        <time>2024-12-26T08:46:01.046Z</time>
      </trkpt>
      <trkpt lat="46.72804" lon="-1.9875">
        <ele>4.4</ele>
        <time>2024-12-26T08:46:02.046Z</time>
      </trkpt>
      <trkpt lat="46.72803" lon="-1.98748">
        <ele>4.6</ele>
        <time>2024-12-26T08:46:03.045Z</time>
      </trkpt>
      <trkpt lat="46.72804" lon="-1.98746">
        <ele>4.6</ele>
        <time>2024-12-26T08:46:04.045Z</time>
      </trkpt>
      <trkpt lat="46.72804" lon="-1.98744">
        <ele>4.6</ele>
        <time>2024-12-26T08:46:05.045Z</time>
      </trkpt>
      <trkpt lat="46.72805" lon="-1.98743">
        <ele>4.6</ele>
        <time>2024-12-26T08:46:06.045Z</time>
      </trkpt>
      <trkpt lat="46.72806" lon="-1.98741">
        <ele>4.7</ele>
        <time>2024-12-26T08:46:07.045Z</time>
      </trkpt>
      <trkpt lat="46.72806" lon="-1.98739">
        <ele>4.7</ele>
        <time>2024-12-26T08:46:08.045Z</time>
      </trkpt>
      <trkpt lat="46.72807" lon="-1.98738">
        <ele>4.8</ele>
        <time>2024-12-26T08:46:09.046Z</time>
      </trkpt>
      <trkpt lat="46.72809" lon="-1.98735">
        <ele>4.9</ele>
        <time>2024-12-26T08:46:10.045Z</time>
      </trkpt>
      <trkpt lat="46.7281" lon="-1.98733">
        <ele>4.9</ele>
        <time>2024-12-26T08:46:11.046Z</time>
      </trkpt>
      <trkpt lat="46.72811" lon="-1.98732">
        <ele>5</ele>
        <time>2024-12-26T08:46:12.045Z</time>
      </trkpt>
      <trkpt lat="46.72812" lon="-1.9873">
        <ele>5.1</ele>
        <time>2024-12-26T08:46:13.046Z</time>
      </trkpt>
      <trkpt lat="46.72813" lon="-1.9873">
        <ele>5</ele>
        <time>2024-12-26T08:46:14.045Z</time>
      </trkpt>
      <trkpt lat="46.72814" lon="-1.98729">
        <ele>5</ele>
        <time>2024-12-26T08:46:15.046Z</time>
      </trkpt>
      <trkpt lat="46.72815" lon="-1.98728">
        <ele>5</ele>
        <time>2024-12-26T08:46:16.046Z</time>
      </trkpt>
      <trkpt lat="46.72815" lon="-1.98726">
        <ele>5.1</ele>
        <time>2024-12-26T08:46:17.046Z</time>
      </trkpt>
      <trkpt lat="46.72815" lon="-1.98726">
        <ele>5.1</ele>
        <time>2024-12-26T08:46:18.045Z</time>
      </trkpt>
      <trkpt lat="46.72816" lon="-1.98725">
        <ele>5.1</ele>
        <time>2024-12-26T08:46:19.045Z</time>
      </trkpt>
      <trkpt lat="46.72816" lon="-1.98724">
        <ele>5.1</ele>
        <time>2024-12-26T08:46:20.045Z</time>
      </trkpt>
      <trkpt lat="46.72817" lon="-1.98723">
        <ele>5.2</ele>
        <time>2024-12-26T08:46:21.045Z</time>
      </trkpt>
      <trkpt lat="46.72817" lon="-1.98723">
        <ele>5.2</ele>
        <time>2024-12-26T08:46:22.045Z</time>
      </trkpt>
      <trkpt lat="46.72817" lon="-1.98722">
        <ele>5.2</ele>
        <time>2024-12-26T08:46:23.046Z</time>
      </trkpt>
      <trkpt lat="46.72818" lon="-1.98721">
        <ele>5.2</ele>
        <time>2024-12-26T08:46:24.046Z</time>
      </trkpt>
      <trkpt lat="46.72819" lon="-1.98721">
        <ele>5.1</ele>
        <time>2024-12-26T08:46:25.046Z</time>
      </trkpt>
      <trkpt lat="46.7282" lon="-1.98721">
        <ele>5</ele>
        <time>2024-12-26T08:46:26.046Z</time>
      </trkpt>
      <trkpt lat="46.72821" lon="-1.98721">
        <ele>5</ele>
        <time>2024-12-26T08:46:27.045Z</time>
      </trkpt>
      <trkpt lat="46.72821" lon="-1.9872">
        <ele>5</ele>
        <time>2024-12-26T08:46:28.045Z</time>
      </trkpt>
      <trkpt lat="46.72821" lon="-1.98719">
        <ele>5.1</ele>
        <time>2024-12-26T08:46:29.046Z</time>
      </trkpt>
      <trkpt lat="46.72821" lon="-1.98716">
        <ele>5.3</ele>
        <time>2024-12-26T08:46:30.045Z</time>
      </trkpt>
      <trkpt lat="46.72822" lon="-1.98714">
        <ele>5.4</ele>
        <time>2024-12-26T08:46:31.045Z</time>
      </trkpt>
      <trkpt lat="46.72822" lon="-1.98712">
        <ele>5.4</ele>
        <time>2024-12-26T08:46:32.046Z</time>
      </trkpt>
      <trkpt lat="46.72824" lon="-1.98711">
        <ele>5.3</ele>
        <time>2024-12-26T08:46:33.046Z</time>
      </trkpt>
      <trkpt lat="46.72825" lon="-1.9871">
        <ele>5.1</ele>
        <time>2024-12-26T08:46:34.046Z</time>
      </trkpt>
      <trkpt lat="46.72826" lon="-1.98709">
        <ele>5</ele>
        <time>2024-12-26T08:46:35.046Z</time>
      </trkpt>
      <trkpt lat="46.72827" lon="-1.98707">
        <ele>4.9</ele>
        <time>2024-12-26T08:46:36.046Z</time>
      </trkpt>
      <trkpt lat="46.72828" lon="-1.98706">
        <ele>4.8</ele>
        <time>2024-12-26T08:46:37.046Z</time>
      </trkpt>
      <trkpt lat="46.72829" lon="-1.98704">
        <ele>4.7</ele>
        <time>2024-12-26T08:46:38.046Z</time>
      </trkpt>
      <trkpt lat="46.7283" lon="-1.98703">
        <ele>4.6</ele>
        <time>2024-12-26T08:46:39.046Z</time>
      </trkpt>
      <trkpt lat="46.72831" lon="-1.98701">
        <ele>4.4</ele>
        <time>2024-12-26T08:46:40.045Z</time>
      </trkpt>
      <trkpt lat="46.72833" lon="-1.987">
        <ele>4.1</ele>
        <time>2024-12-26T08:46:41.045Z</time>
      </trkpt>
      <trkpt lat="46.72834" lon="-1.98698">
        <ele>4</ele>
        <time>2024-12-26T08:46:42.045Z</time>
      </trkpt>
      <trkpt lat="46.72835" lon="-1.98696">
        <ele>4</ele>
        <time>2024-12-26T08:46:43.046Z</time>
      </trkpt>
      <trkpt lat="46.72835" lon="-1.98696">
        <ele>4</ele>
        <time>2024-12-26T08:46:44.046Z</time>
      </trkpt>
      <trkpt lat="46.72836" lon="-1.98695">
        <ele>3.9</ele>
        <time>2024-12-26T08:46:45.046Z</time>
      </trkpt>
      <trkpt lat="46.72836" lon="-1.98695">
        <ele>3.9</ele>
        <time>2024-12-26T08:46:46.045Z</time>
      </trkpt>
      <trkpt lat="46.72837" lon="-1.98694">
        <ele>3.9</ele>
        <time>2024-12-26T08:46:47.046Z</time>
      </trkpt>
      <trkpt lat="46.72839" lon="-1.98693">
        <ele>4</ele>
        <time>2024-12-26T08:46:48.045Z</time>
      </trkpt>
      <trkpt lat="46.72841" lon="-1.98693">
        <ele>3.9</ele>
        <time>2024-12-26T08:46:49.045Z</time>
      </trkpt>
      <trkpt lat="46.72842" lon="-1.98692">
        <ele>3.9</ele>
        <time>2024-12-26T08:46:50.045Z</time>
      </trkpt>
      <trkpt lat="46.72842" lon="-1.98692">
        <ele>3.9</ele>
        <time>2024-12-26T08:46:51.046Z</time>
      </trkpt>
      <trkpt lat="46.72844" lon="-1.98691">
        <ele>4</ele>
        <time>2024-12-26T08:46:52.046Z</time>
      </trkpt>
      <trkpt lat="46.72845" lon="-1.98689">
        <ele>4.2</ele>
        <time>2024-12-26T08:46:53.046Z</time>
      </trkpt>
      <trkpt lat="46.72846" lon="-1.98687">
        <ele>4.4</ele>
        <time>2024-12-26T08:46:54.046Z</time>
      </trkpt>
      <trkpt lat="46.72848" lon="-1.98685">
        <ele>4.6</ele>
        <time>2024-12-26T08:46:55.046Z</time>
      </trkpt>
      <trkpt lat="46.72849" lon="-1.98683">
        <ele>4.6</ele>
        <time>2024-12-26T08:46:56.046Z</time>
      </trkpt>
      <trkpt lat="46.72849" lon="-1.98683">
        <ele>4.6</ele>
        <time>2024-12-26T08:46:57.045Z</time>
      </trkpt>
      <trkpt lat="46.72851" lon="-1.98683">
        <ele>4.6</ele>
        <time>2024-12-26T08:46:58.045Z</time>
      </trkpt>
      <trkpt lat="46.72851" lon="-1.98683">
        <ele>4.6</ele>
        <time>2024-12-26T08:46:59.045Z</time>
      </trkpt>
      <trkpt lat="46.72851" lon="-1.98683">
        <ele>4.6</ele>
        <time>2024-12-26T08:47:00.045Z</time>
      </trkpt>
      <trkpt lat="46.72851" lon="-1.98682">
        <ele>4.7</ele>
        <time>2024-12-26T08:47:01.045Z</time>
      </trkpt>
      <trkpt lat="46.72851" lon="-1.98681">
        <ele>4.8</ele>
        <time>2024-12-26T08:47:02.045Z</time>
      </trkpt>
      <trkpt lat="46.72852" lon="-1.9868">
        <ele>4.9</ele>
        <time>2024-12-26T08:47:03.046Z</time>
      </trkpt>
      <trkpt lat="46.72853" lon="-1.9868">
        <ele>4.9</ele>
        <time>2024-12-26T08:47:04.046Z</time>
      </trkpt>
      <trkpt lat="46.72853" lon="-1.98679">
        <ele>5</ele>
        <time>2024-12-26T08:47:05.045Z</time>
      </trkpt>
      <trkpt lat="46.72853" lon="-1.98679">
        <ele>5</ele>
        <time>2024-12-26T08:47:06.046Z</time>
      </trkpt>
      <trkpt lat="46.72853" lon="-1.98679">
        <ele>5</ele>
        <time>2024-12-26T08:47:07.046Z</time>
      </trkpt>
      <trkpt lat="46.72854" lon="-1.98678">
        <ele>5.1</ele>
        <time>2024-12-26T08:47:08.045Z</time>
      </trkpt>
      <trkpt lat="46.72855" lon="-1.98677">
        <ele>5.1</ele>
        <time>2024-12-26T08:47:09.045Z</time>
      </trkpt>
      <trkpt lat="46.72855" lon="-1.98676">
        <ele>5.2</ele>
        <time>2024-12-26T08:47:10.046Z</time>
      </trkpt>
      <trkpt lat="46.72856" lon="-1.98675">
        <ele>5.3</ele>
        <time>2024-12-26T08:47:11.046Z</time>
      </trkpt>
      <trkpt lat="46.72856" lon="-1.98675">
        <ele>5.3</ele>
        <time>2024-12-26T08:47:12.046Z</time>
      </trkpt>
      <trkpt lat="46.72857" lon="-1.98675">
        <ele>5.3</ele>
        <time>2024-12-26T08:47:13.046Z</time>
      </trkpt>
      <trkpt lat="46.72857" lon="-1.98675">
        <ele>5.2</ele>
        <time>2024-12-26T08:47:14.046Z</time>
      </trkpt>
      <trkpt lat="46.72856" lon="-1.98676">
        <ele>5.2</ele>
        <time>2024-12-26T08:47:15.046Z</time>
      </trkpt>
      <trkpt lat="46.72856" lon="-1.98676">
        <ele>5.2</ele>
        <time>2024-12-26T08:47:16.046Z</time>
      </trkpt>
      <trkpt lat="46.72856" lon="-1.98676">
        <ele>5.2</ele>
        <time>2024-12-26T08:47:17.045Z</time>
      </trkpt>
      <trkpt lat="46.72856" lon="-1.98675">
        <ele>5.3</ele>
        <time>2024-12-26T08:47:18.046Z</time>
      </trkpt>
      <trkpt lat="46.72856" lon="-1.98674">
        <ele>5.4</ele>
        <time>2024-12-26T08:47:19.046Z</time>
      </trkpt>
      <trkpt lat="46.72857" lon="-1.98673">
        <ele>5.5</ele>
        <time>2024-12-26T08:47:20.045Z</time>
      </trkpt>
      <trkpt lat="46.72858" lon="-1.98672">
        <ele>5.6</ele>
        <time>2024-12-26T08:47:21.046Z</time>
      </trkpt>
      <trkpt lat="46.72858" lon="-1.98671">
        <ele>5.6</ele>
        <time>2024-12-26T08:47:22.045Z</time>
      </trkpt>
      <trkpt lat="46.72859" lon="-1.98671">
        <ele>5.7</ele>
        <time>2024-12-26T08:47:23.045Z</time>
      </trkpt>
      <trkpt lat="46.72859" lon="-1.9867">
        <ele>5.8</ele>
        <time>2024-12-26T08:47:24.045Z</time>
      </trkpt>
      <trkpt lat="46.72859" lon="-1.98669">
        <ele>5.9</ele>
        <time>2024-12-26T08:47:25.045Z</time>
      </trkpt>
      <trkpt lat="46.7286" lon="-1.98668">
        <ele>5.9</ele>
        <time>2024-12-26T08:47:26.045Z</time>
      </trkpt>
      <trkpt lat="46.7286" lon="-1.98667">
        <ele>6</ele>
        <time>2024-12-26T08:47:27.045Z</time>
      </trkpt>
      <trkpt lat="46.72861" lon="-1.98666">
        <ele>6.2</ele>
        <time>2024-12-26T08:47:28.046Z</time>
      </trkpt>
      <trkpt lat="46.72861" lon="-1.98665">
        <ele>6.4</ele>
        <time>2024-12-26T08:47:29.046Z</time>
      </trkpt>
      <trkpt lat="46.72862" lon="-1.98664">
        <ele>6.8</ele>
        <time>2024-12-26T08:47:30.046Z</time>
      </trkpt>
      <trkpt lat="46.72862" lon="-1.98663">
        <ele>7.1</ele>
        <time>2024-12-26T08:47:31.046Z</time>
      </trkpt>
      <trkpt lat="46.72863" lon="-1.98662">
        <ele>7.4</ele>
        <time>2024-12-26T08:47:32.046Z</time>
      </trkpt>
      <trkpt lat="46.72863" lon="-1.98661">
        <ele>7.7</ele>
        <time>2024-12-26T08:47:33.046Z</time>
      </trkpt>
      <trkpt lat="46.72863" lon="-1.9866">
        <ele>7.9</ele>
        <time>2024-12-26T08:47:34.046Z</time>
      </trkpt>
      <trkpt lat="46.72864" lon="-1.98659">
        <ele>8.2</ele>
        <time>2024-12-26T08:47:35.046Z</time>
      </trkpt>
      <trkpt lat="46.72864" lon="-1.98657">
        <ele>8.5</ele>
        <time>2024-12-26T08:47:36.046Z</time>
      </trkpt>
      <trkpt lat="46.72864" lon="-1.98656">
        <ele>8.7</ele>
        <time>2024-12-26T08:47:37.046Z</time>
      </trkpt>
      <trkpt lat="46.72864" lon="-1.98655">
        <ele>9</ele>
        <time>2024-12-26T08:47:38.045Z</time>
      </trkpt>
      <trkpt lat="46.72864" lon="-1.98655">
        <ele>9.1</ele>
        <time>2024-12-26T08:47:39.045Z</time>
      </trkpt>
      <trkpt lat="46.72863" lon="-1.98655">
        <ele>9.1</ele>
        <time>2024-12-26T08:47:40.045Z</time>
      </trkpt>
      <trkpt lat="46.72863" lon="-1.98655">
        <ele>9.1</ele>
        <time>2024-12-26T08:47:41.045Z</time>
      </trkpt>
      <trkpt lat="46.72863" lon="-1.98654">
        <ele>9.3</ele>
        <time>2024-12-26T08:47:42.046Z</time>
      </trkpt>
      <trkpt lat="46.72863" lon="-1.98653">
        <ele>9.5</ele>
        <time>2024-12-26T08:47:43.046Z</time>
      </trkpt>
      <trkpt lat="46.72864" lon="-1.98652">
        <ele>9.8</ele>
        <time>2024-12-26T08:47:44.046Z</time>
      </trkpt>
      <trkpt lat="46.72865" lon="-1.98651">
        <ele>10</ele>
        <time>2024-12-26T08:47:45.046Z</time>
      </trkpt>
      <trkpt lat="46.72866" lon="-1.9865">
        <ele>10.3</ele>
        <time>2024-12-26T08:47:46.046Z</time>
      </trkpt>
      <trkpt lat="46.72867" lon="-1.98649">
        <ele>10.5</ele>
        <time>2024-12-26T08:47:47.045Z</time>
      </trkpt>
      <trkpt lat="46.72867" lon="-1.98648">
        <ele>10.7</ele>
        <time>2024-12-26T08:47:48.045Z</time>
      </trkpt>
      <trkpt lat="46.72868" lon="-1.98646">
        <ele>11</ele>
        <time>2024-12-26T08:47:49.045Z</time>
      </trkpt>
      <trkpt lat="46.72868" lon="-1.98645">
        <ele>11.3</ele>
        <time>2024-12-26T08:47:50.045Z</time>
      </trkpt>
      <trkpt lat="46.72868" lon="-1.98643">
        <ele>11.6</ele>
        <time>2024-12-26T08:47:51.045Z</time>
      </trkpt>
      <trkpt lat="46.72869" lon="-1.98642">
        <ele>11.8</ele>
        <time>2024-12-26T08:47:52.045Z</time>
      </trkpt>
      <trkpt lat="46.72869" lon="-1.98641">
        <ele>12.1</ele>
        <time>2024-12-26T08:47:53.045Z</time>
      </trkpt>
      <trkpt lat="46.72869" lon="-1.98639">
        <ele>12.4</ele>
        <time>2024-12-26T08:47:54.045Z</time>
      </trkpt>
      <trkpt lat="46.72869" lon="-1.98637">
        <ele>12.4</ele>
        <time>2024-12-26T08:47:55.046Z</time>
      </trkpt>
      <trkpt lat="46.7287" lon="-1.98635">
        <ele>12.3</ele>
        <time>2024-12-26T08:47:56.045Z</time>
      </trkpt>
      <trkpt lat="46.72869" lon="-1.98634">
        <ele>12.3</ele>
        <time>2024-12-26T08:47:57.045Z</time>
      </trkpt>
      <trkpt lat="46.72869" lon="-1.98633">
        <ele>12.3</ele>
        <time>2024-12-26T08:47:58.045Z</time>
      </trkpt>
      <trkpt lat="46.72869" lon="-1.98633">
        <ele>12.3</ele>
        <time>2024-12-26T08:47:59.045Z</time>
      </trkpt>
      <trkpt lat="46.72868" lon="-1.98632">
        <ele>12.4</ele>
        <time>2024-12-26T08:48:00.045Z</time>
      </trkpt>
      <trkpt lat="46.72869" lon="-1.98632">
        <ele>12.3</ele>
        <time>2024-12-26T08:48:01.045Z</time>
      </trkpt>
      <trkpt lat="46.72869" lon="-1.98631">
        <ele>12.3</ele>
        <time>2024-12-26T08:48:02.045Z</time>
      </trkpt>
      <trkpt lat="46.72869" lon="-1.98631">
        <ele>12.3</ele>
        <time>2024-12-26T08:48:03.045Z</time>
      </trkpt>
      <trkpt lat="46.72868" lon="-1.9863">
        <ele>12.4</ele>
        <time>2024-12-26T08:48:04.045Z</time>
      </trkpt>
      <trkpt lat="46.72869" lon="-1.9863">
        <ele>12.3</ele>
        <time>2024-12-26T08:48:05.045Z</time>
      </trkpt>
      <trkpt lat="46.72869" lon="-1.98629">
        <ele>12.3</ele>
        <time>2024-12-26T08:48:06.045Z</time>
      </trkpt>
      <trkpt lat="46.72869" lon="-1.98628">
        <ele>12.3</ele>
        <time>2024-12-26T08:48:07.045Z</time>
      </trkpt>
      <trkpt lat="46.72869" lon="-1.98627">
        <ele>12.2</ele>
        <time>2024-12-26T08:48:08.045Z</time>
      </trkpt>
      <trkpt lat="46.72869" lon="-1.98626">
        <ele>12.2</ele>
        <time>2024-12-26T08:48:09.045Z</time>
      </trkpt>
      <trkpt lat="46.72868" lon="-1.98626">
        <ele>12.3</ele>
        <time>2024-12-26T08:48:10.046Z</time>
      </trkpt>
      <trkpt lat="46.72868" lon="-1.98626">
        <ele>12.3</ele>
        <time>2024-12-26T08:48:11.046Z</time>
      </trkpt>
      <trkpt lat="46.72868" lon="-1.98626">
        <ele>12.3</ele>
        <time>2024-12-26T08:48:12.046Z</time>
      </trkpt>
      <trkpt lat="46.72868" lon="-1.98626">
        <ele>12.2</ele>
        <time>2024-12-26T08:48:13.046Z</time>
      </trkpt>
      <trkpt lat="46.72868" lon="-1.98626">
        <ele>12.3</ele>
        <time>2024-12-26T08:48:14.045Z</time>
      </trkpt>
      <trkpt lat="46.72868" lon="-1.98626">
        <ele>12.3</ele>
        <time>2024-12-26T08:48:15.046Z</time>
      </trkpt>
      <trkpt lat="46.72867" lon="-1.98627">
        <ele>12.4</ele>
        <time>2024-12-26T08:48:16.046Z</time>
      </trkpt>
      <trkpt lat="46.72867" lon="-1.98627">
        <ele>12.4</ele>
        <time>2024-12-26T08:48:17.045Z</time>
      </trkpt>
      <trkpt lat="46.72867" lon="-1.98628">
        <ele>12.5</ele>
        <time>2024-12-26T08:48:18.045Z</time>
      </trkpt>
      <trkpt lat="46.72866" lon="-1.98628">
        <ele>12.5</ele>
        <time>2024-12-26T08:48:19.046Z</time>
      </trkpt>
      <trkpt lat="46.72866" lon="-1.98628">
        <ele>12.5</ele>
        <time>2024-12-26T08:48:20.046Z</time>
      </trkpt>
      <trkpt lat="46.72866" lon="-1.98628">
        <ele>12.5</ele>
        <time>2024-12-26T08:48:21.046Z</time>
      </trkpt>
      <trkpt lat="46.72866" lon="-1.98628">
        <ele>12.5</ele>
        <time>2024-12-26T08:48:22.045Z</time>
      </trkpt>
      <trkpt lat="46.72866" lon="-1.98628">
        <ele>12.5</ele>
        <time>2024-12-26T08:48:23.045Z</time>
      </trkpt>
      <trkpt lat="46.72866" lon="-1.98628">
        <ele>12.5</ele>
        <time>2024-12-26T08:48:24.045Z</time>
      </trkpt>
      <trkpt lat="46.72866" lon="-1.98628">
        <ele>12.5</ele>
        <time>2024-12-26T08:48:25.045Z</time>
      </trkpt>
      <trkpt lat="46.72866" lon="-1.98628">
        <ele>12.5</ele>
        <time>2024-12-26T08:48:26.046Z</time>
      </trkpt>
      <trkpt lat="46.72866" lon="-1.98628">
        <ele>12.5</ele>
        <time>2024-12-26T08:48:27.045Z</time>
      </trkpt>
      <trkpt lat="46.72866" lon="-1.98628">
        <ele>12.5</ele>
        <time>2024-12-26T08:48:28.046Z</time>
      </trkpt>
      <trkpt lat="46.72866" lon="-1.98628">
        <ele>12.5</ele>
        <time>2024-12-26T08:48:29.046Z</time>
      </trkpt>
      <trkpt lat="46.72866" lon="-1.98628">
        <ele>12.5</ele>
        <time>2024-12-26T08:48:30.046Z</time>
      </trkpt>
      <trkpt lat="46.72867" lon="-1.98628">
        <ele>12.5</ele>
        <time>2024-12-26T08:48:31.046Z</time>
      </trkpt>
      <trkpt lat="46.72867" lon="-1.98628">
        <ele>12.4</ele>
        <time>2024-12-26T08:48:32.046Z</time>
      </trkpt>
      <trkpt lat="46.72867" lon="-1.98627">
        <ele>12.4</ele>
        <time>2024-12-26T08:48:33.046Z</time>
      </trkpt>
      <trkpt lat="46.72867" lon="-1.98627">
        <ele>12.4</ele>
        <time>2024-12-26T08:48:34.046Z</time>
      </trkpt>
      <trkpt lat="46.72868" lon="-1.98627">
        <ele>12.3</ele>
        <time>2024-12-26T08:48:35.046Z</time>
      </trkpt>
      <trkpt lat="46.72869" lon="-1.98626">
        <ele>12.1</ele>
        <time>2024-12-26T08:48:36.045Z</time>
      </trkpt>
      <trkpt lat="46.7287" lon="-1.98625">
        <ele>12</ele>
        <time>2024-12-26T08:48:37.046Z</time>
      </trkpt>
      <trkpt lat="46.72871" lon="-1.98625">
        <ele>11.9</ele>
        <time>2024-12-26T08:48:38.046Z</time>
      </trkpt>
      <trkpt lat="46.72873" lon="-1.98625">
        <ele>11.8</ele>
        <time>2024-12-26T08:48:39.046Z</time>
      </trkpt>
      <trkpt lat="46.72873" lon="-1.98624">
        <ele>11.7</ele>
        <time>2024-12-26T08:48:40.045Z</time>
      </trkpt>
      <trkpt lat="46.72875" lon="-1.98624">
        <ele>11.5</ele>
        <time>2024-12-26T08:48:41.045Z</time>
      </trkpt>
      <trkpt lat="46.72876" lon="-1.98624">
        <ele>11.4</ele>
        <time>2024-12-26T08:48:42.045Z</time>
      </trkpt>
      <trkpt lat="46.72877" lon="-1.98623">
        <ele>11.2</ele>
        <time>2024-12-26T08:48:43.045Z</time>
      </trkpt>
      <trkpt lat="46.72878" lon="-1.98622">
        <ele>11.1</ele>
        <time>2024-12-26T08:48:44.045Z</time>
      </trkpt>
      <trkpt lat="46.72878" lon="-1.98622">
        <ele>11.1</ele>
        <time>2024-12-26T08:48:45.046Z</time>
      </trkpt>
      <trkpt lat="46.72878" lon="-1.98622">
        <ele>11</ele>
        <time>2024-12-26T08:48:46.045Z</time>
      </trkpt>
      <trkpt lat="46.72878" lon="-1.98622">
        <ele>11.1</ele>
        <time>2024-12-26T08:48:47.046Z</time>
      </trkpt>
      <trkpt lat="46.72878" lon="-1.98623">
        <ele>11.1</ele>
        <time>2024-12-26T08:48:48.045Z</time>
      </trkpt>
      <trkpt lat="46.72878" lon="-1.98622">
        <ele>11.1</ele>
        <time>2024-12-26T08:48:49.045Z</time>
      </trkpt>
      <trkpt lat="46.72877" lon="-1.98622">
        <ele>11.2</ele>
        <time>2024-12-26T08:48:50.045Z</time>
      </trkpt>
      <trkpt lat="46.72877" lon="-1.98622">
        <ele>11.2</ele>
        <time>2024-12-26T08:48:51.045Z</time>
      </trkpt>
      <trkpt lat="46.72876" lon="-1.98622">
        <ele>11.2</ele>
        <time>2024-12-26T08:48:52.045Z</time>
      </trkpt>
      <trkpt lat="46.72876" lon="-1.98622">
        <ele>11.3</ele>
        <time>2024-12-26T08:48:53.045Z</time>
      </trkpt>
      <trkpt lat="46.72876" lon="-1.98621">
        <ele>11.3</ele>
        <time>2024-12-26T08:48:54.045Z</time>
      </trkpt>
      <trkpt lat="46.72875" lon="-1.98621">
        <ele>11.3</ele>
        <time>2024-12-26T08:48:55.046Z</time>
      </trkpt>
      <trkpt lat="46.72875" lon="-1.98622">
        <ele>11.4</ele>
        <time>2024-12-26T08:48:56.046Z</time>
      </trkpt>
      <trkpt lat="46.72876" lon="-1.98622">
        <ele>11.3</ele>
        <time>2024-12-26T08:48:57.046Z</time>
      </trkpt>
      <trkpt lat="46.72875" lon="-1.98622">
        <ele>11.4</ele>
        <time>2024-12-26T08:48:58.046Z</time>
      </trkpt>
      <trkpt lat="46.72875" lon="-1.98622">
        <ele>11.4</ele>
        <time>2024-12-26T08:48:59.046Z</time>
      </trkpt>
      <trkpt lat="46.72875" lon="-1.98622">
        <ele>11.4</ele>
        <time>2024-12-26T08:49:00.046Z</time>
      </trkpt>
      <trkpt lat="46.72874" lon="-1.98622">
        <ele>11.5</ele>
        <time>2024-12-26T08:49:01.046Z</time>
      </trkpt>
      <trkpt lat="46.72874" lon="-1.98623">
        <ele>11.6</ele>
        <time>2024-12-26T08:49:02.046Z</time>
      </trkpt>
      <trkpt lat="46.72873" lon="-1.98623">
        <ele>11.6</ele>
        <time>2024-12-26T08:49:03.045Z</time>
      </trkpt>
      <trkpt lat="46.72873" lon="-1.98623">
        <ele>11.6</ele>
        <time>2024-12-26T08:49:04.045Z</time>
      </trkpt>
      <trkpt lat="46.72873" lon="-1.98623">
        <ele>11.7</ele>
        <time>2024-12-26T08:49:05.046Z</time>
      </trkpt>
      <trkpt lat="46.72873" lon="-1.98623">
        <ele>11.7</ele>
        <time>2024-12-26T08:49:06.045Z</time>
      </trkpt>
      <trkpt lat="46.72872" lon="-1.98623">
        <ele>11.8</ele>
        <time>2024-12-26T08:49:07.045Z</time>
      </trkpt>
      <trkpt lat="46.72871" lon="-1.98623">
        <ele>11.9</ele>
        <time>2024-12-26T08:49:08.046Z</time>
      </trkpt>
      <trkpt lat="46.72871" lon="-1.98623">
        <ele>11.9</ele>
        <time>2024-12-26T08:49:09.045Z</time>
      </trkpt>
      <trkpt lat="46.7287" lon="-1.98623">
        <ele>12</ele>
        <time>2024-12-26T08:49:10.045Z</time>
      </trkpt>
      <trkpt lat="46.7287" lon="-1.98622">
        <ele>12</ele>
        <time>2024-12-26T08:49:11.045Z</time>
      </trkpt>
      <trkpt lat="46.72871" lon="-1.98621">
        <ele>11.9</ele>
        <time>2024-12-26T08:49:12.046Z</time>
      </trkpt>
      <trkpt lat="46.7287" lon="-1.98619">
        <ele>11.9</ele>
        <time>2024-12-26T08:49:13.045Z</time>
      </trkpt>
      <trkpt lat="46.7287" lon="-1.98618">
        <ele>11.9</ele>
        <time>2024-12-26T08:49:14.046Z</time>
      </trkpt>
      <trkpt lat="46.72869" lon="-1.98619">
        <ele>12</ele>
        <time>2024-12-26T08:49:15.046Z</time>
      </trkpt>
      <trkpt lat="46.72869" lon="-1.98619">
        <ele>12.1</ele>
        <time>2024-12-26T08:49:16.045Z</time>
      </trkpt>
      <trkpt lat="46.72869" lon="-1.98619">
        <ele>12</ele>
        <time>2024-12-26T08:49:17.045Z</time>
      </trkpt>
      <trkpt lat="46.72869" lon="-1.98619">
        <ele>12</ele>
        <time>2024-12-26T08:49:18.045Z</time>
      </trkpt>
      <trkpt lat="46.72871" lon="-1.98618">
        <ele>11.8</ele>
        <time>2024-12-26T08:49:19.045Z</time>
      </trkpt>
      <trkpt lat="46.72871" lon="-1.98618">
        <ele>11.7</ele>
        <time>2024-12-26T08:49:20.046Z</time>
      </trkpt>
      <trkpt lat="46.72872" lon="-1.98617">
        <ele>11.6</ele>
        <time>2024-12-26T08:49:21.045Z</time>
      </trkpt>
      <trkpt lat="46.72874" lon="-1.98616">
        <ele>11.3</ele>
        <time>2024-12-26T08:49:22.045Z</time>
      </trkpt>
      <trkpt lat="46.72874" lon="-1.98615">
        <ele>11.3</ele>
        <time>2024-12-26T08:49:23.045Z</time>
      </trkpt>
      <trkpt lat="46.72875" lon="-1.98615">
        <ele>11.1</ele>
        <time>2024-12-26T08:49:24.046Z</time>
      </trkpt>
      <trkpt lat="46.72875" lon="-1.98614">
        <ele>11.1</ele>
        <time>2024-12-26T08:49:25.046Z</time>
      </trkpt>
      <trkpt lat="46.72875" lon="-1.98613">
        <ele>11.1</ele>
        <time>2024-12-26T08:49:26.046Z</time>
      </trkpt>
      <trkpt lat="46.72875" lon="-1.98613">
        <ele>11.1</ele>
        <time>2024-12-26T08:49:27.045Z</time>
      </trkpt>
      <trkpt lat="46.72874" lon="-1.98613">
        <ele>11.2</ele>
        <time>2024-12-26T08:49:28.046Z</time>
      </trkpt>
      <trkpt lat="46.72876" lon="-1.98611">
        <ele>10.9</ele>
        <time>2024-12-26T08:49:29.046Z</time>
      </trkpt>
      <trkpt lat="46.72876" lon="-1.98611">
        <ele>10.8</ele>
        <time>2024-12-26T08:49:30.045Z</time>
      </trkpt>
      <trkpt lat="46.72876" lon="-1.9861">
        <ele>10.8</ele>
        <time>2024-12-26T08:49:31.045Z</time>
      </trkpt>
      <trkpt lat="46.72876" lon="-1.9861">
        <ele>10.8</ele>
        <time>2024-12-26T08:49:32.045Z</time>
      </trkpt>
      <trkpt lat="46.72877" lon="-1.9861">
        <ele>10.7</ele>
        <time>2024-12-26T08:49:33.045Z</time>
      </trkpt>
      <trkpt lat="46.72877" lon="-1.9861">
        <ele>10.6</ele>
        <time>2024-12-26T08:49:34.045Z</time>
      </trkpt>
      <trkpt lat="46.72877" lon="-1.9861">
        <ele>10.7</ele>
        <time>2024-12-26T08:49:35.045Z</time>
      </trkpt>
      <trkpt lat="46.72877" lon="-1.98611">
        <ele>10.7</ele>
        <time>2024-12-26T08:49:36.045Z</time>
      </trkpt>
      <trkpt lat="46.72877" lon="-1.98612">
        <ele>10.7</ele>
        <time>2024-12-26T08:49:37.046Z</time>
      </trkpt>
      <trkpt lat="46.72877" lon="-1.98612">
        <ele>10.7</ele>
        <time>2024-12-26T08:49:38.046Z</time>
      </trkpt>
      <trkpt lat="46.72877" lon="-1.98612">
        <ele>10.7</ele>
        <time>2024-12-26T08:49:39.046Z</time>
      </trkpt>
      <trkpt lat="46.72878" lon="-1.98612">
        <ele>10.6</ele>
        <time>2024-12-26T08:49:40.046Z</time>
      </trkpt>
      <trkpt lat="46.7288" lon="-1.98612">
        <ele>10.4</ele>
        <time>2024-12-26T08:49:41.045Z</time>
      </trkpt>
      <trkpt lat="46.72881" lon="-1.98612">
        <ele>10.1</ele>
        <time>2024-12-26T08:49:42.045Z</time>
      </trkpt>
      <trkpt lat="46.72882" lon="-1.98611">
        <ele>10</ele>
        <time>2024-12-26T08:49:43.045Z</time>
      </trkpt>
      <trkpt lat="46.72883" lon="-1.98611">
        <ele>9.8</ele>
        <time>2024-12-26T08:49:44.045Z</time>
      </trkpt>
      <trkpt lat="46.72884" lon="-1.98611">
        <ele>9.6</ele>
        <time>2024-12-26T08:49:45.046Z</time>
      </trkpt>
      <trkpt lat="46.72886" lon="-1.98611">
        <ele>9.5</ele>
        <time>2024-12-26T08:49:46.046Z</time>
      </trkpt>
      <trkpt lat="46.72887" lon="-1.98611">
        <ele>9.3</ele>
        <time>2024-12-26T08:49:47.045Z</time>
      </trkpt>
      <trkpt lat="46.72888" lon="-1.98611">
        <ele>9.1</ele>
        <time>2024-12-26T08:49:48.046Z</time>
      </trkpt>
      <trkpt lat="46.72889" lon="-1.98611">
        <ele>8.9</ele>
        <time>2024-12-26T08:49:49.045Z</time>
      </trkpt>
      <trkpt lat="46.72891" lon="-1.98608">
        <ele>8.6</ele>
        <time>2024-12-26T08:49:50.046Z</time>
      </trkpt>
      <trkpt lat="46.72892" lon="-1.98607">
        <ele>8.4</ele>
        <time>2024-12-26T08:49:51.045Z</time>
      </trkpt>
      <trkpt lat="46.72892" lon="-1.98606">
        <ele>8.3</ele>
        <time>2024-12-26T08:49:52.045Z</time>
      </trkpt>
      <trkpt lat="46.72893" lon="-1.98605">
        <ele>8.2</ele>
        <time>2024-12-26T08:49:53.046Z</time>
      </trkpt>
      <trkpt lat="46.72893" lon="-1.98605">
        <ele>8.2</ele>
        <time>2024-12-26T08:49:54.045Z</time>
      </trkpt>
      <trkpt lat="46.72893" lon="-1.98605">
        <ele>8.2</ele>
        <time>2024-12-26T08:49:55.046Z</time>
      </trkpt>
      <trkpt lat="46.72894" lon="-1.98605">
        <ele>8</ele>
        <time>2024-12-26T08:49:56.045Z</time>
      </trkpt>
      <trkpt lat="46.72896" lon="-1.98604">
        <ele>7.8</ele>
        <time>2024-12-26T08:49:57.045Z</time>
      </trkpt>
      <trkpt lat="46.72896" lon="-1.98604">
        <ele>7.8</ele>
        <time>2024-12-26T08:49:58.046Z</time>
      </trkpt>
      <trkpt lat="46.72897" lon="-1.98604">
        <ele>7.6</ele>
        <time>2024-12-26T08:49:59.045Z</time>
      </trkpt>
      <trkpt lat="46.72898" lon="-1.98603">
        <ele>7.4</ele>
        <time>2024-12-26T08:50:00.045Z</time>
      </trkpt>
      <trkpt lat="46.72899" lon="-1.98602">
        <ele>7.3</ele>
        <time>2024-12-26T08:50:01.045Z</time>
      </trkpt>
      <trkpt lat="46.72901" lon="-1.986">
        <ele>7.2</ele>
        <time>2024-12-26T08:50:02.045Z</time>
      </trkpt>
      <trkpt lat="46.72902" lon="-1.98599">
        <ele>7.1</ele>
        <time>2024-12-26T08:50:03.045Z</time>
      </trkpt>
      <trkpt lat="46.72903" lon="-1.98597">
        <ele>7</ele>
        <time>2024-12-26T08:50:04.046Z</time>
      </trkpt>
      <trkpt lat="46.72904" lon="-1.98596">
        <ele>6.9</ele>
        <time>2024-12-26T08:50:05.046Z</time>
      </trkpt>
      <trkpt lat="46.72905" lon="-1.98595">
        <ele>6.8</ele>
        <time>2024-12-26T08:50:06.045Z</time>
      </trkpt>
      <trkpt lat="46.72907" lon="-1.98593">
        <ele>6.8</ele>
        <time>2024-12-26T08:50:07.045Z</time>
      </trkpt>
      <trkpt lat="46.72908" lon="-1.98592">
        <ele>6.8</ele>
        <time>2024-12-26T08:50:08.045Z</time>
      </trkpt>
      <trkpt lat="46.72909" lon="-1.9859">
        <ele>6.8</ele>
        <time>2024-12-26T08:50:09.045Z</time>
      </trkpt>
      <trkpt lat="46.7291" lon="-1.98589">
        <ele>6.8</ele>
        <time>2024-12-26T08:50:10.045Z</time>
      </trkpt>
      <trkpt lat="46.72911" lon="-1.98588">
        <ele>6.8</ele>
        <time>2024-12-26T08:50:11.045Z</time>
      </trkpt>
      <trkpt lat="46.72912" lon="-1.98588">
        <ele>6.8</ele>
        <time>2024-12-26T08:50:12.046Z</time>
      </trkpt>
      <trkpt lat="46.72913" lon="-1.98587">
        <ele>6.8</ele>
        <time>2024-12-26T08:50:13.045Z</time>
      </trkpt>
      <trkpt lat="46.72915" lon="-1.98586">
        <ele>6.8</ele>
        <time>2024-12-26T08:50:14.045Z</time>
      </trkpt>
      <trkpt lat="46.72917" lon="-1.98584">
        <ele>7</ele>
        <time>2024-12-26T08:50:15.045Z</time>
      </trkpt>
      <trkpt lat="46.7292" lon="-1.98581">
        <ele>7.2</ele>
        <time>2024-12-26T08:50:16.046Z</time>
      </trkpt>
      <trkpt lat="46.72922" lon="-1.98579">
        <ele>7.6</ele>
        <time>2024-12-26T08:50:17.045Z</time>
      </trkpt>
      <trkpt lat="46.72923" lon="-1.98578">
        <ele>7.8</ele>
        <time>2024-12-26T08:50:18.046Z</time>
      </trkpt>
      <trkpt lat="46.72924" lon="-1.98577">
        <ele>7.9</ele>
        <time>2024-12-26T08:50:19.045Z</time>
      </trkpt>
      <trkpt lat="46.72925" lon="-1.98576">
        <ele>8.1</ele>
        <time>2024-12-26T08:50:20.045Z</time>
      </trkpt>
      <trkpt lat="46.72927" lon="-1.98574">
        <ele>8.4</ele>
        <time>2024-12-26T08:50:21.045Z</time>
      </trkpt>
      <trkpt lat="46.72927" lon="-1.98573">
        <ele>8.4</ele>
        <time>2024-12-26T08:50:22.045Z</time>
      </trkpt>
      <trkpt lat="46.72928" lon="-1.98571">
        <ele>8.8</ele>
        <time>2024-12-26T08:50:23.045Z</time>
      </trkpt>
      <trkpt lat="46.72928" lon="-1.9857">
        <ele>9</ele>
        <time>2024-12-26T08:50:24.046Z</time>
      </trkpt>
      <trkpt lat="46.72929" lon="-1.98568">
        <ele>9.3</ele>
        <time>2024-12-26T08:50:25.045Z</time>
      </trkpt>
      <trkpt lat="46.72931" lon="-1.98567">
        <ele>9.5</ele>
        <time>2024-12-26T08:50:26.045Z</time>
      </trkpt>
      <trkpt lat="46.72932" lon="-1.98565">
        <ele>9.7</ele>
        <time>2024-12-26T08:50:27.045Z</time>
      </trkpt>
      <trkpt lat="46.72933" lon="-1.98564">
        <ele>9.9</ele>
        <time>2024-12-26T08:50:28.045Z</time>
      </trkpt>
      <trkpt lat="46.72934" lon="-1.98562">
        <ele>10.2</ele>
        <time>2024-12-26T08:50:29.045Z</time>
      </trkpt>
      <trkpt lat="46.72936" lon="-1.98561">
        <ele>10.3</ele>
        <time>2024-12-26T08:50:30.045Z</time>
      </trkpt>
      <trkpt lat="46.72937" lon="-1.98561">
        <ele>10.2</ele>
        <time>2024-12-26T08:50:31.045Z</time>
      </trkpt>
      <trkpt lat="46.72939" lon="-1.98562">
        <ele>10.1</ele>
        <time>2024-12-26T08:50:32.045Z</time>
      </trkpt>
      <trkpt lat="46.7294" lon="-1.98561">
        <ele>10.2</ele>
        <time>2024-12-26T08:50:33.046Z</time>
      </trkpt>
      <trkpt lat="46.72941" lon="-1.9856">
        <ele>10.3</ele>
        <time>2024-12-26T08:50:34.046Z</time>
      </trkpt>
      <trkpt lat="46.72942" lon="-1.98559">
        <ele>10.4</ele>
        <time>2024-12-26T08:50:35.046Z</time>
      </trkpt>
      <trkpt lat="46.72943" lon="-1.98558">
        <ele>10.6</ele>
        <time>2024-12-26T08:50:36.045Z</time>
      </trkpt>
      <trkpt lat="46.72945" lon="-1.98557">
        <ele>10.7</ele>
        <time>2024-12-26T08:50:37.045Z</time>
      </trkpt>
      <trkpt lat="46.72947" lon="-1.98556">
        <ele>11</ele>
        <time>2024-12-26T08:50:38.046Z</time>
      </trkpt>
      <trkpt lat="46.72949" lon="-1.98555">
        <ele>11.2</ele>
        <time>2024-12-26T08:50:39.045Z</time>
      </trkpt>
      <trkpt lat="46.7295" lon="-1.98554">
        <ele>11.3</ele>
        <time>2024-12-26T08:50:40.045Z</time>
      </trkpt>
      <trkpt lat="46.72952" lon="-1.98552">
        <ele>11.4</ele>
        <time>2024-12-26T08:50:41.045Z</time>
      </trkpt>
      <trkpt lat="46.72953" lon="-1.98551">
        <ele>11.4</ele>
        <time>2024-12-26T08:50:42.045Z</time>
      </trkpt>
      <trkpt lat="46.72955" lon="-1.9855">
        <ele>11.5</ele>
        <time>2024-12-26T08:50:43.045Z</time>
      </trkpt>
      <trkpt lat="46.72956" lon="-1.98548">
        <ele>11.6</ele>
        <time>2024-12-26T08:50:44.046Z</time>
      </trkpt>
      <trkpt lat="46.72957" lon="-1.98546">
        <ele>11.6</ele>
        <time>2024-12-26T08:50:45.045Z</time>
      </trkpt>
      <trkpt lat="46.72958" lon="-1.98545">
        <ele>11.7</ele>
        <time>2024-12-26T08:50:46.045Z</time>
      </trkpt>
      <trkpt lat="46.72959" lon="-1.98543">
        <ele>11.7</ele>
        <time>2024-12-26T08:50:47.045Z</time>
      </trkpt>
      <trkpt lat="46.72959" lon="-1.98543">
        <ele>11.7</ele>
        <time>2024-12-26T08:50:48.046Z</time>
      </trkpt>
      <trkpt lat="46.72959" lon="-1.98542">
        <ele>11.8</ele>
        <time>2024-12-26T08:50:49.045Z</time>
      </trkpt>
      <trkpt lat="46.7296" lon="-1.9854">
        <ele>11.8</ele>
        <time>2024-12-26T08:50:50.046Z</time>
      </trkpt>
      <trkpt lat="46.7296" lon="-1.98537">
        <ele>11.8</ele>
        <time>2024-12-26T08:50:51.046Z</time>
      </trkpt>
      <trkpt lat="46.7296" lon="-1.98534">
        <ele>11.9</ele>
        <time>2024-12-26T08:50:52.045Z</time>
      </trkpt>
      <trkpt lat="46.72959" lon="-1.98531">
        <ele>12</ele>
        <time>2024-12-26T08:50:53.046Z</time>
      </trkpt>
      <trkpt lat="46.72958" lon="-1.98528">
        <ele>12</ele>
        <time>2024-12-26T08:50:54.046Z</time>
      </trkpt>
      <trkpt lat="46.72957" lon="-1.98525">
        <ele>11.8</ele>
        <time>2024-12-26T08:50:55.045Z</time>
      </trkpt>
      <trkpt lat="46.72957" lon="-1.98523">
        <ele>11.7</ele>
        <time>2024-12-26T08:50:56.045Z</time>
      </trkpt>
      <trkpt lat="46.72956" lon="-1.98522">
        <ele>11.6</ele>
        <time>2024-12-26T08:50:57.045Z</time>
      </trkpt>
      <trkpt lat="46.72955" lon="-1.98521">
        <ele>11.5</ele>
        <time>2024-12-26T08:50:58.045Z</time>
      </trkpt>
      <trkpt lat="46.72954" lon="-1.9852">
        <ele>11.4</ele>
        <time>2024-12-26T08:50:59.045Z</time>
      </trkpt>
      <trkpt lat="46.72953" lon="-1.98519">
        <ele>11.2</ele>
        <time>2024-12-26T08:51:00.045Z</time>
      </trkpt>
      <trkpt lat="46.72951" lon="-1.98517">
        <ele>10.9</ele>
        <time>2024-12-26T08:51:01.045Z</time>
      </trkpt>
      <trkpt lat="46.7295" lon="-1.98515">
        <ele>10.6</ele>
        <time>2024-12-26T08:51:02.045Z</time>
      </trkpt>
      <trkpt lat="46.72949" lon="-1.98514">
        <ele>10.3</ele>
        <time>2024-12-26T08:51:03.045Z</time>
      </trkpt>
      <trkpt lat="46.72948" lon="-1.98512">
        <ele>10.1</ele>
        <time>2024-12-26T08:51:04.045Z</time>
      </trkpt>
      <trkpt lat="46.72947" lon="-1.98511">
        <ele>9.7</ele>
        <time>2024-12-26T08:51:05.045Z</time>
      </trkpt>
      <trkpt lat="46.72946" lon="-1.98509">
        <ele>9.4</ele>
        <time>2024-12-26T08:51:06.045Z</time>
      </trkpt>
      <trkpt lat="46.72944" lon="-1.98508">
        <ele>9.1</ele>
        <time>2024-12-26T08:51:07.045Z</time>
      </trkpt>
      <trkpt lat="46.72943" lon="-1.98506">
        <ele>8.9</ele>
        <time>2024-12-26T08:51:08.045Z</time>
      </trkpt>
      <trkpt lat="46.72942" lon="-1.98504">
        <ele>8.6</ele>
        <time>2024-12-26T08:51:09.046Z</time>
      </trkpt>
      <trkpt lat="46.72941" lon="-1.98501">
        <ele>8.3</ele>
        <time>2024-12-26T08:51:10.046Z</time>
      </trkpt>
      <trkpt lat="46.7294" lon="-1.985">
        <ele>8.2</ele>
        <time>2024-12-26T08:51:11.046Z</time>
      </trkpt>
      <trkpt lat="46.7294" lon="-1.985">
        <ele>8.2</ele>
        <time>2024-12-26T08:51:12.046Z</time>
      </trkpt>
      <trkpt lat="46.72938" lon="-1.98498">
        <ele>8</ele>
        <time>2024-12-26T08:51:13.046Z</time>
      </trkpt>
      <trkpt lat="46.72937" lon="-1.98497">
        <ele>8</ele>
        <time>2024-12-26T08:51:14.046Z</time>
      </trkpt>
      <trkpt lat="46.72936" lon="-1.98496">
        <ele>7.9</ele>
        <time>2024-12-26T08:51:15.045Z</time>
      </trkpt>
      <trkpt lat="46.72935" lon="-1.98494">
        <ele>7.9</ele>
        <time>2024-12-26T08:51:16.045Z</time>
      </trkpt>
      <trkpt lat="46.72934" lon="-1.98494">
        <ele>7.9</ele>
        <time>2024-12-26T08:51:17.045Z</time>
      </trkpt>
      <trkpt lat="46.72933" lon="-1.98493">
        <ele>7.9</ele>
        <time>2024-12-26T08:51:18.045Z</time>
      </trkpt>
      <trkpt lat="46.72932" lon="-1.98492">
        <ele>7.9</ele>
        <time>2024-12-26T08:51:19.045Z</time>
      </trkpt>
      <trkpt lat="46.72931" lon="-1.98491">
        <ele>8</ele>
        <time>2024-12-26T08:51:20.045Z</time>
      </trkpt>
      <trkpt lat="46.7293" lon="-1.9849">
        <ele>8</ele>
        <time>2024-12-26T08:51:21.045Z</time>
      </trkpt>
      <trkpt lat="46.72929" lon="-1.98488">
        <ele>8</ele>
        <time>2024-12-26T08:51:22.046Z</time>
      </trkpt>
      <trkpt lat="46.72928" lon="-1.98486">
        <ele>8.1</ele>
        <time>2024-12-26T08:51:23.046Z</time>
      </trkpt>
      <trkpt lat="46.72926" lon="-1.98484">
        <ele>8.2</ele>
        <time>2024-12-26T08:51:24.045Z</time>
      </trkpt>
      <trkpt lat="46.72925" lon="-1.98483">
        <ele>8.4</ele>
        <time>2024-12-26T08:51:25.045Z</time>
      </trkpt>
      <trkpt lat="46.72924" lon="-1.98482">
        <ele>8.6</ele>
        <time>2024-12-26T08:51:26.045Z</time>
      </trkpt>
      <trkpt lat="46.72921" lon="-1.98481">
        <ele>8.9</ele>
        <time>2024-12-26T08:51:27.045Z</time>
      </trkpt>
      <trkpt lat="46.7292" lon="-1.98481">
        <ele>9.2</ele>
        <time>2024-12-26T08:51:28.045Z</time>
      </trkpt>
      <trkpt lat="46.72918" lon="-1.9848">
        <ele>9.4</ele>
        <time>2024-12-26T08:51:29.045Z</time>
      </trkpt>
      <trkpt lat="46.72917" lon="-1.9848">
        <ele>9.6</ele>
        <time>2024-12-26T08:51:30.045Z</time>
      </trkpt>
      <trkpt lat="46.72916" lon="-1.98479">
        <ele>9.7</ele>
        <time>2024-12-26T08:51:31.045Z</time>
      </trkpt>
      <trkpt lat="46.72915" lon="-1.98478">
        <ele>9.6</ele>
        <time>2024-12-26T08:51:32.045Z</time>
      </trkpt>
      <trkpt lat="46.72914" lon="-1.98476">
        <ele>9.6</ele>
        <time>2024-12-26T08:51:33.045Z</time>
      </trkpt>
      <trkpt lat="46.72914" lon="-1.98475">
        <ele>9.6</ele>
        <time>2024-12-26T08:51:34.046Z</time>
      </trkpt>
      <trkpt lat="46.72913" lon="-1.98474">
        <ele>9.5</ele>
        <time>2024-12-26T08:51:35.046Z</time>
      </trkpt>
      <trkpt lat="46.72912" lon="-1.98473">
        <ele>9.4</ele>
        <time>2024-12-26T08:51:36.046Z</time>
      </trkpt>
      <trkpt lat="46.72911" lon="-1.98471">
        <ele>9.4</ele>
        <time>2024-12-26T08:51:37.046Z</time>
      </trkpt>
      <trkpt lat="46.7291" lon="-1.98468">
        <ele>9.5</ele>
        <time>2024-12-26T08:51:38.046Z</time>
      </trkpt>
      <trkpt lat="46.72909" lon="-1.98466">
        <ele>9.5</ele>
        <time>2024-12-26T08:51:39.045Z</time>
      </trkpt>
      <trkpt lat="46.72908" lon="-1.98466">
        <ele>9.4</ele>
        <time>2024-12-26T08:51:40.045Z</time>
      </trkpt>
      <trkpt lat="46.72908" lon="-1.98464">
        <ele>9.5</ele>
        <time>2024-12-26T08:51:41.046Z</time>
      </trkpt>
      <trkpt lat="46.72907" lon="-1.98463">
        <ele>9.4</ele>
        <time>2024-12-26T08:51:42.046Z</time>
      </trkpt>
      <trkpt lat="46.72906" lon="-1.98461">
        <ele>9.4</ele>
        <time>2024-12-26T08:51:43.046Z</time>
      </trkpt>
      <trkpt lat="46.72905" lon="-1.98459">
        <ele>9.3</ele>
        <time>2024-12-26T08:51:44.046Z</time>
      </trkpt>
      <trkpt lat="46.72904" lon="-1.98457">
        <ele>9.2</ele>
        <time>2024-12-26T08:51:45.045Z</time>
      </trkpt>
      <trkpt lat="46.72904" lon="-1.98456">
        <ele>9.3</ele>
        <time>2024-12-26T08:51:46.045Z</time>
      </trkpt>
      <trkpt lat="46.72904" lon="-1.98455">
        <ele>9.3</ele>
        <time>2024-12-26T08:51:47.045Z</time>
      </trkpt>
      <trkpt lat="46.72904" lon="-1.98453">
        <ele>9.3</ele>
        <time>2024-12-26T08:51:48.045Z</time>
      </trkpt>
      <trkpt lat="46.72903" lon="-1.98452">
        <ele>9.3</ele>
        <time>2024-12-26T08:51:49.045Z</time>
      </trkpt>
      <trkpt lat="46.72902" lon="-1.9845">
        <ele>9.2</ele>
        <time>2024-12-26T08:51:50.045Z</time>
      </trkpt>
      <trkpt lat="46.72902" lon="-1.98449">
        <ele>9.2</ele>
        <time>2024-12-26T08:51:51.045Z</time>
      </trkpt>
      <trkpt lat="46.72902" lon="-1.98447">
        <ele>9.2</ele>
        <time>2024-12-26T08:51:52.045Z</time>
      </trkpt>
      <trkpt lat="46.72902" lon="-1.98446">
        <ele>9.2</ele>
        <time>2024-12-26T08:51:53.045Z</time>
      </trkpt>
      <trkpt lat="46.72901" lon="-1.98444">
        <ele>9.2</ele>
        <time>2024-12-26T08:51:54.046Z</time>
      </trkpt>
      <trkpt lat="46.72901" lon="-1.98443">
        <ele>9</ele>
        <time>2024-12-26T08:51:55.046Z</time>
      </trkpt>
      <trkpt lat="46.72901" lon="-1.98441">
        <ele>8.9</ele>
        <time>2024-12-26T08:51:56.045Z</time>
      </trkpt>
      <trkpt lat="46.729" lon="-1.98439">
        <ele>8.7</ele>
        <time>2024-12-26T08:51:57.045Z</time>
      </trkpt>
      <trkpt lat="46.72899" lon="-1.98438">
        <ele>8.5</ele>
        <time>2024-12-26T08:51:58.045Z</time>
      </trkpt>
      <trkpt lat="46.72899" lon="-1.98437">
        <ele>8.4</ele>
        <time>2024-12-26T08:51:59.045Z</time>
      </trkpt>
      <trkpt lat="46.72899" lon="-1.98437">
        <ele>8.4</ele>
        <time>2024-12-26T08:52:00.046Z</time>
      </trkpt>
      <trkpt lat="46.72899" lon="-1.98437">
        <ele>8.3</ele>
        <time>2024-12-26T08:52:01.046Z</time>
      </trkpt>
      <trkpt lat="46.72898" lon="-1.98436">
        <ele>8.2</ele>
        <time>2024-12-26T08:52:02.046Z</time>
      </trkpt>
      <trkpt lat="46.72898" lon="-1.98436">
        <ele>8.1</ele>
        <time>2024-12-26T08:52:03.046Z</time>
      </trkpt>
      <trkpt lat="46.72898" lon="-1.98435">
        <ele>8.1</ele>
        <time>2024-12-26T08:52:04.046Z</time>
      </trkpt>
      <trkpt lat="46.72898" lon="-1.98435">
        <ele>8</ele>
        <time>2024-12-26T08:52:05.045Z</time>
      </trkpt>
      <trkpt lat="46.72898" lon="-1.98435">
        <ele>8</ele>
        <time>2024-12-26T08:52:06.045Z</time>
      </trkpt>
      <trkpt lat="46.72896" lon="-1.98435">
        <ele>7.8</ele>
        <time>2024-12-26T08:52:07.045Z</time>
      </trkpt>
      <trkpt lat="46.72896" lon="-1.98434">
        <ele>7.6</ele>
        <time>2024-12-26T08:52:08.045Z</time>
      </trkpt>
      <trkpt lat="46.72896" lon="-1.98434">
        <ele>7.7</ele>
        <time>2024-12-26T08:52:09.045Z</time>
      </trkpt>
      <trkpt lat="46.72896" lon="-1.98433">
        <ele>7.6</ele>
        <time>2024-12-26T08:52:10.045Z</time>
      </trkpt>
      <trkpt lat="46.72896" lon="-1.98433">
        <ele>7.6</ele>
        <time>2024-12-26T08:52:11.045Z</time>
      </trkpt>
      <trkpt lat="46.72895" lon="-1.98433">
        <ele>7.6</ele>
        <time>2024-12-26T08:52:12.045Z</time>
      </trkpt>
      <trkpt lat="46.72895" lon="-1.98433">
        <ele>7.6</ele>
        <time>2024-12-26T08:52:13.046Z</time>
      </trkpt>
      <trkpt lat="46.72895" lon="-1.98433">
        <ele>7.6</ele>
        <time>2024-12-26T08:52:14.045Z</time>
      </trkpt>
      <trkpt lat="46.72895" lon="-1.98433">
        <ele>7.5</ele>
        <time>2024-12-26T08:52:15.046Z</time>
      </trkpt>
      <trkpt lat="46.72895" lon="-1.98433">
        <ele>7.5</ele>
        <time>2024-12-26T08:52:16.045Z</time>
      </trkpt>
      <trkpt lat="46.72895" lon="-1.98433">
        <ele>7.4</ele>
        <time>2024-12-26T08:52:17.046Z</time>
      </trkpt>
      <trkpt lat="46.72895" lon="-1.98433">
        <ele>7.4</ele>
        <time>2024-12-26T08:52:18.046Z</time>
      </trkpt>
      <trkpt lat="46.72895" lon="-1.98433">
        <ele>7.4</ele>
        <time>2024-12-26T08:52:19.045Z</time>
      </trkpt>
      <trkpt lat="46.72895" lon="-1.98433">
        <ele>7.4</ele>
        <time>2024-12-26T08:52:20.046Z</time>
      </trkpt>
      <trkpt lat="46.72895" lon="-1.98432">
        <ele>7.4</ele>
        <time>2024-12-26T08:52:21.045Z</time>
      </trkpt>
      <trkpt lat="46.72894" lon="-1.98432">
        <ele>7.4</ele>
        <time>2024-12-26T08:52:22.045Z</time>
      </trkpt>
      <trkpt lat="46.72894" lon="-1.98432">
        <ele>7.3</ele>
        <time>2024-12-26T08:52:23.045Z</time>
      </trkpt>
      <trkpt lat="46.72894" lon="-1.98432">
        <ele>7.3</ele>
        <time>2024-12-26T08:52:24.046Z</time>
      </trkpt>
      <trkpt lat="46.72894" lon="-1.98432">
        <ele>7.2</ele>
        <time>2024-12-26T08:52:25.045Z</time>
      </trkpt>
      <trkpt lat="46.72893" lon="-1.98432">
        <ele>7.2</ele>
        <time>2024-12-26T08:52:26.046Z</time>
      </trkpt>
      <trkpt lat="46.72893" lon="-1.98432">
        <ele>7.2</ele>
        <time>2024-12-26T08:52:27.045Z</time>
      </trkpt>
      <trkpt lat="46.72893" lon="-1.98432">
        <ele>7.2</ele>
        <time>2024-12-26T08:52:28.045Z</time>
      </trkpt>
      <trkpt lat="46.72893" lon="-1.98432">
        <ele>7.2</ele>
        <time>2024-12-26T08:52:29.045Z</time>
      </trkpt>
      <trkpt lat="46.72893" lon="-1.98432">
        <ele>7.2</ele>
        <time>2024-12-26T08:52:30.046Z</time>
      </trkpt>
      <trkpt lat="46.72893" lon="-1.98432">
        <ele>7.2</ele>
        <time>2024-12-26T08:52:31.046Z</time>
      </trkpt>
      <trkpt lat="46.72893" lon="-1.98432">
        <ele>7.2</ele>
        <time>2024-12-26T08:52:32.046Z</time>
      </trkpt>
      <trkpt lat="46.72893" lon="-1.98432">
        <ele>7.2</ele>
        <time>2024-12-26T08:52:33.046Z</time>
      </trkpt>
      <trkpt lat="46.72893" lon="-1.98432">
        <ele>7.2</ele>
        <time>2024-12-26T08:52:34.045Z</time>
      </trkpt>
      <trkpt lat="46.72893" lon="-1.98432">
        <ele>7.2</ele>
        <time>2024-12-26T08:52:35.046Z</time>
      </trkpt>
      <trkpt lat="46.72893" lon="-1.98432">
        <ele>7.2</ele>
        <time>2024-12-26T08:52:36.045Z</time>
      </trkpt>
      <trkpt lat="46.72893" lon="-1.98432">
        <ele>7.2</ele>
        <time>2024-12-26T08:52:37.045Z</time>
      </trkpt>
      <trkpt lat="46.72893" lon="-1.98432">
        <ele>7.2</ele>
        <time>2024-12-26T08:52:38.046Z</time>
      </trkpt>
      <trkpt lat="46.72893" lon="-1.98432">
        <ele>7.2</ele>
        <time>2024-12-26T08:52:39.046Z</time>
      </trkpt>
      <trkpt lat="46.72893" lon="-1.98432">
        <ele>7.2</ele>
        <time>2024-12-26T08:52:40.045Z</time>
      </trkpt>
      <trkpt lat="46.72893" lon="-1.98432">
        <ele>7.2</ele>
        <time>2024-12-26T08:52:41.046Z</time>
      </trkpt>
      <trkpt lat="46.72893" lon="-1.98432">
        <ele>7.2</ele>
        <time>2024-12-26T08:52:42.045Z</time>
      </trkpt>
      <trkpt lat="46.72894" lon="-1.98432">
        <ele>7.2</ele>
        <time>2024-12-26T08:52:43.046Z</time>
      </trkpt>
      <trkpt lat="46.72894" lon="-1.98432">
        <ele>7.2</ele>
        <time>2024-12-26T08:52:44.046Z</time>
      </trkpt>
      <trkpt lat="46.72894" lon="-1.98432">
        <ele>7.3</ele>
        <time>2024-12-26T08:52:45.046Z</time>
      </trkpt>
      <trkpt lat="46.72894" lon="-1.98432">
        <ele>7.3</ele>
        <time>2024-12-26T08:52:46.046Z</time>
      </trkpt>
      <trkpt lat="46.72894" lon="-1.98432">
        <ele>7.3</ele>
        <time>2024-12-26T08:52:47.046Z</time>
      </trkpt>
      <trkpt lat="46.72894" lon="-1.98432">
        <ele>7.3</ele>
        <time>2024-12-26T08:52:48.046Z</time>
      </trkpt>
      <trkpt lat="46.72894" lon="-1.98431">
        <ele>7.2</ele>
        <time>2024-12-26T08:52:49.046Z</time>
      </trkpt>
      <trkpt lat="46.72894" lon="-1.98431">
        <ele>7.2</ele>
        <time>2024-12-26T08:52:50.045Z</time>
      </trkpt>
      <trkpt lat="46.72894" lon="-1.98431">
        <ele>7.2</ele>
        <time>2024-12-26T08:52:51.046Z</time>
      </trkpt>
      <trkpt lat="46.72893" lon="-1.9843">
        <ele>7.1</ele>
        <time>2024-12-26T08:52:52.045Z</time>
      </trkpt>
      <trkpt lat="46.72893" lon="-1.9843">
        <ele>7.1</ele>
        <time>2024-12-26T08:52:53.045Z</time>
      </trkpt>
      <trkpt lat="46.72893" lon="-1.98429">
        <ele>7.1</ele>
        <time>2024-12-26T08:52:54.046Z</time>
      </trkpt>
      <trkpt lat="46.72893" lon="-1.98429">
        <ele>7.1</ele>
        <time>2024-12-26T08:52:55.045Z</time>
      </trkpt>
      <trkpt lat="46.72893" lon="-1.98429">
        <ele>7</ele>
        <time>2024-12-26T08:52:56.046Z</time>
      </trkpt>
      <trkpt lat="46.72893" lon="-1.98429">
        <ele>6.9</ele>
        <time>2024-12-26T08:52:57.045Z</time>
      </trkpt>
      <trkpt lat="46.72892" lon="-1.98428">
        <ele>6.8</ele>
        <time>2024-12-26T08:52:58.046Z</time>
      </trkpt>
      <trkpt lat="46.72892" lon="-1.98427">
        <ele>6.8</ele>
        <time>2024-12-26T08:52:59.045Z</time>
      </trkpt>
      <trkpt lat="46.72892" lon="-1.98426">
        <ele>6.7</ele>
        <time>2024-12-26T08:53:00.046Z</time>
      </trkpt>
      <trkpt lat="46.72891" lon="-1.98424">
        <ele>6.5</ele>
        <time>2024-12-26T08:53:01.046Z</time>
      </trkpt>
      <trkpt lat="46.72891" lon="-1.98422">
        <ele>6.4</ele>
        <time>2024-12-26T08:53:02.046Z</time>
      </trkpt>
      <trkpt lat="46.72891" lon="-1.98419">
        <ele>6.3</ele>
        <time>2024-12-26T08:53:03.045Z</time>
      </trkpt>
      <trkpt lat="46.7289" lon="-1.98417">
        <ele>6.1</ele>
        <time>2024-12-26T08:53:04.045Z</time>
      </trkpt>
      <trkpt lat="46.72889" lon="-1.98417">
        <ele>6</ele>
        <time>2024-12-26T08:53:05.045Z</time>
      </trkpt>
      <trkpt lat="46.72889" lon="-1.98416">
        <ele>6</ele>
        <time>2024-12-26T08:53:06.046Z</time>
      </trkpt>
      <trkpt lat="46.72888" lon="-1.98415">
        <ele>6.1</ele>
        <time>2024-12-26T08:53:07.046Z</time>
      </trkpt>
      <trkpt lat="46.72887" lon="-1.98415">
        <ele>6.1</ele>
        <time>2024-12-26T08:53:08.045Z</time>
      </trkpt>
      <trkpt lat="46.72887" lon="-1.98414">
        <ele>6.1</ele>
        <time>2024-12-26T08:53:09.045Z</time>
      </trkpt>
      <trkpt lat="46.72886" lon="-1.98412">
        <ele>6.2</ele>
        <time>2024-12-26T08:53:10.045Z</time>
      </trkpt>
      <trkpt lat="46.72885" lon="-1.98411">
        <ele>6.2</ele>
        <time>2024-12-26T08:53:11.045Z</time>
      </trkpt>
      <trkpt lat="46.72885" lon="-1.98409">
        <ele>6.2</ele>
        <time>2024-12-26T08:53:12.046Z</time>
      </trkpt>
      <trkpt lat="46.72885" lon="-1.98408">
        <ele>6.2</ele>
        <time>2024-12-26T08:53:13.045Z</time>
      </trkpt>
      <trkpt lat="46.72885" lon="-1.98406">
        <ele>6.2</ele>
        <time>2024-12-26T08:53:14.045Z</time>
      </trkpt>
      <trkpt lat="46.72885" lon="-1.98404">
        <ele>6.2</ele>
        <time>2024-12-26T08:53:15.045Z</time>
      </trkpt>
      <trkpt lat="46.72883" lon="-1.98403">
        <ele>6.2</ele>
        <time>2024-12-26T08:53:16.045Z</time>
      </trkpt>
      <trkpt lat="46.72883" lon="-1.98403">
        <ele>6.2</ele>
        <time>2024-12-26T08:53:17.046Z</time>
      </trkpt>
      <trkpt lat="46.72882" lon="-1.98402">
        <ele>6.2</ele>
        <time>2024-12-26T08:53:18.046Z</time>
      </trkpt>
      <trkpt lat="46.72881" lon="-1.98401">
        <ele>6.2</ele>
        <time>2024-12-26T08:53:19.045Z</time>
      </trkpt>
      <trkpt lat="46.7288" lon="-1.984">
        <ele>6.2</ele>
        <time>2024-12-26T08:53:20.045Z</time>
      </trkpt>
      <trkpt lat="46.7288" lon="-1.98398">
        <ele>6.2</ele>
        <time>2024-12-26T08:53:21.046Z</time>
      </trkpt>
      <trkpt lat="46.7288" lon="-1.98397">
        <ele>6.2</ele>
        <time>2024-12-26T08:53:22.046Z</time>
      </trkpt>
      <trkpt lat="46.72879" lon="-1.98395">
        <ele>6.2</ele>
        <time>2024-12-26T08:53:23.045Z</time>
      </trkpt>
      <trkpt lat="46.72879" lon="-1.98393">
        <ele>6.1</ele>
        <time>2024-12-26T08:53:24.045Z</time>
      </trkpt>
      <trkpt lat="46.72878" lon="-1.98392">
        <ele>6.1</ele>
        <time>2024-12-26T08:53:25.046Z</time>
      </trkpt>
      <trkpt lat="46.72876" lon="-1.98389">
        <ele>6</ele>
        <time>2024-12-26T08:53:26.045Z</time>
      </trkpt>
      <trkpt lat="46.72875" lon="-1.98387">
        <ele>5.9</ele>
        <time>2024-12-26T08:53:27.046Z</time>
      </trkpt>
      <trkpt lat="46.72874" lon="-1.98385">
        <ele>5.9</ele>
        <time>2024-12-26T08:53:28.045Z</time>
      </trkpt>
      <trkpt lat="46.72873" lon="-1.98384">
        <ele>5.8</ele>
        <time>2024-12-26T08:53:29.046Z</time>
      </trkpt>
      <trkpt lat="46.72872" lon="-1.98383">
        <ele>5.8</ele>
        <time>2024-12-26T08:53:30.045Z</time>
      </trkpt>
      <trkpt lat="46.72872" lon="-1.98382">
        <ele>5.7</ele>
        <time>2024-12-26T08:53:31.045Z</time>
      </trkpt>
      <trkpt lat="46.72871" lon="-1.9838">
        <ele>5.7</ele>
        <time>2024-12-26T08:53:32.046Z</time>
      </trkpt>
      <trkpt lat="46.72871" lon="-1.9838">
        <ele>5.7</ele>
        <time>2024-12-26T08:53:33.046Z</time>
      </trkpt>
      <trkpt lat="46.7287" lon="-1.98379">
        <ele>5.6</ele>
        <time>2024-12-26T08:53:34.046Z</time>
      </trkpt>
      <trkpt lat="46.72869" lon="-1.98378">
        <ele>5.6</ele>
        <time>2024-12-26T08:53:35.046Z</time>
      </trkpt>
      <trkpt lat="46.72868" lon="-1.98377">
        <ele>5.6</ele>
        <time>2024-12-26T08:53:36.045Z</time>
      </trkpt>
      <trkpt lat="46.72866" lon="-1.98376">
        <ele>5.5</ele>
        <time>2024-12-26T08:53:37.046Z</time>
      </trkpt>
      <trkpt lat="46.72863" lon="-1.98375">
        <ele>5.5</ele>
        <time>2024-12-26T08:53:38.045Z</time>
      </trkpt>
      <trkpt lat="46.72862" lon="-1.98374">
        <ele>5.5</ele>
        <time>2024-12-26T08:53:39.045Z</time>
      </trkpt>
      <trkpt lat="46.7286" lon="-1.98374">
        <ele>5.5</ele>
        <time>2024-12-26T08:53:40.046Z</time>
      </trkpt>
      <trkpt lat="46.72859" lon="-1.98373">
        <ele>5.4</ele>
        <time>2024-12-26T08:53:41.046Z</time>
      </trkpt>
      <trkpt lat="46.72857" lon="-1.98373">
        <ele>5.4</ele>
        <time>2024-12-26T08:53:42.046Z</time>
      </trkpt>
      <trkpt lat="46.72856" lon="-1.98373">
        <ele>5.4</ele>
        <time>2024-12-26T08:53:43.045Z</time>
      </trkpt>
      <trkpt lat="46.72855" lon="-1.98373">
        <ele>5.4</ele>
        <time>2024-12-26T08:53:44.045Z</time>
      </trkpt>
      <trkpt lat="46.72854" lon="-1.98372">
        <ele>5.4</ele>
        <time>2024-12-26T08:53:45.045Z</time>
      </trkpt>
      <trkpt lat="46.72853" lon="-1.9837">
        <ele>5.3</ele>
        <time>2024-12-26T08:53:46.046Z</time>
      </trkpt>
      <trkpt lat="46.72853" lon="-1.98368">
        <ele>5.2</ele>
        <time>2024-12-26T08:53:47.046Z</time>
      </trkpt>
      <trkpt lat="46.72852" lon="-1.98366">
        <ele>5.2</ele>
        <time>2024-12-26T08:53:48.045Z</time>
      </trkpt>
      <trkpt lat="46.72852" lon="-1.98365">
        <ele>5.1</ele>
        <time>2024-12-26T08:53:49.045Z</time>
      </trkpt>
      <trkpt lat="46.72851" lon="-1.98364">
        <ele>5.1</ele>
        <time>2024-12-26T08:53:50.046Z</time>
      </trkpt>
      <trkpt lat="46.7285" lon="-1.98364">
        <ele>5.1</ele>
        <time>2024-12-26T08:53:51.045Z</time>
      </trkpt>
      <trkpt lat="46.72848" lon="-1.98363">
        <ele>5.1</ele>
        <time>2024-12-26T08:53:52.046Z</time>
      </trkpt>
      <trkpt lat="46.72846" lon="-1.98363">
        <ele>5.1</ele>
        <time>2024-12-26T08:53:53.045Z</time>
      </trkpt>
      <trkpt lat="46.72843" lon="-1.98362">
        <ele>5</ele>
        <time>2024-12-26T08:53:54.045Z</time>
      </trkpt>
      <trkpt lat="46.72841" lon="-1.98362">
        <ele>5</ele>
        <time>2024-12-26T08:53:55.046Z</time>
      </trkpt>
      <trkpt lat="46.7284" lon="-1.98361">
        <ele>5</ele>
        <time>2024-12-26T08:53:56.046Z</time>
      </trkpt>
      <trkpt lat="46.72839" lon="-1.98361">
        <ele>5</ele>
        <time>2024-12-26T08:53:57.045Z</time>
      </trkpt>
      <trkpt lat="46.72837" lon="-1.9836">
        <ele>5</ele>
        <time>2024-12-26T08:53:58.045Z</time>
      </trkpt>
      <trkpt lat="46.72835" lon="-1.98359">
        <ele>4.9</ele>
        <time>2024-12-26T08:53:59.046Z</time>
      </trkpt>
      <trkpt lat="46.72833" lon="-1.98358">
        <ele>4.9</ele>
        <time>2024-12-26T08:54:00.045Z</time>
      </trkpt>
      <trkpt lat="46.72832" lon="-1.98358">
        <ele>4.9</ele>
        <time>2024-12-26T08:54:01.046Z</time>
      </trkpt>
      <trkpt lat="46.72831" lon="-1.98359">
        <ele>4.8</ele>
        <time>2024-12-26T08:54:02.046Z</time>
      </trkpt>
      <trkpt lat="46.72829" lon="-1.98359">
        <ele>4.8</ele>
        <time>2024-12-26T08:54:03.046Z</time>
      </trkpt>
      <trkpt lat="46.72828" lon="-1.98359">
        <ele>4.8</ele>
        <time>2024-12-26T08:54:04.046Z</time>
      </trkpt>
      <trkpt lat="46.72827" lon="-1.98359">
        <ele>4.7</ele>
        <time>2024-12-26T08:54:05.045Z</time>
      </trkpt>
      <trkpt lat="46.72825" lon="-1.98359">
        <ele>4.6</ele>
        <time>2024-12-26T08:54:06.045Z</time>
      </trkpt>
      <trkpt lat="46.72824" lon="-1.98358">
        <ele>4.6</ele>
        <time>2024-12-26T08:54:07.045Z</time>
      </trkpt>
      <trkpt lat="46.72823" lon="-1.98358">
        <ele>4.5</ele>
        <time>2024-12-26T08:54:08.046Z</time>
      </trkpt>
      <trkpt lat="46.72821" lon="-1.98359">
        <ele>4.5</ele>
        <time>2024-12-26T08:54:09.045Z</time>
      </trkpt>
      <trkpt lat="46.7282" lon="-1.98358">
        <ele>4.4</ele>
        <time>2024-12-26T08:54:10.046Z</time>
      </trkpt>
      <trkpt lat="46.72818" lon="-1.98358">
        <ele>4.4</ele>
        <time>2024-12-26T08:54:11.045Z</time>
      </trkpt>
      <trkpt lat="46.72816" lon="-1.98358">
        <ele>4.3</ele>
        <time>2024-12-26T08:54:12.045Z</time>
      </trkpt>
      <trkpt lat="46.72814" lon="-1.98358">
        <ele>4.3</ele>
        <time>2024-12-26T08:54:13.046Z</time>
      </trkpt>
      <trkpt lat="46.72813" lon="-1.98358">
        <ele>4.2</ele>
        <time>2024-12-26T08:54:14.045Z</time>
      </trkpt>
      <trkpt lat="46.72813" lon="-1.98358">
        <ele>4.2</ele>
        <time>2024-12-26T08:54:15.046Z</time>
      </trkpt>
      <trkpt lat="46.72813" lon="-1.98358">
        <ele>4.2</ele>
        <time>2024-12-26T08:54:16.045Z</time>
      </trkpt>
      <trkpt lat="46.72813" lon="-1.98358">
        <ele>4.2</ele>
        <time>2024-12-26T08:54:17.046Z</time>
      </trkpt>
      <trkpt lat="46.72813" lon="-1.98359">
        <ele>4.2</ele>
        <time>2024-12-26T08:54:18.045Z</time>
      </trkpt>
      <trkpt lat="46.72811" lon="-1.98361">
        <ele>4.2</ele>
        <time>2024-12-26T08:54:19.045Z</time>
      </trkpt>
      <trkpt lat="46.72809" lon="-1.98362">
        <ele>4.1</ele>
        <time>2024-12-26T08:54:20.046Z</time>
      </trkpt>
      <trkpt lat="46.72807" lon="-1.98363">
        <ele>4</ele>
        <time>2024-12-26T08:54:21.045Z</time>
      </trkpt>
      <trkpt lat="46.72805" lon="-1.98363">
        <ele>4</ele>
        <time>2024-12-26T08:54:22.046Z</time>
      </trkpt>
      <trkpt lat="46.72803" lon="-1.98363">
        <ele>4</ele>
        <time>2024-12-26T08:54:23.045Z</time>
      </trkpt>
      <trkpt lat="46.72801" lon="-1.98364">
        <ele>4</ele>
        <time>2024-12-26T08:54:24.045Z</time>
      </trkpt>
      <trkpt lat="46.728" lon="-1.98365">
        <ele>4</ele>
        <time>2024-12-26T08:54:25.046Z</time>
      </trkpt>
      <trkpt lat="46.72799" lon="-1.98366">
        <ele>4</ele>
        <time>2024-12-26T08:54:26.045Z</time>
      </trkpt>
      <trkpt lat="46.72799" lon="-1.98368">
        <ele>4</ele>
        <time>2024-12-26T08:54:27.045Z</time>
      </trkpt>
      <trkpt lat="46.72799" lon="-1.9837">
        <ele>4</ele>
        <time>2024-12-26T08:54:28.045Z</time>
      </trkpt>
      <trkpt lat="46.72797" lon="-1.9837">
        <ele>4</ele>
        <time>2024-12-26T08:54:29.046Z</time>
      </trkpt>
      <trkpt lat="46.72795" lon="-1.98371">
        <ele>4</ele>
        <time>2024-12-26T08:54:30.045Z</time>
      </trkpt>
      <trkpt lat="46.72794" lon="-1.98371">
        <ele>4</ele>
        <time>2024-12-26T08:54:31.045Z</time>
      </trkpt>
      <trkpt lat="46.72792" lon="-1.98371">
        <ele>4</ele>
        <time>2024-12-26T08:54:32.045Z</time>
      </trkpt>
      <trkpt lat="46.7279" lon="-1.98372">
        <ele>4</ele>
        <time>2024-12-26T08:54:33.046Z</time>
      </trkpt>
      <trkpt lat="46.72789" lon="-1.98373">
        <ele>4</ele>
        <time>2024-12-26T08:54:34.046Z</time>
      </trkpt>
      <trkpt lat="46.72788" lon="-1.98375">
        <ele>4</ele>
        <time>2024-12-26T08:54:35.046Z</time>
      </trkpt>
      <trkpt lat="46.72787" lon="-1.98375">
        <ele>4</ele>
        <time>2024-12-26T08:54:36.045Z</time>
      </trkpt>
      <trkpt lat="46.72785" lon="-1.98375">
        <ele>4</ele>
        <time>2024-12-26T08:54:37.046Z</time>
      </trkpt>
      <trkpt lat="46.72783" lon="-1.98376">
        <ele>4</ele>
        <time>2024-12-26T08:54:38.045Z</time>
      </trkpt>
      <trkpt lat="46.72781" lon="-1.98377">
        <ele>4</ele>
        <time>2024-12-26T08:54:39.045Z</time>
      </trkpt>
      <trkpt lat="46.72779" lon="-1.98378">
        <ele>4</ele>
        <time>2024-12-26T08:54:40.045Z</time>
      </trkpt>
      <trkpt lat="46.72778" lon="-1.98378">
        <ele>4</ele>
        <time>2024-12-26T08:54:41.045Z</time>
      </trkpt>
      <trkpt lat="46.72775" lon="-1.98378">
        <ele>4</ele>
        <time>2024-12-26T08:54:42.046Z</time>
      </trkpt>
      <trkpt lat="46.72773" lon="-1.98378">
        <ele>4</ele>
        <time>2024-12-26T08:54:43.046Z</time>
      </trkpt>
      <trkpt lat="46.72772" lon="-1.98378">
        <ele>4</ele>
        <time>2024-12-26T08:54:44.045Z</time>
      </trkpt>
      <trkpt lat="46.7277" lon="-1.98378">
        <ele>4</ele>
        <time>2024-12-26T08:54:45.045Z</time>
      </trkpt>
      <trkpt lat="46.72769" lon="-1.98377">
        <ele>4</ele>
        <time>2024-12-26T08:54:46.046Z</time>
      </trkpt>
      <trkpt lat="46.72768" lon="-1.98377">
        <ele>4</ele>
        <time>2024-12-26T08:54:47.046Z</time>
      </trkpt>
      <trkpt lat="46.72767" lon="-1.98378">
        <ele>4</ele>
        <time>2024-12-26T08:54:48.045Z</time>
      </trkpt>
      <trkpt lat="46.72766" lon="-1.98378">
        <ele>4</ele>
        <time>2024-12-26T08:54:49.046Z</time>
      </trkpt>
      <trkpt lat="46.72765" lon="-1.98378">
        <ele>4</ele>
        <time>2024-12-26T08:54:50.045Z</time>
      </trkpt>
      <trkpt lat="46.72764" lon="-1.98378">
        <ele>4</ele>
        <time>2024-12-26T08:54:51.045Z</time>
      </trkpt>
      <trkpt lat="46.72763" lon="-1.98377">
        <ele>4</ele>
        <time>2024-12-26T08:54:52.045Z</time>
      </trkpt>
      <trkpt lat="46.72762" lon="-1.98377">
        <ele>4</ele>
        <time>2024-12-26T08:54:53.045Z</time>
      </trkpt>
      <trkpt lat="46.72761" lon="-1.98377">
        <ele>4</ele>
        <time>2024-12-26T08:54:54.045Z</time>
      </trkpt>
      <trkpt lat="46.72759" lon="-1.98377">
        <ele>4</ele>
        <time>2024-12-26T08:54:55.045Z</time>
      </trkpt>
      <trkpt lat="46.72759" lon="-1.98378">
        <ele>4</ele>
        <time>2024-12-26T08:54:56.046Z</time>
      </trkpt>
      <trkpt lat="46.72758" lon="-1.98378">
        <ele>4</ele>
        <time>2024-12-26T08:54:57.046Z</time>
      </trkpt>
      <trkpt lat="46.72756" lon="-1.98379">
        <ele>4</ele>
        <time>2024-12-26T08:54:58.046Z</time>
      </trkpt>
      <trkpt lat="46.72755" lon="-1.9838">
        <ele>4</ele>
        <time>2024-12-26T08:54:59.046Z</time>
      </trkpt>
      <trkpt lat="46.72754" lon="-1.98381">
        <ele>4</ele>
        <time>2024-12-26T08:55:00.046Z</time>
      </trkpt>
      <trkpt lat="46.72753" lon="-1.98382">
        <ele>4</ele>
        <time>2024-12-26T08:55:01.046Z</time>
      </trkpt>
      <trkpt lat="46.72751" lon="-1.98382">
        <ele>4</ele>
        <time>2024-12-26T08:55:02.046Z</time>
      </trkpt>
      <trkpt lat="46.7275" lon="-1.98384">
        <ele>4</ele>
        <time>2024-12-26T08:55:03.045Z</time>
      </trkpt>
      <trkpt lat="46.72749" lon="-1.98385">
        <ele>4</ele>
        <time>2024-12-26T08:55:04.046Z</time>
      </trkpt>
      <trkpt lat="46.72748" lon="-1.98386">
        <ele>4</ele>
        <time>2024-12-26T08:55:05.046Z</time>
      </trkpt>
      <trkpt lat="46.72747" lon="-1.98388">
        <ele>4</ele>
        <time>2024-12-26T08:55:06.045Z</time>
      </trkpt>
      <trkpt lat="46.72746" lon="-1.98389">
        <ele>4</ele>
        <time>2024-12-26T08:55:07.045Z</time>
      </trkpt>
      <trkpt lat="46.72745" lon="-1.98389">
        <ele>4</ele>
        <time>2024-12-26T08:55:08.045Z</time>
      </trkpt>
      <trkpt lat="46.72744" lon="-1.9839">
        <ele>4</ele>
        <time>2024-12-26T08:55:09.045Z</time>
      </trkpt>
      <trkpt lat="46.72742" lon="-1.9839">
        <ele>4</ele>
        <time>2024-12-26T08:55:10.046Z</time>
      </trkpt>
      <trkpt lat="46.7274" lon="-1.98391">
        <ele>4</ele>
        <time>2024-12-26T08:55:11.046Z</time>
      </trkpt>
      <trkpt lat="46.72739" lon="-1.98392">
        <ele>4</ele>
        <time>2024-12-26T08:55:12.046Z</time>
      </trkpt>
      <trkpt lat="46.72738" lon="-1.98394">
        <ele>4</ele>
        <time>2024-12-26T08:55:13.046Z</time>
      </trkpt>
      <trkpt lat="46.72738" lon="-1.98395">
        <ele>4</ele>
        <time>2024-12-26T08:55:14.045Z</time>
      </trkpt>
      <trkpt lat="46.72737" lon="-1.98397">
        <ele>4</ele>
        <time>2024-12-26T08:55:15.045Z</time>
      </trkpt>
      <trkpt lat="46.72737" lon="-1.98398">
        <ele>4</ele>
        <time>2024-12-26T08:55:16.045Z</time>
      </trkpt>
      <trkpt lat="46.72736" lon="-1.98399">
        <ele>4</ele>
        <time>2024-12-26T08:55:17.045Z</time>
      </trkpt>
      <trkpt lat="46.72736" lon="-1.98399">
        <ele>4</ele>
        <time>2024-12-26T08:55:18.045Z</time>
      </trkpt>
      <trkpt lat="46.72735" lon="-1.984">
        <ele>4</ele>
        <time>2024-12-26T08:55:19.046Z</time>
      </trkpt>
      <trkpt lat="46.72734" lon="-1.98402">
        <ele>4</ele>
        <time>2024-12-26T08:55:20.046Z</time>
      </trkpt>
      <trkpt lat="46.72734" lon="-1.98403">
        <ele>4</ele>
        <time>2024-12-26T08:55:21.045Z</time>
      </trkpt>
      <trkpt lat="46.72733" lon="-1.98405">
        <ele>4</ele>
        <time>2024-12-26T08:55:22.046Z</time>
      </trkpt>
      <trkpt lat="46.72732" lon="-1.98407">
        <ele>4</ele>
        <time>2024-12-26T08:55:23.046Z</time>
      </trkpt>
      <trkpt lat="46.72732" lon="-1.98409">
        <ele>4</ele>
        <time>2024-12-26T08:55:24.045Z</time>
      </trkpt>
      <trkpt lat="46.72731" lon="-1.9841">
        <ele>4</ele>
        <time>2024-12-26T08:55:25.045Z</time>
      </trkpt>
      <trkpt lat="46.7273" lon="-1.98412">
        <ele>4</ele>
        <time>2024-12-26T08:55:26.045Z</time>
      </trkpt>
      <trkpt lat="46.72729" lon="-1.98413">
        <ele>4</ele>
        <time>2024-12-26T08:55:27.045Z</time>
      </trkpt>
      <trkpt lat="46.72728" lon="-1.98415">
        <ele>4</ele>
        <time>2024-12-26T08:55:28.046Z</time>
      </trkpt>
      <trkpt lat="46.72728" lon="-1.98416">
        <ele>4</ele>
        <time>2024-12-26T08:55:29.046Z</time>
      </trkpt>
      <trkpt lat="46.72727" lon="-1.98417">
        <ele>4</ele>
        <time>2024-12-26T08:55:30.046Z</time>
      </trkpt>
      <trkpt lat="46.72727" lon="-1.98419">
        <ele>4</ele>
        <time>2024-12-26T08:55:31.046Z</time>
      </trkpt>
      <trkpt lat="46.72727" lon="-1.9842">
        <ele>4</ele>
        <time>2024-12-26T08:55:32.046Z</time>
      </trkpt>
      <trkpt lat="46.72726" lon="-1.98422">
        <ele>4</ele>
        <time>2024-12-26T08:55:33.045Z</time>
      </trkpt>
      <trkpt lat="46.72726" lon="-1.98425">
        <ele>4</ele>
        <time>2024-12-26T08:55:34.045Z</time>
      </trkpt>
      <trkpt lat="46.72725" lon="-1.98427">
        <ele>4</ele>
        <time>2024-12-26T08:55:35.046Z</time>
      </trkpt>
      <trkpt lat="46.72724" lon="-1.9843">
        <ele>4</ele>
        <time>2024-12-26T08:55:36.046Z</time>
      </trkpt>
      <trkpt lat="46.72724" lon="-1.98433">
        <ele>4</ele>
        <time>2024-12-26T08:55:37.046Z</time>
      </trkpt>
      <trkpt lat="46.72723" lon="-1.98434">
        <ele>4</ele>
        <time>2024-12-26T08:55:38.046Z</time>
      </trkpt>
      <trkpt lat="46.72722" lon="-1.98436">
        <ele>4</ele>
        <time>2024-12-26T08:55:39.046Z</time>
      </trkpt>
      <trkpt lat="46.72721" lon="-1.98437">
        <ele>4</ele>
        <time>2024-12-26T08:55:40.045Z</time>
      </trkpt>
      <trkpt lat="46.7272" lon="-1.98438">
        <ele>4</ele>
        <time>2024-12-26T08:55:41.046Z</time>
      </trkpt>
      <trkpt lat="46.7272" lon="-1.98439">
        <ele>4</ele>
        <time>2024-12-26T08:55:42.046Z</time>
      </trkpt>
      <trkpt lat="46.72719" lon="-1.98441">
        <ele>4</ele>
        <time>2024-12-26T08:55:43.046Z</time>
      </trkpt>
      <trkpt lat="46.72718" lon="-1.98442">
        <ele>4</ele>
        <time>2024-12-26T08:55:44.046Z</time>
      </trkpt>
      <trkpt lat="46.72717" lon="-1.98443">
        <ele>4</ele>
        <time>2024-12-26T08:55:45.046Z</time>
      </trkpt>
      <trkpt lat="46.72716" lon="-1.98444">
        <ele>4</ele>
        <time>2024-12-26T08:55:46.045Z</time>
      </trkpt>
      <trkpt lat="46.72715" lon="-1.98445">
        <ele>4</ele>
        <time>2024-12-26T08:55:47.045Z</time>
      </trkpt>
      <trkpt lat="46.72714" lon="-1.98447">
        <ele>4</ele>
        <time>2024-12-26T08:55:48.045Z</time>
      </trkpt>
      <trkpt lat="46.72713" lon="-1.9845">
        <ele>4</ele>
        <time>2024-12-26T08:55:49.045Z</time>
      </trkpt>
      <trkpt lat="46.72712" lon="-1.98451">
        <ele>4</ele>
        <time>2024-12-26T08:55:50.045Z</time>
      </trkpt>
      <trkpt lat="46.7271" lon="-1.98452">
        <ele>4</ele>
        <time>2024-12-26T08:55:51.046Z</time>
      </trkpt>
      <trkpt lat="46.7271" lon="-1.98453">
        <ele>4</ele>
        <time>2024-12-26T08:55:52.046Z</time>
      </trkpt>
      <trkpt lat="46.7271" lon="-1.98455">
        <ele>4</ele>
        <time>2024-12-26T08:55:53.046Z</time>
      </trkpt>
      <trkpt lat="46.72709" lon="-1.98457">
        <ele>4</ele>
        <time>2024-12-26T08:55:54.046Z</time>
      </trkpt>
      <trkpt lat="46.72709" lon="-1.98459">
        <ele>4</ele>
        <time>2024-12-26T08:55:55.046Z</time>
      </trkpt>
      <trkpt lat="46.72709" lon="-1.98461">
        <ele>4</ele>
        <time>2024-12-26T08:55:56.046Z</time>
      </trkpt>
      <trkpt lat="46.72708" lon="-1.98464">
        <ele>4</ele>
        <time>2024-12-26T08:55:57.045Z</time>
      </trkpt>
      <trkpt lat="46.72707" lon="-1.98466">
        <ele>4</ele>
        <time>2024-12-26T08:55:58.045Z</time>
      </trkpt>
      <trkpt lat="46.72707" lon="-1.98467">
        <ele>4</ele>
        <time>2024-12-26T08:55:59.045Z</time>
      </trkpt>
      <trkpt lat="46.72706" lon="-1.98467">
        <ele>4</ele>
        <time>2024-12-26T08:56:00.046Z</time>
      </trkpt>
      <trkpt lat="46.72705" lon="-1.98468">
        <ele>4</ele>
        <time>2024-12-26T08:56:01.046Z</time>
      </trkpt>
      <trkpt lat="46.72703" lon="-1.98469">
        <ele>4</ele>
        <time>2024-12-26T08:56:02.046Z</time>
      </trkpt>
      <trkpt lat="46.72702" lon="-1.98472">
        <ele>4</ele>
        <time>2024-12-26T08:56:03.045Z</time>
      </trkpt>
      <trkpt lat="46.72701" lon="-1.98473">
        <ele>4</ele>
        <time>2024-12-26T08:56:04.046Z</time>
      </trkpt>
      <trkpt lat="46.72699" lon="-1.98473">
        <ele>4</ele>
        <time>2024-12-26T08:56:05.045Z</time>
      </trkpt>
      <trkpt lat="46.72698" lon="-1.98473">
        <ele>4</ele>
        <time>2024-12-26T08:56:06.045Z</time>
      </trkpt>
      <trkpt lat="46.72697" lon="-1.98474">
        <ele>4</ele>
        <time>2024-12-26T08:56:07.045Z</time>
      </trkpt>
      <trkpt lat="46.72696" lon="-1.98474">
        <ele>4</ele>
        <time>2024-12-26T08:56:08.045Z</time>
      </trkpt>
      <trkpt lat="46.72694" lon="-1.98475">
        <ele>4</ele>
        <time>2024-12-26T08:56:09.045Z</time>
      </trkpt>
      <trkpt lat="46.72693" lon="-1.98475">
        <ele>4</ele>
        <time>2024-12-26T08:56:10.045Z</time>
      </trkpt>
      <trkpt lat="46.72691" lon="-1.98477">
        <ele>4</ele>
        <time>2024-12-26T08:56:11.046Z</time>
      </trkpt>
      <trkpt lat="46.7269" lon="-1.98479">
        <ele>4</ele>
        <time>2024-12-26T08:56:12.046Z</time>
      </trkpt>
      <trkpt lat="46.72689" lon="-1.98481">
        <ele>4</ele>
        <time>2024-12-26T08:56:13.046Z</time>
      </trkpt>
      <trkpt lat="46.72689" lon="-1.98483">
        <ele>4</ele>
        <time>2024-12-26T08:56:14.046Z</time>
      </trkpt>
      <trkpt lat="46.72689" lon="-1.98486">
        <ele>4</ele>
        <time>2024-12-26T08:56:15.045Z</time>
      </trkpt>
      <trkpt lat="46.72688" lon="-1.98489">
        <ele>4</ele>
        <time>2024-12-26T08:56:16.046Z</time>
      </trkpt>
      <trkpt lat="46.72688" lon="-1.98491">
        <ele>4</ele>
        <time>2024-12-26T08:56:17.046Z</time>
      </trkpt>
      <trkpt lat="46.72688" lon="-1.98494">
        <ele>4</ele>
        <time>2024-12-26T08:56:18.045Z</time>
      </trkpt>
      <trkpt lat="46.72687" lon="-1.98496">
        <ele>4</ele>
        <time>2024-12-26T08:56:19.046Z</time>
      </trkpt>
      <trkpt lat="46.72685" lon="-1.98498">
        <ele>4</ele>
        <time>2024-12-26T08:56:20.046Z</time>
      </trkpt>
      <trkpt lat="46.72683" lon="-1.98499">
        <ele>4</ele>
        <time>2024-12-26T08:56:21.046Z</time>
      </trkpt>
      <trkpt lat="46.72682" lon="-1.98499">
        <ele>4</ele>
        <time>2024-12-26T08:56:22.046Z</time>
      </trkpt>
      <trkpt lat="46.72681" lon="-1.985">
        <ele>4</ele>
        <time>2024-12-26T08:56:23.046Z</time>
      </trkpt>
      <trkpt lat="46.7268" lon="-1.985">
        <ele>4</ele>
        <time>2024-12-26T08:56:24.046Z</time>
      </trkpt>
      <trkpt lat="46.72679" lon="-1.98502">
        <ele>4</ele>
        <time>2024-12-26T08:56:25.045Z</time>
      </trkpt>
      <trkpt lat="46.72679" lon="-1.98504">
        <ele>4</ele>
        <time>2024-12-26T08:56:26.046Z</time>
      </trkpt>
      <trkpt lat="46.72679" lon="-1.98507">
        <ele>4</ele>
        <time>2024-12-26T08:56:27.045Z</time>
      </trkpt>
      <trkpt lat="46.72679" lon="-1.98509">
        <ele>4</ele>
        <time>2024-12-26T08:56:28.045Z</time>
      </trkpt>
      <trkpt lat="46.72679" lon="-1.98512">
        <ele>4</ele>
        <time>2024-12-26T08:56:29.045Z</time>
      </trkpt>
      <trkpt lat="46.72678" lon="-1.98515">
        <ele>4</ele>
        <time>2024-12-26T08:56:30.045Z</time>
      </trkpt>
      <trkpt lat="46.72677" lon="-1.98517">
        <ele>4</ele>
        <time>2024-12-26T08:56:31.046Z</time>
      </trkpt>
      <trkpt lat="46.72676" lon="-1.98518">
        <ele>4</ele>
        <time>2024-12-26T08:56:32.046Z</time>
      </trkpt>
      <trkpt lat="46.72675" lon="-1.9852">
        <ele>4</ele>
        <time>2024-12-26T08:56:33.045Z</time>
      </trkpt>
      <trkpt lat="46.72674" lon="-1.98522">
        <ele>4</ele>
        <time>2024-12-26T08:56:34.045Z</time>
      </trkpt>
      <trkpt lat="46.72674" lon="-1.98523">
        <ele>4</ele>
        <time>2024-12-26T08:56:35.046Z</time>
      </trkpt>
      <trkpt lat="46.72674" lon="-1.98525">
        <ele>4</ele>
        <time>2024-12-26T08:56:36.046Z</time>
      </trkpt>
      <trkpt lat="46.72673" lon="-1.98526">
        <ele>4</ele>
        <time>2024-12-26T08:56:37.045Z</time>
      </trkpt>
      <trkpt lat="46.72672" lon="-1.98528">
        <ele>4</ele>
        <time>2024-12-26T08:56:38.045Z</time>
      </trkpt>
      <trkpt lat="46.72672" lon="-1.9853">
        <ele>4</ele>
        <time>2024-12-26T08:56:39.046Z</time>
      </trkpt>
      <trkpt lat="46.72671" lon="-1.98532">
        <ele>4</ele>
        <time>2024-12-26T08:56:40.046Z</time>
      </trkpt>
      <trkpt lat="46.7267" lon="-1.98534">
        <ele>4</ele>
        <time>2024-12-26T08:56:41.046Z</time>
      </trkpt>
      <trkpt lat="46.72669" lon="-1.98537">
        <ele>4</ele>
        <time>2024-12-26T08:56:42.046Z</time>
      </trkpt>
      <trkpt lat="46.72669" lon="-1.98539">
        <ele>4</ele>
        <time>2024-12-26T08:56:43.046Z</time>
      </trkpt>
      <trkpt lat="46.72668" lon="-1.98541">
        <ele>4</ele>
        <time>2024-12-26T08:56:44.046Z</time>
      </trkpt>
      <trkpt lat="46.72667" lon="-1.98544">
        <ele>4</ele>
        <time>2024-12-26T08:56:45.045Z</time>
      </trkpt>
      <trkpt lat="46.72666" lon="-1.98546">
        <ele>4</ele>
        <time>2024-12-26T08:56:46.045Z</time>
      </trkpt>
      <trkpt lat="46.72666" lon="-1.98547">
        <ele>4</ele>
        <time>2024-12-26T08:56:47.045Z</time>
      </trkpt>
      <trkpt lat="46.72665" lon="-1.98548">
        <ele>4.1</ele>
        <time>2024-12-26T08:56:48.045Z</time>
      </trkpt>
      <trkpt lat="46.72664" lon="-1.98549">
        <ele>4.1</ele>
        <time>2024-12-26T08:56:49.045Z</time>
      </trkpt>
      <trkpt lat="46.72663" lon="-1.9855">
        <ele>4.2</ele>
        <time>2024-12-26T08:56:50.046Z</time>
      </trkpt>
      <trkpt lat="46.72662" lon="-1.98552">
        <ele>4.2</ele>
        <time>2024-12-26T08:56:51.045Z</time>
      </trkpt>
      <trkpt lat="46.72661" lon="-1.98554">
        <ele>4.2</ele>
        <time>2024-12-26T08:56:52.046Z</time>
      </trkpt>
      <trkpt lat="46.7266" lon="-1.98556">
        <ele>4.2</ele>
        <time>2024-12-26T08:56:53.046Z</time>
      </trkpt>
      <trkpt lat="46.72659" lon="-1.98559">
        <ele>4.4</ele>
        <time>2024-12-26T08:56:54.046Z</time>
      </trkpt>
      <trkpt lat="46.72657" lon="-1.98561">
        <ele>4.5</ele>
        <time>2024-12-26T08:56:55.045Z</time>
      </trkpt>
      <trkpt lat="46.72656" lon="-1.98562">
        <ele>4.5</ele>
        <time>2024-12-26T08:56:56.045Z</time>
      </trkpt>
      <trkpt lat="46.72654" lon="-1.98563">
        <ele>4.6</ele>
        <time>2024-12-26T08:56:57.045Z</time>
      </trkpt>
      <trkpt lat="46.72654" lon="-1.98565">
        <ele>4.7</ele>
        <time>2024-12-26T08:56:58.046Z</time>
      </trkpt>
      <trkpt lat="46.72652" lon="-1.98568">
        <ele>4.7</ele>
        <time>2024-12-26T08:56:59.046Z</time>
      </trkpt>
      <trkpt lat="46.72651" lon="-1.98568">
        <ele>4.8</ele>
        <time>2024-12-26T08:57:00.046Z</time>
      </trkpt>
      <trkpt lat="46.72651" lon="-1.98569">
        <ele>4.8</ele>
        <time>2024-12-26T08:57:01.046Z</time>
      </trkpt>
      <trkpt lat="46.7265" lon="-1.9857">
        <ele>4.8</ele>
        <time>2024-12-26T08:57:02.046Z</time>
      </trkpt>
      <trkpt lat="46.7265" lon="-1.98572">
        <ele>4.8</ele>
        <time>2024-12-26T08:57:03.046Z</time>
      </trkpt>
      <trkpt lat="46.7265" lon="-1.98574">
        <ele>4.9</ele>
        <time>2024-12-26T08:57:04.046Z</time>
      </trkpt>
      <trkpt lat="46.7265" lon="-1.98577">
        <ele>4.9</ele>
        <time>2024-12-26T08:57:05.045Z</time>
      </trkpt>
      <trkpt lat="46.72649" lon="-1.98579">
        <ele>4.9</ele>
        <time>2024-12-26T08:57:06.045Z</time>
      </trkpt>
      <trkpt lat="46.72649" lon="-1.98581">
        <ele>5</ele>
        <time>2024-12-26T08:57:07.045Z</time>
      </trkpt>
      <trkpt lat="46.72648" lon="-1.98584">
        <ele>5</ele>
        <time>2024-12-26T08:57:08.045Z</time>
      </trkpt>
      <trkpt lat="46.72647" lon="-1.98586">
        <ele>5.1</ele>
        <time>2024-12-26T08:57:09.045Z</time>
      </trkpt>
      <trkpt lat="46.72645" lon="-1.98586">
        <ele>5.1</ele>
        <time>2024-12-26T08:57:10.046Z</time>
      </trkpt>
      <trkpt lat="46.72644" lon="-1.98587">
        <ele>5.1</ele>
        <time>2024-12-26T08:57:11.046Z</time>
      </trkpt>
      <trkpt lat="46.72642" lon="-1.98587">
        <ele>5.1</ele>
        <time>2024-12-26T08:57:12.046Z</time>
      </trkpt>
      <trkpt lat="46.72641" lon="-1.98589">
        <ele>5.2</ele>
        <time>2024-12-26T08:57:13.046Z</time>
      </trkpt>
      <trkpt lat="46.7264" lon="-1.9859">
        <ele>5.2</ele>
        <time>2024-12-26T08:57:14.046Z</time>
      </trkpt>
      <trkpt lat="46.72639" lon="-1.98591">
        <ele>5.3</ele>
        <time>2024-12-26T08:57:15.045Z</time>
      </trkpt>
      <trkpt lat="46.72639" lon="-1.98593">
        <ele>5.3</ele>
        <time>2024-12-26T08:57:16.045Z</time>
      </trkpt>
      <trkpt lat="46.72637" lon="-1.98594">
        <ele>5.4</ele>
        <time>2024-12-26T08:57:17.046Z</time>
      </trkpt>
      <trkpt lat="46.72636" lon="-1.98596">
        <ele>5.5</ele>
        <time>2024-12-26T08:57:18.046Z</time>
      </trkpt>
      <trkpt lat="46.72635" lon="-1.98596">
        <ele>5.6</ele>
        <time>2024-12-26T08:57:19.046Z</time>
      </trkpt>
      <trkpt lat="46.72634" lon="-1.98597">
        <ele>5.6</ele>
        <time>2024-12-26T08:57:20.046Z</time>
      </trkpt>
      <trkpt lat="46.72632" lon="-1.98598">
        <ele>5.6</ele>
        <time>2024-12-26T08:57:21.045Z</time>
      </trkpt>
      <trkpt lat="46.72631" lon="-1.98599">
        <ele>5.7</ele>
        <time>2024-12-26T08:57:22.045Z</time>
      </trkpt>
      <trkpt lat="46.7263" lon="-1.986">
        <ele>5.7</ele>
        <time>2024-12-26T08:57:23.045Z</time>
      </trkpt>
      <trkpt lat="46.72629" lon="-1.98601">
        <ele>5.7</ele>
        <time>2024-12-26T08:57:24.045Z</time>
      </trkpt>
      <trkpt lat="46.72629" lon="-1.98603">
        <ele>5.7</ele>
        <time>2024-12-26T08:57:25.045Z</time>
      </trkpt>
      <trkpt lat="46.72628" lon="-1.98603">
        <ele>5.7</ele>
        <time>2024-12-26T08:57:26.046Z</time>
      </trkpt>
      <trkpt lat="46.72627" lon="-1.98604">
        <ele>5.7</ele>
        <time>2024-12-26T08:57:27.045Z</time>
      </trkpt>
      <trkpt lat="46.72626" lon="-1.98603">
        <ele>5.6</ele>
        <time>2024-12-26T08:57:28.045Z</time>
      </trkpt>
      <trkpt lat="46.72626" lon="-1.98602">
        <ele>5.7</ele>
        <time>2024-12-26T08:57:29.046Z</time>
      </trkpt>
      <trkpt lat="46.72625" lon="-1.98602">
        <ele>5.7</ele>
        <time>2024-12-26T08:57:30.045Z</time>
      </trkpt>
      <trkpt lat="46.72625" lon="-1.98602">
        <ele>5.7</ele>
        <time>2024-12-26T08:57:31.045Z</time>
      </trkpt>
      <trkpt lat="46.72625" lon="-1.98601">
        <ele>5.7</ele>
        <time>2024-12-26T08:57:32.046Z</time>
      </trkpt>
      <trkpt lat="46.72624" lon="-1.98601">
        <ele>5.7</ele>
        <time>2024-12-26T08:57:33.046Z</time>
      </trkpt>
      <trkpt lat="46.72626" lon="-1.98601">
        <ele>5.7</ele>
        <time>2024-12-26T08:57:34.046Z</time>
      </trkpt>
      <trkpt lat="46.72627" lon="-1.986">
        <ele>5.7</ele>
        <time>2024-12-26T08:57:35.045Z</time>
      </trkpt>
      <trkpt lat="46.72626" lon="-1.986">
        <ele>5.7</ele>
        <time>2024-12-26T08:57:36.045Z</time>
      </trkpt>
      <trkpt lat="46.72625" lon="-1.98598">
        <ele>5.7</ele>
        <time>2024-12-26T08:57:37.045Z</time>
      </trkpt>
      <trkpt lat="46.72623" lon="-1.98597">
        <ele>5.8</ele>
        <time>2024-12-26T08:57:38.046Z</time>
      </trkpt>
      <trkpt lat="46.7262" lon="-1.98595">
        <ele>5.9</ele>
        <time>2024-12-26T08:57:39.046Z</time>
      </trkpt>
      <trkpt lat="46.72618" lon="-1.98594">
        <ele>6</ele>
        <time>2024-12-26T08:57:40.046Z</time>
      </trkpt>
      <trkpt lat="46.72616" lon="-1.98592">
        <ele>6.2</ele>
        <time>2024-12-26T08:57:41.046Z</time>
      </trkpt>
      <trkpt lat="46.72615" lon="-1.98592">
        <ele>6.3</ele>
        <time>2024-12-26T08:57:42.046Z</time>
      </trkpt>
      <trkpt lat="46.72614" lon="-1.98591">
        <ele>6.4</ele>
        <time>2024-12-26T08:57:43.046Z</time>
      </trkpt>
      <trkpt lat="46.72613" lon="-1.9859">
        <ele>6.4</ele>
        <time>2024-12-26T08:57:44.045Z</time>
      </trkpt>
      <trkpt lat="46.72612" lon="-1.9859">
        <ele>6.5</ele>
        <time>2024-12-26T08:57:45.045Z</time>
      </trkpt>
      <trkpt lat="46.72612" lon="-1.9859">
        <ele>6.5</ele>
        <time>2024-12-26T08:57:46.046Z</time>
      </trkpt>
      <trkpt lat="46.72611" lon="-1.98589">
        <ele>6.6</ele>
        <time>2024-12-26T08:57:47.046Z</time>
      </trkpt>
      <trkpt lat="46.7261" lon="-1.98589">
        <ele>6.6</ele>
        <time>2024-12-26T08:57:48.046Z</time>
      </trkpt>
      <trkpt lat="46.72609" lon="-1.98588">
        <ele>6.6</ele>
        <time>2024-12-26T08:57:49.046Z</time>
      </trkpt>
      <trkpt lat="46.72608" lon="-1.98588">
        <ele>6.7</ele>
        <time>2024-12-26T08:57:50.046Z</time>
      </trkpt>
      <trkpt lat="46.72606" lon="-1.98588">
        <ele>6.7</ele>
        <time>2024-12-26T08:57:51.046Z</time>
      </trkpt>
      <trkpt lat="46.72605" lon="-1.98587">
        <ele>6.7</ele>
        <time>2024-12-26T08:57:52.046Z</time>
      </trkpt>
      <trkpt lat="46.72604" lon="-1.98587">
        <ele>6.8</ele>
        <time>2024-12-26T08:57:53.045Z</time>
      </trkpt>
      <trkpt lat="46.72602" lon="-1.98586">
        <ele>6.8</ele>
        <time>2024-12-26T08:57:54.045Z</time>
      </trkpt>
      <trkpt lat="46.72601" lon="-1.98585">
        <ele>6.9</ele>
        <time>2024-12-26T08:57:55.045Z</time>
      </trkpt>
      <trkpt lat="46.726" lon="-1.98584">
        <ele>7</ele>
        <time>2024-12-26T08:57:56.045Z</time>
      </trkpt>
      <trkpt lat="46.72599" lon="-1.98584">
        <ele>7</ele>
        <time>2024-12-26T08:57:57.046Z</time>
      </trkpt>
      <trkpt lat="46.72598" lon="-1.98582">
        <ele>6.9</ele>
        <time>2024-12-26T08:57:58.046Z</time>
      </trkpt>
      <trkpt lat="46.72597" lon="-1.98582">
        <ele>6.9</ele>
        <time>2024-12-26T08:57:59.046Z</time>
      </trkpt>
      <trkpt lat="46.72595" lon="-1.98581">
        <ele>6.8</ele>
        <time>2024-12-26T08:58:00.046Z</time>
      </trkpt>
      <trkpt lat="46.72593" lon="-1.98579">
        <ele>6.7</ele>
        <time>2024-12-26T08:58:01.046Z</time>
      </trkpt>
      <trkpt lat="46.72592" lon="-1.98578">
        <ele>6.7</ele>
        <time>2024-12-26T08:58:02.046Z</time>
      </trkpt>
      <trkpt lat="46.72591" lon="-1.98578">
        <ele>6.6</ele>
        <time>2024-12-26T08:58:03.045Z</time>
      </trkpt>
      <trkpt lat="46.7259" lon="-1.98577">
        <ele>6.6</ele>
        <time>2024-12-26T08:58:04.045Z</time>
      </trkpt>
      <trkpt lat="46.72589" lon="-1.98577">
        <ele>6.6</ele>
        <time>2024-12-26T08:58:05.045Z</time>
      </trkpt>
      <trkpt lat="46.72588" lon="-1.98576">
        <ele>6.5</ele>
        <time>2024-12-26T08:58:06.045Z</time>
      </trkpt>
      <trkpt lat="46.72587" lon="-1.98575">
        <ele>6.5</ele>
        <time>2024-12-26T08:58:07.045Z</time>
      </trkpt>
      <trkpt lat="46.72587" lon="-1.98575">
        <ele>6.4</ele>
        <time>2024-12-26T08:58:08.045Z</time>
      </trkpt>
      <trkpt lat="46.72586" lon="-1.98574">
        <ele>6.4</ele>
        <time>2024-12-26T08:58:09.045Z</time>
      </trkpt>
      <trkpt lat="46.72585" lon="-1.98574">
        <ele>6.4</ele>
        <time>2024-12-26T08:58:10.046Z</time>
      </trkpt>
      <trkpt lat="46.72583" lon="-1.98574">
        <ele>6.3</ele>
        <time>2024-12-26T08:58:11.046Z</time>
      </trkpt>
      <trkpt lat="46.72581" lon="-1.98575">
        <ele>6.2</ele>
        <time>2024-12-26T08:58:12.046Z</time>
      </trkpt>
      <trkpt lat="46.7258" lon="-1.98575">
        <ele>6.2</ele>
        <time>2024-12-26T08:58:13.046Z</time>
      </trkpt>
      <trkpt lat="46.72579" lon="-1.98575">
        <ele>6.1</ele>
        <time>2024-12-26T08:58:14.046Z</time>
      </trkpt>
      <trkpt lat="46.72578" lon="-1.98573">
        <ele>6</ele>
        <time>2024-12-26T08:58:15.046Z</time>
      </trkpt>
      <trkpt lat="46.72576" lon="-1.98572">
        <ele>5.8</ele>
        <time>2024-12-26T08:58:16.046Z</time>
      </trkpt>
      <trkpt lat="46.72575" lon="-1.98571">
        <ele>5.7</ele>
        <time>2024-12-26T08:58:17.045Z</time>
      </trkpt>
      <trkpt lat="46.72574" lon="-1.9857">
        <ele>5.7</ele>
        <time>2024-12-26T08:58:18.045Z</time>
      </trkpt>
      <trkpt lat="46.72574" lon="-1.98569">
        <ele>5.6</ele>
        <time>2024-12-26T08:58:19.045Z</time>
      </trkpt>
      <trkpt lat="46.72573" lon="-1.98568">
        <ele>5.6</ele>
        <time>2024-12-26T08:58:20.045Z</time>
      </trkpt>
      <trkpt lat="46.72572" lon="-1.98566">
        <ele>5.4</ele>
        <time>2024-12-26T08:58:21.045Z</time>
      </trkpt>
      <trkpt lat="46.72571" lon="-1.98565">
        <ele>5.4</ele>
        <time>2024-12-26T08:58:22.045Z</time>
      </trkpt>
      <trkpt lat="46.72571" lon="-1.98564">
        <ele>5.3</ele>
        <time>2024-12-26T08:58:23.046Z</time>
      </trkpt>
      <trkpt lat="46.7257" lon="-1.98563">
        <ele>5.3</ele>
        <time>2024-12-26T08:58:24.046Z</time>
      </trkpt>
      <trkpt lat="46.72569" lon="-1.98562">
        <ele>5.2</ele>
        <time>2024-12-26T08:58:25.046Z</time>
      </trkpt>
      <trkpt lat="46.72568" lon="-1.98561">
        <ele>5.2</ele>
        <time>2024-12-26T08:58:26.045Z</time>
      </trkpt>
      <trkpt lat="46.72567" lon="-1.9856">
        <ele>5.1</ele>
        <time>2024-12-26T08:58:27.046Z</time>
      </trkpt>
      <trkpt lat="46.72566" lon="-1.98558">
        <ele>5.1</ele>
        <time>2024-12-26T08:58:28.046Z</time>
      </trkpt>
      <trkpt lat="46.72564" lon="-1.98557">
        <ele>5</ele>
        <time>2024-12-26T08:58:29.045Z</time>
      </trkpt>
      <trkpt lat="46.72562" lon="-1.98556">
        <ele>5</ele>
        <time>2024-12-26T08:58:30.045Z</time>
      </trkpt>
      <trkpt lat="46.72561" lon="-1.98555">
        <ele>5</ele>
        <time>2024-12-26T08:58:31.045Z</time>
      </trkpt>
      <trkpt lat="46.72559" lon="-1.98554">
        <ele>5</ele>
        <time>2024-12-26T08:58:32.045Z</time>
      </trkpt>
      <trkpt lat="46.72557" lon="-1.98553">
        <ele>5</ele>
        <time>2024-12-26T08:58:33.045Z</time>
      </trkpt>
      <trkpt lat="46.72555" lon="-1.98552">
        <ele>5</ele>
        <time>2024-12-26T08:58:34.046Z</time>
      </trkpt>
      <trkpt lat="46.72554" lon="-1.98551">
        <ele>5</ele>
        <time>2024-12-26T08:58:35.046Z</time>
      </trkpt>
      <trkpt lat="46.72553" lon="-1.9855">
        <ele>4.9</ele>
        <time>2024-12-26T08:58:36.046Z</time>
      </trkpt>
      <trkpt lat="46.72552" lon="-1.9855">
        <ele>4.9</ele>
        <time>2024-12-26T08:58:37.046Z</time>
      </trkpt>
      <trkpt lat="46.72551" lon="-1.98549">
        <ele>4.8</ele>
        <time>2024-12-26T08:58:38.045Z</time>
      </trkpt>
      <trkpt lat="46.7255" lon="-1.98548">
        <ele>4.8</ele>
        <time>2024-12-26T08:58:39.045Z</time>
      </trkpt>
      <trkpt lat="46.7255" lon="-1.98548">
        <ele>4.8</ele>
        <time>2024-12-26T08:58:40.045Z</time>
      </trkpt>
      <trkpt lat="46.72549" lon="-1.98546">
        <ele>4.8</ele>
        <time>2024-12-26T08:58:41.045Z</time>
      </trkpt>
      <trkpt lat="46.72549" lon="-1.98544">
        <ele>4.7</ele>
        <time>2024-12-26T08:58:42.045Z</time>
      </trkpt>
      <trkpt lat="46.72548" lon="-1.98543">
        <ele>4.7</ele>
        <time>2024-12-26T08:58:43.045Z</time>
      </trkpt>
      <trkpt lat="46.72548" lon="-1.98541">
        <ele>4.7</ele>
        <time>2024-12-26T08:58:44.045Z</time>
      </trkpt>
      <trkpt lat="46.72548" lon="-1.9854">
        <ele>4.7</ele>
        <time>2024-12-26T08:58:45.046Z</time>
      </trkpt>
      <trkpt lat="46.72548" lon="-1.98538">
        <ele>4.7</ele>
        <time>2024-12-26T08:58:46.046Z</time>
      </trkpt>
      <trkpt lat="46.72547" lon="-1.98537">
        <ele>4.7</ele>
        <time>2024-12-26T08:58:47.046Z</time>
      </trkpt>
      <trkpt lat="46.72547" lon="-1.98535">
        <ele>4.7</ele>
        <time>2024-12-26T08:58:48.046Z</time>
      </trkpt>
      <trkpt lat="46.72545" lon="-1.98534">
        <ele>4.6</ele>
        <time>2024-12-26T08:58:49.046Z</time>
      </trkpt>
      <trkpt lat="46.72544" lon="-1.98533">
        <ele>4.6</ele>
        <time>2024-12-26T08:58:50.046Z</time>
      </trkpt>
      <trkpt lat="46.72543" lon="-1.98532">
        <ele>4.5</ele>
        <time>2024-12-26T08:58:51.046Z</time>
      </trkpt>
      <trkpt lat="46.72541" lon="-1.98531">
        <ele>4.5</ele>
        <time>2024-12-26T08:58:52.045Z</time>
      </trkpt>
      <trkpt lat="46.7254" lon="-1.9853">
        <ele>4.4</ele>
        <time>2024-12-26T08:58:53.045Z</time>
      </trkpt>
      <trkpt lat="46.72538" lon="-1.9853">
        <ele>4.4</ele>
        <time>2024-12-26T08:58:54.045Z</time>
      </trkpt>
      <trkpt lat="46.72536" lon="-1.98529">
        <ele>4.3</ele>
        <time>2024-12-26T08:58:55.045Z</time>
      </trkpt>
      <trkpt lat="46.72535" lon="-1.98527">
        <ele>4.2</ele>
        <time>2024-12-26T08:58:56.046Z</time>
      </trkpt>
      <trkpt lat="46.72534" lon="-1.98525">
        <ele>4.2</ele>
        <time>2024-12-26T08:58:57.045Z</time>
      </trkpt>
      <trkpt lat="46.72534" lon="-1.98522">
        <ele>4.2</ele>
        <time>2024-12-26T08:58:58.046Z</time>
      </trkpt>
      <trkpt lat="46.72534" lon="-1.9852">
        <ele>4.2</ele>
        <time>2024-12-26T08:58:59.046Z</time>
      </trkpt>
      <trkpt lat="46.72533" lon="-1.98517">
        <ele>4.2</ele>
        <time>2024-12-26T08:59:00.046Z</time>
      </trkpt>
      <trkpt lat="46.72532" lon="-1.98515">
        <ele>4.1</ele>
        <time>2024-12-26T08:59:01.046Z</time>
      </trkpt>
      <trkpt lat="46.7253" lon="-1.98513">
        <ele>4.1</ele>
        <time>2024-12-26T08:59:02.046Z</time>
      </trkpt>
      <trkpt lat="46.72529" lon="-1.98513">
        <ele>4</ele>
        <time>2024-12-26T08:59:03.046Z</time>
      </trkpt>
      <trkpt lat="46.72528" lon="-1.98512">
        <ele>4</ele>
        <time>2024-12-26T08:59:04.046Z</time>
      </trkpt>
      <trkpt lat="46.72526" lon="-1.98512">
        <ele>4</ele>
        <time>2024-12-26T08:59:05.046Z</time>
      </trkpt>
      <trkpt lat="46.72525" lon="-1.98511">
        <ele>4</ele>
        <time>2024-12-26T08:59:06.046Z</time>
      </trkpt>
      <trkpt lat="46.72524" lon="-1.9851">
        <ele>4</ele>
        <time>2024-12-26T08:59:07.045Z</time>
      </trkpt>
      <trkpt lat="46.72524" lon="-1.9851">
        <ele>4</ele>
        <time>2024-12-26T08:59:08.045Z</time>
      </trkpt>
      <trkpt lat="46.72523" lon="-1.98509">
        <ele>4</ele>
        <time>2024-12-26T08:59:09.045Z</time>
      </trkpt>
      <trkpt lat="46.72522" lon="-1.98508">
        <ele>4</ele>
        <time>2024-12-26T08:59:10.046Z</time>
      </trkpt>
      <trkpt lat="46.72521" lon="-1.98508">
        <ele>4</ele>
        <time>2024-12-26T08:59:11.046Z</time>
      </trkpt>
      <trkpt lat="46.7252" lon="-1.98508">
        <ele>4</ele>
        <time>2024-12-26T08:59:12.046Z</time>
      </trkpt>
      <trkpt lat="46.72519" lon="-1.98506">
        <ele>4</ele>
        <time>2024-12-26T08:59:13.045Z</time>
      </trkpt>
      <trkpt lat="46.72517" lon="-1.98505">
        <ele>4</ele>
        <time>2024-12-26T08:59:14.045Z</time>
      </trkpt>
      <trkpt lat="46.72516" lon="-1.98504">
        <ele>4</ele>
        <time>2024-12-26T08:59:15.046Z</time>
      </trkpt>
      <trkpt lat="46.72515" lon="-1.98502">
        <ele>4</ele>
        <time>2024-12-26T08:59:16.045Z</time>
      </trkpt>
      <trkpt lat="46.72515" lon="-1.98498">
        <ele>4.1</ele>
        <time>2024-12-26T08:59:17.045Z</time>
      </trkpt>
      <trkpt lat="46.72514" lon="-1.98496">
        <ele>4.2</ele>
        <time>2024-12-26T08:59:18.045Z</time>
      </trkpt>
      <trkpt lat="46.72514" lon="-1.98493">
        <ele>4.3</ele>
        <time>2024-12-26T08:59:19.046Z</time>
      </trkpt>
      <trkpt lat="46.72513" lon="-1.98491">
        <ele>4.3</ele>
        <time>2024-12-26T08:59:20.046Z</time>
      </trkpt>
      <trkpt lat="46.72513" lon="-1.98489">
        <ele>4.4</ele>
        <time>2024-12-26T08:59:21.046Z</time>
      </trkpt>
      <trkpt lat="46.72512" lon="-1.98487">
        <ele>4.5</ele>
        <time>2024-12-26T08:59:22.046Z</time>
      </trkpt>
      <trkpt lat="46.72511" lon="-1.98486">
        <ele>4.5</ele>
        <time>2024-12-26T08:59:23.046Z</time>
      </trkpt>
      <trkpt lat="46.72509" lon="-1.98486">
        <ele>4.5</ele>
        <time>2024-12-26T08:59:24.046Z</time>
      </trkpt>
      <trkpt lat="46.72508" lon="-1.98486">
        <ele>4.5</ele>
        <time>2024-12-26T08:59:25.046Z</time>
      </trkpt>
      <trkpt lat="46.72507" lon="-1.98485">
        <ele>4.5</ele>
        <time>2024-12-26T08:59:26.045Z</time>
      </trkpt>
      <trkpt lat="46.72505" lon="-1.98484">
        <ele>4.6</ele>
        <time>2024-12-26T08:59:27.045Z</time>
      </trkpt>
      <trkpt lat="46.72504" lon="-1.98482">
        <ele>4.6</ele>
        <time>2024-12-26T08:59:28.045Z</time>
      </trkpt>
      <trkpt lat="46.72503" lon="-1.98481">
        <ele>4.7</ele>
        <time>2024-12-26T08:59:29.046Z</time>
      </trkpt>
      <trkpt lat="46.72501" lon="-1.98479">
        <ele>4.8</ele>
        <time>2024-12-26T08:59:30.046Z</time>
      </trkpt>
      <trkpt lat="46.72501" lon="-1.98478">
        <ele>4.8</ele>
        <time>2024-12-26T08:59:31.045Z</time>
      </trkpt>
      <trkpt lat="46.725" lon="-1.98477">
        <ele>4.8</ele>
        <time>2024-12-26T08:59:32.046Z</time>
      </trkpt>
      <trkpt lat="46.72499" lon="-1.98476">
        <ele>4.9</ele>
        <time>2024-12-26T08:59:33.045Z</time>
      </trkpt>
      <trkpt lat="46.72498" lon="-1.98475">
        <ele>4.9</ele>
        <time>2024-12-26T08:59:34.045Z</time>
      </trkpt>
      <trkpt lat="46.72497" lon="-1.98475">
        <ele>4.9</ele>
        <time>2024-12-26T08:59:35.045Z</time>
      </trkpt>
      <trkpt lat="46.72496" lon="-1.98475">
        <ele>4.9</ele>
        <time>2024-12-26T08:59:36.045Z</time>
      </trkpt>
      <trkpt lat="46.72493" lon="-1.98475">
        <ele>4.9</ele>
        <time>2024-12-26T08:59:37.045Z</time>
      </trkpt>
      <trkpt lat="46.7249" lon="-1.98475">
        <ele>4.9</ele>
        <time>2024-12-26T08:59:38.046Z</time>
      </trkpt>
      <trkpt lat="46.72488" lon="-1.98474">
        <ele>5</ele>
        <time>2024-12-26T08:59:39.046Z</time>
      </trkpt>
      <trkpt lat="46.72485" lon="-1.98472">
        <ele>5</ele>
        <time>2024-12-26T08:59:40.046Z</time>
      </trkpt>
      <trkpt lat="46.72484" lon="-1.98472">
        <ele>5</ele>
        <time>2024-12-26T08:59:41.046Z</time>
      </trkpt>
      <trkpt lat="46.72482" lon="-1.98471">
        <ele>5</ele>
        <time>2024-12-26T08:59:42.046Z</time>
      </trkpt>
      <trkpt lat="46.72481" lon="-1.98471">
        <ele>5</ele>
        <time>2024-12-26T08:59:43.046Z</time>
      </trkpt>
      <trkpt lat="46.72481" lon="-1.98471">
        <ele>5</ele>
        <time>2024-12-26T08:59:44.046Z</time>
      </trkpt>
      <trkpt lat="46.7248" lon="-1.9847">
        <ele>4.9</ele>
        <time>2024-12-26T08:59:45.046Z</time>
      </trkpt>
      <trkpt lat="46.72479" lon="-1.98469">
        <ele>4.9</ele>
        <time>2024-12-26T08:59:46.045Z</time>
      </trkpt>
      <trkpt lat="46.72478" lon="-1.98468">
        <ele>4.9</ele>
        <time>2024-12-26T08:59:47.045Z</time>
      </trkpt>
      <trkpt lat="46.72476" lon="-1.98467">
        <ele>4.8</ele>
        <time>2024-12-26T08:59:48.045Z</time>
      </trkpt>
      <trkpt lat="46.72475" lon="-1.98466">
        <ele>4.8</ele>
        <time>2024-12-26T08:59:49.046Z</time>
      </trkpt>
      <trkpt lat="46.72474" lon="-1.98466">
        <ele>4.8</ele>
        <time>2024-12-26T08:59:50.045Z</time>
      </trkpt>
      <trkpt lat="46.72473" lon="-1.98465">
        <ele>4.8</ele>
        <time>2024-12-26T08:59:51.046Z</time>
      </trkpt>
      <trkpt lat="46.72471" lon="-1.98465">
        <ele>4.7</ele>
        <time>2024-12-26T08:59:52.045Z</time>
      </trkpt>
      <trkpt lat="46.72469" lon="-1.98464">
        <ele>4.6</ele>
        <time>2024-12-26T08:59:53.045Z</time>
      </trkpt>
      <trkpt lat="46.72467" lon="-1.98463">
        <ele>4.6</ele>
        <time>2024-12-26T08:59:54.046Z</time>
      </trkpt>
      <trkpt lat="46.72466" lon="-1.98463">
        <ele>4.5</ele>
        <time>2024-12-26T08:59:55.046Z</time>
      </trkpt>
      <trkpt lat="46.72465" lon="-1.98462">
        <ele>4.5</ele>
        <time>2024-12-26T08:59:56.046Z</time>
      </trkpt>
      <trkpt lat="46.72464" lon="-1.98461">
        <ele>4.4</ele>
        <time>2024-12-26T08:59:57.045Z</time>
      </trkpt>
      <trkpt lat="46.72462" lon="-1.98461">
        <ele>4.4</ele>
        <time>2024-12-26T08:59:58.045Z</time>
      </trkpt>
      <trkpt lat="46.72462" lon="-1.98461">
        <ele>4.4</ele>
        <time>2024-12-26T08:59:59.045Z</time>
      </trkpt>
      <trkpt lat="46.72461" lon="-1.98461">
        <ele>4.3</ele>
        <time>2024-12-26T09:00:00.045Z</time>
      </trkpt>
      <trkpt lat="46.7246" lon="-1.9846">
        <ele>4.3</ele>
        <time>2024-12-26T09:00:01.045Z</time>
      </trkpt>
      <trkpt lat="46.72459" lon="-1.9846">
        <ele>4.3</ele>
        <time>2024-12-26T09:00:02.045Z</time>
      </trkpt>
      <trkpt lat="46.72458" lon="-1.98459">
        <ele>4.3</ele>
        <time>2024-12-26T09:00:03.045Z</time>
      </trkpt>
      <trkpt lat="46.72457" lon="-1.98458">
        <ele>4.2</ele>
        <time>2024-12-26T09:00:04.045Z</time>
      </trkpt>
      <trkpt lat="46.72455" lon="-1.98458">
        <ele>4.2</ele>
        <time>2024-12-26T09:00:05.046Z</time>
      </trkpt>
      <trkpt lat="46.72455" lon="-1.98457">
        <ele>4.2</ele>
        <time>2024-12-26T09:00:06.046Z</time>
      </trkpt>
      <trkpt lat="46.72454" lon="-1.98456">
        <ele>4.1</ele>
        <time>2024-12-26T09:00:07.045Z</time>
      </trkpt>
      <trkpt lat="46.72453" lon="-1.98454">
        <ele>4.1</ele>
        <time>2024-12-26T09:00:08.045Z</time>
      </trkpt>
      <trkpt lat="46.72452" lon="-1.98452">
        <ele>4.1</ele>
        <time>2024-12-26T09:00:09.046Z</time>
      </trkpt>
      <trkpt lat="46.72451" lon="-1.9845">
        <ele>4</ele>
        <time>2024-12-26T09:00:10.046Z</time>
      </trkpt>
      <trkpt lat="46.7245" lon="-1.98449">
        <ele>4</ele>
        <time>2024-12-26T09:00:11.046Z</time>
      </trkpt>
      <trkpt lat="46.72449" lon="-1.98448">
        <ele>4</ele>
        <time>2024-12-26T09:00:12.046Z</time>
      </trkpt>
      <trkpt lat="46.72449" lon="-1.98447">
        <ele>4</ele>
        <time>2024-12-26T09:00:13.045Z</time>
      </trkpt>
      <trkpt lat="46.72449" lon="-1.98446">
        <ele>4</ele>
        <time>2024-12-26T09:00:14.045Z</time>
      </trkpt>
      <trkpt lat="46.72449" lon="-1.98446">
        <ele>4</ele>
        <time>2024-12-26T09:00:15.045Z</time>
      </trkpt>
      <trkpt lat="46.72449" lon="-1.98446">
        <ele>4</ele>
        <time>2024-12-26T09:00:16.045Z</time>
      </trkpt>
      <trkpt lat="46.72449" lon="-1.98446">
        <ele>4</ele>
        <time>2024-12-26T09:00:17.045Z</time>
      </trkpt>
      <trkpt lat="46.72449" lon="-1.98445">
        <ele>4</ele>
        <time>2024-12-26T09:00:18.045Z</time>
      </trkpt>
      <trkpt lat="46.72449" lon="-1.98445">
        <ele>4</ele>
        <time>2024-12-26T09:00:19.046Z</time>
      </trkpt>
      <trkpt lat="46.72449" lon="-1.98445">
        <ele>4</ele>
        <time>2024-12-26T09:00:20.046Z</time>
      </trkpt>
      <trkpt lat="46.72449" lon="-1.98445">
        <ele>4</ele>
        <time>2024-12-26T09:00:21.045Z</time>
      </trkpt>
      <trkpt lat="46.72449" lon="-1.98445">
        <ele>4</ele>
        <time>2024-12-26T09:00:22.045Z</time>
      </trkpt>
      <trkpt lat="46.7245" lon="-1.98444">
        <ele>4</ele>
        <time>2024-12-26T09:00:23.045Z</time>
      </trkpt>
      <trkpt lat="46.7245" lon="-1.98444">
        <ele>4</ele>
        <time>2024-12-26T09:00:24.045Z</time>
      </trkpt>
      <trkpt lat="46.7245" lon="-1.98443">
        <ele>4</ele>
        <time>2024-12-26T09:00:25.046Z</time>
      </trkpt>
      <trkpt lat="46.7245" lon="-1.98443">
        <ele>4</ele>
        <time>2024-12-26T09:00:26.045Z</time>
      </trkpt>
      <trkpt lat="46.7245" lon="-1.98443">
        <ele>4</ele>
        <time>2024-12-26T09:00:27.046Z</time>
      </trkpt>
      <trkpt lat="46.7245" lon="-1.98443">
        <ele>4</ele>
        <time>2024-12-26T09:00:28.046Z</time>
      </trkpt>
      <trkpt lat="46.7245" lon="-1.98443">
        <ele>4</ele>
        <time>2024-12-26T09:00:29.046Z</time>
      </trkpt>
      <trkpt lat="46.7245" lon="-1.98443">
        <ele>4</ele>
        <time>2024-12-26T09:00:30.046Z</time>
      </trkpt>
      <trkpt lat="46.7245" lon="-1.98443">
        <ele>4</ele>
        <time>2024-12-26T09:00:31.045Z</time>
      </trkpt>
      <trkpt lat="46.7245" lon="-1.98443">
        <ele>4</ele>
        <time>2024-12-26T09:00:32.045Z</time>
      </trkpt>
      <trkpt lat="46.7245" lon="-1.98443">
        <ele>4</ele>
        <time>2024-12-26T09:00:33.045Z</time>
      </trkpt>
      <trkpt lat="46.7245" lon="-1.98443">
        <ele>4</ele>
        <time>2024-12-26T09:00:34.045Z</time>
      </trkpt>
      <trkpt lat="46.7245" lon="-1.98443">
        <ele>4</ele>
        <time>2024-12-26T09:00:35.045Z</time>
      </trkpt>
      <trkpt lat="46.7245" lon="-1.98443">
        <ele>4</ele>
        <time>2024-12-26T09:00:36.045Z</time>
      </trkpt>
      <trkpt lat="46.7245" lon="-1.98443">
        <ele>4</ele>
        <time>2024-12-26T09:00:37.046Z</time>
      </trkpt>
      <trkpt lat="46.7245" lon="-1.98443">
        <ele>4</ele>
        <time>2024-12-26T09:00:38.046Z</time>
      </trkpt>
      <trkpt lat="46.7245" lon="-1.98443">
        <ele>4</ele>
        <time>2024-12-26T09:00:39.045Z</time>
      </trkpt>
      <trkpt lat="46.7245" lon="-1.98443">
        <ele>4</ele>
        <time>2024-12-26T09:00:40.046Z</time>
      </trkpt>
      <trkpt lat="46.7245" lon="-1.98443">
        <ele>4</ele>
        <time>2024-12-26T09:00:41.046Z</time>
      </trkpt>
      <trkpt lat="46.72449" lon="-1.98443">
        <ele>4</ele>
        <time>2024-12-26T09:00:42.046Z</time>
      </trkpt>
      <trkpt lat="46.72449" lon="-1.98443">
        <ele>4</ele>
        <time>2024-12-26T09:00:43.045Z</time>
      </trkpt>
      <trkpt lat="46.72449" lon="-1.98443">
        <ele>4</ele>
        <time>2024-12-26T09:00:44.045Z</time>
      </trkpt>
      <trkpt lat="46.72449" lon="-1.98443">
        <ele>4</ele>
        <time>2024-12-26T09:00:45.046Z</time>
      </trkpt>
      <trkpt lat="46.72449" lon="-1.98443">
        <ele>4</ele>
        <time>2024-12-26T09:00:46.046Z</time>
      </trkpt>
      <trkpt lat="46.72449" lon="-1.98443">
        <ele>4</ele>
        <time>2024-12-26T09:00:47.046Z</time>
      </trkpt>
      <trkpt lat="46.72449" lon="-1.98443">
        <ele>4</ele>
        <time>2024-12-26T09:00:48.046Z</time>
      </trkpt>
      <trkpt lat="46.72449" lon="-1.98443">
        <ele>4</ele>
        <time>2024-12-26T09:00:49.046Z</time>
      </trkpt>
      <trkpt lat="46.72448" lon="-1.98443">
        <ele>4</ele>
        <time>2024-12-26T09:00:50.046Z</time>
      </trkpt>
      <trkpt lat="46.72448" lon="-1.98443">
        <ele>4</ele>
        <time>2024-12-26T09:00:51.046Z</time>
      </trkpt>
      <trkpt lat="46.72448" lon="-1.98443">
        <ele>4</ele>
        <time>2024-12-26T09:00:52.045Z</time>
      </trkpt>
      <trkpt lat="46.72448" lon="-1.98443">
        <ele>4</ele>
        <time>2024-12-26T09:00:53.045Z</time>
      </trkpt>
      <trkpt lat="46.72448" lon="-1.98443">
        <ele>4</ele>
        <time>2024-12-26T09:00:54.045Z</time>
      </trkpt>
      <trkpt lat="46.72448" lon="-1.98442">
        <ele>4</ele>
        <time>2024-12-26T09:00:55.045Z</time>
      </trkpt>
      <trkpt lat="46.72447" lon="-1.98442">
        <ele>4</ele>
        <time>2024-12-26T09:00:56.045Z</time>
      </trkpt>
      <trkpt lat="46.72447" lon="-1.98442">
        <ele>4</ele>
        <time>2024-12-26T09:00:57.046Z</time>
      </trkpt>
      <trkpt lat="46.72447" lon="-1.98441">
        <ele>4</ele>
        <time>2024-12-26T09:00:58.046Z</time>
      </trkpt>
      <trkpt lat="46.72447" lon="-1.98441">
        <ele>4</ele>
        <time>2024-12-26T09:00:59.045Z</time>
      </trkpt>
      <trkpt lat="46.72447" lon="-1.98441">
        <ele>4</ele>
        <time>2024-12-26T09:01:00.045Z</time>
      </trkpt>
      <trkpt lat="46.72447" lon="-1.98441">
        <ele>4</ele>
        <time>2024-12-26T09:01:01.045Z</time>
      </trkpt>
      <trkpt lat="46.72447" lon="-1.98441">
        <ele>4</ele>
        <time>2024-12-26T09:01:02.045Z</time>
      </trkpt>
      <trkpt lat="46.72447" lon="-1.98441">
        <ele>4</ele>
        <time>2024-12-26T09:01:03.046Z</time>
      </trkpt>
      <trkpt lat="46.72447" lon="-1.98441">
        <ele>4</ele>
        <time>2024-12-26T09:01:04.046Z</time>
      </trkpt>
      <trkpt lat="46.72447" lon="-1.98441">
        <ele>4</ele>
        <time>2024-12-26T09:01:05.046Z</time>
      </trkpt>
      <trkpt lat="46.72447" lon="-1.98441">
        <ele>4</ele>
        <time>2024-12-26T09:01:06.046Z</time>
      </trkpt>
      <trkpt lat="46.72447" lon="-1.98441">
        <ele>4</ele>
        <time>2024-12-26T09:01:07.046Z</time>
      </trkpt>
      <trkpt lat="46.72446" lon="-1.98442">
        <ele>4</ele>
        <time>2024-12-26T09:01:08.046Z</time>
      </trkpt>
      <trkpt lat="46.72446" lon="-1.98441">
        <ele>4</ele>
        <time>2024-12-26T09:01:09.046Z</time>
      </trkpt>
      <trkpt lat="46.72448" lon="-1.98441">
        <ele>4</ele>
        <time>2024-12-26T09:01:10.046Z</time>
      </trkpt>
      <trkpt lat="46.72449" lon="-1.98441">
        <ele>4</ele>
        <time>2024-12-26T09:01:11.046Z</time>
      </trkpt>
      <trkpt lat="46.72449" lon="-1.98439">
        <ele>4</ele>
        <time>2024-12-26T09:01:12.046Z</time>
      </trkpt>
      <trkpt lat="46.72449" lon="-1.98439">
        <ele>4</ele>
        <time>2024-12-26T09:01:13.045Z</time>
      </trkpt>
      <trkpt lat="46.7245" lon="-1.98439">
        <ele>4</ele>
        <time>2024-12-26T09:01:14.045Z</time>
      </trkpt>
      <trkpt lat="46.72451" lon="-1.98439">
        <ele>4</ele>
        <time>2024-12-26T09:01:15.045Z</time>
      </trkpt>
      <trkpt lat="46.72451" lon="-1.98439">
        <ele>4</ele>
        <time>2024-12-26T09:01:16.045Z</time>
      </trkpt>
      <trkpt lat="46.72452" lon="-1.9844">
        <ele>4</ele>
        <time>2024-12-26T09:01:17.045Z</time>
      </trkpt>
      <trkpt lat="46.72452" lon="-1.9844">
        <ele>4</ele>
        <time>2024-12-26T09:01:18.045Z</time>
      </trkpt>
      <trkpt lat="46.72452" lon="-1.98439">
        <ele>4</ele>
        <time>2024-12-26T09:01:19.046Z</time>
      </trkpt>
      <trkpt lat="46.72452" lon="-1.98438">
        <ele>4</ele>
        <time>2024-12-26T09:01:20.045Z</time>
      </trkpt>
      <trkpt lat="46.72452" lon="-1.98437">
        <ele>4</ele>
        <time>2024-12-26T09:01:21.046Z</time>
      </trkpt>
      <trkpt lat="46.72452" lon="-1.98437">
        <ele>4</ele>
        <time>2024-12-26T09:01:22.046Z</time>
      </trkpt>
      <trkpt lat="46.72453" lon="-1.98437">
        <ele>4</ele>
        <time>2024-12-26T09:01:23.046Z</time>
      </trkpt>
      <trkpt lat="46.72453" lon="-1.98438">
        <ele>4</ele>
        <time>2024-12-26T09:01:24.046Z</time>
      </trkpt>
      <trkpt lat="46.72454" lon="-1.98438">
        <ele>4</ele>
        <time>2024-12-26T09:01:25.046Z</time>
      </trkpt>
      <trkpt lat="46.72454" lon="-1.98439">
        <ele>4</ele>
        <time>2024-12-26T09:01:26.046Z</time>
      </trkpt>
      <trkpt lat="46.72454" lon="-1.98439">
        <ele>4</ele>
        <time>2024-12-26T09:01:27.046Z</time>
      </trkpt>
      <trkpt lat="46.72454" lon="-1.98438">
        <ele>4</ele>
        <time>2024-12-26T09:01:28.045Z</time>
      </trkpt>
      <trkpt lat="46.72454" lon="-1.98438">
        <ele>4</ele>
        <time>2024-12-26T09:01:29.046Z</time>
      </trkpt>
      <trkpt lat="46.72454" lon="-1.98438">
        <ele>4</ele>
        <time>2024-12-26T09:01:30.045Z</time>
      </trkpt>
      <trkpt lat="46.72453" lon="-1.98438">
        <ele>4</ele>
        <time>2024-12-26T09:01:31.045Z</time>
      </trkpt>
      <trkpt lat="46.72453" lon="-1.98438">
        <ele>4</ele>
        <time>2024-12-26T09:01:32.046Z</time>
      </trkpt>
      <trkpt lat="46.72452" lon="-1.98438">
        <ele>4</ele>
        <time>2024-12-26T09:01:33.046Z</time>
      </trkpt>
      <trkpt lat="46.72452" lon="-1.98438">
        <ele>4</ele>
        <time>2024-12-26T09:01:34.045Z</time>
      </trkpt>
      <trkpt lat="46.72452" lon="-1.98438">
        <ele>4</ele>
        <time>2024-12-26T09:01:35.045Z</time>
      </trkpt>
      <trkpt lat="46.72452" lon="-1.98438">
        <ele>4</ele>
        <time>2024-12-26T09:01:36.045Z</time>
      </trkpt>
      <trkpt lat="46.72452" lon="-1.98438">
        <ele>4</ele>
        <time>2024-12-26T09:01:37.045Z</time>
      </trkpt>
      <trkpt lat="46.72452" lon="-1.98438">
        <ele>4</ele>
        <time>2024-12-26T09:01:38.046Z</time>
      </trkpt>
      <trkpt lat="46.72452" lon="-1.98438">
        <ele>4</ele>
        <time>2024-12-26T09:01:39.045Z</time>
      </trkpt>
      <trkpt lat="46.72452" lon="-1.98438">
        <ele>4</ele>
        <time>2024-12-26T09:01:40.046Z</time>
      </trkpt>
      <trkpt lat="46.72452" lon="-1.98438">
        <ele>4</ele>
        <time>2024-12-26T09:01:41.046Z</time>
      </trkpt>
      <trkpt lat="46.72452" lon="-1.98438">
        <ele>4</ele>
        <time>2024-12-26T09:01:42.046Z</time>
      </trkpt>
      <trkpt lat="46.72452" lon="-1.98438">
        <ele>4</ele>
        <time>2024-12-26T09:01:43.045Z</time>
      </trkpt>
      <trkpt lat="46.72452" lon="-1.98438">
        <ele>4</ele>
        <time>2024-12-26T09:01:44.045Z</time>
      </trkpt>
      <trkpt lat="46.72452" lon="-1.98438">
        <ele>4</ele>
        <time>2024-12-26T09:01:45.045Z</time>
      </trkpt>
      <trkpt lat="46.72452" lon="-1.98438">
        <ele>4</ele>
        <time>2024-12-26T09:01:46.046Z</time>
      </trkpt>
      <trkpt lat="46.72452" lon="-1.98438">
        <ele>4</ele>
        <time>2024-12-26T09:01:47.046Z</time>
      </trkpt>
      <trkpt lat="46.72452" lon="-1.98438">
        <ele>4</ele>
        <time>2024-12-26T09:01:48.046Z</time>
      </trkpt>
      <trkpt lat="46.72452" lon="-1.98438">
        <ele>4</ele>
        <time>2024-12-26T09:01:49.046Z</time>
      </trkpt>
      <trkpt lat="46.72452" lon="-1.98438">
        <ele>4</ele>
        <time>2024-12-26T09:01:50.045Z</time>
      </trkpt>
      <trkpt lat="46.72452" lon="-1.98438">
        <ele>4</ele>
        <time>2024-12-26T09:01:51.046Z</time>
      </trkpt>
      <trkpt lat="46.72452" lon="-1.98438">
        <ele>4</ele>
        <time>2024-12-26T09:01:52.046Z</time>
      </trkpt>
      <trkpt lat="46.72452" lon="-1.98438">
        <ele>4</ele>
        <time>2024-12-26T09:01:53.046Z</time>
      </trkpt>
      <trkpt lat="46.72451" lon="-1.98437">
        <ele>4</ele>
        <time>2024-12-26T09:01:54.045Z</time>
      </trkpt>
      <trkpt lat="46.72451" lon="-1.98437">
        <ele>4</ele>
        <time>2024-12-26T09:01:55.045Z</time>
      </trkpt>
      <trkpt lat="46.72451" lon="-1.98437">
        <ele>4</ele>
        <time>2024-12-26T09:01:56.045Z</time>
      </trkpt>
      <trkpt lat="46.72451" lon="-1.98437">
        <ele>4</ele>
        <time>2024-12-26T09:01:57.045Z</time>
      </trkpt>
      <trkpt lat="46.72451" lon="-1.98437">
        <ele>4</ele>
        <time>2024-12-26T09:01:58.045Z</time>
      </trkpt>
      <trkpt lat="46.72451" lon="-1.98437">
        <ele>4</ele>
        <time>2024-12-26T09:01:59.045Z</time>
      </trkpt>
      <trkpt lat="46.72451" lon="-1.98437">
        <ele>4</ele>
        <time>2024-12-26T09:02:00.046Z</time>
      </trkpt>
      <trkpt lat="46.72451" lon="-1.98437">
        <ele>4</ele>
        <time>2024-12-26T09:02:01.046Z</time>
      </trkpt>
      <trkpt lat="46.72451" lon="-1.98437">
        <ele>4</ele>
        <time>2024-12-26T09:02:02.046Z</time>
      </trkpt>
      <trkpt lat="46.72451" lon="-1.98436">
        <ele>4</ele>
        <time>2024-12-26T09:02:03.046Z</time>
      </trkpt>
      <trkpt lat="46.72451" lon="-1.98436">
        <ele>4</ele>
        <time>2024-12-26T09:02:04.046Z</time>
      </trkpt>
      <trkpt lat="46.7245" lon="-1.98436">
        <ele>4</ele>
        <time>2024-12-26T09:02:05.046Z</time>
      </trkpt>
      <trkpt lat="46.7245" lon="-1.98436">
        <ele>4</ele>
        <time>2024-12-26T09:02:06.046Z</time>
      </trkpt>
      <trkpt lat="46.72449" lon="-1.98436">
        <ele>4</ele>
        <time>2024-12-26T09:02:07.046Z</time>
      </trkpt>
      <trkpt lat="46.72449" lon="-1.98436">
        <ele>4</ele>
        <time>2024-12-26T09:02:08.046Z</time>
      </trkpt>
      <trkpt lat="46.72449" lon="-1.98436">
        <ele>4</ele>
        <time>2024-12-26T09:02:09.046Z</time>
      </trkpt>
      <trkpt lat="46.72449" lon="-1.98436">
        <ele>4</ele>
        <time>2024-12-26T09:02:10.046Z</time>
      </trkpt>
      <trkpt lat="46.72449" lon="-1.98436">
        <ele>4</ele>
        <time>2024-12-26T09:02:11.046Z</time>
      </trkpt>
      <trkpt lat="46.72449" lon="-1.98436">
        <ele>4</ele>
        <time>2024-12-26T09:02:12.046Z</time>
      </trkpt>
      <trkpt lat="46.72449" lon="-1.98436">
        <ele>4</ele>
        <time>2024-12-26T09:02:13.046Z</time>
      </trkpt>
      <trkpt lat="46.72449" lon="-1.98436">
        <ele>4</ele>
        <time>2024-12-26T09:02:14.046Z</time>
      </trkpt>
      <trkpt lat="46.72449" lon="-1.98436">
        <ele>4</ele>
        <time>2024-12-26T09:02:15.045Z</time>
      </trkpt>
      <trkpt lat="46.72449" lon="-1.98436">
        <ele>4</ele>
        <time>2024-12-26T09:02:16.045Z</time>
      </trkpt>
      <trkpt lat="46.72449" lon="-1.98436">
        <ele>4</ele>
        <time>2024-12-26T09:02:17.045Z</time>
      </trkpt>
      <trkpt lat="46.72449" lon="-1.98436">
        <ele>4</ele>
        <time>2024-12-26T09:02:18.045Z</time>
      </trkpt>
      <trkpt lat="46.72449" lon="-1.98437">
        <ele>4</ele>
        <time>2024-12-26T09:02:19.045Z</time>
      </trkpt>
      <trkpt lat="46.72449" lon="-1.98437">
        <ele>4</ele>
        <time>2024-12-26T09:02:20.045Z</time>
      </trkpt>
      <trkpt lat="46.72448" lon="-1.98437">
        <ele>4</ele>
        <time>2024-12-26T09:02:21.046Z</time>
      </trkpt>
      <trkpt lat="46.72448" lon="-1.98437">
        <ele>4</ele>
        <time>2024-12-26T09:02:22.045Z</time>
      </trkpt>
      <trkpt lat="46.72448" lon="-1.98437">
        <ele>4</ele>
        <time>2024-12-26T09:02:23.046Z</time>
      </trkpt>
      <trkpt lat="46.72447" lon="-1.98437">
        <ele>4</ele>
        <time>2024-12-26T09:02:24.046Z</time>
      </trkpt>
      <trkpt lat="46.72447" lon="-1.98437">
        <ele>4</ele>
        <time>2024-12-26T09:02:25.045Z</time>
      </trkpt>
      <trkpt lat="46.72447" lon="-1.98437">
        <ele>4</ele>
        <time>2024-12-26T09:02:26.046Z</time>
      </trkpt>
      <trkpt lat="46.72447" lon="-1.98437">
        <ele>4</ele>
        <time>2024-12-26T09:02:27.045Z</time>
      </trkpt>
      <trkpt lat="46.72446" lon="-1.98437">
        <ele>4</ele>
        <time>2024-12-26T09:02:28.045Z</time>
      </trkpt>
      <trkpt lat="46.72446" lon="-1.98437">
        <ele>4</ele>
        <time>2024-12-26T09:02:29.046Z</time>
      </trkpt>
      <trkpt lat="46.72445" lon="-1.98437">
        <ele>4</ele>
        <time>2024-12-26T09:02:30.045Z</time>
      </trkpt>
      <trkpt lat="46.72445" lon="-1.98437">
        <ele>4</ele>
        <time>2024-12-26T09:02:31.045Z</time>
      </trkpt>
      <trkpt lat="46.72433" lon="-1.98436">
        <ele>4</ele>
        <time>2024-12-26T09:03:25.046Z</time>
      </trkpt>
      <trkpt lat="46.72431" lon="-1.98438">
        <ele>4</ele>
        <time>2024-12-26T09:03:26.045Z</time>
      </trkpt>
      <trkpt lat="46.72429" lon="-1.98439">
        <ele>4</ele>
        <time>2024-12-26T09:03:27.045Z</time>
      </trkpt>
      <trkpt lat="46.7243" lon="-1.98439">
        <ele>4</ele>
        <time>2024-12-26T09:03:28.045Z</time>
      </trkpt>
      <trkpt lat="46.72432" lon="-1.98433">
        <ele>4</ele>
        <time>2024-12-26T09:03:29.046Z</time>
      </trkpt>
      <trkpt lat="46.72435" lon="-1.98432">
        <ele>4</ele>
        <time>2024-12-26T09:03:30.046Z</time>
      </trkpt>
      <trkpt lat="46.72436" lon="-1.98433">
        <ele>4</ele>
        <time>2024-12-26T09:03:31.046Z</time>
      </trkpt>
      <trkpt lat="46.72437" lon="-1.98432">
        <ele>4</ele>
        <time>2024-12-26T09:03:32.046Z</time>
      </trkpt>
      <trkpt lat="46.72437" lon="-1.98432">
        <ele>4</ele>
        <time>2024-12-26T09:03:33.046Z</time>
      </trkpt>
      <trkpt lat="46.72438" lon="-1.98433">
        <ele>4</ele>
        <time>2024-12-26T09:03:34.045Z</time>
      </trkpt>
      <trkpt lat="46.72439" lon="-1.98433">
        <ele>4</ele>
        <time>2024-12-26T09:03:35.046Z</time>
      </trkpt>
      <trkpt lat="46.7244" lon="-1.98433">
        <ele>4</ele>
        <time>2024-12-26T09:03:36.046Z</time>
      </trkpt>
      <trkpt lat="46.7244" lon="-1.98433">
        <ele>4</ele>
        <time>2024-12-26T09:03:37.046Z</time>
      </trkpt>
      <trkpt lat="46.72441" lon="-1.98433">
        <ele>4</ele>
        <time>2024-12-26T09:03:38.045Z</time>
      </trkpt>
      <trkpt lat="46.72441" lon="-1.98433">
        <ele>4</ele>
        <time>2024-12-26T09:03:39.046Z</time>
      </trkpt>
      <trkpt lat="46.72441" lon="-1.98433">
        <ele>4</ele>
        <time>2024-12-26T09:03:40.046Z</time>
      </trkpt>
      <trkpt lat="46.72441" lon="-1.98433">
        <ele>4</ele>
        <time>2024-12-26T09:03:41.045Z</time>
      </trkpt>
      <trkpt lat="46.72442" lon="-1.98434">
        <ele>4</ele>
        <time>2024-12-26T09:03:42.045Z</time>
      </trkpt>
      <trkpt lat="46.72442" lon="-1.98435">
        <ele>4</ele>
        <time>2024-12-26T09:03:43.045Z</time>
      </trkpt>
      <trkpt lat="46.72442" lon="-1.98435">
        <ele>4</ele>
        <time>2024-12-26T09:03:44.046Z</time>
      </trkpt>
      <trkpt lat="46.72442" lon="-1.98435">
        <ele>4</ele>
        <time>2024-12-26T09:03:45.045Z</time>
      </trkpt>
      <trkpt lat="46.72442" lon="-1.98435">
        <ele>4</ele>
        <time>2024-12-26T09:03:46.045Z</time>
      </trkpt>
      <trkpt lat="46.72442" lon="-1.98436">
        <ele>4</ele>
        <time>2024-12-26T09:03:47.045Z</time>
      </trkpt>
      <trkpt lat="46.72442" lon="-1.98436">
        <ele>4</ele>
        <time>2024-12-26T09:03:48.045Z</time>
      </trkpt>
      <trkpt lat="46.72442" lon="-1.98436">
        <ele>4</ele>
        <time>2024-12-26T09:03:49.045Z</time>
      </trkpt>
      <trkpt lat="46.72442" lon="-1.98436">
        <ele>4</ele>
        <time>2024-12-26T09:03:50.046Z</time>
      </trkpt>
      <trkpt lat="46.72442" lon="-1.98436">
        <ele>4</ele>
        <time>2024-12-26T09:03:51.046Z</time>
      </trkpt>
      <trkpt lat="46.72442" lon="-1.98437">
        <ele>4</ele>
        <time>2024-12-26T09:03:52.046Z</time>
      </trkpt>
      <trkpt lat="46.72442" lon="-1.98436">
        <ele>4</ele>
        <time>2024-12-26T09:03:53.046Z</time>
      </trkpt>
      <trkpt lat="46.72442" lon="-1.98436">
        <ele>4</ele>
        <time>2024-12-26T09:03:54.045Z</time>
      </trkpt>
      <trkpt lat="46.72444" lon="-1.98435">
        <ele>4</ele>
        <time>2024-12-26T09:03:55.046Z</time>
      </trkpt>
      <trkpt lat="46.72445" lon="-1.98435">
        <ele>4</ele>
        <time>2024-12-26T09:03:56.045Z</time>
      </trkpt>
      <trkpt lat="46.72445" lon="-1.98435">
        <ele>4</ele>
        <time>2024-12-26T09:03:57.045Z</time>
      </trkpt>
      <trkpt lat="46.72445" lon="-1.98434">
        <ele>4</ele>
        <time>2024-12-26T09:03:58.045Z</time>
      </trkpt>
      <trkpt lat="46.72445" lon="-1.98435">
        <ele>4</ele>
        <time>2024-12-26T09:03:59.046Z</time>
      </trkpt>
      <trkpt lat="46.72445" lon="-1.98434">
        <ele>4</ele>
        <time>2024-12-26T09:04:00.045Z</time>
      </trkpt>
      <trkpt lat="46.72446" lon="-1.98434">
        <ele>4</ele>
        <time>2024-12-26T09:04:01.046Z</time>
      </trkpt>
      <trkpt lat="46.72446" lon="-1.98434">
        <ele>4</ele>
        <time>2024-12-26T09:04:02.046Z</time>
      </trkpt>
      <trkpt lat="46.72445" lon="-1.98434">
        <ele>4</ele>
        <time>2024-12-26T09:04:03.046Z</time>
      </trkpt>
      <trkpt lat="46.72446" lon="-1.98434">
        <ele>4</ele>
        <time>2024-12-26T09:04:04.046Z</time>
      </trkpt>
      <trkpt lat="46.72445" lon="-1.98433">
        <ele>4</ele>
        <time>2024-12-26T09:04:05.045Z</time>
      </trkpt>
      <trkpt lat="46.72444" lon="-1.98432">
        <ele>4</ele>
        <time>2024-12-26T09:04:06.046Z</time>
      </trkpt>
      <trkpt lat="46.72444" lon="-1.98432">
        <ele>4</ele>
        <time>2024-12-26T09:04:07.046Z</time>
      </trkpt>
      <trkpt lat="46.72443" lon="-1.98432">
        <ele>4</ele>
        <time>2024-12-26T09:04:08.046Z</time>
      </trkpt>
      <trkpt lat="46.72443" lon="-1.98431">
        <ele>4</ele>
        <time>2024-12-26T09:04:09.046Z</time>
      </trkpt>
      <trkpt lat="46.72443" lon="-1.98431">
        <ele>4</ele>
        <time>2024-12-26T09:04:10.046Z</time>
      </trkpt>
      <trkpt lat="46.72443" lon="-1.98432">
        <ele>4</ele>
        <time>2024-12-26T09:04:11.046Z</time>
      </trkpt>
      <trkpt lat="46.72443" lon="-1.98433">
        <ele>4</ele>
        <time>2024-12-26T09:04:12.046Z</time>
      </trkpt>
      <trkpt lat="46.72443" lon="-1.98433">
        <ele>4</ele>
        <time>2024-12-26T09:04:13.046Z</time>
      </trkpt>
      <trkpt lat="46.72444" lon="-1.98433">
        <ele>4</ele>
        <time>2024-12-26T09:04:14.045Z</time>
      </trkpt>
      <trkpt lat="46.72444" lon="-1.98433">
        <ele>4</ele>
        <time>2024-12-26T09:04:15.046Z</time>
      </trkpt>
      <trkpt lat="46.72444" lon="-1.98434">
        <ele>4</ele>
        <time>2024-12-26T09:04:16.045Z</time>
      </trkpt>
      <trkpt lat="46.72444" lon="-1.98434">
        <ele>4</ele>
        <time>2024-12-26T09:04:17.045Z</time>
      </trkpt>
      <trkpt lat="46.72444" lon="-1.98434">
        <ele>4</ele>
        <time>2024-12-26T09:04:18.045Z</time>
      </trkpt>
      <trkpt lat="46.72444" lon="-1.98434">
        <ele>4</ele>
        <time>2024-12-26T09:04:19.046Z</time>
      </trkpt>
      <trkpt lat="46.72444" lon="-1.98434">
        <ele>4</ele>
        <time>2024-12-26T09:04:20.045Z</time>
      </trkpt>
      <trkpt lat="46.72444" lon="-1.98434">
        <ele>4</ele>
        <time>2024-12-26T09:04:21.045Z</time>
      </trkpt>
      <trkpt lat="46.72444" lon="-1.98434">
        <ele>4</ele>
        <time>2024-12-26T09:04:22.046Z</time>
      </trkpt>
      <trkpt lat="46.72444" lon="-1.98434">
        <ele>4</ele>
        <time>2024-12-26T09:04:23.045Z</time>
      </trkpt>
      <trkpt lat="46.72444" lon="-1.98434">
        <ele>4</ele>
        <time>2024-12-26T09:04:24.046Z</time>
      </trkpt>
      <trkpt lat="46.72444" lon="-1.98434">
        <ele>4</ele>
        <time>2024-12-26T09:04:25.046Z</time>
      </trkpt>
      <trkpt lat="46.72444" lon="-1.98433">
        <ele>4</ele>
        <time>2024-12-26T09:04:26.045Z</time>
      </trkpt>
      <trkpt lat="46.72443" lon="-1.98431">
        <ele>4</ele>
        <time>2024-12-26T09:04:27.046Z</time>
      </trkpt>
      <trkpt lat="46.72443" lon="-1.98428">
        <ele>4</ele>
        <time>2024-12-26T09:04:28.046Z</time>
      </trkpt>
      <trkpt lat="46.72442" lon="-1.98426">
        <ele>4</ele>
        <time>2024-12-26T09:04:29.045Z</time>
      </trkpt>
      <trkpt lat="46.72441" lon="-1.98423">
        <ele>4</ele>
        <time>2024-12-26T09:04:30.045Z</time>
      </trkpt>
      <trkpt lat="46.7244" lon="-1.98421">
        <ele>4</ele>
        <time>2024-12-26T09:04:31.045Z</time>
      </trkpt>
      <trkpt lat="46.7244" lon="-1.98419">
        <ele>4</ele>
        <time>2024-12-26T09:04:32.046Z</time>
      </trkpt>
      <trkpt lat="46.7244" lon="-1.98418">
        <ele>4</ele>
        <time>2024-12-26T09:04:33.046Z</time>
      </trkpt>
      <trkpt lat="46.72439" lon="-1.98416">
        <ele>4</ele>
        <time>2024-12-26T09:04:34.046Z</time>
      </trkpt>
      <trkpt lat="46.72439" lon="-1.98414">
        <ele>4.1</ele>
        <time>2024-12-26T09:04:35.045Z</time>
      </trkpt>
      <trkpt lat="46.72439" lon="-1.98412">
        <ele>4.2</ele>
        <time>2024-12-26T09:04:36.045Z</time>
      </trkpt>
      <trkpt lat="46.72439" lon="-1.9841">
        <ele>4.2</ele>
        <time>2024-12-26T09:04:37.045Z</time>
      </trkpt>
      <trkpt lat="46.72438" lon="-1.98408">
        <ele>4.3</ele>
        <time>2024-12-26T09:04:38.046Z</time>
      </trkpt>
      <trkpt lat="46.72438" lon="-1.98407">
        <ele>4.4</ele>
        <time>2024-12-26T09:04:39.045Z</time>
      </trkpt>
      <trkpt lat="46.72438" lon="-1.98405">
        <ele>4.4</ele>
        <time>2024-12-26T09:04:40.046Z</time>
      </trkpt>
      <trkpt lat="46.72438" lon="-1.98403">
        <ele>4.5</ele>
        <time>2024-12-26T09:04:41.045Z</time>
      </trkpt>
      <trkpt lat="46.72438" lon="-1.98402">
        <ele>4.5</ele>
        <time>2024-12-26T09:04:42.045Z</time>
      </trkpt>
      <trkpt lat="46.72437" lon="-1.984">
        <ele>4.6</ele>
        <time>2024-12-26T09:04:43.045Z</time>
      </trkpt>
      <trkpt lat="46.72437" lon="-1.98398">
        <ele>4.7</ele>
        <time>2024-12-26T09:04:44.046Z</time>
      </trkpt>
      <trkpt lat="46.72437" lon="-1.98398">
        <ele>4.7</ele>
        <time>2024-12-26T09:04:45.045Z</time>
      </trkpt>
      <trkpt lat="46.72436" lon="-1.98397">
        <ele>4.7</ele>
        <time>2024-12-26T09:04:46.046Z</time>
      </trkpt>
      <trkpt lat="46.72435" lon="-1.98396">
        <ele>4.7</ele>
        <time>2024-12-26T09:04:47.045Z</time>
      </trkpt>
      <trkpt lat="46.72435" lon="-1.98395">
        <ele>4.8</ele>
        <time>2024-12-26T09:04:48.046Z</time>
      </trkpt>
      <trkpt lat="46.72433" lon="-1.98394">
        <ele>4.8</ele>
        <time>2024-12-26T09:04:49.045Z</time>
      </trkpt>
      <trkpt lat="46.72433" lon="-1.98394">
        <ele>4.8</ele>
        <time>2024-12-26T09:04:50.046Z</time>
      </trkpt>
      <trkpt lat="46.72433" lon="-1.98392">
        <ele>4.9</ele>
        <time>2024-12-26T09:04:51.046Z</time>
      </trkpt>
      <trkpt lat="46.72432" lon="-1.9839">
        <ele>5</ele>
        <time>2024-12-26T09:04:52.046Z</time>
      </trkpt>
      <trkpt lat="46.72431" lon="-1.98388">
        <ele>5</ele>
        <time>2024-12-26T09:04:53.046Z</time>
      </trkpt>
      <trkpt lat="46.7243" lon="-1.98386">
        <ele>4.9</ele>
        <time>2024-12-26T09:04:54.046Z</time>
      </trkpt>
      <trkpt lat="46.72429" lon="-1.98384">
        <ele>4.8</ele>
        <time>2024-12-26T09:04:55.046Z</time>
      </trkpt>
      <trkpt lat="46.72428" lon="-1.98383">
        <ele>4.8</ele>
        <time>2024-12-26T09:04:56.046Z</time>
      </trkpt>
      <trkpt lat="46.72427" lon="-1.98381">
        <ele>4.7</ele>
        <time>2024-12-26T09:04:57.046Z</time>
      </trkpt>
      <trkpt lat="46.72426" lon="-1.98381">
        <ele>4.7</ele>
        <time>2024-12-26T09:04:58.046Z</time>
      </trkpt>
      <trkpt lat="46.72425" lon="-1.9838">
        <ele>4.7</ele>
        <time>2024-12-26T09:04:59.046Z</time>
      </trkpt>
      <trkpt lat="46.72423" lon="-1.98379">
        <ele>4.6</ele>
        <time>2024-12-26T09:05:00.046Z</time>
      </trkpt>
      <trkpt lat="46.72422" lon="-1.98377">
        <ele>4.6</ele>
        <time>2024-12-26T09:05:01.045Z</time>
      </trkpt>
      <trkpt lat="46.72422" lon="-1.98377">
        <ele>4.6</ele>
        <time>2024-12-26T09:05:02.046Z</time>
      </trkpt>
      <trkpt lat="46.72422" lon="-1.98376">
        <ele>4.5</ele>
        <time>2024-12-26T09:05:03.045Z</time>
      </trkpt>
      <trkpt lat="46.72421" lon="-1.98375">
        <ele>4.5</ele>
        <time>2024-12-26T09:05:04.046Z</time>
      </trkpt>
      <trkpt lat="46.72421" lon="-1.98374">
        <ele>4.4</ele>
        <time>2024-12-26T09:05:05.045Z</time>
      </trkpt>
      <trkpt lat="46.72421" lon="-1.98372">
        <ele>4.4</ele>
        <time>2024-12-26T09:05:06.045Z</time>
      </trkpt>
      <trkpt lat="46.72421" lon="-1.9837">
        <ele>4.3</ele>
        <time>2024-12-26T09:05:07.046Z</time>
      </trkpt>
      <trkpt lat="46.72421" lon="-1.98368">
        <ele>4.3</ele>
        <time>2024-12-26T09:05:08.045Z</time>
      </trkpt>
      <trkpt lat="46.72421" lon="-1.98367">
        <ele>4.2</ele>
        <time>2024-12-26T09:05:09.045Z</time>
      </trkpt>
      <trkpt lat="46.72421" lon="-1.98365">
        <ele>4.1</ele>
        <time>2024-12-26T09:05:10.046Z</time>
      </trkpt>
      <trkpt lat="46.72421" lon="-1.98362">
        <ele>4</ele>
        <time>2024-12-26T09:05:11.045Z</time>
      </trkpt>
      <trkpt lat="46.72422" lon="-1.9836">
        <ele>4</ele>
        <time>2024-12-26T09:05:12.045Z</time>
      </trkpt>
      <trkpt lat="46.72423" lon="-1.98358">
        <ele>4.1</ele>
        <time>2024-12-26T09:05:13.045Z</time>
      </trkpt>
      <trkpt lat="46.72424" lon="-1.98356">
        <ele>4.1</ele>
        <time>2024-12-26T09:05:14.046Z</time>
      </trkpt>
      <trkpt lat="46.72424" lon="-1.98355">
        <ele>4.2</ele>
        <time>2024-12-26T09:05:15.045Z</time>
      </trkpt>
      <trkpt lat="46.72424" lon="-1.98354">
        <ele>4.2</ele>
        <time>2024-12-26T09:05:16.046Z</time>
      </trkpt>
      <trkpt lat="46.72424" lon="-1.98352">
        <ele>4.2</ele>
        <time>2024-12-26T09:05:17.046Z</time>
      </trkpt>
      <trkpt lat="46.72424" lon="-1.9835">
        <ele>4.3</ele>
        <time>2024-12-26T09:05:18.046Z</time>
      </trkpt>
      <trkpt lat="46.72424" lon="-1.98348">
        <ele>4.4</ele>
        <time>2024-12-26T09:05:19.045Z</time>
      </trkpt>
      <trkpt lat="46.72423" lon="-1.98346">
        <ele>4.4</ele>
        <time>2024-12-26T09:05:20.045Z</time>
      </trkpt>
      <trkpt lat="46.72423" lon="-1.98344">
        <ele>4.5</ele>
        <time>2024-12-26T09:05:21.045Z</time>
      </trkpt>
      <trkpt lat="46.72423" lon="-1.98342">
        <ele>4.5</ele>
        <time>2024-12-26T09:05:22.046Z</time>
      </trkpt>
      <trkpt lat="46.72423" lon="-1.9834">
        <ele>4.6</ele>
        <time>2024-12-26T09:05:23.046Z</time>
      </trkpt>
      <trkpt lat="46.72424" lon="-1.98338">
        <ele>4.6</ele>
        <time>2024-12-26T09:05:24.046Z</time>
      </trkpt>
      <trkpt lat="46.72425" lon="-1.98334">
        <ele>4.7</ele>
        <time>2024-12-26T09:05:25.045Z</time>
      </trkpt>
      <trkpt lat="46.72425" lon="-1.98332">
        <ele>4.6</ele>
        <time>2024-12-26T09:05:26.045Z</time>
      </trkpt>
      <trkpt lat="46.72425" lon="-1.9833">
        <ele>4.6</ele>
        <time>2024-12-26T09:05:27.045Z</time>
      </trkpt>
      <trkpt lat="46.72425" lon="-1.98328">
        <ele>4.6</ele>
        <time>2024-12-26T09:05:28.045Z</time>
      </trkpt>
      <trkpt lat="46.72424" lon="-1.98328">
        <ele>4.6</ele>
        <time>2024-12-26T09:05:29.045Z</time>
      </trkpt>
      <trkpt lat="46.72424" lon="-1.98328">
        <ele>4.6</ele>
        <time>2024-12-26T09:05:30.045Z</time>
      </trkpt>
      <trkpt lat="46.72424" lon="-1.98328">
        <ele>4.6</ele>
        <time>2024-12-26T09:05:31.046Z</time>
      </trkpt>
      <trkpt lat="46.72423" lon="-1.98327">
        <ele>4.6</ele>
        <time>2024-12-26T09:05:32.046Z</time>
      </trkpt>
      <trkpt lat="46.72422" lon="-1.98326">
        <ele>4.6</ele>
        <time>2024-12-26T09:05:33.046Z</time>
      </trkpt>
      <trkpt lat="46.72421" lon="-1.98324">
        <ele>4.6</ele>
        <time>2024-12-26T09:05:34.046Z</time>
      </trkpt>
      <trkpt lat="46.72419" lon="-1.98323">
        <ele>4.6</ele>
        <time>2024-12-26T09:05:35.046Z</time>
      </trkpt>
      <trkpt lat="46.72419" lon="-1.98322">
        <ele>4.5</ele>
        <time>2024-12-26T09:05:36.046Z</time>
      </trkpt>
      <trkpt lat="46.7242" lon="-1.98322">
        <ele>4.5</ele>
        <time>2024-12-26T09:05:37.046Z</time>
      </trkpt>
      <trkpt lat="46.7242" lon="-1.98321">
        <ele>4.5</ele>
        <time>2024-12-26T09:05:38.045Z</time>
      </trkpt>
      <trkpt lat="46.7242" lon="-1.9832">
        <ele>4.5</ele>
        <time>2024-12-26T09:05:39.045Z</time>
      </trkpt>
      <trkpt lat="46.7242" lon="-1.98319">
        <ele>4.4</ele>
        <time>2024-12-26T09:05:40.046Z</time>
      </trkpt>
      <trkpt lat="46.7242" lon="-1.98318">
        <ele>4.4</ele>
        <time>2024-12-26T09:05:41.046Z</time>
      </trkpt>
      <trkpt lat="46.7242" lon="-1.98316">
        <ele>4.3</ele>
        <time>2024-12-26T09:05:42.046Z</time>
      </trkpt>
      <trkpt lat="46.7242" lon="-1.98314">
        <ele>4.3</ele>
        <time>2024-12-26T09:05:43.046Z</time>
      </trkpt>
      <trkpt lat="46.7242" lon="-1.98313">
        <ele>4.2</ele>
        <time>2024-12-26T09:05:44.046Z</time>
      </trkpt>
      <trkpt lat="46.7242" lon="-1.98311">
        <ele>4.2</ele>
        <time>2024-12-26T09:05:45.045Z</time>
      </trkpt>
      <trkpt lat="46.72419" lon="-1.98308">
        <ele>4.1</ele>
        <time>2024-12-26T09:05:46.045Z</time>
      </trkpt>
      <trkpt lat="46.72419" lon="-1.98307">
        <ele>4</ele>
        <time>2024-12-26T09:05:47.045Z</time>
      </trkpt>
      <trkpt lat="46.7242" lon="-1.98305">
        <ele>4.1</ele>
        <time>2024-12-26T09:05:48.045Z</time>
      </trkpt>
      <trkpt lat="46.72421" lon="-1.98303">
        <ele>4.2</ele>
        <time>2024-12-26T09:05:49.045Z</time>
      </trkpt>
      <trkpt lat="46.72422" lon="-1.98301">
        <ele>4.3</ele>
        <time>2024-12-26T09:05:50.046Z</time>
      </trkpt>
      <trkpt lat="46.72423" lon="-1.98299">
        <ele>4.4</ele>
        <time>2024-12-26T09:05:51.046Z</time>
      </trkpt>
      <trkpt lat="46.72423" lon="-1.98297">
        <ele>4.5</ele>
        <time>2024-12-26T09:05:52.046Z</time>
      </trkpt>
      <trkpt lat="46.72423" lon="-1.98295">
        <ele>4.6</ele>
        <time>2024-12-26T09:05:53.045Z</time>
      </trkpt>
      <trkpt lat="46.72423" lon="-1.98293">
        <ele>4.7</ele>
        <time>2024-12-26T09:05:54.045Z</time>
      </trkpt>
      <trkpt lat="46.72423" lon="-1.98292">
        <ele>4.7</ele>
        <time>2024-12-26T09:05:55.045Z</time>
      </trkpt>
      <trkpt lat="46.72421" lon="-1.98292">
        <ele>4.8</ele>
        <time>2024-12-26T09:05:56.046Z</time>
      </trkpt>
      <trkpt lat="46.7242" lon="-1.98291">
        <ele>4.9</ele>
        <time>2024-12-26T09:05:57.046Z</time>
      </trkpt>
      <trkpt lat="46.72419" lon="-1.9829">
        <ele>5</ele>
        <time>2024-12-26T09:05:58.046Z</time>
      </trkpt>
      <trkpt lat="46.72418" lon="-1.98288">
        <ele>5.2</ele>
        <time>2024-12-26T09:05:59.046Z</time>
      </trkpt>
      <trkpt lat="46.72418" lon="-1.98288">
        <ele>5.2</ele>
        <time>2024-12-26T09:06:00.046Z</time>
      </trkpt>
      <trkpt lat="46.72417" lon="-1.98287">
        <ele>5.3</ele>
        <time>2024-12-26T09:06:01.046Z</time>
      </trkpt>
      <trkpt lat="46.72415" lon="-1.98286">
        <ele>5.4</ele>
        <time>2024-12-26T09:06:02.045Z</time>
      </trkpt>
      <trkpt lat="46.72414" lon="-1.98286">
        <ele>5.4</ele>
        <time>2024-12-26T09:06:03.045Z</time>
      </trkpt>
      <trkpt lat="46.72413" lon="-1.98285">
        <ele>5.4</ele>
        <time>2024-12-26T09:06:04.045Z</time>
      </trkpt>
      <trkpt lat="46.72411" lon="-1.98284">
        <ele>5.5</ele>
        <time>2024-12-26T09:06:05.046Z</time>
      </trkpt>
      <trkpt lat="46.7241" lon="-1.98283">
        <ele>5.5</ele>
        <time>2024-12-26T09:06:06.045Z</time>
      </trkpt>
      <trkpt lat="46.72409" lon="-1.98282">
        <ele>5.5</ele>
        <time>2024-12-26T09:06:07.045Z</time>
      </trkpt>
      <trkpt lat="46.72408" lon="-1.98281">
        <ele>5.5</ele>
        <time>2024-12-26T09:06:08.046Z</time>
      </trkpt>
      <trkpt lat="46.72407" lon="-1.98279">
        <ele>5.6</ele>
        <time>2024-12-26T09:06:09.046Z</time>
      </trkpt>
      <trkpt lat="46.72406" lon="-1.98278">
        <ele>5.6</ele>
        <time>2024-12-26T09:06:10.046Z</time>
      </trkpt>
      <trkpt lat="46.72405" lon="-1.98276">
        <ele>5.5</ele>
        <time>2024-12-26T09:06:11.046Z</time>
      </trkpt>
      <trkpt lat="46.72403" lon="-1.98275">
        <ele>5.5</ele>
        <time>2024-12-26T09:06:12.046Z</time>
      </trkpt>
      <trkpt lat="46.72402" lon="-1.98274">
        <ele>5.4</ele>
        <time>2024-12-26T09:06:13.046Z</time>
      </trkpt>
      <trkpt lat="46.72401" lon="-1.98273">
        <ele>5.4</ele>
        <time>2024-12-26T09:06:14.046Z</time>
      </trkpt>
      <trkpt lat="46.72401" lon="-1.98272">
        <ele>5.3</ele>
        <time>2024-12-26T09:06:15.046Z</time>
      </trkpt>
      <trkpt lat="46.724" lon="-1.98271">
        <ele>5.3</ele>
        <time>2024-12-26T09:06:16.045Z</time>
      </trkpt>
      <trkpt lat="46.724" lon="-1.98268">
        <ele>5.3</ele>
        <time>2024-12-26T09:06:17.045Z</time>
      </trkpt>
      <trkpt lat="46.72399" lon="-1.98267">
        <ele>5.2</ele>
        <time>2024-12-26T09:06:18.045Z</time>
      </trkpt>
      <trkpt lat="46.72399" lon="-1.98266">
        <ele>5.2</ele>
        <time>2024-12-26T09:06:19.045Z</time>
      </trkpt>
      <trkpt lat="46.72398" lon="-1.98264">
        <ele>5.2</ele>
        <time>2024-12-26T09:06:20.045Z</time>
      </trkpt>
      <trkpt lat="46.72398" lon="-1.98262">
        <ele>5.1</ele>
        <time>2024-12-26T09:06:21.046Z</time>
      </trkpt>
      <trkpt lat="46.72398" lon="-1.9826">
        <ele>5.1</ele>
        <time>2024-12-26T09:06:22.046Z</time>
      </trkpt>
      <trkpt lat="46.72397" lon="-1.98258">
        <ele>5.1</ele>
        <time>2024-12-26T09:06:23.046Z</time>
      </trkpt>
      <trkpt lat="46.72397" lon="-1.98255">
        <ele>5.1</ele>
        <time>2024-12-26T09:06:24.045Z</time>
      </trkpt>
      <trkpt lat="46.72396" lon="-1.98254">
        <ele>5</ele>
        <time>2024-12-26T09:06:25.046Z</time>
      </trkpt>
      <trkpt lat="46.72396" lon="-1.98252">
        <ele>5</ele>
        <time>2024-12-26T09:06:26.046Z</time>
      </trkpt>
      <trkpt lat="46.72396" lon="-1.98251">
        <ele>5</ele>
        <time>2024-12-26T09:06:27.045Z</time>
      </trkpt>
      <trkpt lat="46.72395" lon="-1.98249">
        <ele>5</ele>
        <time>2024-12-26T09:06:28.046Z</time>
      </trkpt>
      <trkpt lat="46.72395" lon="-1.98248">
        <ele>4.9</ele>
        <time>2024-12-26T09:06:29.046Z</time>
      </trkpt>
      <trkpt lat="46.72394" lon="-1.98247">
        <ele>4.9</ele>
        <time>2024-12-26T09:06:30.045Z</time>
      </trkpt>
      <trkpt lat="46.72393" lon="-1.98246">
        <ele>4.9</ele>
        <time>2024-12-26T09:06:31.045Z</time>
      </trkpt>
      <trkpt lat="46.72393" lon="-1.98245">
        <ele>4.8</ele>
        <time>2024-12-26T09:06:32.045Z</time>
      </trkpt>
      <trkpt lat="46.72392" lon="-1.98243">
        <ele>4.8</ele>
        <time>2024-12-26T09:06:33.045Z</time>
      </trkpt>
      <trkpt lat="46.72392" lon="-1.98242">
        <ele>4.7</ele>
        <time>2024-12-26T09:06:34.045Z</time>
      </trkpt>
      <trkpt lat="46.72391" lon="-1.98241">
        <ele>4.7</ele>
        <time>2024-12-26T09:06:35.046Z</time>
      </trkpt>
      <trkpt lat="46.7239" lon="-1.98239">
        <ele>4.6</ele>
        <time>2024-12-26T09:06:36.046Z</time>
      </trkpt>
      <trkpt lat="46.72389" lon="-1.98238">
        <ele>4.6</ele>
        <time>2024-12-26T09:06:37.046Z</time>
      </trkpt>
      <trkpt lat="46.72387" lon="-1.98236">
        <ele>4.5</ele>
        <time>2024-12-26T09:06:38.046Z</time>
      </trkpt>
      <trkpt lat="46.72387" lon="-1.98234">
        <ele>4.5</ele>
        <time>2024-12-26T09:06:39.046Z</time>
      </trkpt>
      <trkpt lat="46.72386" lon="-1.98232">
        <ele>4.4</ele>
        <time>2024-12-26T09:06:40.046Z</time>
      </trkpt>
      <trkpt lat="46.72387" lon="-1.98231">
        <ele>4.4</ele>
        <time>2024-12-26T09:06:41.046Z</time>
      </trkpt>
      <trkpt lat="46.72387" lon="-1.9823">
        <ele>4.3</ele>
        <time>2024-12-26T09:06:42.045Z</time>
      </trkpt>
      <trkpt lat="46.72387" lon="-1.98229">
        <ele>4.3</ele>
        <time>2024-12-26T09:06:43.045Z</time>
      </trkpt>
      <trkpt lat="46.72388" lon="-1.98227">
        <ele>4.2</ele>
        <time>2024-12-26T09:06:44.045Z</time>
      </trkpt>
      <trkpt lat="46.72388" lon="-1.98225">
        <ele>4.1</ele>
        <time>2024-12-26T09:06:45.045Z</time>
      </trkpt>
      <trkpt lat="46.72388" lon="-1.98223">
        <ele>4.1</ele>
        <time>2024-12-26T09:06:46.045Z</time>
      </trkpt>
      <trkpt lat="46.72389" lon="-1.98222">
        <ele>4</ele>
        <time>2024-12-26T09:06:47.045Z</time>
      </trkpt>
      <trkpt lat="46.72389" lon="-1.98221">
        <ele>4</ele>
        <time>2024-12-26T09:06:48.046Z</time>
      </trkpt>
      <trkpt lat="46.72389" lon="-1.9822">
        <ele>4</ele>
        <time>2024-12-26T09:06:49.046Z</time>
      </trkpt>
      <trkpt lat="46.72389" lon="-1.98218">
        <ele>4</ele>
        <time>2024-12-26T09:06:50.046Z</time>
      </trkpt>
      <trkpt lat="46.72389" lon="-1.98217">
        <ele>4</ele>
        <time>2024-12-26T09:06:51.046Z</time>
      </trkpt>
      <trkpt lat="46.72389" lon="-1.98215">
        <ele>4</ele>
        <time>2024-12-26T09:06:52.046Z</time>
      </trkpt>
      <trkpt lat="46.7239" lon="-1.98214">
        <ele>4</ele>
        <time>2024-12-26T09:06:53.046Z</time>
      </trkpt>
      <trkpt lat="46.72389" lon="-1.98213">
        <ele>4</ele>
        <time>2024-12-26T09:06:54.046Z</time>
      </trkpt>
      <trkpt lat="46.7239" lon="-1.98213">
        <ele>4</ele>
        <time>2024-12-26T09:06:55.046Z</time>
      </trkpt>
      <trkpt lat="46.7239" lon="-1.98213">
        <ele>4</ele>
        <time>2024-12-26T09:06:56.045Z</time>
      </trkpt>
      <trkpt lat="46.72388" lon="-1.98214">
        <ele>4</ele>
        <time>2024-12-26T09:06:57.046Z</time>
      </trkpt>
      <trkpt lat="46.72388" lon="-1.98213">
        <ele>4</ele>
        <time>2024-12-26T09:06:58.046Z</time>
      </trkpt>
      <trkpt lat="46.72388" lon="-1.98214">
        <ele>4</ele>
        <time>2024-12-26T09:06:59.046Z</time>
      </trkpt>
      <trkpt lat="46.72388" lon="-1.98213">
        <ele>4</ele>
        <time>2024-12-26T09:07:00.045Z</time>
      </trkpt>
      <trkpt lat="46.72388" lon="-1.98211">
        <ele>4</ele>
        <time>2024-12-26T09:07:01.046Z</time>
      </trkpt>
      <trkpt lat="46.72389" lon="-1.9821">
        <ele>4</ele>
        <time>2024-12-26T09:07:02.046Z</time>
      </trkpt>
      <trkpt lat="46.72389" lon="-1.98209">
        <ele>4</ele>
        <time>2024-12-26T09:07:03.045Z</time>
      </trkpt>
      <trkpt lat="46.72389" lon="-1.98207">
        <ele>4</ele>
        <time>2024-12-26T09:07:04.046Z</time>
      </trkpt>
      <trkpt lat="46.7239" lon="-1.98206">
        <ele>4</ele>
        <time>2024-12-26T09:07:05.046Z</time>
      </trkpt>
      <trkpt lat="46.7239" lon="-1.98205">
        <ele>4</ele>
        <time>2024-12-26T09:07:06.046Z</time>
      </trkpt>
      <trkpt lat="46.7239" lon="-1.98204">
        <ele>4</ele>
        <time>2024-12-26T09:07:07.046Z</time>
      </trkpt>
      <trkpt lat="46.72391" lon="-1.98202">
        <ele>4</ele>
        <time>2024-12-26T09:07:08.046Z</time>
      </trkpt>
      <trkpt lat="46.72391" lon="-1.98202">
        <ele>4</ele>
        <time>2024-12-26T09:07:09.045Z</time>
      </trkpt>
      <trkpt lat="46.72391" lon="-1.98201">
        <ele>4</ele>
        <time>2024-12-26T09:07:10.045Z</time>
      </trkpt>
      <trkpt lat="46.72391" lon="-1.98201">
        <ele>4</ele>
        <time>2024-12-26T09:07:11.045Z</time>
      </trkpt>
      <trkpt lat="46.72392" lon="-1.98202">
        <ele>4</ele>
        <time>2024-12-26T09:07:12.045Z</time>
      </trkpt>
      <trkpt lat="46.72392" lon="-1.98202">
        <ele>4</ele>
        <time>2024-12-26T09:07:13.045Z</time>
      </trkpt>
      <trkpt lat="46.72391" lon="-1.98202">
        <ele>4</ele>
        <time>2024-12-26T09:07:14.046Z</time>
      </trkpt>
      <trkpt lat="46.72392" lon="-1.98203">
        <ele>4</ele>
        <time>2024-12-26T09:07:15.045Z</time>
      </trkpt>
      <trkpt lat="46.72391" lon="-1.98202">
        <ele>4</ele>
        <time>2024-12-26T09:07:16.046Z</time>
      </trkpt>
      <trkpt lat="46.72391" lon="-1.98201">
        <ele>4</ele>
        <time>2024-12-26T09:07:17.045Z</time>
      </trkpt>
      <trkpt lat="46.72391" lon="-1.98201">
        <ele>4</ele>
        <time>2024-12-26T09:07:18.045Z</time>
      </trkpt>
      <trkpt lat="46.7239" lon="-1.98201">
        <ele>4</ele>
        <time>2024-12-26T09:07:19.045Z</time>
      </trkpt>
      <trkpt lat="46.7239" lon="-1.98201">
        <ele>4</ele>
        <time>2024-12-26T09:07:20.046Z</time>
      </trkpt>
      <trkpt lat="46.7239" lon="-1.98201">
        <ele>4</ele>
        <time>2024-12-26T09:07:21.046Z</time>
      </trkpt>
      <trkpt lat="46.7239" lon="-1.982">
        <ele>4</ele>
        <time>2024-12-26T09:07:22.046Z</time>
      </trkpt>
      <trkpt lat="46.7239" lon="-1.98199">
        <ele>4</ele>
        <time>2024-12-26T09:07:23.046Z</time>
      </trkpt>
      <trkpt lat="46.7239" lon="-1.98198">
        <ele>4</ele>
        <time>2024-12-26T09:07:24.046Z</time>
      </trkpt>
      <trkpt lat="46.7239" lon="-1.98196">
        <ele>4</ele>
        <time>2024-12-26T09:07:25.046Z</time>
      </trkpt>
      <trkpt lat="46.72391" lon="-1.98194">
        <ele>4</ele>
        <time>2024-12-26T09:07:26.046Z</time>
      </trkpt>
      <trkpt lat="46.72391" lon="-1.98192">
        <ele>4</ele>
        <time>2024-12-26T09:07:27.046Z</time>
      </trkpt>
      <trkpt lat="46.72391" lon="-1.98191">
        <ele>4</ele>
        <time>2024-12-26T09:07:28.046Z</time>
      </trkpt>
      <trkpt lat="46.72391" lon="-1.98189">
        <ele>4</ele>
        <time>2024-12-26T09:07:29.045Z</time>
      </trkpt>
      <trkpt lat="46.72391" lon="-1.98189">
        <ele>4</ele>
        <time>2024-12-26T09:07:30.045Z</time>
      </trkpt>
      <trkpt lat="46.72391" lon="-1.98187">
        <ele>4</ele>
        <time>2024-12-26T09:07:31.046Z</time>
      </trkpt>
      <trkpt lat="46.72392" lon="-1.98185">
        <ele>4</ele>
        <time>2024-12-26T09:07:32.045Z</time>
      </trkpt>
      <trkpt lat="46.72392" lon="-1.98184">
        <ele>4</ele>
        <time>2024-12-26T09:07:33.046Z</time>
      </trkpt>
      <trkpt lat="46.72393" lon="-1.98183">
        <ele>4</ele>
        <time>2024-12-26T09:07:34.045Z</time>
      </trkpt>
      <trkpt lat="46.72393" lon="-1.98182">
        <ele>4</ele>
        <time>2024-12-26T09:07:35.046Z</time>
      </trkpt>
      <trkpt lat="46.72394" lon="-1.98181">
        <ele>4</ele>
        <time>2024-12-26T09:07:36.046Z</time>
      </trkpt>
      <trkpt lat="46.72394" lon="-1.9818">
        <ele>4</ele>
        <time>2024-12-26T09:07:37.045Z</time>
      </trkpt>
      <trkpt lat="46.72394" lon="-1.98178">
        <ele>4</ele>
        <time>2024-12-26T09:07:38.046Z</time>
      </trkpt>
      <trkpt lat="46.72394" lon="-1.98177">
        <ele>4</ele>
        <time>2024-12-26T09:07:39.045Z</time>
      </trkpt>
      <trkpt lat="46.72395" lon="-1.98175">
        <ele>4</ele>
        <time>2024-12-26T09:07:40.046Z</time>
      </trkpt>
      <trkpt lat="46.72396" lon="-1.98173">
        <ele>4</ele>
        <time>2024-12-26T09:07:41.046Z</time>
      </trkpt>
      <trkpt lat="46.72396" lon="-1.98171">
        <ele>4</ele>
        <time>2024-12-26T09:07:42.046Z</time>
      </trkpt>
      <trkpt lat="46.72397" lon="-1.98169">
        <ele>4</ele>
        <time>2024-12-26T09:07:43.046Z</time>
      </trkpt>
      <trkpt lat="46.72397" lon="-1.98167">
        <ele>4</ele>
        <time>2024-12-26T09:07:44.046Z</time>
      </trkpt>
      <trkpt lat="46.72398" lon="-1.98165">
        <ele>4.1</ele>
        <time>2024-12-26T09:07:45.046Z</time>
      </trkpt>
      <trkpt lat="46.72399" lon="-1.98162">
        <ele>4.2</ele>
        <time>2024-12-26T09:07:46.046Z</time>
      </trkpt>
      <trkpt lat="46.72399" lon="-1.98159">
        <ele>4.3</ele>
        <time>2024-12-26T09:07:47.045Z</time>
      </trkpt>
      <trkpt lat="46.724" lon="-1.98156">
        <ele>4.4</ele>
        <time>2024-12-26T09:07:48.046Z</time>
      </trkpt>
      <trkpt lat="46.72401" lon="-1.98154">
        <ele>4.5</ele>
        <time>2024-12-26T09:07:49.046Z</time>
      </trkpt>
      <trkpt lat="46.72402" lon="-1.98153">
        <ele>4.5</ele>
        <time>2024-12-26T09:07:50.046Z</time>
      </trkpt>
      <trkpt lat="46.72403" lon="-1.98151">
        <ele>4.6</ele>
        <time>2024-12-26T09:07:51.046Z</time>
      </trkpt>
      <trkpt lat="46.72403" lon="-1.98148">
        <ele>4.7</ele>
        <time>2024-12-26T09:07:52.046Z</time>
      </trkpt>
      <trkpt lat="46.72404" lon="-1.98146">
        <ele>4.8</ele>
        <time>2024-12-26T09:07:53.045Z</time>
      </trkpt>
      <trkpt lat="46.72404" lon="-1.98143">
        <ele>4.9</ele>
        <time>2024-12-26T09:07:54.046Z</time>
      </trkpt>
      <trkpt lat="46.72405" lon="-1.98141">
        <ele>4.9</ele>
        <time>2024-12-26T09:07:55.045Z</time>
      </trkpt>
      <trkpt lat="46.72405" lon="-1.98138">
        <ele>5</ele>
        <time>2024-12-26T09:07:56.046Z</time>
      </trkpt>
      <trkpt lat="46.72406" lon="-1.98137">
        <ele>5</ele>
        <time>2024-12-26T09:07:57.045Z</time>
      </trkpt>
      <trkpt lat="46.72407" lon="-1.98135">
        <ele>5</ele>
        <time>2024-12-26T09:07:58.046Z</time>
      </trkpt>
      <trkpt lat="46.72407" lon="-1.98133">
        <ele>5</ele>
        <time>2024-12-26T09:07:59.045Z</time>
      </trkpt>
      <trkpt lat="46.72407" lon="-1.98131">
        <ele>5</ele>
        <time>2024-12-26T09:08:00.045Z</time>
      </trkpt>
      <trkpt lat="46.72407" lon="-1.98128">
        <ele>5</ele>
        <time>2024-12-26T09:08:01.045Z</time>
      </trkpt>
      <trkpt lat="46.72406" lon="-1.98126">
        <ele>5</ele>
        <time>2024-12-26T09:08:02.045Z</time>
      </trkpt>
      <trkpt lat="46.72405" lon="-1.98124">
        <ele>5</ele>
        <time>2024-12-26T09:08:03.045Z</time>
      </trkpt>
      <trkpt lat="46.72406" lon="-1.98123">
        <ele>5</ele>
        <time>2024-12-26T09:08:04.045Z</time>
      </trkpt>
      <trkpt lat="46.72407" lon="-1.98122">
        <ele>5</ele>
        <time>2024-12-26T09:08:05.045Z</time>
      </trkpt>
      <trkpt lat="46.72409" lon="-1.98122">
        <ele>5</ele>
        <time>2024-12-26T09:08:06.046Z</time>
      </trkpt>
      <trkpt lat="46.72411" lon="-1.98121">
        <ele>5</ele>
        <time>2024-12-26T09:08:07.046Z</time>
      </trkpt>
      <trkpt lat="46.72411" lon="-1.98118">
        <ele>5</ele>
        <time>2024-12-26T09:08:08.046Z</time>
      </trkpt>
      <trkpt lat="46.72411" lon="-1.98115">
        <ele>5</ele>
        <time>2024-12-26T09:08:09.045Z</time>
      </trkpt>
      <trkpt lat="46.72412" lon="-1.98114">
        <ele>5</ele>
        <time>2024-12-26T09:08:10.046Z</time>
      </trkpt>
      <trkpt lat="46.72413" lon="-1.98113">
        <ele>5</ele>
        <time>2024-12-26T09:08:11.045Z</time>
      </trkpt>
      <trkpt lat="46.72414" lon="-1.9811">
        <ele>5</ele>
        <time>2024-12-26T09:08:12.045Z</time>
      </trkpt>
      <trkpt lat="46.72414" lon="-1.98108">
        <ele>5</ele>
        <time>2024-12-26T09:08:13.045Z</time>
      </trkpt>
      <trkpt lat="46.72415" lon="-1.98107">
        <ele>5</ele>
        <time>2024-12-26T09:08:14.045Z</time>
      </trkpt>
      <trkpt lat="46.72416" lon="-1.98105">
        <ele>5</ele>
        <time>2024-12-26T09:08:15.046Z</time>
      </trkpt>
      <trkpt lat="46.72416" lon="-1.98103">
        <ele>5</ele>
        <time>2024-12-26T09:08:16.046Z</time>
      </trkpt>
      <trkpt lat="46.72417" lon="-1.98102">
        <ele>5</ele>
        <time>2024-12-26T09:08:17.045Z</time>
      </trkpt>
      <trkpt lat="46.72418" lon="-1.98099">
        <ele>5</ele>
        <time>2024-12-26T09:08:18.045Z</time>
      </trkpt>
      <trkpt lat="46.72419" lon="-1.98097">
        <ele>5</ele>
        <time>2024-12-26T09:08:19.045Z</time>
      </trkpt>
      <trkpt lat="46.7242" lon="-1.98095">
        <ele>5</ele>
        <time>2024-12-26T09:08:20.045Z</time>
      </trkpt>
      <trkpt lat="46.72421" lon="-1.98093">
        <ele>4.9</ele>
        <time>2024-12-26T09:08:21.045Z</time>
      </trkpt>
      <trkpt lat="46.72421" lon="-1.98092">
        <ele>5</ele>
        <time>2024-12-26T09:08:22.045Z</time>
      </trkpt>
      <trkpt lat="46.72422" lon="-1.9809">
        <ele>5</ele>
        <time>2024-12-26T09:08:23.046Z</time>
      </trkpt>
      <trkpt lat="46.72423" lon="-1.98088">
        <ele>5</ele>
        <time>2024-12-26T09:08:24.046Z</time>
      </trkpt>
      <trkpt lat="46.72424" lon="-1.98086">
        <ele>5</ele>
        <time>2024-12-26T09:08:25.046Z</time>
      </trkpt>
      <trkpt lat="46.72424" lon="-1.98085">
        <ele>5</ele>
        <time>2024-12-26T09:08:26.046Z</time>
      </trkpt>
      <trkpt lat="46.72424" lon="-1.98083">
        <ele>5</ele>
        <time>2024-12-26T09:08:27.046Z</time>
      </trkpt>
      <trkpt lat="46.72425" lon="-1.98081">
        <ele>5</ele>
        <time>2024-12-26T09:08:28.046Z</time>
      </trkpt>
      <trkpt lat="46.72426" lon="-1.98079">
        <ele>5</ele>
        <time>2024-12-26T09:08:29.046Z</time>
      </trkpt>
      <trkpt lat="46.72427" lon="-1.98078">
        <ele>5</ele>
        <time>2024-12-26T09:08:30.046Z</time>
      </trkpt>
      <trkpt lat="46.72428" lon="-1.98076">
        <ele>5</ele>
        <time>2024-12-26T09:08:31.046Z</time>
      </trkpt>
      <trkpt lat="46.72429" lon="-1.98075">
        <ele>5</ele>
        <time>2024-12-26T09:08:32.045Z</time>
      </trkpt>
      <trkpt lat="46.7243" lon="-1.98073">
        <ele>5</ele>
        <time>2024-12-26T09:08:33.046Z</time>
      </trkpt>
      <trkpt lat="46.72432" lon="-1.98072">
        <ele>5</ele>
        <time>2024-12-26T09:08:34.046Z</time>
      </trkpt>
      <trkpt lat="46.72433" lon="-1.98071">
        <ele>5</ele>
        <time>2024-12-26T09:08:35.046Z</time>
      </trkpt>
      <trkpt lat="46.72434" lon="-1.98069">
        <ele>5</ele>
        <time>2024-12-26T09:08:36.046Z</time>
      </trkpt>
      <trkpt lat="46.72435" lon="-1.98068">
        <ele>5</ele>
        <time>2024-12-26T09:08:37.046Z</time>
      </trkpt>
      <trkpt lat="46.72436" lon="-1.98066">
        <ele>5</ele>
        <time>2024-12-26T09:08:38.046Z</time>
      </trkpt>
      <trkpt lat="46.72437" lon="-1.98065">
        <ele>5</ele>
        <time>2024-12-26T09:08:39.045Z</time>
      </trkpt>
      <trkpt lat="46.72438" lon="-1.98062">
        <ele>5</ele>
        <time>2024-12-26T09:08:40.046Z</time>
      </trkpt>
      <trkpt lat="46.72439" lon="-1.9806">
        <ele>5</ele>
        <time>2024-12-26T09:08:41.046Z</time>
      </trkpt>
      <trkpt lat="46.7244" lon="-1.98058">
        <ele>5</ele>
        <time>2024-12-26T09:08:42.046Z</time>
      </trkpt>
      <trkpt lat="46.72441" lon="-1.98056">
        <ele>5</ele>
        <time>2024-12-26T09:08:43.046Z</time>
      </trkpt>
      <trkpt lat="46.72441" lon="-1.98054">
        <ele>5</ele>
        <time>2024-12-26T09:08:44.046Z</time>
      </trkpt>
      <trkpt lat="46.72441" lon="-1.98052">
        <ele>5</ele>
        <time>2024-12-26T09:08:45.045Z</time>
      </trkpt>
      <trkpt lat="46.72441" lon="-1.9805">
        <ele>5</ele>
        <time>2024-12-26T09:08:46.045Z</time>
      </trkpt>
      <trkpt lat="46.7244" lon="-1.98048">
        <ele>5</ele>
        <time>2024-12-26T09:08:47.045Z</time>
      </trkpt>
      <trkpt lat="46.7244" lon="-1.98045">
        <ele>5</ele>
        <time>2024-12-26T09:08:48.045Z</time>
      </trkpt>
      <trkpt lat="46.72439" lon="-1.98043">
        <ele>5</ele>
        <time>2024-12-26T09:08:49.045Z</time>
      </trkpt>
      <trkpt lat="46.72439" lon="-1.9804">
        <ele>5</ele>
        <time>2024-12-26T09:08:50.045Z</time>
      </trkpt>
      <trkpt lat="46.72439" lon="-1.98039">
        <ele>5</ele>
        <time>2024-12-26T09:08:51.046Z</time>
      </trkpt>
      <trkpt lat="46.72439" lon="-1.98037">
        <ele>5</ele>
        <time>2024-12-26T09:08:52.046Z</time>
      </trkpt>
      <trkpt lat="46.72439" lon="-1.98035">
        <ele>5</ele>
        <time>2024-12-26T09:08:53.045Z</time>
      </trkpt>
      <trkpt lat="46.72439" lon="-1.98032">
        <ele>5</ele>
        <time>2024-12-26T09:08:54.045Z</time>
      </trkpt>
      <trkpt lat="46.7244" lon="-1.98031">
        <ele>5</ele>
        <time>2024-12-26T09:08:55.045Z</time>
      </trkpt>
      <trkpt lat="46.7244" lon="-1.9803">
        <ele>5</ele>
        <time>2024-12-26T09:08:56.045Z</time>
      </trkpt>
      <trkpt lat="46.7244" lon="-1.98028">
        <ele>5</ele>
        <time>2024-12-26T09:08:57.045Z</time>
      </trkpt>
      <trkpt lat="46.7244" lon="-1.98026">
        <ele>5</ele>
        <time>2024-12-26T09:08:58.046Z</time>
      </trkpt>
      <trkpt lat="46.7244" lon="-1.98025">
        <ele>5</ele>
        <time>2024-12-26T09:08:59.046Z</time>
      </trkpt>
      <trkpt lat="46.72439" lon="-1.98023">
        <ele>5</ele>
        <time>2024-12-26T09:09:00.046Z</time>
      </trkpt>
      <trkpt lat="46.72438" lon="-1.98021">
        <ele>5</ele>
        <time>2024-12-26T09:09:01.046Z</time>
      </trkpt>
      <trkpt lat="46.72437" lon="-1.98019">
        <ele>5</ele>
        <time>2024-12-26T09:09:02.045Z</time>
      </trkpt>
      <trkpt lat="46.72437" lon="-1.98017">
        <ele>5</ele>
        <time>2024-12-26T09:09:03.045Z</time>
      </trkpt>
      <trkpt lat="46.72436" lon="-1.98015">
        <ele>5</ele>
        <time>2024-12-26T09:09:04.046Z</time>
      </trkpt>
      <trkpt lat="46.72435" lon="-1.98013">
        <ele>5</ele>
        <time>2024-12-26T09:09:05.045Z</time>
      </trkpt>
      <trkpt lat="46.72435" lon="-1.98012">
        <ele>5</ele>
        <time>2024-12-26T09:09:06.045Z</time>
      </trkpt>
      <trkpt lat="46.72434" lon="-1.98009">
        <ele>5</ele>
        <time>2024-12-26T09:09:07.045Z</time>
      </trkpt>
      <trkpt lat="46.72434" lon="-1.98007">
        <ele>5</ele>
        <time>2024-12-26T09:09:08.045Z</time>
      </trkpt>
      <trkpt lat="46.72434" lon="-1.98005">
        <ele>5</ele>
        <time>2024-12-26T09:09:09.045Z</time>
      </trkpt>
      <trkpt lat="46.72434" lon="-1.98003">
        <ele>5</ele>
        <time>2024-12-26T09:09:10.046Z</time>
      </trkpt>
      <trkpt lat="46.72434" lon="-1.98001">
        <ele>5</ele>
        <time>2024-12-26T09:09:11.046Z</time>
      </trkpt>
      <trkpt lat="46.72433" lon="-1.97999">
        <ele>5</ele>
        <time>2024-12-26T09:09:12.045Z</time>
      </trkpt>
      <trkpt lat="46.72431" lon="-1.97997">
        <ele>5</ele>
        <time>2024-12-26T09:09:13.045Z</time>
      </trkpt>
      <trkpt lat="46.7243" lon="-1.97994">
        <ele>5</ele>
        <time>2024-12-26T09:09:14.045Z</time>
      </trkpt>
      <trkpt lat="46.72429" lon="-1.97992">
        <ele>5</ele>
        <time>2024-12-26T09:09:15.045Z</time>
      </trkpt>
      <trkpt lat="46.72429" lon="-1.9799">
        <ele>5</ele>
        <time>2024-12-26T09:09:16.046Z</time>
      </trkpt>
      <trkpt lat="46.72429" lon="-1.97987">
        <ele>5</ele>
        <time>2024-12-26T09:09:17.046Z</time>
      </trkpt>
      <trkpt lat="46.72429" lon="-1.97984">
        <ele>5</ele>
        <time>2024-12-26T09:09:18.046Z</time>
      </trkpt>
      <trkpt lat="46.72428" lon="-1.97982">
        <ele>5</ele>
        <time>2024-12-26T09:09:19.046Z</time>
      </trkpt>
      <trkpt lat="46.72428" lon="-1.97979">
        <ele>5</ele>
        <time>2024-12-26T09:09:20.046Z</time>
      </trkpt>
      <trkpt lat="46.72428" lon="-1.97977">
        <ele>5</ele>
        <time>2024-12-26T09:09:21.046Z</time>
      </trkpt>
      <trkpt lat="46.72428" lon="-1.97975">
        <ele>5</ele>
        <time>2024-12-26T09:09:22.046Z</time>
      </trkpt>
      <trkpt lat="46.72427" lon="-1.97974">
        <ele>5</ele>
        <time>2024-12-26T09:09:23.045Z</time>
      </trkpt>
      <trkpt lat="46.72427" lon="-1.97972">
        <ele>5</ele>
        <time>2024-12-26T09:09:24.045Z</time>
      </trkpt>
      <trkpt lat="46.72426" lon="-1.97969">
        <ele>5</ele>
        <time>2024-12-26T09:09:25.045Z</time>
      </trkpt>
      <trkpt lat="46.72425" lon="-1.97967">
        <ele>4.9</ele>
        <time>2024-12-26T09:09:26.045Z</time>
      </trkpt>
      <trkpt lat="46.72425" lon="-1.97965">
        <ele>4.9</ele>
        <time>2024-12-26T09:09:27.046Z</time>
      </trkpt>
      <trkpt lat="46.72424" lon="-1.97962">
        <ele>4.9</ele>
        <time>2024-12-26T09:09:28.046Z</time>
      </trkpt>
      <trkpt lat="46.72423" lon="-1.9796">
        <ele>4.9</ele>
        <time>2024-12-26T09:09:29.046Z</time>
      </trkpt>
      <trkpt lat="46.72423" lon="-1.97958">
        <ele>4.9</ele>
        <time>2024-12-26T09:09:30.045Z</time>
      </trkpt>
      <trkpt lat="46.72422" lon="-1.97956">
        <ele>4.9</ele>
        <time>2024-12-26T09:09:31.045Z</time>
      </trkpt>
      <trkpt lat="46.72421" lon="-1.97953">
        <ele>4.9</ele>
        <time>2024-12-26T09:09:32.045Z</time>
      </trkpt>
      <trkpt lat="46.7242" lon="-1.9795">
        <ele>4.9</ele>
        <time>2024-12-26T09:09:33.045Z</time>
      </trkpt>
      <trkpt lat="46.7242" lon="-1.97948">
        <ele>4.9</ele>
        <time>2024-12-26T09:09:34.046Z</time>
      </trkpt>
      <trkpt lat="46.7242" lon="-1.97946">
        <ele>4.9</ele>
        <time>2024-12-26T09:09:35.046Z</time>
      </trkpt>
      <trkpt lat="46.7242" lon="-1.97944">
        <ele>4.9</ele>
        <time>2024-12-26T09:09:36.045Z</time>
      </trkpt>
      <trkpt lat="46.72421" lon="-1.97942">
        <ele>4.9</ele>
        <time>2024-12-26T09:09:37.045Z</time>
      </trkpt>
      <trkpt lat="46.72421" lon="-1.97941">
        <ele>4.9</ele>
        <time>2024-12-26T09:09:38.045Z</time>
      </trkpt>
      <trkpt lat="46.72421" lon="-1.97939">
        <ele>4.9</ele>
        <time>2024-12-26T09:09:39.045Z</time>
      </trkpt>
      <trkpt lat="46.72421" lon="-1.97938">
        <ele>4.9</ele>
        <time>2024-12-26T09:09:40.046Z</time>
      </trkpt>
      <trkpt lat="46.72421" lon="-1.97936">
        <ele>4.9</ele>
        <time>2024-12-26T09:09:41.045Z</time>
      </trkpt>
      <trkpt lat="46.7242" lon="-1.97934">
        <ele>4.9</ele>
        <time>2024-12-26T09:09:42.045Z</time>
      </trkpt>
      <trkpt lat="46.72419" lon="-1.97932">
        <ele>5</ele>
        <time>2024-12-26T09:09:43.045Z</time>
      </trkpt>
      <trkpt lat="46.72418" lon="-1.97931">
        <ele>5</ele>
        <time>2024-12-26T09:09:44.045Z</time>
      </trkpt>
      <trkpt lat="46.7242" lon="-1.9793">
        <ele>5</ele>
        <time>2024-12-26T09:09:45.045Z</time>
      </trkpt>
      <trkpt lat="46.7242" lon="-1.97927">
        <ele>5</ele>
        <time>2024-12-26T09:09:46.045Z</time>
      </trkpt>
      <trkpt lat="46.72421" lon="-1.97926">
        <ele>4.9</ele>
        <time>2024-12-26T09:09:47.045Z</time>
      </trkpt>
      <trkpt lat="46.72422" lon="-1.97923">
        <ele>5</ele>
        <time>2024-12-26T09:09:48.045Z</time>
      </trkpt>
      <trkpt lat="46.72421" lon="-1.97921">
        <ele>5</ele>
        <time>2024-12-26T09:09:49.045Z</time>
      </trkpt>
      <trkpt lat="46.72422" lon="-1.9792">
        <ele>5</ele>
        <time>2024-12-26T09:09:50.045Z</time>
      </trkpt>
      <trkpt lat="46.72421" lon="-1.97919">
        <ele>5</ele>
        <time>2024-12-26T09:09:51.046Z</time>
      </trkpt>
      <trkpt lat="46.72422" lon="-1.97918">
        <ele>5</ele>
        <time>2024-12-26T09:09:52.046Z</time>
      </trkpt>
      <trkpt lat="46.72421" lon="-1.97917">
        <ele>5</ele>
        <time>2024-12-26T09:09:53.045Z</time>
      </trkpt>
      <trkpt lat="46.72421" lon="-1.97914">
        <ele>5</ele>
        <time>2024-12-26T09:09:54.045Z</time>
      </trkpt>
      <trkpt lat="46.72419" lon="-1.97912">
        <ele>5</ele>
        <time>2024-12-26T09:09:55.045Z</time>
      </trkpt>
      <trkpt lat="46.72418" lon="-1.9791">
        <ele>5</ele>
        <time>2024-12-26T09:09:56.045Z</time>
      </trkpt>
      <trkpt lat="46.72417" lon="-1.97909">
        <ele>5</ele>
        <time>2024-12-26T09:09:57.045Z</time>
      </trkpt>
      <trkpt lat="46.72417" lon="-1.97907">
        <ele>5</ele>
        <time>2024-12-26T09:09:58.045Z</time>
      </trkpt>
      <trkpt lat="46.72417" lon="-1.97906">
        <ele>5</ele>
        <time>2024-12-26T09:09:59.046Z</time>
      </trkpt>
      <trkpt lat="46.72417" lon="-1.97904">
        <ele>5</ele>
        <time>2024-12-26T09:10:00.046Z</time>
      </trkpt>
      <trkpt lat="46.72416" lon="-1.97903">
        <ele>5</ele>
        <time>2024-12-26T09:10:01.046Z</time>
      </trkpt>
      <trkpt lat="46.72416" lon="-1.97901">
        <ele>5</ele>
        <time>2024-12-26T09:10:02.046Z</time>
      </trkpt>
      <trkpt lat="46.72415" lon="-1.97899">
        <ele>5</ele>
        <time>2024-12-26T09:10:03.045Z</time>
      </trkpt>
      <trkpt lat="46.72415" lon="-1.97898">
        <ele>5</ele>
        <time>2024-12-26T09:10:04.045Z</time>
      </trkpt>
      <trkpt lat="46.72414" lon="-1.97896">
        <ele>5</ele>
        <time>2024-12-26T09:10:05.045Z</time>
      </trkpt>
      <trkpt lat="46.72414" lon="-1.97894">
        <ele>5</ele>
        <time>2024-12-26T09:10:06.045Z</time>
      </trkpt>
      <trkpt lat="46.72413" lon="-1.97893">
        <ele>5</ele>
        <time>2024-12-26T09:10:07.045Z</time>
      </trkpt>
      <trkpt lat="46.72414" lon="-1.97891">
        <ele>5</ele>
        <time>2024-12-26T09:10:08.045Z</time>
      </trkpt>
      <trkpt lat="46.72415" lon="-1.9789">
        <ele>5</ele>
        <time>2024-12-26T09:10:09.046Z</time>
      </trkpt>
      <trkpt lat="46.72416" lon="-1.97889">
        <ele>5</ele>
        <time>2024-12-26T09:10:10.045Z</time>
      </trkpt>
      <trkpt lat="46.72416" lon="-1.97887">
        <ele>5</ele>
        <time>2024-12-26T09:10:11.046Z</time>
      </trkpt>
      <trkpt lat="46.72417" lon="-1.97885">
        <ele>5</ele>
        <time>2024-12-26T09:10:12.045Z</time>
      </trkpt>
      <trkpt lat="46.72417" lon="-1.97883">
        <ele>5</ele>
        <time>2024-12-26T09:10:13.046Z</time>
      </trkpt>
      <trkpt lat="46.72418" lon="-1.97881">
        <ele>5</ele>
        <time>2024-12-26T09:10:14.046Z</time>
      </trkpt>
      <trkpt lat="46.72418" lon="-1.97878">
        <ele>5</ele>
        <time>2024-12-26T09:10:15.046Z</time>
      </trkpt>
      <trkpt lat="46.72419" lon="-1.97876">
        <ele>5</ele>
        <time>2024-12-26T09:10:16.046Z</time>
      </trkpt>
      <trkpt lat="46.72419" lon="-1.97874">
        <ele>5</ele>
        <time>2024-12-26T09:10:17.045Z</time>
      </trkpt>
      <trkpt lat="46.7242" lon="-1.97873">
        <ele>5</ele>
        <time>2024-12-26T09:10:18.046Z</time>
      </trkpt>
      <trkpt lat="46.7242" lon="-1.97871">
        <ele>5</ele>
        <time>2024-12-26T09:10:19.046Z</time>
      </trkpt>
      <trkpt lat="46.7242" lon="-1.97869">
        <ele>5</ele>
        <time>2024-12-26T09:10:20.046Z</time>
      </trkpt>
      <trkpt lat="46.7242" lon="-1.97867">
        <ele>5</ele>
        <time>2024-12-26T09:10:21.045Z</time>
      </trkpt>
      <trkpt lat="46.72421" lon="-1.97865">
        <ele>5</ele>
        <time>2024-12-26T09:10:22.045Z</time>
      </trkpt>
      <trkpt lat="46.72421" lon="-1.97864">
        <ele>5</ele>
        <time>2024-12-26T09:10:23.046Z</time>
      </trkpt>
      <trkpt lat="46.72422" lon="-1.97863">
        <ele>5</ele>
        <time>2024-12-26T09:10:24.045Z</time>
      </trkpt>
      <trkpt lat="46.72422" lon="-1.97862">
        <ele>5</ele>
        <time>2024-12-26T09:10:25.045Z</time>
      </trkpt>
      <trkpt lat="46.72422" lon="-1.97861">
        <ele>5</ele>
        <time>2024-12-26T09:10:26.046Z</time>
      </trkpt>
      <trkpt lat="46.72422" lon="-1.9786">
        <ele>5</ele>
        <time>2024-12-26T09:10:27.045Z</time>
      </trkpt>
      <trkpt lat="46.72422" lon="-1.97858">
        <ele>5</ele>
        <time>2024-12-26T09:10:28.046Z</time>
      </trkpt>
      <trkpt lat="46.72422" lon="-1.97856">
        <ele>5</ele>
        <time>2024-12-26T09:10:29.046Z</time>
      </trkpt>
      <trkpt lat="46.72423" lon="-1.97855">
        <ele>5</ele>
        <time>2024-12-26T09:10:30.046Z</time>
      </trkpt>
      <trkpt lat="46.72423" lon="-1.97853">
        <ele>5.1</ele>
        <time>2024-12-26T09:10:31.046Z</time>
      </trkpt>
      <trkpt lat="46.72424" lon="-1.97852">
        <ele>5.1</ele>
        <time>2024-12-26T09:10:32.046Z</time>
      </trkpt>
      <trkpt lat="46.72425" lon="-1.97849">
        <ele>5.1</ele>
        <time>2024-12-26T09:10:33.046Z</time>
      </trkpt>
      <trkpt lat="46.72426" lon="-1.97847">
        <ele>5.2</ele>
        <time>2024-12-26T09:10:34.045Z</time>
      </trkpt>
      <trkpt lat="46.72426" lon="-1.97845">
        <ele>5.2</ele>
        <time>2024-12-26T09:10:35.046Z</time>
      </trkpt>
      <trkpt lat="46.72427" lon="-1.97843">
        <ele>5.2</ele>
        <time>2024-12-26T09:10:36.046Z</time>
      </trkpt>
      <trkpt lat="46.72427" lon="-1.97841">
        <ele>5.3</ele>
        <time>2024-12-26T09:10:37.046Z</time>
      </trkpt>
      <trkpt lat="46.72427" lon="-1.97839">
        <ele>5.3</ele>
        <time>2024-12-26T09:10:38.046Z</time>
      </trkpt>
      <trkpt lat="46.72427" lon="-1.97838">
        <ele>5.3</ele>
        <time>2024-12-26T09:10:39.045Z</time>
      </trkpt>
      <trkpt lat="46.72428" lon="-1.97836">
        <ele>5.4</ele>
        <time>2024-12-26T09:10:40.045Z</time>
      </trkpt>
      <trkpt lat="46.72428" lon="-1.97835">
        <ele>5.4</ele>
        <time>2024-12-26T09:10:41.045Z</time>
      </trkpt>
      <trkpt lat="46.72428" lon="-1.97834">
        <ele>5.4</ele>
        <time>2024-12-26T09:10:42.045Z</time>
      </trkpt>
      <trkpt lat="46.72429" lon="-1.97832">
        <ele>5.4</ele>
        <time>2024-12-26T09:10:43.045Z</time>
      </trkpt>
      <trkpt lat="46.7243" lon="-1.97831">
        <ele>5.5</ele>
        <time>2024-12-26T09:10:44.046Z</time>
      </trkpt>
      <trkpt lat="46.72431" lon="-1.97829">
        <ele>5.5</ele>
        <time>2024-12-26T09:10:45.046Z</time>
      </trkpt>
      <trkpt lat="46.72432" lon="-1.97827">
        <ele>5.5</ele>
        <time>2024-12-26T09:10:46.045Z</time>
      </trkpt>
      <trkpt lat="46.72433" lon="-1.97826">
        <ele>5.5</ele>
        <time>2024-12-26T09:10:47.045Z</time>
      </trkpt>
      <trkpt lat="46.72433" lon="-1.97825">
        <ele>5.5</ele>
        <time>2024-12-26T09:10:48.045Z</time>
      </trkpt>
      <trkpt lat="46.72433" lon="-1.97825">
        <ele>5.5</ele>
        <time>2024-12-26T09:10:49.046Z</time>
      </trkpt>
      <trkpt lat="46.72433" lon="-1.97825">
        <ele>5.5</ele>
        <time>2024-12-26T09:10:50.046Z</time>
      </trkpt>
      <trkpt lat="46.72434" lon="-1.97824">
        <ele>5.5</ele>
        <time>2024-12-26T09:10:51.045Z</time>
      </trkpt>
      <trkpt lat="46.72435" lon="-1.97823">
        <ele>5.5</ele>
        <time>2024-12-26T09:10:52.045Z</time>
      </trkpt>
      <trkpt lat="46.72436" lon="-1.97822">
        <ele>5.5</ele>
        <time>2024-12-26T09:10:53.045Z</time>
      </trkpt>
      <trkpt lat="46.72437" lon="-1.97821">
        <ele>5.5</ele>
        <time>2024-12-26T09:10:54.046Z</time>
      </trkpt>
      <trkpt lat="46.72438" lon="-1.9782">
        <ele>5.5</ele>
        <time>2024-12-26T09:10:55.046Z</time>
      </trkpt>
      <trkpt lat="46.72439" lon="-1.97819">
        <ele>5.5</ele>
        <time>2024-12-26T09:10:56.046Z</time>
      </trkpt>
      <trkpt lat="46.7244" lon="-1.97818">
        <ele>5.5</ele>
        <time>2024-12-26T09:10:57.046Z</time>
      </trkpt>
      <trkpt lat="46.72441" lon="-1.97817">
        <ele>5.4</ele>
        <time>2024-12-26T09:10:58.046Z</time>
      </trkpt>
      <trkpt lat="46.72442" lon="-1.97815">
        <ele>5.4</ele>
        <time>2024-12-26T09:10:59.045Z</time>
      </trkpt>
      <trkpt lat="46.72443" lon="-1.97814">
        <ele>5.3</ele>
        <time>2024-12-26T09:11:00.045Z</time>
      </trkpt>
      <trkpt lat="46.72444" lon="-1.97812">
        <ele>5.2</ele>
        <time>2024-12-26T09:11:01.045Z</time>
      </trkpt>
      <trkpt lat="46.72445" lon="-1.97811">
        <ele>5.2</ele>
        <time>2024-12-26T09:11:02.045Z</time>
      </trkpt>
      <trkpt lat="46.72446" lon="-1.9781">
        <ele>5.1</ele>
        <time>2024-12-26T09:11:03.045Z</time>
      </trkpt>
      <trkpt lat="46.72447" lon="-1.97809">
        <ele>5.1</ele>
        <time>2024-12-26T09:11:04.045Z</time>
      </trkpt>
      <trkpt lat="46.72447" lon="-1.97808">
        <ele>5.1</ele>
        <time>2024-12-26T09:11:05.045Z</time>
      </trkpt>
      <trkpt lat="46.72448" lon="-1.97807">
        <ele>5</ele>
        <time>2024-12-26T09:11:06.045Z</time>
      </trkpt>
      <trkpt lat="46.72449" lon="-1.97806">
        <ele>5</ele>
        <time>2024-12-26T09:11:07.045Z</time>
      </trkpt>
      <trkpt lat="46.7245" lon="-1.97805">
        <ele>5</ele>
        <time>2024-12-26T09:11:08.046Z</time>
      </trkpt>
      <trkpt lat="46.72451" lon="-1.97804">
        <ele>5</ele>
        <time>2024-12-26T09:11:09.046Z</time>
      </trkpt>
      <trkpt lat="46.72452" lon="-1.97803">
        <ele>5</ele>
        <time>2024-12-26T09:11:10.045Z</time>
      </trkpt>
      <trkpt lat="46.72452" lon="-1.97802">
        <ele>5</ele>
        <time>2024-12-26T09:11:11.045Z</time>
      </trkpt>
      <trkpt lat="46.72453" lon="-1.97801">
        <ele>5</ele>
        <time>2024-12-26T09:11:12.046Z</time>
      </trkpt>
      <trkpt lat="46.72455" lon="-1.97799">
        <ele>5</ele>
        <time>2024-12-26T09:11:13.045Z</time>
      </trkpt>
      <trkpt lat="46.72456" lon="-1.97798">
        <ele>5</ele>
        <time>2024-12-26T09:11:14.046Z</time>
      </trkpt>
      <trkpt lat="46.72457" lon="-1.97796">
        <ele>5</ele>
        <time>2024-12-26T09:11:15.046Z</time>
      </trkpt>
      <trkpt lat="46.72459" lon="-1.97796">
        <ele>5</ele>
        <time>2024-12-26T09:11:16.045Z</time>
      </trkpt>
      <trkpt lat="46.72461" lon="-1.97795">
        <ele>5</ele>
        <time>2024-12-26T09:11:17.045Z</time>
      </trkpt>
      <trkpt lat="46.72461" lon="-1.97794">
        <ele>5</ele>
        <time>2024-12-26T09:11:18.045Z</time>
      </trkpt>
      <trkpt lat="46.72462" lon="-1.97794">
        <ele>5</ele>
        <time>2024-12-26T09:11:19.045Z</time>
      </trkpt>
      <trkpt lat="46.72464" lon="-1.97795">
        <ele>5</ele>
        <time>2024-12-26T09:11:20.046Z</time>
      </trkpt>
      <trkpt lat="46.72465" lon="-1.97795">
        <ele>5</ele>
        <time>2024-12-26T09:11:21.045Z</time>
      </trkpt>
      <trkpt lat="46.72466" lon="-1.97794">
        <ele>5</ele>
        <time>2024-12-26T09:11:22.046Z</time>
      </trkpt>
      <trkpt lat="46.72467" lon="-1.97792">
        <ele>5</ele>
        <time>2024-12-26T09:11:23.046Z</time>
      </trkpt>
      <trkpt lat="46.72468" lon="-1.97792">
        <ele>5</ele>
        <time>2024-12-26T09:11:24.045Z</time>
      </trkpt>
      <trkpt lat="46.72469" lon="-1.97791">
        <ele>5</ele>
        <time>2024-12-26T09:11:25.045Z</time>
      </trkpt>
      <trkpt lat="46.7247" lon="-1.97789">
        <ele>5</ele>
        <time>2024-12-26T09:11:26.045Z</time>
      </trkpt>
      <trkpt lat="46.7247" lon="-1.97787">
        <ele>5</ele>
        <time>2024-12-26T09:11:27.045Z</time>
      </trkpt>
      <trkpt lat="46.72471" lon="-1.97785">
        <ele>5</ele>
        <time>2024-12-26T09:11:28.045Z</time>
      </trkpt>
      <trkpt lat="46.72472" lon="-1.97784">
        <ele>5</ele>
        <time>2024-12-26T09:11:29.046Z</time>
      </trkpt>
      <trkpt lat="46.72473" lon="-1.97783">
        <ele>5</ele>
        <time>2024-12-26T09:11:30.046Z</time>
      </trkpt>
      <trkpt lat="46.72474" lon="-1.97782">
        <ele>5.1</ele>
        <time>2024-12-26T09:11:31.045Z</time>
      </trkpt>
      <trkpt lat="46.72475" lon="-1.97781">
        <ele>5.1</ele>
        <time>2024-12-26T09:11:32.045Z</time>
      </trkpt>
      <trkpt lat="46.72476" lon="-1.97779">
        <ele>5.1</ele>
        <time>2024-12-26T09:11:33.045Z</time>
      </trkpt>
      <trkpt lat="46.72477" lon="-1.97777">
        <ele>5.2</ele>
        <time>2024-12-26T09:11:34.045Z</time>
      </trkpt>
      <trkpt lat="46.72478" lon="-1.97774">
        <ele>5.2</ele>
        <time>2024-12-26T09:11:35.046Z</time>
      </trkpt>
      <trkpt lat="46.72478" lon="-1.97772">
        <ele>5.2</ele>
        <time>2024-12-26T09:11:36.045Z</time>
      </trkpt>
      <trkpt lat="46.72478" lon="-1.97771">
        <ele>5.2</ele>
        <time>2024-12-26T09:11:37.045Z</time>
      </trkpt>
      <trkpt lat="46.72479" lon="-1.9777">
        <ele>5.2</ele>
        <time>2024-12-26T09:11:38.045Z</time>
      </trkpt>
      <trkpt lat="46.7248" lon="-1.97769">
        <ele>5.3</ele>
        <time>2024-12-26T09:11:39.045Z</time>
      </trkpt>
      <trkpt lat="46.7248" lon="-1.97768">
        <ele>5.3</ele>
        <time>2024-12-26T09:11:40.045Z</time>
      </trkpt>
      <trkpt lat="46.72482" lon="-1.97767">
        <ele>5.3</ele>
        <time>2024-12-26T09:11:41.045Z</time>
      </trkpt>
      <trkpt lat="46.72482" lon="-1.97766">
        <ele>5.4</ele>
        <time>2024-12-26T09:11:42.046Z</time>
      </trkpt>
      <trkpt lat="46.72483" lon="-1.97765">
        <ele>5.4</ele>
        <time>2024-12-26T09:11:43.046Z</time>
      </trkpt>
      <trkpt lat="46.72484" lon="-1.97764">
        <ele>5.4</ele>
        <time>2024-12-26T09:11:44.045Z</time>
      </trkpt>
      <trkpt lat="46.72485" lon="-1.97764">
        <ele>5.5</ele>
        <time>2024-12-26T09:11:45.045Z</time>
      </trkpt>
      <trkpt lat="46.72486" lon="-1.97764">
        <ele>5.5</ele>
        <time>2024-12-26T09:11:46.045Z</time>
      </trkpt>
      <trkpt lat="46.72488" lon="-1.97764">
        <ele>5.6</ele>
        <time>2024-12-26T09:11:47.045Z</time>
      </trkpt>
      <trkpt lat="46.72489" lon="-1.97763">
        <ele>5.6</ele>
        <time>2024-12-26T09:11:48.045Z</time>
      </trkpt>
      <trkpt lat="46.7249" lon="-1.97763">
        <ele>5.6</ele>
        <time>2024-12-26T09:11:49.046Z</time>
      </trkpt>
      <trkpt lat="46.7249" lon="-1.97761">
        <ele>5.7</ele>
        <time>2024-12-26T09:11:50.046Z</time>
      </trkpt>
      <trkpt lat="46.72492" lon="-1.9776">
        <ele>5.7</ele>
        <time>2024-12-26T09:11:51.045Z</time>
      </trkpt>
      <trkpt lat="46.72493" lon="-1.97759">
        <ele>5.8</ele>
        <time>2024-12-26T09:11:52.045Z</time>
      </trkpt>
      <trkpt lat="46.72494" lon="-1.97757">
        <ele>5.8</ele>
        <time>2024-12-26T09:11:53.046Z</time>
      </trkpt>
      <trkpt lat="46.72495" lon="-1.97755">
        <ele>5.8</ele>
        <time>2024-12-26T09:11:54.046Z</time>
      </trkpt>
      <trkpt lat="46.72496" lon="-1.97753">
        <ele>5.8</ele>
        <time>2024-12-26T09:11:55.046Z</time>
      </trkpt>
      <trkpt lat="46.72496" lon="-1.97751">
        <ele>5.9</ele>
        <time>2024-12-26T09:11:56.046Z</time>
      </trkpt>
      <trkpt lat="46.72496" lon="-1.97749">
        <ele>5.9</ele>
        <time>2024-12-26T09:11:57.046Z</time>
      </trkpt>
      <trkpt lat="46.72496" lon="-1.97747">
        <ele>5.9</ele>
        <time>2024-12-26T09:11:58.046Z</time>
      </trkpt>
      <trkpt lat="46.72496" lon="-1.97745">
        <ele>5.9</ele>
        <time>2024-12-26T09:11:59.045Z</time>
      </trkpt>
      <trkpt lat="46.72496" lon="-1.97743">
        <ele>5.9</ele>
        <time>2024-12-26T09:12:00.045Z</time>
      </trkpt>
      <trkpt lat="46.72496" lon="-1.97742">
        <ele>5.8</ele>
        <time>2024-12-26T09:12:01.045Z</time>
      </trkpt>
      <trkpt lat="46.72496" lon="-1.97741">
        <ele>5.9</ele>
        <time>2024-12-26T09:12:02.045Z</time>
      </trkpt>
      <trkpt lat="46.72497" lon="-1.97739">
        <ele>5.9</ele>
        <time>2024-12-26T09:12:03.045Z</time>
      </trkpt>
      <trkpt lat="46.72497" lon="-1.97737">
        <ele>5.9</ele>
        <time>2024-12-26T09:12:04.046Z</time>
      </trkpt>
      <trkpt lat="46.72497" lon="-1.97735">
        <ele>5.9</ele>
        <time>2024-12-26T09:12:05.045Z</time>
      </trkpt>
      <trkpt lat="46.72497" lon="-1.97733">
        <ele>5.9</ele>
        <time>2024-12-26T09:12:06.045Z</time>
      </trkpt>
      <trkpt lat="46.72498" lon="-1.97731">
        <ele>5.9</ele>
        <time>2024-12-26T09:12:07.045Z</time>
      </trkpt>
      <trkpt lat="46.72498" lon="-1.97728">
        <ele>5.9</ele>
        <time>2024-12-26T09:12:08.046Z</time>
      </trkpt>
      <trkpt lat="46.72499" lon="-1.97727">
        <ele>6</ele>
        <time>2024-12-26T09:12:09.045Z</time>
      </trkpt>
      <trkpt lat="46.725" lon="-1.97725">
        <ele>6</ele>
        <time>2024-12-26T09:12:10.045Z</time>
      </trkpt>
      <trkpt lat="46.72501" lon="-1.97723">
        <ele>6</ele>
        <time>2024-12-26T09:12:11.045Z</time>
      </trkpt>
      <trkpt lat="46.72502" lon="-1.9772">
        <ele>5.9</ele>
        <time>2024-12-26T09:12:12.045Z</time>
      </trkpt>
      <trkpt lat="46.72503" lon="-1.97717">
        <ele>5.9</ele>
        <time>2024-12-26T09:12:13.045Z</time>
      </trkpt>
      <trkpt lat="46.72504" lon="-1.97714">
        <ele>5.8</ele>
        <time>2024-12-26T09:12:14.045Z</time>
      </trkpt>
      <trkpt lat="46.72505" lon="-1.97712">
        <ele>5.8</ele>
        <time>2024-12-26T09:12:15.045Z</time>
      </trkpt>
      <trkpt lat="46.72505" lon="-1.9771">
        <ele>5.8</ele>
        <time>2024-12-26T09:12:16.045Z</time>
      </trkpt>
      <trkpt lat="46.72505" lon="-1.97707">
        <ele>5.8</ele>
        <time>2024-12-26T09:12:17.045Z</time>
      </trkpt>
      <trkpt lat="46.72506" lon="-1.97705">
        <ele>5.8</ele>
        <time>2024-12-26T09:12:18.045Z</time>
      </trkpt>
      <trkpt lat="46.72507" lon="-1.97704">
        <ele>5.8</ele>
        <time>2024-12-26T09:12:19.046Z</time>
      </trkpt>
      <trkpt lat="46.72507" lon="-1.97702">
        <ele>5.8</ele>
        <time>2024-12-26T09:12:20.045Z</time>
      </trkpt>
      <trkpt lat="46.72509" lon="-1.97699">
        <ele>6</ele>
        <time>2024-12-26T09:12:21.045Z</time>
      </trkpt>
      <trkpt lat="46.7251" lon="-1.97696">
        <ele>6.1</ele>
        <time>2024-12-26T09:12:22.045Z</time>
      </trkpt>
      <trkpt lat="46.7251" lon="-1.97695">
        <ele>6.1</ele>
        <time>2024-12-26T09:12:23.045Z</time>
      </trkpt>
      <trkpt lat="46.72509" lon="-1.97694">
        <ele>6</ele>
        <time>2024-12-26T09:12:24.046Z</time>
      </trkpt>
      <trkpt lat="46.72509" lon="-1.97692">
        <ele>6</ele>
        <time>2024-12-26T09:12:25.046Z</time>
      </trkpt>
      <trkpt lat="46.72509" lon="-1.97691">
        <ele>6</ele>
        <time>2024-12-26T09:12:26.045Z</time>
      </trkpt>
      <trkpt lat="46.7251" lon="-1.97689">
        <ele>6</ele>
        <time>2024-12-26T09:12:27.045Z</time>
      </trkpt>
      <trkpt lat="46.7251" lon="-1.97686">
        <ele>6</ele>
        <time>2024-12-26T09:12:28.045Z</time>
      </trkpt>
      <trkpt lat="46.7251" lon="-1.97684">
        <ele>6.1</ele>
        <time>2024-12-26T09:12:29.045Z</time>
      </trkpt>
      <trkpt lat="46.7251" lon="-1.97682">
        <ele>6.1</ele>
        <time>2024-12-26T09:12:30.045Z</time>
      </trkpt>
      <trkpt lat="46.72511" lon="-1.9768">
        <ele>6.2</ele>
        <time>2024-12-26T09:12:31.045Z</time>
      </trkpt>
      <trkpt lat="46.72512" lon="-1.97678">
        <ele>6.2</ele>
        <time>2024-12-26T09:12:32.045Z</time>
      </trkpt>
      <trkpt lat="46.72511" lon="-1.97676">
        <ele>6.2</ele>
        <time>2024-12-26T09:12:33.046Z</time>
      </trkpt>
      <trkpt lat="46.72511" lon="-1.97674">
        <ele>6.2</ele>
        <time>2024-12-26T09:12:34.045Z</time>
      </trkpt>
      <trkpt lat="46.72509" lon="-1.97671">
        <ele>6</ele>
        <time>2024-12-26T09:12:35.045Z</time>
      </trkpt>
      <trkpt lat="46.72508" lon="-1.97669">
        <ele>5.9</ele>
        <time>2024-12-26T09:12:36.046Z</time>
      </trkpt>
      <trkpt lat="46.72507" lon="-1.97667">
        <ele>5.8</ele>
        <time>2024-12-26T09:12:37.045Z</time>
      </trkpt>
      <trkpt lat="46.72508" lon="-1.97665">
        <ele>5.9</ele>
        <time>2024-12-26T09:12:38.046Z</time>
      </trkpt>
      <trkpt lat="46.72507" lon="-1.97663">
        <ele>6</ele>
        <time>2024-12-26T09:12:39.045Z</time>
      </trkpt>
      <trkpt lat="46.72507" lon="-1.97661">
        <ele>6.1</ele>
        <time>2024-12-26T09:12:40.046Z</time>
      </trkpt>
      <trkpt lat="46.72507" lon="-1.9766">
        <ele>6.1</ele>
        <time>2024-12-26T09:12:41.045Z</time>
      </trkpt>
      <trkpt lat="46.72507" lon="-1.97658">
        <ele>6.2</ele>
        <time>2024-12-26T09:12:42.046Z</time>
      </trkpt>
      <trkpt lat="46.72507" lon="-1.97656">
        <ele>6.3</ele>
        <time>2024-12-26T09:12:43.046Z</time>
      </trkpt>
      <trkpt lat="46.72507" lon="-1.97655">
        <ele>6.4</ele>
        <time>2024-12-26T09:12:44.045Z</time>
      </trkpt>
      <trkpt lat="46.72506" lon="-1.97653">
        <ele>6.5</ele>
        <time>2024-12-26T09:12:45.046Z</time>
      </trkpt>
      <trkpt lat="46.72506" lon="-1.9765">
        <ele>6.6</ele>
        <time>2024-12-26T09:12:46.045Z</time>
      </trkpt>
      <trkpt lat="46.72506" lon="-1.97647">
        <ele>6.8</ele>
        <time>2024-12-26T09:12:47.046Z</time>
      </trkpt>
      <trkpt lat="46.72506" lon="-1.97646">
        <ele>6.9</ele>
        <time>2024-12-26T09:12:48.046Z</time>
      </trkpt>
      <trkpt lat="46.72506" lon="-1.97643">
        <ele>6.9</ele>
        <time>2024-12-26T09:12:49.046Z</time>
      </trkpt>
      <trkpt lat="46.72504" lon="-1.97641">
        <ele>7</ele>
        <time>2024-12-26T09:12:50.045Z</time>
      </trkpt>
      <trkpt lat="46.72503" lon="-1.97638">
        <ele>7.1</ele>
        <time>2024-12-26T09:12:51.046Z</time>
      </trkpt>
      <trkpt lat="46.72503" lon="-1.97636">
        <ele>7</ele>
        <time>2024-12-26T09:12:52.045Z</time>
      </trkpt>
      <trkpt lat="46.72502" lon="-1.97634">
        <ele>6.9</ele>
        <time>2024-12-26T09:12:53.045Z</time>
      </trkpt>
      <trkpt lat="46.72502" lon="-1.97632">
        <ele>6.8</ele>
        <time>2024-12-26T09:12:54.046Z</time>
      </trkpt>
      <trkpt lat="46.72502" lon="-1.9763">
        <ele>6.7</ele>
        <time>2024-12-26T09:12:55.045Z</time>
      </trkpt>
      <trkpt lat="46.72501" lon="-1.97628">
        <ele>6.6</ele>
        <time>2024-12-26T09:12:56.046Z</time>
      </trkpt>
      <trkpt lat="46.72501" lon="-1.97626">
        <ele>6.5</ele>
        <time>2024-12-26T09:12:57.045Z</time>
      </trkpt>
      <trkpt lat="46.725" lon="-1.97625">
        <ele>6.5</ele>
        <time>2024-12-26T09:12:58.045Z</time>
      </trkpt>
      <trkpt lat="46.72499" lon="-1.97623">
        <ele>6.4</ele>
        <time>2024-12-26T09:12:59.046Z</time>
      </trkpt>
      <trkpt lat="46.72498" lon="-1.97622">
        <ele>6.3</ele>
        <time>2024-12-26T09:13:00.046Z</time>
      </trkpt>
      <trkpt lat="46.72498" lon="-1.9762">
        <ele>6.2</ele>
        <time>2024-12-26T09:13:01.045Z</time>
      </trkpt>
      <trkpt lat="46.72497" lon="-1.97618">
        <ele>6.1</ele>
        <time>2024-12-26T09:13:02.045Z</time>
      </trkpt>
      <trkpt lat="46.72497" lon="-1.97617">
        <ele>6.1</ele>
        <time>2024-12-26T09:13:03.046Z</time>
      </trkpt>
      <trkpt lat="46.72498" lon="-1.97616">
        <ele>6.1</ele>
        <time>2024-12-26T09:13:04.045Z</time>
      </trkpt>
      <trkpt lat="46.72499" lon="-1.97614">
        <ele>6.1</ele>
        <time>2024-12-26T09:13:05.045Z</time>
      </trkpt>
      <trkpt lat="46.72499" lon="-1.97613">
        <ele>6.1</ele>
        <time>2024-12-26T09:13:06.046Z</time>
      </trkpt>
      <trkpt lat="46.72499" lon="-1.97612">
        <ele>6</ele>
        <time>2024-12-26T09:13:07.045Z</time>
      </trkpt>
      <trkpt lat="46.725" lon="-1.9761">
        <ele>5.9</ele>
        <time>2024-12-26T09:13:08.046Z</time>
      </trkpt>
      <trkpt lat="46.725" lon="-1.97607">
        <ele>5.8</ele>
        <time>2024-12-26T09:13:09.046Z</time>
      </trkpt>
      <trkpt lat="46.72499" lon="-1.97605">
        <ele>5.8</ele>
        <time>2024-12-26T09:13:10.045Z</time>
      </trkpt>
      <trkpt lat="46.72499" lon="-1.97603">
        <ele>5.7</ele>
        <time>2024-12-26T09:13:11.045Z</time>
      </trkpt>
      <trkpt lat="46.72498" lon="-1.97601">
        <ele>5.6</ele>
        <time>2024-12-26T09:13:12.045Z</time>
      </trkpt>
      <trkpt lat="46.72498" lon="-1.97599">
        <ele>5.5</ele>
        <time>2024-12-26T09:13:13.045Z</time>
      </trkpt>
      <trkpt lat="46.72497" lon="-1.97597">
        <ele>5.4</ele>
        <time>2024-12-26T09:13:14.045Z</time>
      </trkpt>
      <trkpt lat="46.72497" lon="-1.97595">
        <ele>5.4</ele>
        <time>2024-12-26T09:13:15.045Z</time>
      </trkpt>
      <trkpt lat="46.72496" lon="-1.97592">
        <ele>5.3</ele>
        <time>2024-12-26T09:13:16.046Z</time>
      </trkpt>
      <trkpt lat="46.72495" lon="-1.9759">
        <ele>5.2</ele>
        <time>2024-12-26T09:13:17.046Z</time>
      </trkpt>
      <trkpt lat="46.72494" lon="-1.97587">
        <ele>5.1</ele>
        <time>2024-12-26T09:13:18.046Z</time>
      </trkpt>
      <trkpt lat="46.72493" lon="-1.97584">
        <ele>5</ele>
        <time>2024-12-26T09:13:19.046Z</time>
      </trkpt>
      <trkpt lat="46.72491" lon="-1.97581">
        <ele>5</ele>
        <time>2024-12-26T09:13:20.045Z</time>
      </trkpt>
      <trkpt lat="46.7249" lon="-1.97579">
        <ele>5.1</ele>
        <time>2024-12-26T09:13:21.046Z</time>
      </trkpt>
      <trkpt lat="46.7249" lon="-1.97577">
        <ele>5.1</ele>
        <time>2024-12-26T09:13:22.046Z</time>
      </trkpt>
      <trkpt lat="46.7249" lon="-1.97576">
        <ele>5.1</ele>
        <time>2024-12-26T09:13:23.046Z</time>
      </trkpt>
      <trkpt lat="46.7249" lon="-1.97574">
        <ele>5.1</ele>
        <time>2024-12-26T09:13:24.046Z</time>
      </trkpt>
      <trkpt lat="46.72491" lon="-1.97573">
        <ele>5.1</ele>
        <time>2024-12-26T09:13:25.045Z</time>
      </trkpt>
      <trkpt lat="46.72491" lon="-1.97571">
        <ele>5.1</ele>
        <time>2024-12-26T09:13:26.045Z</time>
      </trkpt>
      <trkpt lat="46.72491" lon="-1.9757">
        <ele>5.2</ele>
        <time>2024-12-26T09:13:27.046Z</time>
      </trkpt>
      <trkpt lat="46.72491" lon="-1.97568">
        <ele>5.2</ele>
        <time>2024-12-26T09:13:28.046Z</time>
      </trkpt>
      <trkpt lat="46.72491" lon="-1.97566">
        <ele>5.2</ele>
        <time>2024-12-26T09:13:29.046Z</time>
      </trkpt>
      <trkpt lat="46.7249" lon="-1.97563">
        <ele>5.3</ele>
        <time>2024-12-26T09:13:30.045Z</time>
      </trkpt>
      <trkpt lat="46.7249" lon="-1.97561">
        <ele>5.3</ele>
        <time>2024-12-26T09:13:31.046Z</time>
      </trkpt>
      <trkpt lat="46.72489" lon="-1.97559">
        <ele>5.3</ele>
        <time>2024-12-26T09:13:32.046Z</time>
      </trkpt>
      <trkpt lat="46.72488" lon="-1.97557">
        <ele>5.4</ele>
        <time>2024-12-26T09:13:33.045Z</time>
      </trkpt>
      <trkpt lat="46.72487" lon="-1.97556">
        <ele>5.5</ele>
        <time>2024-12-26T09:13:34.045Z</time>
      </trkpt>
      <trkpt lat="46.72486" lon="-1.97553">
        <ele>5.6</ele>
        <time>2024-12-26T09:13:35.045Z</time>
      </trkpt>
      <trkpt lat="46.72484" lon="-1.97551">
        <ele>5.7</ele>
        <time>2024-12-26T09:13:36.045Z</time>
      </trkpt>
      <trkpt lat="46.72483" lon="-1.9755">
        <ele>5.8</ele>
        <time>2024-12-26T09:13:37.045Z</time>
      </trkpt>
      <trkpt lat="46.72482" lon="-1.97548">
        <ele>5.9</ele>
        <time>2024-12-26T09:13:38.045Z</time>
      </trkpt>
      <trkpt lat="46.72482" lon="-1.97547">
        <ele>6</ele>
        <time>2024-12-26T09:13:39.046Z</time>
      </trkpt>
      <trkpt lat="46.72481" lon="-1.97546">
        <ele>6</ele>
        <time>2024-12-26T09:13:40.046Z</time>
      </trkpt>
      <trkpt lat="46.7248" lon="-1.97544">
        <ele>6.1</ele>
        <time>2024-12-26T09:13:41.046Z</time>
      </trkpt>
      <trkpt lat="46.72479" lon="-1.97543">
        <ele>6.2</ele>
        <time>2024-12-26T09:13:42.046Z</time>
      </trkpt>
      <trkpt lat="46.72478" lon="-1.97541">
        <ele>6.3</ele>
        <time>2024-12-26T09:13:43.046Z</time>
      </trkpt>
      <trkpt lat="46.72478" lon="-1.97538">
        <ele>6.4</ele>
        <time>2024-12-26T09:13:44.045Z</time>
      </trkpt>
      <trkpt lat="46.72477" lon="-1.97536">
        <ele>6.5</ele>
        <time>2024-12-26T09:13:45.046Z</time>
      </trkpt>
      <trkpt lat="46.72478" lon="-1.97534">
        <ele>6.6</ele>
        <time>2024-12-26T09:13:46.045Z</time>
      </trkpt>
      <trkpt lat="46.72478" lon="-1.97534">
        <ele>6.6</ele>
        <time>2024-12-26T09:13:47.045Z</time>
      </trkpt>
      <trkpt lat="46.72478" lon="-1.97533">
        <ele>6.6</ele>
        <time>2024-12-26T09:13:48.045Z</time>
      </trkpt>
      <trkpt lat="46.72478" lon="-1.97531">
        <ele>6.7</ele>
        <time>2024-12-26T09:13:49.046Z</time>
      </trkpt>
      <trkpt lat="46.72477" lon="-1.9753">
        <ele>6.7</ele>
        <time>2024-12-26T09:13:50.046Z</time>
      </trkpt>
      <trkpt lat="46.72477" lon="-1.9753">
        <ele>6.8</ele>
        <time>2024-12-26T09:13:51.046Z</time>
      </trkpt>
      <trkpt lat="46.72477" lon="-1.97528">
        <ele>6.8</ele>
        <time>2024-12-26T09:13:52.046Z</time>
      </trkpt>
      <trkpt lat="46.72477" lon="-1.97526">
        <ele>6.8</ele>
        <time>2024-12-26T09:13:53.045Z</time>
      </trkpt>
      <trkpt lat="46.72476" lon="-1.97523">
        <ele>6.9</ele>
        <time>2024-12-26T09:13:54.045Z</time>
      </trkpt>
      <trkpt lat="46.72475" lon="-1.97521">
        <ele>6.9</ele>
        <time>2024-12-26T09:13:55.046Z</time>
      </trkpt>
      <trkpt lat="46.72474" lon="-1.97518">
        <ele>6.9</ele>
        <time>2024-12-26T09:13:56.046Z</time>
      </trkpt>
      <trkpt lat="46.72474" lon="-1.97516">
        <ele>6.9</ele>
        <time>2024-12-26T09:13:57.046Z</time>
      </trkpt>
      <trkpt lat="46.72474" lon="-1.97514">
        <ele>6.9</ele>
        <time>2024-12-26T09:13:58.045Z</time>
      </trkpt>
      <trkpt lat="46.72475" lon="-1.97512">
        <ele>6.9</ele>
        <time>2024-12-26T09:13:59.045Z</time>
      </trkpt>
      <trkpt lat="46.72475" lon="-1.9751">
        <ele>6.9</ele>
        <time>2024-12-26T09:14:00.046Z</time>
      </trkpt>
      <trkpt lat="46.72475" lon="-1.97508">
        <ele>6.9</ele>
        <time>2024-12-26T09:14:01.046Z</time>
      </trkpt>
      <trkpt lat="46.72474" lon="-1.97505">
        <ele>6.9</ele>
        <time>2024-12-26T09:14:02.045Z</time>
      </trkpt>
      <trkpt lat="46.72474" lon="-1.97503">
        <ele>6.9</ele>
        <time>2024-12-26T09:14:03.045Z</time>
      </trkpt>
      <trkpt lat="46.72474" lon="-1.97502">
        <ele>6.9</ele>
        <time>2024-12-26T09:14:04.046Z</time>
      </trkpt>
      <trkpt lat="46.72473" lon="-1.975">
        <ele>7</ele>
        <time>2024-12-26T09:14:05.046Z</time>
      </trkpt>
      <trkpt lat="46.72473" lon="-1.97497">
        <ele>6.9</ele>
        <time>2024-12-26T09:14:06.045Z</time>
      </trkpt>
      <trkpt lat="46.72473" lon="-1.97495">
        <ele>6.8</ele>
        <time>2024-12-26T09:14:07.045Z</time>
      </trkpt>
      <trkpt lat="46.72473" lon="-1.97492">
        <ele>6.7</ele>
        <time>2024-12-26T09:14:08.046Z</time>
      </trkpt>
      <trkpt lat="46.72472" lon="-1.9749">
        <ele>6.6</ele>
        <time>2024-12-26T09:14:09.046Z</time>
      </trkpt>
      <trkpt lat="46.72472" lon="-1.97489">
        <ele>6.6</ele>
        <time>2024-12-26T09:14:10.046Z</time>
      </trkpt>
      <trkpt lat="46.72471" lon="-1.97487">
        <ele>6.5</ele>
        <time>2024-12-26T09:14:11.045Z</time>
      </trkpt>
      <trkpt lat="46.72471" lon="-1.97486">
        <ele>6.5</ele>
        <time>2024-12-26T09:14:12.045Z</time>
      </trkpt>
      <trkpt lat="46.7247" lon="-1.97484">
        <ele>6.4</ele>
        <time>2024-12-26T09:14:13.046Z</time>
      </trkpt>
      <trkpt lat="46.72469" lon="-1.97482">
        <ele>6.3</ele>
        <time>2024-12-26T09:14:14.045Z</time>
      </trkpt>
      <trkpt lat="46.72468" lon="-1.9748">
        <ele>6.3</ele>
        <time>2024-12-26T09:14:15.045Z</time>
      </trkpt>
      <trkpt lat="46.72466" lon="-1.97477">
        <ele>6.2</ele>
        <time>2024-12-26T09:14:16.046Z</time>
      </trkpt>
      <trkpt lat="46.72465" lon="-1.97476">
        <ele>6.1</ele>
        <time>2024-12-26T09:14:17.045Z</time>
      </trkpt>
      <trkpt lat="46.72465" lon="-1.97474">
        <ele>6.1</ele>
        <time>2024-12-26T09:14:18.046Z</time>
      </trkpt>
      <trkpt lat="46.72464" lon="-1.97473">
        <ele>6</ele>
        <time>2024-12-26T09:14:19.046Z</time>
      </trkpt>
      <trkpt lat="46.72464" lon="-1.97471">
        <ele>6</ele>
        <time>2024-12-26T09:14:20.046Z</time>
      </trkpt>
      <trkpt lat="46.72463" lon="-1.9747">
        <ele>6.1</ele>
        <time>2024-12-26T09:14:21.046Z</time>
      </trkpt>
      <trkpt lat="46.72463" lon="-1.97469">
        <ele>6.1</ele>
        <time>2024-12-26T09:14:22.045Z</time>
      </trkpt>
      <trkpt lat="46.72463" lon="-1.97469">
        <ele>6.1</ele>
        <time>2024-12-26T09:14:23.045Z</time>
      </trkpt>
      <trkpt lat="46.72463" lon="-1.97469">
        <ele>6.1</ele>
        <time>2024-12-26T09:14:24.045Z</time>
      </trkpt>
      <trkpt lat="46.72462" lon="-1.97469">
        <ele>6.1</ele>
        <time>2024-12-26T09:14:25.045Z</time>
      </trkpt>
      <trkpt lat="46.72462" lon="-1.97469">
        <ele>6.1</ele>
        <time>2024-12-26T09:14:26.046Z</time>
      </trkpt>
      <trkpt lat="46.72461" lon="-1.97468">
        <ele>6.1</ele>
        <time>2024-12-26T09:14:27.046Z</time>
      </trkpt>
      <trkpt lat="46.7246" lon="-1.97468">
        <ele>6.1</ele>
        <time>2024-12-26T09:14:28.045Z</time>
      </trkpt>
      <trkpt lat="46.72459" lon="-1.97468">
        <ele>6.1</ele>
        <time>2024-12-26T09:14:29.045Z</time>
      </trkpt>
      <trkpt lat="46.72458" lon="-1.97468">
        <ele>6.1</ele>
        <time>2024-12-26T09:14:30.045Z</time>
      </trkpt>
      <trkpt lat="46.72455" lon="-1.97467">
        <ele>6.1</ele>
        <time>2024-12-26T09:14:31.046Z</time>
      </trkpt>
      <trkpt lat="46.72454" lon="-1.97466">
        <ele>6.1</ele>
        <time>2024-12-26T09:14:32.045Z</time>
      </trkpt>
      <trkpt lat="46.72454" lon="-1.97466">
        <ele>6.1</ele>
        <time>2024-12-26T09:14:33.045Z</time>
      </trkpt>
      <trkpt lat="46.72453" lon="-1.97465">
        <ele>6.1</ele>
        <time>2024-12-26T09:14:34.046Z</time>
      </trkpt>
      <trkpt lat="46.72452" lon="-1.97464">
        <ele>6.1</ele>
        <time>2024-12-26T09:14:35.045Z</time>
      </trkpt>
      <trkpt lat="46.72451" lon="-1.97463">
        <ele>6.1</ele>
        <time>2024-12-26T09:14:36.045Z</time>
      </trkpt>
      <trkpt lat="46.7245" lon="-1.97463">
        <ele>6.1</ele>
        <time>2024-12-26T09:14:37.046Z</time>
      </trkpt>
      <trkpt lat="46.72449" lon="-1.97462">
        <ele>6.1</ele>
        <time>2024-12-26T09:14:38.046Z</time>
      </trkpt>
      <trkpt lat="46.72447" lon="-1.97461">
        <ele>6</ele>
        <time>2024-12-26T09:14:39.045Z</time>
      </trkpt>
      <trkpt lat="46.72445" lon="-1.9746">
        <ele>6</ele>
        <time>2024-12-26T09:14:40.046Z</time>
      </trkpt>
      <trkpt lat="46.72443" lon="-1.97459">
        <ele>6</ele>
        <time>2024-12-26T09:14:41.045Z</time>
      </trkpt>
      <trkpt lat="46.72442" lon="-1.97459">
        <ele>6</ele>
        <time>2024-12-26T09:14:42.045Z</time>
      </trkpt>
      <trkpt lat="46.72442" lon="-1.97458">
        <ele>6.1</ele>
        <time>2024-12-26T09:14:43.046Z</time>
      </trkpt>
      <trkpt lat="46.72441" lon="-1.97458">
        <ele>6.1</ele>
        <time>2024-12-26T09:14:44.046Z</time>
      </trkpt>
      <trkpt lat="46.7244" lon="-1.97458">
        <ele>6.1</ele>
        <time>2024-12-26T09:14:45.046Z</time>
      </trkpt>
      <trkpt lat="46.72439" lon="-1.97457">
        <ele>6.1</ele>
        <time>2024-12-26T09:14:46.046Z</time>
      </trkpt>
      <trkpt lat="46.72437" lon="-1.97456">
        <ele>6.2</ele>
        <time>2024-12-26T09:14:47.046Z</time>
      </trkpt>
      <trkpt lat="46.72436" lon="-1.97455">
        <ele>6.2</ele>
        <time>2024-12-26T09:14:48.045Z</time>
      </trkpt>
      <trkpt lat="46.72435" lon="-1.97455">
        <ele>6.2</ele>
        <time>2024-12-26T09:14:49.046Z</time>
      </trkpt>
      <trkpt lat="46.72434" lon="-1.97454">
        <ele>6.3</ele>
        <time>2024-12-26T09:14:50.045Z</time>
      </trkpt>
      <trkpt lat="46.72433" lon="-1.97453">
        <ele>6.3</ele>
        <time>2024-12-26T09:14:51.045Z</time>
      </trkpt>
      <trkpt lat="46.72431" lon="-1.97452">
        <ele>6.3</ele>
        <time>2024-12-26T09:14:52.045Z</time>
      </trkpt>
      <trkpt lat="46.7243" lon="-1.97451">
        <ele>6.4</ele>
        <time>2024-12-26T09:14:53.046Z</time>
      </trkpt>
      <trkpt lat="46.72429" lon="-1.9745">
        <ele>6.4</ele>
        <time>2024-12-26T09:14:54.045Z</time>
      </trkpt>
      <trkpt lat="46.72428" lon="-1.97449">
        <ele>6.5</ele>
        <time>2024-12-26T09:14:55.045Z</time>
      </trkpt>
      <trkpt lat="46.72427" lon="-1.97449">
        <ele>6.6</ele>
        <time>2024-12-26T09:14:56.045Z</time>
      </trkpt>
      <trkpt lat="46.72425" lon="-1.97449">
        <ele>6.6</ele>
        <time>2024-12-26T09:14:57.045Z</time>
      </trkpt>
      <trkpt lat="46.72424" lon="-1.97448">
        <ele>6.6</ele>
        <time>2024-12-26T09:14:58.045Z</time>
      </trkpt>
      <trkpt lat="46.72423" lon="-1.97448">
        <ele>6.7</ele>
        <time>2024-12-26T09:14:59.045Z</time>
      </trkpt>
      <trkpt lat="46.72422" lon="-1.97448">
        <ele>6.7</ele>
        <time>2024-12-26T09:15:00.045Z</time>
      </trkpt>
      <trkpt lat="46.7242" lon="-1.97447">
        <ele>6.8</ele>
        <time>2024-12-26T09:15:01.046Z</time>
      </trkpt>
      <trkpt lat="46.72418" lon="-1.97446">
        <ele>6.9</ele>
        <time>2024-12-26T09:15:02.045Z</time>
      </trkpt>
      <trkpt lat="46.72416" lon="-1.97444">
        <ele>7</ele>
        <time>2024-12-26T09:15:03.046Z</time>
      </trkpt>
      <trkpt lat="46.72415" lon="-1.97444">
        <ele>7</ele>
        <time>2024-12-26T09:15:04.046Z</time>
      </trkpt>
      <trkpt lat="46.72412" lon="-1.97443">
        <ele>7</ele>
        <time>2024-12-26T09:15:05.046Z</time>
      </trkpt>
      <trkpt lat="46.7241" lon="-1.97443">
        <ele>7</ele>
        <time>2024-12-26T09:15:06.046Z</time>
      </trkpt>
      <trkpt lat="46.72408" lon="-1.97442">
        <ele>6.9</ele>
        <time>2024-12-26T09:15:07.046Z</time>
      </trkpt>
      <trkpt lat="46.72407" lon="-1.97441">
        <ele>6.9</ele>
        <time>2024-12-26T09:15:08.045Z</time>
      </trkpt>
      <trkpt lat="46.72405" lon="-1.97439">
        <ele>6.8</ele>
        <time>2024-12-26T09:15:09.045Z</time>
      </trkpt>
      <trkpt lat="46.72403" lon="-1.97436">
        <ele>6.7</ele>
        <time>2024-12-26T09:15:10.046Z</time>
      </trkpt>
      <trkpt lat="46.72402" lon="-1.97434">
        <ele>6.6</ele>
        <time>2024-12-26T09:15:11.045Z</time>
      </trkpt>
      <trkpt lat="46.72402" lon="-1.97433">
        <ele>6.6</ele>
        <time>2024-12-26T09:15:12.046Z</time>
      </trkpt>
      <trkpt lat="46.72401" lon="-1.97431">
        <ele>6.5</ele>
        <time>2024-12-26T09:15:13.045Z</time>
      </trkpt>
      <trkpt lat="46.72399" lon="-1.9743">
        <ele>6.5</ele>
        <time>2024-12-26T09:15:14.045Z</time>
      </trkpt>
      <trkpt lat="46.72398" lon="-1.9743">
        <ele>6.5</ele>
        <time>2024-12-26T09:15:15.045Z</time>
      </trkpt>
      <trkpt lat="46.72397" lon="-1.97429">
        <ele>6.4</ele>
        <time>2024-12-26T09:15:16.046Z</time>
      </trkpt>
      <trkpt lat="46.72396" lon="-1.97428">
        <ele>6.4</ele>
        <time>2024-12-26T09:15:17.045Z</time>
      </trkpt>
      <trkpt lat="46.72395" lon="-1.97427">
        <ele>6.4</ele>
        <time>2024-12-26T09:15:18.045Z</time>
      </trkpt>
      <trkpt lat="46.72394" lon="-1.97426">
        <ele>6.3</ele>
        <time>2024-12-26T09:15:19.045Z</time>
      </trkpt>
      <trkpt lat="46.72393" lon="-1.97425">
        <ele>6.3</ele>
        <time>2024-12-26T09:15:20.046Z</time>
      </trkpt>
      <trkpt lat="46.72393" lon="-1.97424">
        <ele>6.3</ele>
        <time>2024-12-26T09:15:21.046Z</time>
      </trkpt>
      <trkpt lat="46.72392" lon="-1.97423">
        <ele>6.2</ele>
        <time>2024-12-26T09:15:22.045Z</time>
      </trkpt>
      <trkpt lat="46.72391" lon="-1.97421">
        <ele>6.2</ele>
        <time>2024-12-26T09:15:23.046Z</time>
      </trkpt>
      <trkpt lat="46.72389" lon="-1.9742">
        <ele>6.1</ele>
        <time>2024-12-26T09:15:24.046Z</time>
      </trkpt>
      <trkpt lat="46.72388" lon="-1.97419">
        <ele>6.1</ele>
        <time>2024-12-26T09:15:25.046Z</time>
      </trkpt>
      <trkpt lat="46.72388" lon="-1.97418">
        <ele>6.1</ele>
        <time>2024-12-26T09:15:26.045Z</time>
      </trkpt>
      <trkpt lat="46.72387" lon="-1.97418">
        <ele>6.1</ele>
        <time>2024-12-26T09:15:27.045Z</time>
      </trkpt>
      <trkpt lat="46.72386" lon="-1.97418">
        <ele>6.1</ele>
        <time>2024-12-26T09:15:28.046Z</time>
      </trkpt>
      <trkpt lat="46.72386" lon="-1.97418">
        <ele>6.1</ele>
        <time>2024-12-26T09:15:29.046Z</time>
      </trkpt>
      <trkpt lat="46.72386" lon="-1.97418">
        <ele>6.2</ele>
        <time>2024-12-26T09:15:30.045Z</time>
      </trkpt>
      <trkpt lat="46.72385" lon="-1.97418">
        <ele>6.2</ele>
        <time>2024-12-26T09:15:31.045Z</time>
      </trkpt>
      <trkpt lat="46.72383" lon="-1.97417">
        <ele>6.2</ele>
        <time>2024-12-26T09:15:32.045Z</time>
      </trkpt>
      <trkpt lat="46.72382" lon="-1.97417">
        <ele>6.3</ele>
        <time>2024-12-26T09:15:33.046Z</time>
      </trkpt>
      <trkpt lat="46.7238" lon="-1.97417">
        <ele>6.3</ele>
        <time>2024-12-26T09:15:34.046Z</time>
      </trkpt>
      <trkpt lat="46.72378" lon="-1.97417">
        <ele>6.4</ele>
        <time>2024-12-26T09:15:35.045Z</time>
      </trkpt>
      <trkpt lat="46.72376" lon="-1.97417">
        <ele>6.5</ele>
        <time>2024-12-26T09:15:36.045Z</time>
      </trkpt>
      <trkpt lat="46.72375" lon="-1.97417">
        <ele>6.5</ele>
        <time>2024-12-26T09:15:37.045Z</time>
      </trkpt>
      <trkpt lat="46.72373" lon="-1.97416">
        <ele>6.6</ele>
        <time>2024-12-26T09:15:38.045Z</time>
      </trkpt>
      <trkpt lat="46.72372" lon="-1.97416">
        <ele>6.6</ele>
        <time>2024-12-26T09:15:39.045Z</time>
      </trkpt>
      <trkpt lat="46.7237" lon="-1.97415">
        <ele>6.7</ele>
        <time>2024-12-26T09:15:40.046Z</time>
      </trkpt>
      <trkpt lat="46.72367" lon="-1.97414">
        <ele>6.8</ele>
        <time>2024-12-26T09:15:41.046Z</time>
      </trkpt>
      <trkpt lat="46.72366" lon="-1.97413">
        <ele>6.8</ele>
        <time>2024-12-26T09:15:42.046Z</time>
      </trkpt>
      <trkpt lat="46.72364" lon="-1.97413">
        <ele>6.9</ele>
        <time>2024-12-26T09:15:43.046Z</time>
      </trkpt>
      <trkpt lat="46.72362" lon="-1.97412">
        <ele>7</ele>
        <time>2024-12-26T09:15:44.046Z</time>
      </trkpt>
      <trkpt lat="46.72361" lon="-1.97412">
        <ele>7</ele>
        <time>2024-12-26T09:15:45.046Z</time>
      </trkpt>
      <trkpt lat="46.72359" lon="-1.97411">
        <ele>7</ele>
        <time>2024-12-26T09:15:46.046Z</time>
      </trkpt>
      <trkpt lat="46.72358" lon="-1.97411">
        <ele>7</ele>
        <time>2024-12-26T09:15:47.045Z</time>
      </trkpt>
      <trkpt lat="46.72356" lon="-1.9741">
        <ele>7</ele>
        <time>2024-12-26T09:15:48.045Z</time>
      </trkpt>
      <trkpt lat="46.72355" lon="-1.9741">
        <ele>6.9</ele>
        <time>2024-12-26T09:15:49.045Z</time>
      </trkpt>
      <trkpt lat="46.72353" lon="-1.97409">
        <ele>6.9</ele>
        <time>2024-12-26T09:15:50.045Z</time>
      </trkpt>
      <trkpt lat="46.72351" lon="-1.97409">
        <ele>6.9</ele>
        <time>2024-12-26T09:15:51.046Z</time>
      </trkpt>
      <trkpt lat="46.72349" lon="-1.97409">
        <ele>6.9</ele>
        <time>2024-12-26T09:15:52.046Z</time>
      </trkpt>
      <trkpt lat="46.72348" lon="-1.97409">
        <ele>6.9</ele>
        <time>2024-12-26T09:15:53.046Z</time>
      </trkpt>
      <trkpt lat="46.72347" lon="-1.97409">
        <ele>6.9</ele>
        <time>2024-12-26T09:15:54.046Z</time>
      </trkpt>
      <trkpt lat="46.72346" lon="-1.9741">
        <ele>6.9</ele>
        <time>2024-12-26T09:15:55.046Z</time>
      </trkpt>
      <trkpt lat="46.72345" lon="-1.97411">
        <ele>6.9</ele>
        <time>2024-12-26T09:15:56.046Z</time>
      </trkpt>
      <trkpt lat="46.72343" lon="-1.97411">
        <ele>6.9</ele>
        <time>2024-12-26T09:15:57.045Z</time>
      </trkpt>
      <trkpt lat="46.72342" lon="-1.97412">
        <ele>6.9</ele>
        <time>2024-12-26T09:15:58.046Z</time>
      </trkpt>
      <trkpt lat="46.72341" lon="-1.97413">
        <ele>6.9</ele>
        <time>2024-12-26T09:15:59.045Z</time>
      </trkpt>
      <trkpt lat="46.72339" lon="-1.97414">
        <ele>6.9</ele>
        <time>2024-12-26T09:16:00.045Z</time>
      </trkpt>
      <trkpt lat="46.72337" lon="-1.97414">
        <ele>6.9</ele>
        <time>2024-12-26T09:16:01.045Z</time>
      </trkpt>
      <trkpt lat="46.72335" lon="-1.97415">
        <ele>6.9</ele>
        <time>2024-12-26T09:16:02.045Z</time>
      </trkpt>
      <trkpt lat="46.72334" lon="-1.97415">
        <ele>6.9</ele>
        <time>2024-12-26T09:16:03.045Z</time>
      </trkpt>
      <trkpt lat="46.72333" lon="-1.97415">
        <ele>6.9</ele>
        <time>2024-12-26T09:16:04.045Z</time>
      </trkpt>
      <trkpt lat="46.72332" lon="-1.97415">
        <ele>6.9</ele>
        <time>2024-12-26T09:16:05.045Z</time>
      </trkpt>
      <trkpt lat="46.72331" lon="-1.97415">
        <ele>6.9</ele>
        <time>2024-12-26T09:16:06.046Z</time>
      </trkpt>
      <trkpt lat="46.72331" lon="-1.97415">
        <ele>6.9</ele>
        <time>2024-12-26T09:16:07.046Z</time>
      </trkpt>
      <trkpt lat="46.7233" lon="-1.97415">
        <ele>6.9</ele>
        <time>2024-12-26T09:16:08.046Z</time>
      </trkpt>
      <trkpt lat="46.72329" lon="-1.97414">
        <ele>6.9</ele>
        <time>2024-12-26T09:16:09.045Z</time>
      </trkpt>
      <trkpt lat="46.72328" lon="-1.97414">
        <ele>6.9</ele>
        <time>2024-12-26T09:16:10.046Z</time>
      </trkpt>
      <trkpt lat="46.72328" lon="-1.97413">
        <ele>6.9</ele>
        <time>2024-12-26T09:16:11.046Z</time>
      </trkpt>
      <trkpt lat="46.72327" lon="-1.97413">
        <ele>6.9</ele>
        <time>2024-12-26T09:16:12.046Z</time>
      </trkpt>
      <trkpt lat="46.72327" lon="-1.97414">
        <ele>6.9</ele>
        <time>2024-12-26T09:16:13.046Z</time>
      </trkpt>
      <trkpt lat="46.72327" lon="-1.97414">
        <ele>6.9</ele>
        <time>2024-12-26T09:16:14.046Z</time>
      </trkpt>
      <trkpt lat="46.72327" lon="-1.97414">
        <ele>6.9</ele>
        <time>2024-12-26T09:16:15.045Z</time>
      </trkpt>
      <trkpt lat="46.72327" lon="-1.97415">
        <ele>6.9</ele>
        <time>2024-12-26T09:16:16.046Z</time>
      </trkpt>
      <trkpt lat="46.72326" lon="-1.97415">
        <ele>6.9</ele>
        <time>2024-12-26T09:16:17.046Z</time>
      </trkpt>
      <trkpt lat="46.72326" lon="-1.97415">
        <ele>6.9</ele>
        <time>2024-12-26T09:16:18.046Z</time>
      </trkpt>
      <trkpt lat="46.72326" lon="-1.97415">
        <ele>6.9</ele>
        <time>2024-12-26T09:16:19.046Z</time>
      </trkpt>
      <trkpt lat="46.72326" lon="-1.97414">
        <ele>6.9</ele>
        <time>2024-12-26T09:16:20.045Z</time>
      </trkpt>
      <trkpt lat="46.72326" lon="-1.97414">
        <ele>6.9</ele>
        <time>2024-12-26T09:16:21.045Z</time>
      </trkpt>
      <trkpt lat="46.72326" lon="-1.97416">
        <ele>7</ele>
        <time>2024-12-26T09:16:22.045Z</time>
      </trkpt>
      <trkpt lat="46.72326" lon="-1.97416">
        <ele>7</ele>
        <time>2024-12-26T09:16:23.045Z</time>
      </trkpt>
      <trkpt lat="46.72326" lon="-1.97416">
        <ele>7</ele>
        <time>2024-12-26T09:16:24.045Z</time>
      </trkpt>
      <trkpt lat="46.72326" lon="-1.97416">
        <ele>7</ele>
        <time>2024-12-26T09:16:25.046Z</time>
      </trkpt>
      <trkpt lat="46.72326" lon="-1.97416">
        <ele>7</ele>
        <time>2024-12-26T09:16:26.046Z</time>
      </trkpt>
      <trkpt lat="46.72325" lon="-1.97416">
        <ele>7</ele>
        <time>2024-12-26T09:16:27.046Z</time>
      </trkpt>
      <trkpt lat="46.72325" lon="-1.97416">
        <ele>7</ele>
        <time>2024-12-26T09:16:28.046Z</time>
      </trkpt>
      <trkpt lat="46.72325" lon="-1.97416">
        <ele>7</ele>
        <time>2024-12-26T09:16:29.046Z</time>
      </trkpt>
      <trkpt lat="46.72325" lon="-1.97416">
        <ele>7</ele>
        <time>2024-12-26T09:16:30.046Z</time>
      </trkpt>
      <trkpt lat="46.72325" lon="-1.97416">
        <ele>7</ele>
        <time>2024-12-26T09:16:31.046Z</time>
      </trkpt>
      <trkpt lat="46.72325" lon="-1.97416">
        <ele>7</ele>
        <time>2024-12-26T09:16:32.045Z</time>
      </trkpt>
      <trkpt lat="46.72325" lon="-1.97416">
        <ele>7</ele>
        <time>2024-12-26T09:16:33.045Z</time>
      </trkpt>
      <trkpt lat="46.72325" lon="-1.97416">
        <ele>7</ele>
        <time>2024-12-26T09:16:34.045Z</time>
      </trkpt>
      <trkpt lat="46.72325" lon="-1.97416">
        <ele>7</ele>
        <time>2024-12-26T09:16:35.045Z</time>
      </trkpt>
      <trkpt lat="46.72325" lon="-1.97416">
        <ele>7</ele>
        <time>2024-12-26T09:16:36.045Z</time>
      </trkpt>
      <trkpt lat="46.72325" lon="-1.97416">
        <ele>7</ele>
        <time>2024-12-26T09:16:37.045Z</time>
      </trkpt>
      <trkpt lat="46.72325" lon="-1.97416">
        <ele>7</ele>
        <time>2024-12-26T09:16:38.046Z</time>
      </trkpt>
      <trkpt lat="46.72325" lon="-1.97416">
        <ele>7</ele>
        <time>2024-12-26T09:16:39.046Z</time>
      </trkpt>
      <trkpt lat="46.72325" lon="-1.97416">
        <ele>7</ele>
        <time>2024-12-26T09:16:40.046Z</time>
      </trkpt>
      <trkpt lat="46.72325" lon="-1.97416">
        <ele>7</ele>
        <time>2024-12-26T09:16:41.046Z</time>
      </trkpt>
      <trkpt lat="46.72325" lon="-1.97416">
        <ele>7</ele>
        <time>2024-12-26T09:16:42.046Z</time>
      </trkpt>
      <trkpt lat="46.72325" lon="-1.97416">
        <ele>7</ele>
        <time>2024-12-26T09:16:43.046Z</time>
      </trkpt>
      <trkpt lat="46.72325" lon="-1.97416">
        <ele>7</ele>
        <time>2024-12-26T09:16:44.046Z</time>
      </trkpt>
      <trkpt lat="46.72325" lon="-1.97416">
        <ele>7</ele>
        <time>2024-12-26T09:16:45.045Z</time>
      </trkpt>
      <trkpt lat="46.72325" lon="-1.97416">
        <ele>7</ele>
        <time>2024-12-26T09:16:46.045Z</time>
      </trkpt>
      <trkpt lat="46.72325" lon="-1.97416">
        <ele>7</ele>
        <time>2024-12-26T09:16:47.045Z</time>
      </trkpt>
      <trkpt lat="46.72325" lon="-1.97416">
        <ele>7</ele>
        <time>2024-12-26T09:16:48.045Z</time>
      </trkpt>
      <trkpt lat="46.72325" lon="-1.97416">
        <ele>7</ele>
        <time>2024-12-26T09:16:49.045Z</time>
      </trkpt>
      <trkpt lat="46.72325" lon="-1.97416">
        <ele>7</ele>
        <time>2024-12-26T09:16:50.045Z</time>
      </trkpt>
      <trkpt lat="46.72325" lon="-1.97416">
        <ele>7</ele>
        <time>2024-12-26T09:16:51.045Z</time>
      </trkpt>
      <trkpt lat="46.72325" lon="-1.97416">
        <ele>7</ele>
        <time>2024-12-26T09:16:52.046Z</time>
      </trkpt>
      <trkpt lat="46.72325" lon="-1.97416">
        <ele>7</ele>
        <time>2024-12-26T09:16:53.045Z</time>
      </trkpt>
      <trkpt lat="46.72325" lon="-1.97416">
        <ele>7</ele>
        <time>2024-12-26T09:16:54.045Z</time>
      </trkpt>
      <trkpt lat="46.72325" lon="-1.97416">
        <ele>7</ele>
        <time>2024-12-26T09:16:55.045Z</time>
      </trkpt>
      <trkpt lat="46.72325" lon="-1.97415">
        <ele>7</ele>
        <time>2024-12-26T09:16:56.045Z</time>
      </trkpt>
      <trkpt lat="46.72325" lon="-1.97415">
        <ele>6.9</ele>
        <time>2024-12-26T09:16:57.045Z</time>
      </trkpt>
      <trkpt lat="46.72325" lon="-1.97414">
        <ele>6.9</ele>
        <time>2024-12-26T09:16:58.045Z</time>
      </trkpt>
      <trkpt lat="46.72325" lon="-1.97413">
        <ele>6.9</ele>
        <time>2024-12-26T09:16:59.045Z</time>
      </trkpt>
      <trkpt lat="46.72324" lon="-1.97413">
        <ele>6.9</ele>
        <time>2024-12-26T09:17:00.046Z</time>
      </trkpt>
      <trkpt lat="46.72324" lon="-1.97413">
        <ele>6.9</ele>
        <time>2024-12-26T09:17:01.046Z</time>
      </trkpt>
      <trkpt lat="46.72324" lon="-1.97412">
        <ele>6.9</ele>
        <time>2024-12-26T09:17:02.046Z</time>
      </trkpt>
      <trkpt lat="46.72324" lon="-1.97412">
        <ele>6.9</ele>
        <time>2024-12-26T09:17:03.046Z</time>
      </trkpt>
      <trkpt lat="46.72324" lon="-1.97412">
        <ele>6.9</ele>
        <time>2024-12-26T09:17:04.046Z</time>
      </trkpt>
      <trkpt lat="46.72322" lon="-1.97411">
        <ele>6.9</ele>
        <time>2024-12-26T09:17:05.046Z</time>
      </trkpt>
      <trkpt lat="46.72321" lon="-1.9741">
        <ele>6.9</ele>
        <time>2024-12-26T09:17:06.046Z</time>
      </trkpt>
      <trkpt lat="46.72319" lon="-1.97409">
        <ele>6.9</ele>
        <time>2024-12-26T09:17:07.045Z</time>
      </trkpt>
      <trkpt lat="46.72317" lon="-1.97407">
        <ele>6.9</ele>
        <time>2024-12-26T09:17:08.046Z</time>
      </trkpt>
      <trkpt lat="46.72316" lon="-1.97406">
        <ele>6.9</ele>
        <time>2024-12-26T09:17:09.045Z</time>
      </trkpt>
      <trkpt lat="46.72314" lon="-1.97405">
        <ele>6.9</ele>
        <time>2024-12-26T09:17:10.045Z</time>
      </trkpt>
      <trkpt lat="46.72312" lon="-1.97405">
        <ele>6.9</ele>
        <time>2024-12-26T09:17:11.046Z</time>
      </trkpt>
      <trkpt lat="46.7231" lon="-1.97404">
        <ele>6.9</ele>
        <time>2024-12-26T09:17:12.046Z</time>
      </trkpt>
      <trkpt lat="46.7231" lon="-1.97403">
        <ele>6.9</ele>
        <time>2024-12-26T09:17:13.046Z</time>
      </trkpt>
      <trkpt lat="46.72308" lon="-1.97403">
        <ele>6.9</ele>
        <time>2024-12-26T09:17:14.046Z</time>
      </trkpt>
      <trkpt lat="46.72309" lon="-1.97401">
        <ele>6.9</ele>
        <time>2024-12-26T09:17:15.045Z</time>
      </trkpt>
      <trkpt lat="46.72308" lon="-1.97401">
        <ele>6.9</ele>
        <time>2024-12-26T09:17:16.046Z</time>
      </trkpt>
      <trkpt lat="46.72308" lon="-1.974">
        <ele>7</ele>
        <time>2024-12-26T09:17:17.045Z</time>
      </trkpt>
      <trkpt lat="46.72307" lon="-1.974">
        <ele>7</ele>
        <time>2024-12-26T09:17:18.045Z</time>
      </trkpt>
      <trkpt lat="46.72306" lon="-1.97399">
        <ele>7</ele>
        <time>2024-12-26T09:17:19.045Z</time>
      </trkpt>
      <trkpt lat="46.72304" lon="-1.97397">
        <ele>7</ele>
        <time>2024-12-26T09:17:20.045Z</time>
      </trkpt>
      <trkpt lat="46.72303" lon="-1.97397">
        <ele>7.1</ele>
        <time>2024-12-26T09:17:21.045Z</time>
      </trkpt>
      <trkpt lat="46.72303" lon="-1.97395">
        <ele>7.1</ele>
        <time>2024-12-26T09:17:22.045Z</time>
      </trkpt>
      <trkpt lat="46.72302" lon="-1.97394">
        <ele>7.1</ele>
        <time>2024-12-26T09:17:23.046Z</time>
      </trkpt>
      <trkpt lat="46.72302" lon="-1.97392">
        <ele>7.1</ele>
        <time>2024-12-26T09:17:24.046Z</time>
      </trkpt>
      <trkpt lat="46.72302" lon="-1.9739">
        <ele>7.1</ele>
        <time>2024-12-26T09:17:25.045Z</time>
      </trkpt>
      <trkpt lat="46.72302" lon="-1.97388">
        <ele>7.1</ele>
        <time>2024-12-26T09:17:26.046Z</time>
      </trkpt>
      <trkpt lat="46.72302" lon="-1.97386">
        <ele>7.1</ele>
        <time>2024-12-26T09:17:27.046Z</time>
      </trkpt>
      <trkpt lat="46.72301" lon="-1.97385">
        <ele>7.2</ele>
        <time>2024-12-26T09:17:28.046Z</time>
      </trkpt>
      <trkpt lat="46.72299" lon="-1.97384">
        <ele>7.2</ele>
        <time>2024-12-26T09:17:29.046Z</time>
      </trkpt>
      <trkpt lat="46.72297" lon="-1.97383">
        <ele>7.2</ele>
        <time>2024-12-26T09:17:30.046Z</time>
      </trkpt>
      <trkpt lat="46.72295" lon="-1.97381">
        <ele>7.3</ele>
        <time>2024-12-26T09:17:31.046Z</time>
      </trkpt>
      <trkpt lat="46.72294" lon="-1.9738">
        <ele>7.3</ele>
        <time>2024-12-26T09:17:32.045Z</time>
      </trkpt>
      <trkpt lat="46.72294" lon="-1.97378">
        <ele>7.3</ele>
        <time>2024-12-26T09:17:33.045Z</time>
      </trkpt>
      <trkpt lat="46.72294" lon="-1.97376">
        <ele>7.2</ele>
        <time>2024-12-26T09:17:34.045Z</time>
      </trkpt>
      <trkpt lat="46.72295" lon="-1.97375">
        <ele>7.2</ele>
        <time>2024-12-26T09:17:35.045Z</time>
      </trkpt>
      <trkpt lat="46.72295" lon="-1.97373">
        <ele>7.2</ele>
        <time>2024-12-26T09:17:36.045Z</time>
      </trkpt>
      <trkpt lat="46.72295" lon="-1.97372">
        <ele>7.2</ele>
        <time>2024-12-26T09:17:37.046Z</time>
      </trkpt>
      <trkpt lat="46.72295" lon="-1.97372">
        <ele>7.1</ele>
        <time>2024-12-26T09:17:38.046Z</time>
      </trkpt>
      <trkpt lat="46.72296" lon="-1.97371">
        <ele>7.1</ele>
        <time>2024-12-26T09:17:39.046Z</time>
      </trkpt>
      <trkpt lat="46.72295" lon="-1.9737">
        <ele>7.1</ele>
        <time>2024-12-26T09:17:40.045Z</time>
      </trkpt>
      <trkpt lat="46.72294" lon="-1.97369">
        <ele>7.1</ele>
        <time>2024-12-26T09:17:41.046Z</time>
      </trkpt>
      <trkpt lat="46.72293" lon="-1.97368">
        <ele>7.1</ele>
        <time>2024-12-26T09:17:42.046Z</time>
      </trkpt>
      <trkpt lat="46.72292" lon="-1.97366">
        <ele>7.1</ele>
        <time>2024-12-26T09:17:43.045Z</time>
      </trkpt>
      <trkpt lat="46.7229" lon="-1.97364">
        <ele>7.1</ele>
        <time>2024-12-26T09:17:44.045Z</time>
      </trkpt>
      <trkpt lat="46.72288" lon="-1.97363">
        <ele>7</ele>
        <time>2024-12-26T09:17:45.046Z</time>
      </trkpt>
      <trkpt lat="46.72287" lon="-1.97362">
        <ele>7</ele>
        <time>2024-12-26T09:17:46.045Z</time>
      </trkpt>
      <trkpt lat="46.72286" lon="-1.9736">
        <ele>7</ele>
        <time>2024-12-26T09:17:47.046Z</time>
      </trkpt>
      <trkpt lat="46.72285" lon="-1.97359">
        <ele>7</ele>
        <time>2024-12-26T09:17:48.046Z</time>
      </trkpt>
      <trkpt lat="46.72284" lon="-1.97357">
        <ele>7</ele>
        <time>2024-12-26T09:17:49.046Z</time>
      </trkpt>
      <trkpt lat="46.72284" lon="-1.97356">
        <ele>7</ele>
        <time>2024-12-26T09:17:50.046Z</time>
      </trkpt>
      <trkpt lat="46.72283" lon="-1.97355">
        <ele>7</ele>
        <time>2024-12-26T09:17:51.045Z</time>
      </trkpt>
      <trkpt lat="46.72283" lon="-1.97354">
        <ele>7</ele>
        <time>2024-12-26T09:17:52.045Z</time>
      </trkpt>
      <trkpt lat="46.72283" lon="-1.97354">
        <ele>7</ele>
        <time>2024-12-26T09:17:53.045Z</time>
      </trkpt>
      <trkpt lat="46.72282" lon="-1.97353">
        <ele>7</ele>
        <time>2024-12-26T09:17:54.046Z</time>
      </trkpt>
      <trkpt lat="46.72283" lon="-1.97352">
        <ele>7</ele>
        <time>2024-12-26T09:17:55.046Z</time>
      </trkpt>
      <trkpt lat="46.72282" lon="-1.97349">
        <ele>7</ele>
        <time>2024-12-26T09:17:56.046Z</time>
      </trkpt>
      <trkpt lat="46.72282" lon="-1.97347">
        <ele>7</ele>
        <time>2024-12-26T09:17:57.046Z</time>
      </trkpt>
      <trkpt lat="46.72281" lon="-1.97346">
        <ele>7</ele>
        <time>2024-12-26T09:17:58.046Z</time>
      </trkpt>
      <trkpt lat="46.72281" lon="-1.97343">
        <ele>7</ele>
        <time>2024-12-26T09:17:59.046Z</time>
      </trkpt>
      <trkpt lat="46.72281" lon="-1.9734">
        <ele>7</ele>
        <time>2024-12-26T09:18:00.045Z</time>
      </trkpt>
      <trkpt lat="46.72281" lon="-1.97338">
        <ele>7</ele>
        <time>2024-12-26T09:18:01.045Z</time>
      </trkpt>
      <trkpt lat="46.72281" lon="-1.97336">
        <ele>7</ele>
        <time>2024-12-26T09:18:02.045Z</time>
      </trkpt>
      <trkpt lat="46.72281" lon="-1.97334">
        <ele>7</ele>
        <time>2024-12-26T09:18:03.046Z</time>
      </trkpt>
      <trkpt lat="46.72281" lon="-1.97333">
        <ele>7</ele>
        <time>2024-12-26T09:18:04.045Z</time>
      </trkpt>
      <trkpt lat="46.7228" lon="-1.97332">
        <ele>7</ele>
        <time>2024-12-26T09:18:05.046Z</time>
      </trkpt>
      <trkpt lat="46.72278" lon="-1.9733">
        <ele>7</ele>
        <time>2024-12-26T09:18:06.045Z</time>
      </trkpt>
      <trkpt lat="46.72275" lon="-1.97327">
        <ele>7.1</ele>
        <time>2024-12-26T09:18:07.046Z</time>
      </trkpt>
      <trkpt lat="46.72273" lon="-1.97326">
        <ele>7.1</ele>
        <time>2024-12-26T09:18:08.046Z</time>
      </trkpt>
      <trkpt lat="46.72272" lon="-1.97324">
        <ele>7.1</ele>
        <time>2024-12-26T09:18:09.045Z</time>
      </trkpt>
      <trkpt lat="46.72271" lon="-1.97323">
        <ele>7.2</ele>
        <time>2024-12-26T09:18:10.046Z</time>
      </trkpt>
      <trkpt lat="46.7227" lon="-1.97321">
        <ele>7.2</ele>
        <time>2024-12-26T09:18:11.045Z</time>
      </trkpt>
      <trkpt lat="46.72269" lon="-1.97319">
        <ele>7.1</ele>
        <time>2024-12-26T09:18:12.045Z</time>
      </trkpt>
      <trkpt lat="46.72268" lon="-1.97317">
        <ele>7.1</ele>
        <time>2024-12-26T09:18:13.045Z</time>
      </trkpt>
      <trkpt lat="46.72267" lon="-1.97315">
        <ele>7.1</ele>
        <time>2024-12-26T09:18:14.045Z</time>
      </trkpt>
      <trkpt lat="46.72266" lon="-1.97314">
        <ele>7.1</ele>
        <time>2024-12-26T09:18:15.046Z</time>
      </trkpt>
      <trkpt lat="46.72266" lon="-1.97313">
        <ele>7.1</ele>
        <time>2024-12-26T09:18:16.046Z</time>
      </trkpt>
      <trkpt lat="46.72266" lon="-1.97311">
        <ele>7.1</ele>
        <time>2024-12-26T09:18:17.046Z</time>
      </trkpt>
      <trkpt lat="46.72266" lon="-1.9731">
        <ele>7.1</ele>
        <time>2024-12-26T09:18:18.046Z</time>
      </trkpt>
      <trkpt lat="46.72267" lon="-1.97308">
        <ele>7</ele>
        <time>2024-12-26T09:18:19.045Z</time>
      </trkpt>
      <trkpt lat="46.72267" lon="-1.97307">
        <ele>7</ele>
        <time>2024-12-26T09:18:20.046Z</time>
      </trkpt>
      <trkpt lat="46.72267" lon="-1.97306">
        <ele>7</ele>
        <time>2024-12-26T09:18:21.045Z</time>
      </trkpt>
      <trkpt lat="46.72266" lon="-1.97304">
        <ele>7</ele>
        <time>2024-12-26T09:18:22.046Z</time>
      </trkpt>
      <trkpt lat="46.72265" lon="-1.97302">
        <ele>7.1</ele>
        <time>2024-12-26T09:18:23.045Z</time>
      </trkpt>
      <trkpt lat="46.72265" lon="-1.973">
        <ele>7.1</ele>
        <time>2024-12-26T09:18:24.045Z</time>
      </trkpt>
      <trkpt lat="46.72265" lon="-1.97298">
        <ele>7.2</ele>
        <time>2024-12-26T09:18:25.045Z</time>
      </trkpt>
      <trkpt lat="46.72265" lon="-1.97295">
        <ele>7.2</ele>
        <time>2024-12-26T09:18:26.045Z</time>
      </trkpt>
      <trkpt lat="46.72265" lon="-1.97293">
        <ele>7.2</ele>
        <time>2024-12-26T09:18:27.046Z</time>
      </trkpt>
      <trkpt lat="46.72264" lon="-1.97292">
        <ele>7.2</ele>
        <time>2024-12-26T09:18:28.046Z</time>
      </trkpt>
      <trkpt lat="46.72262" lon="-1.97291">
        <ele>7.2</ele>
        <time>2024-12-26T09:18:29.046Z</time>
      </trkpt>
      <trkpt lat="46.72261" lon="-1.97289">
        <ele>7.2</ele>
        <time>2024-12-26T09:18:30.046Z</time>
      </trkpt>
      <trkpt lat="46.7226" lon="-1.97287">
        <ele>7.2</ele>
        <time>2024-12-26T09:18:31.046Z</time>
      </trkpt>
      <trkpt lat="46.7226" lon="-1.97286">
        <ele>7.3</ele>
        <time>2024-12-26T09:18:32.046Z</time>
      </trkpt>
      <trkpt lat="46.7226" lon="-1.97284">
        <ele>7.3</ele>
        <time>2024-12-26T09:18:33.045Z</time>
      </trkpt>
      <trkpt lat="46.7226" lon="-1.97283">
        <ele>7.3</ele>
        <time>2024-12-26T09:18:34.045Z</time>
      </trkpt>
      <trkpt lat="46.72259" lon="-1.9728">
        <ele>7.3</ele>
        <time>2024-12-26T09:18:35.045Z</time>
      </trkpt>
      <trkpt lat="46.72259" lon="-1.97278">
        <ele>7.3</ele>
        <time>2024-12-26T09:18:36.045Z</time>
      </trkpt>
      <trkpt lat="46.72259" lon="-1.97277">
        <ele>7.3</ele>
        <time>2024-12-26T09:18:37.045Z</time>
      </trkpt>
      <trkpt lat="46.72258" lon="-1.97276">
        <ele>7.2</ele>
        <time>2024-12-26T09:18:38.045Z</time>
      </trkpt>
      <trkpt lat="46.72257" lon="-1.97276">
        <ele>7.2</ele>
        <time>2024-12-26T09:18:39.046Z</time>
      </trkpt>
      <trkpt lat="46.72255" lon="-1.97275">
        <ele>7.1</ele>
        <time>2024-12-26T09:18:40.046Z</time>
      </trkpt>
      <trkpt lat="46.72253" lon="-1.97274">
        <ele>7</ele>
        <time>2024-12-26T09:18:41.045Z</time>
      </trkpt>
      <trkpt lat="46.72251" lon="-1.97272">
        <ele>6.8</ele>
        <time>2024-12-26T09:18:42.045Z</time>
      </trkpt>
      <trkpt lat="46.7225" lon="-1.97269">
        <ele>6.7</ele>
        <time>2024-12-26T09:18:43.046Z</time>
      </trkpt>
      <trkpt lat="46.72249" lon="-1.97267">
        <ele>6.6</ele>
        <time>2024-12-26T09:18:44.046Z</time>
      </trkpt>
      <trkpt lat="46.72249" lon="-1.97266">
        <ele>6.6</ele>
        <time>2024-12-26T09:18:45.046Z</time>
      </trkpt>
      <trkpt lat="46.72248" lon="-1.97264">
        <ele>6.5</ele>
        <time>2024-12-26T09:18:46.045Z</time>
      </trkpt>
      <trkpt lat="46.72247" lon="-1.97262">
        <ele>6.5</ele>
        <time>2024-12-26T09:18:47.045Z</time>
      </trkpt>
      <trkpt lat="46.72246" lon="-1.97261">
        <ele>6.5</ele>
        <time>2024-12-26T09:18:48.045Z</time>
      </trkpt>
      <trkpt lat="46.72245" lon="-1.9726">
        <ele>6.5</ele>
        <time>2024-12-26T09:18:49.045Z</time>
      </trkpt>
      <trkpt lat="46.72244" lon="-1.9726">
        <ele>6.5</ele>
        <time>2024-12-26T09:18:50.045Z</time>
      </trkpt>
      <trkpt lat="46.72244" lon="-1.9726">
        <ele>6.5</ele>
        <time>2024-12-26T09:18:51.045Z</time>
      </trkpt>
      <trkpt lat="46.72244" lon="-1.97259">
        <ele>6.5</ele>
        <time>2024-12-26T09:18:52.046Z</time>
      </trkpt>
      <trkpt lat="46.72244" lon="-1.97258">
        <ele>6.5</ele>
        <time>2024-12-26T09:18:53.046Z</time>
      </trkpt>
      <trkpt lat="46.72243" lon="-1.97257">
        <ele>6.4</ele>
        <time>2024-12-26T09:18:54.045Z</time>
      </trkpt>
      <trkpt lat="46.72243" lon="-1.97257">
        <ele>6.4</ele>
        <time>2024-12-26T09:18:55.046Z</time>
      </trkpt>
      <trkpt lat="46.72241" lon="-1.97256">
        <ele>6.5</ele>
        <time>2024-12-26T09:18:56.046Z</time>
      </trkpt>
      <trkpt lat="46.72239" lon="-1.97254">
        <ele>6.5</ele>
        <time>2024-12-26T09:18:57.046Z</time>
      </trkpt>
      <trkpt lat="46.72237" lon="-1.97253">
        <ele>6.5</ele>
        <time>2024-12-26T09:18:58.046Z</time>
      </trkpt>
      <trkpt lat="46.72235" lon="-1.97251">
        <ele>6.6</ele>
        <time>2024-12-26T09:18:59.046Z</time>
      </trkpt>
      <trkpt lat="46.72234" lon="-1.97249">
        <ele>6.5</ele>
        <time>2024-12-26T09:19:00.045Z</time>
      </trkpt>
      <trkpt lat="46.72235" lon="-1.97248">
        <ele>6.5</ele>
        <time>2024-12-26T09:19:01.045Z</time>
      </trkpt>
      <trkpt lat="46.72235" lon="-1.97247">
        <ele>6.5</ele>
        <time>2024-12-26T09:19:02.045Z</time>
      </trkpt>
      <trkpt lat="46.72234" lon="-1.97246">
        <ele>6.5</ele>
        <time>2024-12-26T09:19:03.045Z</time>
      </trkpt>
      <trkpt lat="46.72234" lon="-1.97245">
        <ele>6.5</ele>
        <time>2024-12-26T09:19:04.046Z</time>
      </trkpt>
      <trkpt lat="46.72233" lon="-1.97244">
        <ele>6.5</ele>
        <time>2024-12-26T09:19:05.046Z</time>
      </trkpt>
      <trkpt lat="46.72233" lon="-1.97242">
        <ele>6.5</ele>
        <time>2024-12-26T09:19:06.046Z</time>
      </trkpt>
      <trkpt lat="46.72233" lon="-1.97241">
        <ele>6.4</ele>
        <time>2024-12-26T09:19:07.046Z</time>
      </trkpt>
      <trkpt lat="46.72233" lon="-1.97239">
        <ele>6.4</ele>
        <time>2024-12-26T09:19:08.046Z</time>
      </trkpt>
      <trkpt lat="46.72232" lon="-1.97237">
        <ele>6.3</ele>
        <time>2024-12-26T09:19:09.046Z</time>
      </trkpt>
      <trkpt lat="46.72232" lon="-1.97236">
        <ele>6.3</ele>
        <time>2024-12-26T09:19:10.046Z</time>
      </trkpt>
      <trkpt lat="46.72232" lon="-1.97234">
        <ele>6.3</ele>
        <time>2024-12-26T09:19:11.046Z</time>
      </trkpt>
      <trkpt lat="46.72232" lon="-1.97233">
        <ele>6.2</ele>
        <time>2024-12-26T09:19:12.045Z</time>
      </trkpt>
      <trkpt lat="46.72232" lon="-1.97231">
        <ele>6.2</ele>
        <time>2024-12-26T09:19:13.046Z</time>
      </trkpt>
      <trkpt lat="46.72232" lon="-1.97229">
        <ele>6.2</ele>
        <time>2024-12-26T09:19:14.046Z</time>
      </trkpt>
      <trkpt lat="46.72231" lon="-1.97227">
        <ele>6.1</ele>
        <time>2024-12-26T09:19:15.046Z</time>
      </trkpt>
      <trkpt lat="46.7223" lon="-1.97225">
        <ele>6.1</ele>
        <time>2024-12-26T09:19:16.046Z</time>
      </trkpt>
      <trkpt lat="46.72228" lon="-1.97224">
        <ele>6</ele>
        <time>2024-12-26T09:19:17.045Z</time>
      </trkpt>
      <trkpt lat="46.72227" lon="-1.97223">
        <ele>6</ele>
        <time>2024-12-26T09:19:18.045Z</time>
      </trkpt>
      <trkpt lat="46.72225" lon="-1.97221">
        <ele>6</ele>
        <time>2024-12-26T09:19:19.045Z</time>
      </trkpt>
      <trkpt lat="46.72223" lon="-1.9722">
        <ele>6</ele>
        <time>2024-12-26T09:19:20.046Z</time>
      </trkpt>
      <trkpt lat="46.72222" lon="-1.97219">
        <ele>6</ele>
        <time>2024-12-26T09:19:21.046Z</time>
      </trkpt>
      <trkpt lat="46.72221" lon="-1.97218">
        <ele>6</ele>
        <time>2024-12-26T09:19:22.046Z</time>
      </trkpt>
      <trkpt lat="46.72222" lon="-1.97215">
        <ele>6</ele>
        <time>2024-12-26T09:19:23.045Z</time>
      </trkpt>
      <trkpt lat="46.72223" lon="-1.97213">
        <ele>6</ele>
        <time>2024-12-26T09:19:24.045Z</time>
      </trkpt>
      <trkpt lat="46.72223" lon="-1.9721">
        <ele>6</ele>
        <time>2024-12-26T09:19:25.045Z</time>
      </trkpt>
      <trkpt lat="46.72224" lon="-1.97208">
        <ele>6</ele>
        <time>2024-12-26T09:19:26.045Z</time>
      </trkpt>
      <trkpt lat="46.72224" lon="-1.97205">
        <ele>6</ele>
        <time>2024-12-26T09:19:27.045Z</time>
      </trkpt>
      <trkpt lat="46.72225" lon="-1.97203">
        <ele>6</ele>
        <time>2024-12-26T09:19:28.045Z</time>
      </trkpt>
      <trkpt lat="46.72225" lon="-1.97202">
        <ele>6</ele>
        <time>2024-12-26T09:19:29.046Z</time>
      </trkpt>
      <trkpt lat="46.72225" lon="-1.972">
        <ele>6</ele>
        <time>2024-12-26T09:19:30.045Z</time>
      </trkpt>
      <trkpt lat="46.72224" lon="-1.97199">
        <ele>6</ele>
        <time>2024-12-26T09:19:31.046Z</time>
      </trkpt>
      <trkpt lat="46.72223" lon="-1.97197">
        <ele>6</ele>
        <time>2024-12-26T09:19:32.046Z</time>
      </trkpt>
      <trkpt lat="46.72223" lon="-1.97195">
        <ele>6</ele>
        <time>2024-12-26T09:19:33.046Z</time>
      </trkpt>
      <trkpt lat="46.72223" lon="-1.97192">
        <ele>6</ele>
        <time>2024-12-26T09:19:34.046Z</time>
      </trkpt>
      <trkpt lat="46.72223" lon="-1.97191">
        <ele>6</ele>
        <time>2024-12-26T09:19:35.046Z</time>
      </trkpt>
      <trkpt lat="46.72224" lon="-1.9719">
        <ele>6</ele>
        <time>2024-12-26T09:19:36.046Z</time>
      </trkpt>
      <trkpt lat="46.72224" lon="-1.97188">
        <ele>6</ele>
        <time>2024-12-26T09:19:37.045Z</time>
      </trkpt>
      <trkpt lat="46.72224" lon="-1.97187">
        <ele>6</ele>
        <time>2024-12-26T09:19:38.045Z</time>
      </trkpt>
      <trkpt lat="46.72226" lon="-1.97186">
        <ele>6</ele>
        <time>2024-12-26T09:19:39.045Z</time>
      </trkpt>
      <trkpt lat="46.72227" lon="-1.97185">
        <ele>6.1</ele>
        <time>2024-12-26T09:19:40.045Z</time>
      </trkpt>
      <trkpt lat="46.72227" lon="-1.97183">
        <ele>6.1</ele>
        <time>2024-12-26T09:19:41.046Z</time>
      </trkpt>
      <trkpt lat="46.72227" lon="-1.97182">
        <ele>6.1</ele>
        <time>2024-12-26T09:19:42.046Z</time>
      </trkpt>
      <trkpt lat="46.72228" lon="-1.97181">
        <ele>6.1</ele>
        <time>2024-12-26T09:19:43.046Z</time>
      </trkpt>
      <trkpt lat="46.72229" lon="-1.97179">
        <ele>6.1</ele>
        <time>2024-12-26T09:19:44.046Z</time>
      </trkpt>
      <trkpt lat="46.7223" lon="-1.97177">
        <ele>6.2</ele>
        <time>2024-12-26T09:19:45.045Z</time>
      </trkpt>
      <trkpt lat="46.72231" lon="-1.97176">
        <ele>6.2</ele>
        <time>2024-12-26T09:19:46.045Z</time>
      </trkpt>
      <trkpt lat="46.72232" lon="-1.97175">
        <ele>6.2</ele>
        <time>2024-12-26T09:19:47.046Z</time>
      </trkpt>
      <trkpt lat="46.72232" lon="-1.97174">
        <ele>6.3</ele>
        <time>2024-12-26T09:19:48.045Z</time>
      </trkpt>
      <trkpt lat="46.72233" lon="-1.97173">
        <ele>6.3</ele>
        <time>2024-12-26T09:19:49.046Z</time>
      </trkpt>
      <trkpt lat="46.72233" lon="-1.97172">
        <ele>6.3</ele>
        <time>2024-12-26T09:19:50.046Z</time>
      </trkpt>
      <trkpt lat="46.72233" lon="-1.9717">
        <ele>6.3</ele>
        <time>2024-12-26T09:19:51.045Z</time>
      </trkpt>
      <trkpt lat="46.72234" lon="-1.97168">
        <ele>6.4</ele>
        <time>2024-12-26T09:19:52.045Z</time>
      </trkpt>
      <trkpt lat="46.72234" lon="-1.97167">
        <ele>6.4</ele>
        <time>2024-12-26T09:19:53.046Z</time>
      </trkpt>
      <trkpt lat="46.72235" lon="-1.97166">
        <ele>6.5</ele>
        <time>2024-12-26T09:19:54.045Z</time>
      </trkpt>
      <trkpt lat="46.72236" lon="-1.97164">
        <ele>6.5</ele>
        <time>2024-12-26T09:19:55.046Z</time>
      </trkpt>
      <trkpt lat="46.72237" lon="-1.97162">
        <ele>6.5</ele>
        <time>2024-12-26T09:19:56.046Z</time>
      </trkpt>
      <trkpt lat="46.72237" lon="-1.9716">
        <ele>6.5</ele>
        <time>2024-12-26T09:19:57.046Z</time>
      </trkpt>
      <trkpt lat="46.72238" lon="-1.97159">
        <ele>6.6</ele>
        <time>2024-12-26T09:19:58.046Z</time>
      </trkpt>
      <trkpt lat="46.72239" lon="-1.97158">
        <ele>6.6</ele>
        <time>2024-12-26T09:19:59.046Z</time>
      </trkpt>
      <trkpt lat="46.72239" lon="-1.97156">
        <ele>6.6</ele>
        <time>2024-12-26T09:20:00.046Z</time>
      </trkpt>
      <trkpt lat="46.7224" lon="-1.97154">
        <ele>6.6</ele>
        <time>2024-12-26T09:20:01.046Z</time>
      </trkpt>
      <trkpt lat="46.7224" lon="-1.97152">
        <ele>6.6</ele>
        <time>2024-12-26T09:20:02.045Z</time>
      </trkpt>
      <trkpt lat="46.7224" lon="-1.9715">
        <ele>6.6</ele>
        <time>2024-12-26T09:20:03.045Z</time>
      </trkpt>
      <trkpt lat="46.72239" lon="-1.97147">
        <ele>6.6</ele>
        <time>2024-12-26T09:20:04.045Z</time>
      </trkpt>
      <trkpt lat="46.72239" lon="-1.97144">
        <ele>6.6</ele>
        <time>2024-12-26T09:20:05.045Z</time>
      </trkpt>
      <trkpt lat="46.7224" lon="-1.9714">
        <ele>6.6</ele>
        <time>2024-12-26T09:20:06.045Z</time>
      </trkpt>
      <trkpt lat="46.7224" lon="-1.97137">
        <ele>6.6</ele>
        <time>2024-12-26T09:20:07.046Z</time>
      </trkpt>
      <trkpt lat="46.72239" lon="-1.97135">
        <ele>6.6</ele>
        <time>2024-12-26T09:20:08.045Z</time>
      </trkpt>
      <trkpt lat="46.72238" lon="-1.97134">
        <ele>6.5</ele>
        <time>2024-12-26T09:20:09.045Z</time>
      </trkpt>
      <trkpt lat="46.72237" lon="-1.97132">
        <ele>6.5</ele>
        <time>2024-12-26T09:20:10.046Z</time>
      </trkpt>
      <trkpt lat="46.72237" lon="-1.97131">
        <ele>6.5</ele>
        <time>2024-12-26T09:20:11.045Z</time>
      </trkpt>
      <trkpt lat="46.72236" lon="-1.9713">
        <ele>6.5</ele>
        <time>2024-12-26T09:20:12.045Z</time>
      </trkpt>
      <trkpt lat="46.72235" lon="-1.97128">
        <ele>6.5</ele>
        <time>2024-12-26T09:20:13.046Z</time>
      </trkpt>
      <trkpt lat="46.72234" lon="-1.97127">
        <ele>6.4</ele>
        <time>2024-12-26T09:20:14.046Z</time>
      </trkpt>
      <trkpt lat="46.72232" lon="-1.97125">
        <ele>6.3</ele>
        <time>2024-12-26T09:20:15.046Z</time>
      </trkpt>
      <trkpt lat="46.72231" lon="-1.97123">
        <ele>6.3</ele>
        <time>2024-12-26T09:20:16.046Z</time>
      </trkpt>
      <trkpt lat="46.7223" lon="-1.97121">
        <ele>6.3</ele>
        <time>2024-12-26T09:20:17.046Z</time>
      </trkpt>
      <trkpt lat="46.72229" lon="-1.9712">
        <ele>6.2</ele>
        <time>2024-12-26T09:20:18.046Z</time>
      </trkpt>
      <trkpt lat="46.72228" lon="-1.97119">
        <ele>6.2</ele>
        <time>2024-12-26T09:20:19.046Z</time>
      </trkpt>
      <trkpt lat="46.72228" lon="-1.97115">
        <ele>6.2</ele>
        <time>2024-12-26T09:20:20.046Z</time>
      </trkpt>
      <trkpt lat="46.72227" lon="-1.97112">
        <ele>6.2</ele>
        <time>2024-12-26T09:20:21.045Z</time>
      </trkpt>
      <trkpt lat="46.72227" lon="-1.97109">
        <ele>6.3</ele>
        <time>2024-12-26T09:20:22.045Z</time>
      </trkpt>
      <trkpt lat="46.72226" lon="-1.97107">
        <ele>6.3</ele>
        <time>2024-12-26T09:20:23.045Z</time>
      </trkpt>
      <trkpt lat="46.72225" lon="-1.97106">
        <ele>6.3</ele>
        <time>2024-12-26T09:20:24.045Z</time>
      </trkpt>
      <trkpt lat="46.72224" lon="-1.97104">
        <ele>6.3</ele>
        <time>2024-12-26T09:20:25.045Z</time>
      </trkpt>
      <trkpt lat="46.72223" lon="-1.97102">
        <ele>6.4</ele>
        <time>2024-12-26T09:20:26.045Z</time>
      </trkpt>
      <trkpt lat="46.72223" lon="-1.97101">
        <ele>6.4</ele>
        <time>2024-12-26T09:20:27.045Z</time>
      </trkpt>
      <trkpt lat="46.72223" lon="-1.971">
        <ele>6.4</ele>
        <time>2024-12-26T09:20:28.046Z</time>
      </trkpt>
      <trkpt lat="46.72223" lon="-1.971">
        <ele>6.4</ele>
        <time>2024-12-26T09:20:29.045Z</time>
      </trkpt>
      <trkpt lat="46.72222" lon="-1.97098">
        <ele>6.5</ele>
        <time>2024-12-26T09:20:30.046Z</time>
      </trkpt>
      <trkpt lat="46.72222" lon="-1.97096">
        <ele>6.5</ele>
        <time>2024-12-26T09:20:31.045Z</time>
      </trkpt>
      <trkpt lat="46.72222" lon="-1.97093">
        <ele>6.7</ele>
        <time>2024-12-26T09:20:32.045Z</time>
      </trkpt>
      <trkpt lat="46.72222" lon="-1.9709">
        <ele>6.7</ele>
        <time>2024-12-26T09:20:33.046Z</time>
      </trkpt>
      <trkpt lat="46.72222" lon="-1.97088">
        <ele>6.8</ele>
        <time>2024-12-26T09:20:34.045Z</time>
      </trkpt>
      <trkpt lat="46.72221" lon="-1.97087">
        <ele>6.8</ele>
        <time>2024-12-26T09:20:35.045Z</time>
      </trkpt>
      <trkpt lat="46.7222" lon="-1.97085">
        <ele>6.9</ele>
        <time>2024-12-26T09:20:36.045Z</time>
      </trkpt>
      <trkpt lat="46.7222" lon="-1.97083">
        <ele>6.9</ele>
        <time>2024-12-26T09:20:37.045Z</time>
      </trkpt>
      <trkpt lat="46.72219" lon="-1.97081">
        <ele>6.8</ele>
        <time>2024-12-26T09:20:38.045Z</time>
      </trkpt>
      <trkpt lat="46.72219" lon="-1.97079">
        <ele>6.7</ele>
        <time>2024-12-26T09:20:39.045Z</time>
      </trkpt>
      <trkpt lat="46.72218" lon="-1.97077">
        <ele>6.7</ele>
        <time>2024-12-26T09:20:40.045Z</time>
      </trkpt>
      <trkpt lat="46.72218" lon="-1.97076">
        <ele>6.6</ele>
        <time>2024-12-26T09:20:41.045Z</time>
      </trkpt>
      <trkpt lat="46.72217" lon="-1.97073">
        <ele>6.5</ele>
        <time>2024-12-26T09:20:42.046Z</time>
      </trkpt>
      <trkpt lat="46.72217" lon="-1.97071">
        <ele>6.5</ele>
        <time>2024-12-26T09:20:43.045Z</time>
      </trkpt>
      <trkpt lat="46.72217" lon="-1.97069">
        <ele>6.4</ele>
        <time>2024-12-26T09:20:44.046Z</time>
      </trkpt>
      <trkpt lat="46.72217" lon="-1.97067">
        <ele>6.3</ele>
        <time>2024-12-26T09:20:45.046Z</time>
      </trkpt>
      <trkpt lat="46.72217" lon="-1.97065">
        <ele>6.3</ele>
        <time>2024-12-26T09:20:46.046Z</time>
      </trkpt>
      <trkpt lat="46.72218" lon="-1.97063">
        <ele>6.2</ele>
        <time>2024-12-26T09:20:47.046Z</time>
      </trkpt>
      <trkpt lat="46.72219" lon="-1.97061">
        <ele>6.2</ele>
        <time>2024-12-26T09:20:48.045Z</time>
      </trkpt>
      <trkpt lat="46.7222" lon="-1.9706">
        <ele>6.1</ele>
        <time>2024-12-26T09:20:49.045Z</time>
      </trkpt>
      <trkpt lat="46.7222" lon="-1.97057">
        <ele>6</ele>
        <time>2024-12-26T09:20:50.046Z</time>
      </trkpt>
      <trkpt lat="46.72221" lon="-1.97055">
        <ele>6</ele>
        <time>2024-12-26T09:20:51.045Z</time>
      </trkpt>
      <trkpt lat="46.72221" lon="-1.97055">
        <ele>6</ele>
        <time>2024-12-26T09:20:52.045Z</time>
      </trkpt>
      <trkpt lat="46.72221" lon="-1.97053">
        <ele>6.1</ele>
        <time>2024-12-26T09:20:53.045Z</time>
      </trkpt>
      <trkpt lat="46.72222" lon="-1.97051">
        <ele>6.2</ele>
        <time>2024-12-26T09:20:54.045Z</time>
      </trkpt>
      <trkpt lat="46.72223" lon="-1.97049">
        <ele>6.3</ele>
        <time>2024-12-26T09:20:55.046Z</time>
      </trkpt>
      <trkpt lat="46.72224" lon="-1.97048">
        <ele>6.3</ele>
        <time>2024-12-26T09:20:56.045Z</time>
      </trkpt>
      <trkpt lat="46.72224" lon="-1.97048">
        <ele>6.4</ele>
        <time>2024-12-26T09:20:57.045Z</time>
      </trkpt>
      <trkpt lat="46.72224" lon="-1.97048">
        <ele>6.4</ele>
        <time>2024-12-26T09:20:58.045Z</time>
      </trkpt>
      <trkpt lat="46.72225" lon="-1.97048">
        <ele>6.4</ele>
        <time>2024-12-26T09:20:59.045Z</time>
      </trkpt>
      <trkpt lat="46.72225" lon="-1.97046">
        <ele>6.5</ele>
        <time>2024-12-26T09:21:00.045Z</time>
      </trkpt>
      <trkpt lat="46.72226" lon="-1.97044">
        <ele>6.6</ele>
        <time>2024-12-26T09:21:01.045Z</time>
      </trkpt>
      <trkpt lat="46.72227" lon="-1.97041">
        <ele>6.8</ele>
        <time>2024-12-26T09:21:02.045Z</time>
      </trkpt>
      <trkpt lat="46.72227" lon="-1.97038">
        <ele>6.9</ele>
        <time>2024-12-26T09:21:03.046Z</time>
      </trkpt>
      <trkpt lat="46.72225" lon="-1.97036">
        <ele>6.8</ele>
        <time>2024-12-26T09:21:04.046Z</time>
      </trkpt>
      <trkpt lat="46.72224" lon="-1.97034">
        <ele>6.9</ele>
        <time>2024-12-26T09:21:05.046Z</time>
      </trkpt>
      <trkpt lat="46.72224" lon="-1.97033">
        <ele>6.9</ele>
        <time>2024-12-26T09:21:06.046Z</time>
      </trkpt>
      <trkpt lat="46.72224" lon="-1.97031">
        <ele>7</ele>
        <time>2024-12-26T09:21:07.046Z</time>
      </trkpt>
      <trkpt lat="46.72225" lon="-1.9703">
        <ele>7</ele>
        <time>2024-12-26T09:21:08.046Z</time>
      </trkpt>
      <trkpt lat="46.72225" lon="-1.97028">
        <ele>7.1</ele>
        <time>2024-12-26T09:21:09.046Z</time>
      </trkpt>
      <trkpt lat="46.72225" lon="-1.97026">
        <ele>7</ele>
        <time>2024-12-26T09:21:10.045Z</time>
      </trkpt>
      <trkpt lat="46.72225" lon="-1.97024">
        <ele>7</ele>
        <time>2024-12-26T09:21:11.046Z</time>
      </trkpt>
      <trkpt lat="46.72225" lon="-1.97022">
        <ele>6.9</ele>
        <time>2024-12-26T09:21:12.045Z</time>
      </trkpt>
      <trkpt lat="46.72226" lon="-1.9702">
        <ele>6.8</ele>
        <time>2024-12-26T09:21:13.045Z</time>
      </trkpt>
      <trkpt lat="46.72226" lon="-1.97018">
        <ele>6.8</ele>
        <time>2024-12-26T09:21:14.045Z</time>
      </trkpt>
      <trkpt lat="46.72227" lon="-1.97015">
        <ele>6.7</ele>
        <time>2024-12-26T09:21:15.046Z</time>
      </trkpt>
      <trkpt lat="46.72228" lon="-1.97013">
        <ele>6.7</ele>
        <time>2024-12-26T09:21:16.046Z</time>
      </trkpt>
      <trkpt lat="46.72229" lon="-1.97011">
        <ele>6.6</ele>
        <time>2024-12-26T09:21:17.045Z</time>
      </trkpt>
      <trkpt lat="46.72231" lon="-1.97008">
        <ele>6.6</ele>
        <time>2024-12-26T09:21:18.045Z</time>
      </trkpt>
      <trkpt lat="46.72233" lon="-1.97007">
        <ele>6.6</ele>
        <time>2024-12-26T09:21:19.045Z</time>
      </trkpt>
      <trkpt lat="46.72235" lon="-1.97007">
        <ele>6.7</ele>
        <time>2024-12-26T09:21:20.045Z</time>
      </trkpt>
      <trkpt lat="46.72236" lon="-1.97006">
        <ele>6.7</ele>
        <time>2024-12-26T09:21:21.045Z</time>
      </trkpt>
      <trkpt lat="46.72238" lon="-1.97004">
        <ele>6.7</ele>
        <time>2024-12-26T09:21:22.045Z</time>
      </trkpt>
      <trkpt lat="46.72239" lon="-1.97002">
        <ele>6.7</ele>
        <time>2024-12-26T09:21:23.046Z</time>
      </trkpt>
      <trkpt lat="46.7224" lon="-1.96999">
        <ele>6.6</ele>
        <time>2024-12-26T09:21:24.046Z</time>
      </trkpt>
      <trkpt lat="46.7224" lon="-1.96997">
        <ele>6.7</ele>
        <time>2024-12-26T09:21:25.046Z</time>
      </trkpt>
      <trkpt lat="46.72239" lon="-1.96994">
        <ele>6.7</ele>
        <time>2024-12-26T09:21:26.045Z</time>
      </trkpt>
      <trkpt lat="46.72239" lon="-1.96991">
        <ele>6.7</ele>
        <time>2024-12-26T09:21:27.045Z</time>
      </trkpt>
      <trkpt lat="46.72237" lon="-1.96988">
        <ele>6.7</ele>
        <time>2024-12-26T09:21:28.045Z</time>
      </trkpt>
      <trkpt lat="46.72236" lon="-1.96987">
        <ele>6.7</ele>
        <time>2024-12-26T09:21:29.046Z</time>
      </trkpt>
      <trkpt lat="46.72235" lon="-1.96985">
        <ele>6.8</ele>
        <time>2024-12-26T09:21:30.045Z</time>
      </trkpt>
      <trkpt lat="46.72236" lon="-1.96983">
        <ele>6.8</ele>
        <time>2024-12-26T09:21:31.045Z</time>
      </trkpt>
      <trkpt lat="46.72236" lon="-1.96981">
        <ele>6.8</ele>
        <time>2024-12-26T09:21:32.045Z</time>
      </trkpt>
      <trkpt lat="46.72235" lon="-1.9698">
        <ele>6.9</ele>
        <time>2024-12-26T09:21:33.045Z</time>
      </trkpt>
      <trkpt lat="46.72235" lon="-1.96978">
        <ele>6.9</ele>
        <time>2024-12-26T09:21:34.045Z</time>
      </trkpt>
      <trkpt lat="46.72235" lon="-1.96976">
        <ele>6.9</ele>
        <time>2024-12-26T09:21:35.045Z</time>
      </trkpt>
      <trkpt lat="46.72235" lon="-1.96974">
        <ele>7</ele>
        <time>2024-12-26T09:21:36.045Z</time>
      </trkpt>
      <trkpt lat="46.72234" lon="-1.96972">
        <ele>7</ele>
        <time>2024-12-26T09:21:37.046Z</time>
      </trkpt>
      <trkpt lat="46.72234" lon="-1.96971">
        <ele>7</ele>
        <time>2024-12-26T09:21:38.046Z</time>
      </trkpt>
      <trkpt lat="46.72234" lon="-1.96969">
        <ele>7.1</ele>
        <time>2024-12-26T09:21:39.045Z</time>
      </trkpt>
      <trkpt lat="46.72233" lon="-1.96967">
        <ele>7.1</ele>
        <time>2024-12-26T09:21:40.046Z</time>
      </trkpt>
      <trkpt lat="46.72233" lon="-1.96965">
        <ele>7.2</ele>
        <time>2024-12-26T09:21:41.045Z</time>
      </trkpt>
      <trkpt lat="46.72233" lon="-1.96964">
        <ele>7.2</ele>
        <time>2024-12-26T09:21:42.045Z</time>
      </trkpt>
      <trkpt lat="46.72232" lon="-1.96962">
        <ele>7.2</ele>
        <time>2024-12-26T09:21:43.045Z</time>
      </trkpt>
      <trkpt lat="46.72232" lon="-1.96961">
        <ele>7.3</ele>
        <time>2024-12-26T09:21:44.045Z</time>
      </trkpt>
      <trkpt lat="46.72232" lon="-1.96959">
        <ele>7.3</ele>
        <time>2024-12-26T09:21:45.045Z</time>
      </trkpt>
      <trkpt lat="46.72232" lon="-1.96957">
        <ele>7.4</ele>
        <time>2024-12-26T09:21:46.046Z</time>
      </trkpt>
      <trkpt lat="46.72232" lon="-1.96954">
        <ele>7.4</ele>
        <time>2024-12-26T09:21:47.046Z</time>
      </trkpt>
      <trkpt lat="46.72232" lon="-1.96953">
        <ele>7.5</ele>
        <time>2024-12-26T09:21:48.046Z</time>
      </trkpt>
      <trkpt lat="46.72232" lon="-1.96953">
        <ele>7.5</ele>
        <time>2024-12-26T09:21:49.046Z</time>
      </trkpt>
      <trkpt lat="46.72231" lon="-1.96952">
        <ele>7.5</ele>
        <time>2024-12-26T09:21:50.045Z</time>
      </trkpt>
      <trkpt lat="46.72229" lon="-1.96951">
        <ele>7.6</ele>
        <time>2024-12-26T09:21:51.045Z</time>
      </trkpt>
      <trkpt lat="46.72227" lon="-1.9695">
        <ele>7.7</ele>
        <time>2024-12-26T09:21:52.046Z</time>
      </trkpt>
      <trkpt lat="46.72225" lon="-1.96947">
        <ele>7.8</ele>
        <time>2024-12-26T09:21:53.045Z</time>
      </trkpt>
      <trkpt lat="46.72223" lon="-1.96945">
        <ele>7.9</ele>
        <time>2024-12-26T09:21:54.045Z</time>
      </trkpt>
      <trkpt lat="46.72223" lon="-1.96944">
        <ele>8</ele>
        <time>2024-12-26T09:21:55.045Z</time>
      </trkpt>
      <trkpt lat="46.72222" lon="-1.96944">
        <ele>8</ele>
        <time>2024-12-26T09:21:56.045Z</time>
      </trkpt>
      <trkpt lat="46.72222" lon="-1.96944">
        <ele>8</ele>
        <time>2024-12-26T09:21:57.045Z</time>
      </trkpt>
      <trkpt lat="46.72222" lon="-1.96945">
        <ele>8</ele>
        <time>2024-12-26T09:21:58.045Z</time>
      </trkpt>
      <trkpt lat="46.72223" lon="-1.96946">
        <ele>7.9</ele>
        <time>2024-12-26T09:21:59.045Z</time>
      </trkpt>
      <trkpt lat="46.72222" lon="-1.96946">
        <ele>7.9</ele>
        <time>2024-12-26T09:22:00.046Z</time>
      </trkpt>
      <trkpt lat="46.72223" lon="-1.96945">
        <ele>8</ele>
        <time>2024-12-26T09:22:01.046Z</time>
      </trkpt>
      <trkpt lat="46.72223" lon="-1.96944">
        <ele>8</ele>
        <time>2024-12-26T09:22:02.045Z</time>
      </trkpt>
      <trkpt lat="46.72223" lon="-1.96944">
        <ele>8</ele>
        <time>2024-12-26T09:22:03.046Z</time>
      </trkpt>
      <trkpt lat="46.72222" lon="-1.96943">
        <ele>8.1</ele>
        <time>2024-12-26T09:22:04.046Z</time>
      </trkpt>
      <trkpt lat="46.72221" lon="-1.96942">
        <ele>8.1</ele>
        <time>2024-12-26T09:22:05.046Z</time>
      </trkpt>
      <trkpt lat="46.72221" lon="-1.96942">
        <ele>8.2</ele>
        <time>2024-12-26T09:22:06.045Z</time>
      </trkpt>
      <trkpt lat="46.7222" lon="-1.96941">
        <ele>8.2</ele>
        <time>2024-12-26T09:22:07.045Z</time>
      </trkpt>
      <trkpt lat="46.72219" lon="-1.96939">
        <ele>8.3</ele>
        <time>2024-12-26T09:22:08.045Z</time>
      </trkpt>
      <trkpt lat="46.72218" lon="-1.96937">
        <ele>8.4</ele>
        <time>2024-12-26T09:22:09.045Z</time>
      </trkpt>
      <trkpt lat="46.72217" lon="-1.96935">
        <ele>8.6</ele>
        <time>2024-12-26T09:22:10.046Z</time>
      </trkpt>
      <trkpt lat="46.72217" lon="-1.96934">
        <ele>8.7</ele>
        <time>2024-12-26T09:22:11.046Z</time>
      </trkpt>
      <trkpt lat="46.72217" lon="-1.96932">
        <ele>8.9</ele>
        <time>2024-12-26T09:22:12.046Z</time>
      </trkpt>
      <trkpt lat="46.72217" lon="-1.96931">
        <ele>9</ele>
        <time>2024-12-26T09:22:13.045Z</time>
      </trkpt>
      <trkpt lat="46.72217" lon="-1.96929">
        <ele>9.1</ele>
        <time>2024-12-26T09:22:14.045Z</time>
      </trkpt>
      <trkpt lat="46.72217" lon="-1.96928">
        <ele>9.3</ele>
        <time>2024-12-26T09:22:15.046Z</time>
      </trkpt>
      <trkpt lat="46.72218" lon="-1.96926">
        <ele>9.4</ele>
        <time>2024-12-26T09:22:16.046Z</time>
      </trkpt>
      <trkpt lat="46.72218" lon="-1.96924">
        <ele>9.5</ele>
        <time>2024-12-26T09:22:17.045Z</time>
      </trkpt>
      <trkpt lat="46.72218" lon="-1.96923">
        <ele>9.7</ele>
        <time>2024-12-26T09:22:18.046Z</time>
      </trkpt>
      <trkpt lat="46.72218" lon="-1.96921">
        <ele>9.8</ele>
        <time>2024-12-26T09:22:19.046Z</time>
      </trkpt>
      <trkpt lat="46.72217" lon="-1.96918">
        <ele>10.1</ele>
        <time>2024-12-26T09:22:20.045Z</time>
      </trkpt>
      <trkpt lat="46.72215" lon="-1.96915">
        <ele>10.2</ele>
        <time>2024-12-26T09:22:21.045Z</time>
      </trkpt>
      <trkpt lat="46.72214" lon="-1.9691">
        <ele>10</ele>
        <time>2024-12-26T09:22:22.045Z</time>
      </trkpt>
      <trkpt lat="46.72213" lon="-1.96908">
        <ele>10</ele>
        <time>2024-12-26T09:22:23.045Z</time>
      </trkpt>
      <trkpt lat="46.72215" lon="-1.96909">
        <ele>9.9</ele>
        <time>2024-12-26T09:22:24.046Z</time>
      </trkpt>
      <trkpt lat="46.72216" lon="-1.96908">
        <ele>9.9</ele>
        <time>2024-12-26T09:22:25.046Z</time>
      </trkpt>
      <trkpt lat="46.72216" lon="-1.96908">
        <ele>9.8</ele>
        <time>2024-12-26T09:22:26.045Z</time>
      </trkpt>
      <trkpt lat="46.72215" lon="-1.96906">
        <ele>9.8</ele>
        <time>2024-12-26T09:22:27.045Z</time>
      </trkpt>
      <trkpt lat="46.72214" lon="-1.96904">
        <ele>9.8</ele>
        <time>2024-12-26T09:22:28.046Z</time>
      </trkpt>
      <trkpt lat="46.72214" lon="-1.96903">
        <ele>9.8</ele>
        <time>2024-12-26T09:22:29.046Z</time>
      </trkpt>
      <trkpt lat="46.72213" lon="-1.96901">
        <ele>9.7</ele>
        <time>2024-12-26T09:22:30.046Z</time>
      </trkpt>
      <trkpt lat="46.72213" lon="-1.96899">
        <ele>9.7</ele>
        <time>2024-12-26T09:22:31.046Z</time>
      </trkpt>
      <trkpt lat="46.72212" lon="-1.96897">
        <ele>9.7</ele>
        <time>2024-12-26T09:22:32.045Z</time>
      </trkpt>
      <trkpt lat="46.72212" lon="-1.96895">
        <ele>9.7</ele>
        <time>2024-12-26T09:22:33.045Z</time>
      </trkpt>
      <trkpt lat="46.72211" lon="-1.96894">
        <ele>9.7</ele>
        <time>2024-12-26T09:22:34.045Z</time>
      </trkpt>
      <trkpt lat="46.72211" lon="-1.96892">
        <ele>9.7</ele>
        <time>2024-12-26T09:22:35.046Z</time>
      </trkpt>
      <trkpt lat="46.72211" lon="-1.9689">
        <ele>9.6</ele>
        <time>2024-12-26T09:22:36.045Z</time>
      </trkpt>
      <trkpt lat="46.7221" lon="-1.96888">
        <ele>9.7</ele>
        <time>2024-12-26T09:22:37.045Z</time>
      </trkpt>
      <trkpt lat="46.72209" lon="-1.96886">
        <ele>9.8</ele>
        <time>2024-12-26T09:22:38.046Z</time>
      </trkpt>
      <trkpt lat="46.72208" lon="-1.96884">
        <ele>9.9</ele>
        <time>2024-12-26T09:22:39.045Z</time>
      </trkpt>
      <trkpt lat="46.72208" lon="-1.96883">
        <ele>9.9</ele>
        <time>2024-12-26T09:22:40.046Z</time>
      </trkpt>
      <trkpt lat="46.72208" lon="-1.96882">
        <ele>9.8</ele>
        <time>2024-12-26T09:22:41.045Z</time>
      </trkpt>
      <trkpt lat="46.72208" lon="-1.96882">
        <ele>9.8</ele>
        <time>2024-12-26T09:22:42.046Z</time>
      </trkpt>
      <trkpt lat="46.72207" lon="-1.96881">
        <ele>9.9</ele>
        <time>2024-12-26T09:22:43.045Z</time>
      </trkpt>
      <trkpt lat="46.72207" lon="-1.96879">
        <ele>9.8</ele>
        <time>2024-12-26T09:22:44.045Z</time>
      </trkpt>
      <trkpt lat="46.72208" lon="-1.96877">
        <ele>9.6</ele>
        <time>2024-12-26T09:22:45.045Z</time>
      </trkpt>
      <trkpt lat="46.72209" lon="-1.96875">
        <ele>9.5</ele>
        <time>2024-12-26T09:22:46.046Z</time>
      </trkpt>
      <trkpt lat="46.72209" lon="-1.96873">
        <ele>9.3</ele>
        <time>2024-12-26T09:22:47.046Z</time>
      </trkpt>
      <trkpt lat="46.7221" lon="-1.96871">
        <ele>9.2</ele>
        <time>2024-12-26T09:22:48.046Z</time>
      </trkpt>
      <trkpt lat="46.7221" lon="-1.96868">
        <ele>9.1</ele>
        <time>2024-12-26T09:22:49.045Z</time>
      </trkpt>
      <trkpt lat="46.7221" lon="-1.96867">
        <ele>9.1</ele>
        <time>2024-12-26T09:22:50.046Z</time>
      </trkpt>
      <trkpt lat="46.72209" lon="-1.96865">
        <ele>9.1</ele>
        <time>2024-12-26T09:22:51.046Z</time>
      </trkpt>
      <trkpt lat="46.72208" lon="-1.96864">
        <ele>9.1</ele>
        <time>2024-12-26T09:22:52.046Z</time>
      </trkpt>
      <trkpt lat="46.72207" lon="-1.96862">
        <ele>9.1</ele>
        <time>2024-12-26T09:22:53.046Z</time>
      </trkpt>
      <trkpt lat="46.72206" lon="-1.96861">
        <ele>9.2</ele>
        <time>2024-12-26T09:22:54.045Z</time>
      </trkpt>
      <trkpt lat="46.72206" lon="-1.9686">
        <ele>9.2</ele>
        <time>2024-12-26T09:22:55.045Z</time>
      </trkpt>
      <trkpt lat="46.72207" lon="-1.96859">
        <ele>9.1</ele>
        <time>2024-12-26T09:22:56.046Z</time>
      </trkpt>
      <trkpt lat="46.72207" lon="-1.96858">
        <ele>9.1</ele>
        <time>2024-12-26T09:22:57.045Z</time>
      </trkpt>
      <trkpt lat="46.72206" lon="-1.96856">
        <ele>9.1</ele>
        <time>2024-12-26T09:22:58.046Z</time>
      </trkpt>
      <trkpt lat="46.72205" lon="-1.96855">
        <ele>9.2</ele>
        <time>2024-12-26T09:22:59.045Z</time>
      </trkpt>
      <trkpt lat="46.72204" lon="-1.96854">
        <ele>9.2</ele>
        <time>2024-12-26T09:23:00.045Z</time>
      </trkpt>
      <trkpt lat="46.72204" lon="-1.96852">
        <ele>9.2</ele>
        <time>2024-12-26T09:23:01.045Z</time>
      </trkpt>
      <trkpt lat="46.72203" lon="-1.96852">
        <ele>9.3</ele>
        <time>2024-12-26T09:23:02.045Z</time>
      </trkpt>
      <trkpt lat="46.72202" lon="-1.96851">
        <ele>9.3</ele>
        <time>2024-12-26T09:23:03.045Z</time>
      </trkpt>
      <trkpt lat="46.72202" lon="-1.96849">
        <ele>9.3</ele>
        <time>2024-12-26T09:23:04.046Z</time>
      </trkpt>
      <trkpt lat="46.72201" lon="-1.96846">
        <ele>9.2</ele>
        <time>2024-12-26T09:23:05.045Z</time>
      </trkpt>
      <trkpt lat="46.72199" lon="-1.96843">
        <ele>9.2</ele>
        <time>2024-12-26T09:23:06.045Z</time>
      </trkpt>
      <trkpt lat="46.72199" lon="-1.96842">
        <ele>9.2</ele>
        <time>2024-12-26T09:23:07.045Z</time>
      </trkpt>
      <trkpt lat="46.72199" lon="-1.9684">
        <ele>9.2</ele>
        <time>2024-12-26T09:23:08.045Z</time>
      </trkpt>
      <trkpt lat="46.72199" lon="-1.9684">
        <ele>9.2</ele>
        <time>2024-12-26T09:23:09.045Z</time>
      </trkpt>
      <trkpt lat="46.72198" lon="-1.96838">
        <ele>9.1</ele>
        <time>2024-12-26T09:23:10.045Z</time>
      </trkpt>
      <trkpt lat="46.72197" lon="-1.96836">
        <ele>9.1</ele>
        <time>2024-12-26T09:23:11.045Z</time>
      </trkpt>
      <trkpt lat="46.72197" lon="-1.96834">
        <ele>9</ele>
        <time>2024-12-26T09:23:12.046Z</time>
      </trkpt>
      <trkpt lat="46.72196" lon="-1.96832">
        <ele>9</ele>
        <time>2024-12-26T09:23:13.046Z</time>
      </trkpt>
      <trkpt lat="46.72195" lon="-1.9683">
        <ele>9</ele>
        <time>2024-12-26T09:23:14.046Z</time>
      </trkpt>
      <trkpt lat="46.72196" lon="-1.96828">
        <ele>9</ele>
        <time>2024-12-26T09:23:15.046Z</time>
      </trkpt>
      <trkpt lat="46.72196" lon="-1.96826">
        <ele>9</ele>
        <time>2024-12-26T09:23:16.045Z</time>
      </trkpt>
      <trkpt lat="46.72197" lon="-1.96824">
        <ele>9.1</ele>
        <time>2024-12-26T09:23:17.045Z</time>
      </trkpt>
      <trkpt lat="46.72198" lon="-1.96821">
        <ele>9.1</ele>
        <time>2024-12-26T09:23:18.046Z</time>
      </trkpt>
      <trkpt lat="46.722" lon="-1.96819">
        <ele>9.2</ele>
        <time>2024-12-26T09:23:19.045Z</time>
      </trkpt>
      <trkpt lat="46.722" lon="-1.96816">
        <ele>9.3</ele>
        <time>2024-12-26T09:23:20.045Z</time>
      </trkpt>
      <trkpt lat="46.72202" lon="-1.96815">
        <ele>9.3</ele>
        <time>2024-12-26T09:23:21.046Z</time>
      </trkpt>
      <trkpt lat="46.72202" lon="-1.96813">
        <ele>9.4</ele>
        <time>2024-12-26T09:23:22.046Z</time>
      </trkpt>
      <trkpt lat="46.72202" lon="-1.96812">
        <ele>9.4</ele>
        <time>2024-12-26T09:23:23.046Z</time>
      </trkpt>
      <trkpt lat="46.72203" lon="-1.96811">
        <ele>9.5</ele>
        <time>2024-12-26T09:23:24.046Z</time>
      </trkpt>
      <trkpt lat="46.72202" lon="-1.9681">
        <ele>9.4</ele>
        <time>2024-12-26T09:23:25.046Z</time>
      </trkpt>
      <trkpt lat="46.722" lon="-1.96809">
        <ele>9.4</ele>
        <time>2024-12-26T09:23:26.045Z</time>
      </trkpt>
      <trkpt lat="46.72201" lon="-1.96808">
        <ele>9.4</ele>
        <time>2024-12-26T09:23:27.045Z</time>
      </trkpt>
      <trkpt lat="46.72202" lon="-1.96807">
        <ele>9.5</ele>
        <time>2024-12-26T09:23:28.046Z</time>
      </trkpt>
      <trkpt lat="46.72203" lon="-1.96804">
        <ele>9.6</ele>
        <time>2024-12-26T09:23:29.046Z</time>
      </trkpt>
      <trkpt lat="46.72204" lon="-1.96802">
        <ele>9.7</ele>
        <time>2024-12-26T09:23:30.045Z</time>
      </trkpt>
      <trkpt lat="46.72206" lon="-1.96801">
        <ele>9.7</ele>
        <time>2024-12-26T09:23:31.046Z</time>
      </trkpt>
      <trkpt lat="46.72206" lon="-1.96801">
        <ele>9.8</ele>
        <time>2024-12-26T09:23:32.046Z</time>
      </trkpt>
      <trkpt lat="46.72207" lon="-1.96803">
        <ele>9.9</ele>
        <time>2024-12-26T09:23:33.046Z</time>
      </trkpt>
      <trkpt lat="46.72208" lon="-1.96803">
        <ele>9.9</ele>
        <time>2024-12-26T09:23:34.046Z</time>
      </trkpt>
      <trkpt lat="46.72208" lon="-1.96803">
        <ele>10</ele>
        <time>2024-12-26T09:23:35.046Z</time>
      </trkpt>
      <trkpt lat="46.72209" lon="-1.96802">
        <ele>10</ele>
        <time>2024-12-26T09:23:36.046Z</time>
      </trkpt>
      <trkpt lat="46.7221" lon="-1.96802">
        <ele>10</ele>
        <time>2024-12-26T09:23:37.046Z</time>
      </trkpt>
      <trkpt lat="46.72211" lon="-1.96801">
        <ele>10.1</ele>
        <time>2024-12-26T09:23:38.045Z</time>
      </trkpt>
      <trkpt lat="46.72211" lon="-1.96799">
        <ele>10.1</ele>
        <time>2024-12-26T09:23:39.045Z</time>
      </trkpt>
      <trkpt lat="46.72212" lon="-1.96797">
        <ele>10.1</ele>
        <time>2024-12-26T09:23:40.045Z</time>
      </trkpt>
      <trkpt lat="46.72213" lon="-1.96796">
        <ele>10.1</ele>
        <time>2024-12-26T09:23:41.046Z</time>
      </trkpt>
      <trkpt lat="46.72214" lon="-1.96796">
        <ele>10.2</ele>
        <time>2024-12-26T09:23:42.046Z</time>
      </trkpt>
      <trkpt lat="46.72215" lon="-1.96795">
        <ele>10.2</ele>
        <time>2024-12-26T09:23:43.046Z</time>
      </trkpt>
      <trkpt lat="46.72216" lon="-1.96793">
        <ele>10.2</ele>
        <time>2024-12-26T09:23:44.045Z</time>
      </trkpt>
      <trkpt lat="46.72217" lon="-1.96791">
        <ele>10.2</ele>
        <time>2024-12-26T09:23:45.046Z</time>
      </trkpt>
      <trkpt lat="46.72217" lon="-1.96789">
        <ele>10.1</ele>
        <time>2024-12-26T09:23:46.046Z</time>
      </trkpt>
      <trkpt lat="46.72217" lon="-1.96787">
        <ele>10.1</ele>
        <time>2024-12-26T09:23:47.046Z</time>
      </trkpt>
      <trkpt lat="46.72217" lon="-1.96783">
        <ele>10</ele>
        <time>2024-12-26T09:23:48.046Z</time>
      </trkpt>
      <trkpt lat="46.72218" lon="-1.96781">
        <ele>10</ele>
        <time>2024-12-26T09:23:49.046Z</time>
      </trkpt>
      <trkpt lat="46.72219" lon="-1.96781">
        <ele>10</ele>
        <time>2024-12-26T09:23:50.045Z</time>
      </trkpt>
      <trkpt lat="46.72219" lon="-1.96779">
        <ele>9.9</ele>
        <time>2024-12-26T09:23:51.045Z</time>
      </trkpt>
      <trkpt lat="46.72221" lon="-1.96777">
        <ele>9.9</ele>
        <time>2024-12-26T09:23:52.045Z</time>
      </trkpt>
      <trkpt lat="46.72221" lon="-1.96774">
        <ele>9.8</ele>
        <time>2024-12-26T09:23:53.046Z</time>
      </trkpt>
      <trkpt lat="46.72222" lon="-1.96773">
        <ele>9.8</ele>
        <time>2024-12-26T09:23:54.046Z</time>
      </trkpt>
      <trkpt lat="46.72222" lon="-1.96771">
        <ele>9.8</ele>
        <time>2024-12-26T09:23:55.046Z</time>
      </trkpt>
      <trkpt lat="46.72223" lon="-1.9677">
        <ele>9.8</ele>
        <time>2024-12-26T09:23:56.046Z</time>
      </trkpt>
      <trkpt lat="46.72225" lon="-1.9677">
        <ele>9.8</ele>
        <time>2024-12-26T09:23:57.046Z</time>
      </trkpt>
      <trkpt lat="46.72226" lon="-1.96768">
        <ele>9.9</ele>
        <time>2024-12-26T09:23:58.046Z</time>
      </trkpt>
      <trkpt lat="46.72227" lon="-1.96768">
        <ele>9.9</ele>
        <time>2024-12-26T09:23:59.046Z</time>
      </trkpt>
      <trkpt lat="46.72228" lon="-1.96767">
        <ele>9.9</ele>
        <time>2024-12-26T09:24:00.046Z</time>
      </trkpt>
      <trkpt lat="46.72228" lon="-1.96766">
        <ele>9.9</ele>
        <time>2024-12-26T09:24:01.045Z</time>
      </trkpt>
      <trkpt lat="46.72229" lon="-1.96765">
        <ele>9.9</ele>
        <time>2024-12-26T09:24:02.046Z</time>
      </trkpt>
      <trkpt lat="46.72228" lon="-1.96763">
        <ele>9.8</ele>
        <time>2024-12-26T09:24:03.045Z</time>
      </trkpt>
      <trkpt lat="46.72229" lon="-1.96762">
        <ele>9.7</ele>
        <time>2024-12-26T09:24:04.045Z</time>
      </trkpt>
      <trkpt lat="46.72231" lon="-1.9676">
        <ele>9.8</ele>
        <time>2024-12-26T09:24:05.045Z</time>
      </trkpt>
      <trkpt lat="46.72233" lon="-1.9676">
        <ele>9.8</ele>
        <time>2024-12-26T09:24:06.046Z</time>
      </trkpt>
      <trkpt lat="46.72234" lon="-1.96759">
        <ele>9.9</ele>
        <time>2024-12-26T09:24:07.046Z</time>
      </trkpt>
      <trkpt lat="46.72235" lon="-1.96758">
        <ele>9.9</ele>
        <time>2024-12-26T09:24:08.046Z</time>
      </trkpt>
      <trkpt lat="46.72237" lon="-1.96758">
        <ele>9.9</ele>
        <time>2024-12-26T09:24:09.046Z</time>
      </trkpt>
      <trkpt lat="46.72238" lon="-1.96759">
        <ele>10</ele>
        <time>2024-12-26T09:24:10.045Z</time>
      </trkpt>
      <trkpt lat="46.72239" lon="-1.96759">
        <ele>10.1</ele>
        <time>2024-12-26T09:24:11.045Z</time>
      </trkpt>
      <trkpt lat="46.7224" lon="-1.9676">
        <ele>10.3</ele>
        <time>2024-12-26T09:24:12.046Z</time>
      </trkpt>
      <trkpt lat="46.72241" lon="-1.9676">
        <ele>10.3</ele>
        <time>2024-12-26T09:24:13.045Z</time>
      </trkpt>
      <trkpt lat="46.72243" lon="-1.96761">
        <ele>10.4</ele>
        <time>2024-12-26T09:24:14.046Z</time>
      </trkpt>
      <trkpt lat="46.72243" lon="-1.96761">
        <ele>10.5</ele>
        <time>2024-12-26T09:24:15.045Z</time>
      </trkpt>
      <trkpt lat="46.72244" lon="-1.96762">
        <ele>10.5</ele>
        <time>2024-12-26T09:24:16.045Z</time>
      </trkpt>
      <trkpt lat="46.72245" lon="-1.96762">
        <ele>10.6</ele>
        <time>2024-12-26T09:24:17.045Z</time>
      </trkpt>
      <trkpt lat="46.72246" lon="-1.96761">
        <ele>10.6</ele>
        <time>2024-12-26T09:24:18.046Z</time>
      </trkpt>
      <trkpt lat="46.72248" lon="-1.9676">
        <ele>10.6</ele>
        <time>2024-12-26T09:24:19.046Z</time>
      </trkpt>
      <trkpt lat="46.7225" lon="-1.96759">
        <ele>10.6</ele>
        <time>2024-12-26T09:24:20.045Z</time>
      </trkpt>
      <trkpt lat="46.72253" lon="-1.96758">
        <ele>10.8</ele>
        <time>2024-12-26T09:24:21.046Z</time>
      </trkpt>
      <trkpt lat="46.72255" lon="-1.96757">
        <ele>10.8</ele>
        <time>2024-12-26T09:24:22.045Z</time>
      </trkpt>
      <trkpt lat="46.72257" lon="-1.96756">
        <ele>10.8</ele>
        <time>2024-12-26T09:24:23.046Z</time>
      </trkpt>
      <trkpt lat="46.72259" lon="-1.96754">
        <ele>10.7</ele>
        <time>2024-12-26T09:24:24.045Z</time>
      </trkpt>
      <trkpt lat="46.7226" lon="-1.96753">
        <ele>10.7</ele>
        <time>2024-12-26T09:24:25.045Z</time>
      </trkpt>
      <trkpt lat="46.72261" lon="-1.96753">
        <ele>10.7</ele>
        <time>2024-12-26T09:24:26.046Z</time>
      </trkpt>
      <trkpt lat="46.72262" lon="-1.96753">
        <ele>10.8</ele>
        <time>2024-12-26T09:24:27.045Z</time>
      </trkpt>
      <trkpt lat="46.72264" lon="-1.96752">
        <ele>10.8</ele>
        <time>2024-12-26T09:24:28.046Z</time>
      </trkpt>
      <trkpt lat="46.72264" lon="-1.96751">
        <ele>10.6</ele>
        <time>2024-12-26T09:24:29.045Z</time>
      </trkpt>
      <trkpt lat="46.72265" lon="-1.9675">
        <ele>10.5</ele>
        <time>2024-12-26T09:24:30.045Z</time>
      </trkpt>
      <trkpt lat="46.72266" lon="-1.9675">
        <ele>10.6</ele>
        <time>2024-12-26T09:24:31.046Z</time>
      </trkpt>
      <trkpt lat="46.72267" lon="-1.9675">
        <ele>10.6</ele>
        <time>2024-12-26T09:24:32.046Z</time>
      </trkpt>
      <trkpt lat="46.72269" lon="-1.9675">
        <ele>10.7</ele>
        <time>2024-12-26T09:24:33.046Z</time>
      </trkpt>
      <trkpt lat="46.7227" lon="-1.96749">
        <ele>10.7</ele>
        <time>2024-12-26T09:24:34.045Z</time>
      </trkpt>
      <trkpt lat="46.72272" lon="-1.9675">
        <ele>10.8</ele>
        <time>2024-12-26T09:24:35.046Z</time>
      </trkpt>
      <trkpt lat="46.72274" lon="-1.96752">
        <ele>11.2</ele>
        <time>2024-12-26T09:24:36.045Z</time>
      </trkpt>
      <trkpt lat="46.72275" lon="-1.96751">
        <ele>11.1</ele>
        <time>2024-12-26T09:24:37.045Z</time>
      </trkpt>
      <trkpt lat="46.72276" lon="-1.9675">
        <ele>11</ele>
        <time>2024-12-26T09:24:38.045Z</time>
      </trkpt>
      <trkpt lat="46.72277" lon="-1.96749">
        <ele>10.9</ele>
        <time>2024-12-26T09:24:39.045Z</time>
      </trkpt>
      <trkpt lat="46.72278" lon="-1.96747">
        <ele>10.9</ele>
        <time>2024-12-26T09:24:40.046Z</time>
      </trkpt>
      <trkpt lat="46.7228" lon="-1.96747">
        <ele>10.8</ele>
        <time>2024-12-26T09:24:41.046Z</time>
      </trkpt>
      <trkpt lat="46.72281" lon="-1.96746">
        <ele>10.8</ele>
        <time>2024-12-26T09:24:42.045Z</time>
      </trkpt>
      <trkpt lat="46.72283" lon="-1.96745">
        <ele>10.7</ele>
        <time>2024-12-26T09:24:43.046Z</time>
      </trkpt>
      <trkpt lat="46.72285" lon="-1.96744">
        <ele>10.6</ele>
        <time>2024-12-26T09:24:44.046Z</time>
      </trkpt>
      <trkpt lat="46.72287" lon="-1.96741">
        <ele>10.6</ele>
        <time>2024-12-26T09:24:45.045Z</time>
      </trkpt>
      <trkpt lat="46.72289" lon="-1.9674">
        <ele>10.5</ele>
        <time>2024-12-26T09:24:46.045Z</time>
      </trkpt>
      <trkpt lat="46.72291" lon="-1.96739">
        <ele>10.5</ele>
        <time>2024-12-26T09:24:47.045Z</time>
      </trkpt>
      <trkpt lat="46.72292" lon="-1.96737">
        <ele>10.5</ele>
        <time>2024-12-26T09:24:48.045Z</time>
      </trkpt>
      <trkpt lat="46.72294" lon="-1.96734">
        <ele>10.5</ele>
        <time>2024-12-26T09:24:49.045Z</time>
      </trkpt>
      <trkpt lat="46.72296" lon="-1.96731">
        <ele>10.6</ele>
        <time>2024-12-26T09:24:50.046Z</time>
      </trkpt>
      <trkpt lat="46.72299" lon="-1.96728">
        <ele>10.7</ele>
        <time>2024-12-26T09:24:51.046Z</time>
      </trkpt>
      <trkpt lat="46.72299" lon="-1.96725">
        <ele>10.7</ele>
        <time>2024-12-26T09:24:52.046Z</time>
      </trkpt>
      <trkpt lat="46.723" lon="-1.96724">
        <ele>10.8</ele>
        <time>2024-12-26T09:24:53.046Z</time>
      </trkpt>
      <trkpt lat="46.723" lon="-1.96721">
        <ele>10.8</ele>
        <time>2024-12-26T09:24:54.045Z</time>
      </trkpt>
      <trkpt lat="46.72301" lon="-1.96719">
        <ele>10.8</ele>
        <time>2024-12-26T09:24:55.046Z</time>
      </trkpt>
      <trkpt lat="46.72302" lon="-1.96717">
        <ele>10.9</ele>
        <time>2024-12-26T09:24:56.045Z</time>
      </trkpt>
      <trkpt lat="46.72302" lon="-1.96716">
        <ele>10.9</ele>
        <time>2024-12-26T09:24:57.045Z</time>
      </trkpt>
      <trkpt lat="46.72303" lon="-1.96715">
        <ele>10.9</ele>
        <time>2024-12-26T09:24:58.045Z</time>
      </trkpt>
      <trkpt lat="46.72303" lon="-1.96714">
        <ele>10.9</ele>
        <time>2024-12-26T09:24:59.045Z</time>
      </trkpt>
      <trkpt lat="46.72304" lon="-1.96713">
        <ele>10.9</ele>
        <time>2024-12-26T09:25:00.046Z</time>
      </trkpt>
      <trkpt lat="46.72305" lon="-1.96712">
        <ele>11</ele>
        <time>2024-12-26T09:25:01.046Z</time>
      </trkpt>
      <trkpt lat="46.72306" lon="-1.9671">
        <ele>10.9</ele>
        <time>2024-12-26T09:25:02.046Z</time>
      </trkpt>
      <trkpt lat="46.72307" lon="-1.96709">
        <ele>10.9</ele>
        <time>2024-12-26T09:25:03.046Z</time>
      </trkpt>
      <trkpt lat="46.72308" lon="-1.96707">
        <ele>10.9</ele>
        <time>2024-12-26T09:25:04.046Z</time>
      </trkpt>
      <trkpt lat="46.72308" lon="-1.96706">
        <ele>10.8</ele>
        <time>2024-12-26T09:25:05.046Z</time>
      </trkpt>
      <trkpt lat="46.7231" lon="-1.96704">
        <ele>10.7</ele>
        <time>2024-12-26T09:25:06.045Z</time>
      </trkpt>
      <trkpt lat="46.72311" lon="-1.96703">
        <ele>10.6</ele>
        <time>2024-12-26T09:25:07.046Z</time>
      </trkpt>
      <trkpt lat="46.72312" lon="-1.96701">
        <ele>10.5</ele>
        <time>2024-12-26T09:25:08.045Z</time>
      </trkpt>
      <trkpt lat="46.72313" lon="-1.967">
        <ele>10.5</ele>
        <time>2024-12-26T09:25:09.046Z</time>
      </trkpt>
      <trkpt lat="46.72313" lon="-1.96699">
        <ele>10.4</ele>
        <time>2024-12-26T09:25:10.045Z</time>
      </trkpt>
      <trkpt lat="46.72314" lon="-1.96697">
        <ele>10.4</ele>
        <time>2024-12-26T09:25:11.045Z</time>
      </trkpt>
      <trkpt lat="46.72315" lon="-1.96695">
        <ele>10.3</ele>
        <time>2024-12-26T09:25:12.046Z</time>
      </trkpt>
      <trkpt lat="46.72315" lon="-1.96693">
        <ele>10.3</ele>
        <time>2024-12-26T09:25:13.045Z</time>
      </trkpt>
      <trkpt lat="46.72316" lon="-1.96692">
        <ele>10.3</ele>
        <time>2024-12-26T09:25:14.046Z</time>
      </trkpt>
      <trkpt lat="46.72316" lon="-1.96691">
        <ele>10.3</ele>
        <time>2024-12-26T09:25:15.046Z</time>
      </trkpt>
      <trkpt lat="46.72317" lon="-1.9669">
        <ele>10.3</ele>
        <time>2024-12-26T09:25:16.046Z</time>
      </trkpt>
      <trkpt lat="46.72318" lon="-1.96689">
        <ele>10.3</ele>
        <time>2024-12-26T09:25:17.046Z</time>
      </trkpt>
      <trkpt lat="46.72318" lon="-1.96687">
        <ele>10.3</ele>
        <time>2024-12-26T09:25:18.046Z</time>
      </trkpt>
      <trkpt lat="46.72318" lon="-1.96686">
        <ele>10.3</ele>
        <time>2024-12-26T09:25:19.046Z</time>
      </trkpt>
      <trkpt lat="46.72318" lon="-1.96684">
        <ele>10.4</ele>
        <time>2024-12-26T09:25:20.045Z</time>
      </trkpt>
      <trkpt lat="46.72318" lon="-1.96682">
        <ele>10.4</ele>
        <time>2024-12-26T09:25:21.046Z</time>
      </trkpt>
      <trkpt lat="46.72318" lon="-1.96681">
        <ele>10.5</ele>
        <time>2024-12-26T09:25:22.046Z</time>
      </trkpt>
      <trkpt lat="46.72319" lon="-1.96679">
        <ele>10.6</ele>
        <time>2024-12-26T09:25:23.045Z</time>
      </trkpt>
      <trkpt lat="46.72319" lon="-1.96676">
        <ele>10.6</ele>
        <time>2024-12-26T09:25:24.046Z</time>
      </trkpt>
      <trkpt lat="46.7232" lon="-1.96674">
        <ele>10.7</ele>
        <time>2024-12-26T09:25:25.046Z</time>
      </trkpt>
      <trkpt lat="46.7232" lon="-1.96672">
        <ele>10.8</ele>
        <time>2024-12-26T09:25:26.045Z</time>
      </trkpt>
      <trkpt lat="46.7232" lon="-1.9667">
        <ele>10.9</ele>
        <time>2024-12-26T09:25:27.045Z</time>
      </trkpt>
      <trkpt lat="46.72321" lon="-1.96668">
        <ele>11</ele>
        <time>2024-12-26T09:25:28.045Z</time>
      </trkpt>
      <trkpt lat="46.72322" lon="-1.96666">
        <ele>11.1</ele>
        <time>2024-12-26T09:25:29.045Z</time>
      </trkpt>
      <trkpt lat="46.72322" lon="-1.96665">
        <ele>11.2</ele>
        <time>2024-12-26T09:25:30.046Z</time>
      </trkpt>
      <trkpt lat="46.72323" lon="-1.96663">
        <ele>11.2</ele>
        <time>2024-12-26T09:25:31.045Z</time>
      </trkpt>
      <trkpt lat="46.72325" lon="-1.96661">
        <ele>11.3</ele>
        <time>2024-12-26T09:25:32.045Z</time>
      </trkpt>
      <trkpt lat="46.72326" lon="-1.9666">
        <ele>11.4</ele>
        <time>2024-12-26T09:25:33.045Z</time>
      </trkpt>
      <trkpt lat="46.72327" lon="-1.96658">
        <ele>11.4</ele>
        <time>2024-12-26T09:25:34.046Z</time>
      </trkpt>
      <trkpt lat="46.72327" lon="-1.96657">
        <ele>11.5</ele>
        <time>2024-12-26T09:25:35.045Z</time>
      </trkpt>
      <trkpt lat="46.72327" lon="-1.96655">
        <ele>11.5</ele>
        <time>2024-12-26T09:25:36.045Z</time>
      </trkpt>
      <trkpt lat="46.72328" lon="-1.96653">
        <ele>11.5</ele>
        <time>2024-12-26T09:25:37.045Z</time>
      </trkpt>
      <trkpt lat="46.72328" lon="-1.96651">
        <ele>11.5</ele>
        <time>2024-12-26T09:25:38.045Z</time>
      </trkpt>
      <trkpt lat="46.72329" lon="-1.96649">
        <ele>11.6</ele>
        <time>2024-12-26T09:25:39.045Z</time>
      </trkpt>
      <trkpt lat="46.72329" lon="-1.96647">
        <ele>11.5</ele>
        <time>2024-12-26T09:25:40.045Z</time>
      </trkpt>
      <trkpt lat="46.72329" lon="-1.96645">
        <ele>11.5</ele>
        <time>2024-12-26T09:25:41.046Z</time>
      </trkpt>
      <trkpt lat="46.72328" lon="-1.96643">
        <ele>11.5</ele>
        <time>2024-12-26T09:25:42.045Z</time>
      </trkpt>
      <trkpt lat="46.72328" lon="-1.96642">
        <ele>11.5</ele>
        <time>2024-12-26T09:25:43.045Z</time>
      </trkpt>
      <trkpt lat="46.72329" lon="-1.9664">
        <ele>11.5</ele>
        <time>2024-12-26T09:25:44.045Z</time>
      </trkpt>
      <trkpt lat="46.7233" lon="-1.9664">
        <ele>11.6</ele>
        <time>2024-12-26T09:25:45.046Z</time>
      </trkpt>
      <trkpt lat="46.72331" lon="-1.96639">
        <ele>11.7</ele>
        <time>2024-12-26T09:25:46.045Z</time>
      </trkpt>
      <trkpt lat="46.72332" lon="-1.96637">
        <ele>11.7</ele>
        <time>2024-12-26T09:25:47.045Z</time>
      </trkpt>
      <trkpt lat="46.72332" lon="-1.96636">
        <ele>11.7</ele>
        <time>2024-12-26T09:25:48.046Z</time>
      </trkpt>
      <trkpt lat="46.72334" lon="-1.96636">
        <ele>11.8</ele>
        <time>2024-12-26T09:25:49.046Z</time>
      </trkpt>
      <trkpt lat="46.72335" lon="-1.96635">
        <ele>11.7</ele>
        <time>2024-12-26T09:25:50.045Z</time>
      </trkpt>
      <trkpt lat="46.72337" lon="-1.96635">
        <ele>11.6</ele>
        <time>2024-12-26T09:25:51.046Z</time>
      </trkpt>
      <trkpt lat="46.72338" lon="-1.96635">
        <ele>11.6</ele>
        <time>2024-12-26T09:25:52.045Z</time>
      </trkpt>
      <trkpt lat="46.72339" lon="-1.96635">
        <ele>11.6</ele>
        <time>2024-12-26T09:25:53.046Z</time>
      </trkpt>
      <trkpt lat="46.72339" lon="-1.96635">
        <ele>11.6</ele>
        <time>2024-12-26T09:25:54.046Z</time>
      </trkpt>
      <trkpt lat="46.7234" lon="-1.96636">
        <ele>11.6</ele>
        <time>2024-12-26T09:25:55.045Z</time>
      </trkpt>
      <trkpt lat="46.72342" lon="-1.96638">
        <ele>11.7</ele>
        <time>2024-12-26T09:25:56.046Z</time>
      </trkpt>
      <trkpt lat="46.72343" lon="-1.96639">
        <ele>11.6</ele>
        <time>2024-12-26T09:25:57.046Z</time>
      </trkpt>
      <trkpt lat="46.72345" lon="-1.9664">
        <ele>11.6</ele>
        <time>2024-12-26T09:25:58.045Z</time>
      </trkpt>
      <trkpt lat="46.72346" lon="-1.96641">
        <ele>11.6</ele>
        <time>2024-12-26T09:25:59.046Z</time>
      </trkpt>
      <trkpt lat="46.72346" lon="-1.96641">
        <ele>11.6</ele>
        <time>2024-12-26T09:26:00.045Z</time>
      </trkpt>
      <trkpt lat="46.72347" lon="-1.96642">
        <ele>11.6</ele>
        <time>2024-12-26T09:26:01.046Z</time>
      </trkpt>
      <trkpt lat="46.72348" lon="-1.96643">
        <ele>11.6</ele>
        <time>2024-12-26T09:26:02.046Z</time>
      </trkpt>
      <trkpt lat="46.72349" lon="-1.96644">
        <ele>11.5</ele>
        <time>2024-12-26T09:26:03.046Z</time>
      </trkpt>
      <trkpt lat="46.7235" lon="-1.96645">
        <ele>11.5</ele>
        <time>2024-12-26T09:26:04.045Z</time>
      </trkpt>
      <trkpt lat="46.72352" lon="-1.96645">
        <ele>11.5</ele>
        <time>2024-12-26T09:26:05.045Z</time>
      </trkpt>
      <trkpt lat="46.72352" lon="-1.96644">
        <ele>11.4</ele>
        <time>2024-12-26T09:26:06.045Z</time>
      </trkpt>
      <trkpt lat="46.72353" lon="-1.96644">
        <ele>11.4</ele>
        <time>2024-12-26T09:26:07.045Z</time>
      </trkpt>
      <trkpt lat="46.72354" lon="-1.96643">
        <ele>11.4</ele>
        <time>2024-12-26T09:26:08.046Z</time>
      </trkpt>
      <trkpt lat="46.72356" lon="-1.96644">
        <ele>11.3</ele>
        <time>2024-12-26T09:26:09.046Z</time>
      </trkpt>
      <trkpt lat="46.72357" lon="-1.96644">
        <ele>11.3</ele>
        <time>2024-12-26T09:26:10.046Z</time>
      </trkpt>
      <trkpt lat="46.72358" lon="-1.96644">
        <ele>11.3</ele>
        <time>2024-12-26T09:26:11.045Z</time>
      </trkpt>
      <trkpt lat="46.72359" lon="-1.96643">
        <ele>11.2</ele>
        <time>2024-12-26T09:26:12.046Z</time>
      </trkpt>
      <trkpt lat="46.72359" lon="-1.96642">
        <ele>11.2</ele>
        <time>2024-12-26T09:26:13.045Z</time>
      </trkpt>
      <trkpt lat="46.7236" lon="-1.9664">
        <ele>11.1</ele>
        <time>2024-12-26T09:26:14.046Z</time>
      </trkpt>
      <trkpt lat="46.72361" lon="-1.96638">
        <ele>11</ele>
        <time>2024-12-26T09:26:15.046Z</time>
      </trkpt>
      <trkpt lat="46.72362" lon="-1.96636">
        <ele>11</ele>
        <time>2024-12-26T09:26:16.045Z</time>
      </trkpt>
      <trkpt lat="46.72363" lon="-1.96634">
        <ele>11.1</ele>
        <time>2024-12-26T09:26:17.046Z</time>
      </trkpt>
      <trkpt lat="46.72363" lon="-1.96633">
        <ele>11.2</ele>
        <time>2024-12-26T09:26:18.045Z</time>
      </trkpt>
      <trkpt lat="46.72364" lon="-1.96631">
        <ele>11.2</ele>
        <time>2024-12-26T09:26:19.045Z</time>
      </trkpt>
      <trkpt lat="46.72365" lon="-1.9663">
        <ele>11.2</ele>
        <time>2024-12-26T09:26:20.045Z</time>
      </trkpt>
      <trkpt lat="46.72366" lon="-1.96628">
        <ele>11.2</ele>
        <time>2024-12-26T09:26:21.046Z</time>
      </trkpt>
      <trkpt lat="46.72367" lon="-1.96626">
        <ele>11.2</ele>
        <time>2024-12-26T09:26:22.045Z</time>
      </trkpt>
      <trkpt lat="46.72368" lon="-1.96625">
        <ele>11.2</ele>
        <time>2024-12-26T09:26:23.045Z</time>
      </trkpt>
      <trkpt lat="46.72369" lon="-1.96623">
        <ele>11.2</ele>
        <time>2024-12-26T09:26:24.045Z</time>
      </trkpt>
      <trkpt lat="46.7237" lon="-1.96622">
        <ele>11.2</ele>
        <time>2024-12-26T09:26:25.046Z</time>
      </trkpt>
      <trkpt lat="46.72371" lon="-1.96621">
        <ele>11.1</ele>
        <time>2024-12-26T09:26:26.046Z</time>
      </trkpt>
      <trkpt lat="46.72372" lon="-1.96619">
        <ele>11</ele>
        <time>2024-12-26T09:26:27.046Z</time>
      </trkpt>
      <trkpt lat="46.72374" lon="-1.96617">
        <ele>11</ele>
        <time>2024-12-26T09:26:28.046Z</time>
      </trkpt>
      <trkpt lat="46.72374" lon="-1.96616">
        <ele>10.8</ele>
        <time>2024-12-26T09:26:29.045Z</time>
      </trkpt>
      <trkpt lat="46.72375" lon="-1.96615">
        <ele>10.8</ele>
        <time>2024-12-26T09:26:30.045Z</time>
      </trkpt>
      <trkpt lat="46.72376" lon="-1.96614">
        <ele>10.7</ele>
        <time>2024-12-26T09:26:31.045Z</time>
      </trkpt>
      <trkpt lat="46.72378" lon="-1.96613">
        <ele>10.6</ele>
        <time>2024-12-26T09:26:32.045Z</time>
      </trkpt>
      <trkpt lat="46.72378" lon="-1.96612">
        <ele>10.4</ele>
        <time>2024-12-26T09:26:33.045Z</time>
      </trkpt>
      <trkpt lat="46.72379" lon="-1.96611">
        <ele>10.3</ele>
        <time>2024-12-26T09:26:34.046Z</time>
      </trkpt>
      <trkpt lat="46.7238" lon="-1.9661">
        <ele>10.3</ele>
        <time>2024-12-26T09:26:35.046Z</time>
      </trkpt>
      <trkpt lat="46.72381" lon="-1.96609">
        <ele>10.2</ele>
        <time>2024-12-26T09:26:36.046Z</time>
      </trkpt>
      <trkpt lat="46.72382" lon="-1.96609">
        <ele>10.1</ele>
        <time>2024-12-26T09:26:37.046Z</time>
      </trkpt>
      <trkpt lat="46.72383" lon="-1.96609">
        <ele>10.1</ele>
        <time>2024-12-26T09:26:38.046Z</time>
      </trkpt>
      <trkpt lat="46.72385" lon="-1.96608">
        <ele>9.9</ele>
        <time>2024-12-26T09:26:39.046Z</time>
      </trkpt>
      <trkpt lat="46.72386" lon="-1.96607">
        <ele>9.8</ele>
        <time>2024-12-26T09:26:40.046Z</time>
      </trkpt>
      <trkpt lat="46.72387" lon="-1.96607">
        <ele>9.8</ele>
        <time>2024-12-26T09:26:41.046Z</time>
      </trkpt>
      <trkpt lat="46.72388" lon="-1.96606">
        <ele>9.7</ele>
        <time>2024-12-26T09:26:42.045Z</time>
      </trkpt>
      <trkpt lat="46.72389" lon="-1.96605">
        <ele>9.6</ele>
        <time>2024-12-26T09:26:43.046Z</time>
      </trkpt>
      <trkpt lat="46.72389" lon="-1.96604">
        <ele>9.5</ele>
        <time>2024-12-26T09:26:44.046Z</time>
      </trkpt>
      <trkpt lat="46.72391" lon="-1.96602">
        <ele>9.5</ele>
        <time>2024-12-26T09:26:45.046Z</time>
      </trkpt>
      <trkpt lat="46.72392" lon="-1.96601">
        <ele>9.5</ele>
        <time>2024-12-26T09:26:46.046Z</time>
      </trkpt>
      <trkpt lat="46.72394" lon="-1.96599">
        <ele>9.6</ele>
        <time>2024-12-26T09:26:47.046Z</time>
      </trkpt>
      <trkpt lat="46.72396" lon="-1.96598">
        <ele>9.5</ele>
        <time>2024-12-26T09:26:48.045Z</time>
      </trkpt>
      <trkpt lat="46.72396" lon="-1.96597">
        <ele>9.5</ele>
        <time>2024-12-26T09:26:49.046Z</time>
      </trkpt>
      <trkpt lat="46.72396" lon="-1.96596">
        <ele>9.4</ele>
        <time>2024-12-26T09:26:50.046Z</time>
      </trkpt>
      <trkpt lat="46.72397" lon="-1.96595">
        <ele>9.4</ele>
        <time>2024-12-26T09:26:51.046Z</time>
      </trkpt>
      <trkpt lat="46.72398" lon="-1.96594">
        <ele>9.3</ele>
        <time>2024-12-26T09:26:52.046Z</time>
      </trkpt>
      <trkpt lat="46.72399" lon="-1.96592">
        <ele>9.2</ele>
        <time>2024-12-26T09:26:53.045Z</time>
      </trkpt>
      <trkpt lat="46.724" lon="-1.9659">
        <ele>9.1</ele>
        <time>2024-12-26T09:26:54.045Z</time>
      </trkpt>
      <trkpt lat="46.72401" lon="-1.96588">
        <ele>8.9</ele>
        <time>2024-12-26T09:26:55.046Z</time>
      </trkpt>
      <trkpt lat="46.72403" lon="-1.96586">
        <ele>8.7</ele>
        <time>2024-12-26T09:26:56.046Z</time>
      </trkpt>
      <trkpt lat="46.72404" lon="-1.96584">
        <ele>8.6</ele>
        <time>2024-12-26T09:26:57.046Z</time>
      </trkpt>
      <trkpt lat="46.72405" lon="-1.96582">
        <ele>8.6</ele>
        <time>2024-12-26T09:26:58.046Z</time>
      </trkpt>
      <trkpt lat="46.72406" lon="-1.9658">
        <ele>8.6</ele>
        <time>2024-12-26T09:26:59.046Z</time>
      </trkpt>
      <trkpt lat="46.72408" lon="-1.96578">
        <ele>8.6</ele>
        <time>2024-12-26T09:27:00.046Z</time>
      </trkpt>
      <trkpt lat="46.72409" lon="-1.96577">
        <ele>8.6</ele>
        <time>2024-12-26T09:27:01.045Z</time>
      </trkpt>
      <trkpt lat="46.7241" lon="-1.96574">
        <ele>8.6</ele>
        <time>2024-12-26T09:27:02.045Z</time>
      </trkpt>
      <trkpt lat="46.72411" lon="-1.96571">
        <ele>8.5</ele>
        <time>2024-12-26T09:27:03.045Z</time>
      </trkpt>
      <trkpt lat="46.72412" lon="-1.96569">
        <ele>8.5</ele>
        <time>2024-12-26T09:27:04.045Z</time>
      </trkpt>
      <trkpt lat="46.72413" lon="-1.96567">
        <ele>8.4</ele>
        <time>2024-12-26T09:27:05.045Z</time>
      </trkpt>
      <trkpt lat="46.72414" lon="-1.96565">
        <ele>8.4</ele>
        <time>2024-12-26T09:27:06.045Z</time>
      </trkpt>
      <trkpt lat="46.72415" lon="-1.96564">
        <ele>8.3</ele>
        <time>2024-12-26T09:27:07.046Z</time>
      </trkpt>
      <trkpt lat="46.72416" lon="-1.96561">
        <ele>8.2</ele>
        <time>2024-12-26T09:27:08.046Z</time>
      </trkpt>
      <trkpt lat="46.72418" lon="-1.9656">
        <ele>8.1</ele>
        <time>2024-12-26T09:27:09.046Z</time>
      </trkpt>
      <trkpt lat="46.72419" lon="-1.96558">
        <ele>8.1</ele>
        <time>2024-12-26T09:27:10.045Z</time>
      </trkpt>
      <trkpt lat="46.72421" lon="-1.96556">
        <ele>8</ele>
        <time>2024-12-26T09:27:11.046Z</time>
      </trkpt>
      <trkpt lat="46.72422" lon="-1.96554">
        <ele>8</ele>
        <time>2024-12-26T09:27:12.045Z</time>
      </trkpt>
      <trkpt lat="46.72425" lon="-1.96551">
        <ele>8</ele>
        <time>2024-12-26T09:27:13.046Z</time>
      </trkpt>
      <trkpt lat="46.72426" lon="-1.9655">
        <ele>8</ele>
        <time>2024-12-26T09:27:14.046Z</time>
      </trkpt>
      <trkpt lat="46.72427" lon="-1.96549">
        <ele>8</ele>
        <time>2024-12-26T09:27:15.046Z</time>
      </trkpt>
      <trkpt lat="46.72428" lon="-1.96547">
        <ele>8</ele>
        <time>2024-12-26T09:27:16.046Z</time>
      </trkpt>
      <trkpt lat="46.72429" lon="-1.96547">
        <ele>8</ele>
        <time>2024-12-26T09:27:17.046Z</time>
      </trkpt>
      <trkpt lat="46.7243" lon="-1.96547">
        <ele>8</ele>
        <time>2024-12-26T09:27:18.046Z</time>
      </trkpt>
      <trkpt lat="46.72431" lon="-1.96547">
        <ele>8</ele>
        <time>2024-12-26T09:27:19.045Z</time>
      </trkpt>
      <trkpt lat="46.72433" lon="-1.96545">
        <ele>8</ele>
        <time>2024-12-26T09:27:20.046Z</time>
      </trkpt>
      <trkpt lat="46.72434" lon="-1.96545">
        <ele>8</ele>
        <time>2024-12-26T09:27:21.046Z</time>
      </trkpt>
      <trkpt lat="46.72436" lon="-1.96545">
        <ele>8</ele>
        <time>2024-12-26T09:27:22.045Z</time>
      </trkpt>
      <trkpt lat="46.72437" lon="-1.96548">
        <ele>8</ele>
        <time>2024-12-26T09:27:23.045Z</time>
      </trkpt>
      <trkpt lat="46.72437" lon="-1.96549">
        <ele>8</ele>
        <time>2024-12-26T09:27:24.045Z</time>
      </trkpt>
      <trkpt lat="46.72438" lon="-1.96551">
        <ele>8</ele>
        <time>2024-12-26T09:27:25.046Z</time>
      </trkpt>
      <trkpt lat="46.72439" lon="-1.96553">
        <ele>8</ele>
        <time>2024-12-26T09:27:26.046Z</time>
      </trkpt>
      <trkpt lat="46.7244" lon="-1.96554">
        <ele>8</ele>
        <time>2024-12-26T09:27:27.046Z</time>
      </trkpt>
      <trkpt lat="46.72441" lon="-1.96556">
        <ele>8</ele>
        <time>2024-12-26T09:27:28.045Z</time>
      </trkpt>
      <trkpt lat="46.72442" lon="-1.96557">
        <ele>8.1</ele>
        <time>2024-12-26T09:27:29.045Z</time>
      </trkpt>
      <trkpt lat="46.72443" lon="-1.96558">
        <ele>8.2</ele>
        <time>2024-12-26T09:27:30.046Z</time>
      </trkpt>
      <trkpt lat="46.72444" lon="-1.9656">
        <ele>8.3</ele>
        <time>2024-12-26T09:27:31.046Z</time>
      </trkpt>
      <trkpt lat="46.72445" lon="-1.9656">
        <ele>8.3</ele>
        <time>2024-12-26T09:27:32.045Z</time>
      </trkpt>
      <trkpt lat="46.72446" lon="-1.96561">
        <ele>8.4</ele>
        <time>2024-12-26T09:27:33.045Z</time>
      </trkpt>
      <trkpt lat="46.72447" lon="-1.96562">
        <ele>8.5</ele>
        <time>2024-12-26T09:27:34.045Z</time>
      </trkpt>
      <trkpt lat="46.72448" lon="-1.96563">
        <ele>8.6</ele>
        <time>2024-12-26T09:27:35.045Z</time>
      </trkpt>
      <trkpt lat="46.7245" lon="-1.96565">
        <ele>8.7</ele>
        <time>2024-12-26T09:27:36.046Z</time>
      </trkpt>
      <trkpt lat="46.72451" lon="-1.96566">
        <ele>8.7</ele>
        <time>2024-12-26T09:27:37.046Z</time>
      </trkpt>
      <trkpt lat="46.72451" lon="-1.96567">
        <ele>8.8</ele>
        <time>2024-12-26T09:27:38.045Z</time>
      </trkpt>
      <trkpt lat="46.72452" lon="-1.96567">
        <ele>8.8</ele>
        <time>2024-12-26T09:27:39.045Z</time>
      </trkpt>
      <trkpt lat="46.72453" lon="-1.96568">
        <ele>8.9</ele>
        <time>2024-12-26T09:27:40.045Z</time>
      </trkpt>
      <trkpt lat="46.72455" lon="-1.96569">
        <ele>8.9</ele>
        <time>2024-12-26T09:27:41.046Z</time>
      </trkpt>
      <trkpt lat="46.72456" lon="-1.9657">
        <ele>9</ele>
        <time>2024-12-26T09:27:42.045Z</time>
      </trkpt>
      <trkpt lat="46.72458" lon="-1.9657">
        <ele>9.1</ele>
        <time>2024-12-26T09:27:43.046Z</time>
      </trkpt>
      <trkpt lat="46.72459" lon="-1.96571">
        <ele>9.1</ele>
        <time>2024-12-26T09:27:44.046Z</time>
      </trkpt>
      <trkpt lat="46.7246" lon="-1.96572">
        <ele>9.2</ele>
        <time>2024-12-26T09:27:45.045Z</time>
      </trkpt>
      <trkpt lat="46.72461" lon="-1.96573">
        <ele>9.2</ele>
        <time>2024-12-26T09:27:46.046Z</time>
      </trkpt>
      <trkpt lat="46.72462" lon="-1.96574">
        <ele>9.3</ele>
        <time>2024-12-26T09:27:47.045Z</time>
      </trkpt>
      <trkpt lat="46.72464" lon="-1.96575">
        <ele>9.4</ele>
        <time>2024-12-26T09:27:48.046Z</time>
      </trkpt>
      <trkpt lat="46.72465" lon="-1.96576">
        <ele>9.5</ele>
        <time>2024-12-26T09:27:49.046Z</time>
      </trkpt>
      <trkpt lat="46.72466" lon="-1.96577">
        <ele>9.5</ele>
        <time>2024-12-26T09:27:50.046Z</time>
      </trkpt>
      <trkpt lat="46.72468" lon="-1.96577">
        <ele>9.6</ele>
        <time>2024-12-26T09:27:51.046Z</time>
      </trkpt>
      <trkpt lat="46.72469" lon="-1.96577">
        <ele>9.5</ele>
        <time>2024-12-26T09:27:52.045Z</time>
      </trkpt>
      <trkpt lat="46.7247" lon="-1.96577">
        <ele>9.5</ele>
        <time>2024-12-26T09:27:53.045Z</time>
      </trkpt>
      <trkpt lat="46.72471" lon="-1.96576">
        <ele>9.5</ele>
        <time>2024-12-26T09:27:54.045Z</time>
      </trkpt>
      <trkpt lat="46.72471" lon="-1.96577">
        <ele>9.5</ele>
        <time>2024-12-26T09:27:55.045Z</time>
      </trkpt>
      <trkpt lat="46.72472" lon="-1.96577">
        <ele>9.5</ele>
        <time>2024-12-26T09:27:56.046Z</time>
      </trkpt>
      <trkpt lat="46.72473" lon="-1.96577">
        <ele>9.5</ele>
        <time>2024-12-26T09:27:57.046Z</time>
      </trkpt>
      <trkpt lat="46.72474" lon="-1.96577">
        <ele>9.4</ele>
        <time>2024-12-26T09:27:58.046Z</time>
      </trkpt>
      <trkpt lat="46.72475" lon="-1.96578">
        <ele>9.5</ele>
        <time>2024-12-26T09:27:59.046Z</time>
      </trkpt>
      <trkpt lat="46.72476" lon="-1.96579">
        <ele>9.4</ele>
        <time>2024-12-26T09:28:00.045Z</time>
      </trkpt>
      <trkpt lat="46.72477" lon="-1.96579">
        <ele>9.4</ele>
        <time>2024-12-26T09:28:01.045Z</time>
      </trkpt>
      <trkpt lat="46.72479" lon="-1.9658">
        <ele>9.4</ele>
        <time>2024-12-26T09:28:02.046Z</time>
      </trkpt>
      <trkpt lat="46.7248" lon="-1.96582">
        <ele>9.3</ele>
        <time>2024-12-26T09:28:03.046Z</time>
      </trkpt>
      <trkpt lat="46.72482" lon="-1.96584">
        <ele>9.4</ele>
        <time>2024-12-26T09:28:04.045Z</time>
      </trkpt>
      <trkpt lat="46.72484" lon="-1.96586">
        <ele>9.5</ele>
        <time>2024-12-26T09:28:05.046Z</time>
      </trkpt>
      <trkpt lat="46.72485" lon="-1.96586">
        <ele>9.6</ele>
        <time>2024-12-26T09:28:06.046Z</time>
      </trkpt>
      <trkpt lat="46.72485" lon="-1.96586">
        <ele>9.5</ele>
        <time>2024-12-26T09:28:07.046Z</time>
      </trkpt>
      <trkpt lat="46.72486" lon="-1.96587">
        <ele>9.5</ele>
        <time>2024-12-26T09:28:08.046Z</time>
      </trkpt>
      <trkpt lat="46.72487" lon="-1.96588">
        <ele>9.6</ele>
        <time>2024-12-26T09:28:09.045Z</time>
      </trkpt>
      <trkpt lat="46.72489" lon="-1.9659">
        <ele>9.9</ele>
        <time>2024-12-26T09:28:10.046Z</time>
      </trkpt>
      <trkpt lat="46.7249" lon="-1.96592">
        <ele>10</ele>
        <time>2024-12-26T09:28:11.046Z</time>
      </trkpt>
      <trkpt lat="46.72491" lon="-1.96592">
        <ele>10</ele>
        <time>2024-12-26T09:28:12.046Z</time>
      </trkpt>
      <trkpt lat="46.72491" lon="-1.96591">
        <ele>9.8</ele>
        <time>2024-12-26T09:28:13.046Z</time>
      </trkpt>
      <trkpt lat="46.72492" lon="-1.9659">
        <ele>9.6</ele>
        <time>2024-12-26T09:28:14.046Z</time>
      </trkpt>
      <trkpt lat="46.72492" lon="-1.9659">
        <ele>9.5</ele>
        <time>2024-12-26T09:28:15.045Z</time>
      </trkpt>
      <trkpt lat="46.72494" lon="-1.9659">
        <ele>9.5</ele>
        <time>2024-12-26T09:28:16.045Z</time>
      </trkpt>
      <trkpt lat="46.72494" lon="-1.9659">
        <ele>9.5</ele>
        <time>2024-12-26T09:28:17.045Z</time>
      </trkpt>
      <trkpt lat="46.72495" lon="-1.96591">
        <ele>9.5</ele>
        <time>2024-12-26T09:28:18.045Z</time>
      </trkpt>
      <trkpt lat="46.72496" lon="-1.96593">
        <ele>9.7</ele>
        <time>2024-12-26T09:28:19.045Z</time>
      </trkpt>
      <trkpt lat="46.72497" lon="-1.96594">
        <ele>9.7</ele>
        <time>2024-12-26T09:28:20.045Z</time>
      </trkpt>
      <trkpt lat="46.72498" lon="-1.96594">
        <ele>9.8</ele>
        <time>2024-12-26T09:28:21.045Z</time>
      </trkpt>
      <trkpt lat="46.725" lon="-1.96594">
        <ele>9.6</ele>
        <time>2024-12-26T09:28:22.046Z</time>
      </trkpt>
      <trkpt lat="46.72502" lon="-1.96595">
        <ele>9.5</ele>
        <time>2024-12-26T09:28:23.045Z</time>
      </trkpt>
      <trkpt lat="46.72505" lon="-1.96595">
        <ele>9.4</ele>
        <time>2024-12-26T09:28:24.045Z</time>
      </trkpt>
      <trkpt lat="46.72508" lon="-1.96596">
        <ele>9.4</ele>
        <time>2024-12-26T09:28:25.045Z</time>
      </trkpt>
      <trkpt lat="46.7251" lon="-1.96597">
        <ele>9.4</ele>
        <time>2024-12-26T09:28:26.045Z</time>
      </trkpt>
      <trkpt lat="46.72512" lon="-1.96598">
        <ele>9.4</ele>
        <time>2024-12-26T09:28:27.046Z</time>
      </trkpt>
      <trkpt lat="46.72515" lon="-1.96599">
        <ele>9.4</ele>
        <time>2024-12-26T09:28:28.046Z</time>
      </trkpt>
      <trkpt lat="46.72517" lon="-1.96598">
        <ele>9.2</ele>
        <time>2024-12-26T09:28:29.045Z</time>
      </trkpt>
      <trkpt lat="46.72517" lon="-1.96598">
        <ele>9.1</ele>
        <time>2024-12-26T09:28:30.045Z</time>
      </trkpt>
      <trkpt lat="46.72519" lon="-1.96597">
        <ele>9</ele>
        <time>2024-12-26T09:28:31.045Z</time>
      </trkpt>
      <trkpt lat="46.72521" lon="-1.96596">
        <ele>8.8</ele>
        <time>2024-12-26T09:28:32.045Z</time>
      </trkpt>
      <trkpt lat="46.72522" lon="-1.96596">
        <ele>8.7</ele>
        <time>2024-12-26T09:28:33.046Z</time>
      </trkpt>
      <trkpt lat="46.72524" lon="-1.96596">
        <ele>8.6</ele>
        <time>2024-12-26T09:28:34.046Z</time>
      </trkpt>
      <trkpt lat="46.72527" lon="-1.96595">
        <ele>8.5</ele>
        <time>2024-12-26T09:28:35.045Z</time>
      </trkpt>
      <trkpt lat="46.72528" lon="-1.96594">
        <ele>8.4</ele>
        <time>2024-12-26T09:28:36.045Z</time>
      </trkpt>
      <trkpt lat="46.72529" lon="-1.96593">
        <ele>8.4</ele>
        <time>2024-12-26T09:28:37.045Z</time>
      </trkpt>
      <trkpt lat="46.7253" lon="-1.9659">
        <ele>8.4</ele>
        <time>2024-12-26T09:28:38.045Z</time>
      </trkpt>
      <trkpt lat="46.72531" lon="-1.96588">
        <ele>8.5</ele>
        <time>2024-12-26T09:28:39.046Z</time>
      </trkpt>
      <trkpt lat="46.72532" lon="-1.96586">
        <ele>8.5</ele>
        <time>2024-12-26T09:28:40.045Z</time>
      </trkpt>
      <trkpt lat="46.72534" lon="-1.96587">
        <ele>8.7</ele>
        <time>2024-12-26T09:28:41.045Z</time>
      </trkpt>
      <trkpt lat="46.72536" lon="-1.96587">
        <ele>9</ele>
        <time>2024-12-26T09:28:42.046Z</time>
      </trkpt>
      <trkpt lat="46.72538" lon="-1.96588">
        <ele>9.2</ele>
        <time>2024-12-26T09:28:43.046Z</time>
      </trkpt>
      <trkpt lat="46.7254" lon="-1.96588">
        <ele>9.4</ele>
        <time>2024-12-26T09:28:44.046Z</time>
      </trkpt>
      <trkpt lat="46.72541" lon="-1.96588">
        <ele>9.5</ele>
        <time>2024-12-26T09:28:45.046Z</time>
      </trkpt>
      <trkpt lat="46.72542" lon="-1.96588">
        <ele>9.6</ele>
        <time>2024-12-26T09:28:46.045Z</time>
      </trkpt>
      <trkpt lat="46.72543" lon="-1.96587">
        <ele>9.7</ele>
        <time>2024-12-26T09:28:47.046Z</time>
      </trkpt>
      <trkpt lat="46.72544" lon="-1.96586">
        <ele>9.8</ele>
        <time>2024-12-26T09:28:48.045Z</time>
      </trkpt>
      <trkpt lat="46.72545" lon="-1.96586">
        <ele>9.9</ele>
        <time>2024-12-26T09:28:49.045Z</time>
      </trkpt>
      <trkpt lat="46.72546" lon="-1.96585">
        <ele>10</ele>
        <time>2024-12-26T09:28:50.045Z</time>
      </trkpt>
      <trkpt lat="46.72547" lon="-1.96584">
        <ele>10.1</ele>
        <time>2024-12-26T09:28:51.045Z</time>
      </trkpt>
      <trkpt lat="46.72548" lon="-1.96583">
        <ele>10.2</ele>
        <time>2024-12-26T09:28:52.045Z</time>
      </trkpt>
      <trkpt lat="46.72549" lon="-1.96582">
        <ele>10.3</ele>
        <time>2024-12-26T09:28:53.046Z</time>
      </trkpt>
      <trkpt lat="46.72549" lon="-1.96582">
        <ele>10.4</ele>
        <time>2024-12-26T09:28:54.046Z</time>
      </trkpt>
      <trkpt lat="46.7255" lon="-1.96582">
        <ele>10.5</ele>
        <time>2024-12-26T09:28:55.046Z</time>
      </trkpt>
      <trkpt lat="46.72551" lon="-1.96581">
        <ele>10.6</ele>
        <time>2024-12-26T09:28:56.045Z</time>
      </trkpt>
      <trkpt lat="46.72553" lon="-1.9658">
        <ele>10.7</ele>
        <time>2024-12-26T09:28:57.046Z</time>
      </trkpt>
      <trkpt lat="46.72554" lon="-1.96578">
        <ele>10.8</ele>
        <time>2024-12-26T09:28:58.045Z</time>
      </trkpt>
      <trkpt lat="46.72555" lon="-1.96576">
        <ele>11</ele>
        <time>2024-12-26T09:28:59.045Z</time>
      </trkpt>
      <trkpt lat="46.72557" lon="-1.96575">
        <ele>10.9</ele>
        <time>2024-12-26T09:29:00.045Z</time>
      </trkpt>
      <trkpt lat="46.72559" lon="-1.96574">
        <ele>10.8</ele>
        <time>2024-12-26T09:29:01.045Z</time>
      </trkpt>
      <trkpt lat="46.7256" lon="-1.96572">
        <ele>10.7</ele>
        <time>2024-12-26T09:29:02.046Z</time>
      </trkpt>
      <trkpt lat="46.72561" lon="-1.9657">
        <ele>10.6</ele>
        <time>2024-12-26T09:29:03.046Z</time>
      </trkpt>
      <trkpt lat="46.72562" lon="-1.96569">
        <ele>10.6</ele>
        <time>2024-12-26T09:29:04.046Z</time>
      </trkpt>
      <trkpt lat="46.72563" lon="-1.96568">
        <ele>10.4</ele>
        <time>2024-12-26T09:29:05.046Z</time>
      </trkpt>
      <trkpt lat="46.72565" lon="-1.96567">
        <ele>10.3</ele>
        <time>2024-12-26T09:29:06.046Z</time>
      </trkpt>
      <trkpt lat="46.72566" lon="-1.96566">
        <ele>10.2</ele>
        <time>2024-12-26T09:29:07.046Z</time>
      </trkpt>
      <trkpt lat="46.72567" lon="-1.96563">
        <ele>10</ele>
        <time>2024-12-26T09:29:08.045Z</time>
      </trkpt>
      <trkpt lat="46.72568" lon="-1.96562">
        <ele>9.8</ele>
        <time>2024-12-26T09:29:09.045Z</time>
      </trkpt>
      <trkpt lat="46.7257" lon="-1.9656">
        <ele>9.7</ele>
        <time>2024-12-26T09:29:10.045Z</time>
      </trkpt>
      <trkpt lat="46.72571" lon="-1.96559">
        <ele>9.5</ele>
        <time>2024-12-26T09:29:11.045Z</time>
      </trkpt>
      <trkpt lat="46.72572" lon="-1.96558">
        <ele>9.3</ele>
        <time>2024-12-26T09:29:12.045Z</time>
      </trkpt>
      <trkpt lat="46.72573" lon="-1.96556">
        <ele>9.1</ele>
        <time>2024-12-26T09:29:13.045Z</time>
      </trkpt>
      <trkpt lat="46.72574" lon="-1.96555">
        <ele>9</ele>
        <time>2024-12-26T09:29:14.045Z</time>
      </trkpt>
      <trkpt lat="46.72575" lon="-1.96554">
        <ele>8.8</ele>
        <time>2024-12-26T09:29:15.045Z</time>
      </trkpt>
      <trkpt lat="46.72576" lon="-1.96553">
        <ele>8.7</ele>
        <time>2024-12-26T09:29:16.046Z</time>
      </trkpt>
      <trkpt lat="46.72577" lon="-1.96552">
        <ele>8.5</ele>
        <time>2024-12-26T09:29:17.046Z</time>
      </trkpt>
      <trkpt lat="46.72578" lon="-1.96551">
        <ele>8.4</ele>
        <time>2024-12-26T09:29:18.045Z</time>
      </trkpt>
      <trkpt lat="46.72578" lon="-1.96549">
        <ele>8.3</ele>
        <time>2024-12-26T09:29:19.046Z</time>
      </trkpt>
      <trkpt lat="46.72579" lon="-1.96548">
        <ele>8.2</ele>
        <time>2024-12-26T09:29:20.045Z</time>
      </trkpt>
      <trkpt lat="46.7258" lon="-1.96547">
        <ele>8</ele>
        <time>2024-12-26T09:29:21.046Z</time>
      </trkpt>
      <trkpt lat="46.72582" lon="-1.96546">
        <ele>7.9</ele>
        <time>2024-12-26T09:29:22.046Z</time>
      </trkpt>
      <trkpt lat="46.72583" lon="-1.96546">
        <ele>7.7</ele>
        <time>2024-12-26T09:29:23.046Z</time>
      </trkpt>
      <trkpt lat="46.72583" lon="-1.96544">
        <ele>7.6</ele>
        <time>2024-12-26T09:29:24.045Z</time>
      </trkpt>
      <trkpt lat="46.72584" lon="-1.96541">
        <ele>7.5</ele>
        <time>2024-12-26T09:29:25.046Z</time>
      </trkpt>
      <trkpt lat="46.72586" lon="-1.96538">
        <ele>7.4</ele>
        <time>2024-12-26T09:29:26.046Z</time>
      </trkpt>
      <trkpt lat="46.72588" lon="-1.96537">
        <ele>7.3</ele>
        <time>2024-12-26T09:29:27.046Z</time>
      </trkpt>
      <trkpt lat="46.72588" lon="-1.96534">
        <ele>7.2</ele>
        <time>2024-12-26T09:29:28.046Z</time>
      </trkpt>
      <trkpt lat="46.7259" lon="-1.96532">
        <ele>7.2</ele>
        <time>2024-12-26T09:29:29.046Z</time>
      </trkpt>
      <trkpt lat="46.72592" lon="-1.96529">
        <ele>7.1</ele>
        <time>2024-12-26T09:29:30.046Z</time>
      </trkpt>
      <trkpt lat="46.72593" lon="-1.96527">
        <ele>7</ele>
        <time>2024-12-26T09:29:31.046Z</time>
      </trkpt>
      <trkpt lat="46.72594" lon="-1.96525">
        <ele>7</ele>
        <time>2024-12-26T09:29:32.045Z</time>
      </trkpt>
      <trkpt lat="46.72594" lon="-1.96523">
        <ele>7</ele>
        <time>2024-12-26T09:29:33.045Z</time>
      </trkpt>
      <trkpt lat="46.72596" lon="-1.96521">
        <ele>7</ele>
        <time>2024-12-26T09:29:34.046Z</time>
      </trkpt>
      <trkpt lat="46.72598" lon="-1.9652">
        <ele>7</ele>
        <time>2024-12-26T09:29:35.046Z</time>
      </trkpt>
      <trkpt lat="46.72599" lon="-1.96518">
        <ele>7</ele>
        <time>2024-12-26T09:29:36.046Z</time>
      </trkpt>
      <trkpt lat="46.726" lon="-1.96517">
        <ele>7</ele>
        <time>2024-12-26T09:29:37.045Z</time>
      </trkpt>
      <trkpt lat="46.726" lon="-1.96515">
        <ele>7</ele>
        <time>2024-12-26T09:29:38.045Z</time>
      </trkpt>
      <trkpt lat="46.72601" lon="-1.96512">
        <ele>7</ele>
        <time>2024-12-26T09:29:39.045Z</time>
      </trkpt>
      <trkpt lat="46.72601" lon="-1.96511">
        <ele>7</ele>
        <time>2024-12-26T09:29:40.045Z</time>
      </trkpt>
      <trkpt lat="46.72602" lon="-1.9651">
        <ele>7</ele>
        <time>2024-12-26T09:29:41.045Z</time>
      </trkpt>
      <trkpt lat="46.72603" lon="-1.96508">
        <ele>7</ele>
        <time>2024-12-26T09:29:42.046Z</time>
      </trkpt>
      <trkpt lat="46.72603" lon="-1.96507">
        <ele>7</ele>
        <time>2024-12-26T09:29:43.046Z</time>
      </trkpt>
      <trkpt lat="46.72603" lon="-1.96506">
        <ele>7</ele>
        <time>2024-12-26T09:29:44.046Z</time>
      </trkpt>
      <trkpt lat="46.72604" lon="-1.96505">
        <ele>7</ele>
        <time>2024-12-26T09:29:45.046Z</time>
      </trkpt>
      <trkpt lat="46.72604" lon="-1.96503">
        <ele>7</ele>
        <time>2024-12-26T09:29:46.046Z</time>
      </trkpt>
      <trkpt lat="46.72605" lon="-1.96501">
        <ele>7</ele>
        <time>2024-12-26T09:29:47.046Z</time>
      </trkpt>
      <trkpt lat="46.72606" lon="-1.96499">
        <ele>7</ele>
        <time>2024-12-26T09:29:48.045Z</time>
      </trkpt>
      <trkpt lat="46.72609" lon="-1.96496">
        <ele>6.9</ele>
        <time>2024-12-26T09:29:49.045Z</time>
      </trkpt>
      <trkpt lat="46.7261" lon="-1.96495">
        <ele>6.8</ele>
        <time>2024-12-26T09:29:50.045Z</time>
      </trkpt>
      <trkpt lat="46.7261" lon="-1.96493">
        <ele>6.8</ele>
        <time>2024-12-26T09:29:51.046Z</time>
      </trkpt>
      <trkpt lat="46.72611" lon="-1.96492">
        <ele>6.7</ele>
        <time>2024-12-26T09:29:52.045Z</time>
      </trkpt>
      <trkpt lat="46.72612" lon="-1.9649">
        <ele>6.7</ele>
        <time>2024-12-26T09:29:53.045Z</time>
      </trkpt>
      <trkpt lat="46.72613" lon="-1.96489">
        <ele>6.7</ele>
        <time>2024-12-26T09:29:54.045Z</time>
      </trkpt>
      <trkpt lat="46.72614" lon="-1.96487">
        <ele>6.8</ele>
        <time>2024-12-26T09:29:55.046Z</time>
      </trkpt>
      <trkpt lat="46.72615" lon="-1.96485">
        <ele>6.9</ele>
        <time>2024-12-26T09:29:56.046Z</time>
      </trkpt>
      <trkpt lat="46.72616" lon="-1.96482">
        <ele>6.9</ele>
        <time>2024-12-26T09:29:57.045Z</time>
      </trkpt>
      <trkpt lat="46.72617" lon="-1.9648">
        <ele>7.1</ele>
        <time>2024-12-26T09:29:58.045Z</time>
      </trkpt>
      <trkpt lat="46.72618" lon="-1.96479">
        <ele>7.3</ele>
        <time>2024-12-26T09:29:59.045Z</time>
      </trkpt>
      <trkpt lat="46.72619" lon="-1.96479">
        <ele>7.4</ele>
        <time>2024-12-26T09:30:00.045Z</time>
      </trkpt>
      <trkpt lat="46.72621" lon="-1.96479">
        <ele>7.7</ele>
        <time>2024-12-26T09:30:01.045Z</time>
      </trkpt>
      <trkpt lat="46.72621" lon="-1.96478">
        <ele>7.7</ele>
        <time>2024-12-26T09:30:02.046Z</time>
      </trkpt>
      <trkpt lat="46.72622" lon="-1.96477">
        <ele>7.9</ele>
        <time>2024-12-26T09:30:03.045Z</time>
      </trkpt>
      <trkpt lat="46.72623" lon="-1.96476">
        <ele>8</ele>
        <time>2024-12-26T09:30:04.045Z</time>
      </trkpt>
      <trkpt lat="46.72623" lon="-1.96474">
        <ele>8.1</ele>
        <time>2024-12-26T09:30:05.045Z</time>
      </trkpt>
      <trkpt lat="46.72624" lon="-1.96473">
        <ele>8.3</ele>
        <time>2024-12-26T09:30:06.046Z</time>
      </trkpt>
      <trkpt lat="46.72625" lon="-1.96472">
        <ele>8.5</ele>
        <time>2024-12-26T09:30:07.045Z</time>
      </trkpt>
      <trkpt lat="46.72626" lon="-1.96472">
        <ele>8.7</ele>
        <time>2024-12-26T09:30:08.045Z</time>
      </trkpt>
      <trkpt lat="46.72627" lon="-1.96472">
        <ele>8.9</ele>
        <time>2024-12-26T09:30:09.046Z</time>
      </trkpt>
      <trkpt lat="46.72628" lon="-1.96471">
        <ele>9.1</ele>
        <time>2024-12-26T09:30:10.045Z</time>
      </trkpt>
      <trkpt lat="46.72629" lon="-1.9647">
        <ele>9.2</ele>
        <time>2024-12-26T09:30:11.045Z</time>
      </trkpt>
      <trkpt lat="46.72629" lon="-1.96469">
        <ele>9.2</ele>
        <time>2024-12-26T09:30:12.045Z</time>
      </trkpt>
      <trkpt lat="46.72629" lon="-1.96468">
        <ele>9.3</ele>
        <time>2024-12-26T09:30:13.045Z</time>
      </trkpt>
      <trkpt lat="46.7263" lon="-1.96467">
        <ele>9.4</ele>
        <time>2024-12-26T09:30:14.045Z</time>
      </trkpt>
      <trkpt lat="46.72631" lon="-1.96466">
        <ele>9.6</ele>
        <time>2024-12-26T09:30:15.046Z</time>
      </trkpt>
      <trkpt lat="46.72632" lon="-1.96465">
        <ele>9.7</ele>
        <time>2024-12-26T09:30:16.046Z</time>
      </trkpt>
      <trkpt lat="46.72633" lon="-1.96463">
        <ele>9.9</ele>
        <time>2024-12-26T09:30:17.045Z</time>
      </trkpt>
      <trkpt lat="46.72633" lon="-1.96462">
        <ele>10</ele>
        <time>2024-12-26T09:30:18.045Z</time>
      </trkpt>
      <trkpt lat="46.72634" lon="-1.9646">
        <ele>10.1</ele>
        <time>2024-12-26T09:30:19.045Z</time>
      </trkpt>
      <trkpt lat="46.72635" lon="-1.96459">
        <ele>10.4</ele>
        <time>2024-12-26T09:30:20.046Z</time>
      </trkpt>
      <trkpt lat="46.72637" lon="-1.96458">
        <ele>10.6</ele>
        <time>2024-12-26T09:30:21.046Z</time>
      </trkpt>
      <trkpt lat="46.72638" lon="-1.96457">
        <ele>10.8</ele>
        <time>2024-12-26T09:30:22.045Z</time>
      </trkpt>
      <trkpt lat="46.72639" lon="-1.96455">
        <ele>11</ele>
        <time>2024-12-26T09:30:23.045Z</time>
      </trkpt>
      <trkpt lat="46.7264" lon="-1.96454">
        <ele>10.9</ele>
        <time>2024-12-26T09:30:24.046Z</time>
      </trkpt>
      <trkpt lat="46.72641" lon="-1.96453">
        <ele>10.8</ele>
        <time>2024-12-26T09:30:25.046Z</time>
      </trkpt>
      <trkpt lat="46.72642" lon="-1.96451">
        <ele>10.7</ele>
        <time>2024-12-26T09:30:26.046Z</time>
      </trkpt>
      <trkpt lat="46.72643" lon="-1.9645">
        <ele>10.6</ele>
        <time>2024-12-26T09:30:27.045Z</time>
      </trkpt>
      <trkpt lat="46.72643" lon="-1.96448">
        <ele>10.5</ele>
        <time>2024-12-26T09:30:28.045Z</time>
      </trkpt>
      <trkpt lat="46.72644" lon="-1.96447">
        <ele>10.4</ele>
        <time>2024-12-26T09:30:29.046Z</time>
      </trkpt>
      <trkpt lat="46.72645" lon="-1.96446">
        <ele>10.3</ele>
        <time>2024-12-26T09:30:30.046Z</time>
      </trkpt>
      <trkpt lat="46.72646" lon="-1.96444">
        <ele>10.3</ele>
        <time>2024-12-26T09:30:31.045Z</time>
      </trkpt>
      <trkpt lat="46.72647" lon="-1.96444">
        <ele>10.2</ele>
        <time>2024-12-26T09:30:32.045Z</time>
      </trkpt>
      <trkpt lat="46.72648" lon="-1.96443">
        <ele>10.2</ele>
        <time>2024-12-26T09:30:33.046Z</time>
      </trkpt>
      <trkpt lat="46.72648" lon="-1.96442">
        <ele>10.2</ele>
        <time>2024-12-26T09:30:34.045Z</time>
      </trkpt>
      <trkpt lat="46.7265" lon="-1.96442">
        <ele>10</ele>
        <time>2024-12-26T09:30:35.046Z</time>
      </trkpt>
      <trkpt lat="46.7265" lon="-1.96442">
        <ele>10</ele>
        <time>2024-12-26T09:30:36.046Z</time>
      </trkpt>
      <trkpt lat="46.72651" lon="-1.96442">
        <ele>10</ele>
        <time>2024-12-26T09:30:37.045Z</time>
      </trkpt>
      <trkpt lat="46.72651" lon="-1.96442">
        <ele>9.9</ele>
        <time>2024-12-26T09:30:38.046Z</time>
      </trkpt>
      <trkpt lat="46.72651" lon="-1.96442">
        <ele>9.9</ele>
        <time>2024-12-26T09:30:39.046Z</time>
      </trkpt>
      <trkpt lat="46.72652" lon="-1.96442">
        <ele>9.9</ele>
        <time>2024-12-26T09:30:40.045Z</time>
      </trkpt>
      <trkpt lat="46.72651" lon="-1.96441">
        <ele>10.1</ele>
        <time>2024-12-26T09:30:41.045Z</time>
      </trkpt>
      <trkpt lat="46.72651" lon="-1.96438">
        <ele>10.4</ele>
        <time>2024-12-26T09:30:42.046Z</time>
      </trkpt>
      <trkpt lat="46.72651" lon="-1.96436">
        <ele>10.5</ele>
        <time>2024-12-26T09:30:43.046Z</time>
      </trkpt>
      <trkpt lat="46.72652" lon="-1.96434">
        <ele>10.6</ele>
        <time>2024-12-26T09:30:44.046Z</time>
      </trkpt>
      <trkpt lat="46.72653" lon="-1.96433">
        <ele>10.7</ele>
        <time>2024-12-26T09:30:45.046Z</time>
      </trkpt>
      <trkpt lat="46.72654" lon="-1.96431">
        <ele>10.9</ele>
        <time>2024-12-26T09:30:46.045Z</time>
      </trkpt>
      <trkpt lat="46.72654" lon="-1.96428">
        <ele>11.3</ele>
        <time>2024-12-26T09:30:47.046Z</time>
      </trkpt>
      <trkpt lat="46.72654" lon="-1.96425">
        <ele>11.6</ele>
        <time>2024-12-26T09:30:48.046Z</time>
      </trkpt>
      <trkpt lat="46.72653" lon="-1.96423">
        <ele>11.9</ele>
        <time>2024-12-26T09:30:49.045Z</time>
      </trkpt>
      <trkpt lat="46.72653" lon="-1.9642">
        <ele>12.1</ele>
        <time>2024-12-26T09:30:50.045Z</time>
      </trkpt>
      <trkpt lat="46.72654" lon="-1.96418">
        <ele>12.4</ele>
        <time>2024-12-26T09:30:51.045Z</time>
      </trkpt>
      <trkpt lat="46.72654" lon="-1.96417">
        <ele>12.5</ele>
        <time>2024-12-26T09:30:52.045Z</time>
      </trkpt>
      <trkpt lat="46.72654" lon="-1.96416">
        <ele>12.6</ele>
        <time>2024-12-26T09:30:53.046Z</time>
      </trkpt>
      <trkpt lat="46.72655" lon="-1.96413">
        <ele>12.8</ele>
        <time>2024-12-26T09:30:54.045Z</time>
      </trkpt>
      <trkpt lat="46.72654" lon="-1.96411">
        <ele>12.9</ele>
        <time>2024-12-26T09:30:55.045Z</time>
      </trkpt>
      <trkpt lat="46.72653" lon="-1.96408">
        <ele>13</ele>
        <time>2024-12-26T09:30:56.045Z</time>
      </trkpt>
      <trkpt lat="46.72653" lon="-1.96406">
        <ele>13.1</ele>
        <time>2024-12-26T09:30:57.045Z</time>
      </trkpt>
      <trkpt lat="46.72653" lon="-1.96405">
        <ele>13.1</ele>
        <time>2024-12-26T09:30:58.045Z</time>
      </trkpt>
      <trkpt lat="46.72653" lon="-1.96404">
        <ele>13.2</ele>
        <time>2024-12-26T09:30:59.046Z</time>
      </trkpt>
      <trkpt lat="46.72653" lon="-1.96401">
        <ele>13.4</ele>
        <time>2024-12-26T09:31:00.046Z</time>
      </trkpt>
      <trkpt lat="46.72654" lon="-1.96401">
        <ele>13.5</ele>
        <time>2024-12-26T09:31:01.046Z</time>
      </trkpt>
      <trkpt lat="46.72656" lon="-1.964">
        <ele>13.7</ele>
        <time>2024-12-26T09:31:02.046Z</time>
      </trkpt>
      <trkpt lat="46.72657" lon="-1.96398">
        <ele>13.9</ele>
        <time>2024-12-26T09:31:03.045Z</time>
      </trkpt>
      <trkpt lat="46.72658" lon="-1.96397">
        <ele>14.1</ele>
        <time>2024-12-26T09:31:04.046Z</time>
      </trkpt>
      <trkpt lat="46.72658" lon="-1.96396">
        <ele>14.3</ele>
        <time>2024-12-26T09:31:05.046Z</time>
      </trkpt>
      <trkpt lat="46.72658" lon="-1.96394">
        <ele>14.4</ele>
        <time>2024-12-26T09:31:06.045Z</time>
      </trkpt>
      <trkpt lat="46.72658" lon="-1.96392">
        <ele>14.6</ele>
        <time>2024-12-26T09:31:07.045Z</time>
      </trkpt>
      <trkpt lat="46.72658" lon="-1.96391">
        <ele>14.7</ele>
        <time>2024-12-26T09:31:08.045Z</time>
      </trkpt>
      <trkpt lat="46.72658" lon="-1.96389">
        <ele>14.7</ele>
        <time>2024-12-26T09:31:09.045Z</time>
      </trkpt>
      <trkpt lat="46.72658" lon="-1.96387">
        <ele>14.8</ele>
        <time>2024-12-26T09:31:10.045Z</time>
      </trkpt>
      <trkpt lat="46.72659" lon="-1.96387">
        <ele>14.9</ele>
        <time>2024-12-26T09:31:11.045Z</time>
      </trkpt>
      <trkpt lat="46.7266" lon="-1.96386">
        <ele>15</ele>
        <time>2024-12-26T09:31:12.046Z</time>
      </trkpt>
      <trkpt lat="46.72662" lon="-1.96386">
        <ele>15.2</ele>
        <time>2024-12-26T09:31:13.045Z</time>
      </trkpt>
      <trkpt lat="46.72663" lon="-1.96385">
        <ele>15.3</ele>
        <time>2024-12-26T09:31:14.046Z</time>
      </trkpt>
      <trkpt lat="46.72664" lon="-1.96385">
        <ele>15.5</ele>
        <time>2024-12-26T09:31:15.046Z</time>
      </trkpt>
      <trkpt lat="46.72666" lon="-1.96384">
        <ele>15.7</ele>
        <time>2024-12-26T09:31:16.046Z</time>
      </trkpt>
      <trkpt lat="46.72667" lon="-1.96383">
        <ele>15.8</ele>
        <time>2024-12-26T09:31:17.045Z</time>
      </trkpt>
      <trkpt lat="46.72668" lon="-1.96383">
        <ele>15.7</ele>
        <time>2024-12-26T09:31:18.045Z</time>
      </trkpt>
      <trkpt lat="46.72669" lon="-1.96381">
        <ele>15.6</ele>
        <time>2024-12-26T09:31:19.045Z</time>
      </trkpt>
      <trkpt lat="46.72669" lon="-1.96378">
        <ele>15.5</ele>
        <time>2024-12-26T09:31:20.045Z</time>
      </trkpt>
      <trkpt lat="46.7267" lon="-1.96375">
        <ele>15.4</ele>
        <time>2024-12-26T09:31:21.045Z</time>
      </trkpt>
      <trkpt lat="46.7267" lon="-1.96372">
        <ele>15.3</ele>
        <time>2024-12-26T09:31:22.045Z</time>
      </trkpt>
      <trkpt lat="46.7267" lon="-1.9637">
        <ele>15.2</ele>
        <time>2024-12-26T09:31:23.045Z</time>
      </trkpt>
      <trkpt lat="46.72669" lon="-1.96368">
        <ele>15.1</ele>
        <time>2024-12-26T09:31:24.045Z</time>
      </trkpt>
      <trkpt lat="46.72669" lon="-1.96366">
        <ele>15.1</ele>
        <time>2024-12-26T09:31:25.045Z</time>
      </trkpt>
      <trkpt lat="46.72668" lon="-1.96364">
        <ele>15</ele>
        <time>2024-12-26T09:31:26.046Z</time>
      </trkpt>
      <trkpt lat="46.72668" lon="-1.96361">
        <ele>14.9</ele>
        <time>2024-12-26T09:31:27.046Z</time>
      </trkpt>
      <trkpt lat="46.72669" lon="-1.96359">
        <ele>14.7</ele>
        <time>2024-12-26T09:31:28.046Z</time>
      </trkpt>
      <trkpt lat="46.72669" lon="-1.96357">
        <ele>14.6</ele>
        <time>2024-12-26T09:31:29.045Z</time>
      </trkpt>
      <trkpt lat="46.72669" lon="-1.96355">
        <ele>14.4</ele>
        <time>2024-12-26T09:31:30.046Z</time>
      </trkpt>
      <trkpt lat="46.72668" lon="-1.96354">
        <ele>14.4</ele>
        <time>2024-12-26T09:31:31.046Z</time>
      </trkpt>
      <trkpt lat="46.72667" lon="-1.96352">
        <ele>14.3</ele>
        <time>2024-12-26T09:31:32.045Z</time>
      </trkpt>
      <trkpt lat="46.72666" lon="-1.9635">
        <ele>14.1</ele>
        <time>2024-12-26T09:31:33.045Z</time>
      </trkpt>
      <trkpt lat="46.72664" lon="-1.96348">
        <ele>14</ele>
        <time>2024-12-26T09:31:34.045Z</time>
      </trkpt>
      <trkpt lat="46.72663" lon="-1.96346">
        <ele>13.8</ele>
        <time>2024-12-26T09:31:35.045Z</time>
      </trkpt>
      <trkpt lat="46.72661" lon="-1.96344">
        <ele>13.6</ele>
        <time>2024-12-26T09:31:36.045Z</time>
      </trkpt>
      <trkpt lat="46.72661" lon="-1.96342">
        <ele>13.5</ele>
        <time>2024-12-26T09:31:37.045Z</time>
      </trkpt>
      <trkpt lat="46.72661" lon="-1.96341">
        <ele>13.4</ele>
        <time>2024-12-26T09:31:38.045Z</time>
      </trkpt>
      <trkpt lat="46.72661" lon="-1.96339">
        <ele>13.3</ele>
        <time>2024-12-26T09:31:39.045Z</time>
      </trkpt>
      <trkpt lat="46.7266" lon="-1.96338">
        <ele>13.2</ele>
        <time>2024-12-26T09:31:40.046Z</time>
      </trkpt>
      <trkpt lat="46.72658" lon="-1.96335">
        <ele>13.1</ele>
        <time>2024-12-26T09:31:41.046Z</time>
      </trkpt>
      <trkpt lat="46.72658" lon="-1.96334">
        <ele>13</ele>
        <time>2024-12-26T09:31:42.046Z</time>
      </trkpt>
      <trkpt lat="46.72657" lon="-1.96332">
        <ele>13</ele>
        <time>2024-12-26T09:31:43.045Z</time>
      </trkpt>
      <trkpt lat="46.72655" lon="-1.9633">
        <ele>13</ele>
        <time>2024-12-26T09:31:44.046Z</time>
      </trkpt>
      <trkpt lat="46.72652" lon="-1.96327">
        <ele>13.1</ele>
        <time>2024-12-26T09:31:45.046Z</time>
      </trkpt>
      <trkpt lat="46.7265" lon="-1.96324">
        <ele>13.2</ele>
        <time>2024-12-26T09:31:46.046Z</time>
      </trkpt>
      <trkpt lat="46.72649" lon="-1.96322">
        <ele>13.3</ele>
        <time>2024-12-26T09:31:47.045Z</time>
      </trkpt>
      <trkpt lat="46.72647" lon="-1.9632">
        <ele>13.4</ele>
        <time>2024-12-26T09:31:48.046Z</time>
      </trkpt>
      <trkpt lat="46.72644" lon="-1.96318">
        <ele>13.4</ele>
        <time>2024-12-26T09:31:49.045Z</time>
      </trkpt>
      <trkpt lat="46.72642" lon="-1.96317">
        <ele>13.5</ele>
        <time>2024-12-26T09:31:50.045Z</time>
      </trkpt>
      <trkpt lat="46.72641" lon="-1.96316">
        <ele>13.6</ele>
        <time>2024-12-26T09:31:51.046Z</time>
      </trkpt>
      <trkpt lat="46.7264" lon="-1.96315">
        <ele>13.6</ele>
        <time>2024-12-26T09:31:52.045Z</time>
      </trkpt>
      <trkpt lat="46.72639" lon="-1.96315">
        <ele>13.7</ele>
        <time>2024-12-26T09:31:53.045Z</time>
      </trkpt>
      <trkpt lat="46.72637" lon="-1.96314">
        <ele>13.9</ele>
        <time>2024-12-26T09:31:54.045Z</time>
      </trkpt>
      <trkpt lat="46.72636" lon="-1.96313">
        <ele>14.1</ele>
        <time>2024-12-26T09:31:55.045Z</time>
      </trkpt>
      <trkpt lat="46.72635" lon="-1.96313">
        <ele>14.2</ele>
        <time>2024-12-26T09:31:56.046Z</time>
      </trkpt>
      <trkpt lat="46.72633" lon="-1.96313">
        <ele>14.4</ele>
        <time>2024-12-26T09:31:57.046Z</time>
      </trkpt>
      <trkpt lat="46.72632" lon="-1.96314">
        <ele>14.5</ele>
        <time>2024-12-26T09:31:58.046Z</time>
      </trkpt>
      <trkpt lat="46.72631" lon="-1.96314">
        <ele>14.7</ele>
        <time>2024-12-26T09:31:59.046Z</time>
      </trkpt>
      <trkpt lat="46.72629" lon="-1.96314">
        <ele>15</ele>
        <time>2024-12-26T09:32:00.046Z</time>
      </trkpt>
      <trkpt lat="46.72627" lon="-1.96314">
        <ele>15.2</ele>
        <time>2024-12-26T09:32:01.045Z</time>
      </trkpt>
      <trkpt lat="46.72625" lon="-1.96313">
        <ele>15.4</ele>
        <time>2024-12-26T09:32:02.045Z</time>
      </trkpt>
      <trkpt lat="46.72623" lon="-1.96313">
        <ele>15.7</ele>
        <time>2024-12-26T09:32:03.045Z</time>
      </trkpt>
      <trkpt lat="46.72622" lon="-1.96313">
        <ele>15.9</ele>
        <time>2024-12-26T09:32:04.045Z</time>
      </trkpt>
      <trkpt lat="46.7262" lon="-1.96313">
        <ele>16.2</ele>
        <time>2024-12-26T09:32:05.045Z</time>
      </trkpt>
      <trkpt lat="46.72618" lon="-1.96312">
        <ele>16.4</ele>
        <time>2024-12-26T09:32:06.045Z</time>
      </trkpt>
      <trkpt lat="46.72616" lon="-1.96311">
        <ele>16.8</ele>
        <time>2024-12-26T09:32:07.045Z</time>
      </trkpt>
      <trkpt lat="46.72615" lon="-1.96309">
        <ele>17.1</ele>
        <time>2024-12-26T09:32:08.045Z</time>
      </trkpt>
      <trkpt lat="46.72614" lon="-1.96308">
        <ele>17.3</ele>
        <time>2024-12-26T09:32:09.045Z</time>
      </trkpt>
      <trkpt lat="46.72614" lon="-1.96309">
        <ele>17.3</ele>
        <time>2024-12-26T09:32:10.046Z</time>
      </trkpt>
      <trkpt lat="46.72613" lon="-1.96308">
        <ele>17.5</ele>
        <time>2024-12-26T09:32:11.045Z</time>
      </trkpt>
      <trkpt lat="46.72612" lon="-1.96308">
        <ele>17.7</ele>
        <time>2024-12-26T09:32:12.045Z</time>
      </trkpt>
      <trkpt lat="46.72611" lon="-1.96307">
        <ele>17.8</ele>
        <time>2024-12-26T09:32:13.045Z</time>
      </trkpt>
      <trkpt lat="46.7261" lon="-1.96306">
        <ele>17.8</ele>
        <time>2024-12-26T09:32:14.045Z</time>
      </trkpt>
      <trkpt lat="46.72608" lon="-1.96305">
        <ele>17.7</ele>
        <time>2024-12-26T09:32:15.046Z</time>
      </trkpt>
      <trkpt lat="46.72608" lon="-1.96305">
        <ele>17.7</ele>
        <time>2024-12-26T09:32:16.046Z</time>
      </trkpt>
      <trkpt lat="46.72609" lon="-1.96304">
        <ele>17.8</ele>
        <time>2024-12-26T09:32:17.046Z</time>
      </trkpt>
      <trkpt lat="46.72608" lon="-1.96304">
        <ele>17.7</ele>
        <time>2024-12-26T09:32:18.046Z</time>
      </trkpt>
      <trkpt lat="46.72608" lon="-1.96302">
        <ele>17.8</ele>
        <time>2024-12-26T09:32:19.045Z</time>
      </trkpt>
      <trkpt lat="46.72608" lon="-1.96301">
        <ele>17.8</ele>
        <time>2024-12-26T09:32:20.046Z</time>
      </trkpt>
      <trkpt lat="46.72608" lon="-1.96299">
        <ele>17.9</ele>
        <time>2024-12-26T09:32:21.046Z</time>
      </trkpt>
      <trkpt lat="46.72607" lon="-1.96296">
        <ele>18</ele>
        <time>2024-12-26T09:32:22.045Z</time>
      </trkpt>
      <trkpt lat="46.72607" lon="-1.96294">
        <ele>18</ele>
        <time>2024-12-26T09:32:23.045Z</time>
      </trkpt>
      <trkpt lat="46.72608" lon="-1.96293">
        <ele>18.1</ele>
        <time>2024-12-26T09:32:24.045Z</time>
      </trkpt>
      <trkpt lat="46.72607" lon="-1.96291">
        <ele>18.2</ele>
        <time>2024-12-26T09:32:25.045Z</time>
      </trkpt>
      <trkpt lat="46.72608" lon="-1.96291">
        <ele>18.2</ele>
        <time>2024-12-26T09:32:26.046Z</time>
      </trkpt>
      <trkpt lat="46.72608" lon="-1.96289">
        <ele>18.3</ele>
        <time>2024-12-26T09:32:27.045Z</time>
      </trkpt>
      <trkpt lat="46.72608" lon="-1.96287">
        <ele>18.4</ele>
        <time>2024-12-26T09:32:28.045Z</time>
      </trkpt>
      <trkpt lat="46.72608" lon="-1.96285">
        <ele>18.5</ele>
        <time>2024-12-26T09:32:29.045Z</time>
      </trkpt>
      <trkpt lat="46.72608" lon="-1.96283">
        <ele>18.5</ele>
        <time>2024-12-26T09:32:30.046Z</time>
      </trkpt>
      <trkpt lat="46.72608" lon="-1.96282">
        <ele>18.6</ele>
        <time>2024-12-26T09:32:31.046Z</time>
      </trkpt>
      <trkpt lat="46.72607" lon="-1.9628">
        <ele>18.6</ele>
        <time>2024-12-26T09:32:32.045Z</time>
      </trkpt>
      <trkpt lat="46.72607" lon="-1.96279">
        <ele>18.6</ele>
        <time>2024-12-26T09:32:33.045Z</time>
      </trkpt>
      <trkpt lat="46.72607" lon="-1.96278">
        <ele>18.7</ele>
        <time>2024-12-26T09:32:34.045Z</time>
      </trkpt>
      <trkpt lat="46.72606" lon="-1.96277">
        <ele>18.7</ele>
        <time>2024-12-26T09:32:35.045Z</time>
      </trkpt>
      <trkpt lat="46.72606" lon="-1.96276">
        <ele>18.7</ele>
        <time>2024-12-26T09:32:36.045Z</time>
      </trkpt>
      <trkpt lat="46.72606" lon="-1.96274">
        <ele>18.7</ele>
        <time>2024-12-26T09:32:37.045Z</time>
      </trkpt>
      <trkpt lat="46.72606" lon="-1.96273">
        <ele>18.7</ele>
        <time>2024-12-26T09:32:38.045Z</time>
      </trkpt>
      <trkpt lat="46.72606" lon="-1.96271">
        <ele>18.7</ele>
        <time>2024-12-26T09:32:39.045Z</time>
      </trkpt>
      <trkpt lat="46.72605" lon="-1.9627">
        <ele>18.7</ele>
        <time>2024-12-26T09:32:40.045Z</time>
      </trkpt>
      <trkpt lat="46.72606" lon="-1.96268">
        <ele>18.7</ele>
        <time>2024-12-26T09:32:41.046Z</time>
      </trkpt>
      <trkpt lat="46.72605" lon="-1.96266">
        <ele>18.8</ele>
        <time>2024-12-26T09:32:42.045Z</time>
      </trkpt>
      <trkpt lat="46.72605" lon="-1.96264">
        <ele>18.8</ele>
        <time>2024-12-26T09:32:43.045Z</time>
      </trkpt>
      <trkpt lat="46.72603" lon="-1.96263">
        <ele>18.7</ele>
        <time>2024-12-26T09:32:44.045Z</time>
      </trkpt>
      <trkpt lat="46.72602" lon="-1.96264">
        <ele>18.7</ele>
        <time>2024-12-26T09:32:45.046Z</time>
      </trkpt>
      <trkpt lat="46.72602" lon="-1.96264">
        <ele>18.7</ele>
        <time>2024-12-26T09:32:46.045Z</time>
      </trkpt>
      <trkpt lat="46.72602" lon="-1.96262">
        <ele>18.7</ele>
        <time>2024-12-26T09:32:47.046Z</time>
      </trkpt>
      <trkpt lat="46.72601" lon="-1.96259">
        <ele>18.8</ele>
        <time>2024-12-26T09:32:48.045Z</time>
      </trkpt>
      <trkpt lat="46.72601" lon="-1.96257">
        <ele>18.8</ele>
        <time>2024-12-26T09:32:49.045Z</time>
      </trkpt>
      <trkpt lat="46.72602" lon="-1.96255">
        <ele>18.9</ele>
        <time>2024-12-26T09:32:50.046Z</time>
      </trkpt>
      <trkpt lat="46.72601" lon="-1.96253">
        <ele>18.9</ele>
        <time>2024-12-26T09:32:51.046Z</time>
      </trkpt>
      <trkpt lat="46.72601" lon="-1.96252">
        <ele>18.9</ele>
        <time>2024-12-26T09:32:52.045Z</time>
      </trkpt>
      <trkpt lat="46.726" lon="-1.9625">
        <ele>19</ele>
        <time>2024-12-26T09:32:53.045Z</time>
      </trkpt>
      <trkpt lat="46.72599" lon="-1.96249">
        <ele>18.9</ele>
        <time>2024-12-26T09:32:54.045Z</time>
      </trkpt>
      <trkpt lat="46.72598" lon="-1.96247">
        <ele>18.9</ele>
        <time>2024-12-26T09:32:55.045Z</time>
      </trkpt>
      <trkpt lat="46.72597" lon="-1.96245">
        <ele>18.8</ele>
        <time>2024-12-26T09:32:56.045Z</time>
      </trkpt>
      <trkpt lat="46.72597" lon="-1.96243">
        <ele>18.8</ele>
        <time>2024-12-26T09:32:57.045Z</time>
      </trkpt>
      <trkpt lat="46.72597" lon="-1.96242">
        <ele>18.7</ele>
        <time>2024-12-26T09:32:58.045Z</time>
      </trkpt>
      <trkpt lat="46.72596" lon="-1.9624">
        <ele>18.7</ele>
        <time>2024-12-26T09:32:59.046Z</time>
      </trkpt>
      <trkpt lat="46.72595" lon="-1.96238">
        <ele>18.7</ele>
        <time>2024-12-26T09:33:00.046Z</time>
      </trkpt>
      <trkpt lat="46.72595" lon="-1.96237">
        <ele>18.7</ele>
        <time>2024-12-26T09:33:01.045Z</time>
      </trkpt>
      <trkpt lat="46.72594" lon="-1.96235">
        <ele>18.7</ele>
        <time>2024-12-26T09:33:02.046Z</time>
      </trkpt>
      <trkpt lat="46.72592" lon="-1.96233">
        <ele>18.8</ele>
        <time>2024-12-26T09:33:03.046Z</time>
      </trkpt>
      <trkpt lat="46.72591" lon="-1.9623">
        <ele>18.9</ele>
        <time>2024-12-26T09:33:04.045Z</time>
      </trkpt>
      <trkpt lat="46.7259" lon="-1.9623">
        <ele>19</ele>
        <time>2024-12-26T09:33:05.046Z</time>
      </trkpt>
      <trkpt lat="46.72589" lon="-1.96228">
        <ele>19.2</ele>
        <time>2024-12-26T09:33:06.045Z</time>
      </trkpt>
      <trkpt lat="46.72588" lon="-1.96228">
        <ele>19.3</ele>
        <time>2024-12-26T09:33:07.046Z</time>
      </trkpt>
      <trkpt lat="46.72588" lon="-1.96227">
        <ele>19.3</ele>
        <time>2024-12-26T09:33:08.046Z</time>
      </trkpt>
      <trkpt lat="46.72588" lon="-1.96225">
        <ele>19.3</ele>
        <time>2024-12-26T09:33:09.045Z</time>
      </trkpt>
      <trkpt lat="46.72587" lon="-1.96223">
        <ele>19.4</ele>
        <time>2024-12-26T09:33:10.045Z</time>
      </trkpt>
      <trkpt lat="46.72587" lon="-1.96221">
        <ele>19.4</ele>
        <time>2024-12-26T09:33:11.045Z</time>
      </trkpt>
      <trkpt lat="46.72587" lon="-1.9622">
        <ele>19.4</ele>
        <time>2024-12-26T09:33:12.046Z</time>
      </trkpt>
      <trkpt lat="46.72586" lon="-1.96218">
        <ele>19.5</ele>
        <time>2024-12-26T09:33:13.045Z</time>
      </trkpt>
      <trkpt lat="46.72584" lon="-1.96215">
        <ele>19.7</ele>
        <time>2024-12-26T09:33:14.046Z</time>
      </trkpt>
      <trkpt lat="46.72582" lon="-1.96213">
        <ele>19.6</ele>
        <time>2024-12-26T09:33:15.046Z</time>
      </trkpt>
      <trkpt lat="46.72581" lon="-1.96212">
        <ele>19.5</ele>
        <time>2024-12-26T09:33:16.045Z</time>
      </trkpt>
      <trkpt lat="46.7258" lon="-1.96213">
        <ele>19.5</ele>
        <time>2024-12-26T09:33:17.046Z</time>
      </trkpt>
      <trkpt lat="46.72579" lon="-1.96213">
        <ele>19.5</ele>
        <time>2024-12-26T09:33:18.045Z</time>
      </trkpt>
      <trkpt lat="46.72578" lon="-1.96214">
        <ele>19.5</ele>
        <time>2024-12-26T09:33:19.046Z</time>
      </trkpt>
      <trkpt lat="46.72576" lon="-1.96215">
        <ele>19.4</ele>
        <time>2024-12-26T09:33:20.045Z</time>
      </trkpt>
      <trkpt lat="46.72575" lon="-1.96216">
        <ele>19.4</ele>
        <time>2024-12-26T09:33:21.046Z</time>
      </trkpt>
      <trkpt lat="46.72575" lon="-1.96217">
        <ele>19.4</ele>
        <time>2024-12-26T09:33:22.046Z</time>
      </trkpt>
      <trkpt lat="46.72575" lon="-1.96218">
        <ele>19.4</ele>
        <time>2024-12-26T09:33:23.045Z</time>
      </trkpt>
      <trkpt lat="46.72574" lon="-1.96219">
        <ele>19.3</ele>
        <time>2024-12-26T09:33:24.045Z</time>
      </trkpt>
      <trkpt lat="46.72573" lon="-1.9622">
        <ele>19.3</ele>
        <time>2024-12-26T09:33:25.045Z</time>
      </trkpt>
      <trkpt lat="46.72573" lon="-1.96221">
        <ele>19.2</ele>
        <time>2024-12-26T09:33:26.046Z</time>
      </trkpt>
      <trkpt lat="46.72572" lon="-1.96223">
        <ele>19.2</ele>
        <time>2024-12-26T09:33:27.045Z</time>
      </trkpt>
      <trkpt lat="46.72571" lon="-1.96224">
        <ele>19.1</ele>
        <time>2024-12-26T09:33:28.045Z</time>
      </trkpt>
      <trkpt lat="46.72569" lon="-1.96225">
        <ele>18.9</ele>
        <time>2024-12-26T09:33:29.045Z</time>
      </trkpt>
      <trkpt lat="46.72567" lon="-1.96227">
        <ele>18.8</ele>
        <time>2024-12-26T09:33:30.045Z</time>
      </trkpt>
      <trkpt lat="46.72566" lon="-1.96229">
        <ele>18.6</ele>
        <time>2024-12-26T09:33:31.045Z</time>
      </trkpt>
      <trkpt lat="46.72564" lon="-1.96231">
        <ele>18.5</ele>
        <time>2024-12-26T09:33:32.046Z</time>
      </trkpt>
      <trkpt lat="46.72562" lon="-1.96231">
        <ele>18.4</ele>
        <time>2024-12-26T09:33:33.045Z</time>
      </trkpt>
      <trkpt lat="46.72561" lon="-1.96232">
        <ele>18.3</ele>
        <time>2024-12-26T09:33:34.045Z</time>
      </trkpt>
      <trkpt lat="46.72559" lon="-1.96233">
        <ele>18.2</ele>
        <time>2024-12-26T09:33:35.046Z</time>
      </trkpt>
      <trkpt lat="46.72558" lon="-1.96233">
        <ele>18.1</ele>
        <time>2024-12-26T09:33:36.046Z</time>
      </trkpt>
      <trkpt lat="46.72557" lon="-1.96232">
        <ele>18.1</ele>
        <time>2024-12-26T09:33:37.045Z</time>
      </trkpt>
      <trkpt lat="46.72556" lon="-1.96231">
        <ele>18</ele>
        <time>2024-12-26T09:33:38.046Z</time>
      </trkpt>
      <trkpt lat="46.72555" lon="-1.96231">
        <ele>18</ele>
        <time>2024-12-26T09:33:39.046Z</time>
      </trkpt>
      <trkpt lat="46.72555" lon="-1.9623">
        <ele>18</ele>
        <time>2024-12-26T09:33:40.046Z</time>
      </trkpt>
      <trkpt lat="46.72555" lon="-1.9623">
        <ele>18</ele>
        <time>2024-12-26T09:33:41.045Z</time>
      </trkpt>
      <trkpt lat="46.72556" lon="-1.96231">
        <ele>18</ele>
        <time>2024-12-26T09:33:42.045Z</time>
      </trkpt>
      <trkpt lat="46.72557" lon="-1.96231">
        <ele>18.1</ele>
        <time>2024-12-26T09:33:43.045Z</time>
      </trkpt>
      <trkpt lat="46.72557" lon="-1.96231">
        <ele>18.1</ele>
        <time>2024-12-26T09:33:44.046Z</time>
      </trkpt>
      <trkpt lat="46.72555" lon="-1.9623">
        <ele>18</ele>
        <time>2024-12-26T09:33:45.046Z</time>
      </trkpt>
      <trkpt lat="46.72554" lon="-1.96229">
        <ele>18</ele>
        <time>2024-12-26T09:33:46.045Z</time>
      </trkpt>
      <trkpt lat="46.72553" lon="-1.96228">
        <ele>18</ele>
        <time>2024-12-26T09:33:47.046Z</time>
      </trkpt>
      <trkpt lat="46.72552" lon="-1.96226">
        <ele>18.1</ele>
        <time>2024-12-26T09:33:48.046Z</time>
      </trkpt>
      <trkpt lat="46.72551" lon="-1.96225">
        <ele>18.1</ele>
        <time>2024-12-26T09:33:49.046Z</time>
      </trkpt>
      <trkpt lat="46.72549" lon="-1.96222">
        <ele>18.2</ele>
        <time>2024-12-26T09:33:50.046Z</time>
      </trkpt>
      <trkpt lat="46.72548" lon="-1.9622">
        <ele>18.4</ele>
        <time>2024-12-26T09:33:51.045Z</time>
      </trkpt>
      <trkpt lat="46.72547" lon="-1.9622">
        <ele>18.5</ele>
        <time>2024-12-26T09:33:52.045Z</time>
      </trkpt>
      <trkpt lat="46.72545" lon="-1.96219">
        <ele>18.6</ele>
        <time>2024-12-26T09:33:53.045Z</time>
      </trkpt>
      <trkpt lat="46.72544" lon="-1.96218">
        <ele>18.8</ele>
        <time>2024-12-26T09:33:54.045Z</time>
      </trkpt>
      <trkpt lat="46.72542" lon="-1.96217">
        <ele>18.9</ele>
        <time>2024-12-26T09:33:55.045Z</time>
      </trkpt>
      <trkpt lat="46.72541" lon="-1.96216">
        <ele>19</ele>
        <time>2024-12-26T09:33:56.045Z</time>
      </trkpt>
      <trkpt lat="46.7254" lon="-1.96216">
        <ele>19</ele>
        <time>2024-12-26T09:33:57.046Z</time>
      </trkpt>
      <trkpt lat="46.7254" lon="-1.96215">
        <ele>19.1</ele>
        <time>2024-12-26T09:33:58.045Z</time>
      </trkpt>
      <trkpt lat="46.7254" lon="-1.96215">
        <ele>19.1</ele>
        <time>2024-12-26T09:33:59.045Z</time>
      </trkpt>
      <trkpt lat="46.72539" lon="-1.96215">
        <ele>19.2</ele>
        <time>2024-12-26T09:34:00.046Z</time>
      </trkpt>
      <trkpt lat="46.72537" lon="-1.96215">
        <ele>19.2</ele>
        <time>2024-12-26T09:34:01.045Z</time>
      </trkpt>
      <trkpt lat="46.72536" lon="-1.96214">
        <ele>19.3</ele>
        <time>2024-12-26T09:34:02.045Z</time>
      </trkpt>
      <trkpt lat="46.72535" lon="-1.96213">
        <ele>19.4</ele>
        <time>2024-12-26T09:34:03.045Z</time>
      </trkpt>
      <trkpt lat="46.72533" lon="-1.96213">
        <ele>19.5</ele>
        <time>2024-12-26T09:34:04.045Z</time>
      </trkpt>
      <trkpt lat="46.72532" lon="-1.96212">
        <ele>19.6</ele>
        <time>2024-12-26T09:34:05.045Z</time>
      </trkpt>
      <trkpt lat="46.72531" lon="-1.96212">
        <ele>19.7</ele>
        <time>2024-12-26T09:34:06.045Z</time>
      </trkpt>
      <trkpt lat="46.7253" lon="-1.96212">
        <ele>19.7</ele>
        <time>2024-12-26T09:34:07.045Z</time>
      </trkpt>
      <trkpt lat="46.72529" lon="-1.96211">
        <ele>19.8</ele>
        <time>2024-12-26T09:34:08.045Z</time>
      </trkpt>
      <trkpt lat="46.72527" lon="-1.96211">
        <ele>19.9</ele>
        <time>2024-12-26T09:34:09.045Z</time>
      </trkpt>
      <trkpt lat="46.72526" lon="-1.9621">
        <ele>20.1</ele>
        <time>2024-12-26T09:34:10.045Z</time>
      </trkpt>
      <trkpt lat="46.72524" lon="-1.96208">
        <ele>20.4</ele>
        <time>2024-12-26T09:34:11.046Z</time>
      </trkpt>
      <trkpt lat="46.72522" lon="-1.96207">
        <ele>20.7</ele>
        <time>2024-12-26T09:34:12.046Z</time>
      </trkpt>
      <trkpt lat="46.7252" lon="-1.96206">
        <ele>20.9</ele>
        <time>2024-12-26T09:34:13.046Z</time>
      </trkpt>
      <trkpt lat="46.72518" lon="-1.96204">
        <ele>21.3</ele>
        <time>2024-12-26T09:34:14.046Z</time>
      </trkpt>
      <trkpt lat="46.72516" lon="-1.96202">
        <ele>21.8</ele>
        <time>2024-12-26T09:34:15.046Z</time>
      </trkpt>
      <trkpt lat="46.72515" lon="-1.962">
        <ele>22.2</ele>
        <time>2024-12-26T09:34:16.046Z</time>
      </trkpt>
      <trkpt lat="46.72513" lon="-1.962">
        <ele>22.4</ele>
        <time>2024-12-26T09:34:17.045Z</time>
      </trkpt>
      <trkpt lat="46.72513" lon="-1.962">
        <ele>22.4</ele>
        <time>2024-12-26T09:34:18.045Z</time>
      </trkpt>
      <trkpt lat="46.72513" lon="-1.962">
        <ele>22.5</ele>
        <time>2024-12-26T09:34:19.045Z</time>
      </trkpt>
      <trkpt lat="46.72512" lon="-1.96198">
        <ele>22.9</ele>
        <time>2024-12-26T09:34:20.046Z</time>
      </trkpt>
      <trkpt lat="46.72511" lon="-1.96198">
        <ele>23.1</ele>
        <time>2024-12-26T09:34:21.045Z</time>
      </trkpt>
      <trkpt lat="46.7251" lon="-1.96197">
        <ele>23.1</ele>
        <time>2024-12-26T09:34:22.045Z</time>
      </trkpt>
      <trkpt lat="46.7251" lon="-1.96197">
        <ele>23.2</ele>
        <time>2024-12-26T09:34:23.045Z</time>
      </trkpt>
      <trkpt lat="46.7251" lon="-1.96197">
        <ele>23.3</ele>
        <time>2024-12-26T09:34:24.046Z</time>
      </trkpt>
      <trkpt lat="46.72509" lon="-1.96196">
        <ele>23.5</ele>
        <time>2024-12-26T09:34:25.046Z</time>
      </trkpt>
      <trkpt lat="46.72508" lon="-1.96196">
        <ele>23.6</ele>
        <time>2024-12-26T09:34:26.045Z</time>
      </trkpt>
      <trkpt lat="46.72507" lon="-1.96194">
        <ele>23.9</ele>
        <time>2024-12-26T09:34:27.046Z</time>
      </trkpt>
      <trkpt lat="46.72506" lon="-1.96192">
        <ele>23.6</ele>
        <time>2024-12-26T09:34:28.046Z</time>
      </trkpt>
      <trkpt lat="46.72505" lon="-1.9619">
        <ele>23.4</ele>
        <time>2024-12-26T09:34:29.046Z</time>
      </trkpt>
      <trkpt lat="46.72505" lon="-1.9619">
        <ele>23.4</ele>
        <time>2024-12-26T09:34:30.045Z</time>
      </trkpt>
      <trkpt lat="46.72504" lon="-1.9619">
        <ele>23.6</ele>
        <time>2024-12-26T09:34:31.046Z</time>
      </trkpt>
      <trkpt lat="46.72503" lon="-1.9619">
        <ele>23.7</ele>
        <time>2024-12-26T09:34:32.046Z</time>
      </trkpt>
      <trkpt lat="46.72501" lon="-1.96189">
        <ele>23.9</ele>
        <time>2024-12-26T09:34:33.046Z</time>
      </trkpt>
      <trkpt lat="46.72499" lon="-1.96188">
        <ele>23.7</ele>
        <time>2024-12-26T09:34:34.046Z</time>
      </trkpt>
      <trkpt lat="46.72498" lon="-1.96186">
        <ele>23.2</ele>
        <time>2024-12-26T09:34:35.045Z</time>
      </trkpt>
      <trkpt lat="46.72496" lon="-1.96185">
        <ele>22.8</ele>
        <time>2024-12-26T09:34:36.045Z</time>
      </trkpt>
      <trkpt lat="46.72495" lon="-1.96184">
        <ele>22.4</ele>
        <time>2024-12-26T09:34:37.045Z</time>
      </trkpt>
      <trkpt lat="46.72494" lon="-1.96183">
        <ele>22.2</ele>
        <time>2024-12-26T09:34:38.046Z</time>
      </trkpt>
      <trkpt lat="46.72493" lon="-1.96184">
        <ele>22.1</ele>
        <time>2024-12-26T09:34:39.046Z</time>
      </trkpt>
      <trkpt lat="46.72491" lon="-1.96185">
        <ele>22.2</ele>
        <time>2024-12-26T09:34:40.046Z</time>
      </trkpt>
      <trkpt lat="46.72491" lon="-1.96187">
        <ele>22.4</ele>
        <time>2024-12-26T09:34:41.046Z</time>
      </trkpt>
      <trkpt lat="46.7249" lon="-1.96189">
        <ele>22.6</ele>
        <time>2024-12-26T09:34:42.045Z</time>
      </trkpt>
      <trkpt lat="46.7249" lon="-1.9619">
        <ele>22.7</ele>
        <time>2024-12-26T09:34:43.045Z</time>
      </trkpt>
      <trkpt lat="46.72489" lon="-1.9619">
        <ele>22.7</ele>
        <time>2024-12-26T09:34:44.046Z</time>
      </trkpt>
      <trkpt lat="46.72489" lon="-1.9619">
        <ele>22.6</ele>
        <time>2024-12-26T09:34:45.046Z</time>
      </trkpt>
      <trkpt lat="46.72488" lon="-1.96191">
        <ele>22.7</ele>
        <time>2024-12-26T09:34:46.046Z</time>
      </trkpt>
      <trkpt lat="46.72487" lon="-1.96192">
        <ele>22.7</ele>
        <time>2024-12-26T09:34:47.046Z</time>
      </trkpt>
      <trkpt lat="46.72486" lon="-1.96193">
        <ele>22.7</ele>
        <time>2024-12-26T09:34:48.045Z</time>
      </trkpt>
      <trkpt lat="46.72485" lon="-1.96195">
        <ele>22.8</ele>
        <time>2024-12-26T09:34:49.046Z</time>
      </trkpt>
      <trkpt lat="46.72484" lon="-1.96196">
        <ele>22.6</ele>
        <time>2024-12-26T09:34:50.045Z</time>
      </trkpt>
      <trkpt lat="46.72483" lon="-1.96196">
        <ele>22.4</ele>
        <time>2024-12-26T09:34:51.046Z</time>
      </trkpt>
      <trkpt lat="46.72482" lon="-1.96198">
        <ele>22.2</ele>
        <time>2024-12-26T09:34:52.046Z</time>
      </trkpt>
      <trkpt lat="46.72481" lon="-1.96199">
        <ele>22</ele>
        <time>2024-12-26T09:34:53.045Z</time>
      </trkpt>
      <trkpt lat="46.72481" lon="-1.96201">
        <ele>21.8</ele>
        <time>2024-12-26T09:34:54.046Z</time>
      </trkpt>
      <trkpt lat="46.7248" lon="-1.96202">
        <ele>21.8</ele>
        <time>2024-12-26T09:34:55.045Z</time>
      </trkpt>
      <trkpt lat="46.72479" lon="-1.96201">
        <ele>21.7</ele>
        <time>2024-12-26T09:34:56.046Z</time>
      </trkpt>
      <trkpt lat="46.72477" lon="-1.962">
        <ele>21.5</ele>
        <time>2024-12-26T09:34:57.046Z</time>
      </trkpt>
      <trkpt lat="46.72475" lon="-1.962">
        <ele>21.3</ele>
        <time>2024-12-26T09:34:58.046Z</time>
      </trkpt>
      <trkpt lat="46.72473" lon="-1.96201">
        <ele>21.1</ele>
        <time>2024-12-26T09:34:59.046Z</time>
      </trkpt>
      <trkpt lat="46.72471" lon="-1.962">
        <ele>21</ele>
        <time>2024-12-26T09:35:00.045Z</time>
      </trkpt>
      <trkpt lat="46.7247" lon="-1.962">
        <ele>20.9</ele>
        <time>2024-12-26T09:35:01.046Z</time>
      </trkpt>
      <trkpt lat="46.72468" lon="-1.962">
        <ele>20.9</ele>
        <time>2024-12-26T09:35:02.046Z</time>
      </trkpt>
      <trkpt lat="46.72467" lon="-1.96201">
        <ele>20.8</ele>
        <time>2024-12-26T09:35:03.045Z</time>
      </trkpt>
      <trkpt lat="46.72465" lon="-1.96203">
        <ele>20.8</ele>
        <time>2024-12-26T09:35:04.046Z</time>
      </trkpt>
      <trkpt lat="46.72464" lon="-1.96204">
        <ele>20.7</ele>
        <time>2024-12-26T09:35:05.046Z</time>
      </trkpt>
      <trkpt lat="46.72462" lon="-1.96205">
        <ele>20.6</ele>
        <time>2024-12-26T09:35:06.046Z</time>
      </trkpt>
      <trkpt lat="46.72461" lon="-1.96205">
        <ele>20.6</ele>
        <time>2024-12-26T09:35:07.045Z</time>
      </trkpt>
      <trkpt lat="46.72459" lon="-1.96205">
        <ele>20.5</ele>
        <time>2024-12-26T09:35:08.045Z</time>
      </trkpt>
      <trkpt lat="46.72457" lon="-1.96205">
        <ele>20.5</ele>
        <time>2024-12-26T09:35:09.045Z</time>
      </trkpt>
      <trkpt lat="46.72455" lon="-1.96205">
        <ele>20.4</ele>
        <time>2024-12-26T09:35:10.045Z</time>
      </trkpt>
      <trkpt lat="46.72453" lon="-1.96205">
        <ele>20.3</ele>
        <time>2024-12-26T09:35:11.046Z</time>
      </trkpt>
      <trkpt lat="46.72452" lon="-1.96206">
        <ele>20.3</ele>
        <time>2024-12-26T09:35:12.046Z</time>
      </trkpt>
      <trkpt lat="46.72451" lon="-1.96207">
        <ele>20.2</ele>
        <time>2024-12-26T09:35:13.046Z</time>
      </trkpt>
      <trkpt lat="46.7245" lon="-1.96207">
        <ele>20.2</ele>
        <time>2024-12-26T09:35:14.045Z</time>
      </trkpt>
      <trkpt lat="46.7245" lon="-1.96209">
        <ele>20.2</ele>
        <time>2024-12-26T09:35:15.045Z</time>
      </trkpt>
      <trkpt lat="46.72449" lon="-1.96212">
        <ele>20.2</ele>
        <time>2024-12-26T09:35:16.046Z</time>
      </trkpt>
      <trkpt lat="46.72449" lon="-1.96214">
        <ele>20.2</ele>
        <time>2024-12-26T09:35:17.045Z</time>
      </trkpt>
      <trkpt lat="46.72448" lon="-1.96215">
        <ele>20.1</ele>
        <time>2024-12-26T09:35:18.045Z</time>
      </trkpt>
      <trkpt lat="46.72448" lon="-1.96216">
        <ele>20.1</ele>
        <time>2024-12-26T09:35:19.046Z</time>
      </trkpt>
      <trkpt lat="46.72447" lon="-1.96216">
        <ele>20.1</ele>
        <time>2024-12-26T09:35:20.045Z</time>
      </trkpt>
      <trkpt lat="46.72446" lon="-1.96217">
        <ele>20</ele>
        <time>2024-12-26T09:35:21.046Z</time>
      </trkpt>
      <trkpt lat="46.72445" lon="-1.96219">
        <ele>20</ele>
        <time>2024-12-26T09:35:22.046Z</time>
      </trkpt>
      <trkpt lat="46.72444" lon="-1.9622">
        <ele>20</ele>
        <time>2024-12-26T09:35:23.046Z</time>
      </trkpt>
      <trkpt lat="46.72444" lon="-1.9622">
        <ele>20</ele>
        <time>2024-12-26T09:35:24.045Z</time>
      </trkpt>
      <trkpt lat="46.72443" lon="-1.96221">
        <ele>19.9</ele>
        <time>2024-12-26T09:35:25.045Z</time>
      </trkpt>
      <trkpt lat="46.72442" lon="-1.96222">
        <ele>19.9</ele>
        <time>2024-12-26T09:35:26.046Z</time>
      </trkpt>
      <trkpt lat="46.72442" lon="-1.96223">
        <ele>19.9</ele>
        <time>2024-12-26T09:35:27.045Z</time>
      </trkpt>
      <trkpt lat="46.72441" lon="-1.96223">
        <ele>19.8</ele>
        <time>2024-12-26T09:35:28.045Z</time>
      </trkpt>
      <trkpt lat="46.7244" lon="-1.96224">
        <ele>19.8</ele>
        <time>2024-12-26T09:35:29.046Z</time>
      </trkpt>
      <trkpt lat="46.72439" lon="-1.96224">
        <ele>19.7</ele>
        <time>2024-12-26T09:35:30.045Z</time>
      </trkpt>
      <trkpt lat="46.72438" lon="-1.96223">
        <ele>19.7</ele>
        <time>2024-12-26T09:35:31.046Z</time>
      </trkpt>
      <trkpt lat="46.72438" lon="-1.96223">
        <ele>19.7</ele>
        <time>2024-12-26T09:35:32.046Z</time>
      </trkpt>
      <trkpt lat="46.72438" lon="-1.96222">
        <ele>19.8</ele>
        <time>2024-12-26T09:35:33.045Z</time>
      </trkpt>
      <trkpt lat="46.72438" lon="-1.96223">
        <ele>19.7</ele>
        <time>2024-12-26T09:35:34.045Z</time>
      </trkpt>
      <trkpt lat="46.72437" lon="-1.96224">
        <ele>19.7</ele>
        <time>2024-12-26T09:35:35.045Z</time>
      </trkpt>
      <trkpt lat="46.72438" lon="-1.96226">
        <ele>19.5</ele>
        <time>2024-12-26T09:35:36.046Z</time>
      </trkpt>
      <trkpt lat="46.72438" lon="-1.96227">
        <ele>19.4</ele>
        <time>2024-12-26T09:35:37.046Z</time>
      </trkpt>
      <trkpt lat="46.72438" lon="-1.96227">
        <ele>19.4</ele>
        <time>2024-12-26T09:35:38.046Z</time>
      </trkpt>
      <trkpt lat="46.72438" lon="-1.96227">
        <ele>19.4</ele>
        <time>2024-12-26T09:35:39.045Z</time>
      </trkpt>
      <trkpt lat="46.7244" lon="-1.96227">
        <ele>19.6</ele>
        <time>2024-12-26T09:35:40.046Z</time>
      </trkpt>
      <trkpt lat="46.72442" lon="-1.96226">
        <ele>19.7</ele>
        <time>2024-12-26T09:35:41.045Z</time>
      </trkpt>
      <trkpt lat="46.72442" lon="-1.96226">
        <ele>19.7</ele>
        <time>2024-12-26T09:35:42.046Z</time>
      </trkpt>
      <trkpt lat="46.72442" lon="-1.96224">
        <ele>19.8</ele>
        <time>2024-12-26T09:35:43.046Z</time>
      </trkpt>
      <trkpt lat="46.72442" lon="-1.96223">
        <ele>19.9</ele>
        <time>2024-12-26T09:35:44.045Z</time>
      </trkpt>
      <trkpt lat="46.72441" lon="-1.96221">
        <ele>19.9</ele>
        <time>2024-12-26T09:35:45.045Z</time>
      </trkpt>
      <trkpt lat="46.72442" lon="-1.96219">
        <ele>19.9</ele>
        <time>2024-12-26T09:35:46.045Z</time>
      </trkpt>
      <trkpt lat="46.72443" lon="-1.96218">
        <ele>19.9</ele>
        <time>2024-12-26T09:35:47.046Z</time>
      </trkpt>
      <trkpt lat="46.72443" lon="-1.96216">
        <ele>19.9</ele>
        <time>2024-12-26T09:35:48.045Z</time>
      </trkpt>
      <trkpt lat="46.72444" lon="-1.96215">
        <ele>19.9</ele>
        <time>2024-12-26T09:35:49.046Z</time>
      </trkpt>
      <trkpt lat="46.72444" lon="-1.96213">
        <ele>19.9</ele>
        <time>2024-12-26T09:35:50.045Z</time>
      </trkpt>
      <trkpt lat="46.72443" lon="-1.96211">
        <ele>19.8</ele>
        <time>2024-12-26T09:35:51.045Z</time>
      </trkpt>
      <trkpt lat="46.72442" lon="-1.96208">
        <ele>19.8</ele>
        <time>2024-12-26T09:35:52.045Z</time>
      </trkpt>
      <trkpt lat="46.72441" lon="-1.96207">
        <ele>19.7</ele>
        <time>2024-12-26T09:35:53.046Z</time>
      </trkpt>
      <trkpt lat="46.7244" lon="-1.96205">
        <ele>19.6</ele>
        <time>2024-12-26T09:35:54.046Z</time>
      </trkpt>
      <trkpt lat="46.7244" lon="-1.96203">
        <ele>19.5</ele>
        <time>2024-12-26T09:35:55.046Z</time>
      </trkpt>
      <trkpt lat="46.7244" lon="-1.96202">
        <ele>19.5</ele>
        <time>2024-12-26T09:35:56.045Z</time>
      </trkpt>
      <trkpt lat="46.7244" lon="-1.962">
        <ele>19.5</ele>
        <time>2024-12-26T09:35:57.046Z</time>
      </trkpt>
      <trkpt lat="46.7244" lon="-1.96199">
        <ele>19.5</ele>
        <time>2024-12-26T09:35:58.045Z</time>
      </trkpt>
      <trkpt lat="46.72441" lon="-1.96197">
        <ele>19.5</ele>
        <time>2024-12-26T09:35:59.045Z</time>
      </trkpt>
      <trkpt lat="46.72441" lon="-1.96195">
        <ele>19.4</ele>
        <time>2024-12-26T09:36:00.046Z</time>
      </trkpt>
      <trkpt lat="46.7244" lon="-1.96193">
        <ele>19.3</ele>
        <time>2024-12-26T09:36:01.046Z</time>
      </trkpt>
      <trkpt lat="46.7244" lon="-1.96191">
        <ele>19.2</ele>
        <time>2024-12-26T09:36:02.046Z</time>
      </trkpt>
      <trkpt lat="46.7244" lon="-1.9619">
        <ele>19.1</ele>
        <time>2024-12-26T09:36:03.045Z</time>
      </trkpt>
      <trkpt lat="46.72439" lon="-1.96188">
        <ele>18.9</ele>
        <time>2024-12-26T09:36:04.046Z</time>
      </trkpt>
      <trkpt lat="46.72439" lon="-1.96186">
        <ele>18.7</ele>
        <time>2024-12-26T09:36:05.045Z</time>
      </trkpt>
      <trkpt lat="46.72438" lon="-1.96185">
        <ele>18.5</ele>
        <time>2024-12-26T09:36:06.046Z</time>
      </trkpt>
      <trkpt lat="46.72437" lon="-1.96183">
        <ele>18.3</ele>
        <time>2024-12-26T09:36:07.045Z</time>
      </trkpt>
      <trkpt lat="46.72437" lon="-1.96182">
        <ele>18.2</ele>
        <time>2024-12-26T09:36:08.046Z</time>
      </trkpt>
      <trkpt lat="46.72436" lon="-1.96181">
        <ele>18.2</ele>
        <time>2024-12-26T09:36:09.046Z</time>
      </trkpt>
      <trkpt lat="46.72436" lon="-1.96181">
        <ele>18.1</ele>
        <time>2024-12-26T09:36:10.045Z</time>
      </trkpt>
      <trkpt lat="46.72436" lon="-1.9618">
        <ele>18</ele>
        <time>2024-12-26T09:36:11.046Z</time>
      </trkpt>
      <trkpt lat="46.72436" lon="-1.96179">
        <ele>18</ele>
        <time>2024-12-26T09:36:12.045Z</time>
      </trkpt>
      <trkpt lat="46.72436" lon="-1.96177">
        <ele>17.9</ele>
        <time>2024-12-26T09:36:13.045Z</time>
      </trkpt>
      <trkpt lat="46.72437" lon="-1.96175">
        <ele>17.9</ele>
        <time>2024-12-26T09:36:14.045Z</time>
      </trkpt>
      <trkpt lat="46.72436" lon="-1.96173">
        <ele>17.7</ele>
        <time>2024-12-26T09:36:15.045Z</time>
      </trkpt>
      <trkpt lat="46.72436" lon="-1.96172">
        <ele>17.6</ele>
        <time>2024-12-26T09:36:16.045Z</time>
      </trkpt>
      <trkpt lat="46.72437" lon="-1.9617">
        <ele>17.6</ele>
        <time>2024-12-26T09:36:17.046Z</time>
      </trkpt>
      <trkpt lat="46.72437" lon="-1.96168">
        <ele>17.6</ele>
        <time>2024-12-26T09:36:18.046Z</time>
      </trkpt>
      <trkpt lat="46.72438" lon="-1.96167">
        <ele>17.5</ele>
        <time>2024-12-26T09:36:19.045Z</time>
      </trkpt>
      <trkpt lat="46.72438" lon="-1.96165">
        <ele>17.4</ele>
        <time>2024-12-26T09:36:20.045Z</time>
      </trkpt>
      <trkpt lat="46.72439" lon="-1.96163">
        <ele>17.3</ele>
        <time>2024-12-26T09:36:21.046Z</time>
      </trkpt>
      <trkpt lat="46.72439" lon="-1.9616">
        <ele>17</ele>
        <time>2024-12-26T09:36:22.045Z</time>
      </trkpt>
      <trkpt lat="46.7244" lon="-1.96159">
        <ele>17</ele>
        <time>2024-12-26T09:36:23.045Z</time>
      </trkpt>
      <trkpt lat="46.7244" lon="-1.96158">
        <ele>17</ele>
        <time>2024-12-26T09:36:24.046Z</time>
      </trkpt>
      <trkpt lat="46.7244" lon="-1.96157">
        <ele>16.9</ele>
        <time>2024-12-26T09:36:25.045Z</time>
      </trkpt>
      <trkpt lat="46.72441" lon="-1.96156">
        <ele>16.8</ele>
        <time>2024-12-26T09:36:26.045Z</time>
      </trkpt>
      <trkpt lat="46.72441" lon="-1.96155">
        <ele>16.7</ele>
        <time>2024-12-26T09:36:27.046Z</time>
      </trkpt>
      <trkpt lat="46.72442" lon="-1.96153">
        <ele>16.5</ele>
        <time>2024-12-26T09:36:28.045Z</time>
      </trkpt>
      <trkpt lat="46.72441" lon="-1.96152">
        <ele>16.4</ele>
        <time>2024-12-26T09:36:29.046Z</time>
      </trkpt>
      <trkpt lat="46.72441" lon="-1.96152">
        <ele>16.4</ele>
        <time>2024-12-26T09:36:30.045Z</time>
      </trkpt>
      <trkpt lat="46.72441" lon="-1.96151">
        <ele>16.3</ele>
        <time>2024-12-26T09:36:31.045Z</time>
      </trkpt>
      <trkpt lat="46.72442" lon="-1.9615">
        <ele>16.2</ele>
        <time>2024-12-26T09:36:32.046Z</time>
      </trkpt>
      <trkpt lat="46.72442" lon="-1.9615">
        <ele>16.2</ele>
        <time>2024-12-26T09:36:33.045Z</time>
      </trkpt>
      <trkpt lat="46.72442" lon="-1.96149">
        <ele>16.2</ele>
        <time>2024-12-26T09:36:34.046Z</time>
      </trkpt>
      <trkpt lat="46.72442" lon="-1.96149">
        <ele>16.1</ele>
        <time>2024-12-26T09:36:35.046Z</time>
      </trkpt>
      <trkpt lat="46.72442" lon="-1.96149">
        <ele>16.1</ele>
        <time>2024-12-26T09:36:36.046Z</time>
      </trkpt>
      <trkpt lat="46.72442" lon="-1.96148">
        <ele>16</ele>
        <time>2024-12-26T09:36:37.046Z</time>
      </trkpt>
      <trkpt lat="46.72443" lon="-1.96148">
        <ele>16</ele>
        <time>2024-12-26T09:36:38.046Z</time>
      </trkpt>
      <trkpt lat="46.72443" lon="-1.96146">
        <ele>15.8</ele>
        <time>2024-12-26T09:36:39.045Z</time>
      </trkpt>
      <trkpt lat="46.72442" lon="-1.96145">
        <ele>15.7</ele>
        <time>2024-12-26T09:36:40.045Z</time>
      </trkpt>
      <trkpt lat="46.72443" lon="-1.96145">
        <ele>15.7</ele>
        <time>2024-12-26T09:36:41.045Z</time>
      </trkpt>
      <trkpt lat="46.72443" lon="-1.96145">
        <ele>15.7</ele>
        <time>2024-12-26T09:36:42.045Z</time>
      </trkpt>
      <trkpt lat="46.72443" lon="-1.96145">
        <ele>15.7</ele>
        <time>2024-12-26T09:36:43.045Z</time>
      </trkpt>
      <trkpt lat="46.72443" lon="-1.96145">
        <ele>15.7</ele>
        <time>2024-12-26T09:36:44.045Z</time>
      </trkpt>
      <trkpt lat="46.72442" lon="-1.96144">
        <ele>15.7</ele>
        <time>2024-12-26T09:36:45.046Z</time>
      </trkpt>
      <trkpt lat="46.72442" lon="-1.96144">
        <ele>15.7</ele>
        <time>2024-12-26T09:36:46.046Z</time>
      </trkpt>
      <trkpt lat="46.72442" lon="-1.96144">
        <ele>15.7</ele>
        <time>2024-12-26T09:36:47.046Z</time>
      </trkpt>
      <trkpt lat="46.72443" lon="-1.96144">
        <ele>15.6</ele>
        <time>2024-12-26T09:36:48.046Z</time>
      </trkpt>
      <trkpt lat="46.72445" lon="-1.96143">
        <ele>15.4</ele>
        <time>2024-12-26T09:36:49.046Z</time>
      </trkpt>
      <trkpt lat="46.72445" lon="-1.96141">
        <ele>15.3</ele>
        <time>2024-12-26T09:36:50.045Z</time>
      </trkpt>
      <trkpt lat="46.72447" lon="-1.9614">
        <ele>15.2</ele>
        <time>2024-12-26T09:36:51.046Z</time>
      </trkpt>
      <trkpt lat="46.72447" lon="-1.96138">
        <ele>15.1</ele>
        <time>2024-12-26T09:36:52.046Z</time>
      </trkpt>
      <trkpt lat="46.72448" lon="-1.96137">
        <ele>15</ele>
        <time>2024-12-26T09:36:53.046Z</time>
      </trkpt>
      <trkpt lat="46.72448" lon="-1.96135">
        <ele>14.9</ele>
        <time>2024-12-26T09:36:54.046Z</time>
      </trkpt>
      <trkpt lat="46.72448" lon="-1.96134">
        <ele>14.9</ele>
        <time>2024-12-26T09:36:55.046Z</time>
      </trkpt>
      <trkpt lat="46.72449" lon="-1.96132">
        <ele>14.8</ele>
        <time>2024-12-26T09:36:56.046Z</time>
      </trkpt>
      <trkpt lat="46.72449" lon="-1.9613">
        <ele>14.7</ele>
        <time>2024-12-26T09:36:57.045Z</time>
      </trkpt>
      <trkpt lat="46.7245" lon="-1.96128">
        <ele>14.6</ele>
        <time>2024-12-26T09:36:58.046Z</time>
      </trkpt>
      <trkpt lat="46.72452" lon="-1.96127">
        <ele>14.6</ele>
        <time>2024-12-26T09:36:59.045Z</time>
      </trkpt>
      <trkpt lat="46.72454" lon="-1.96126">
        <ele>14.6</ele>
        <time>2024-12-26T09:37:00.046Z</time>
      </trkpt>
      <trkpt lat="46.72455" lon="-1.96124">
        <ele>14.4</ele>
        <time>2024-12-26T09:37:01.046Z</time>
      </trkpt>
      <trkpt lat="46.72456" lon="-1.96122">
        <ele>14.3</ele>
        <time>2024-12-26T09:37:02.046Z</time>
      </trkpt>
      <trkpt lat="46.72456" lon="-1.96121">
        <ele>14.2</ele>
        <time>2024-12-26T09:37:03.046Z</time>
      </trkpt>
      <trkpt lat="46.72457" lon="-1.96119">
        <ele>14.1</ele>
        <time>2024-12-26T09:37:04.046Z</time>
      </trkpt>
      <trkpt lat="46.72457" lon="-1.96118">
        <ele>14</ele>
        <time>2024-12-26T09:37:05.046Z</time>
      </trkpt>
      <trkpt lat="46.72458" lon="-1.96117">
        <ele>13.9</ele>
        <time>2024-12-26T09:37:06.045Z</time>
      </trkpt>
      <trkpt lat="46.72458" lon="-1.96117">
        <ele>13.9</ele>
        <time>2024-12-26T09:37:07.045Z</time>
      </trkpt>
      <trkpt lat="46.72458" lon="-1.96117">
        <ele>13.9</ele>
        <time>2024-12-26T09:37:08.045Z</time>
      </trkpt>
      <trkpt lat="46.72459" lon="-1.96117">
        <ele>13.9</ele>
        <time>2024-12-26T09:37:09.045Z</time>
      </trkpt>
      <trkpt lat="46.72458" lon="-1.96116">
        <ele>13.8</ele>
        <time>2024-12-26T09:37:10.045Z</time>
      </trkpt>
      <trkpt lat="46.72457" lon="-1.96114">
        <ele>13.7</ele>
        <time>2024-12-26T09:37:11.046Z</time>
      </trkpt>
      <trkpt lat="46.72457" lon="-1.96112">
        <ele>13.6</ele>
        <time>2024-12-26T09:37:12.045Z</time>
      </trkpt>
      <trkpt lat="46.72458" lon="-1.96111">
        <ele>13.5</ele>
        <time>2024-12-26T09:37:13.045Z</time>
      </trkpt>
      <trkpt lat="46.72457" lon="-1.96109">
        <ele>13.3</ele>
        <time>2024-12-26T09:37:14.045Z</time>
      </trkpt>
      <trkpt lat="46.72457" lon="-1.96107">
        <ele>13.1</ele>
        <time>2024-12-26T09:37:15.045Z</time>
      </trkpt>
      <trkpt lat="46.72456" lon="-1.96106">
        <ele>12.9</ele>
        <time>2024-12-26T09:37:16.045Z</time>
      </trkpt>
      <trkpt lat="46.72455" lon="-1.96104">
        <ele>12.6</ele>
        <time>2024-12-26T09:37:17.045Z</time>
      </trkpt>
      <trkpt lat="46.72453" lon="-1.96102">
        <ele>12.5</ele>
        <time>2024-12-26T09:37:18.046Z</time>
      </trkpt>
      <trkpt lat="46.72452" lon="-1.96101">
        <ele>12.4</ele>
        <time>2024-12-26T09:37:19.045Z</time>
      </trkpt>
      <trkpt lat="46.72451" lon="-1.96101">
        <ele>12.3</ele>
        <time>2024-12-26T09:37:20.045Z</time>
      </trkpt>
      <trkpt lat="46.72451" lon="-1.961">
        <ele>12.3</ele>
        <time>2024-12-26T09:37:21.045Z</time>
      </trkpt>
      <trkpt lat="46.7245" lon="-1.961">
        <ele>12.2</ele>
        <time>2024-12-26T09:37:22.046Z</time>
      </trkpt>
      <trkpt lat="46.72448" lon="-1.961">
        <ele>12.3</ele>
        <time>2024-12-26T09:37:23.045Z</time>
      </trkpt>
      <trkpt lat="46.72446" lon="-1.96099">
        <ele>12.2</ele>
        <time>2024-12-26T09:37:24.046Z</time>
      </trkpt>
      <trkpt lat="46.72444" lon="-1.96097">
        <ele>12.1</ele>
        <time>2024-12-26T09:37:25.045Z</time>
      </trkpt>
      <trkpt lat="46.72443" lon="-1.96095">
        <ele>12</ele>
        <time>2024-12-26T09:37:26.045Z</time>
      </trkpt>
      <trkpt lat="46.72441" lon="-1.96094">
        <ele>12</ele>
        <time>2024-12-26T09:37:27.045Z</time>
      </trkpt>
      <trkpt lat="46.7244" lon="-1.96092">
        <ele>12</ele>
        <time>2024-12-26T09:37:28.045Z</time>
      </trkpt>
      <trkpt lat="46.72439" lon="-1.96091">
        <ele>12</ele>
        <time>2024-12-26T09:37:29.045Z</time>
      </trkpt>
      <trkpt lat="46.72438" lon="-1.96089">
        <ele>11.9</ele>
        <time>2024-12-26T09:37:30.045Z</time>
      </trkpt>
      <trkpt lat="46.72439" lon="-1.96088">
        <ele>11.6</ele>
        <time>2024-12-26T09:37:31.045Z</time>
      </trkpt>
      <trkpt lat="46.72439" lon="-1.96084">
        <ele>11.2</ele>
        <time>2024-12-26T09:37:32.045Z</time>
      </trkpt>
      <trkpt lat="46.72439" lon="-1.96082">
        <ele>10.9</ele>
        <time>2024-12-26T09:37:33.045Z</time>
      </trkpt>
      <trkpt lat="46.72439" lon="-1.9608">
        <ele>10.8</ele>
        <time>2024-12-26T09:37:34.045Z</time>
      </trkpt>
      <trkpt lat="46.72439" lon="-1.96078">
        <ele>10.7</ele>
        <time>2024-12-26T09:37:35.045Z</time>
      </trkpt>
      <trkpt lat="46.72439" lon="-1.96077">
        <ele>10.7</ele>
        <time>2024-12-26T09:37:36.045Z</time>
      </trkpt>
      <trkpt lat="46.72438" lon="-1.96075">
        <ele>10.8</ele>
        <time>2024-12-26T09:37:37.046Z</time>
      </trkpt>
      <trkpt lat="46.72436" lon="-1.96074">
        <ele>10.9</ele>
        <time>2024-12-26T09:37:38.046Z</time>
      </trkpt>
      <trkpt lat="46.72434" lon="-1.96071">
        <ele>11.1</ele>
        <time>2024-12-26T09:37:39.046Z</time>
      </trkpt>
      <trkpt lat="46.72432" lon="-1.96069">
        <ele>11.3</ele>
        <time>2024-12-26T09:37:40.046Z</time>
      </trkpt>
      <trkpt lat="46.72431" lon="-1.96068">
        <ele>11.3</ele>
        <time>2024-12-26T09:37:41.046Z</time>
      </trkpt>
      <trkpt lat="46.72431" lon="-1.96066">
        <ele>11.2</ele>
        <time>2024-12-26T09:37:42.046Z</time>
      </trkpt>
      <trkpt lat="46.7243" lon="-1.96065">
        <ele>11.2</ele>
        <time>2024-12-26T09:37:43.046Z</time>
      </trkpt>
      <trkpt lat="46.72429" lon="-1.96065">
        <ele>11.4</ele>
        <time>2024-12-26T09:37:44.045Z</time>
      </trkpt>
      <trkpt lat="46.72429" lon="-1.96066">
        <ele>11.5</ele>
        <time>2024-12-26T09:37:45.045Z</time>
      </trkpt>
      <trkpt lat="46.72429" lon="-1.96066">
        <ele>11.5</ele>
        <time>2024-12-26T09:37:46.045Z</time>
      </trkpt>
      <trkpt lat="46.72427" lon="-1.96067">
        <ele>11.7</ele>
        <time>2024-12-26T09:37:47.045Z</time>
      </trkpt>
      <trkpt lat="46.72425" lon="-1.96066">
        <ele>12</ele>
        <time>2024-12-26T09:37:48.045Z</time>
      </trkpt>
      <trkpt lat="46.72424" lon="-1.96065">
        <ele>12.1</ele>
        <time>2024-12-26T09:37:49.045Z</time>
      </trkpt>
      <trkpt lat="46.72423" lon="-1.96064">
        <ele>12.1</ele>
        <time>2024-12-26T09:37:50.046Z</time>
      </trkpt>
      <trkpt lat="46.72422" lon="-1.96062">
        <ele>12</ele>
        <time>2024-12-26T09:37:51.045Z</time>
      </trkpt>
      <trkpt lat="46.72422" lon="-1.9606">
        <ele>11.9</ele>
        <time>2024-12-26T09:37:52.045Z</time>
      </trkpt>
      <trkpt lat="46.7242" lon="-1.96057">
        <ele>11.8</ele>
        <time>2024-12-26T09:37:53.045Z</time>
      </trkpt>
      <trkpt lat="46.72418" lon="-1.96055">
        <ele>11.8</ele>
        <time>2024-12-26T09:37:54.045Z</time>
      </trkpt>
      <trkpt lat="46.72417" lon="-1.96054">
        <ele>11.9</ele>
        <time>2024-12-26T09:37:55.045Z</time>
      </trkpt>
      <trkpt lat="46.72416" lon="-1.96053">
        <ele>12.1</ele>
        <time>2024-12-26T09:37:56.046Z</time>
      </trkpt>
      <trkpt lat="46.72414" lon="-1.96052">
        <ele>12.2</ele>
        <time>2024-12-26T09:37:57.046Z</time>
      </trkpt>
      <trkpt lat="46.72413" lon="-1.9605">
        <ele>12.3</ele>
        <time>2024-12-26T09:37:58.046Z</time>
      </trkpt>
      <trkpt lat="46.72412" lon="-1.9605">
        <ele>12.5</ele>
        <time>2024-12-26T09:37:59.046Z</time>
      </trkpt>
      <trkpt lat="46.7241" lon="-1.9605">
        <ele>12.7</ele>
        <time>2024-12-26T09:38:00.046Z</time>
      </trkpt>
      <trkpt lat="46.72408" lon="-1.96049">
        <ele>13</ele>
        <time>2024-12-26T09:38:01.046Z</time>
      </trkpt>
      <trkpt lat="46.72407" lon="-1.96048">
        <ele>13.2</ele>
        <time>2024-12-26T09:38:02.045Z</time>
      </trkpt>
      <trkpt lat="46.72405" lon="-1.96047">
        <ele>13.3</ele>
        <time>2024-12-26T09:38:03.046Z</time>
      </trkpt>
      <trkpt lat="46.72406" lon="-1.96046">
        <ele>13.1</ele>
        <time>2024-12-26T09:38:04.045Z</time>
      </trkpt>
      <trkpt lat="46.72407" lon="-1.96041">
        <ele>12.9</ele>
        <time>2024-12-26T09:38:05.045Z</time>
      </trkpt>
      <trkpt lat="46.72407" lon="-1.9604">
        <ele>12.8</ele>
        <time>2024-12-26T09:38:06.045Z</time>
      </trkpt>
      <trkpt lat="46.72407" lon="-1.9604">
        <ele>12.8</ele>
        <time>2024-12-26T09:38:07.046Z</time>
      </trkpt>
      <trkpt lat="46.72408" lon="-1.96039">
        <ele>12.7</ele>
        <time>2024-12-26T09:38:08.045Z</time>
      </trkpt>
      <trkpt lat="46.72406" lon="-1.96039">
        <ele>13</ele>
        <time>2024-12-26T09:38:09.045Z</time>
      </trkpt>
      <trkpt lat="46.72403" lon="-1.96039">
        <ele>13.4</ele>
        <time>2024-12-26T09:38:10.046Z</time>
      </trkpt>
      <trkpt lat="46.72402" lon="-1.96039">
        <ele>13.6</ele>
        <time>2024-12-26T09:38:11.045Z</time>
      </trkpt>
      <trkpt lat="46.724" lon="-1.96039">
        <ele>13.8</ele>
        <time>2024-12-26T09:38:12.046Z</time>
      </trkpt>
      <trkpt lat="46.72398" lon="-1.9604">
        <ele>14.1</ele>
        <time>2024-12-26T09:38:13.045Z</time>
      </trkpt>
      <trkpt lat="46.72397" lon="-1.96041">
        <ele>14.3</ele>
        <time>2024-12-26T09:38:14.045Z</time>
      </trkpt>
      <trkpt lat="46.72397" lon="-1.96041">
        <ele>14.4</ele>
        <time>2024-12-26T09:38:15.045Z</time>
      </trkpt>
      <trkpt lat="46.72397" lon="-1.96041">
        <ele>14.3</ele>
        <time>2024-12-26T09:38:16.045Z</time>
      </trkpt>
      <trkpt lat="46.72397" lon="-1.96041">
        <ele>14.3</ele>
        <time>2024-12-26T09:38:17.045Z</time>
      </trkpt>
      <trkpt lat="46.72396" lon="-1.9604">
        <ele>14.5</ele>
        <time>2024-12-26T09:38:18.045Z</time>
      </trkpt>
      <trkpt lat="46.72395" lon="-1.96038">
        <ele>14.5</ele>
        <time>2024-12-26T09:38:19.045Z</time>
      </trkpt>
      <trkpt lat="46.72396" lon="-1.96038">
        <ele>14.4</ele>
        <time>2024-12-26T09:38:20.046Z</time>
      </trkpt>
      <trkpt lat="46.72397" lon="-1.96037">
        <ele>14.2</ele>
        <time>2024-12-26T09:38:21.045Z</time>
      </trkpt>
      <trkpt lat="46.72397" lon="-1.96036">
        <ele>14.1</ele>
        <time>2024-12-26T09:38:22.045Z</time>
      </trkpt>
      <trkpt lat="46.72397" lon="-1.96035">
        <ele>14.1</ele>
        <time>2024-12-26T09:38:23.045Z</time>
      </trkpt>
      <trkpt lat="46.72396" lon="-1.96034">
        <ele>14.2</ele>
        <time>2024-12-26T09:38:24.045Z</time>
      </trkpt>
      <trkpt lat="46.72396" lon="-1.96033">
        <ele>14.2</ele>
        <time>2024-12-26T09:38:25.046Z</time>
      </trkpt>
      <trkpt lat="46.72396" lon="-1.96032">
        <ele>14.2</ele>
        <time>2024-12-26T09:38:26.045Z</time>
      </trkpt>
      <trkpt lat="46.72396" lon="-1.96031">
        <ele>14.1</ele>
        <time>2024-12-26T09:38:27.046Z</time>
      </trkpt>
      <trkpt lat="46.72396" lon="-1.96031">
        <ele>14.1</ele>
        <time>2024-12-26T09:38:28.046Z</time>
      </trkpt>
      <trkpt lat="46.72397" lon="-1.96032">
        <ele>14</ele>
        <time>2024-12-26T09:38:29.046Z</time>
      </trkpt>
      <trkpt lat="46.72397" lon="-1.96032">
        <ele>14</ele>
        <time>2024-12-26T09:38:30.046Z</time>
      </trkpt>
      <trkpt lat="46.72396" lon="-1.96032">
        <ele>14.1</ele>
        <time>2024-12-26T09:38:31.046Z</time>
      </trkpt>
      <trkpt lat="46.72395" lon="-1.96031">
        <ele>14.2</ele>
        <time>2024-12-26T09:38:32.046Z</time>
      </trkpt>
      <trkpt lat="46.72393" lon="-1.9603">
        <ele>14.5</ele>
        <time>2024-12-26T09:38:33.045Z</time>
      </trkpt>
      <trkpt lat="46.72391" lon="-1.96028">
        <ele>14.7</ele>
        <time>2024-12-26T09:38:34.045Z</time>
      </trkpt>
      <trkpt lat="46.72391" lon="-1.96028">
        <ele>14.7</ele>
        <time>2024-12-26T09:38:35.045Z</time>
      </trkpt>
      <trkpt lat="46.7239" lon="-1.96028">
        <ele>14.8</ele>
        <time>2024-12-26T09:38:36.045Z</time>
      </trkpt>
      <trkpt lat="46.72389" lon="-1.96028">
        <ele>15</ele>
        <time>2024-12-26T09:38:37.045Z</time>
      </trkpt>
      <trkpt lat="46.72389" lon="-1.96028">
        <ele>15</ele>
        <time>2024-12-26T09:38:38.045Z</time>
      </trkpt>
      <trkpt lat="46.72388" lon="-1.96028">
        <ele>14.8</ele>
        <time>2024-12-26T09:38:39.045Z</time>
      </trkpt>
      <trkpt lat="46.72386" lon="-1.96027">
        <ele>14.6</ele>
        <time>2024-12-26T09:38:40.045Z</time>
      </trkpt>
      <trkpt lat="46.72384" lon="-1.96025">
        <ele>14.3</ele>
        <time>2024-12-26T09:38:41.046Z</time>
      </trkpt>
      <trkpt lat="46.72382" lon="-1.96024">
        <ele>14.1</ele>
        <time>2024-12-26T09:38:42.046Z</time>
      </trkpt>
      <trkpt lat="46.72381" lon="-1.96023">
        <ele>13.9</ele>
        <time>2024-12-26T09:38:43.046Z</time>
      </trkpt>
      <trkpt lat="46.7238" lon="-1.96023">
        <ele>13.8</ele>
        <time>2024-12-26T09:38:44.046Z</time>
      </trkpt>
      <trkpt lat="46.7238" lon="-1.96023">
        <ele>13.7</ele>
        <time>2024-12-26T09:38:45.046Z</time>
      </trkpt>
      <trkpt lat="46.72378" lon="-1.96023">
        <ele>13.5</ele>
        <time>2024-12-26T09:38:46.046Z</time>
      </trkpt>
      <trkpt lat="46.72377" lon="-1.96023">
        <ele>13.4</ele>
        <time>2024-12-26T09:38:47.045Z</time>
      </trkpt>
      <trkpt lat="46.72376" lon="-1.96022">
        <ele>13.3</ele>
        <time>2024-12-26T09:38:48.046Z</time>
      </trkpt>
      <trkpt lat="46.72375" lon="-1.96021">
        <ele>13.1</ele>
        <time>2024-12-26T09:38:49.045Z</time>
      </trkpt>
      <trkpt lat="46.72373" lon="-1.9602">
        <ele>12.9</ele>
        <time>2024-12-26T09:38:50.046Z</time>
      </trkpt>
      <trkpt lat="46.72371" lon="-1.96018">
        <ele>12.6</ele>
        <time>2024-12-26T09:38:51.045Z</time>
      </trkpt>
      <trkpt lat="46.72369" lon="-1.96017">
        <ele>12.4</ele>
        <time>2024-12-26T09:38:52.046Z</time>
      </trkpt>
      <trkpt lat="46.72367" lon="-1.96016">
        <ele>12.2</ele>
        <time>2024-12-26T09:38:53.046Z</time>
      </trkpt>
      <trkpt lat="46.72366" lon="-1.96015">
        <ele>12.1</ele>
        <time>2024-12-26T09:38:54.045Z</time>
      </trkpt>
      <trkpt lat="46.72365" lon="-1.96014">
        <ele>12</ele>
        <time>2024-12-26T09:38:55.046Z</time>
      </trkpt>
      <trkpt lat="46.72364" lon="-1.96013">
        <ele>11.9</ele>
        <time>2024-12-26T09:38:56.046Z</time>
      </trkpt>
      <trkpt lat="46.72364" lon="-1.96013">
        <ele>11.9</ele>
        <time>2024-12-26T09:38:57.046Z</time>
      </trkpt>
      <trkpt lat="46.72363" lon="-1.96013">
        <ele>11.7</ele>
        <time>2024-12-26T09:38:58.045Z</time>
      </trkpt>
      <trkpt lat="46.72362" lon="-1.96013">
        <ele>11.6</ele>
        <time>2024-12-26T09:38:59.046Z</time>
      </trkpt>
      <trkpt lat="46.72362" lon="-1.96012">
        <ele>11.6</ele>
        <time>2024-12-26T09:39:00.045Z</time>
      </trkpt>
      <trkpt lat="46.72361" lon="-1.96012">
        <ele>11.6</ele>
        <time>2024-12-26T09:39:01.045Z</time>
      </trkpt>
      <trkpt lat="46.72361" lon="-1.96012">
        <ele>11.6</ele>
        <time>2024-12-26T09:39:02.046Z</time>
      </trkpt>
      <trkpt lat="46.72359" lon="-1.96012">
        <ele>11.6</ele>
        <time>2024-12-26T09:39:03.046Z</time>
      </trkpt>
      <trkpt lat="46.72358" lon="-1.96012">
        <ele>11.6</ele>
        <time>2024-12-26T09:39:04.045Z</time>
      </trkpt>
      <trkpt lat="46.72356" lon="-1.96013">
        <ele>11.6</ele>
        <time>2024-12-26T09:39:05.045Z</time>
      </trkpt>
      <trkpt lat="46.72354" lon="-1.96014">
        <ele>11.6</ele>
        <time>2024-12-26T09:39:06.045Z</time>
      </trkpt>
      <trkpt lat="46.72352" lon="-1.96014">
        <ele>11.7</ele>
        <time>2024-12-26T09:39:07.045Z</time>
      </trkpt>
      <trkpt lat="46.72349" lon="-1.96014">
        <ele>11.7</ele>
        <time>2024-12-26T09:39:08.045Z</time>
      </trkpt>
      <trkpt lat="46.72345" lon="-1.96014">
        <ele>11.8</ele>
        <time>2024-12-26T09:39:09.046Z</time>
      </trkpt>
      <trkpt lat="46.72343" lon="-1.96015">
        <ele>11.8</ele>
        <time>2024-12-26T09:39:10.046Z</time>
      </trkpt>
      <trkpt lat="46.72342" lon="-1.96015">
        <ele>11.8</ele>
        <time>2024-12-26T09:39:11.046Z</time>
      </trkpt>
      <trkpt lat="46.72341" lon="-1.96016">
        <ele>11.8</ele>
        <time>2024-12-26T09:39:12.046Z</time>
      </trkpt>
      <trkpt lat="46.7234" lon="-1.96016">
        <ele>11.7</ele>
        <time>2024-12-26T09:39:13.045Z</time>
      </trkpt>
      <trkpt lat="46.72339" lon="-1.96015">
        <ele>11.8</ele>
        <time>2024-12-26T09:39:14.046Z</time>
      </trkpt>
      <trkpt lat="46.72339" lon="-1.96015">
        <ele>11.9</ele>
        <time>2024-12-26T09:39:15.046Z</time>
      </trkpt>
      <trkpt lat="46.72337" lon="-1.96014">
        <ele>11.9</ele>
        <time>2024-12-26T09:39:16.045Z</time>
      </trkpt>
      <trkpt lat="46.72337" lon="-1.96014">
        <ele>12</ele>
        <time>2024-12-26T09:39:17.045Z</time>
      </trkpt>
      <trkpt lat="46.72335" lon="-1.96014">
        <ele>11.9</ele>
        <time>2024-12-26T09:39:18.045Z</time>
      </trkpt>
      <trkpt lat="46.72334" lon="-1.96015">
        <ele>11.9</ele>
        <time>2024-12-26T09:39:19.045Z</time>
      </trkpt>
      <trkpt lat="46.7233" lon="-1.96017">
        <ele>12.1</ele>
        <time>2024-12-26T09:39:20.045Z</time>
      </trkpt>
      <trkpt lat="46.72327" lon="-1.96017">
        <ele>12.3</ele>
        <time>2024-12-26T09:39:21.045Z</time>
      </trkpt>
      <trkpt lat="46.72324" lon="-1.96017">
        <ele>12.4</ele>
        <time>2024-12-26T09:39:22.046Z</time>
      </trkpt>
      <trkpt lat="46.72322" lon="-1.96018">
        <ele>12.5</ele>
        <time>2024-12-26T09:39:23.046Z</time>
      </trkpt>
      <trkpt lat="46.72321" lon="-1.9602">
        <ele>12.4</ele>
        <time>2024-12-26T09:39:24.046Z</time>
      </trkpt>
      <trkpt lat="46.7232" lon="-1.96022">
        <ele>12.4</ele>
        <time>2024-12-26T09:39:25.046Z</time>
      </trkpt>
      <trkpt lat="46.7232" lon="-1.96023">
        <ele>12.3</ele>
        <time>2024-12-26T09:39:26.046Z</time>
      </trkpt>
      <trkpt lat="46.72319" lon="-1.96024">
        <ele>12.3</ele>
        <time>2024-12-26T09:39:27.046Z</time>
      </trkpt>
      <trkpt lat="46.72318" lon="-1.96026">
        <ele>12.2</ele>
        <time>2024-12-26T09:39:28.046Z</time>
      </trkpt>
      <trkpt lat="46.72318" lon="-1.96028">
        <ele>12.1</ele>
        <time>2024-12-26T09:39:29.045Z</time>
      </trkpt>
      <trkpt lat="46.72317" lon="-1.96031">
        <ele>12</ele>
        <time>2024-12-26T09:39:30.045Z</time>
      </trkpt>
      <trkpt lat="46.72315" lon="-1.96032">
        <ele>12.1</ele>
        <time>2024-12-26T09:39:31.046Z</time>
      </trkpt>
      <trkpt lat="46.72313" lon="-1.96033">
        <ele>12.1</ele>
        <time>2024-12-26T09:39:32.045Z</time>
      </trkpt>
      <trkpt lat="46.72312" lon="-1.96034">
        <ele>12.1</ele>
        <time>2024-12-26T09:39:33.046Z</time>
      </trkpt>
      <trkpt lat="46.72312" lon="-1.96035">
        <ele>12.1</ele>
        <time>2024-12-26T09:39:34.045Z</time>
      </trkpt>
      <trkpt lat="46.7231" lon="-1.96036">
        <ele>12.1</ele>
        <time>2024-12-26T09:39:35.046Z</time>
      </trkpt>
      <trkpt lat="46.72309" lon="-1.96037">
        <ele>12.1</ele>
        <time>2024-12-26T09:39:36.046Z</time>
      </trkpt>
      <trkpt lat="46.72308" lon="-1.96038">
        <ele>12.1</ele>
        <time>2024-12-26T09:39:37.046Z</time>
      </trkpt>
      <trkpt lat="46.72306" lon="-1.96039">
        <ele>12.1</ele>
        <time>2024-12-26T09:39:38.046Z</time>
      </trkpt>
      <trkpt lat="46.72305" lon="-1.96041">
        <ele>12</ele>
        <time>2024-12-26T09:39:39.046Z</time>
      </trkpt>
      <trkpt lat="46.72305" lon="-1.96045">
        <ele>11.8</ele>
        <time>2024-12-26T09:39:40.046Z</time>
      </trkpt>
      <trkpt lat="46.72304" lon="-1.96048">
        <ele>11.5</ele>
        <time>2024-12-26T09:39:41.046Z</time>
      </trkpt>
      <trkpt lat="46.72303" lon="-1.96049">
        <ele>11.4</ele>
        <time>2024-12-26T09:39:42.045Z</time>
      </trkpt>
      <trkpt lat="46.72302" lon="-1.96051">
        <ele>11.3</ele>
        <time>2024-12-26T09:39:43.045Z</time>
      </trkpt>
      <trkpt lat="46.72301" lon="-1.96052">
        <ele>11.2</ele>
        <time>2024-12-26T09:39:44.045Z</time>
      </trkpt>
      <trkpt lat="46.723" lon="-1.96054">
        <ele>11.1</ele>
        <time>2024-12-26T09:39:45.045Z</time>
      </trkpt>
      <trkpt lat="46.72298" lon="-1.96056">
        <ele>11</ele>
        <time>2024-12-26T09:39:46.045Z</time>
      </trkpt>
      <trkpt lat="46.72297" lon="-1.96057">
        <ele>11</ele>
        <time>2024-12-26T09:39:47.046Z</time>
      </trkpt>
      <trkpt lat="46.72297" lon="-1.96058">
        <ele>11</ele>
        <time>2024-12-26T09:39:48.045Z</time>
      </trkpt>
      <trkpt lat="46.72297" lon="-1.96059">
        <ele>11</ele>
        <time>2024-12-26T09:39:49.046Z</time>
      </trkpt>
      <trkpt lat="46.72296" lon="-1.96061">
        <ele>10.9</ele>
        <time>2024-12-26T09:39:50.045Z</time>
      </trkpt>
      <trkpt lat="46.72296" lon="-1.96062">
        <ele>10.9</ele>
        <time>2024-12-26T09:39:51.045Z</time>
      </trkpt>
      <trkpt lat="46.72295" lon="-1.96063">
        <ele>10.9</ele>
        <time>2024-12-26T09:39:52.046Z</time>
      </trkpt>
      <trkpt lat="46.72295" lon="-1.96064">
        <ele>10.9</ele>
        <time>2024-12-26T09:39:53.045Z</time>
      </trkpt>
      <trkpt lat="46.72294" lon="-1.96065">
        <ele>10.9</ele>
        <time>2024-12-26T09:39:54.045Z</time>
      </trkpt>
      <trkpt lat="46.72293" lon="-1.96066">
        <ele>10.8</ele>
        <time>2024-12-26T09:39:55.045Z</time>
      </trkpt>
      <trkpt lat="46.72292" lon="-1.96067">
        <ele>10.8</ele>
        <time>2024-12-26T09:39:56.046Z</time>
      </trkpt>
      <trkpt lat="46.72292" lon="-1.96068">
        <ele>10.8</ele>
        <time>2024-12-26T09:39:57.045Z</time>
      </trkpt>
      <trkpt lat="46.7229" lon="-1.96068">
        <ele>10.8</ele>
        <time>2024-12-26T09:39:58.046Z</time>
      </trkpt>
      <trkpt lat="46.72289" lon="-1.96068">
        <ele>10.7</ele>
        <time>2024-12-26T09:39:59.046Z</time>
      </trkpt>
      <trkpt lat="46.72286" lon="-1.96068">
        <ele>10.7</ele>
        <time>2024-12-26T09:40:00.046Z</time>
      </trkpt>
      <trkpt lat="46.72283" lon="-1.96068">
        <ele>10.6</ele>
        <time>2024-12-26T09:40:01.046Z</time>
      </trkpt>
      <trkpt lat="46.72281" lon="-1.96068">
        <ele>10.6</ele>
        <time>2024-12-26T09:40:02.045Z</time>
      </trkpt>
      <trkpt lat="46.7228" lon="-1.96069">
        <ele>10.5</ele>
        <time>2024-12-26T09:40:03.045Z</time>
      </trkpt>
      <trkpt lat="46.72279" lon="-1.9607">
        <ele>10.5</ele>
        <time>2024-12-26T09:40:04.045Z</time>
      </trkpt>
      <trkpt lat="46.72279" lon="-1.96071">
        <ele>10.5</ele>
        <time>2024-12-26T09:40:05.045Z</time>
      </trkpt>
      <trkpt lat="46.72278" lon="-1.96071">
        <ele>10.5</ele>
        <time>2024-12-26T09:40:06.045Z</time>
      </trkpt>
      <trkpt lat="46.72278" lon="-1.96072">
        <ele>10.4</ele>
        <time>2024-12-26T09:40:07.045Z</time>
      </trkpt>
      <trkpt lat="46.72277" lon="-1.96072">
        <ele>10.4</ele>
        <time>2024-12-26T09:40:08.046Z</time>
      </trkpt>
      <trkpt lat="46.72276" lon="-1.96073">
        <ele>10.4</ele>
        <time>2024-12-26T09:40:09.046Z</time>
      </trkpt>
      <trkpt lat="46.72276" lon="-1.96075">
        <ele>10.4</ele>
        <time>2024-12-26T09:40:10.046Z</time>
      </trkpt>
      <trkpt lat="46.72276" lon="-1.96077">
        <ele>10.3</ele>
        <time>2024-12-26T09:40:11.046Z</time>
      </trkpt>
      <trkpt lat="46.72275" lon="-1.96079">
        <ele>10.2</ele>
        <time>2024-12-26T09:40:12.046Z</time>
      </trkpt>
      <trkpt lat="46.72274" lon="-1.96082">
        <ele>10.1</ele>
        <time>2024-12-26T09:40:13.046Z</time>
      </trkpt>
      <trkpt lat="46.72274" lon="-1.96084">
        <ele>10</ele>
        <time>2024-12-26T09:40:14.046Z</time>
      </trkpt>
      <trkpt lat="46.72273" lon="-1.96086">
        <ele>10</ele>
        <time>2024-12-26T09:40:15.046Z</time>
      </trkpt>
      <trkpt lat="46.72273" lon="-1.96089">
        <ele>10</ele>
        <time>2024-12-26T09:40:16.045Z</time>
      </trkpt>
      <trkpt lat="46.72274" lon="-1.96091">
        <ele>10</ele>
        <time>2024-12-26T09:40:17.045Z</time>
      </trkpt>
      <trkpt lat="46.72275" lon="-1.96092">
        <ele>10</ele>
        <time>2024-12-26T09:40:18.045Z</time>
      </trkpt>
      <trkpt lat="46.72274" lon="-1.96094">
        <ele>10</ele>
        <time>2024-12-26T09:40:19.045Z</time>
      </trkpt>
      <trkpt lat="46.72275" lon="-1.96096">
        <ele>10</ele>
        <time>2024-12-26T09:40:20.045Z</time>
      </trkpt>
      <trkpt lat="46.72275" lon="-1.96099">
        <ele>10</ele>
        <time>2024-12-26T09:40:21.045Z</time>
      </trkpt>
      <trkpt lat="46.72275" lon="-1.96102">
        <ele>10</ele>
        <time>2024-12-26T09:40:22.046Z</time>
      </trkpt>
      <trkpt lat="46.72273" lon="-1.96106">
        <ele>10</ele>
        <time>2024-12-26T09:40:23.046Z</time>
      </trkpt>
      <trkpt lat="46.72272" lon="-1.96108">
        <ele>10</ele>
        <time>2024-12-26T09:40:24.045Z</time>
      </trkpt>
      <trkpt lat="46.72273" lon="-1.96111">
        <ele>10</ele>
        <time>2024-12-26T09:40:25.045Z</time>
      </trkpt>
      <trkpt lat="46.72272" lon="-1.96114">
        <ele>10</ele>
        <time>2024-12-26T09:40:26.045Z</time>
      </trkpt>
      <trkpt lat="46.72274" lon="-1.96116">
        <ele>10</ele>
        <time>2024-12-26T09:40:27.045Z</time>
      </trkpt>
      <trkpt lat="46.72276" lon="-1.96119">
        <ele>10</ele>
        <time>2024-12-26T09:40:28.045Z</time>
      </trkpt>
      <trkpt lat="46.72276" lon="-1.9612">
        <ele>10</ele>
        <time>2024-12-26T09:40:29.045Z</time>
      </trkpt>
      <trkpt lat="46.72277" lon="-1.96121">
        <ele>10</ele>
        <time>2024-12-26T09:40:30.045Z</time>
      </trkpt>
      <trkpt lat="46.72277" lon="-1.96122">
        <ele>10</ele>
        <time>2024-12-26T09:40:31.046Z</time>
      </trkpt>
      <trkpt lat="46.72276" lon="-1.96123">
        <ele>10</ele>
        <time>2024-12-26T09:40:32.046Z</time>
      </trkpt>
      <trkpt lat="46.72277" lon="-1.96126">
        <ele>10</ele>
        <time>2024-12-26T09:40:33.046Z</time>
      </trkpt>
      <trkpt lat="46.72278" lon="-1.96128">
        <ele>10</ele>
        <time>2024-12-26T09:40:34.046Z</time>
      </trkpt>
      <trkpt lat="46.72277" lon="-1.9613">
        <ele>10</ele>
        <time>2024-12-26T09:40:35.046Z</time>
      </trkpt>
      <trkpt lat="46.72277" lon="-1.96133">
        <ele>10</ele>
        <time>2024-12-26T09:40:36.046Z</time>
      </trkpt>
      <trkpt lat="46.72276" lon="-1.96135">
        <ele>10</ele>
        <time>2024-12-26T09:40:37.046Z</time>
      </trkpt>
      <trkpt lat="46.72275" lon="-1.96138">
        <ele>10</ele>
        <time>2024-12-26T09:40:38.045Z</time>
      </trkpt>
      <trkpt lat="46.72275" lon="-1.9614">
        <ele>10</ele>
        <time>2024-12-26T09:40:39.045Z</time>
      </trkpt>
      <trkpt lat="46.72275" lon="-1.96142">
        <ele>10</ele>
        <time>2024-12-26T09:40:40.046Z</time>
      </trkpt>
      <trkpt lat="46.72276" lon="-1.96144">
        <ele>10</ele>
        <time>2024-12-26T09:40:41.046Z</time>
      </trkpt>
      <trkpt lat="46.72276" lon="-1.96146">
        <ele>10</ele>
        <time>2024-12-26T09:40:42.045Z</time>
      </trkpt>
      <trkpt lat="46.72277" lon="-1.96148">
        <ele>10</ele>
        <time>2024-12-26T09:40:43.045Z</time>
      </trkpt>
      <trkpt lat="46.72277" lon="-1.9615">
        <ele>10</ele>
        <time>2024-12-26T09:40:44.046Z</time>
      </trkpt>
      <trkpt lat="46.72277" lon="-1.96151">
        <ele>10</ele>
        <time>2024-12-26T09:40:45.045Z</time>
      </trkpt>
      <trkpt lat="46.72277" lon="-1.96152">
        <ele>10</ele>
        <time>2024-12-26T09:40:46.045Z</time>
      </trkpt>
      <trkpt lat="46.72277" lon="-1.96154">
        <ele>10</ele>
        <time>2024-12-26T09:40:47.045Z</time>
      </trkpt>
      <trkpt lat="46.72277" lon="-1.96155">
        <ele>10</ele>
        <time>2024-12-26T09:40:48.045Z</time>
      </trkpt>
      <trkpt lat="46.72276" lon="-1.96156">
        <ele>10</ele>
        <time>2024-12-26T09:40:49.045Z</time>
      </trkpt>
      <trkpt lat="46.72276" lon="-1.96157">
        <ele>10</ele>
        <time>2024-12-26T09:40:50.046Z</time>
      </trkpt>
      <trkpt lat="46.72276" lon="-1.96157">
        <ele>10</ele>
        <time>2024-12-26T09:40:51.045Z</time>
      </trkpt>
      <trkpt lat="46.72276" lon="-1.96156">
        <ele>10</ele>
        <time>2024-12-26T09:40:52.045Z</time>
      </trkpt>
      <trkpt lat="46.72276" lon="-1.96156">
        <ele>10</ele>
        <time>2024-12-26T09:40:53.045Z</time>
      </trkpt>
      <trkpt lat="46.72276" lon="-1.96157">
        <ele>10</ele>
        <time>2024-12-26T09:40:54.045Z</time>
      </trkpt>
      <trkpt lat="46.72276" lon="-1.96157">
        <ele>10</ele>
        <time>2024-12-26T09:40:55.045Z</time>
      </trkpt>
      <trkpt lat="46.72276" lon="-1.96157">
        <ele>10</ele>
        <time>2024-12-26T09:40:56.046Z</time>
      </trkpt>
      <trkpt lat="46.72276" lon="-1.96156">
        <ele>10</ele>
        <time>2024-12-26T09:40:57.046Z</time>
      </trkpt>
      <trkpt lat="46.72276" lon="-1.96156">
        <ele>10</ele>
        <time>2024-12-26T09:40:58.046Z</time>
      </trkpt>
      <trkpt lat="46.72276" lon="-1.96156">
        <ele>10</ele>
        <time>2024-12-26T09:40:59.045Z</time>
      </trkpt>
      <trkpt lat="46.72276" lon="-1.96156">
        <ele>10</ele>
        <time>2024-12-26T09:41:00.045Z</time>
      </trkpt>
      <trkpt lat="46.72276" lon="-1.96155">
        <ele>10</ele>
        <time>2024-12-26T09:41:01.045Z</time>
      </trkpt>
      <trkpt lat="46.72277" lon="-1.96155">
        <ele>10</ele>
        <time>2024-12-26T09:41:02.046Z</time>
      </trkpt>
      <trkpt lat="46.72277" lon="-1.96155">
        <ele>10</ele>
        <time>2024-12-26T09:41:03.046Z</time>
      </trkpt>
      <trkpt lat="46.72277" lon="-1.96154">
        <ele>10</ele>
        <time>2024-12-26T09:41:04.045Z</time>
      </trkpt>
      <trkpt lat="46.72277" lon="-1.96154">
        <ele>10</ele>
        <time>2024-12-26T09:41:05.045Z</time>
      </trkpt>
      <trkpt lat="46.72277" lon="-1.96154">
        <ele>10</ele>
        <time>2024-12-26T09:41:06.045Z</time>
      </trkpt>
      <trkpt lat="46.72277" lon="-1.96154">
        <ele>10</ele>
        <time>2024-12-26T09:41:07.045Z</time>
      </trkpt>
      <trkpt lat="46.72277" lon="-1.96153">
        <ele>10</ele>
        <time>2024-12-26T09:41:08.045Z</time>
      </trkpt>
      <trkpt lat="46.72277" lon="-1.96153">
        <ele>10</ele>
        <time>2024-12-26T09:41:09.046Z</time>
      </trkpt>
      <trkpt lat="46.72277" lon="-1.96153">
        <ele>10</ele>
        <time>2024-12-26T09:41:10.046Z</time>
      </trkpt>
      <trkpt lat="46.72276" lon="-1.96153">
        <ele>10</ele>
        <time>2024-12-26T09:41:11.046Z</time>
      </trkpt>
      <trkpt lat="46.72276" lon="-1.96152">
        <ele>10</ele>
        <time>2024-12-26T09:41:12.046Z</time>
      </trkpt>
      <trkpt lat="46.72276" lon="-1.96152">
        <ele>10</ele>
        <time>2024-12-26T09:41:13.046Z</time>
      </trkpt>
      <trkpt lat="46.72276" lon="-1.96152">
        <ele>10</ele>
        <time>2024-12-26T09:41:14.046Z</time>
      </trkpt>
      <trkpt lat="46.72276" lon="-1.96152">
        <ele>10</ele>
        <time>2024-12-26T09:41:15.045Z</time>
      </trkpt>
      <trkpt lat="46.72276" lon="-1.96152">
        <ele>10</ele>
        <time>2024-12-26T09:41:16.045Z</time>
      </trkpt>
      <trkpt lat="46.72276" lon="-1.96152">
        <ele>10</ele>
        <time>2024-12-26T09:41:17.045Z</time>
      </trkpt>
      <trkpt lat="46.72276" lon="-1.96152">
        <ele>10</ele>
        <time>2024-12-26T09:41:18.046Z</time>
      </trkpt>
      <trkpt lat="46.72276" lon="-1.96152">
        <ele>10</ele>
        <time>2024-12-26T09:41:19.045Z</time>
      </trkpt>
      <trkpt lat="46.72276" lon="-1.96152">
        <ele>10</ele>
        <time>2024-12-26T09:41:20.046Z</time>
      </trkpt>
      <trkpt lat="46.72276" lon="-1.96152">
        <ele>10</ele>
        <time>2024-12-26T09:41:21.046Z</time>
      </trkpt>
      <trkpt lat="46.72276" lon="-1.96152">
        <ele>10</ele>
        <time>2024-12-26T09:41:22.045Z</time>
      </trkpt>
      <trkpt lat="46.72276" lon="-1.96152">
        <ele>10</ele>
        <time>2024-12-26T09:41:23.046Z</time>
      </trkpt>
      <trkpt lat="46.72276" lon="-1.96152">
        <ele>10</ele>
        <time>2024-12-26T09:41:24.045Z</time>
      </trkpt>
      <trkpt lat="46.72276" lon="-1.96152">
        <ele>10</ele>
        <time>2024-12-26T09:41:25.045Z</time>
      </trkpt>
      <trkpt lat="46.72276" lon="-1.96152">
        <ele>10</ele>
        <time>2024-12-26T09:41:26.045Z</time>
      </trkpt>
      <trkpt lat="46.72276" lon="-1.96152">
        <ele>10</ele>
        <time>2024-12-26T09:41:27.046Z</time>
      </trkpt>
      <trkpt lat="46.72276" lon="-1.96152">
        <ele>10</ele>
        <time>2024-12-26T09:41:28.046Z</time>
      </trkpt>
      <trkpt lat="46.72276" lon="-1.96152">
        <ele>10</ele>
        <time>2024-12-26T09:41:29.046Z</time>
      </trkpt>
      <trkpt lat="46.72276" lon="-1.96152">
        <ele>10</ele>
        <time>2024-12-26T09:41:30.046Z</time>
      </trkpt>
      <trkpt lat="46.72276" lon="-1.96151">
        <ele>10</ele>
        <time>2024-12-26T09:41:31.046Z</time>
      </trkpt>
      <trkpt lat="46.72276" lon="-1.96151">
        <ele>10</ele>
        <time>2024-12-26T09:41:32.045Z</time>
      </trkpt>
      <trkpt lat="46.72276" lon="-1.96151">
        <ele>10</ele>
        <time>2024-12-26T09:41:33.045Z</time>
      </trkpt>
      <trkpt lat="46.72276" lon="-1.96151">
        <ele>10</ele>
        <time>2024-12-26T09:41:34.045Z</time>
      </trkpt>
      <trkpt lat="46.72276" lon="-1.96151">
        <ele>10</ele>
        <time>2024-12-26T09:41:35.045Z</time>
      </trkpt>
      <trkpt lat="46.72276" lon="-1.96151">
        <ele>10</ele>
        <time>2024-12-26T09:41:36.046Z</time>
      </trkpt>
      <trkpt lat="46.72276" lon="-1.96151">
        <ele>10</ele>
        <time>2024-12-26T09:41:37.046Z</time>
      </trkpt>
      <trkpt lat="46.72276" lon="-1.96151">
        <ele>10</ele>
        <time>2024-12-26T09:41:38.045Z</time>
      </trkpt>
      <trkpt lat="46.72276" lon="-1.96151">
        <ele>10</ele>
        <time>2024-12-26T09:41:39.046Z</time>
      </trkpt>
      <trkpt lat="46.72276" lon="-1.96151">
        <ele>10</ele>
        <time>2024-12-26T09:41:40.046Z</time>
      </trkpt>
      <trkpt lat="46.72276" lon="-1.96151">
        <ele>10</ele>
        <time>2024-12-26T09:41:41.045Z</time>
      </trkpt>
      <trkpt lat="46.72275" lon="-1.96153">
        <ele>10</ele>
        <time>2024-12-26T09:41:42.046Z</time>
      </trkpt>
      <trkpt lat="46.72275" lon="-1.96154">
        <ele>10.1</ele>
        <time>2024-12-26T09:41:43.046Z</time>
      </trkpt>
      <trkpt lat="46.72275" lon="-1.96154">
        <ele>10.1</ele>
        <time>2024-12-26T09:41:44.046Z</time>
      </trkpt>
      <trkpt lat="46.72275" lon="-1.96155">
        <ele>10.1</ele>
        <time>2024-12-26T09:41:45.046Z</time>
      </trkpt>
      <trkpt lat="46.72275" lon="-1.96155">
        <ele>10.1</ele>
        <time>2024-12-26T09:41:46.046Z</time>
      </trkpt>
      <trkpt lat="46.72274" lon="-1.96155">
        <ele>10.1</ele>
        <time>2024-12-26T09:41:47.046Z</time>
      </trkpt>
      <trkpt lat="46.72274" lon="-1.96155">
        <ele>10.1</ele>
        <time>2024-12-26T09:41:48.046Z</time>
      </trkpt>
      <trkpt lat="46.72273" lon="-1.96156">
        <ele>10.1</ele>
        <time>2024-12-26T09:41:49.045Z</time>
      </trkpt>
      <trkpt lat="46.72273" lon="-1.96157">
        <ele>10.1</ele>
        <time>2024-12-26T09:41:50.045Z</time>
      </trkpt>
      <trkpt lat="46.72273" lon="-1.96156">
        <ele>10.1</ele>
        <time>2024-12-26T09:41:51.045Z</time>
      </trkpt>
      <trkpt lat="46.72273" lon="-1.96156">
        <ele>10.1</ele>
        <time>2024-12-26T09:41:52.045Z</time>
      </trkpt>
      <trkpt lat="46.72273" lon="-1.96156">
        <ele>10.1</ele>
        <time>2024-12-26T09:41:53.045Z</time>
      </trkpt>
      <trkpt lat="46.72271" lon="-1.96154">
        <ele>10.1</ele>
        <time>2024-12-26T09:41:54.045Z</time>
      </trkpt>
      <trkpt lat="46.7227" lon="-1.96152">
        <ele>10.1</ele>
        <time>2024-12-26T09:41:55.045Z</time>
      </trkpt>
      <trkpt lat="46.7227" lon="-1.96151">
        <ele>10.1</ele>
        <time>2024-12-26T09:41:56.045Z</time>
      </trkpt>
      <trkpt lat="46.72269" lon="-1.9615">
        <ele>10.1</ele>
        <time>2024-12-26T09:41:57.045Z</time>
      </trkpt>
      <trkpt lat="46.72268" lon="-1.9615">
        <ele>10.1</ele>
        <time>2024-12-26T09:41:58.045Z</time>
      </trkpt>
      <trkpt lat="46.72268" lon="-1.9615">
        <ele>10.1</ele>
        <time>2024-12-26T09:41:59.045Z</time>
      </trkpt>
      <trkpt lat="46.72268" lon="-1.9615">
        <ele>10.1</ele>
        <time>2024-12-26T09:42:00.045Z</time>
      </trkpt>
      <trkpt lat="46.72268" lon="-1.9615">
        <ele>10.1</ele>
        <time>2024-12-26T09:42:01.046Z</time>
      </trkpt>
      <trkpt lat="46.72267" lon="-1.96149">
        <ele>10.1</ele>
        <time>2024-12-26T09:42:02.045Z</time>
      </trkpt>
      <trkpt lat="46.72267" lon="-1.96148">
        <ele>10.1</ele>
        <time>2024-12-26T09:42:03.045Z</time>
      </trkpt>
      <trkpt lat="46.72267" lon="-1.96147">
        <ele>10.1</ele>
        <time>2024-12-26T09:42:04.045Z</time>
      </trkpt>
      <trkpt lat="46.72268" lon="-1.96147">
        <ele>10.1</ele>
        <time>2024-12-26T09:42:05.045Z</time>
      </trkpt>
      <trkpt lat="46.72268" lon="-1.96147">
        <ele>10.1</ele>
        <time>2024-12-26T09:42:06.046Z</time>
      </trkpt>
      <trkpt lat="46.72268" lon="-1.96147">
        <ele>10.1</ele>
        <time>2024-12-26T09:42:07.046Z</time>
      </trkpt>
      <trkpt lat="46.72269" lon="-1.96147">
        <ele>10.1</ele>
        <time>2024-12-26T09:42:08.046Z</time>
      </trkpt>
      <trkpt lat="46.72269" lon="-1.96146">
        <ele>10.1</ele>
        <time>2024-12-26T09:42:09.045Z</time>
      </trkpt>
      <trkpt lat="46.7227" lon="-1.96147">
        <ele>10.1</ele>
        <time>2024-12-26T09:42:10.045Z</time>
      </trkpt>
      <trkpt lat="46.7227" lon="-1.96147">
        <ele>10.1</ele>
        <time>2024-12-26T09:42:11.045Z</time>
      </trkpt>
      <trkpt lat="46.7227" lon="-1.96148">
        <ele>10.1</ele>
        <time>2024-12-26T09:42:12.045Z</time>
      </trkpt>
      <trkpt lat="46.72269" lon="-1.96149">
        <ele>10.1</ele>
        <time>2024-12-26T09:42:13.045Z</time>
      </trkpt>
      <trkpt lat="46.72269" lon="-1.96149">
        <ele>10.1</ele>
        <time>2024-12-26T09:42:14.045Z</time>
      </trkpt>
      <trkpt lat="46.72269" lon="-1.96149">
        <ele>10.1</ele>
        <time>2024-12-26T09:42:15.045Z</time>
      </trkpt>
      <trkpt lat="46.7227" lon="-1.96149">
        <ele>10.1</ele>
        <time>2024-12-26T09:42:16.046Z</time>
      </trkpt>
      <trkpt lat="46.7227" lon="-1.96149">
        <ele>10.1</ele>
        <time>2024-12-26T09:42:17.046Z</time>
      </trkpt>
      <trkpt lat="46.7227" lon="-1.96149">
        <ele>10.1</ele>
        <time>2024-12-26T09:42:18.046Z</time>
      </trkpt>
      <trkpt lat="46.7227" lon="-1.96149">
        <ele>10.1</ele>
        <time>2024-12-26T09:42:19.046Z</time>
      </trkpt>
      <trkpt lat="46.7227" lon="-1.96149">
        <ele>10.1</ele>
        <time>2024-12-26T09:42:20.046Z</time>
      </trkpt>
      <trkpt lat="46.7227" lon="-1.96149">
        <ele>10.1</ele>
        <time>2024-12-26T09:42:21.046Z</time>
      </trkpt>
      <trkpt lat="46.7227" lon="-1.96149">
        <ele>10.1</ele>
        <time>2024-12-26T09:42:22.046Z</time>
      </trkpt>
      <trkpt lat="46.7227" lon="-1.96149">
        <ele>10.1</ele>
        <time>2024-12-26T09:42:23.046Z</time>
      </trkpt>
      <trkpt lat="46.72271" lon="-1.96149">
        <ele>10.1</ele>
        <time>2024-12-26T09:42:24.046Z</time>
      </trkpt>
      <trkpt lat="46.72271" lon="-1.96148">
        <ele>10.1</ele>
        <time>2024-12-26T09:42:25.045Z</time>
      </trkpt>
      <trkpt lat="46.72271" lon="-1.96147">
        <ele>10.1</ele>
        <time>2024-12-26T09:42:26.045Z</time>
      </trkpt>
      <trkpt lat="46.7227" lon="-1.96145">
        <ele>10.1</ele>
        <time>2024-12-26T09:42:27.046Z</time>
      </trkpt>
      <trkpt lat="46.72269" lon="-1.96143">
        <ele>10</ele>
        <time>2024-12-26T09:42:28.045Z</time>
      </trkpt>
      <trkpt lat="46.72269" lon="-1.96141">
        <ele>10</ele>
        <time>2024-12-26T09:42:29.046Z</time>
      </trkpt>
      <trkpt lat="46.72268" lon="-1.9614">
        <ele>10</ele>
        <time>2024-12-26T09:42:30.046Z</time>
      </trkpt>
      <trkpt lat="46.72268" lon="-1.96139">
        <ele>10</ele>
        <time>2024-12-26T09:42:31.046Z</time>
      </trkpt>
      <trkpt lat="46.72267" lon="-1.96138">
        <ele>10</ele>
        <time>2024-12-26T09:42:32.046Z</time>
      </trkpt>
      <trkpt lat="46.72267" lon="-1.96136">
        <ele>10</ele>
        <time>2024-12-26T09:42:33.045Z</time>
      </trkpt>
      <trkpt lat="46.72267" lon="-1.96135">
        <ele>10</ele>
        <time>2024-12-26T09:42:34.045Z</time>
      </trkpt>
      <trkpt lat="46.72267" lon="-1.96135">
        <ele>10</ele>
        <time>2024-12-26T09:42:35.045Z</time>
      </trkpt>
      <trkpt lat="46.72266" lon="-1.96134">
        <ele>10</ele>
        <time>2024-12-26T09:42:36.045Z</time>
      </trkpt>
      <trkpt lat="46.72265" lon="-1.96133">
        <ele>10</ele>
        <time>2024-12-26T09:42:37.046Z</time>
      </trkpt>
      <trkpt lat="46.72265" lon="-1.96132">
        <ele>10</ele>
        <time>2024-12-26T09:42:38.046Z</time>
      </trkpt>
      <trkpt lat="46.72264" lon="-1.9613">
        <ele>10</ele>
        <time>2024-12-26T09:42:39.046Z</time>
      </trkpt>
      <trkpt lat="46.72264" lon="-1.96128">
        <ele>10</ele>
        <time>2024-12-26T09:42:40.046Z</time>
      </trkpt>
      <trkpt lat="46.72263" lon="-1.96127">
        <ele>10</ele>
        <time>2024-12-26T09:42:41.045Z</time>
      </trkpt>
      <trkpt lat="46.72262" lon="-1.96125">
        <ele>10</ele>
        <time>2024-12-26T09:42:42.045Z</time>
      </trkpt>
      <trkpt lat="46.72262" lon="-1.96124">
        <ele>10</ele>
        <time>2024-12-26T09:42:43.045Z</time>
      </trkpt>
      <trkpt lat="46.7226" lon="-1.96123">
        <ele>10</ele>
        <time>2024-12-26T09:42:44.045Z</time>
      </trkpt>
      <trkpt lat="46.7226" lon="-1.96121">
        <ele>10</ele>
        <time>2024-12-26T09:42:45.045Z</time>
      </trkpt>
      <trkpt lat="46.72259" lon="-1.96118">
        <ele>10</ele>
        <time>2024-12-26T09:42:46.046Z</time>
      </trkpt>
      <trkpt lat="46.72259" lon="-1.96116">
        <ele>10</ele>
        <time>2024-12-26T09:42:47.045Z</time>
      </trkpt>
      <trkpt lat="46.72259" lon="-1.96114">
        <ele>10</ele>
        <time>2024-12-26T09:42:48.045Z</time>
      </trkpt>
      <trkpt lat="46.72258" lon="-1.96112">
        <ele>10</ele>
        <time>2024-12-26T09:42:49.045Z</time>
      </trkpt>
      <trkpt lat="46.72258" lon="-1.9611">
        <ele>10</ele>
        <time>2024-12-26T09:42:50.045Z</time>
      </trkpt>
      <trkpt lat="46.72257" lon="-1.96109">
        <ele>10</ele>
        <time>2024-12-26T09:42:51.046Z</time>
      </trkpt>
      <trkpt lat="46.72256" lon="-1.96107">
        <ele>10</ele>
        <time>2024-12-26T09:42:52.046Z</time>
      </trkpt>
      <trkpt lat="46.72256" lon="-1.96105">
        <ele>10</ele>
        <time>2024-12-26T09:42:53.046Z</time>
      </trkpt>
      <trkpt lat="46.72255" lon="-1.96103">
        <ele>10</ele>
        <time>2024-12-26T09:42:54.045Z</time>
      </trkpt>
      <trkpt lat="46.72254" lon="-1.96101">
        <ele>10</ele>
        <time>2024-12-26T09:42:55.046Z</time>
      </trkpt>
      <trkpt lat="46.72253" lon="-1.96098">
        <ele>10</ele>
        <time>2024-12-26T09:42:56.046Z</time>
      </trkpt>
      <trkpt lat="46.72252" lon="-1.96095">
        <ele>10</ele>
        <time>2024-12-26T09:42:57.046Z</time>
      </trkpt>
      <trkpt lat="46.72252" lon="-1.96094">
        <ele>10</ele>
        <time>2024-12-26T09:42:58.046Z</time>
      </trkpt>
      <trkpt lat="46.72251" lon="-1.96091">
        <ele>10</ele>
        <time>2024-12-26T09:42:59.046Z</time>
      </trkpt>
      <trkpt lat="46.72251" lon="-1.96088">
        <ele>10</ele>
        <time>2024-12-26T09:43:00.045Z</time>
      </trkpt>
      <trkpt lat="46.72251" lon="-1.96086">
        <ele>10</ele>
        <time>2024-12-26T09:43:01.045Z</time>
      </trkpt>
      <trkpt lat="46.7225" lon="-1.96083">
        <ele>10.1</ele>
        <time>2024-12-26T09:43:02.045Z</time>
      </trkpt>
      <trkpt lat="46.7225" lon="-1.96082">
        <ele>10.3</ele>
        <time>2024-12-26T09:43:03.045Z</time>
      </trkpt>
      <trkpt lat="46.72249" lon="-1.96081">
        <ele>10.5</ele>
        <time>2024-12-26T09:43:04.045Z</time>
      </trkpt>
      <trkpt lat="46.72249" lon="-1.9608">
        <ele>10.8</ele>
        <time>2024-12-26T09:43:05.045Z</time>
      </trkpt>
      <trkpt lat="46.72248" lon="-1.96079">
        <ele>11.1</ele>
        <time>2024-12-26T09:43:06.045Z</time>
      </trkpt>
      <trkpt lat="46.72247" lon="-1.96078">
        <ele>11.5</ele>
        <time>2024-12-26T09:43:07.046Z</time>
      </trkpt>
      <trkpt lat="46.72246" lon="-1.96077">
        <ele>11.7</ele>
        <time>2024-12-26T09:43:08.045Z</time>
      </trkpt>
      <trkpt lat="46.72245" lon="-1.96074">
        <ele>12.3</ele>
        <time>2024-12-26T09:43:09.045Z</time>
      </trkpt>
      <trkpt lat="46.72245" lon="-1.96073">
        <ele>12.6</ele>
        <time>2024-12-26T09:43:10.045Z</time>
      </trkpt>
      <trkpt lat="46.72244" lon="-1.96071">
        <ele>13</ele>
        <time>2024-12-26T09:43:11.046Z</time>
      </trkpt>
      <trkpt lat="46.72243" lon="-1.96069">
        <ele>13.3</ele>
        <time>2024-12-26T09:43:12.045Z</time>
      </trkpt>
      <trkpt lat="46.72243" lon="-1.96067">
        <ele>13.6</ele>
        <time>2024-12-26T09:43:13.046Z</time>
      </trkpt>
      <trkpt lat="46.72243" lon="-1.96066">
        <ele>13.7</ele>
        <time>2024-12-26T09:43:14.046Z</time>
      </trkpt>
      <trkpt lat="46.72243" lon="-1.96065">
        <ele>13.8</ele>
        <time>2024-12-26T09:43:15.046Z</time>
      </trkpt>
      <trkpt lat="46.72244" lon="-1.96064">
        <ele>13.8</ele>
        <time>2024-12-26T09:43:16.046Z</time>
      </trkpt>
      <trkpt lat="46.72244" lon="-1.96063">
        <ele>14</ele>
        <time>2024-12-26T09:43:17.045Z</time>
      </trkpt>
      <trkpt lat="46.72243" lon="-1.96061">
        <ele>14.3</ele>
        <time>2024-12-26T09:43:18.045Z</time>
      </trkpt>
      <trkpt lat="46.72242" lon="-1.9606">
        <ele>14.7</ele>
        <time>2024-12-26T09:43:19.045Z</time>
      </trkpt>
      <trkpt lat="46.72241" lon="-1.96058">
        <ele>15</ele>
        <time>2024-12-26T09:43:20.045Z</time>
      </trkpt>
      <trkpt lat="46.72241" lon="-1.96057">
        <ele>15.2</ele>
        <time>2024-12-26T09:43:21.045Z</time>
      </trkpt>
      <trkpt lat="46.7224" lon="-1.96055">
        <ele>15.4</ele>
        <time>2024-12-26T09:43:22.046Z</time>
      </trkpt>
      <trkpt lat="46.7224" lon="-1.96053">
        <ele>15.5</ele>
        <time>2024-12-26T09:43:23.045Z</time>
      </trkpt>
      <trkpt lat="46.7224" lon="-1.96052">
        <ele>15.5</ele>
        <time>2024-12-26T09:43:24.045Z</time>
      </trkpt>
      <trkpt lat="46.7224" lon="-1.96051">
        <ele>15.5</ele>
        <time>2024-12-26T09:43:25.045Z</time>
      </trkpt>
      <trkpt lat="46.72239" lon="-1.9605">
        <ele>15.5</ele>
        <time>2024-12-26T09:43:26.045Z</time>
      </trkpt>
      <trkpt lat="46.72239" lon="-1.96049">
        <ele>15.5</ele>
        <time>2024-12-26T09:43:27.045Z</time>
      </trkpt>
      <trkpt lat="46.72239" lon="-1.96049">
        <ele>15.6</ele>
        <time>2024-12-26T09:43:28.045Z</time>
      </trkpt>
      <trkpt lat="46.72238" lon="-1.96048">
        <ele>15.6</ele>
        <time>2024-12-26T09:43:29.046Z</time>
      </trkpt>
      <trkpt lat="46.72237" lon="-1.96048">
        <ele>15.7</ele>
        <time>2024-12-26T09:43:30.045Z</time>
      </trkpt>
      <trkpt lat="46.72235" lon="-1.96047">
        <ele>15.8</ele>
        <time>2024-12-26T09:43:31.045Z</time>
      </trkpt>
      <trkpt lat="46.72235" lon="-1.96047">
        <ele>15.8</ele>
        <time>2024-12-26T09:43:32.045Z</time>
      </trkpt>
      <trkpt lat="46.72234" lon="-1.96048">
        <ele>15.8</ele>
        <time>2024-12-26T09:43:33.046Z</time>
      </trkpt>
      <trkpt lat="46.72234" lon="-1.96047">
        <ele>15.8</ele>
        <time>2024-12-26T09:43:34.045Z</time>
      </trkpt>
      <trkpt lat="46.72232" lon="-1.96046">
        <ele>15.8</ele>
        <time>2024-12-26T09:43:35.045Z</time>
      </trkpt>
      <trkpt lat="46.72231" lon="-1.96045">
        <ele>15.8</ele>
        <time>2024-12-26T09:43:36.045Z</time>
      </trkpt>
      <trkpt lat="46.7223" lon="-1.96044">
        <ele>15.7</ele>
        <time>2024-12-26T09:43:37.046Z</time>
      </trkpt>
      <trkpt lat="46.72228" lon="-1.96042">
        <ele>15.6</ele>
        <time>2024-12-26T09:43:38.046Z</time>
      </trkpt>
      <trkpt lat="46.72227" lon="-1.9604">
        <ele>15.3</ele>
        <time>2024-12-26T09:43:39.045Z</time>
      </trkpt>
      <trkpt lat="46.72225" lon="-1.96039">
        <ele>15.1</ele>
        <time>2024-12-26T09:43:40.046Z</time>
      </trkpt>
      <trkpt lat="46.72224" lon="-1.96038">
        <ele>14.8</ele>
        <time>2024-12-26T09:43:41.045Z</time>
      </trkpt>
      <trkpt lat="46.72222" lon="-1.96037">
        <ele>14.6</ele>
        <time>2024-12-26T09:43:42.046Z</time>
      </trkpt>
      <trkpt lat="46.72221" lon="-1.96037">
        <ele>14.6</ele>
        <time>2024-12-26T09:43:43.046Z</time>
      </trkpt>
      <trkpt lat="46.72219" lon="-1.96036">
        <ele>14.6</ele>
        <time>2024-12-26T09:43:44.046Z</time>
      </trkpt>
      <trkpt lat="46.72218" lon="-1.96035">
        <ele>14.5</ele>
        <time>2024-12-26T09:43:45.046Z</time>
      </trkpt>
      <trkpt lat="46.72216" lon="-1.96035">
        <ele>14.4</ele>
        <time>2024-12-26T09:43:46.045Z</time>
      </trkpt>
      <trkpt lat="46.72214" lon="-1.96034">
        <ele>14.3</ele>
        <time>2024-12-26T09:43:47.046Z</time>
      </trkpt>
      <trkpt lat="46.72212" lon="-1.96033">
        <ele>14.3</ele>
        <time>2024-12-26T09:43:48.046Z</time>
      </trkpt>
      <trkpt lat="46.72211" lon="-1.96034">
        <ele>14.5</ele>
        <time>2024-12-26T09:43:49.046Z</time>
      </trkpt>
      <trkpt lat="46.7221" lon="-1.96035">
        <ele>14.6</ele>
        <time>2024-12-26T09:43:50.046Z</time>
      </trkpt>
      <trkpt lat="46.72209" lon="-1.96035">
        <ele>14.7</ele>
        <time>2024-12-26T09:43:51.045Z</time>
      </trkpt>
      <trkpt lat="46.72209" lon="-1.96035">
        <ele>14.6</ele>
        <time>2024-12-26T09:43:52.046Z</time>
      </trkpt>
      <trkpt lat="46.72208" lon="-1.96034">
        <ele>14.6</ele>
        <time>2024-12-26T09:43:53.045Z</time>
      </trkpt>
      <trkpt lat="46.72206" lon="-1.96035">
        <ele>14.6</ele>
        <time>2024-12-26T09:43:54.045Z</time>
      </trkpt>
      <trkpt lat="46.72205" lon="-1.96034">
        <ele>14.6</ele>
        <time>2024-12-26T09:43:55.046Z</time>
      </trkpt>
      <trkpt lat="46.72205" lon="-1.96034">
        <ele>14.6</ele>
        <time>2024-12-26T09:43:56.045Z</time>
      </trkpt>
      <trkpt lat="46.72204" lon="-1.96034">
        <ele>14.6</ele>
        <time>2024-12-26T09:43:57.045Z</time>
      </trkpt>
      <trkpt lat="46.72202" lon="-1.96034">
        <ele>14.7</ele>
        <time>2024-12-26T09:43:58.045Z</time>
      </trkpt>
      <trkpt lat="46.72199" lon="-1.96034">
        <ele>14.8</ele>
        <time>2024-12-26T09:43:59.046Z</time>
      </trkpt>
      <trkpt lat="46.72196" lon="-1.96034">
        <ele>14.9</ele>
        <time>2024-12-26T09:44:00.045Z</time>
      </trkpt>
      <trkpt lat="46.72193" lon="-1.96033">
        <ele>14.8</ele>
        <time>2024-12-26T09:44:01.046Z</time>
      </trkpt>
      <trkpt lat="46.72192" lon="-1.96032">
        <ele>14.8</ele>
        <time>2024-12-26T09:44:02.046Z</time>
      </trkpt>
      <trkpt lat="46.72191" lon="-1.96033">
        <ele>15</ele>
        <time>2024-12-26T09:44:03.046Z</time>
      </trkpt>
      <trkpt lat="46.7219" lon="-1.96035">
        <ele>15.2</ele>
        <time>2024-12-26T09:44:04.046Z</time>
      </trkpt>
      <trkpt lat="46.7219" lon="-1.96035">
        <ele>15.3</ele>
        <time>2024-12-26T09:44:05.045Z</time>
      </trkpt>
      <trkpt lat="46.72189" lon="-1.96036">
        <ele>15.4</ele>
        <time>2024-12-26T09:44:06.045Z</time>
      </trkpt>
      <trkpt lat="46.7219" lon="-1.96036">
        <ele>15.4</ele>
        <time>2024-12-26T09:44:07.045Z</time>
      </trkpt>
      <trkpt lat="46.7219" lon="-1.96036">
        <ele>15.4</ele>
        <time>2024-12-26T09:44:08.045Z</time>
      </trkpt>
      <trkpt lat="46.7219" lon="-1.96037">
        <ele>15.5</ele>
        <time>2024-12-26T09:44:09.045Z</time>
      </trkpt>
      <trkpt lat="46.7219" lon="-1.96037">
        <ele>15.5</ele>
        <time>2024-12-26T09:44:10.045Z</time>
      </trkpt>
      <trkpt lat="46.7219" lon="-1.96037">
        <ele>15.5</ele>
        <time>2024-12-26T09:44:11.046Z</time>
      </trkpt>
      <trkpt lat="46.7219" lon="-1.96037">
        <ele>15.5</ele>
        <time>2024-12-26T09:44:12.046Z</time>
      </trkpt>
      <trkpt lat="46.7219" lon="-1.96038">
        <ele>15.6</ele>
        <time>2024-12-26T09:44:13.046Z</time>
      </trkpt>
      <trkpt lat="46.7219" lon="-1.96038">
        <ele>15.6</ele>
        <time>2024-12-26T09:44:14.045Z</time>
      </trkpt>
      <trkpt lat="46.7219" lon="-1.96039">
        <ele>15.7</ele>
        <time>2024-12-26T09:44:15.045Z</time>
      </trkpt>
      <trkpt lat="46.72188" lon="-1.96037">
        <ele>15.6</ele>
        <time>2024-12-26T09:44:16.045Z</time>
      </trkpt>
      <trkpt lat="46.72187" lon="-1.96036">
        <ele>15.5</ele>
        <time>2024-12-26T09:44:17.045Z</time>
      </trkpt>
      <trkpt lat="46.72186" lon="-1.96035">
        <ele>15.5</ele>
        <time>2024-12-26T09:44:18.045Z</time>
      </trkpt>
      <trkpt lat="46.72185" lon="-1.96034">
        <ele>15.5</ele>
        <time>2024-12-26T09:44:19.046Z</time>
      </trkpt>
      <trkpt lat="46.72184" lon="-1.96033">
        <ele>15.5</ele>
        <time>2024-12-26T09:44:20.046Z</time>
      </trkpt>
      <trkpt lat="46.72183" lon="-1.96032">
        <ele>15.5</ele>
        <time>2024-12-26T09:44:21.046Z</time>
      </trkpt>
      <trkpt lat="46.72182" lon="-1.96031">
        <ele>15.5</ele>
        <time>2024-12-26T09:44:22.045Z</time>
      </trkpt>
      <trkpt lat="46.72181" lon="-1.9603">
        <ele>15.5</ele>
        <time>2024-12-26T09:44:23.045Z</time>
      </trkpt>
      <trkpt lat="46.7218" lon="-1.96029">
        <ele>15.6</ele>
        <time>2024-12-26T09:44:24.045Z</time>
      </trkpt>
      <trkpt lat="46.72179" lon="-1.96029">
        <ele>15.7</ele>
        <time>2024-12-26T09:44:25.045Z</time>
      </trkpt>
      <trkpt lat="46.72178" lon="-1.96028">
        <ele>15.8</ele>
        <time>2024-12-26T09:44:26.046Z</time>
      </trkpt>
      <trkpt lat="46.72178" lon="-1.96028">
        <ele>15.8</ele>
        <time>2024-12-26T09:44:27.046Z</time>
      </trkpt>
      <trkpt lat="46.72176" lon="-1.96027">
        <ele>16</ele>
        <time>2024-12-26T09:44:28.046Z</time>
      </trkpt>
      <trkpt lat="46.72174" lon="-1.96027">
        <ele>16.2</ele>
        <time>2024-12-26T09:44:29.046Z</time>
      </trkpt>
      <trkpt lat="46.72172" lon="-1.96028">
        <ele>16.4</ele>
        <time>2024-12-26T09:44:30.046Z</time>
      </trkpt>
      <trkpt lat="46.72171" lon="-1.96029">
        <ele>16.5</ele>
        <time>2024-12-26T09:44:31.046Z</time>
      </trkpt>
      <trkpt lat="46.72168" lon="-1.9603">
        <ele>16.7</ele>
        <time>2024-12-26T09:44:32.046Z</time>
      </trkpt>
      <trkpt lat="46.72166" lon="-1.96032">
        <ele>16.7</ele>
        <time>2024-12-26T09:44:33.045Z</time>
      </trkpt>
      <trkpt lat="46.72165" lon="-1.96034">
        <ele>16.5</ele>
        <time>2024-12-26T09:44:34.045Z</time>
      </trkpt>
      <trkpt lat="46.72164" lon="-1.96037">
        <ele>16.3</ele>
        <time>2024-12-26T09:44:35.045Z</time>
      </trkpt>
      <trkpt lat="46.72162" lon="-1.96037">
        <ele>16.3</ele>
        <time>2024-12-26T09:44:36.046Z</time>
      </trkpt>
      <trkpt lat="46.72162" lon="-1.96039">
        <ele>16.2</ele>
        <time>2024-12-26T09:44:37.045Z</time>
      </trkpt>
      <trkpt lat="46.72161" lon="-1.96041">
        <ele>16</ele>
        <time>2024-12-26T09:44:38.045Z</time>
      </trkpt>
      <trkpt lat="46.7216" lon="-1.96043">
        <ele>15.8</ele>
        <time>2024-12-26T09:44:39.046Z</time>
      </trkpt>
      <trkpt lat="46.72159" lon="-1.96045">
        <ele>15.6</ele>
        <time>2024-12-26T09:44:40.046Z</time>
      </trkpt>
      <trkpt lat="46.72159" lon="-1.96046">
        <ele>15.5</ele>
        <time>2024-12-26T09:44:41.046Z</time>
      </trkpt>
      <trkpt lat="46.72158" lon="-1.96049">
        <ele>15.3</ele>
        <time>2024-12-26T09:44:42.046Z</time>
      </trkpt>
      <trkpt lat="46.72157" lon="-1.96051">
        <ele>15</ele>
        <time>2024-12-26T09:44:43.045Z</time>
      </trkpt>
      <trkpt lat="46.72156" lon="-1.96054">
        <ele>14.8</ele>
        <time>2024-12-26T09:44:44.045Z</time>
      </trkpt>
      <trkpt lat="46.72155" lon="-1.96055">
        <ele>14.6</ele>
        <time>2024-12-26T09:44:45.046Z</time>
      </trkpt>
      <trkpt lat="46.72154" lon="-1.96057">
        <ele>14.5</ele>
        <time>2024-12-26T09:44:46.046Z</time>
      </trkpt>
      <trkpt lat="46.72153" lon="-1.96058">
        <ele>14.4</ele>
        <time>2024-12-26T09:44:47.045Z</time>
      </trkpt>
      <trkpt lat="46.72152" lon="-1.9606">
        <ele>14.3</ele>
        <time>2024-12-26T09:44:48.045Z</time>
      </trkpt>
      <trkpt lat="46.7215" lon="-1.96063">
        <ele>14.2</ele>
        <time>2024-12-26T09:44:49.045Z</time>
      </trkpt>
      <trkpt lat="46.72149" lon="-1.96064">
        <ele>14.2</ele>
        <time>2024-12-26T09:44:50.046Z</time>
      </trkpt>
      <trkpt lat="46.72149" lon="-1.96065">
        <ele>14.1</ele>
        <time>2024-12-26T09:44:51.045Z</time>
      </trkpt>
      <trkpt lat="46.72148" lon="-1.96067">
        <ele>14.1</ele>
        <time>2024-12-26T09:44:52.046Z</time>
      </trkpt>
      <trkpt lat="46.72148" lon="-1.96068">
        <ele>14</ele>
        <time>2024-12-26T09:44:53.046Z</time>
      </trkpt>
      <trkpt lat="46.72147" lon="-1.96069">
        <ele>14</ele>
        <time>2024-12-26T09:44:54.045Z</time>
      </trkpt>
      <trkpt lat="46.72146" lon="-1.96071">
        <ele>14</ele>
        <time>2024-12-26T09:44:55.045Z</time>
      </trkpt>
      <trkpt lat="46.72146" lon="-1.96072">
        <ele>13.9</ele>
        <time>2024-12-26T09:44:56.045Z</time>
      </trkpt>
      <trkpt lat="46.72146" lon="-1.96074">
        <ele>13.9</ele>
        <time>2024-12-26T09:44:57.045Z</time>
      </trkpt>
      <trkpt lat="46.72146" lon="-1.96076">
        <ele>13.9</ele>
        <time>2024-12-26T09:44:58.046Z</time>
      </trkpt>
      <trkpt lat="46.72147" lon="-1.96078">
        <ele>13.8</ele>
        <time>2024-12-26T09:44:59.045Z</time>
      </trkpt>
      <trkpt lat="46.72146" lon="-1.9608">
        <ele>13.8</ele>
        <time>2024-12-26T09:45:00.045Z</time>
      </trkpt>
      <trkpt lat="46.72145" lon="-1.96082">
        <ele>13.8</ele>
        <time>2024-12-26T09:45:01.046Z</time>
      </trkpt>
      <trkpt lat="46.72145" lon="-1.96083">
        <ele>13.8</ele>
        <time>2024-12-26T09:45:02.046Z</time>
      </trkpt>
      <trkpt lat="46.72146" lon="-1.96085">
        <ele>13.7</ele>
        <time>2024-12-26T09:45:03.045Z</time>
      </trkpt>
      <trkpt lat="46.72146" lon="-1.96085">
        <ele>13.7</ele>
        <time>2024-12-26T09:45:04.046Z</time>
      </trkpt>
      <trkpt lat="46.72145" lon="-1.96084">
        <ele>13.7</ele>
        <time>2024-12-26T09:45:05.046Z</time>
      </trkpt>
      <trkpt lat="46.72145" lon="-1.96085">
        <ele>13.7</ele>
        <time>2024-12-26T09:45:06.045Z</time>
      </trkpt>
      <trkpt lat="46.72144" lon="-1.96086">
        <ele>13.6</ele>
        <time>2024-12-26T09:45:07.045Z</time>
      </trkpt>
      <trkpt lat="46.72144" lon="-1.96088">
        <ele>13.6</ele>
        <time>2024-12-26T09:45:08.045Z</time>
      </trkpt>
      <trkpt lat="46.72144" lon="-1.9609">
        <ele>13.4</ele>
        <time>2024-12-26T09:45:09.046Z</time>
      </trkpt>
      <trkpt lat="46.72144" lon="-1.96092">
        <ele>13.3</ele>
        <time>2024-12-26T09:45:10.046Z</time>
      </trkpt>
      <trkpt lat="46.72143" lon="-1.96095">
        <ele>13.2</ele>
        <time>2024-12-26T09:45:11.045Z</time>
      </trkpt>
      <trkpt lat="46.72143" lon="-1.96097">
        <ele>13</ele>
        <time>2024-12-26T09:45:12.046Z</time>
      </trkpt>
      <trkpt lat="46.72143" lon="-1.96099">
        <ele>12.9</ele>
        <time>2024-12-26T09:45:13.046Z</time>
      </trkpt>
      <trkpt lat="46.72142" lon="-1.961">
        <ele>12.8</ele>
        <time>2024-12-26T09:45:14.046Z</time>
      </trkpt>
      <trkpt lat="46.72141" lon="-1.96102">
        <ele>12.7</ele>
        <time>2024-12-26T09:45:15.045Z</time>
      </trkpt>
      <trkpt lat="46.72141" lon="-1.96103">
        <ele>12.6</ele>
        <time>2024-12-26T09:45:16.046Z</time>
      </trkpt>
      <trkpt lat="46.72141" lon="-1.96105">
        <ele>12.5</ele>
        <time>2024-12-26T09:45:17.045Z</time>
      </trkpt>
      <trkpt lat="46.72142" lon="-1.96107">
        <ele>12.4</ele>
        <time>2024-12-26T09:45:18.045Z</time>
      </trkpt>
      <trkpt lat="46.72143" lon="-1.96109">
        <ele>12.3</ele>
        <time>2024-12-26T09:45:19.045Z</time>
      </trkpt>
      <trkpt lat="46.72143" lon="-1.96111">
        <ele>12.2</ele>
        <time>2024-12-26T09:45:20.045Z</time>
      </trkpt>
      <trkpt lat="46.72144" lon="-1.96112">
        <ele>12.1</ele>
        <time>2024-12-26T09:45:21.046Z</time>
      </trkpt>
      <trkpt lat="46.72144" lon="-1.96115">
        <ele>12</ele>
        <time>2024-12-26T09:45:22.046Z</time>
      </trkpt>
      <trkpt lat="46.72143" lon="-1.96117">
        <ele>11.9</ele>
        <time>2024-12-26T09:45:23.046Z</time>
      </trkpt>
      <trkpt lat="46.72143" lon="-1.96118">
        <ele>11.9</ele>
        <time>2024-12-26T09:45:24.045Z</time>
      </trkpt>
      <trkpt lat="46.72142" lon="-1.96119">
        <ele>11.8</ele>
        <time>2024-12-26T09:45:25.046Z</time>
      </trkpt>
      <trkpt lat="46.72141" lon="-1.96119">
        <ele>11.8</ele>
        <time>2024-12-26T09:45:26.045Z</time>
      </trkpt>
      <trkpt lat="46.7214" lon="-1.96121">
        <ele>11.7</ele>
        <time>2024-12-26T09:45:27.046Z</time>
      </trkpt>
      <trkpt lat="46.72139" lon="-1.96122">
        <ele>11.6</ele>
        <time>2024-12-26T09:45:28.046Z</time>
      </trkpt>
      <trkpt lat="46.72138" lon="-1.96122">
        <ele>11.6</ele>
        <time>2024-12-26T09:45:29.046Z</time>
      </trkpt>
      <trkpt lat="46.72137" lon="-1.96123">
        <ele>11.6</ele>
        <time>2024-12-26T09:45:30.046Z</time>
      </trkpt>
      <trkpt lat="46.72137" lon="-1.96123">
        <ele>11.6</ele>
        <time>2024-12-26T09:45:31.046Z</time>
      </trkpt>
      <trkpt lat="46.72136" lon="-1.96123">
        <ele>11.6</ele>
        <time>2024-12-26T09:45:32.045Z</time>
      </trkpt>
      <trkpt lat="46.72136" lon="-1.96121">
        <ele>11.6</ele>
        <time>2024-12-26T09:45:33.045Z</time>
      </trkpt>
      <trkpt lat="46.72135" lon="-1.9612">
        <ele>11.7</ele>
        <time>2024-12-26T09:45:34.046Z</time>
      </trkpt>
      <trkpt lat="46.72135" lon="-1.96119">
        <ele>11.7</ele>
        <time>2024-12-26T09:45:35.046Z</time>
      </trkpt>
      <trkpt lat="46.72134" lon="-1.96118">
        <ele>11.7</ele>
        <time>2024-12-26T09:45:36.045Z</time>
      </trkpt>
      <trkpt lat="46.72134" lon="-1.9612">
        <ele>11.7</ele>
        <time>2024-12-26T09:45:37.046Z</time>
      </trkpt>
      <trkpt lat="46.72133" lon="-1.96121">
        <ele>11.6</ele>
        <time>2024-12-26T09:45:38.045Z</time>
      </trkpt>
      <trkpt lat="46.72131" lon="-1.96124">
        <ele>11.6</ele>
        <time>2024-12-26T09:45:39.045Z</time>
      </trkpt>
      <trkpt lat="46.72129" lon="-1.96125">
        <ele>11.5</ele>
        <time>2024-12-26T09:45:40.046Z</time>
      </trkpt>
      <trkpt lat="46.72127" lon="-1.96125">
        <ele>11.5</ele>
        <time>2024-12-26T09:45:41.046Z</time>
      </trkpt>
      <trkpt lat="46.72128" lon="-1.96125">
        <ele>11.5</ele>
        <time>2024-12-26T09:45:42.045Z</time>
      </trkpt>
      <trkpt lat="46.72128" lon="-1.96125">
        <ele>11.5</ele>
        <time>2024-12-26T09:45:43.045Z</time>
      </trkpt>
      <trkpt lat="46.72128" lon="-1.96124">
        <ele>11.5</ele>
        <time>2024-12-26T09:45:44.045Z</time>
      </trkpt>
      <trkpt lat="46.72127" lon="-1.96125">
        <ele>11.5</ele>
        <time>2024-12-26T09:45:45.046Z</time>
      </trkpt>
      <trkpt lat="46.72127" lon="-1.96125">
        <ele>11.5</ele>
        <time>2024-12-26T09:45:46.045Z</time>
      </trkpt>
      <trkpt lat="46.72127" lon="-1.96125">
        <ele>11.5</ele>
        <time>2024-12-26T09:45:47.046Z</time>
      </trkpt>
      <trkpt lat="46.72126" lon="-1.96124">
        <ele>11.5</ele>
        <time>2024-12-26T09:45:48.045Z</time>
      </trkpt>
      <trkpt lat="46.72125" lon="-1.96124">
        <ele>11.5</ele>
        <time>2024-12-26T09:45:49.046Z</time>
      </trkpt>
      <trkpt lat="46.72123" lon="-1.96126">
        <ele>11.5</ele>
        <time>2024-12-26T09:45:50.045Z</time>
      </trkpt>
      <trkpt lat="46.72122" lon="-1.96126">
        <ele>11.5</ele>
        <time>2024-12-26T09:45:51.046Z</time>
      </trkpt>
      <trkpt lat="46.72121" lon="-1.96127">
        <ele>11.4</ele>
        <time>2024-12-26T09:45:52.046Z</time>
      </trkpt>
      <trkpt lat="46.7212" lon="-1.96126">
        <ele>11.5</ele>
        <time>2024-12-26T09:45:53.046Z</time>
      </trkpt>
      <trkpt lat="46.72119" lon="-1.96124">
        <ele>11.5</ele>
        <time>2024-12-26T09:45:54.046Z</time>
      </trkpt>
      <trkpt lat="46.72117" lon="-1.96121">
        <ele>11.6</ele>
        <time>2024-12-26T09:45:55.046Z</time>
      </trkpt>
      <trkpt lat="46.72116" lon="-1.96119">
        <ele>11.7</ele>
        <time>2024-12-26T09:45:56.046Z</time>
      </trkpt>
      <trkpt lat="46.72114" lon="-1.96117">
        <ele>11.8</ele>
        <time>2024-12-26T09:45:57.046Z</time>
      </trkpt>
      <trkpt lat="46.72112" lon="-1.96116">
        <ele>11.8</ele>
        <time>2024-12-26T09:45:58.046Z</time>
      </trkpt>
      <trkpt lat="46.72111" lon="-1.96116">
        <ele>11.8</ele>
        <time>2024-12-26T09:45:59.045Z</time>
      </trkpt>
      <trkpt lat="46.7211" lon="-1.96116">
        <ele>11.8</ele>
        <time>2024-12-26T09:46:00.045Z</time>
      </trkpt>
      <trkpt lat="46.72108" lon="-1.96115">
        <ele>11.8</ele>
        <time>2024-12-26T09:46:01.045Z</time>
      </trkpt>
      <trkpt lat="46.72107" lon="-1.96115">
        <ele>11.7</ele>
        <time>2024-12-26T09:46:02.045Z</time>
      </trkpt>
      <trkpt lat="46.72106" lon="-1.96114">
        <ele>11.7</ele>
        <time>2024-12-26T09:46:03.046Z</time>
      </trkpt>
      <trkpt lat="46.72105" lon="-1.96113">
        <ele>11.7</ele>
        <time>2024-12-26T09:46:04.046Z</time>
      </trkpt>
      <trkpt lat="46.72104" lon="-1.96112">
        <ele>11.7</ele>
        <time>2024-12-26T09:46:05.045Z</time>
      </trkpt>
      <trkpt lat="46.72103" lon="-1.96111">
        <ele>11.7</ele>
        <time>2024-12-26T09:46:06.046Z</time>
      </trkpt>
      <trkpt lat="46.72101" lon="-1.96111">
        <ele>11.7</ele>
        <time>2024-12-26T09:46:07.045Z</time>
      </trkpt>
      <trkpt lat="46.721" lon="-1.96109">
        <ele>11.8</ele>
        <time>2024-12-26T09:46:08.045Z</time>
      </trkpt>
      <trkpt lat="46.72099" lon="-1.96108">
        <ele>11.9</ele>
        <time>2024-12-26T09:46:09.045Z</time>
      </trkpt>
      <trkpt lat="46.72097" lon="-1.96107">
        <ele>11.9</ele>
        <time>2024-12-26T09:46:10.045Z</time>
      </trkpt>
      <trkpt lat="46.72096" lon="-1.96107">
        <ele>11.9</ele>
        <time>2024-12-26T09:46:11.046Z</time>
      </trkpt>
      <trkpt lat="46.72094" lon="-1.96107">
        <ele>11.8</ele>
        <time>2024-12-26T09:46:12.046Z</time>
      </trkpt>
      <trkpt lat="46.72093" lon="-1.96107">
        <ele>11.7</ele>
        <time>2024-12-26T09:46:13.046Z</time>
      </trkpt>
      <trkpt lat="46.72091" lon="-1.96106">
        <ele>11.7</ele>
        <time>2024-12-26T09:46:14.046Z</time>
      </trkpt>
      <trkpt lat="46.7209" lon="-1.96105">
        <ele>11.8</ele>
        <time>2024-12-26T09:46:15.046Z</time>
      </trkpt>
      <trkpt lat="46.72088" lon="-1.96104">
        <ele>11.8</ele>
        <time>2024-12-26T09:46:16.045Z</time>
      </trkpt>
      <trkpt lat="46.72086" lon="-1.96102">
        <ele>11.9</ele>
        <time>2024-12-26T09:46:17.046Z</time>
      </trkpt>
      <trkpt lat="46.72085" lon="-1.961">
        <ele>11.9</ele>
        <time>2024-12-26T09:46:18.046Z</time>
      </trkpt>
      <trkpt lat="46.72083" lon="-1.961">
        <ele>11.8</ele>
        <time>2024-12-26T09:46:19.046Z</time>
      </trkpt>
      <trkpt lat="46.72081" lon="-1.96099">
        <ele>11.9</ele>
        <time>2024-12-26T09:46:20.046Z</time>
      </trkpt>
      <trkpt lat="46.7208" lon="-1.96099">
        <ele>12</ele>
        <time>2024-12-26T09:46:21.046Z</time>
      </trkpt>
      <trkpt lat="46.72078" lon="-1.96098">
        <ele>12</ele>
        <time>2024-12-26T09:46:22.045Z</time>
      </trkpt>
      <trkpt lat="46.72076" lon="-1.96096">
        <ele>12.2</ele>
        <time>2024-12-26T09:46:23.045Z</time>
      </trkpt>
      <trkpt lat="46.72075" lon="-1.96097">
        <ele>12.2</ele>
        <time>2024-12-26T09:46:24.046Z</time>
      </trkpt>
      <trkpt lat="46.72074" lon="-1.96098">
        <ele>12.1</ele>
        <time>2024-12-26T09:46:25.046Z</time>
      </trkpt>
      <trkpt lat="46.72073" lon="-1.96099">
        <ele>12</ele>
        <time>2024-12-26T09:46:26.046Z</time>
      </trkpt>
      <trkpt lat="46.72072" lon="-1.961">
        <ele>11.9</ele>
        <time>2024-12-26T09:46:27.045Z</time>
      </trkpt>
      <trkpt lat="46.72072" lon="-1.96101">
        <ele>11.9</ele>
        <time>2024-12-26T09:46:28.045Z</time>
      </trkpt>
      <trkpt lat="46.72072" lon="-1.96101">
        <ele>11.9</ele>
        <time>2024-12-26T09:46:29.046Z</time>
      </trkpt>
      <trkpt lat="46.72072" lon="-1.96102">
        <ele>11.8</ele>
        <time>2024-12-26T09:46:30.045Z</time>
      </trkpt>
      <trkpt lat="46.72072" lon="-1.96102">
        <ele>11.8</ele>
        <time>2024-12-26T09:46:31.046Z</time>
      </trkpt>
      <trkpt lat="46.72072" lon="-1.96102">
        <ele>11.8</ele>
        <time>2024-12-26T09:46:32.045Z</time>
      </trkpt>
      <trkpt lat="46.72072" lon="-1.96102">
        <ele>11.8</ele>
        <time>2024-12-26T09:46:33.045Z</time>
      </trkpt>
      <trkpt lat="46.72072" lon="-1.96102">
        <ele>11.8</ele>
        <time>2024-12-26T09:46:34.045Z</time>
      </trkpt>
      <trkpt lat="46.72071" lon="-1.96102">
        <ele>11.8</ele>
        <time>2024-12-26T09:46:35.046Z</time>
      </trkpt>
      <trkpt lat="46.7207" lon="-1.96103">
        <ele>11.7</ele>
        <time>2024-12-26T09:46:36.045Z</time>
      </trkpt>
      <trkpt lat="46.7207" lon="-1.96103">
        <ele>11.8</ele>
        <time>2024-12-26T09:46:37.046Z</time>
      </trkpt>
      <trkpt lat="46.72069" lon="-1.96102">
        <ele>11.8</ele>
        <time>2024-12-26T09:46:38.046Z</time>
      </trkpt>
      <trkpt lat="46.72069" lon="-1.96102">
        <ele>11.9</ele>
        <time>2024-12-26T09:46:39.046Z</time>
      </trkpt>
      <trkpt lat="46.72069" lon="-1.96103">
        <ele>11.8</ele>
        <time>2024-12-26T09:46:40.045Z</time>
      </trkpt>
      <trkpt lat="46.72069" lon="-1.96103">
        <ele>11.7</ele>
        <time>2024-12-26T09:46:41.046Z</time>
      </trkpt>
      <trkpt lat="46.72069" lon="-1.96104">
        <ele>11.7</ele>
        <time>2024-12-26T09:46:42.046Z</time>
      </trkpt>
      <trkpt lat="46.72067" lon="-1.96105">
        <ele>11.6</ele>
        <time>2024-12-26T09:46:43.046Z</time>
      </trkpt>
      <trkpt lat="46.72066" lon="-1.96107">
        <ele>11.4</ele>
        <time>2024-12-26T09:46:44.045Z</time>
      </trkpt>
      <trkpt lat="46.72064" lon="-1.96109">
        <ele>11.2</ele>
        <time>2024-12-26T09:46:45.046Z</time>
      </trkpt>
      <trkpt lat="46.72063" lon="-1.9611">
        <ele>11.1</ele>
        <time>2024-12-26T09:46:46.046Z</time>
      </trkpt>
      <trkpt lat="46.72061" lon="-1.96111">
        <ele>11</ele>
        <time>2024-12-26T09:46:47.046Z</time>
      </trkpt>
      <trkpt lat="46.72059" lon="-1.96112">
        <ele>11</ele>
        <time>2024-12-26T09:46:48.046Z</time>
      </trkpt>
      <trkpt lat="46.72058" lon="-1.96113">
        <ele>11</ele>
        <time>2024-12-26T09:46:49.046Z</time>
      </trkpt>
      <trkpt lat="46.72056" lon="-1.96114">
        <ele>11</ele>
        <time>2024-12-26T09:46:50.046Z</time>
      </trkpt>
      <trkpt lat="46.72055" lon="-1.96117">
        <ele>11</ele>
        <time>2024-12-26T09:46:51.045Z</time>
      </trkpt>
      <trkpt lat="46.72055" lon="-1.96119">
        <ele>11</ele>
        <time>2024-12-26T09:46:52.046Z</time>
      </trkpt>
      <trkpt lat="46.72055" lon="-1.96121">
        <ele>11</ele>
        <time>2024-12-26T09:46:53.045Z</time>
      </trkpt>
      <trkpt lat="46.72055" lon="-1.96123">
        <ele>11</ele>
        <time>2024-12-26T09:46:54.045Z</time>
      </trkpt>
      <trkpt lat="46.72054" lon="-1.96125">
        <ele>11.1</ele>
        <time>2024-12-26T09:46:55.045Z</time>
      </trkpt>
      <trkpt lat="46.72053" lon="-1.96127">
        <ele>11.1</ele>
        <time>2024-12-26T09:46:56.046Z</time>
      </trkpt>
      <trkpt lat="46.7205" lon="-1.96131">
        <ele>11.2</ele>
        <time>2024-12-26T09:46:57.045Z</time>
      </trkpt>
      <trkpt lat="46.7205" lon="-1.96134">
        <ele>11.2</ele>
        <time>2024-12-26T09:46:58.046Z</time>
      </trkpt>
      <trkpt lat="46.72049" lon="-1.96136">
        <ele>11.3</ele>
        <time>2024-12-26T09:46:59.045Z</time>
      </trkpt>
      <trkpt lat="46.72048" lon="-1.96139">
        <ele>11.3</ele>
        <time>2024-12-26T09:47:00.046Z</time>
      </trkpt>
      <trkpt lat="46.72048" lon="-1.96141">
        <ele>11.3</ele>
        <time>2024-12-26T09:47:01.046Z</time>
      </trkpt>
      <trkpt lat="46.72048" lon="-1.96144">
        <ele>11.3</ele>
        <time>2024-12-26T09:47:02.046Z</time>
      </trkpt>
      <trkpt lat="46.72048" lon="-1.96146">
        <ele>11.3</ele>
        <time>2024-12-26T09:47:03.045Z</time>
      </trkpt>
      <trkpt lat="46.72047" lon="-1.96148">
        <ele>11.3</ele>
        <time>2024-12-26T09:47:04.045Z</time>
      </trkpt>
      <trkpt lat="46.72045" lon="-1.96151">
        <ele>11.4</ele>
        <time>2024-12-26T09:47:05.046Z</time>
      </trkpt>
      <trkpt lat="46.72043" lon="-1.96153">
        <ele>11.5</ele>
        <time>2024-12-26T09:47:06.045Z</time>
      </trkpt>
      <trkpt lat="46.72041" lon="-1.96153">
        <ele>11.5</ele>
        <time>2024-12-26T09:47:07.045Z</time>
      </trkpt>
      <trkpt lat="46.72041" lon="-1.96155">
        <ele>11.5</ele>
        <time>2024-12-26T09:47:08.046Z</time>
      </trkpt>
      <trkpt lat="46.7204" lon="-1.96157">
        <ele>11.6</ele>
        <time>2024-12-26T09:47:09.045Z</time>
      </trkpt>
      <trkpt lat="46.7204" lon="-1.96159">
        <ele>11.6</ele>
        <time>2024-12-26T09:47:10.046Z</time>
      </trkpt>
      <trkpt lat="46.7204" lon="-1.96161">
        <ele>11.6</ele>
        <time>2024-12-26T09:47:11.045Z</time>
      </trkpt>
      <trkpt lat="46.7204" lon="-1.96164">
        <ele>11.6</ele>
        <time>2024-12-26T09:47:12.045Z</time>
      </trkpt>
      <trkpt lat="46.7204" lon="-1.96167">
        <ele>11.6</ele>
        <time>2024-12-26T09:47:13.046Z</time>
      </trkpt>
      <trkpt lat="46.7204" lon="-1.96169">
        <ele>11.6</ele>
        <time>2024-12-26T09:47:14.046Z</time>
      </trkpt>
      <trkpt lat="46.7204" lon="-1.96172">
        <ele>11.6</ele>
        <time>2024-12-26T09:47:15.046Z</time>
      </trkpt>
      <trkpt lat="46.72039" lon="-1.96174">
        <ele>11.6</ele>
        <time>2024-12-26T09:47:16.046Z</time>
      </trkpt>
      <trkpt lat="46.72038" lon="-1.96176">
        <ele>11.7</ele>
        <time>2024-12-26T09:47:17.046Z</time>
      </trkpt>
      <trkpt lat="46.72037" lon="-1.96177">
        <ele>11.7</ele>
        <time>2024-12-26T09:47:18.046Z</time>
      </trkpt>
      <trkpt lat="46.72038" lon="-1.96179">
        <ele>11.6</ele>
        <time>2024-12-26T09:47:19.045Z</time>
      </trkpt>
      <trkpt lat="46.72039" lon="-1.96182">
        <ele>11.6</ele>
        <time>2024-12-26T09:47:20.045Z</time>
      </trkpt>
      <trkpt lat="46.7204" lon="-1.96184">
        <ele>11.6</ele>
        <time>2024-12-26T09:47:21.045Z</time>
      </trkpt>
      <trkpt lat="46.72041" lon="-1.96186">
        <ele>11.5</ele>
        <time>2024-12-26T09:47:22.045Z</time>
      </trkpt>
      <trkpt lat="46.72042" lon="-1.96189">
        <ele>11.5</ele>
        <time>2024-12-26T09:47:23.045Z</time>
      </trkpt>
      <trkpt lat="46.72044" lon="-1.96192">
        <ele>11.4</ele>
        <time>2024-12-26T09:47:24.046Z</time>
      </trkpt>
      <trkpt lat="46.72045" lon="-1.96195">
        <ele>11.4</ele>
        <time>2024-12-26T09:47:25.046Z</time>
      </trkpt>
      <trkpt lat="46.72047" lon="-1.96197">
        <ele>11.3</ele>
        <time>2024-12-26T09:47:26.045Z</time>
      </trkpt>
      <trkpt lat="46.72048" lon="-1.962">
        <ele>11.3</ele>
        <time>2024-12-26T09:47:27.045Z</time>
      </trkpt>
      <trkpt lat="46.7205" lon="-1.96202">
        <ele>11.2</ele>
        <time>2024-12-26T09:47:28.045Z</time>
      </trkpt>
      <trkpt lat="46.72051" lon="-1.96204">
        <ele>11.2</ele>
        <time>2024-12-26T09:47:29.045Z</time>
      </trkpt>
      <trkpt lat="46.72052" lon="-1.96206">
        <ele>11.1</ele>
        <time>2024-12-26T09:47:30.045Z</time>
      </trkpt>
      <trkpt lat="46.72053" lon="-1.96208">
        <ele>11.1</ele>
        <time>2024-12-26T09:47:31.046Z</time>
      </trkpt>
      <trkpt lat="46.72054" lon="-1.9621">
        <ele>11</ele>
        <time>2024-12-26T09:47:32.045Z</time>
      </trkpt>
      <trkpt lat="46.72056" lon="-1.96212">
        <ele>11</ele>
        <time>2024-12-26T09:47:33.045Z</time>
      </trkpt>
      <trkpt lat="46.72057" lon="-1.96213">
        <ele>11</ele>
        <time>2024-12-26T09:47:34.045Z</time>
      </trkpt>
      <trkpt lat="46.72059" lon="-1.96214">
        <ele>11</ele>
        <time>2024-12-26T09:47:35.045Z</time>
      </trkpt>
      <trkpt lat="46.7206" lon="-1.96215">
        <ele>11</ele>
        <time>2024-12-26T09:47:36.045Z</time>
      </trkpt>
      <trkpt lat="46.72061" lon="-1.96216">
        <ele>11</ele>
        <time>2024-12-26T09:47:37.045Z</time>
      </trkpt>
      <trkpt lat="46.72062" lon="-1.96218">
        <ele>11</ele>
        <time>2024-12-26T09:47:38.046Z</time>
      </trkpt>
      <trkpt lat="46.72063" lon="-1.96219">
        <ele>11</ele>
        <time>2024-12-26T09:47:39.046Z</time>
      </trkpt>
      <trkpt lat="46.72064" lon="-1.96219">
        <ele>11</ele>
        <time>2024-12-26T09:47:40.046Z</time>
      </trkpt>
      <trkpt lat="46.72065" lon="-1.9622">
        <ele>11</ele>
        <time>2024-12-26T09:47:41.046Z</time>
      </trkpt>
      <trkpt lat="46.72065" lon="-1.9622">
        <ele>11</ele>
        <time>2024-12-26T09:47:42.046Z</time>
      </trkpt>
      <trkpt lat="46.72066" lon="-1.96221">
        <ele>11</ele>
        <time>2024-12-26T09:47:43.046Z</time>
      </trkpt>
      <trkpt lat="46.72066" lon="-1.96222">
        <ele>11</ele>
        <time>2024-12-26T09:47:44.045Z</time>
      </trkpt>
      <trkpt lat="46.72066" lon="-1.96222">
        <ele>11</ele>
        <time>2024-12-26T09:47:45.045Z</time>
      </trkpt>
      <trkpt lat="46.72066" lon="-1.96222">
        <ele>11</ele>
        <time>2024-12-26T09:47:46.045Z</time>
      </trkpt>
      <trkpt lat="46.72067" lon="-1.96222">
        <ele>11</ele>
        <time>2024-12-26T09:47:47.045Z</time>
      </trkpt>
      <trkpt lat="46.72068" lon="-1.96223">
        <ele>11</ele>
        <time>2024-12-26T09:47:48.045Z</time>
      </trkpt>
      <trkpt lat="46.72068" lon="-1.96224">
        <ele>11</ele>
        <time>2024-12-26T09:47:49.045Z</time>
      </trkpt>
      <trkpt lat="46.72069" lon="-1.96225">
        <ele>11</ele>
        <time>2024-12-26T09:47:50.046Z</time>
      </trkpt>
      <trkpt lat="46.72069" lon="-1.96226">
        <ele>11</ele>
        <time>2024-12-26T09:47:51.045Z</time>
      </trkpt>
      <trkpt lat="46.7207" lon="-1.96226">
        <ele>11</ele>
        <time>2024-12-26T09:47:52.046Z</time>
      </trkpt>
      <trkpt lat="46.72071" lon="-1.96226">
        <ele>11</ele>
        <time>2024-12-26T09:47:53.045Z</time>
      </trkpt>
      <trkpt lat="46.72072" lon="-1.96226">
        <ele>11</ele>
        <time>2024-12-26T09:47:54.045Z</time>
      </trkpt>
      <trkpt lat="46.72073" lon="-1.96226">
        <ele>11</ele>
        <time>2024-12-26T09:47:55.046Z</time>
      </trkpt>
      <trkpt lat="46.72074" lon="-1.96227">
        <ele>11</ele>
        <time>2024-12-26T09:47:56.045Z</time>
      </trkpt>
      <trkpt lat="46.72076" lon="-1.96227">
        <ele>11</ele>
        <time>2024-12-26T09:47:57.045Z</time>
      </trkpt>
      <trkpt lat="46.72076" lon="-1.96228">
        <ele>11</ele>
        <time>2024-12-26T09:47:58.045Z</time>
      </trkpt>
      <trkpt lat="46.72078" lon="-1.96229">
        <ele>11</ele>
        <time>2024-12-26T09:47:59.045Z</time>
      </trkpt>
      <trkpt lat="46.72079" lon="-1.9623">
        <ele>11</ele>
        <time>2024-12-26T09:48:00.045Z</time>
      </trkpt>
      <trkpt lat="46.7208" lon="-1.96231">
        <ele>11</ele>
        <time>2024-12-26T09:48:01.045Z</time>
      </trkpt>
      <trkpt lat="46.72081" lon="-1.96231">
        <ele>11</ele>
        <time>2024-12-26T09:48:02.046Z</time>
      </trkpt>
      <trkpt lat="46.72082" lon="-1.9623">
        <ele>11</ele>
        <time>2024-12-26T09:48:03.045Z</time>
      </trkpt>
      <trkpt lat="46.72084" lon="-1.96231">
        <ele>11</ele>
        <time>2024-12-26T09:48:04.045Z</time>
      </trkpt>
      <trkpt lat="46.72085" lon="-1.96231">
        <ele>11</ele>
        <time>2024-12-26T09:48:05.045Z</time>
      </trkpt>
      <trkpt lat="46.72086" lon="-1.96231">
        <ele>11</ele>
        <time>2024-12-26T09:48:06.045Z</time>
      </trkpt>
      <trkpt lat="46.72086" lon="-1.96231">
        <ele>11</ele>
        <time>2024-12-26T09:48:07.045Z</time>
      </trkpt>
      <trkpt lat="46.72087" lon="-1.96232">
        <ele>11</ele>
        <time>2024-12-26T09:48:08.046Z</time>
      </trkpt>
      <trkpt lat="46.72088" lon="-1.96232">
        <ele>11</ele>
        <time>2024-12-26T09:48:09.046Z</time>
      </trkpt>
      <trkpt lat="46.72088" lon="-1.96232">
        <ele>11</ele>
        <time>2024-12-26T09:48:10.046Z</time>
      </trkpt>
      <trkpt lat="46.72088" lon="-1.96232">
        <ele>11</ele>
        <time>2024-12-26T09:48:11.045Z</time>
      </trkpt>
      <trkpt lat="46.72088" lon="-1.96233">
        <ele>11</ele>
        <time>2024-12-26T09:48:12.045Z</time>
      </trkpt>
      <trkpt lat="46.72088" lon="-1.96233">
        <ele>11</ele>
        <time>2024-12-26T09:48:13.045Z</time>
      </trkpt>
      <trkpt lat="46.72088" lon="-1.96234">
        <ele>11</ele>
        <time>2024-12-26T09:48:14.046Z</time>
      </trkpt>
      <trkpt lat="46.72089" lon="-1.96235">
        <ele>11</ele>
        <time>2024-12-26T09:48:15.045Z</time>
      </trkpt>
      <trkpt lat="46.7209" lon="-1.96236">
        <ele>11</ele>
        <time>2024-12-26T09:48:16.045Z</time>
      </trkpt>
      <trkpt lat="46.72091" lon="-1.96236">
        <ele>11</ele>
        <time>2024-12-26T09:48:17.046Z</time>
      </trkpt>
      <trkpt lat="46.72092" lon="-1.96235">
        <ele>11</ele>
        <time>2024-12-26T09:48:18.046Z</time>
      </trkpt>
      <trkpt lat="46.72092" lon="-1.96235">
        <ele>11</ele>
        <time>2024-12-26T09:48:19.046Z</time>
      </trkpt>
      <trkpt lat="46.72093" lon="-1.96235">
        <ele>11</ele>
        <time>2024-12-26T09:48:20.046Z</time>
      </trkpt>
      <trkpt lat="46.72093" lon="-1.96236">
        <ele>11</ele>
        <time>2024-12-26T09:48:21.045Z</time>
      </trkpt>
      <trkpt lat="46.72094" lon="-1.96236">
        <ele>11</ele>
        <time>2024-12-26T09:48:22.046Z</time>
      </trkpt>
      <trkpt lat="46.72094" lon="-1.96236">
        <ele>11</ele>
        <time>2024-12-26T09:48:23.046Z</time>
      </trkpt>
      <trkpt lat="46.72095" lon="-1.96234">
        <ele>11</ele>
        <time>2024-12-26T09:48:24.046Z</time>
      </trkpt>
      <trkpt lat="46.72096" lon="-1.96233">
        <ele>11</ele>
        <time>2024-12-26T09:48:25.045Z</time>
      </trkpt>
      <trkpt lat="46.72097" lon="-1.96232">
        <ele>11</ele>
        <time>2024-12-26T09:48:26.045Z</time>
      </trkpt>
      <trkpt lat="46.72097" lon="-1.96232">
        <ele>11</ele>
        <time>2024-12-26T09:48:27.045Z</time>
      </trkpt>
      <trkpt lat="46.72097" lon="-1.96232">
        <ele>11</ele>
        <time>2024-12-26T09:48:28.045Z</time>
      </trkpt>
      <trkpt lat="46.72097" lon="-1.96233">
        <ele>11</ele>
        <time>2024-12-26T09:48:29.046Z</time>
      </trkpt>
      <trkpt lat="46.72098" lon="-1.96233">
        <ele>11</ele>
        <time>2024-12-26T09:48:30.045Z</time>
      </trkpt>
      <trkpt lat="46.72098" lon="-1.96235">
        <ele>11</ele>
        <time>2024-12-26T09:48:31.046Z</time>
      </trkpt>
      <trkpt lat="46.72099" lon="-1.96236">
        <ele>11</ele>
        <time>2024-12-26T09:48:32.046Z</time>
      </trkpt>
      <trkpt lat="46.721" lon="-1.96237">
        <ele>11</ele>
        <time>2024-12-26T09:48:33.046Z</time>
      </trkpt>
      <trkpt lat="46.72101" lon="-1.96238">
        <ele>11</ele>
        <time>2024-12-26T09:48:34.046Z</time>
      </trkpt>
      <trkpt lat="46.72101" lon="-1.96238">
        <ele>11</ele>
        <time>2024-12-26T09:48:35.046Z</time>
      </trkpt>
      <trkpt lat="46.72102" lon="-1.96239">
        <ele>11</ele>
        <time>2024-12-26T09:48:36.045Z</time>
      </trkpt>
      <trkpt lat="46.72103" lon="-1.96241">
        <ele>11</ele>
        <time>2024-12-26T09:48:37.046Z</time>
      </trkpt>
      <trkpt lat="46.72104" lon="-1.96241">
        <ele>11</ele>
        <time>2024-12-26T09:48:38.046Z</time>
      </trkpt>
      <trkpt lat="46.72104" lon="-1.96241">
        <ele>11</ele>
        <time>2024-12-26T09:48:39.045Z</time>
      </trkpt>
      <trkpt lat="46.72104" lon="-1.96241">
        <ele>11</ele>
        <time>2024-12-26T09:48:40.046Z</time>
      </trkpt>
      <trkpt lat="46.72104" lon="-1.96242">
        <ele>11</ele>
        <time>2024-12-26T09:48:41.046Z</time>
      </trkpt>
    </trkseg>
  </trk>
</gpx>